<?xml version="1.0" encoding="UTF-8" standalone="no" ?>
<gpx xmlns="http://www.topografix.com/GPX/1/1" xmlns:xsi="http://www.w3.org/2001/XMLSchema-instance" xsi:schemaLocation="http://www.topografix.com/GPX/1/1 http://www.topografix.com/GPX/1/1/gpx.xsd" version="1.1" creator="VisuGPX - https://www.visugpx.com">
  <metadata>
    <name>Boucle Noyer_RougeMoulin</name>
    <desc><![CDATA[Boucle sans difficulté majeure. Que des chemins ouverts mais pas toujours bien entretenus]]></desc>
  </metadata>
  <trk>
    <name><![CDATA[Boucle Noyer_RougeMoulin_1]]></name>
    <trkseg>
      <trkpt lat="49.0126" lon="0.78575">
        <ele>145</ele>
        <time>2019-08-15T07:14:50.698Z</time>
      </trkpt>
      <trkpt lat="49.0126" lon="0.78575">
        <ele>145</ele>
        <time>2019-08-15T07:14:51.679Z</time>
      </trkpt>
      <trkpt lat="49.0126" lon="0.78575">
        <ele>145</ele>
        <time>2019-08-15T07:14:52.689Z</time>
      </trkpt>
      <trkpt lat="49.0126" lon="0.78575">
        <ele>145</ele>
        <time>2019-08-15T07:14:53.706Z</time>
      </trkpt>
      <trkpt lat="49.0126" lon="0.78575">
        <ele>145</ele>
        <time>2019-08-15T07:14:54.715Z</time>
      </trkpt>
      <trkpt lat="49.0126" lon="0.78575">
        <ele>145</ele>
        <time>2019-08-15T07:14:55.683Z</time>
      </trkpt>
      <trkpt lat="49.0126" lon="0.78575">
        <ele>145</ele>
        <time>2019-08-15T07:14:56.705Z</time>
      </trkpt>
      <trkpt lat="49.0126" lon="0.78575">
        <ele>145</ele>
        <time>2019-08-15T07:14:57.686Z</time>
      </trkpt>
      <trkpt lat="49.0126" lon="0.78575">
        <ele>145</ele>
        <time>2019-08-15T07:14:58.690Z</time>
      </trkpt>
      <trkpt lat="49.0126" lon="0.78575">
        <ele>145</ele>
        <time>2019-08-15T07:14:59.685Z</time>
      </trkpt>
      <trkpt lat="49.0126" lon="0.78575">
        <ele>145</ele>
        <time>2019-08-15T07:15:00.680Z</time>
      </trkpt>
      <trkpt lat="49.0126" lon="0.78575">
        <ele>145</ele>
        <time>2019-08-15T07:15:01.689Z</time>
      </trkpt>
      <trkpt lat="49.0126" lon="0.78575">
        <ele>145</ele>
        <time>2019-08-15T07:15:02.700Z</time>
      </trkpt>
      <trkpt lat="49.0126" lon="0.78575">
        <ele>145</ele>
        <time>2019-08-15T07:15:03.686Z</time>
      </trkpt>
      <trkpt lat="49.0126" lon="0.78575">
        <ele>145</ele>
        <time>2019-08-15T07:15:04.683Z</time>
      </trkpt>
      <trkpt lat="49.0126" lon="0.78575">
        <ele>145</ele>
        <time>2019-08-15T07:15:05.687Z</time>
      </trkpt>
      <trkpt lat="49.0126" lon="0.78575">
        <ele>145</ele>
        <time>2019-08-15T07:15:06.683Z</time>
      </trkpt>
      <trkpt lat="49.0126" lon="0.78575">
        <ele>145</ele>
        <time>2019-08-15T07:15:07.686Z</time>
      </trkpt>
      <trkpt lat="49.0126" lon="0.78575">
        <ele>145</ele>
        <time>2019-08-15T07:15:08.687Z</time>
      </trkpt>
      <trkpt lat="49.0126" lon="0.78575">
        <ele>145</ele>
        <time>2019-08-15T07:15:09.680Z</time>
      </trkpt>
      <trkpt lat="49.0126" lon="0.78575">
        <ele>145</ele>
        <time>2019-08-15T07:15:10.683Z</time>
      </trkpt>
      <trkpt lat="49.0126" lon="0.78575">
        <ele>145</ele>
        <time>2019-08-15T07:15:11.683Z</time>
      </trkpt>
      <trkpt lat="49.0126" lon="0.78575">
        <ele>145</ele>
        <time>2019-08-15T07:15:12.693Z</time>
      </trkpt>
      <trkpt lat="49.0126" lon="0.78575">
        <ele>145</ele>
        <time>2019-08-15T07:15:13.683Z</time>
      </trkpt>
      <trkpt lat="49.01257" lon="0.78578">
        <ele>148</ele>
        <time>2019-08-15T07:15:14.684Z</time>
      </trkpt>
      <trkpt lat="49.01257" lon="0.78578">
        <ele>148</ele>
        <time>2019-08-15T07:15:15.683Z</time>
      </trkpt>
      <trkpt lat="49.01255" lon="0.78584">
        <ele>148</ele>
        <time>2019-08-15T07:15:16.686Z</time>
      </trkpt>
      <trkpt lat="49.01253" lon="0.78588">
        <ele>148</ele>
        <time>2019-08-15T07:15:17.686Z</time>
      </trkpt>
      <trkpt lat="49.01253" lon="0.78588">
        <ele>148</ele>
        <time>2019-08-15T07:15:18.683Z</time>
      </trkpt>
      <trkpt lat="49.01248" lon="0.78597">
        <ele>148</ele>
        <time>2019-08-15T07:15:19.682Z</time>
      </trkpt>
      <trkpt lat="49.01246" lon="0.78603">
        <ele>148</ele>
        <time>2019-08-15T07:15:20.687Z</time>
      </trkpt>
      <trkpt lat="49.01246" lon="0.78603">
        <ele>148</ele>
        <time>2019-08-15T07:15:21.682Z</time>
      </trkpt>
      <trkpt lat="49.01244" lon="0.78615">
        <ele>148</ele>
        <time>2019-08-15T07:15:22.685Z</time>
      </trkpt>
      <trkpt lat="49.01244" lon="0.78615">
        <ele>148</ele>
        <time>2019-08-15T07:15:23.683Z</time>
      </trkpt>
      <trkpt lat="49.01244" lon="0.78627">
        <ele>148</ele>
        <time>2019-08-15T07:15:24.686Z</time>
      </trkpt>
      <trkpt lat="49.01244" lon="0.78632">
        <ele>148</ele>
        <time>2019-08-15T07:15:25.685Z</time>
      </trkpt>
      <trkpt lat="49.01244" lon="0.78632">
        <ele>148</ele>
        <time>2019-08-15T07:15:26.682Z</time>
      </trkpt>
      <trkpt lat="49.01243" lon="0.78643">
        <ele>148</ele>
        <time>2019-08-15T07:15:27.686Z</time>
      </trkpt>
      <trkpt lat="49.01243" lon="0.78643">
        <ele>148</ele>
        <time>2019-08-15T07:15:28.682Z</time>
      </trkpt>
      <trkpt lat="49.01242" lon="0.78655">
        <ele>148</ele>
        <time>2019-08-15T07:15:29.685Z</time>
      </trkpt>
      <trkpt lat="49.01243" lon="0.78663">
        <ele>148</ele>
        <time>2019-08-15T07:15:30.686Z</time>
      </trkpt>
      <trkpt lat="49.01243" lon="0.78663">
        <ele>148</ele>
        <time>2019-08-15T07:15:31.682Z</time>
      </trkpt>
      <trkpt lat="49.01246" lon="0.78682">
        <ele>148</ele>
        <time>2019-08-15T07:15:32.686Z</time>
      </trkpt>
      <trkpt lat="49.01246" lon="0.78682">
        <ele>148</ele>
        <time>2019-08-15T07:15:33.680Z</time>
      </trkpt>
      <trkpt lat="49.01247" lon="0.787">
        <ele>147</ele>
        <time>2019-08-15T07:15:34.686Z</time>
      </trkpt>
      <trkpt lat="49.01247" lon="0.787">
        <ele>147</ele>
        <time>2019-08-15T07:15:35.684Z</time>
      </trkpt>
      <trkpt lat="49.01248" lon="0.78719">
        <ele>147</ele>
        <time>2019-08-15T07:15:36.687Z</time>
      </trkpt>
      <trkpt lat="49.01248" lon="0.78719">
        <ele>147</ele>
        <time>2019-08-15T07:15:37.680Z</time>
      </trkpt>
      <trkpt lat="49.01248" lon="0.78735">
        <ele>147</ele>
        <time>2019-08-15T07:15:38.701Z</time>
      </trkpt>
      <trkpt lat="49.01248" lon="0.78735">
        <ele>147</ele>
        <time>2019-08-15T07:15:39.688Z</time>
      </trkpt>
      <trkpt lat="49.01247" lon="0.78751">
        <ele>147</ele>
        <time>2019-08-15T07:15:40.684Z</time>
      </trkpt>
      <trkpt lat="49.01247" lon="0.78751">
        <ele>147</ele>
        <time>2019-08-15T07:15:41.683Z</time>
      </trkpt>
      <trkpt lat="49.01247" lon="0.78768">
        <ele>147</ele>
        <time>2019-08-15T07:15:42.686Z</time>
      </trkpt>
      <trkpt lat="49.01247" lon="0.78768">
        <ele>147</ele>
        <time>2019-08-15T07:15:43.682Z</time>
      </trkpt>
      <trkpt lat="49.01246" lon="0.78785">
        <ele>146</ele>
        <time>2019-08-15T07:15:44.687Z</time>
      </trkpt>
      <trkpt lat="49.01246" lon="0.78785">
        <ele>146</ele>
        <time>2019-08-15T07:15:45.680Z</time>
      </trkpt>
      <trkpt lat="49.01248" lon="0.78803">
        <ele>146</ele>
        <time>2019-08-15T07:15:46.682Z</time>
      </trkpt>
      <trkpt lat="49.01248" lon="0.7881">
        <ele>146</ele>
        <time>2019-08-15T07:15:47.686Z</time>
      </trkpt>
      <trkpt lat="49.01248" lon="0.7881">
        <ele>146</ele>
        <time>2019-08-15T07:15:48.683Z</time>
      </trkpt>
      <trkpt lat="49.01249" lon="0.78827">
        <ele>145</ele>
        <time>2019-08-15T07:15:49.686Z</time>
      </trkpt>
      <trkpt lat="49.01249" lon="0.78836">
        <ele>145</ele>
        <time>2019-08-15T07:15:50.687Z</time>
      </trkpt>
      <trkpt lat="49.01249" lon="0.78836">
        <ele>145</ele>
        <time>2019-08-15T07:15:51.680Z</time>
      </trkpt>
      <trkpt lat="49.01249" lon="0.78853">
        <ele>144</ele>
        <time>2019-08-15T07:15:52.687Z</time>
      </trkpt>
      <trkpt lat="49.01249" lon="0.78861">
        <ele>144</ele>
        <time>2019-08-15T07:15:53.689Z</time>
      </trkpt>
      <trkpt lat="49.0125" lon="0.7887">
        <ele>144</ele>
        <time>2019-08-15T07:15:54.686Z</time>
      </trkpt>
      <trkpt lat="49.0125" lon="0.7887">
        <ele>144</ele>
        <time>2019-08-15T07:15:55.682Z</time>
      </trkpt>
      <trkpt lat="49.0125" lon="0.78887">
        <ele>143</ele>
        <time>2019-08-15T07:15:56.685Z</time>
      </trkpt>
      <trkpt lat="49.0125" lon="0.78887">
        <ele>143</ele>
        <time>2019-08-15T07:15:57.682Z</time>
      </trkpt>
      <trkpt lat="49.01251" lon="0.78905">
        <ele>143</ele>
        <time>2019-08-15T07:15:58.685Z</time>
      </trkpt>
      <trkpt lat="49.01251" lon="0.78905">
        <ele>143</ele>
        <time>2019-08-15T07:15:59.680Z</time>
      </trkpt>
      <trkpt lat="49.01251" lon="0.78925">
        <ele>142</ele>
        <time>2019-08-15T07:16:00.686Z</time>
      </trkpt>
      <trkpt lat="49.01251" lon="0.78925">
        <ele>142</ele>
        <time>2019-08-15T07:16:01.681Z</time>
      </trkpt>
      <trkpt lat="49.01251" lon="0.78945">
        <ele>141</ele>
        <time>2019-08-15T07:16:02.685Z</time>
      </trkpt>
      <trkpt lat="49.01251" lon="0.78945">
        <ele>141</ele>
        <time>2019-08-15T07:16:03.684Z</time>
      </trkpt>
      <trkpt lat="49.01253" lon="0.78964">
        <ele>141</ele>
        <time>2019-08-15T07:16:04.685Z</time>
      </trkpt>
      <trkpt lat="49.01253" lon="0.78964">
        <ele>141</ele>
        <time>2019-08-15T07:16:05.717Z</time>
      </trkpt>
      <trkpt lat="49.01254" lon="0.78984">
        <ele>140</ele>
        <time>2019-08-15T07:16:06.707Z</time>
      </trkpt>
      <trkpt lat="49.01254" lon="0.78984">
        <ele>140</ele>
        <time>2019-08-15T07:16:07.698Z</time>
      </trkpt>
      <trkpt lat="49.01255" lon="0.79004">
        <ele>140</ele>
        <time>2019-08-15T07:16:08.686Z</time>
      </trkpt>
      <trkpt lat="49.01255" lon="0.79004">
        <ele>140</ele>
        <time>2019-08-15T07:16:09.682Z</time>
      </trkpt>
      <trkpt lat="49.01256" lon="0.79025">
        <ele>140</ele>
        <time>2019-08-15T07:16:10.685Z</time>
      </trkpt>
      <trkpt lat="49.01256" lon="0.79025">
        <ele>140</ele>
        <time>2019-08-15T07:16:11.683Z</time>
      </trkpt>
      <trkpt lat="49.01256" lon="0.79045">
        <ele>140</ele>
        <time>2019-08-15T07:16:12.687Z</time>
      </trkpt>
      <trkpt lat="49.01256" lon="0.79045">
        <ele>140</ele>
        <time>2019-08-15T07:16:13.681Z</time>
      </trkpt>
      <trkpt lat="49.01261" lon="0.79067">
        <ele>140</ele>
        <time>2019-08-15T07:16:14.686Z</time>
      </trkpt>
      <trkpt lat="49.01261" lon="0.79067">
        <ele>140</ele>
        <time>2019-08-15T07:16:15.683Z</time>
      </trkpt>
      <trkpt lat="49.01267" lon="0.79085">
        <ele>140</ele>
        <time>2019-08-15T07:16:16.685Z</time>
      </trkpt>
      <trkpt lat="49.01267" lon="0.79085">
        <ele>140</ele>
        <time>2019-08-15T07:16:17.681Z</time>
      </trkpt>
      <trkpt lat="49.01275" lon="0.79099">
        <ele>140</ele>
        <time>2019-08-15T07:16:18.685Z</time>
      </trkpt>
      <trkpt lat="49.01275" lon="0.79099">
        <ele>140</ele>
        <time>2019-08-15T07:16:19.682Z</time>
      </trkpt>
      <trkpt lat="49.01284" lon="0.79116">
        <ele>140</ele>
        <time>2019-08-15T07:16:20.686Z</time>
      </trkpt>
      <trkpt lat="49.01284" lon="0.79116">
        <ele>140</ele>
        <time>2019-08-15T07:16:21.682Z</time>
      </trkpt>
      <trkpt lat="49.0129" lon="0.79131">
        <ele>140</ele>
        <time>2019-08-15T07:16:22.686Z</time>
      </trkpt>
      <trkpt lat="49.0129" lon="0.79131">
        <ele>140</ele>
        <time>2019-08-15T07:16:23.682Z</time>
      </trkpt>
      <trkpt lat="49.01295" lon="0.79144">
        <ele>140</ele>
        <time>2019-08-15T07:16:24.686Z</time>
      </trkpt>
      <trkpt lat="49.01295" lon="0.79144">
        <ele>140</ele>
        <time>2019-08-15T07:16:25.682Z</time>
      </trkpt>
      <trkpt lat="49.01299" lon="0.79156">
        <ele>140</ele>
        <time>2019-08-15T07:16:26.706Z</time>
      </trkpt>
      <trkpt lat="49.013" lon="0.79163">
        <ele>140</ele>
        <time>2019-08-15T07:16:27.685Z</time>
      </trkpt>
      <trkpt lat="49.013" lon="0.79163">
        <ele>140</ele>
        <time>2019-08-15T07:16:28.682Z</time>
      </trkpt>
      <trkpt lat="49.01302" lon="0.79177">
        <ele>140</ele>
        <time>2019-08-15T07:16:29.685Z</time>
      </trkpt>
      <trkpt lat="49.01304" lon="0.79184">
        <ele>140</ele>
        <time>2019-08-15T07:16:30.683Z</time>
      </trkpt>
      <trkpt lat="49.01304" lon="0.79184">
        <ele>140</ele>
        <time>2019-08-15T07:16:31.679Z</time>
      </trkpt>
      <trkpt lat="49.01307" lon="0.79197">
        <ele>140</ele>
        <time>2019-08-15T07:16:32.685Z</time>
      </trkpt>
      <trkpt lat="49.01307" lon="0.79197">
        <ele>140</ele>
        <time>2019-08-15T07:16:33.682Z</time>
      </trkpt>
      <trkpt lat="49.01309" lon="0.7921">
        <ele>140</ele>
        <time>2019-08-15T07:16:34.685Z</time>
      </trkpt>
      <trkpt lat="49.01309" lon="0.7921">
        <ele>140</ele>
        <time>2019-08-15T07:16:35.682Z</time>
      </trkpt>
      <trkpt lat="49.01311" lon="0.79223">
        <ele>139</ele>
        <time>2019-08-15T07:16:36.684Z</time>
      </trkpt>
      <trkpt lat="49.01311" lon="0.79223">
        <ele>139</ele>
        <time>2019-08-15T07:16:37.681Z</time>
      </trkpt>
      <trkpt lat="49.01314" lon="0.79237">
        <ele>139</ele>
        <time>2019-08-15T07:16:38.684Z</time>
      </trkpt>
      <trkpt lat="49.01314" lon="0.79237">
        <ele>139</ele>
        <time>2019-08-15T07:16:39.682Z</time>
      </trkpt>
      <trkpt lat="49.01317" lon="0.79251">
        <ele>140</ele>
        <time>2019-08-15T07:16:40.684Z</time>
      </trkpt>
      <trkpt lat="49.01319" lon="0.79258">
        <ele>139</ele>
        <time>2019-08-15T07:16:41.685Z</time>
      </trkpt>
      <trkpt lat="49.0132" lon="0.79264">
        <ele>139</ele>
        <time>2019-08-15T07:16:42.686Z</time>
      </trkpt>
      <trkpt lat="49.0132" lon="0.79264">
        <ele>139</ele>
        <time>2019-08-15T07:16:43.681Z</time>
      </trkpt>
      <trkpt lat="49.01322" lon="0.79277">
        <ele>139</ele>
        <time>2019-08-15T07:16:44.686Z</time>
      </trkpt>
      <trkpt lat="49.01322" lon="0.79277">
        <ele>139</ele>
        <time>2019-08-15T07:16:45.679Z</time>
      </trkpt>
      <trkpt lat="49.01324" lon="0.79293">
        <ele>139</ele>
        <time>2019-08-15T07:16:46.685Z</time>
      </trkpt>
      <trkpt lat="49.01323" lon="0.79301">
        <ele>139</ele>
        <time>2019-08-15T07:16:47.682Z</time>
      </trkpt>
      <trkpt lat="49.01321" lon="0.7931">
        <ele>139</ele>
        <time>2019-08-15T07:16:48.686Z</time>
      </trkpt>
      <trkpt lat="49.01321" lon="0.7931">
        <ele>139</ele>
        <time>2019-08-15T07:16:49.681Z</time>
      </trkpt>
      <trkpt lat="49.01318" lon="0.79328">
        <ele>139</ele>
        <time>2019-08-15T07:16:50.686Z</time>
      </trkpt>
      <trkpt lat="49.01316" lon="0.79336">
        <ele>139</ele>
        <time>2019-08-15T07:16:51.685Z</time>
      </trkpt>
      <trkpt lat="49.01316" lon="0.79336">
        <ele>139</ele>
        <time>2019-08-15T07:16:52.680Z</time>
      </trkpt>
      <trkpt lat="49.0131" lon="0.79348">
        <ele>139</ele>
        <time>2019-08-15T07:16:53.686Z</time>
      </trkpt>
      <trkpt lat="49.0131" lon="0.79348">
        <ele>139</ele>
        <time>2019-08-15T07:16:54.684Z</time>
      </trkpt>
      <trkpt lat="49.01304" lon="0.7936">
        <ele>139</ele>
        <time>2019-08-15T07:16:55.685Z</time>
      </trkpt>
      <trkpt lat="49.01304" lon="0.7936">
        <ele>139</ele>
        <time>2019-08-15T07:16:56.682Z</time>
      </trkpt>
      <trkpt lat="49.01299" lon="0.7937">
        <ele>139</ele>
        <time>2019-08-15T07:16:57.684Z</time>
      </trkpt>
      <trkpt lat="49.01299" lon="0.7937">
        <ele>139</ele>
        <time>2019-08-15T07:16:58.682Z</time>
      </trkpt>
      <trkpt lat="49.01293" lon="0.7938">
        <ele>139</ele>
        <time>2019-08-15T07:16:59.694Z</time>
      </trkpt>
      <trkpt lat="49.0129" lon="0.79385">
        <ele>139</ele>
        <time>2019-08-15T07:17:00.686Z</time>
      </trkpt>
      <trkpt lat="49.0129" lon="0.79385">
        <ele>139</ele>
        <time>2019-08-15T07:17:01.682Z</time>
      </trkpt>
      <trkpt lat="49.01284" lon="0.79396">
        <ele>138</ele>
        <time>2019-08-15T07:17:02.685Z</time>
      </trkpt>
      <trkpt lat="49.01281" lon="0.79403">
        <ele>138</ele>
        <time>2019-08-15T07:17:03.684Z</time>
      </trkpt>
      <trkpt lat="49.01281" lon="0.79403">
        <ele>138</ele>
        <time>2019-08-15T07:17:04.684Z</time>
      </trkpt>
      <trkpt lat="49.01274" lon="0.79416">
        <ele>138</ele>
        <time>2019-08-15T07:17:05.684Z</time>
      </trkpt>
      <trkpt lat="49.01271" lon="0.79422">
        <ele>138</ele>
        <time>2019-08-15T07:17:06.687Z</time>
      </trkpt>
      <trkpt lat="49.01271" lon="0.79422">
        <ele>138</ele>
        <time>2019-08-15T07:17:07.684Z</time>
      </trkpt>
      <trkpt lat="49.01266" lon="0.79435">
        <ele>137</ele>
        <time>2019-08-15T07:17:08.686Z</time>
      </trkpt>
      <trkpt lat="49.01266" lon="0.79435">
        <ele>137</ele>
        <time>2019-08-15T07:17:09.682Z</time>
      </trkpt>
      <trkpt lat="49.01261" lon="0.79451">
        <ele>137</ele>
        <time>2019-08-15T07:17:10.685Z</time>
      </trkpt>
      <trkpt lat="49.01261" lon="0.79451">
        <ele>137</ele>
        <time>2019-08-15T07:17:11.678Z</time>
      </trkpt>
      <trkpt lat="49.01256" lon="0.79467">
        <ele>137</ele>
        <time>2019-08-15T07:17:12.702Z</time>
      </trkpt>
      <trkpt lat="49.01256" lon="0.79467">
        <ele>137</ele>
        <time>2019-08-15T07:17:13.696Z</time>
      </trkpt>
      <trkpt lat="49.01251" lon="0.79484">
        <ele>137</ele>
        <time>2019-08-15T07:17:14.683Z</time>
      </trkpt>
      <trkpt lat="49.01251" lon="0.79484">
        <ele>137</ele>
        <time>2019-08-15T07:17:15.679Z</time>
      </trkpt>
      <trkpt lat="49.01247" lon="0.79501">
        <ele>138</ele>
        <time>2019-08-15T07:17:16.684Z</time>
      </trkpt>
      <trkpt lat="49.01245" lon="0.79509">
        <ele>138</ele>
        <time>2019-08-15T07:17:17.684Z</time>
      </trkpt>
      <trkpt lat="49.01243" lon="0.79516">
        <ele>139</ele>
        <time>2019-08-15T07:17:18.687Z</time>
      </trkpt>
      <trkpt lat="49.01243" lon="0.79516">
        <ele>139</ele>
        <time>2019-08-15T07:17:19.680Z</time>
      </trkpt>
      <trkpt lat="49.0124" lon="0.79532">
        <ele>140</ele>
        <time>2019-08-15T07:17:20.686Z</time>
      </trkpt>
      <trkpt lat="49.0124" lon="0.79532">
        <ele>140</ele>
        <time>2019-08-15T07:17:21.683Z</time>
      </trkpt>
      <trkpt lat="49.01237" lon="0.79547">
        <ele>140</ele>
        <time>2019-08-15T07:17:22.685Z</time>
      </trkpt>
      <trkpt lat="49.01237" lon="0.79547">
        <ele>140</ele>
        <time>2019-08-15T07:17:23.678Z</time>
      </trkpt>
      <trkpt lat="49.01234" lon="0.79564">
        <ele>140</ele>
        <time>2019-08-15T07:17:24.702Z</time>
      </trkpt>
      <trkpt lat="49.01233" lon="0.79572">
        <ele>139</ele>
        <time>2019-08-15T07:17:25.707Z</time>
      </trkpt>
      <trkpt lat="49.01233" lon="0.79572">
        <ele>139</ele>
        <time>2019-08-15T07:17:26.716Z</time>
      </trkpt>
      <trkpt lat="49.01229" lon="0.79587">
        <ele>139</ele>
        <time>2019-08-15T07:17:27.682Z</time>
      </trkpt>
      <trkpt lat="49.01228" lon="0.79595">
        <ele>139</ele>
        <time>2019-08-15T07:17:28.689Z</time>
      </trkpt>
      <trkpt lat="49.01228" lon="0.79595">
        <ele>139</ele>
        <time>2019-08-15T07:17:29.683Z</time>
      </trkpt>
      <trkpt lat="49.01224" lon="0.7961">
        <ele>138</ele>
        <time>2019-08-15T07:17:30.683Z</time>
      </trkpt>
      <trkpt lat="49.01224" lon="0.7961">
        <ele>138</ele>
        <time>2019-08-15T07:17:31.678Z</time>
      </trkpt>
      <trkpt lat="49.0122" lon="0.79625">
        <ele>138</ele>
        <time>2019-08-15T07:17:32.685Z</time>
      </trkpt>
      <trkpt lat="49.0122" lon="0.79625">
        <ele>138</ele>
        <time>2019-08-15T07:17:33.681Z</time>
      </trkpt>
      <trkpt lat="49.01216" lon="0.79641">
        <ele>138</ele>
        <time>2019-08-15T07:17:34.684Z</time>
      </trkpt>
      <trkpt lat="49.01215" lon="0.79649">
        <ele>138</ele>
        <time>2019-08-15T07:17:35.685Z</time>
      </trkpt>
      <trkpt lat="49.01215" lon="0.79649">
        <ele>138</ele>
        <time>2019-08-15T07:17:36.684Z</time>
      </trkpt>
      <trkpt lat="49.01212" lon="0.79666">
        <ele>137</ele>
        <time>2019-08-15T07:17:37.683Z</time>
      </trkpt>
      <trkpt lat="49.01212" lon="0.79675">
        <ele>137</ele>
        <time>2019-08-15T07:17:38.686Z</time>
      </trkpt>
      <trkpt lat="49.01212" lon="0.79675">
        <ele>137</ele>
        <time>2019-08-15T07:17:39.681Z</time>
      </trkpt>
      <trkpt lat="49.0121" lon="0.79694">
        <ele>137</ele>
        <time>2019-08-15T07:17:40.684Z</time>
      </trkpt>
      <trkpt lat="49.01208" lon="0.79705">
        <ele>137</ele>
        <time>2019-08-15T07:17:41.685Z</time>
      </trkpt>
      <trkpt lat="49.01207" lon="0.79715">
        <ele>137</ele>
        <time>2019-08-15T07:17:42.711Z</time>
      </trkpt>
      <trkpt lat="49.01207" lon="0.79715">
        <ele>137</ele>
        <time>2019-08-15T07:17:43.682Z</time>
      </trkpt>
      <trkpt lat="49.01202" lon="0.79738">
        <ele>137</ele>
        <time>2019-08-15T07:17:44.685Z</time>
      </trkpt>
      <trkpt lat="49.01202" lon="0.79738">
        <ele>137</ele>
        <time>2019-08-15T07:17:45.679Z</time>
      </trkpt>
      <trkpt lat="49.01195" lon="0.79759">
        <ele>137</ele>
        <time>2019-08-15T07:17:46.695Z</time>
      </trkpt>
      <trkpt lat="49.01192" lon="0.79769">
        <ele>136</ele>
        <time>2019-08-15T07:17:47.697Z</time>
      </trkpt>
      <trkpt lat="49.01189" lon="0.79779">
        <ele>136</ele>
        <time>2019-08-15T07:17:48.686Z</time>
      </trkpt>
      <trkpt lat="49.01189" lon="0.79779">
        <ele>136</ele>
        <time>2019-08-15T07:17:49.680Z</time>
      </trkpt>
      <trkpt lat="49.01185" lon="0.79797">
        <ele>136</ele>
        <time>2019-08-15T07:17:50.698Z</time>
      </trkpt>
      <trkpt lat="49.01185" lon="0.79797">
        <ele>136</ele>
        <time>2019-08-15T07:17:51.683Z</time>
      </trkpt>
      <trkpt lat="49.01183" lon="0.79813">
        <ele>136</ele>
        <time>2019-08-15T07:17:52.684Z</time>
      </trkpt>
      <trkpt lat="49.01181" lon="0.79821">
        <ele>136</ele>
        <time>2019-08-15T07:17:53.684Z</time>
      </trkpt>
      <trkpt lat="49.0118" lon="0.79829">
        <ele>136</ele>
        <time>2019-08-15T07:17:54.686Z</time>
      </trkpt>
      <trkpt lat="49.0118" lon="0.79829">
        <ele>136</ele>
        <time>2019-08-15T07:17:55.681Z</time>
      </trkpt>
      <trkpt lat="49.01177" lon="0.79845">
        <ele>136</ele>
        <time>2019-08-15T07:17:56.686Z</time>
      </trkpt>
      <trkpt lat="49.01177" lon="0.79845">
        <ele>136</ele>
        <time>2019-08-15T07:17:57.682Z</time>
      </trkpt>
      <trkpt lat="49.0117" lon="0.79858">
        <ele>135</ele>
        <time>2019-08-15T07:17:58.683Z</time>
      </trkpt>
      <trkpt lat="49.0117" lon="0.79858">
        <ele>135</ele>
        <time>2019-08-15T07:17:59.681Z</time>
      </trkpt>
      <trkpt lat="49.01161" lon="0.79872">
        <ele>134</ele>
        <time>2019-08-15T07:18:00.686Z</time>
      </trkpt>
      <trkpt lat="49.01161" lon="0.79872">
        <ele>134</ele>
        <time>2019-08-15T07:18:01.681Z</time>
      </trkpt>
      <trkpt lat="49.01151" lon="0.79887">
        <ele>134</ele>
        <time>2019-08-15T07:18:02.683Z</time>
      </trkpt>
      <trkpt lat="49.01151" lon="0.79887">
        <ele>134</ele>
        <time>2019-08-15T07:18:03.696Z</time>
      </trkpt>
      <trkpt lat="49.0114" lon="0.799">
        <ele>134</ele>
        <time>2019-08-15T07:18:04.684Z</time>
      </trkpt>
      <trkpt lat="49.01134" lon="0.79906">
        <ele>133</ele>
        <time>2019-08-15T07:18:05.685Z</time>
      </trkpt>
      <trkpt lat="49.01128" lon="0.79912">
        <ele>133</ele>
        <time>2019-08-15T07:18:06.691Z</time>
      </trkpt>
      <trkpt lat="49.01128" lon="0.79912">
        <ele>133</ele>
        <time>2019-08-15T07:18:07.681Z</time>
      </trkpt>
      <trkpt lat="49.01116" lon="0.79925">
        <ele>133</ele>
        <time>2019-08-15T07:18:08.686Z</time>
      </trkpt>
      <trkpt lat="49.01116" lon="0.79925">
        <ele>133</ele>
        <time>2019-08-15T07:18:09.682Z</time>
      </trkpt>
      <trkpt lat="49.01105" lon="0.79935">
        <ele>132</ele>
        <time>2019-08-15T07:18:10.682Z</time>
      </trkpt>
      <trkpt lat="49.011" lon="0.7994">
        <ele>132</ele>
        <time>2019-08-15T07:18:11.684Z</time>
      </trkpt>
      <trkpt lat="49.011" lon="0.7994">
        <ele>132</ele>
        <time>2019-08-15T07:18:12.683Z</time>
      </trkpt>
      <trkpt lat="49.0109" lon="0.79949">
        <ele>132</ele>
        <time>2019-08-15T07:18:13.684Z</time>
      </trkpt>
      <trkpt lat="49.01085" lon="0.79953">
        <ele>131</ele>
        <time>2019-08-15T07:18:14.684Z</time>
      </trkpt>
      <trkpt lat="49.01085" lon="0.79953">
        <ele>131</ele>
        <time>2019-08-15T07:18:15.690Z</time>
      </trkpt>
      <trkpt lat="49.01073" lon="0.79962">
        <ele>131</ele>
        <time>2019-08-15T07:18:16.686Z</time>
      </trkpt>
      <trkpt lat="49.01073" lon="0.79962">
        <ele>131</ele>
        <time>2019-08-15T07:18:17.683Z</time>
      </trkpt>
      <trkpt lat="49.01061" lon="0.79972">
        <ele>130</ele>
        <time>2019-08-15T07:18:18.686Z</time>
      </trkpt>
      <trkpt lat="49.01061" lon="0.79972">
        <ele>130</ele>
        <time>2019-08-15T07:18:19.679Z</time>
      </trkpt>
      <trkpt lat="49.0105" lon="0.79981">
        <ele>130</ele>
        <time>2019-08-15T07:18:20.684Z</time>
      </trkpt>
      <trkpt lat="49.0105" lon="0.79981">
        <ele>130</ele>
        <time>2019-08-15T07:18:21.681Z</time>
      </trkpt>
      <trkpt lat="49.01039" lon="0.79988">
        <ele>130</ele>
        <time>2019-08-15T07:18:22.684Z</time>
      </trkpt>
      <trkpt lat="49.01034" lon="0.79991">
        <ele>130</ele>
        <time>2019-08-15T07:18:23.685Z</time>
      </trkpt>
      <trkpt lat="49.01034" lon="0.79991">
        <ele>130</ele>
        <time>2019-08-15T07:18:24.683Z</time>
      </trkpt>
      <trkpt lat="49.01026" lon="0.79996">
        <ele>129</ele>
        <time>2019-08-15T07:18:25.683Z</time>
      </trkpt>
      <trkpt lat="49.01026" lon="0.79996">
        <ele>129</ele>
        <time>2019-08-15T07:18:26.681Z</time>
      </trkpt>
      <trkpt lat="49.01015" lon="0.80002">
        <ele>129</ele>
        <time>2019-08-15T07:18:27.684Z</time>
      </trkpt>
      <trkpt lat="49.01015" lon="0.80002">
        <ele>129</ele>
        <time>2019-08-15T07:18:28.679Z</time>
      </trkpt>
      <trkpt lat="49.01006" lon="0.8001">
        <ele>128</ele>
        <time>2019-08-15T07:18:29.685Z</time>
      </trkpt>
      <trkpt lat="49.01002" lon="0.80013">
        <ele>128</ele>
        <time>2019-08-15T07:18:30.686Z</time>
      </trkpt>
      <trkpt lat="49.01002" lon="0.80013">
        <ele>128</ele>
        <time>2019-08-15T07:18:31.682Z</time>
      </trkpt>
      <trkpt lat="49.00992" lon="0.80024">
        <ele>127</ele>
        <time>2019-08-15T07:18:32.685Z</time>
      </trkpt>
      <trkpt lat="49.00987" lon="0.80027">
        <ele>127</ele>
        <time>2019-08-15T07:18:33.684Z</time>
      </trkpt>
      <trkpt lat="49.00987" lon="0.80027">
        <ele>127</ele>
        <time>2019-08-15T07:18:34.681Z</time>
      </trkpt>
      <trkpt lat="49.00978" lon="0.80033">
        <ele>126</ele>
        <time>2019-08-15T07:18:35.683Z</time>
      </trkpt>
      <trkpt lat="49.00973" lon="0.80036">
        <ele>126</ele>
        <time>2019-08-15T07:18:36.687Z</time>
      </trkpt>
      <trkpt lat="49.00973" lon="0.80036">
        <ele>126</ele>
        <time>2019-08-15T07:18:37.682Z</time>
      </trkpt>
      <trkpt lat="49.00965" lon="0.80042">
        <ele>125</ele>
        <time>2019-08-15T07:18:38.685Z</time>
      </trkpt>
      <trkpt lat="49.00965" lon="0.80042">
        <ele>125</ele>
        <time>2019-08-15T07:18:39.681Z</time>
      </trkpt>
      <trkpt lat="49.00956" lon="0.80046">
        <ele>124</ele>
        <time>2019-08-15T07:18:40.684Z</time>
      </trkpt>
      <trkpt lat="49.00956" lon="0.80046">
        <ele>124</ele>
        <time>2019-08-15T07:18:41.682Z</time>
      </trkpt>
      <trkpt lat="49.00949" lon="0.80048">
        <ele>123</ele>
        <time>2019-08-15T07:18:42.686Z</time>
      </trkpt>
      <trkpt lat="49.00949" lon="0.80048">
        <ele>123</ele>
        <time>2019-08-15T07:18:43.682Z</time>
      </trkpt>
      <trkpt lat="49.00942" lon="0.80046">
        <ele>123</ele>
        <time>2019-08-15T07:18:44.685Z</time>
      </trkpt>
      <trkpt lat="49.00942" lon="0.80046">
        <ele>123</ele>
        <time>2019-08-15T07:18:45.682Z</time>
      </trkpt>
      <trkpt lat="49.0094" lon="0.80046">
        <ele>122</ele>
        <time>2019-08-15T07:18:46.683Z</time>
      </trkpt>
      <trkpt lat="49.0094" lon="0.80046">
        <ele>122</ele>
        <time>2019-08-15T07:18:47.682Z</time>
      </trkpt>
      <trkpt lat="49.00938" lon="0.80046">
        <ele>121</ele>
        <time>2019-08-15T07:18:48.686Z</time>
      </trkpt>
      <trkpt lat="49.00938" lon="0.80046">
        <ele>121</ele>
        <time>2019-08-15T07:18:49.680Z</time>
      </trkpt>
      <trkpt lat="49.00938" lon="0.80046">
        <ele>121</ele>
        <time>2019-08-15T07:18:50.688Z</time>
      </trkpt>
      <trkpt lat="49.00925" lon="0.80042">
        <ele>120</ele>
        <time>2019-08-15T07:18:51.683Z</time>
      </trkpt>
      <trkpt lat="49.00923" lon="0.80041">
        <ele>120</ele>
        <time>2019-08-15T07:18:52.738Z</time>
      </trkpt>
      <trkpt lat="49.00923" lon="0.80041">
        <ele>120</ele>
        <time>2019-08-15T07:18:53.687Z</time>
      </trkpt>
      <trkpt lat="49.00918" lon="0.80038">
        <ele>120</ele>
        <time>2019-08-15T07:18:54.690Z</time>
      </trkpt>
      <trkpt lat="49.00916" lon="0.80037">
        <ele>120</ele>
        <time>2019-08-15T07:18:55.717Z</time>
      </trkpt>
      <trkpt lat="49.00914" lon="0.80036">
        <ele>120</ele>
        <time>2019-08-15T07:18:56.716Z</time>
      </trkpt>
      <trkpt lat="49.00914" lon="0.80036">
        <ele>120</ele>
        <time>2019-08-15T07:18:57.713Z</time>
      </trkpt>
      <trkpt lat="49.00911" lon="0.80034">
        <ele>120</ele>
        <time>2019-08-15T07:18:58.699Z</time>
      </trkpt>
      <trkpt lat="49.0091" lon="0.80034">
        <ele>120</ele>
        <time>2019-08-15T07:18:59.683Z</time>
      </trkpt>
      <trkpt lat="49.0091" lon="0.80034">
        <ele>120</ele>
        <time>2019-08-15T07:19:00.712Z</time>
      </trkpt>
      <trkpt lat="49.0091" lon="0.80033">
        <ele>120</ele>
        <time>2019-08-15T07:19:01.716Z</time>
      </trkpt>
      <trkpt lat="49.0091" lon="0.80033">
        <ele>120</ele>
        <time>2019-08-15T07:19:02.713Z</time>
      </trkpt>
      <trkpt lat="49.00909" lon="0.80033">
        <ele>120</ele>
        <time>2019-08-15T07:19:03.700Z</time>
      </trkpt>
      <trkpt lat="49.00909" lon="0.80025">
        <ele>118</ele>
        <time>2019-08-15T07:19:04.685Z</time>
      </trkpt>
      <trkpt lat="49.00909" lon="0.80025">
        <ele>118</ele>
        <time>2019-08-15T07:19:05.686Z</time>
      </trkpt>
      <trkpt lat="49.0091" lon="0.80022">
        <ele>118</ele>
        <time>2019-08-15T07:19:06.683Z</time>
      </trkpt>
      <trkpt lat="49.0091" lon="0.80022">
        <ele>118</ele>
        <time>2019-08-15T07:19:07.680Z</time>
      </trkpt>
      <trkpt lat="49.00911" lon="0.80017">
        <ele>118</ele>
        <time>2019-08-15T07:19:08.713Z</time>
      </trkpt>
      <trkpt lat="49.00911" lon="0.80017">
        <ele>118</ele>
        <time>2019-08-15T07:19:09.706Z</time>
      </trkpt>
      <trkpt lat="49.00912" lon="0.80012">
        <ele>118</ele>
        <time>2019-08-15T07:19:10.714Z</time>
      </trkpt>
      <trkpt lat="49.00912" lon="0.80012">
        <ele>118</ele>
        <time>2019-08-15T07:19:11.706Z</time>
      </trkpt>
      <trkpt lat="49.00913" lon="0.80005">
        <ele>118</ele>
        <time>2019-08-15T07:19:12.709Z</time>
      </trkpt>
      <trkpt lat="49.00913" lon="0.80005">
        <ele>118</ele>
        <time>2019-08-15T07:19:13.719Z</time>
      </trkpt>
      <trkpt lat="49.00914" lon="0.79996">
        <ele>118</ele>
        <time>2019-08-15T07:19:14.684Z</time>
      </trkpt>
      <trkpt lat="49.00914" lon="0.79996">
        <ele>118</ele>
        <time>2019-08-15T07:19:15.713Z</time>
      </trkpt>
      <trkpt lat="49.00915" lon="0.79985">
        <ele>118</ele>
        <time>2019-08-15T07:19:16.709Z</time>
      </trkpt>
      <trkpt lat="49.00915" lon="0.79985">
        <ele>118</ele>
        <time>2019-08-15T07:19:17.706Z</time>
      </trkpt>
      <trkpt lat="49.00916" lon="0.79972">
        <ele>118</ele>
        <time>2019-08-15T07:19:18.709Z</time>
      </trkpt>
      <trkpt lat="49.00916" lon="0.79972">
        <ele>118</ele>
        <time>2019-08-15T07:19:19.705Z</time>
      </trkpt>
      <trkpt lat="49.00918" lon="0.79961">
        <ele>118</ele>
        <time>2019-08-15T07:19:20.714Z</time>
      </trkpt>
      <trkpt lat="49.00918" lon="0.79961">
        <ele>118</ele>
        <time>2019-08-15T07:19:21.706Z</time>
      </trkpt>
      <trkpt lat="49.00916" lon="0.79949">
        <ele>118</ele>
        <time>2019-08-15T07:19:22.709Z</time>
      </trkpt>
      <trkpt lat="49.00916" lon="0.79949">
        <ele>118</ele>
        <time>2019-08-15T07:19:23.704Z</time>
      </trkpt>
      <trkpt lat="49.00913" lon="0.79934">
        <ele>118</ele>
        <time>2019-08-15T07:19:24.708Z</time>
      </trkpt>
      <trkpt lat="49.00911" lon="0.79927">
        <ele>119</ele>
        <time>2019-08-15T07:19:25.713Z</time>
      </trkpt>
      <trkpt lat="49.00911" lon="0.79927">
        <ele>119</ele>
        <time>2019-08-15T07:19:26.682Z</time>
      </trkpt>
      <trkpt lat="49.00908" lon="0.79912">
        <ele>119</ele>
        <time>2019-08-15T07:19:27.708Z</time>
      </trkpt>
      <trkpt lat="49.00906" lon="0.79904">
        <ele>119</ele>
        <time>2019-08-15T07:19:28.709Z</time>
      </trkpt>
      <trkpt lat="49.00906" lon="0.79904">
        <ele>119</ele>
        <time>2019-08-15T07:19:29.705Z</time>
      </trkpt>
      <trkpt lat="49.00904" lon="0.7989">
        <ele>119</ele>
        <time>2019-08-15T07:19:30.708Z</time>
      </trkpt>
      <trkpt lat="49.00904" lon="0.7989">
        <ele>119</ele>
        <time>2019-08-15T07:19:31.703Z</time>
      </trkpt>
      <trkpt lat="49.00901" lon="0.79876">
        <ele>119</ele>
        <time>2019-08-15T07:19:32.714Z</time>
      </trkpt>
      <trkpt lat="49.00901" lon="0.79876">
        <ele>119</ele>
        <time>2019-08-15T07:19:33.719Z</time>
      </trkpt>
      <trkpt lat="49.00899" lon="0.79863">
        <ele>119</ele>
        <time>2019-08-15T07:19:34.685Z</time>
      </trkpt>
      <trkpt lat="49.00899" lon="0.79863">
        <ele>119</ele>
        <time>2019-08-15T07:19:35.679Z</time>
      </trkpt>
      <trkpt lat="49.00897" lon="0.79849">
        <ele>119</ele>
        <time>2019-08-15T07:19:36.709Z</time>
      </trkpt>
      <trkpt lat="49.00897" lon="0.79849">
        <ele>119</ele>
        <time>2019-08-15T07:19:37.679Z</time>
      </trkpt>
      <trkpt lat="49.00896" lon="0.79837">
        <ele>119</ele>
        <time>2019-08-15T07:19:38.686Z</time>
      </trkpt>
      <trkpt lat="49.00896" lon="0.79837">
        <ele>119</ele>
        <time>2019-08-15T07:19:39.713Z</time>
      </trkpt>
      <trkpt lat="49.00895" lon="0.79825">
        <ele>119</ele>
        <time>2019-08-15T07:19:40.709Z</time>
      </trkpt>
      <trkpt lat="49.00895" lon="0.79825">
        <ele>119</ele>
        <time>2019-08-15T07:19:41.705Z</time>
      </trkpt>
      <trkpt lat="49.00896" lon="0.79808">
        <ele>119</ele>
        <time>2019-08-15T07:19:42.714Z</time>
      </trkpt>
      <trkpt lat="49.00896" lon="0.79808">
        <ele>119</ele>
        <time>2019-08-15T07:19:43.709Z</time>
      </trkpt>
      <trkpt lat="49.00896" lon="0.79784">
        <ele>120</ele>
        <time>2019-08-15T07:19:44.714Z</time>
      </trkpt>
      <trkpt lat="49.00896" lon="0.79784">
        <ele>120</ele>
        <time>2019-08-15T07:19:45.710Z</time>
      </trkpt>
      <trkpt lat="49.00897" lon="0.79765">
        <ele>121</ele>
        <time>2019-08-15T07:19:46.709Z</time>
      </trkpt>
      <trkpt lat="49.00897" lon="0.79765">
        <ele>121</ele>
        <time>2019-08-15T07:19:47.706Z</time>
      </trkpt>
      <trkpt lat="49.00897" lon="0.79751">
        <ele>121</ele>
        <time>2019-08-15T07:19:48.706Z</time>
      </trkpt>
      <trkpt lat="49.00897" lon="0.79751">
        <ele>121</ele>
        <time>2019-08-15T07:19:49.705Z</time>
      </trkpt>
      <trkpt lat="49.00896" lon="0.79737">
        <ele>122</ele>
        <time>2019-08-15T07:19:50.714Z</time>
      </trkpt>
      <trkpt lat="49.00896" lon="0.79737">
        <ele>122</ele>
        <time>2019-08-15T07:19:51.703Z</time>
      </trkpt>
      <trkpt lat="49.00894" lon="0.79721">
        <ele>122</ele>
        <time>2019-08-15T07:19:52.709Z</time>
      </trkpt>
      <trkpt lat="49.00894" lon="0.79721">
        <ele>122</ele>
        <time>2019-08-15T07:19:53.706Z</time>
      </trkpt>
      <trkpt lat="49.00892" lon="0.79703">
        <ele>123</ele>
        <time>2019-08-15T07:19:54.709Z</time>
      </trkpt>
      <trkpt lat="49.00892" lon="0.79703">
        <ele>123</ele>
        <time>2019-08-15T07:19:55.714Z</time>
      </trkpt>
      <trkpt lat="49.0089" lon="0.79689">
        <ele>123</ele>
        <time>2019-08-15T07:19:56.714Z</time>
      </trkpt>
      <trkpt lat="49.0089" lon="0.79689">
        <ele>123</ele>
        <time>2019-08-15T07:19:57.706Z</time>
      </trkpt>
      <trkpt lat="49.0089" lon="0.79672">
        <ele>124</ele>
        <time>2019-08-15T07:19:58.714Z</time>
      </trkpt>
      <trkpt lat="49.0089" lon="0.79672">
        <ele>124</ele>
        <time>2019-08-15T07:19:59.707Z</time>
      </trkpt>
      <trkpt lat="49.0089" lon="0.7966">
        <ele>124</ele>
        <time>2019-08-15T07:20:00.714Z</time>
      </trkpt>
      <trkpt lat="49.0089" lon="0.7966">
        <ele>124</ele>
        <time>2019-08-15T07:20:01.706Z</time>
      </trkpt>
      <trkpt lat="49.00888" lon="0.7965">
        <ele>124</ele>
        <time>2019-08-15T07:20:02.713Z</time>
      </trkpt>
      <trkpt lat="49.00888" lon="0.7965">
        <ele>124</ele>
        <time>2019-08-15T07:20:03.717Z</time>
      </trkpt>
      <trkpt lat="49.00887" lon="0.79639">
        <ele>124</ele>
        <time>2019-08-15T07:20:04.681Z</time>
      </trkpt>
      <trkpt lat="49.00887" lon="0.79639">
        <ele>124</ele>
        <time>2019-08-15T07:20:05.709Z</time>
      </trkpt>
      <trkpt lat="49.00888" lon="0.79622">
        <ele>124</ele>
        <time>2019-08-15T07:20:06.708Z</time>
      </trkpt>
      <trkpt lat="49.00887" lon="0.79613">
        <ele>124</ele>
        <time>2019-08-15T07:20:07.706Z</time>
      </trkpt>
      <trkpt lat="49.00887" lon="0.79613">
        <ele>124</ele>
        <time>2019-08-15T07:20:08.704Z</time>
      </trkpt>
      <trkpt lat="49.00884" lon="0.79594">
        <ele>125</ele>
        <time>2019-08-15T07:20:09.708Z</time>
      </trkpt>
      <trkpt lat="49.00884" lon="0.79594">
        <ele>125</ele>
        <time>2019-08-15T07:20:10.705Z</time>
      </trkpt>
      <trkpt lat="49.0088" lon="0.79574">
        <ele>125</ele>
        <time>2019-08-15T07:20:11.708Z</time>
      </trkpt>
      <trkpt lat="49.0088" lon="0.79574">
        <ele>125</ele>
        <time>2019-08-15T07:20:12.705Z</time>
      </trkpt>
      <trkpt lat="49.00877" lon="0.79557">
        <ele>125</ele>
        <time>2019-08-15T07:20:13.709Z</time>
      </trkpt>
      <trkpt lat="49.00876" lon="0.79549">
        <ele>125</ele>
        <time>2019-08-15T07:20:14.714Z</time>
      </trkpt>
      <trkpt lat="49.00876" lon="0.79549">
        <ele>125</ele>
        <time>2019-08-15T07:20:15.680Z</time>
      </trkpt>
      <trkpt lat="49.00873" lon="0.79532">
        <ele>126</ele>
        <time>2019-08-15T07:20:16.713Z</time>
      </trkpt>
      <trkpt lat="49.00873" lon="0.79532">
        <ele>126</ele>
        <time>2019-08-15T07:20:17.704Z</time>
      </trkpt>
      <trkpt lat="49.00871" lon="0.79515">
        <ele>127</ele>
        <time>2019-08-15T07:20:18.713Z</time>
      </trkpt>
      <trkpt lat="49.00871" lon="0.79515">
        <ele>127</ele>
        <time>2019-08-15T07:20:19.707Z</time>
      </trkpt>
      <trkpt lat="49.00869" lon="0.79497">
        <ele>128</ele>
        <time>2019-08-15T07:20:20.714Z</time>
      </trkpt>
      <trkpt lat="49.00869" lon="0.79497">
        <ele>128</ele>
        <time>2019-08-15T07:20:21.713Z</time>
      </trkpt>
      <trkpt lat="49.00868" lon="0.79483">
        <ele>129</ele>
        <time>2019-08-15T07:20:22.709Z</time>
      </trkpt>
      <trkpt lat="49.00868" lon="0.79483">
        <ele>129</ele>
        <time>2019-08-15T07:20:23.706Z</time>
      </trkpt>
      <trkpt lat="49.00863" lon="0.79469">
        <ele>129</ele>
        <time>2019-08-15T07:20:24.683Z</time>
      </trkpt>
      <trkpt lat="49.00862" lon="0.79462">
        <ele>130</ele>
        <time>2019-08-15T07:20:25.709Z</time>
      </trkpt>
      <trkpt lat="49.0086" lon="0.79455">
        <ele>130</ele>
        <time>2019-08-15T07:20:26.709Z</time>
      </trkpt>
      <trkpt lat="49.0086" lon="0.79455">
        <ele>130</ele>
        <time>2019-08-15T07:20:27.704Z</time>
      </trkpt>
      <trkpt lat="49.00853" lon="0.79438">
        <ele>131</ele>
        <time>2019-08-15T07:20:28.713Z</time>
      </trkpt>
      <trkpt lat="49.00853" lon="0.79438">
        <ele>131</ele>
        <time>2019-08-15T07:20:29.706Z</time>
      </trkpt>
      <trkpt lat="49.00847" lon="0.79419">
        <ele>131</ele>
        <time>2019-08-15T07:20:30.708Z</time>
      </trkpt>
      <trkpt lat="49.00847" lon="0.79419">
        <ele>131</ele>
        <time>2019-08-15T07:20:31.702Z</time>
      </trkpt>
      <trkpt lat="49.00841" lon="0.79403">
        <ele>132</ele>
        <time>2019-08-15T07:20:32.685Z</time>
      </trkpt>
      <trkpt lat="49.00841" lon="0.79403">
        <ele>132</ele>
        <time>2019-08-15T07:20:33.685Z</time>
      </trkpt>
      <trkpt lat="49.00836" lon="0.79385">
        <ele>133</ele>
        <time>2019-08-15T07:20:34.708Z</time>
      </trkpt>
      <trkpt lat="49.00836" lon="0.79385">
        <ele>133</ele>
        <time>2019-08-15T07:20:35.703Z</time>
      </trkpt>
      <trkpt lat="49.00832" lon="0.79368">
        <ele>133</ele>
        <time>2019-08-15T07:20:36.688Z</time>
      </trkpt>
      <trkpt lat="49.00831" lon="0.7936">
        <ele>134</ele>
        <time>2019-08-15T07:20:37.681Z</time>
      </trkpt>
      <trkpt lat="49.00829" lon="0.79352">
        <ele>134</ele>
        <time>2019-08-15T07:20:38.715Z</time>
      </trkpt>
      <trkpt lat="49.00829" lon="0.79352">
        <ele>134</ele>
        <time>2019-08-15T07:20:39.706Z</time>
      </trkpt>
      <trkpt lat="49.00826" lon="0.79335">
        <ele>134</ele>
        <time>2019-08-15T07:20:40.707Z</time>
      </trkpt>
      <trkpt lat="49.00825" lon="0.79327">
        <ele>135</ele>
        <time>2019-08-15T07:20:41.709Z</time>
      </trkpt>
      <trkpt lat="49.00825" lon="0.79327">
        <ele>135</ele>
        <time>2019-08-15T07:20:42.715Z</time>
      </trkpt>
      <trkpt lat="49.00822" lon="0.79312">
        <ele>135</ele>
        <time>2019-08-15T07:20:43.709Z</time>
      </trkpt>
      <trkpt lat="49.00821" lon="0.79305">
        <ele>136</ele>
        <time>2019-08-15T07:20:44.714Z</time>
      </trkpt>
      <trkpt lat="49.00821" lon="0.79305">
        <ele>136</ele>
        <time>2019-08-15T07:20:45.706Z</time>
      </trkpt>
      <trkpt lat="49.00819" lon="0.79289">
        <ele>136</ele>
        <time>2019-08-15T07:20:46.714Z</time>
      </trkpt>
      <trkpt lat="49.00819" lon="0.79289">
        <ele>136</ele>
        <time>2019-08-15T07:20:47.703Z</time>
      </trkpt>
      <trkpt lat="49.00817" lon="0.79276">
        <ele>137</ele>
        <time>2019-08-15T07:20:48.709Z</time>
      </trkpt>
      <trkpt lat="49.00817" lon="0.79276">
        <ele>137</ele>
        <time>2019-08-15T07:20:49.705Z</time>
      </trkpt>
      <trkpt lat="49.00815" lon="0.79263">
        <ele>138</ele>
        <time>2019-08-15T07:20:50.681Z</time>
      </trkpt>
      <trkpt lat="49.00815" lon="0.79263">
        <ele>138</ele>
        <time>2019-08-15T07:20:51.707Z</time>
      </trkpt>
      <trkpt lat="49.00814" lon="0.79252">
        <ele>138</ele>
        <time>2019-08-15T07:20:52.708Z</time>
      </trkpt>
      <trkpt lat="49.00814" lon="0.79252">
        <ele>138</ele>
        <time>2019-08-15T07:20:53.704Z</time>
      </trkpt>
      <trkpt lat="49.00811" lon="0.79243">
        <ele>139</ele>
        <time>2019-08-15T07:20:54.684Z</time>
      </trkpt>
      <trkpt lat="49.00811" lon="0.79243">
        <ele>139</ele>
        <time>2019-08-15T07:20:55.709Z</time>
      </trkpt>
      <trkpt lat="49.00808" lon="0.79234">
        <ele>139</ele>
        <time>2019-08-15T07:20:56.714Z</time>
      </trkpt>
      <trkpt lat="49.00808" lon="0.79234">
        <ele>139</ele>
        <time>2019-08-15T07:20:57.706Z</time>
      </trkpt>
      <trkpt lat="49.00805" lon="0.79224">
        <ele>140</ele>
        <time>2019-08-15T07:20:58.714Z</time>
      </trkpt>
      <trkpt lat="49.00805" lon="0.79224">
        <ele>140</ele>
        <time>2019-08-15T07:20:59.706Z</time>
      </trkpt>
      <trkpt lat="49.00802" lon="0.79211">
        <ele>140</ele>
        <time>2019-08-15T07:21:00.705Z</time>
      </trkpt>
      <trkpt lat="49.00802" lon="0.79211">
        <ele>140</ele>
        <time>2019-08-15T07:21:01.703Z</time>
      </trkpt>
      <trkpt lat="49.00797" lon="0.79199">
        <ele>141</ele>
        <time>2019-08-15T07:21:02.715Z</time>
      </trkpt>
      <trkpt lat="49.00797" lon="0.79199">
        <ele>141</ele>
        <time>2019-08-15T07:21:03.719Z</time>
      </trkpt>
      <trkpt lat="49.00792" lon="0.79186">
        <ele>142</ele>
        <time>2019-08-15T07:21:04.692Z</time>
      </trkpt>
      <trkpt lat="49.0079" lon="0.79181">
        <ele>142</ele>
        <time>2019-08-15T07:21:05.716Z</time>
      </trkpt>
      <trkpt lat="49.0079" lon="0.79181">
        <ele>142</ele>
        <time>2019-08-15T07:21:06.713Z</time>
      </trkpt>
      <trkpt lat="49.00785" lon="0.7917">
        <ele>142</ele>
        <time>2019-08-15T07:21:07.709Z</time>
      </trkpt>
      <trkpt lat="49.00785" lon="0.7917">
        <ele>142</ele>
        <time>2019-08-15T07:21:08.704Z</time>
      </trkpt>
      <trkpt lat="49.00781" lon="0.79158">
        <ele>143</ele>
        <time>2019-08-15T07:21:09.713Z</time>
      </trkpt>
      <trkpt lat="49.00781" lon="0.79158">
        <ele>143</ele>
        <time>2019-08-15T07:21:10.705Z</time>
      </trkpt>
      <trkpt lat="49.00776" lon="0.79145">
        <ele>143</ele>
        <time>2019-08-15T07:21:11.708Z</time>
      </trkpt>
      <trkpt lat="49.00776" lon="0.79145">
        <ele>143</ele>
        <time>2019-08-15T07:21:12.706Z</time>
      </trkpt>
      <trkpt lat="49.00772" lon="0.79132">
        <ele>144</ele>
        <time>2019-08-15T07:21:13.680Z</time>
      </trkpt>
      <trkpt lat="49.00771" lon="0.79124">
        <ele>144</ele>
        <time>2019-08-15T07:21:14.714Z</time>
      </trkpt>
      <trkpt lat="49.00771" lon="0.79124">
        <ele>144</ele>
        <time>2019-08-15T07:21:15.705Z</time>
      </trkpt>
      <trkpt lat="49.00766" lon="0.79108">
        <ele>144</ele>
        <time>2019-08-15T07:21:16.713Z</time>
      </trkpt>
      <trkpt lat="49.00766" lon="0.79108">
        <ele>144</ele>
        <time>2019-08-15T07:21:17.706Z</time>
      </trkpt>
      <trkpt lat="49.00762" lon="0.79093">
        <ele>145</ele>
        <time>2019-08-15T07:21:18.709Z</time>
      </trkpt>
      <trkpt lat="49.00762" lon="0.79093">
        <ele>145</ele>
        <time>2019-08-15T07:21:19.706Z</time>
      </trkpt>
      <trkpt lat="49.00758" lon="0.7908">
        <ele>146</ele>
        <time>2019-08-15T07:21:20.713Z</time>
      </trkpt>
      <trkpt lat="49.00758" lon="0.7908">
        <ele>146</ele>
        <time>2019-08-15T07:21:21.706Z</time>
      </trkpt>
      <trkpt lat="49.00754" lon="0.79065">
        <ele>146</ele>
        <time>2019-08-15T07:21:22.714Z</time>
      </trkpt>
      <trkpt lat="49.00754" lon="0.79065">
        <ele>146</ele>
        <time>2019-08-15T07:21:23.704Z</time>
      </trkpt>
      <trkpt lat="49.00748" lon="0.79051">
        <ele>147</ele>
        <time>2019-08-15T07:21:24.681Z</time>
      </trkpt>
      <trkpt lat="49.00746" lon="0.79045">
        <ele>147</ele>
        <time>2019-08-15T07:21:25.708Z</time>
      </trkpt>
      <trkpt lat="49.00744" lon="0.79039">
        <ele>147</ele>
        <time>2019-08-15T07:21:26.684Z</time>
      </trkpt>
      <trkpt lat="49.00744" lon="0.79039">
        <ele>147</ele>
        <time>2019-08-15T07:21:27.709Z</time>
      </trkpt>
      <trkpt lat="49.00739" lon="0.79026">
        <ele>147</ele>
        <time>2019-08-15T07:21:28.708Z</time>
      </trkpt>
      <trkpt lat="49.00739" lon="0.79026">
        <ele>147</ele>
        <time>2019-08-15T07:21:29.705Z</time>
      </trkpt>
      <trkpt lat="49.00738" lon="0.79014">
        <ele>148</ele>
        <time>2019-08-15T07:21:30.707Z</time>
      </trkpt>
      <trkpt lat="49.00738" lon="0.79014">
        <ele>148</ele>
        <time>2019-08-15T07:21:31.706Z</time>
      </trkpt>
      <trkpt lat="49.00736" lon="0.78996">
        <ele>147</ele>
        <time>2019-08-15T07:21:32.681Z</time>
      </trkpt>
      <trkpt lat="49.00736" lon="0.78996">
        <ele>147</ele>
        <time>2019-08-15T07:21:33.706Z</time>
      </trkpt>
      <trkpt lat="49.00731" lon="0.78979">
        <ele>148</ele>
        <time>2019-08-15T07:21:34.684Z</time>
      </trkpt>
      <trkpt lat="49.00731" lon="0.78979">
        <ele>148</ele>
        <time>2019-08-15T07:21:35.713Z</time>
      </trkpt>
      <trkpt lat="49.00724" lon="0.78963">
        <ele>148</ele>
        <time>2019-08-15T07:21:36.714Z</time>
      </trkpt>
      <trkpt lat="49.00724" lon="0.78963">
        <ele>148</ele>
        <time>2019-08-15T07:21:37.678Z</time>
      </trkpt>
      <trkpt lat="49.0072" lon="0.78947">
        <ele>148</ele>
        <time>2019-08-15T07:21:38.714Z</time>
      </trkpt>
      <trkpt lat="49.0072" lon="0.78947">
        <ele>148</ele>
        <time>2019-08-15T07:21:39.703Z</time>
      </trkpt>
      <trkpt lat="49.00716" lon="0.78931">
        <ele>148</ele>
        <time>2019-08-15T07:21:40.708Z</time>
      </trkpt>
      <trkpt lat="49.00716" lon="0.78931">
        <ele>148</ele>
        <time>2019-08-15T07:21:41.705Z</time>
      </trkpt>
      <trkpt lat="49.00713" lon="0.78915">
        <ele>149</ele>
        <time>2019-08-15T07:21:42.708Z</time>
      </trkpt>
      <trkpt lat="49.00713" lon="0.78915">
        <ele>149</ele>
        <time>2019-08-15T07:21:43.718Z</time>
      </trkpt>
      <trkpt lat="49.00707" lon="0.78898">
        <ele>149</ele>
        <time>2019-08-15T07:21:44.684Z</time>
      </trkpt>
      <trkpt lat="49.00707" lon="0.78898">
        <ele>149</ele>
        <time>2019-08-15T07:21:45.709Z</time>
      </trkpt>
      <trkpt lat="49.00702" lon="0.78882">
        <ele>150</ele>
        <time>2019-08-15T07:21:46.708Z</time>
      </trkpt>
      <trkpt lat="49.007" lon="0.78875">
        <ele>150</ele>
        <time>2019-08-15T07:21:47.708Z</time>
      </trkpt>
      <trkpt lat="49.007" lon="0.78875">
        <ele>150</ele>
        <time>2019-08-15T07:21:48.704Z</time>
      </trkpt>
      <trkpt lat="49.00698" lon="0.78859">
        <ele>151</ele>
        <time>2019-08-15T07:21:49.688Z</time>
      </trkpt>
      <trkpt lat="49.00698" lon="0.78859">
        <ele>151</ele>
        <time>2019-08-15T07:21:50.707Z</time>
      </trkpt>
      <trkpt lat="49.00696" lon="0.78846">
        <ele>151</ele>
        <time>2019-08-15T07:21:51.708Z</time>
      </trkpt>
      <trkpt lat="49.00694" lon="0.78841">
        <ele>151</ele>
        <time>2019-08-15T07:21:52.708Z</time>
      </trkpt>
      <trkpt lat="49.00694" lon="0.78841">
        <ele>151</ele>
        <time>2019-08-15T07:21:53.684Z</time>
      </trkpt>
      <trkpt lat="49.00692" lon="0.78832">
        <ele>152</ele>
        <time>2019-08-15T07:21:54.709Z</time>
      </trkpt>
      <trkpt lat="49.00692" lon="0.78832">
        <ele>152</ele>
        <time>2019-08-15T07:21:55.704Z</time>
      </trkpt>
      <trkpt lat="49.00689" lon="0.78821">
        <ele>152</ele>
        <time>2019-08-15T07:21:56.714Z</time>
      </trkpt>
      <trkpt lat="49.00689" lon="0.78821">
        <ele>152</ele>
        <time>2019-08-15T07:21:57.703Z</time>
      </trkpt>
      <trkpt lat="49.00683" lon="0.7881">
        <ele>153</ele>
        <time>2019-08-15T07:21:58.708Z</time>
      </trkpt>
      <trkpt lat="49.00683" lon="0.7881">
        <ele>153</ele>
        <time>2019-08-15T07:21:59.703Z</time>
      </trkpt>
      <trkpt lat="49.00677" lon="0.78799">
        <ele>153</ele>
        <time>2019-08-15T07:22:00.709Z</time>
      </trkpt>
      <trkpt lat="49.00677" lon="0.78799">
        <ele>153</ele>
        <time>2019-08-15T07:22:01.704Z</time>
      </trkpt>
      <trkpt lat="49.00673" lon="0.78786">
        <ele>153</ele>
        <time>2019-08-15T07:22:02.713Z</time>
      </trkpt>
      <trkpt lat="49.00673" lon="0.78786">
        <ele>153</ele>
        <time>2019-08-15T07:22:03.707Z</time>
      </trkpt>
      <trkpt lat="49.0067" lon="0.78775">
        <ele>153</ele>
        <time>2019-08-15T07:22:04.709Z</time>
      </trkpt>
      <trkpt lat="49.0067" lon="0.78775">
        <ele>153</ele>
        <time>2019-08-15T07:22:05.706Z</time>
      </trkpt>
      <trkpt lat="49.00666" lon="0.78764">
        <ele>154</ele>
        <time>2019-08-15T07:22:06.708Z</time>
      </trkpt>
      <trkpt lat="49.00666" lon="0.78764">
        <ele>154</ele>
        <time>2019-08-15T07:22:07.698Z</time>
      </trkpt>
      <trkpt lat="49.00662" lon="0.78754">
        <ele>153</ele>
        <time>2019-08-15T07:22:08.682Z</time>
      </trkpt>
      <trkpt lat="49.00662" lon="0.78754">
        <ele>153</ele>
        <time>2019-08-15T07:22:09.708Z</time>
      </trkpt>
      <trkpt lat="49.00658" lon="0.78743">
        <ele>153</ele>
        <time>2019-08-15T07:22:10.708Z</time>
      </trkpt>
      <trkpt lat="49.00658" lon="0.78743">
        <ele>153</ele>
        <time>2019-08-15T07:22:11.705Z</time>
      </trkpt>
      <trkpt lat="49.00653" lon="0.78731">
        <ele>153</ele>
        <time>2019-08-15T07:22:12.707Z</time>
      </trkpt>
      <trkpt lat="49.00653" lon="0.78731">
        <ele>153</ele>
        <time>2019-08-15T07:22:13.705Z</time>
      </trkpt>
      <trkpt lat="49.00648" lon="0.78717">
        <ele>153</ele>
        <time>2019-08-15T07:22:14.683Z</time>
      </trkpt>
      <trkpt lat="49.00648" lon="0.78717">
        <ele>153</ele>
        <time>2019-08-15T07:22:15.707Z</time>
      </trkpt>
      <trkpt lat="49.00643" lon="0.78704">
        <ele>153</ele>
        <time>2019-08-15T07:22:16.713Z</time>
      </trkpt>
      <trkpt lat="49.00643" lon="0.78704">
        <ele>153</ele>
        <time>2019-08-15T07:22:17.713Z</time>
      </trkpt>
      <trkpt lat="49.00639" lon="0.78691">
        <ele>153</ele>
        <time>2019-08-15T07:22:18.708Z</time>
      </trkpt>
      <trkpt lat="49.00639" lon="0.78691">
        <ele>153</ele>
        <time>2019-08-15T07:22:19.703Z</time>
      </trkpt>
      <trkpt lat="49.00633" lon="0.78681">
        <ele>153</ele>
        <time>2019-08-15T07:22:20.714Z</time>
      </trkpt>
      <trkpt lat="49.00633" lon="0.78681">
        <ele>153</ele>
        <time>2019-08-15T07:22:21.705Z</time>
      </trkpt>
      <trkpt lat="49.00629" lon="0.78669">
        <ele>153</ele>
        <time>2019-08-15T07:22:22.708Z</time>
      </trkpt>
      <trkpt lat="49.00629" lon="0.78669">
        <ele>153</ele>
        <time>2019-08-15T07:22:23.705Z</time>
      </trkpt>
      <trkpt lat="49.00625" lon="0.7866">
        <ele>153</ele>
        <time>2019-08-15T07:22:24.682Z</time>
      </trkpt>
      <trkpt lat="49.00625" lon="0.7866">
        <ele>153</ele>
        <time>2019-08-15T07:22:25.706Z</time>
      </trkpt>
      <trkpt lat="49.00622" lon="0.78649">
        <ele>153</ele>
        <time>2019-08-15T07:22:26.714Z</time>
      </trkpt>
      <trkpt lat="49.00622" lon="0.78649">
        <ele>153</ele>
        <time>2019-08-15T07:22:27.709Z</time>
      </trkpt>
      <trkpt lat="49.00617" lon="0.78637">
        <ele>154</ele>
        <time>2019-08-15T07:22:28.713Z</time>
      </trkpt>
      <trkpt lat="49.00617" lon="0.78637">
        <ele>154</ele>
        <time>2019-08-15T07:22:29.706Z</time>
      </trkpt>
      <trkpt lat="49.00613" lon="0.78628">
        <ele>154</ele>
        <time>2019-08-15T07:22:30.713Z</time>
      </trkpt>
      <trkpt lat="49.00613" lon="0.78628">
        <ele>154</ele>
        <time>2019-08-15T07:22:31.707Z</time>
      </trkpt>
      <trkpt lat="49.0061" lon="0.78619">
        <ele>155</ele>
        <time>2019-08-15T07:22:32.707Z</time>
      </trkpt>
      <trkpt lat="49.0061" lon="0.78619">
        <ele>155</ele>
        <time>2019-08-15T07:22:33.704Z</time>
      </trkpt>
      <trkpt lat="49.00607" lon="0.78612">
        <ele>155</ele>
        <time>2019-08-15T07:22:34.708Z</time>
      </trkpt>
      <trkpt lat="49.00605" lon="0.78607">
        <ele>155</ele>
        <time>2019-08-15T07:22:35.678Z</time>
      </trkpt>
      <trkpt lat="49.00605" lon="0.78607">
        <ele>155</ele>
        <time>2019-08-15T07:22:36.706Z</time>
      </trkpt>
      <trkpt lat="49.006" lon="0.78597">
        <ele>155</ele>
        <time>2019-08-15T07:22:37.683Z</time>
      </trkpt>
      <trkpt lat="49.00598" lon="0.78592">
        <ele>156</ele>
        <time>2019-08-15T07:22:38.713Z</time>
      </trkpt>
      <trkpt lat="49.00598" lon="0.78592">
        <ele>156</ele>
        <time>2019-08-15T07:22:39.705Z</time>
      </trkpt>
      <trkpt lat="49.00593" lon="0.78584">
        <ele>156</ele>
        <time>2019-08-15T07:22:40.709Z</time>
      </trkpt>
      <trkpt lat="49.00593" lon="0.78584">
        <ele>156</ele>
        <time>2019-08-15T07:22:41.705Z</time>
      </trkpt>
      <trkpt lat="49.0059" lon="0.78574">
        <ele>156</ele>
        <time>2019-08-15T07:22:42.708Z</time>
      </trkpt>
      <trkpt lat="49.0059" lon="0.78574">
        <ele>156</ele>
        <time>2019-08-15T07:22:43.718Z</time>
      </trkpt>
      <trkpt lat="49.00586" lon="0.78565">
        <ele>156</ele>
        <time>2019-08-15T07:22:44.683Z</time>
      </trkpt>
      <trkpt lat="49.00586" lon="0.78565">
        <ele>156</ele>
        <time>2019-08-15T07:22:45.709Z</time>
      </trkpt>
      <trkpt lat="49.00582" lon="0.78557">
        <ele>157</ele>
        <time>2019-08-15T07:22:46.706Z</time>
      </trkpt>
      <trkpt lat="49.00582" lon="0.78557">
        <ele>157</ele>
        <time>2019-08-15T07:22:47.709Z</time>
      </trkpt>
      <trkpt lat="49.00578" lon="0.78549">
        <ele>157</ele>
        <time>2019-08-15T07:22:48.707Z</time>
      </trkpt>
      <trkpt lat="49.00578" lon="0.78549">
        <ele>157</ele>
        <time>2019-08-15T07:22:49.706Z</time>
      </trkpt>
      <trkpt lat="49.00575" lon="0.78543">
        <ele>157</ele>
        <time>2019-08-15T07:22:50.686Z</time>
      </trkpt>
      <trkpt lat="49.00575" lon="0.78543">
        <ele>157</ele>
        <time>2019-08-15T07:22:51.713Z</time>
      </trkpt>
      <trkpt lat="49.00572" lon="0.78537">
        <ele>157</ele>
        <time>2019-08-15T07:22:52.714Z</time>
      </trkpt>
      <trkpt lat="49.00572" lon="0.78537">
        <ele>157</ele>
        <time>2019-08-15T07:22:53.706Z</time>
      </trkpt>
      <trkpt lat="49.0057" lon="0.78531">
        <ele>158</ele>
        <time>2019-08-15T07:22:54.713Z</time>
      </trkpt>
      <trkpt lat="49.0057" lon="0.78531">
        <ele>158</ele>
        <time>2019-08-15T07:22:55.705Z</time>
      </trkpt>
      <trkpt lat="49.00569" lon="0.78525">
        <ele>158</ele>
        <time>2019-08-15T07:22:56.714Z</time>
      </trkpt>
      <trkpt lat="49.00569" lon="0.78525">
        <ele>158</ele>
        <time>2019-08-15T07:22:57.713Z</time>
      </trkpt>
      <trkpt lat="49.00566" lon="0.78515">
        <ele>157</ele>
        <time>2019-08-15T07:22:58.717Z</time>
      </trkpt>
      <trkpt lat="49.00566" lon="0.78515">
        <ele>157</ele>
        <time>2019-08-15T07:22:59.705Z</time>
      </trkpt>
      <trkpt lat="49.00562" lon="0.78506">
        <ele>157</ele>
        <time>2019-08-15T07:23:00.708Z</time>
      </trkpt>
      <trkpt lat="49.00562" lon="0.78506">
        <ele>157</ele>
        <time>2019-08-15T07:23:01.703Z</time>
      </trkpt>
      <trkpt lat="49.00557" lon="0.78498">
        <ele>157</ele>
        <time>2019-08-15T07:23:02.713Z</time>
      </trkpt>
      <trkpt lat="49.00557" lon="0.78498">
        <ele>157</ele>
        <time>2019-08-15T07:23:03.707Z</time>
      </trkpt>
      <trkpt lat="49.00553" lon="0.78487">
        <ele>157</ele>
        <time>2019-08-15T07:23:04.684Z</time>
      </trkpt>
      <trkpt lat="49.00553" lon="0.78487">
        <ele>157</ele>
        <time>2019-08-15T07:23:05.709Z</time>
      </trkpt>
      <trkpt lat="49.00549" lon="0.78478">
        <ele>157</ele>
        <time>2019-08-15T07:23:06.708Z</time>
      </trkpt>
      <trkpt lat="49.00549" lon="0.78478">
        <ele>157</ele>
        <time>2019-08-15T07:23:07.710Z</time>
      </trkpt>
      <trkpt lat="49.00544" lon="0.78469">
        <ele>158</ele>
        <time>2019-08-15T07:23:08.713Z</time>
      </trkpt>
      <trkpt lat="49.00544" lon="0.78469">
        <ele>158</ele>
        <time>2019-08-15T07:23:09.706Z</time>
      </trkpt>
      <trkpt lat="49.00539" lon="0.7846">
        <ele>158</ele>
        <time>2019-08-15T07:23:10.696Z</time>
      </trkpt>
      <trkpt lat="49.00539" lon="0.7846">
        <ele>158</ele>
        <time>2019-08-15T07:23:11.680Z</time>
      </trkpt>
      <trkpt lat="49.00535" lon="0.78451">
        <ele>159</ele>
        <time>2019-08-15T07:23:12.708Z</time>
      </trkpt>
      <trkpt lat="49.00535" lon="0.78451">
        <ele>159</ele>
        <time>2019-08-15T07:23:13.720Z</time>
      </trkpt>
      <trkpt lat="49.0053" lon="0.78443">
        <ele>159</ele>
        <time>2019-08-15T07:23:14.685Z</time>
      </trkpt>
      <trkpt lat="49.0053" lon="0.78443">
        <ele>159</ele>
        <time>2019-08-15T07:23:15.714Z</time>
      </trkpt>
      <trkpt lat="49.00525" lon="0.78436">
        <ele>160</ele>
        <time>2019-08-15T07:23:16.713Z</time>
      </trkpt>
      <trkpt lat="49.00525" lon="0.78436">
        <ele>160</ele>
        <time>2019-08-15T07:23:17.713Z</time>
      </trkpt>
      <trkpt lat="49.00519" lon="0.78428">
        <ele>161</ele>
        <time>2019-08-15T07:23:18.709Z</time>
      </trkpt>
      <trkpt lat="49.00519" lon="0.78428">
        <ele>161</ele>
        <time>2019-08-15T07:23:19.705Z</time>
      </trkpt>
      <trkpt lat="49.00514" lon="0.7842">
        <ele>161</ele>
        <time>2019-08-15T07:23:20.714Z</time>
      </trkpt>
      <trkpt lat="49.00514" lon="0.7842">
        <ele>161</ele>
        <time>2019-08-15T07:23:21.705Z</time>
      </trkpt>
      <trkpt lat="49.00508" lon="0.78411">
        <ele>162</ele>
        <time>2019-08-15T07:23:22.714Z</time>
      </trkpt>
      <trkpt lat="49.00508" lon="0.78411">
        <ele>162</ele>
        <time>2019-08-15T07:23:23.706Z</time>
      </trkpt>
      <trkpt lat="49.00502" lon="0.78405">
        <ele>162</ele>
        <time>2019-08-15T07:23:24.683Z</time>
      </trkpt>
      <trkpt lat="49.00499" lon="0.784">
        <ele>162</ele>
        <time>2019-08-15T07:23:25.715Z</time>
      </trkpt>
      <trkpt lat="49.00497" lon="0.78397">
        <ele>163</ele>
        <time>2019-08-15T07:23:26.707Z</time>
      </trkpt>
      <trkpt lat="49.00497" lon="0.78397">
        <ele>163</ele>
        <time>2019-08-15T07:23:27.704Z</time>
      </trkpt>
      <trkpt lat="49.00492" lon="0.78389">
        <ele>163</ele>
        <time>2019-08-15T07:23:28.714Z</time>
      </trkpt>
      <trkpt lat="49.00492" lon="0.78389">
        <ele>163</ele>
        <time>2019-08-15T07:23:29.705Z</time>
      </trkpt>
      <trkpt lat="49.00486" lon="0.78382">
        <ele>163</ele>
        <time>2019-08-15T07:23:30.708Z</time>
      </trkpt>
      <trkpt lat="49.00486" lon="0.78382">
        <ele>163</ele>
        <time>2019-08-15T07:23:31.706Z</time>
      </trkpt>
      <trkpt lat="49.0048" lon="0.78375">
        <ele>164</ele>
        <time>2019-08-15T07:23:32.714Z</time>
      </trkpt>
      <trkpt lat="49.0048" lon="0.78375">
        <ele>164</ele>
        <time>2019-08-15T07:23:33.705Z</time>
      </trkpt>
      <trkpt lat="49.00473" lon="0.78368">
        <ele>164</ele>
        <time>2019-08-15T07:23:34.682Z</time>
      </trkpt>
      <trkpt lat="49.00473" lon="0.78368">
        <ele>164</ele>
        <time>2019-08-15T07:23:35.707Z</time>
      </trkpt>
      <trkpt lat="49.00467" lon="0.7836">
        <ele>165</ele>
        <time>2019-08-15T07:23:36.705Z</time>
      </trkpt>
      <trkpt lat="49.00467" lon="0.7836">
        <ele>165</ele>
        <time>2019-08-15T07:23:37.680Z</time>
      </trkpt>
      <trkpt lat="49.00461" lon="0.78353">
        <ele>165</ele>
        <time>2019-08-15T07:23:38.716Z</time>
      </trkpt>
      <trkpt lat="49.00461" lon="0.78353">
        <ele>165</ele>
        <time>2019-08-15T07:23:39.704Z</time>
      </trkpt>
      <trkpt lat="49.00457" lon="0.78346">
        <ele>165</ele>
        <time>2019-08-15T07:23:40.713Z</time>
      </trkpt>
      <trkpt lat="49.00457" lon="0.78346">
        <ele>165</ele>
        <time>2019-08-15T07:23:41.705Z</time>
      </trkpt>
      <trkpt lat="49.00453" lon="0.78337">
        <ele>165</ele>
        <time>2019-08-15T07:23:42.709Z</time>
      </trkpt>
      <trkpt lat="49.00453" lon="0.78337">
        <ele>165</ele>
        <time>2019-08-15T07:23:43.704Z</time>
      </trkpt>
      <trkpt lat="49.0045" lon="0.78329">
        <ele>165</ele>
        <time>2019-08-15T07:23:44.683Z</time>
      </trkpt>
      <trkpt lat="49.0045" lon="0.78329">
        <ele>165</ele>
        <time>2019-08-15T07:23:45.713Z</time>
      </trkpt>
      <trkpt lat="49.00449" lon="0.7832">
        <ele>164</ele>
        <time>2019-08-15T07:23:46.713Z</time>
      </trkpt>
      <trkpt lat="49.00449" lon="0.7832">
        <ele>164</ele>
        <time>2019-08-15T07:23:47.706Z</time>
      </trkpt>
      <trkpt lat="49.00447" lon="0.78311">
        <ele>164</ele>
        <time>2019-08-15T07:23:48.706Z</time>
      </trkpt>
      <trkpt lat="49.00445" lon="0.78307">
        <ele>164</ele>
        <time>2019-08-15T07:23:49.708Z</time>
      </trkpt>
      <trkpt lat="49.00442" lon="0.78303">
        <ele>164</ele>
        <time>2019-08-15T07:23:50.713Z</time>
      </trkpt>
      <trkpt lat="49.00442" lon="0.78303">
        <ele>164</ele>
        <time>2019-08-15T07:23:51.706Z</time>
      </trkpt>
      <trkpt lat="49.00434" lon="0.78296">
        <ele>164</ele>
        <time>2019-08-15T07:23:52.714Z</time>
      </trkpt>
      <trkpt lat="49.00434" lon="0.78296">
        <ele>164</ele>
        <time>2019-08-15T07:23:53.709Z</time>
      </trkpt>
      <trkpt lat="49.00425" lon="0.7829">
        <ele>164</ele>
        <time>2019-08-15T07:23:54.713Z</time>
      </trkpt>
      <trkpt lat="49.00425" lon="0.7829">
        <ele>164</ele>
        <time>2019-08-15T07:23:55.705Z</time>
      </trkpt>
      <trkpt lat="49.00416" lon="0.78285">
        <ele>164</ele>
        <time>2019-08-15T07:23:56.708Z</time>
      </trkpt>
      <trkpt lat="49.00416" lon="0.78285">
        <ele>164</ele>
        <time>2019-08-15T07:23:57.705Z</time>
      </trkpt>
      <trkpt lat="49.00407" lon="0.78279">
        <ele>164</ele>
        <time>2019-08-15T07:23:58.680Z</time>
      </trkpt>
      <trkpt lat="49.00403" lon="0.78276">
        <ele>164</ele>
        <time>2019-08-15T07:23:59.713Z</time>
      </trkpt>
      <trkpt lat="49.00398" lon="0.78274">
        <ele>164</ele>
        <time>2019-08-15T07:24:00.708Z</time>
      </trkpt>
      <trkpt lat="49.00394" lon="0.78272">
        <ele>164</ele>
        <time>2019-08-15T07:24:01.709Z</time>
      </trkpt>
      <trkpt lat="49.00394" lon="0.78272">
        <ele>164</ele>
        <time>2019-08-15T07:24:02.706Z</time>
      </trkpt>
      <trkpt lat="49.00387" lon="0.78269">
        <ele>164</ele>
        <time>2019-08-15T07:24:03.681Z</time>
      </trkpt>
      <trkpt lat="49.00383" lon="0.78267">
        <ele>165</ele>
        <time>2019-08-15T07:24:04.688Z</time>
      </trkpt>
      <trkpt lat="49.00383" lon="0.78267">
        <ele>165</ele>
        <time>2019-08-15T07:24:05.714Z</time>
      </trkpt>
      <trkpt lat="49.00377" lon="0.78264">
        <ele>165</ele>
        <time>2019-08-15T07:24:06.709Z</time>
      </trkpt>
      <trkpt lat="49.00374" lon="0.78262">
        <ele>165</ele>
        <time>2019-08-15T07:24:07.715Z</time>
      </trkpt>
      <trkpt lat="49.00374" lon="0.78262">
        <ele>165</ele>
        <time>2019-08-15T07:24:08.713Z</time>
      </trkpt>
      <trkpt lat="49.00368" lon="0.78258">
        <ele>165</ele>
        <time>2019-08-15T07:24:09.705Z</time>
      </trkpt>
      <trkpt lat="49.00364" lon="0.78255">
        <ele>165</ele>
        <time>2019-08-15T07:24:10.708Z</time>
      </trkpt>
      <trkpt lat="49.00364" lon="0.78255">
        <ele>165</ele>
        <time>2019-08-15T07:24:11.705Z</time>
      </trkpt>
      <trkpt lat="49.00355" lon="0.78251">
        <ele>165</ele>
        <time>2019-08-15T07:24:12.709Z</time>
      </trkpt>
      <trkpt lat="49.00355" lon="0.78251">
        <ele>165</ele>
        <time>2019-08-15T07:24:13.718Z</time>
      </trkpt>
      <trkpt lat="49.00345" lon="0.78247">
        <ele>165</ele>
        <time>2019-08-15T07:24:14.683Z</time>
      </trkpt>
      <trkpt lat="49.00345" lon="0.78247">
        <ele>165</ele>
        <time>2019-08-15T07:24:15.713Z</time>
      </trkpt>
      <trkpt lat="49.00335" lon="0.78242">
        <ele>165</ele>
        <time>2019-08-15T07:24:16.706Z</time>
      </trkpt>
      <trkpt lat="49.00335" lon="0.78242">
        <ele>165</ele>
        <time>2019-08-15T07:24:17.703Z</time>
      </trkpt>
      <trkpt lat="49.00326" lon="0.78238">
        <ele>165</ele>
        <time>2019-08-15T07:24:18.687Z</time>
      </trkpt>
      <trkpt lat="49.00326" lon="0.78238">
        <ele>165</ele>
        <time>2019-08-15T07:24:19.714Z</time>
      </trkpt>
      <trkpt lat="49.00317" lon="0.78236">
        <ele>165</ele>
        <time>2019-08-15T07:24:20.713Z</time>
      </trkpt>
      <trkpt lat="49.00317" lon="0.78236">
        <ele>165</ele>
        <time>2019-08-15T07:24:21.706Z</time>
      </trkpt>
      <trkpt lat="49.00307" lon="0.78233">
        <ele>165</ele>
        <time>2019-08-15T07:24:22.708Z</time>
      </trkpt>
      <trkpt lat="49.00302" lon="0.78231">
        <ele>165</ele>
        <time>2019-08-15T07:24:23.707Z</time>
      </trkpt>
      <trkpt lat="49.00302" lon="0.78231">
        <ele>165</ele>
        <time>2019-08-15T07:24:24.684Z</time>
      </trkpt>
      <trkpt lat="49.00293" lon="0.78227">
        <ele>165</ele>
        <time>2019-08-15T07:24:25.714Z</time>
      </trkpt>
      <trkpt lat="49.00288" lon="0.78224">
        <ele>165</ele>
        <time>2019-08-15T07:24:26.706Z</time>
      </trkpt>
      <trkpt lat="49.00288" lon="0.78224">
        <ele>165</ele>
        <time>2019-08-15T07:24:27.683Z</time>
      </trkpt>
      <trkpt lat="49.00279" lon="0.78221">
        <ele>165</ele>
        <time>2019-08-15T07:24:28.717Z</time>
      </trkpt>
      <trkpt lat="49.00279" lon="0.78221">
        <ele>165</ele>
        <time>2019-08-15T07:24:29.706Z</time>
      </trkpt>
      <trkpt lat="49.00269" lon="0.78217">
        <ele>165</ele>
        <time>2019-08-15T07:24:30.709Z</time>
      </trkpt>
      <trkpt lat="49.00269" lon="0.78217">
        <ele>165</ele>
        <time>2019-08-15T07:24:31.703Z</time>
      </trkpt>
      <trkpt lat="49.00258" lon="0.78214">
        <ele>165</ele>
        <time>2019-08-15T07:24:32.713Z</time>
      </trkpt>
      <trkpt lat="49.00258" lon="0.78214">
        <ele>165</ele>
        <time>2019-08-15T07:24:33.728Z</time>
      </trkpt>
      <trkpt lat="49.00248" lon="0.78211">
        <ele>164</ele>
        <time>2019-08-15T07:24:34.714Z</time>
      </trkpt>
      <trkpt lat="49.00248" lon="0.78211">
        <ele>164</ele>
        <time>2019-08-15T07:24:35.703Z</time>
      </trkpt>
      <trkpt lat="49.00238" lon="0.78208">
        <ele>164</ele>
        <time>2019-08-15T07:24:36.708Z</time>
      </trkpt>
      <trkpt lat="49.00234" lon="0.78207">
        <ele>164</ele>
        <time>2019-08-15T07:24:37.678Z</time>
      </trkpt>
      <trkpt lat="49.00234" lon="0.78207">
        <ele>164</ele>
        <time>2019-08-15T07:24:38.711Z</time>
      </trkpt>
      <trkpt lat="49.00224" lon="0.78202">
        <ele>164</ele>
        <time>2019-08-15T07:24:39.708Z</time>
      </trkpt>
      <trkpt lat="49.00219" lon="0.782">
        <ele>164</ele>
        <time>2019-08-15T07:24:40.707Z</time>
      </trkpt>
      <trkpt lat="49.00219" lon="0.782">
        <ele>164</ele>
        <time>2019-08-15T07:24:41.704Z</time>
      </trkpt>
      <trkpt lat="49.00209" lon="0.78198">
        <ele>163</ele>
        <time>2019-08-15T07:24:42.709Z</time>
      </trkpt>
      <trkpt lat="49.00209" lon="0.78198">
        <ele>163</ele>
        <time>2019-08-15T07:24:43.706Z</time>
      </trkpt>
      <trkpt lat="49.00199" lon="0.78195">
        <ele>162</ele>
        <time>2019-08-15T07:24:44.695Z</time>
      </trkpt>
      <trkpt lat="49.00199" lon="0.78195">
        <ele>162</ele>
        <time>2019-08-15T07:24:45.678Z</time>
      </trkpt>
      <trkpt lat="49.00189" lon="0.78192">
        <ele>162</ele>
        <time>2019-08-15T07:24:46.713Z</time>
      </trkpt>
      <trkpt lat="49.00189" lon="0.78192">
        <ele>162</ele>
        <time>2019-08-15T07:24:47.705Z</time>
      </trkpt>
      <trkpt lat="49.00178" lon="0.78188">
        <ele>162</ele>
        <time>2019-08-15T07:24:48.678Z</time>
      </trkpt>
      <trkpt lat="49.00178" lon="0.78188">
        <ele>162</ele>
        <time>2019-08-15T07:24:49.708Z</time>
      </trkpt>
      <trkpt lat="49.00168" lon="0.78186">
        <ele>161</ele>
        <time>2019-08-15T07:24:50.714Z</time>
      </trkpt>
      <trkpt lat="49.00163" lon="0.78185">
        <ele>161</ele>
        <time>2019-08-15T07:24:51.713Z</time>
      </trkpt>
      <trkpt lat="49.00163" lon="0.78185">
        <ele>161</ele>
        <time>2019-08-15T07:24:52.706Z</time>
      </trkpt>
      <trkpt lat="49.00154" lon="0.78182">
        <ele>161</ele>
        <time>2019-08-15T07:24:53.681Z</time>
      </trkpt>
      <trkpt lat="49.00154" lon="0.78182">
        <ele>161</ele>
        <time>2019-08-15T07:24:54.703Z</time>
      </trkpt>
      <trkpt lat="49.00147" lon="0.7818">
        <ele>161</ele>
        <time>2019-08-15T07:24:55.679Z</time>
      </trkpt>
      <trkpt lat="49.00143" lon="0.78179">
        <ele>161</ele>
        <time>2019-08-15T07:24:56.713Z</time>
      </trkpt>
      <trkpt lat="49.00143" lon="0.78179">
        <ele>161</ele>
        <time>2019-08-15T07:24:57.705Z</time>
      </trkpt>
      <trkpt lat="49.00135" lon="0.78178">
        <ele>160</ele>
        <time>2019-08-15T07:24:58.717Z</time>
      </trkpt>
      <trkpt lat="49.00135" lon="0.78178">
        <ele>160</ele>
        <time>2019-08-15T07:24:59.708Z</time>
      </trkpt>
      <trkpt lat="49.00127" lon="0.78177">
        <ele>160</ele>
        <time>2019-08-15T07:25:00.708Z</time>
      </trkpt>
      <trkpt lat="49.00127" lon="0.78177">
        <ele>160</ele>
        <time>2019-08-15T07:25:01.706Z</time>
      </trkpt>
      <trkpt lat="49.00117" lon="0.78175">
        <ele>160</ele>
        <time>2019-08-15T07:25:02.713Z</time>
      </trkpt>
      <trkpt lat="49.00117" lon="0.78175">
        <ele>160</ele>
        <time>2019-08-15T07:25:03.703Z</time>
      </trkpt>
      <trkpt lat="49.00106" lon="0.78174">
        <ele>159</ele>
        <time>2019-08-15T07:25:04.713Z</time>
      </trkpt>
      <trkpt lat="49.00106" lon="0.78174">
        <ele>159</ele>
        <time>2019-08-15T07:25:05.705Z</time>
      </trkpt>
      <trkpt lat="49.00095" lon="0.78176">
        <ele>159</ele>
        <time>2019-08-15T07:25:06.708Z</time>
      </trkpt>
      <trkpt lat="49.00095" lon="0.78176">
        <ele>159</ele>
        <time>2019-08-15T07:25:07.706Z</time>
      </trkpt>
      <trkpt lat="49.00085" lon="0.78182">
        <ele>159</ele>
        <time>2019-08-15T07:25:08.716Z</time>
      </trkpt>
      <trkpt lat="49.00085" lon="0.78182">
        <ele>159</ele>
        <time>2019-08-15T07:25:09.705Z</time>
      </trkpt>
      <trkpt lat="49.00075" lon="0.78189">
        <ele>159</ele>
        <time>2019-08-15T07:25:10.713Z</time>
      </trkpt>
      <trkpt lat="49.00075" lon="0.78189">
        <ele>159</ele>
        <time>2019-08-15T07:25:11.706Z</time>
      </trkpt>
      <trkpt lat="49.00065" lon="0.78195">
        <ele>158</ele>
        <time>2019-08-15T07:25:12.705Z</time>
      </trkpt>
      <trkpt lat="49.0006" lon="0.78199">
        <ele>158</ele>
        <time>2019-08-15T07:25:13.709Z</time>
      </trkpt>
      <trkpt lat="49.0006" lon="0.78199">
        <ele>158</ele>
        <time>2019-08-15T07:25:14.706Z</time>
      </trkpt>
      <trkpt lat="49.00049" lon="0.78205">
        <ele>157</ele>
        <time>2019-08-15T07:25:15.708Z</time>
      </trkpt>
      <trkpt lat="49.00044" lon="0.78209">
        <ele>157</ele>
        <time>2019-08-15T07:25:16.714Z</time>
      </trkpt>
      <trkpt lat="49.00044" lon="0.78209">
        <ele>157</ele>
        <time>2019-08-15T07:25:17.703Z</time>
      </trkpt>
      <trkpt lat="49.00033" lon="0.78216">
        <ele>157</ele>
        <time>2019-08-15T07:25:18.713Z</time>
      </trkpt>
      <trkpt lat="49.00033" lon="0.78216">
        <ele>157</ele>
        <time>2019-08-15T07:25:19.714Z</time>
      </trkpt>
      <trkpt lat="49.00023" lon="0.78224">
        <ele>157</ele>
        <time>2019-08-15T07:25:20.713Z</time>
      </trkpt>
      <trkpt lat="49.00023" lon="0.78224">
        <ele>157</ele>
        <time>2019-08-15T07:25:21.706Z</time>
      </trkpt>
      <trkpt lat="49.00013" lon="0.78233">
        <ele>157</ele>
        <time>2019-08-15T07:25:22.708Z</time>
      </trkpt>
      <trkpt lat="49.00013" lon="0.78233">
        <ele>157</ele>
        <time>2019-08-15T07:25:23.707Z</time>
      </trkpt>
      <trkpt lat="49.00003" lon="0.78241">
        <ele>157</ele>
        <time>2019-08-15T07:25:24.713Z</time>
      </trkpt>
      <trkpt lat="49.00003" lon="0.78241">
        <ele>157</ele>
        <time>2019-08-15T07:25:25.706Z</time>
      </trkpt>
      <trkpt lat="48.99992" lon="0.78248">
        <ele>156</ele>
        <time>2019-08-15T07:25:26.714Z</time>
      </trkpt>
      <trkpt lat="48.99987" lon="0.78252">
        <ele>156</ele>
        <time>2019-08-15T07:25:27.707Z</time>
      </trkpt>
      <trkpt lat="48.99987" lon="0.78252">
        <ele>156</ele>
        <time>2019-08-15T07:25:28.707Z</time>
      </trkpt>
      <trkpt lat="48.99977" lon="0.7826">
        <ele>156</ele>
        <time>2019-08-15T07:25:29.701Z</time>
      </trkpt>
      <trkpt lat="48.99973" lon="0.78264">
        <ele>156</ele>
        <time>2019-08-15T07:25:30.708Z</time>
      </trkpt>
      <trkpt lat="48.99973" lon="0.78264">
        <ele>156</ele>
        <time>2019-08-15T07:25:31.702Z</time>
      </trkpt>
      <trkpt lat="48.99963" lon="0.78271">
        <ele>155</ele>
        <time>2019-08-15T07:25:32.713Z</time>
      </trkpt>
      <trkpt lat="48.99963" lon="0.78271">
        <ele>155</ele>
        <time>2019-08-15T07:25:33.706Z</time>
      </trkpt>
      <trkpt lat="48.99954" lon="0.78279">
        <ele>155</ele>
        <time>2019-08-15T07:25:34.713Z</time>
      </trkpt>
      <trkpt lat="48.99954" lon="0.78279">
        <ele>155</ele>
        <time>2019-08-15T07:25:35.702Z</time>
      </trkpt>
      <trkpt lat="48.99945" lon="0.78287">
        <ele>155</ele>
        <time>2019-08-15T07:25:36.685Z</time>
      </trkpt>
      <trkpt lat="48.99945" lon="0.78287">
        <ele>155</ele>
        <time>2019-08-15T07:25:37.725Z</time>
      </trkpt>
      <trkpt lat="48.99935" lon="0.78293">
        <ele>155</ele>
        <time>2019-08-15T07:25:38.713Z</time>
      </trkpt>
      <trkpt lat="48.99935" lon="0.78293">
        <ele>155</ele>
        <time>2019-08-15T07:25:39.683Z</time>
      </trkpt>
      <trkpt lat="48.99926" lon="0.78299">
        <ele>155</ele>
        <time>2019-08-15T07:25:40.709Z</time>
      </trkpt>
      <trkpt lat="48.99926" lon="0.78299">
        <ele>155</ele>
        <time>2019-08-15T07:25:41.705Z</time>
      </trkpt>
      <trkpt lat="48.99917" lon="0.78303">
        <ele>155</ele>
        <time>2019-08-15T07:25:42.708Z</time>
      </trkpt>
      <trkpt lat="48.99917" lon="0.78303">
        <ele>155</ele>
        <time>2019-08-15T07:25:43.728Z</time>
      </trkpt>
      <trkpt lat="48.99909" lon="0.7831">
        <ele>155</ele>
        <time>2019-08-15T07:25:44.707Z</time>
      </trkpt>
      <trkpt lat="48.99909" lon="0.7831">
        <ele>155</ele>
        <time>2019-08-15T07:25:45.703Z</time>
      </trkpt>
      <trkpt lat="48.99901" lon="0.78316">
        <ele>155</ele>
        <time>2019-08-15T07:25:46.708Z</time>
      </trkpt>
      <trkpt lat="48.99901" lon="0.78316">
        <ele>155</ele>
        <time>2019-08-15T07:25:47.705Z</time>
      </trkpt>
      <trkpt lat="48.99893" lon="0.78322">
        <ele>155</ele>
        <time>2019-08-15T07:25:48.708Z</time>
      </trkpt>
      <trkpt lat="48.99893" lon="0.78322">
        <ele>155</ele>
        <time>2019-08-15T07:25:49.714Z</time>
      </trkpt>
      <trkpt lat="48.99885" lon="0.78328">
        <ele>155</ele>
        <time>2019-08-15T07:25:50.714Z</time>
      </trkpt>
      <trkpt lat="48.99885" lon="0.78328">
        <ele>155</ele>
        <time>2019-08-15T07:25:51.706Z</time>
      </trkpt>
      <trkpt lat="48.99875" lon="0.78334">
        <ele>154</ele>
        <time>2019-08-15T07:25:52.708Z</time>
      </trkpt>
      <trkpt lat="48.99875" lon="0.78334">
        <ele>154</ele>
        <time>2019-08-15T07:25:53.706Z</time>
      </trkpt>
      <trkpt lat="48.99865" lon="0.7834">
        <ele>153</ele>
        <time>2019-08-15T07:25:54.705Z</time>
      </trkpt>
      <trkpt lat="48.9986" lon="0.78344">
        <ele>153</ele>
        <time>2019-08-15T07:25:55.714Z</time>
      </trkpt>
      <trkpt lat="48.9986" lon="0.78344">
        <ele>153</ele>
        <time>2019-08-15T07:25:56.707Z</time>
      </trkpt>
      <trkpt lat="48.99849" lon="0.78351">
        <ele>153</ele>
        <time>2019-08-15T07:25:57.682Z</time>
      </trkpt>
      <trkpt lat="48.99844" lon="0.78355">
        <ele>153</ele>
        <time>2019-08-15T07:25:58.713Z</time>
      </trkpt>
      <trkpt lat="48.99844" lon="0.78355">
        <ele>153</ele>
        <time>2019-08-15T07:25:59.712Z</time>
      </trkpt>
      <trkpt lat="48.99833" lon="0.78363">
        <ele>153</ele>
        <time>2019-08-15T07:26:00.713Z</time>
      </trkpt>
      <trkpt lat="48.99833" lon="0.78363">
        <ele>153</ele>
        <time>2019-08-15T07:26:01.705Z</time>
      </trkpt>
      <trkpt lat="48.99824" lon="0.78371">
        <ele>153</ele>
        <time>2019-08-15T07:26:02.713Z</time>
      </trkpt>
      <trkpt lat="48.99824" lon="0.78371">
        <ele>153</ele>
        <time>2019-08-15T07:26:03.707Z</time>
      </trkpt>
      <trkpt lat="48.99814" lon="0.78379">
        <ele>153</ele>
        <time>2019-08-15T07:26:04.708Z</time>
      </trkpt>
      <trkpt lat="48.99814" lon="0.78379">
        <ele>153</ele>
        <time>2019-08-15T07:26:05.705Z</time>
      </trkpt>
      <trkpt lat="48.99805" lon="0.78387">
        <ele>153</ele>
        <time>2019-08-15T07:26:06.709Z</time>
      </trkpt>
      <trkpt lat="48.99805" lon="0.78387">
        <ele>153</ele>
        <time>2019-08-15T07:26:07.706Z</time>
      </trkpt>
      <trkpt lat="48.99796" lon="0.78393">
        <ele>153</ele>
        <time>2019-08-15T07:26:08.713Z</time>
      </trkpt>
      <trkpt lat="48.99796" lon="0.78393">
        <ele>153</ele>
        <time>2019-08-15T07:26:09.716Z</time>
      </trkpt>
      <trkpt lat="48.99786" lon="0.78397">
        <ele>152</ele>
        <time>2019-08-15T07:26:10.713Z</time>
      </trkpt>
      <trkpt lat="48.99786" lon="0.78397">
        <ele>152</ele>
        <time>2019-08-15T07:26:11.705Z</time>
      </trkpt>
      <trkpt lat="48.99776" lon="0.78398">
        <ele>153</ele>
        <time>2019-08-15T07:26:12.708Z</time>
      </trkpt>
      <trkpt lat="48.99776" lon="0.78398">
        <ele>153</ele>
        <time>2019-08-15T07:26:13.705Z</time>
      </trkpt>
      <trkpt lat="48.99765" lon="0.78401">
        <ele>153</ele>
        <time>2019-08-15T07:26:14.713Z</time>
      </trkpt>
      <trkpt lat="48.99765" lon="0.78401">
        <ele>153</ele>
        <time>2019-08-15T07:26:15.706Z</time>
      </trkpt>
      <trkpt lat="48.99754" lon="0.78403">
        <ele>153</ele>
        <time>2019-08-15T07:26:16.713Z</time>
      </trkpt>
      <trkpt lat="48.99754" lon="0.78403">
        <ele>153</ele>
        <time>2019-08-15T07:26:17.696Z</time>
      </trkpt>
      <trkpt lat="48.99742" lon="0.78404">
        <ele>152</ele>
        <time>2019-08-15T07:26:18.680Z</time>
      </trkpt>
      <trkpt lat="48.99742" lon="0.78404">
        <ele>152</ele>
        <time>2019-08-15T07:26:19.709Z</time>
      </trkpt>
      <trkpt lat="48.99731" lon="0.78406">
        <ele>152</ele>
        <time>2019-08-15T07:26:20.713Z</time>
      </trkpt>
      <trkpt lat="48.99731" lon="0.78406">
        <ele>152</ele>
        <time>2019-08-15T07:26:21.706Z</time>
      </trkpt>
      <trkpt lat="48.99721" lon="0.78409">
        <ele>153</ele>
        <time>2019-08-15T07:26:22.709Z</time>
      </trkpt>
      <trkpt lat="48.99721" lon="0.78409">
        <ele>153</ele>
        <time>2019-08-15T07:26:23.727Z</time>
      </trkpt>
      <trkpt lat="48.9971" lon="0.78415">
        <ele>153</ele>
        <time>2019-08-15T07:26:24.713Z</time>
      </trkpt>
      <trkpt lat="48.9971" lon="0.78415">
        <ele>153</ele>
        <time>2019-08-15T07:26:25.703Z</time>
      </trkpt>
      <trkpt lat="48.997" lon="0.78422">
        <ele>152</ele>
        <time>2019-08-15T07:26:26.684Z</time>
      </trkpt>
      <trkpt lat="48.997" lon="0.78422">
        <ele>152</ele>
        <time>2019-08-15T07:26:27.713Z</time>
      </trkpt>
      <trkpt lat="48.9969" lon="0.78429">
        <ele>153</ele>
        <time>2019-08-15T07:26:28.713Z</time>
      </trkpt>
      <trkpt lat="48.9969" lon="0.78429">
        <ele>153</ele>
        <time>2019-08-15T07:26:29.709Z</time>
      </trkpt>
      <trkpt lat="48.9968" lon="0.78438">
        <ele>153</ele>
        <time>2019-08-15T07:26:30.708Z</time>
      </trkpt>
      <trkpt lat="48.9968" lon="0.78438">
        <ele>153</ele>
        <time>2019-08-15T07:26:31.705Z</time>
      </trkpt>
      <trkpt lat="48.99671" lon="0.78446">
        <ele>153</ele>
        <time>2019-08-15T07:26:32.713Z</time>
      </trkpt>
      <trkpt lat="48.99671" lon="0.78446">
        <ele>153</ele>
        <time>2019-08-15T07:26:33.707Z</time>
      </trkpt>
      <trkpt lat="48.99661" lon="0.78452">
        <ele>154</ele>
        <time>2019-08-15T07:26:34.713Z</time>
      </trkpt>
      <trkpt lat="48.99661" lon="0.78452">
        <ele>154</ele>
        <time>2019-08-15T07:26:35.704Z</time>
      </trkpt>
      <trkpt lat="48.99651" lon="0.78456">
        <ele>154</ele>
        <time>2019-08-15T07:26:36.713Z</time>
      </trkpt>
      <trkpt lat="48.99651" lon="0.78456">
        <ele>154</ele>
        <time>2019-08-15T07:26:37.719Z</time>
      </trkpt>
      <trkpt lat="48.99643" lon="0.78462">
        <ele>153</ele>
        <time>2019-08-15T07:26:38.713Z</time>
      </trkpt>
      <trkpt lat="48.99643" lon="0.78462">
        <ele>153</ele>
        <time>2019-08-15T07:26:39.712Z</time>
      </trkpt>
      <trkpt lat="48.99635" lon="0.78468">
        <ele>153</ele>
        <time>2019-08-15T07:26:40.713Z</time>
      </trkpt>
      <trkpt lat="48.99635" lon="0.78468">
        <ele>153</ele>
        <time>2019-08-15T07:26:41.704Z</time>
      </trkpt>
      <trkpt lat="48.99626" lon="0.78473">
        <ele>154</ele>
        <time>2019-08-15T07:26:42.708Z</time>
      </trkpt>
      <trkpt lat="48.99626" lon="0.78473">
        <ele>154</ele>
        <time>2019-08-15T07:26:43.707Z</time>
      </trkpt>
      <trkpt lat="48.99618" lon="0.78479">
        <ele>153</ele>
        <time>2019-08-15T07:26:44.713Z</time>
      </trkpt>
      <trkpt lat="48.99618" lon="0.78479">
        <ele>153</ele>
        <time>2019-08-15T07:26:45.705Z</time>
      </trkpt>
      <trkpt lat="48.9961" lon="0.78486">
        <ele>153</ele>
        <time>2019-08-15T07:26:46.708Z</time>
      </trkpt>
      <trkpt lat="48.9961" lon="0.78486">
        <ele>153</ele>
        <time>2019-08-15T07:26:47.705Z</time>
      </trkpt>
      <trkpt lat="48.99602" lon="0.78493">
        <ele>153</ele>
        <time>2019-08-15T07:26:48.708Z</time>
      </trkpt>
      <trkpt lat="48.99602" lon="0.78493">
        <ele>153</ele>
        <time>2019-08-15T07:26:49.707Z</time>
      </trkpt>
      <trkpt lat="48.99595" lon="0.78501">
        <ele>153</ele>
        <time>2019-08-15T07:26:50.708Z</time>
      </trkpt>
      <trkpt lat="48.99595" lon="0.78501">
        <ele>153</ele>
        <time>2019-08-15T07:26:51.706Z</time>
      </trkpt>
      <trkpt lat="48.99587" lon="0.78512">
        <ele>153</ele>
        <time>2019-08-15T07:26:52.713Z</time>
      </trkpt>
      <trkpt lat="48.99587" lon="0.78512">
        <ele>153</ele>
        <time>2019-08-15T07:26:53.729Z</time>
      </trkpt>
      <trkpt lat="48.9958" lon="0.78526">
        <ele>152</ele>
        <time>2019-08-15T07:26:54.713Z</time>
      </trkpt>
      <trkpt lat="48.9958" lon="0.78526">
        <ele>152</ele>
        <time>2019-08-15T07:26:55.705Z</time>
      </trkpt>
      <trkpt lat="48.99573" lon="0.78539">
        <ele>152</ele>
        <time>2019-08-15T07:26:56.685Z</time>
      </trkpt>
      <trkpt lat="48.99573" lon="0.78539">
        <ele>152</ele>
        <time>2019-08-15T07:26:57.713Z</time>
      </trkpt>
      <trkpt lat="48.99567" lon="0.78551">
        <ele>152</ele>
        <time>2019-08-15T07:26:58.708Z</time>
      </trkpt>
      <trkpt lat="48.99565" lon="0.78557">
        <ele>151</ele>
        <time>2019-08-15T07:26:59.713Z</time>
      </trkpt>
      <trkpt lat="48.99565" lon="0.78557">
        <ele>151</ele>
        <time>2019-08-15T07:27:00.702Z</time>
      </trkpt>
      <trkpt lat="48.99559" lon="0.78568">
        <ele>151</ele>
        <time>2019-08-15T07:27:01.708Z</time>
      </trkpt>
      <trkpt lat="48.99555" lon="0.78574">
        <ele>151</ele>
        <time>2019-08-15T07:27:02.713Z</time>
      </trkpt>
      <trkpt lat="48.99555" lon="0.78574">
        <ele>151</ele>
        <time>2019-08-15T07:27:03.738Z</time>
      </trkpt>
      <trkpt lat="48.99548" lon="0.78587">
        <ele>150</ele>
        <time>2019-08-15T07:27:04.713Z</time>
      </trkpt>
      <trkpt lat="48.99548" lon="0.78587">
        <ele>150</ele>
        <time>2019-08-15T07:27:05.706Z</time>
      </trkpt>
      <trkpt lat="48.99544" lon="0.78599">
        <ele>150</ele>
        <time>2019-08-15T07:27:06.713Z</time>
      </trkpt>
      <trkpt lat="48.99543" lon="0.78606">
        <ele>149</ele>
        <time>2019-08-15T07:27:07.707Z</time>
      </trkpt>
      <trkpt lat="48.99543" lon="0.78606">
        <ele>149</ele>
        <time>2019-08-15T07:27:08.706Z</time>
      </trkpt>
      <trkpt lat="48.99541" lon="0.78617">
        <ele>149</ele>
        <time>2019-08-15T07:27:09.713Z</time>
      </trkpt>
      <trkpt lat="48.99541" lon="0.78617">
        <ele>149</ele>
        <time>2019-08-15T07:27:10.713Z</time>
      </trkpt>
      <trkpt lat="48.99538" lon="0.78629">
        <ele>148</ele>
        <time>2019-08-15T07:27:11.692Z</time>
      </trkpt>
      <trkpt lat="48.99538" lon="0.78629">
        <ele>148</ele>
        <time>2019-08-15T07:27:12.691Z</time>
      </trkpt>
      <trkpt lat="48.99536" lon="0.78639">
        <ele>148</ele>
        <time>2019-08-15T07:27:13.683Z</time>
      </trkpt>
      <trkpt lat="48.99535" lon="0.78645">
        <ele>148</ele>
        <time>2019-08-15T07:27:14.681Z</time>
      </trkpt>
      <trkpt lat="48.99535" lon="0.78645">
        <ele>148</ele>
        <time>2019-08-15T07:27:15.706Z</time>
      </trkpt>
      <trkpt lat="48.99534" lon="0.78658">
        <ele>147</ele>
        <time>2019-08-15T07:27:16.708Z</time>
      </trkpt>
      <trkpt lat="48.99534" lon="0.78658">
        <ele>147</ele>
        <time>2019-08-15T07:27:17.707Z</time>
      </trkpt>
      <trkpt lat="48.99533" lon="0.78669">
        <ele>147</ele>
        <time>2019-08-15T07:27:18.708Z</time>
      </trkpt>
      <trkpt lat="48.99532" lon="0.78674">
        <ele>147</ele>
        <time>2019-08-15T07:27:19.708Z</time>
      </trkpt>
      <trkpt lat="48.99532" lon="0.7868">
        <ele>147</ele>
        <time>2019-08-15T07:27:20.713Z</time>
      </trkpt>
      <trkpt lat="48.99532" lon="0.7868">
        <ele>147</ele>
        <time>2019-08-15T07:27:21.706Z</time>
      </trkpt>
      <trkpt lat="48.99532" lon="0.78693">
        <ele>146</ele>
        <time>2019-08-15T07:27:22.713Z</time>
      </trkpt>
      <trkpt lat="48.99532" lon="0.78693">
        <ele>146</ele>
        <time>2019-08-15T07:27:23.696Z</time>
      </trkpt>
      <trkpt lat="48.99531" lon="0.78705">
        <ele>146</ele>
        <time>2019-08-15T07:27:24.684Z</time>
      </trkpt>
      <trkpt lat="48.99531" lon="0.78711">
        <ele>146</ele>
        <time>2019-08-15T07:27:25.715Z</time>
      </trkpt>
      <trkpt lat="48.99531" lon="0.78711">
        <ele>146</ele>
        <time>2019-08-15T07:27:26.706Z</time>
      </trkpt>
      <trkpt lat="48.99531" lon="0.78724">
        <ele>145</ele>
        <time>2019-08-15T07:27:27.708Z</time>
      </trkpt>
      <trkpt lat="48.99531" lon="0.78731">
        <ele>145</ele>
        <time>2019-08-15T07:27:28.714Z</time>
      </trkpt>
      <trkpt lat="48.99531" lon="0.78731">
        <ele>145</ele>
        <time>2019-08-15T07:27:29.703Z</time>
      </trkpt>
      <trkpt lat="48.99531" lon="0.78746">
        <ele>145</ele>
        <time>2019-08-15T07:27:30.713Z</time>
      </trkpt>
      <trkpt lat="48.99531" lon="0.78746">
        <ele>145</ele>
        <time>2019-08-15T07:27:31.707Z</time>
      </trkpt>
      <trkpt lat="48.99531" lon="0.78761">
        <ele>144</ele>
        <time>2019-08-15T07:27:32.713Z</time>
      </trkpt>
      <trkpt lat="48.99531" lon="0.78761">
        <ele>144</ele>
        <time>2019-08-15T07:27:33.707Z</time>
      </trkpt>
      <trkpt lat="48.99531" lon="0.78776">
        <ele>143</ele>
        <time>2019-08-15T07:27:34.713Z</time>
      </trkpt>
      <trkpt lat="48.99531" lon="0.78776">
        <ele>143</ele>
        <time>2019-08-15T07:27:35.706Z</time>
      </trkpt>
      <trkpt lat="48.99531" lon="0.7879">
        <ele>142</ele>
        <time>2019-08-15T07:27:36.708Z</time>
      </trkpt>
      <trkpt lat="48.99531" lon="0.7879">
        <ele>142</ele>
        <time>2019-08-15T07:27:37.678Z</time>
      </trkpt>
      <trkpt lat="48.99531" lon="0.788">
        <ele>141</ele>
        <time>2019-08-15T07:27:38.680Z</time>
      </trkpt>
      <trkpt lat="48.99531" lon="0.788">
        <ele>141</ele>
        <time>2019-08-15T07:27:39.706Z</time>
      </trkpt>
      <trkpt lat="48.99531" lon="0.78814">
        <ele>141</ele>
        <time>2019-08-15T07:27:40.708Z</time>
      </trkpt>
      <trkpt lat="48.99531" lon="0.78814">
        <ele>141</ele>
        <time>2019-08-15T07:27:41.703Z</time>
      </trkpt>
      <trkpt lat="48.99531" lon="0.78828">
        <ele>140</ele>
        <time>2019-08-15T07:27:42.713Z</time>
      </trkpt>
      <trkpt lat="48.99531" lon="0.78828">
        <ele>140</ele>
        <time>2019-08-15T07:27:43.739Z</time>
      </trkpt>
      <trkpt lat="48.99529" lon="0.78838">
        <ele>139</ele>
        <time>2019-08-15T07:27:44.714Z</time>
      </trkpt>
      <trkpt lat="48.99529" lon="0.78838">
        <ele>139</ele>
        <time>2019-08-15T07:27:45.705Z</time>
      </trkpt>
      <trkpt lat="48.99527" lon="0.78852">
        <ele>138</ele>
        <time>2019-08-15T07:27:46.713Z</time>
      </trkpt>
      <trkpt lat="48.99527" lon="0.78852">
        <ele>138</ele>
        <time>2019-08-15T07:27:47.706Z</time>
      </trkpt>
      <trkpt lat="48.99525" lon="0.78869">
        <ele>137</ele>
        <time>2019-08-15T07:27:48.707Z</time>
      </trkpt>
      <trkpt lat="48.99526" lon="0.78878">
        <ele>136</ele>
        <time>2019-08-15T07:27:49.707Z</time>
      </trkpt>
      <trkpt lat="48.99526" lon="0.78878">
        <ele>136</ele>
        <time>2019-08-15T07:27:50.711Z</time>
      </trkpt>
      <trkpt lat="48.99527" lon="0.78898">
        <ele>136</ele>
        <time>2019-08-15T07:27:51.713Z</time>
      </trkpt>
      <trkpt lat="48.99527" lon="0.78898">
        <ele>136</ele>
        <time>2019-08-15T07:27:52.697Z</time>
      </trkpt>
      <trkpt lat="48.99528" lon="0.78916">
        <ele>135</ele>
        <time>2019-08-15T07:27:53.690Z</time>
      </trkpt>
      <trkpt lat="48.99528" lon="0.78916">
        <ele>135</ele>
        <time>2019-08-15T07:27:54.706Z</time>
      </trkpt>
      <trkpt lat="48.99529" lon="0.78934">
        <ele>134</ele>
        <time>2019-08-15T07:27:55.708Z</time>
      </trkpt>
      <trkpt lat="48.9953" lon="0.78943">
        <ele>134</ele>
        <time>2019-08-15T07:27:56.713Z</time>
      </trkpt>
      <trkpt lat="48.9953" lon="0.78943">
        <ele>134</ele>
        <time>2019-08-15T07:27:57.704Z</time>
      </trkpt>
      <trkpt lat="48.99532" lon="0.78961">
        <ele>133</ele>
        <time>2019-08-15T07:27:58.713Z</time>
      </trkpt>
      <trkpt lat="48.99532" lon="0.78961">
        <ele>133</ele>
        <time>2019-08-15T07:27:59.706Z</time>
      </trkpt>
      <trkpt lat="48.99534" lon="0.78975">
        <ele>132</ele>
        <time>2019-08-15T07:28:00.708Z</time>
      </trkpt>
      <trkpt lat="48.99534" lon="0.78981">
        <ele>132</ele>
        <time>2019-08-15T07:28:01.708Z</time>
      </trkpt>
      <trkpt lat="48.99534" lon="0.78981">
        <ele>132</ele>
        <time>2019-08-15T07:28:02.704Z</time>
      </trkpt>
      <trkpt lat="48.99535" lon="0.7899">
        <ele>131</ele>
        <time>2019-08-15T07:28:03.713Z</time>
      </trkpt>
      <trkpt lat="48.99534" lon="0.78993">
        <ele>130</ele>
        <time>2019-08-15T07:28:04.713Z</time>
      </trkpt>
      <trkpt lat="48.99534" lon="0.78993">
        <ele>130</ele>
        <time>2019-08-15T07:28:05.706Z</time>
      </trkpt>
      <trkpt lat="48.99529" lon="0.78997">
        <ele>130</ele>
        <time>2019-08-15T07:28:06.705Z</time>
      </trkpt>
      <trkpt lat="48.99529" lon="0.78997">
        <ele>130</ele>
        <time>2019-08-15T07:28:07.704Z</time>
      </trkpt>
      <trkpt lat="48.99522" lon="0.78994">
        <ele>130</ele>
        <time>2019-08-15T07:28:08.709Z</time>
      </trkpt>
      <trkpt lat="48.99522" lon="0.78994">
        <ele>130</ele>
        <time>2019-08-15T07:28:09.705Z</time>
      </trkpt>
      <trkpt lat="48.99517" lon="0.78989">
        <ele>129</ele>
        <time>2019-08-15T07:28:10.716Z</time>
      </trkpt>
      <trkpt lat="48.99517" lon="0.78989">
        <ele>129</ele>
        <time>2019-08-15T07:28:11.703Z</time>
      </trkpt>
      <trkpt lat="48.99512" lon="0.78984">
        <ele>129</ele>
        <time>2019-08-15T07:28:12.707Z</time>
      </trkpt>
      <trkpt lat="48.99512" lon="0.78984">
        <ele>129</ele>
        <time>2019-08-15T07:28:13.705Z</time>
      </trkpt>
      <trkpt lat="48.99506" lon="0.78977">
        <ele>129</ele>
        <time>2019-08-15T07:28:14.713Z</time>
      </trkpt>
      <trkpt lat="48.99506" lon="0.78977">
        <ele>129</ele>
        <time>2019-08-15T07:28:15.706Z</time>
      </trkpt>
      <trkpt lat="48.99501" lon="0.7897">
        <ele>128</ele>
        <time>2019-08-15T07:28:16.713Z</time>
      </trkpt>
      <trkpt lat="48.99501" lon="0.7897">
        <ele>128</ele>
        <time>2019-08-15T07:28:17.706Z</time>
      </trkpt>
      <trkpt lat="48.99497" lon="0.78963">
        <ele>127</ele>
        <time>2019-08-15T07:28:18.708Z</time>
      </trkpt>
      <trkpt lat="48.99495" lon="0.78959">
        <ele>127</ele>
        <time>2019-08-15T07:28:19.707Z</time>
      </trkpt>
      <trkpt lat="48.99495" lon="0.78959">
        <ele>127</ele>
        <time>2019-08-15T07:28:20.703Z</time>
      </trkpt>
      <trkpt lat="48.99489" lon="0.78952">
        <ele>126</ele>
        <time>2019-08-15T07:28:21.708Z</time>
      </trkpt>
      <trkpt lat="48.99489" lon="0.78952">
        <ele>126</ele>
        <time>2019-08-15T07:28:22.706Z</time>
      </trkpt>
      <trkpt lat="48.99482" lon="0.78945">
        <ele>126</ele>
        <time>2019-08-15T07:28:23.694Z</time>
      </trkpt>
      <trkpt lat="48.99478" lon="0.78942">
        <ele>126</ele>
        <time>2019-08-15T07:28:24.713Z</time>
      </trkpt>
      <trkpt lat="48.99478" lon="0.78942">
        <ele>126</ele>
        <time>2019-08-15T07:28:25.706Z</time>
      </trkpt>
      <trkpt lat="48.9947" lon="0.78936">
        <ele>126</ele>
        <time>2019-08-15T07:28:26.713Z</time>
      </trkpt>
      <trkpt lat="48.9947" lon="0.78936">
        <ele>126</ele>
        <time>2019-08-15T07:28:27.706Z</time>
      </trkpt>
      <trkpt lat="48.99462" lon="0.78931">
        <ele>125</ele>
        <time>2019-08-15T07:28:28.713Z</time>
      </trkpt>
      <trkpt lat="48.99462" lon="0.78931">
        <ele>125</ele>
        <time>2019-08-15T07:28:29.706Z</time>
      </trkpt>
      <trkpt lat="48.99455" lon="0.78926">
        <ele>125</ele>
        <time>2019-08-15T07:28:30.713Z</time>
      </trkpt>
      <trkpt lat="48.99455" lon="0.78926">
        <ele>125</ele>
        <time>2019-08-15T07:28:31.707Z</time>
      </trkpt>
      <trkpt lat="48.99447" lon="0.78922">
        <ele>124</ele>
        <time>2019-08-15T07:28:32.707Z</time>
      </trkpt>
      <trkpt lat="48.99447" lon="0.78922">
        <ele>124</ele>
        <time>2019-08-15T07:28:33.706Z</time>
      </trkpt>
      <trkpt lat="48.99439" lon="0.78918">
        <ele>124</ele>
        <time>2019-08-15T07:28:34.713Z</time>
      </trkpt>
      <trkpt lat="48.99439" lon="0.78918">
        <ele>124</ele>
        <time>2019-08-15T07:28:35.705Z</time>
      </trkpt>
      <trkpt lat="48.99433" lon="0.78914">
        <ele>124</ele>
        <time>2019-08-15T07:28:36.708Z</time>
      </trkpt>
      <trkpt lat="48.99429" lon="0.78912">
        <ele>124</ele>
        <time>2019-08-15T07:28:37.688Z</time>
      </trkpt>
      <trkpt lat="48.99429" lon="0.78912">
        <ele>124</ele>
        <time>2019-08-15T07:28:38.683Z</time>
      </trkpt>
      <trkpt lat="48.99423" lon="0.78908">
        <ele>124</ele>
        <time>2019-08-15T07:28:39.708Z</time>
      </trkpt>
      <trkpt lat="48.9942" lon="0.78906">
        <ele>123</ele>
        <time>2019-08-15T07:28:40.708Z</time>
      </trkpt>
      <trkpt lat="48.9942" lon="0.78906">
        <ele>123</ele>
        <time>2019-08-15T07:28:41.700Z</time>
      </trkpt>
      <trkpt lat="48.99414" lon="0.78904">
        <ele>123</ele>
        <time>2019-08-15T07:28:42.685Z</time>
      </trkpt>
      <trkpt lat="48.99414" lon="0.78904">
        <ele>123</ele>
        <time>2019-08-15T07:28:43.679Z</time>
      </trkpt>
      <trkpt lat="48.99408" lon="0.78901">
        <ele>123</ele>
        <time>2019-08-15T07:28:44.713Z</time>
      </trkpt>
      <trkpt lat="48.99408" lon="0.78901">
        <ele>123</ele>
        <time>2019-08-15T07:28:45.706Z</time>
      </trkpt>
      <trkpt lat="48.994" lon="0.78897">
        <ele>122</ele>
        <time>2019-08-15T07:28:46.713Z</time>
      </trkpt>
      <trkpt lat="48.994" lon="0.78897">
        <ele>122</ele>
        <time>2019-08-15T07:28:47.706Z</time>
      </trkpt>
      <trkpt lat="48.99393" lon="0.78895">
        <ele>122</ele>
        <time>2019-08-15T07:28:48.706Z</time>
      </trkpt>
      <trkpt lat="48.99393" lon="0.78895">
        <ele>122</ele>
        <time>2019-08-15T07:28:49.703Z</time>
      </trkpt>
      <trkpt lat="48.99386" lon="0.78892">
        <ele>121</ele>
        <time>2019-08-15T07:28:50.682Z</time>
      </trkpt>
      <trkpt lat="48.99386" lon="0.78892">
        <ele>121</ele>
        <time>2019-08-15T07:28:51.713Z</time>
      </trkpt>
      <trkpt lat="48.99381" lon="0.78891">
        <ele>121</ele>
        <time>2019-08-15T07:28:52.713Z</time>
      </trkpt>
      <trkpt lat="48.99381" lon="0.78891">
        <ele>121</ele>
        <time>2019-08-15T07:28:53.705Z</time>
      </trkpt>
      <trkpt lat="48.99375" lon="0.78888">
        <ele>121</ele>
        <time>2019-08-15T07:28:54.708Z</time>
      </trkpt>
      <trkpt lat="48.99372" lon="0.78887">
        <ele>120</ele>
        <time>2019-08-15T07:28:55.708Z</time>
      </trkpt>
      <trkpt lat="48.99372" lon="0.78887">
        <ele>120</ele>
        <time>2019-08-15T07:28:56.706Z</time>
      </trkpt>
      <trkpt lat="48.99364" lon="0.78885">
        <ele>120</ele>
        <time>2019-08-15T07:28:57.708Z</time>
      </trkpt>
      <trkpt lat="48.99364" lon="0.78885">
        <ele>120</ele>
        <time>2019-08-15T07:28:58.704Z</time>
      </trkpt>
      <trkpt lat="48.99357" lon="0.78883">
        <ele>120</ele>
        <time>2019-08-15T07:28:59.690Z</time>
      </trkpt>
      <trkpt lat="48.99357" lon="0.78883">
        <ele>120</ele>
        <time>2019-08-15T07:29:00.713Z</time>
      </trkpt>
      <trkpt lat="48.9935" lon="0.7888">
        <ele>120</ele>
        <time>2019-08-15T07:29:01.714Z</time>
      </trkpt>
      <trkpt lat="48.9935" lon="0.7888">
        <ele>120</ele>
        <time>2019-08-15T07:29:02.705Z</time>
      </trkpt>
      <trkpt lat="48.99344" lon="0.78879">
        <ele>120</ele>
        <time>2019-08-15T07:29:03.713Z</time>
      </trkpt>
      <trkpt lat="48.99344" lon="0.78879">
        <ele>120</ele>
        <time>2019-08-15T07:29:04.713Z</time>
      </trkpt>
      <trkpt lat="48.99337" lon="0.78879">
        <ele>120</ele>
        <time>2019-08-15T07:29:05.708Z</time>
      </trkpt>
      <trkpt lat="48.99337" lon="0.78879">
        <ele>120</ele>
        <time>2019-08-15T07:29:06.706Z</time>
      </trkpt>
      <trkpt lat="48.9933" lon="0.78879">
        <ele>120</ele>
        <time>2019-08-15T07:29:07.708Z</time>
      </trkpt>
      <trkpt lat="48.99326" lon="0.78879">
        <ele>120</ele>
        <time>2019-08-15T07:29:08.715Z</time>
      </trkpt>
      <trkpt lat="48.99326" lon="0.78879">
        <ele>120</ele>
        <time>2019-08-15T07:29:09.706Z</time>
      </trkpt>
      <trkpt lat="48.99318" lon="0.78879">
        <ele>120</ele>
        <time>2019-08-15T07:29:10.713Z</time>
      </trkpt>
      <trkpt lat="48.99318" lon="0.78879">
        <ele>120</ele>
        <time>2019-08-15T07:29:11.712Z</time>
      </trkpt>
      <trkpt lat="48.9931" lon="0.78877">
        <ele>120</ele>
        <time>2019-08-15T07:29:12.713Z</time>
      </trkpt>
      <trkpt lat="48.9931" lon="0.78877">
        <ele>120</ele>
        <time>2019-08-15T07:29:13.707Z</time>
      </trkpt>
      <trkpt lat="48.99303" lon="0.78877">
        <ele>120</ele>
        <time>2019-08-15T07:29:14.713Z</time>
      </trkpt>
      <trkpt lat="48.99303" lon="0.78877">
        <ele>120</ele>
        <time>2019-08-15T07:29:15.706Z</time>
      </trkpt>
      <trkpt lat="48.99297" lon="0.78877">
        <ele>120</ele>
        <time>2019-08-15T07:29:16.708Z</time>
      </trkpt>
      <trkpt lat="48.99297" lon="0.78877">
        <ele>120</ele>
        <time>2019-08-15T07:29:17.704Z</time>
      </trkpt>
      <trkpt lat="48.99293" lon="0.78876">
        <ele>120</ele>
        <time>2019-08-15T07:29:18.708Z</time>
      </trkpt>
      <trkpt lat="48.99293" lon="0.78876">
        <ele>120</ele>
        <time>2019-08-15T07:29:19.705Z</time>
      </trkpt>
      <trkpt lat="48.99287" lon="0.78874">
        <ele>120</ele>
        <time>2019-08-15T07:29:20.708Z</time>
      </trkpt>
      <trkpt lat="48.99287" lon="0.78874">
        <ele>120</ele>
        <time>2019-08-15T07:29:21.708Z</time>
      </trkpt>
      <trkpt lat="48.9928" lon="0.78873">
        <ele>120</ele>
        <time>2019-08-15T07:29:22.713Z</time>
      </trkpt>
      <trkpt lat="48.9928" lon="0.78873">
        <ele>120</ele>
        <time>2019-08-15T07:29:23.728Z</time>
      </trkpt>
      <trkpt lat="48.99272" lon="0.78871">
        <ele>120</ele>
        <time>2019-08-15T07:29:24.713Z</time>
      </trkpt>
      <trkpt lat="48.99268" lon="0.7887">
        <ele>120</ele>
        <time>2019-08-15T07:29:25.707Z</time>
      </trkpt>
      <trkpt lat="48.99268" lon="0.7887">
        <ele>120</ele>
        <time>2019-08-15T07:29:26.705Z</time>
      </trkpt>
      <trkpt lat="48.99259" lon="0.78866">
        <ele>120</ele>
        <time>2019-08-15T07:29:27.708Z</time>
      </trkpt>
      <trkpt lat="48.99254" lon="0.78864">
        <ele>120</ele>
        <time>2019-08-15T07:29:28.708Z</time>
      </trkpt>
      <trkpt lat="48.99254" lon="0.78864">
        <ele>120</ele>
        <time>2019-08-15T07:29:29.704Z</time>
      </trkpt>
      <trkpt lat="48.99245" lon="0.7886">
        <ele>120</ele>
        <time>2019-08-15T07:29:30.686Z</time>
      </trkpt>
      <trkpt lat="48.99245" lon="0.7886">
        <ele>120</ele>
        <time>2019-08-15T07:29:31.679Z</time>
      </trkpt>
      <trkpt lat="48.99236" lon="0.7886">
        <ele>120</ele>
        <time>2019-08-15T07:29:32.713Z</time>
      </trkpt>
      <trkpt lat="48.99236" lon="0.7886">
        <ele>120</ele>
        <time>2019-08-15T07:29:33.707Z</time>
      </trkpt>
      <trkpt lat="48.99229" lon="0.7886">
        <ele>120</ele>
        <time>2019-08-15T07:29:34.714Z</time>
      </trkpt>
      <trkpt lat="48.99229" lon="0.7886">
        <ele>120</ele>
        <time>2019-08-15T07:29:35.713Z</time>
      </trkpt>
      <trkpt lat="48.99223" lon="0.78861">
        <ele>120</ele>
        <time>2019-08-15T07:29:36.708Z</time>
      </trkpt>
      <trkpt lat="48.99223" lon="0.78861">
        <ele>120</ele>
        <time>2019-08-15T07:29:37.679Z</time>
      </trkpt>
      <trkpt lat="48.99216" lon="0.78861">
        <ele>120</ele>
        <time>2019-08-15T07:29:38.713Z</time>
      </trkpt>
      <trkpt lat="48.99216" lon="0.78861">
        <ele>120</ele>
        <time>2019-08-15T07:29:39.706Z</time>
      </trkpt>
      <trkpt lat="48.99208" lon="0.78859">
        <ele>121</ele>
        <time>2019-08-15T07:29:40.705Z</time>
      </trkpt>
      <trkpt lat="48.99204" lon="0.78859">
        <ele>120</ele>
        <time>2019-08-15T07:29:41.709Z</time>
      </trkpt>
      <trkpt lat="48.99204" lon="0.78859">
        <ele>120</ele>
        <time>2019-08-15T07:29:42.705Z</time>
      </trkpt>
      <trkpt lat="48.99195" lon="0.78858">
        <ele>120</ele>
        <time>2019-08-15T07:29:43.709Z</time>
      </trkpt>
      <trkpt lat="48.99191" lon="0.78859">
        <ele>120</ele>
        <time>2019-08-15T07:29:44.713Z</time>
      </trkpt>
      <trkpt lat="48.99191" lon="0.78859">
        <ele>120</ele>
        <time>2019-08-15T07:29:45.703Z</time>
      </trkpt>
      <trkpt lat="48.99182" lon="0.7886">
        <ele>120</ele>
        <time>2019-08-15T07:29:46.713Z</time>
      </trkpt>
      <trkpt lat="48.99182" lon="0.7886">
        <ele>120</ele>
        <time>2019-08-15T07:29:47.706Z</time>
      </trkpt>
      <trkpt lat="48.99173" lon="0.78862">
        <ele>120</ele>
        <time>2019-08-15T07:29:48.708Z</time>
      </trkpt>
      <trkpt lat="48.99173" lon="0.78862">
        <ele>120</ele>
        <time>2019-08-15T07:29:49.706Z</time>
      </trkpt>
      <trkpt lat="48.99164" lon="0.78862">
        <ele>120</ele>
        <time>2019-08-15T07:29:50.713Z</time>
      </trkpt>
      <trkpt lat="48.99164" lon="0.78862">
        <ele>120</ele>
        <time>2019-08-15T07:29:51.711Z</time>
      </trkpt>
      <trkpt lat="48.99156" lon="0.78864">
        <ele>120</ele>
        <time>2019-08-15T07:29:52.717Z</time>
      </trkpt>
      <trkpt lat="48.99156" lon="0.78864">
        <ele>120</ele>
        <time>2019-08-15T07:29:53.706Z</time>
      </trkpt>
      <trkpt lat="48.99149" lon="0.78864">
        <ele>120</ele>
        <time>2019-08-15T07:29:54.713Z</time>
      </trkpt>
      <trkpt lat="48.99149" lon="0.78864">
        <ele>120</ele>
        <time>2019-08-15T07:29:55.706Z</time>
      </trkpt>
      <trkpt lat="48.99142" lon="0.78866">
        <ele>121</ele>
        <time>2019-08-15T07:29:56.713Z</time>
      </trkpt>
      <trkpt lat="48.99142" lon="0.78866">
        <ele>121</ele>
        <time>2019-08-15T07:29:57.705Z</time>
      </trkpt>
      <trkpt lat="48.99135" lon="0.78867">
        <ele>121</ele>
        <time>2019-08-15T07:29:58.713Z</time>
      </trkpt>
      <trkpt lat="48.99135" lon="0.78867">
        <ele>121</ele>
        <time>2019-08-15T07:29:59.704Z</time>
      </trkpt>
      <trkpt lat="48.99128" lon="0.78866">
        <ele>121</ele>
        <time>2019-08-15T07:30:00.713Z</time>
      </trkpt>
      <trkpt lat="48.99128" lon="0.78866">
        <ele>121</ele>
        <time>2019-08-15T07:30:01.705Z</time>
      </trkpt>
      <trkpt lat="48.99119" lon="0.78866">
        <ele>121</ele>
        <time>2019-08-15T07:30:02.713Z</time>
      </trkpt>
      <trkpt lat="48.99119" lon="0.78866">
        <ele>121</ele>
        <time>2019-08-15T07:30:03.704Z</time>
      </trkpt>
      <trkpt lat="48.99112" lon="0.78867">
        <ele>122</ele>
        <time>2019-08-15T07:30:04.708Z</time>
      </trkpt>
      <trkpt lat="48.99112" lon="0.78867">
        <ele>122</ele>
        <time>2019-08-15T07:30:05.705Z</time>
      </trkpt>
      <trkpt lat="48.99104" lon="0.7887">
        <ele>122</ele>
        <time>2019-08-15T07:30:06.708Z</time>
      </trkpt>
      <trkpt lat="48.99104" lon="0.7887">
        <ele>122</ele>
        <time>2019-08-15T07:30:07.703Z</time>
      </trkpt>
      <trkpt lat="48.99095" lon="0.78871">
        <ele>122</ele>
        <time>2019-08-15T07:30:08.707Z</time>
      </trkpt>
      <trkpt lat="48.99095" lon="0.78871">
        <ele>122</ele>
        <time>2019-08-15T07:30:09.706Z</time>
      </trkpt>
      <trkpt lat="48.99087" lon="0.78872">
        <ele>122</ele>
        <time>2019-08-15T07:30:10.708Z</time>
      </trkpt>
      <trkpt lat="48.99084" lon="0.78872">
        <ele>122</ele>
        <time>2019-08-15T07:30:11.708Z</time>
      </trkpt>
      <trkpt lat="48.99084" lon="0.78872">
        <ele>122</ele>
        <time>2019-08-15T07:30:12.704Z</time>
      </trkpt>
      <trkpt lat="48.99077" lon="0.78872">
        <ele>122</ele>
        <time>2019-08-15T07:30:13.714Z</time>
      </trkpt>
      <trkpt lat="48.99077" lon="0.78872">
        <ele>122</ele>
        <time>2019-08-15T07:30:14.706Z</time>
      </trkpt>
      <trkpt lat="48.99068" lon="0.78871">
        <ele>122</ele>
        <time>2019-08-15T07:30:15.708Z</time>
      </trkpt>
      <trkpt lat="48.99068" lon="0.78871">
        <ele>122</ele>
        <time>2019-08-15T07:30:16.703Z</time>
      </trkpt>
      <trkpt lat="48.99059" lon="0.78871">
        <ele>122</ele>
        <time>2019-08-15T07:30:17.708Z</time>
      </trkpt>
      <trkpt lat="48.99059" lon="0.78871">
        <ele>122</ele>
        <time>2019-08-15T07:30:18.706Z</time>
      </trkpt>
      <trkpt lat="48.9905" lon="0.7887">
        <ele>122</ele>
        <time>2019-08-15T07:30:19.709Z</time>
      </trkpt>
      <trkpt lat="48.99047" lon="0.78869">
        <ele>122</ele>
        <time>2019-08-15T07:30:20.713Z</time>
      </trkpt>
      <trkpt lat="48.99047" lon="0.78869">
        <ele>122</ele>
        <time>2019-08-15T07:30:21.703Z</time>
      </trkpt>
      <trkpt lat="48.9904" lon="0.78867">
        <ele>123</ele>
        <time>2019-08-15T07:30:22.706Z</time>
      </trkpt>
      <trkpt lat="48.99036" lon="0.78867">
        <ele>123</ele>
        <time>2019-08-15T07:30:23.713Z</time>
      </trkpt>
      <trkpt lat="48.99036" lon="0.78867">
        <ele>123</ele>
        <time>2019-08-15T07:30:24.705Z</time>
      </trkpt>
      <trkpt lat="48.99028" lon="0.78866">
        <ele>123</ele>
        <time>2019-08-15T07:30:25.714Z</time>
      </trkpt>
      <trkpt lat="48.99028" lon="0.78866">
        <ele>123</ele>
        <time>2019-08-15T07:30:26.704Z</time>
      </trkpt>
      <trkpt lat="48.99021" lon="0.78864">
        <ele>123</ele>
        <time>2019-08-15T07:30:27.713Z</time>
      </trkpt>
      <trkpt lat="48.99021" lon="0.78864">
        <ele>123</ele>
        <time>2019-08-15T07:30:28.706Z</time>
      </trkpt>
      <trkpt lat="48.99012" lon="0.78863">
        <ele>124</ele>
        <time>2019-08-15T07:30:29.713Z</time>
      </trkpt>
      <trkpt lat="48.99012" lon="0.78863">
        <ele>124</ele>
        <time>2019-08-15T07:30:30.705Z</time>
      </trkpt>
      <trkpt lat="48.99004" lon="0.78861">
        <ele>124</ele>
        <time>2019-08-15T07:30:31.714Z</time>
      </trkpt>
      <trkpt lat="48.99004" lon="0.78861">
        <ele>124</ele>
        <time>2019-08-15T07:30:32.713Z</time>
      </trkpt>
      <trkpt lat="48.98996" lon="0.7886">
        <ele>124</ele>
        <time>2019-08-15T07:30:33.709Z</time>
      </trkpt>
      <trkpt lat="48.98996" lon="0.7886">
        <ele>124</ele>
        <time>2019-08-15T07:30:34.705Z</time>
      </trkpt>
      <trkpt lat="48.98988" lon="0.7886">
        <ele>125</ele>
        <time>2019-08-15T07:30:35.708Z</time>
      </trkpt>
      <trkpt lat="48.98988" lon="0.7886">
        <ele>125</ele>
        <time>2019-08-15T07:30:36.703Z</time>
      </trkpt>
      <trkpt lat="48.98981" lon="0.7886">
        <ele>125</ele>
        <time>2019-08-15T07:30:37.678Z</time>
      </trkpt>
      <trkpt lat="48.98977" lon="0.7886">
        <ele>125</ele>
        <time>2019-08-15T07:30:38.713Z</time>
      </trkpt>
      <trkpt lat="48.98977" lon="0.7886">
        <ele>125</ele>
        <time>2019-08-15T07:30:39.704Z</time>
      </trkpt>
      <trkpt lat="48.98969" lon="0.7886">
        <ele>125</ele>
        <time>2019-08-15T07:30:40.708Z</time>
      </trkpt>
      <trkpt lat="48.98969" lon="0.7886">
        <ele>125</ele>
        <time>2019-08-15T07:30:41.705Z</time>
      </trkpt>
      <trkpt lat="48.98961" lon="0.78859">
        <ele>125</ele>
        <time>2019-08-15T07:30:42.713Z</time>
      </trkpt>
      <trkpt lat="48.98958" lon="0.78859">
        <ele>125</ele>
        <time>2019-08-15T07:30:43.749Z</time>
      </trkpt>
      <trkpt lat="48.98958" lon="0.78859">
        <ele>125</ele>
        <time>2019-08-15T07:30:44.713Z</time>
      </trkpt>
      <trkpt lat="48.98952" lon="0.78857">
        <ele>125</ele>
        <time>2019-08-15T07:30:45.708Z</time>
      </trkpt>
      <trkpt lat="48.98949" lon="0.78858">
        <ele>125</ele>
        <time>2019-08-15T07:30:46.713Z</time>
      </trkpt>
      <trkpt lat="48.98949" lon="0.78858">
        <ele>125</ele>
        <time>2019-08-15T07:30:47.706Z</time>
      </trkpt>
      <trkpt lat="48.98943" lon="0.78857">
        <ele>125</ele>
        <time>2019-08-15T07:30:48.707Z</time>
      </trkpt>
      <trkpt lat="48.9894" lon="0.78855">
        <ele>125</ele>
        <time>2019-08-15T07:30:49.680Z</time>
      </trkpt>
      <trkpt lat="48.98937" lon="0.78853">
        <ele>125</ele>
        <time>2019-08-15T07:30:50.713Z</time>
      </trkpt>
      <trkpt lat="48.98935" lon="0.7885">
        <ele>126</ele>
        <time>2019-08-15T07:30:51.713Z</time>
      </trkpt>
      <trkpt lat="48.98935" lon="0.7885">
        <ele>126</ele>
        <time>2019-08-15T07:30:52.711Z</time>
      </trkpt>
      <trkpt lat="48.98932" lon="0.78846">
        <ele>126</ele>
        <time>2019-08-15T07:30:53.713Z</time>
      </trkpt>
      <trkpt lat="48.9893" lon="0.78842">
        <ele>126</ele>
        <time>2019-08-15T07:30:54.713Z</time>
      </trkpt>
      <trkpt lat="48.9893" lon="0.78842">
        <ele>126</ele>
        <time>2019-08-15T07:30:55.714Z</time>
      </trkpt>
      <trkpt lat="48.98926" lon="0.78834">
        <ele>126</ele>
        <time>2019-08-15T07:30:56.713Z</time>
      </trkpt>
      <trkpt lat="48.98926" lon="0.78834">
        <ele>126</ele>
        <time>2019-08-15T07:30:57.705Z</time>
      </trkpt>
      <trkpt lat="48.98922" lon="0.78826">
        <ele>126</ele>
        <time>2019-08-15T07:30:58.713Z</time>
      </trkpt>
      <trkpt lat="48.98922" lon="0.78826">
        <ele>126</ele>
        <time>2019-08-15T07:30:59.705Z</time>
      </trkpt>
      <trkpt lat="48.98916" lon="0.78818">
        <ele>126</ele>
        <time>2019-08-15T07:31:00.708Z</time>
      </trkpt>
      <trkpt lat="48.98916" lon="0.78818">
        <ele>126</ele>
        <time>2019-08-15T07:31:01.705Z</time>
      </trkpt>
      <trkpt lat="48.9891" lon="0.7881">
        <ele>126</ele>
        <time>2019-08-15T07:31:02.714Z</time>
      </trkpt>
      <trkpt lat="48.9891" lon="0.7881">
        <ele>126</ele>
        <time>2019-08-15T07:31:03.709Z</time>
      </trkpt>
      <trkpt lat="48.98905" lon="0.78803">
        <ele>126</ele>
        <time>2019-08-15T07:31:04.713Z</time>
      </trkpt>
      <trkpt lat="48.98905" lon="0.78803">
        <ele>126</ele>
        <time>2019-08-15T07:31:05.704Z</time>
      </trkpt>
      <trkpt lat="48.98901" lon="0.78796">
        <ele>126</ele>
        <time>2019-08-15T07:31:06.708Z</time>
      </trkpt>
      <trkpt lat="48.98901" lon="0.78796">
        <ele>126</ele>
        <time>2019-08-15T07:31:07.705Z</time>
      </trkpt>
      <trkpt lat="48.98896" lon="0.78789">
        <ele>126</ele>
        <time>2019-08-15T07:31:08.716Z</time>
      </trkpt>
      <trkpt lat="48.98896" lon="0.78789">
        <ele>126</ele>
        <time>2019-08-15T07:31:09.704Z</time>
      </trkpt>
      <trkpt lat="48.98892" lon="0.78782">
        <ele>127</ele>
        <time>2019-08-15T07:31:10.713Z</time>
      </trkpt>
      <trkpt lat="48.98892" lon="0.78782">
        <ele>127</ele>
        <time>2019-08-15T07:31:11.706Z</time>
      </trkpt>
      <trkpt lat="48.98887" lon="0.78775">
        <ele>127</ele>
        <time>2019-08-15T07:31:12.717Z</time>
      </trkpt>
      <trkpt lat="48.98887" lon="0.78775">
        <ele>127</ele>
        <time>2019-08-15T07:31:13.706Z</time>
      </trkpt>
      <trkpt lat="48.98882" lon="0.78768">
        <ele>127</ele>
        <time>2019-08-15T07:31:14.681Z</time>
      </trkpt>
      <trkpt lat="48.98882" lon="0.78768">
        <ele>127</ele>
        <time>2019-08-15T07:31:15.706Z</time>
      </trkpt>
      <trkpt lat="48.98878" lon="0.78762">
        <ele>127</ele>
        <time>2019-08-15T07:31:16.713Z</time>
      </trkpt>
      <trkpt lat="48.98878" lon="0.78762">
        <ele>127</ele>
        <time>2019-08-15T07:31:17.706Z</time>
      </trkpt>
      <trkpt lat="48.98875" lon="0.78755">
        <ele>128</ele>
        <time>2019-08-15T07:31:18.713Z</time>
      </trkpt>
      <trkpt lat="48.98873" lon="0.78752">
        <ele>128</ele>
        <time>2019-08-15T07:31:19.707Z</time>
      </trkpt>
      <trkpt lat="48.98873" lon="0.78752">
        <ele>128</ele>
        <time>2019-08-15T07:31:20.706Z</time>
      </trkpt>
      <trkpt lat="48.98869" lon="0.78746">
        <ele>128</ele>
        <time>2019-08-15T07:31:21.708Z</time>
      </trkpt>
      <trkpt lat="48.98867" lon="0.78743">
        <ele>128</ele>
        <time>2019-08-15T07:31:22.682Z</time>
      </trkpt>
      <trkpt lat="48.98867" lon="0.78743">
        <ele>128</ele>
        <time>2019-08-15T07:31:23.704Z</time>
      </trkpt>
      <trkpt lat="48.98864" lon="0.78736">
        <ele>128</ele>
        <time>2019-08-15T07:31:24.707Z</time>
      </trkpt>
      <trkpt lat="48.98864" lon="0.78736">
        <ele>128</ele>
        <time>2019-08-15T07:31:25.705Z</time>
      </trkpt>
      <trkpt lat="48.9886" lon="0.78731">
        <ele>128</ele>
        <time>2019-08-15T07:31:26.713Z</time>
      </trkpt>
      <trkpt lat="48.9886" lon="0.78731">
        <ele>128</ele>
        <time>2019-08-15T07:31:27.702Z</time>
      </trkpt>
      <trkpt lat="48.98855" lon="0.78726">
        <ele>128</ele>
        <time>2019-08-15T07:31:28.715Z</time>
      </trkpt>
      <trkpt lat="48.98855" lon="0.78726">
        <ele>128</ele>
        <time>2019-08-15T07:31:29.703Z</time>
      </trkpt>
      <trkpt lat="48.98851" lon="0.78722">
        <ele>129</ele>
        <time>2019-08-15T07:31:30.713Z</time>
      </trkpt>
      <trkpt lat="48.98851" lon="0.78722">
        <ele>129</ele>
        <time>2019-08-15T07:31:31.714Z</time>
      </trkpt>
      <trkpt lat="48.98846" lon="0.78719">
        <ele>129</ele>
        <time>2019-08-15T07:31:32.719Z</time>
      </trkpt>
      <trkpt lat="48.98846" lon="0.78719">
        <ele>129</ele>
        <time>2019-08-15T07:31:33.727Z</time>
      </trkpt>
      <trkpt lat="48.9884" lon="0.78716">
        <ele>129</ele>
        <time>2019-08-15T07:31:34.708Z</time>
      </trkpt>
      <trkpt lat="48.98838" lon="0.78715">
        <ele>129</ele>
        <time>2019-08-15T07:31:35.706Z</time>
      </trkpt>
      <trkpt lat="48.98838" lon="0.78715">
        <ele>129</ele>
        <time>2019-08-15T07:31:36.680Z</time>
      </trkpt>
      <trkpt lat="48.98834" lon="0.78713">
        <ele>129</ele>
        <time>2019-08-15T07:31:37.678Z</time>
      </trkpt>
      <trkpt lat="48.98832" lon="0.78713">
        <ele>130</ele>
        <time>2019-08-15T07:31:38.713Z</time>
      </trkpt>
      <trkpt lat="48.98829" lon="0.78712">
        <ele>130</ele>
        <time>2019-08-15T07:31:39.713Z</time>
      </trkpt>
      <trkpt lat="48.98829" lon="0.78712">
        <ele>130</ele>
        <time>2019-08-15T07:31:40.705Z</time>
      </trkpt>
      <trkpt lat="48.98824" lon="0.78709">
        <ele>130</ele>
        <time>2019-08-15T07:31:41.708Z</time>
      </trkpt>
      <trkpt lat="48.98824" lon="0.78709">
        <ele>130</ele>
        <time>2019-08-15T07:31:42.707Z</time>
      </trkpt>
      <trkpt lat="48.98819" lon="0.78707">
        <ele>130</ele>
        <time>2019-08-15T07:31:43.714Z</time>
      </trkpt>
      <trkpt lat="48.98819" lon="0.78707">
        <ele>130</ele>
        <time>2019-08-15T07:31:44.713Z</time>
      </trkpt>
      <trkpt lat="48.98814" lon="0.78703">
        <ele>131</ele>
        <time>2019-08-15T07:31:45.708Z</time>
      </trkpt>
      <trkpt lat="48.98812" lon="0.78703">
        <ele>131</ele>
        <time>2019-08-15T07:31:46.713Z</time>
      </trkpt>
      <trkpt lat="48.98812" lon="0.78703">
        <ele>131</ele>
        <time>2019-08-15T07:31:47.702Z</time>
      </trkpt>
      <trkpt lat="48.98807" lon="0.787">
        <ele>131</ele>
        <time>2019-08-15T07:31:48.690Z</time>
      </trkpt>
      <trkpt lat="48.98807" lon="0.787">
        <ele>131</ele>
        <time>2019-08-15T07:31:49.714Z</time>
      </trkpt>
      <trkpt lat="48.98802" lon="0.78697">
        <ele>132</ele>
        <time>2019-08-15T07:31:50.713Z</time>
      </trkpt>
      <trkpt lat="48.98802" lon="0.78697">
        <ele>132</ele>
        <time>2019-08-15T07:31:51.705Z</time>
      </trkpt>
      <trkpt lat="48.98797" lon="0.78694">
        <ele>132</ele>
        <time>2019-08-15T07:31:52.713Z</time>
      </trkpt>
      <trkpt lat="48.98794" lon="0.78693">
        <ele>133</ele>
        <time>2019-08-15T07:31:53.687Z</time>
      </trkpt>
      <trkpt lat="48.98794" lon="0.78693">
        <ele>133</ele>
        <time>2019-08-15T07:31:54.705Z</time>
      </trkpt>
      <trkpt lat="48.98789" lon="0.78692">
        <ele>133</ele>
        <time>2019-08-15T07:31:55.708Z</time>
      </trkpt>
      <trkpt lat="48.98786" lon="0.78692">
        <ele>134</ele>
        <time>2019-08-15T07:31:56.708Z</time>
      </trkpt>
      <trkpt lat="48.98786" lon="0.78692">
        <ele>134</ele>
        <time>2019-08-15T07:31:57.703Z</time>
      </trkpt>
      <trkpt lat="48.9878" lon="0.78691">
        <ele>134</ele>
        <time>2019-08-15T07:31:58.685Z</time>
      </trkpt>
      <trkpt lat="48.9878" lon="0.78691">
        <ele>134</ele>
        <time>2019-08-15T07:31:59.713Z</time>
      </trkpt>
      <trkpt lat="48.98775" lon="0.7869">
        <ele>134</ele>
        <time>2019-08-15T07:32:00.713Z</time>
      </trkpt>
      <trkpt lat="48.98775" lon="0.7869">
        <ele>134</ele>
        <time>2019-08-15T07:32:01.703Z</time>
      </trkpt>
      <trkpt lat="48.9877" lon="0.78689">
        <ele>135</ele>
        <time>2019-08-15T07:32:02.713Z</time>
      </trkpt>
      <trkpt lat="48.9877" lon="0.78689">
        <ele>135</ele>
        <time>2019-08-15T07:32:03.713Z</time>
      </trkpt>
      <trkpt lat="48.98764" lon="0.78685">
        <ele>135</ele>
        <time>2019-08-15T07:32:04.713Z</time>
      </trkpt>
      <trkpt lat="48.98764" lon="0.78685">
        <ele>135</ele>
        <time>2019-08-15T07:32:05.713Z</time>
      </trkpt>
      <trkpt lat="48.98761" lon="0.78681">
        <ele>136</ele>
        <time>2019-08-15T07:32:06.708Z</time>
      </trkpt>
      <trkpt lat="48.98759" lon="0.78678">
        <ele>136</ele>
        <time>2019-08-15T07:32:07.714Z</time>
      </trkpt>
      <trkpt lat="48.98756" lon="0.78676">
        <ele>136</ele>
        <time>2019-08-15T07:32:08.713Z</time>
      </trkpt>
      <trkpt lat="48.98756" lon="0.78676">
        <ele>136</ele>
        <time>2019-08-15T07:32:09.706Z</time>
      </trkpt>
      <trkpt lat="48.98751" lon="0.7867">
        <ele>137</ele>
        <time>2019-08-15T07:32:10.705Z</time>
      </trkpt>
      <trkpt lat="48.98751" lon="0.7867">
        <ele>137</ele>
        <time>2019-08-15T07:32:11.703Z</time>
      </trkpt>
      <trkpt lat="48.98746" lon="0.78665">
        <ele>138</ele>
        <time>2019-08-15T07:32:12.708Z</time>
      </trkpt>
      <trkpt lat="48.98746" lon="0.78665">
        <ele>138</ele>
        <time>2019-08-15T07:32:13.689Z</time>
      </trkpt>
      <trkpt lat="48.98741" lon="0.7866">
        <ele>138</ele>
        <time>2019-08-15T07:32:14.713Z</time>
      </trkpt>
      <trkpt lat="48.98738" lon="0.78659">
        <ele>138</ele>
        <time>2019-08-15T07:32:15.707Z</time>
      </trkpt>
      <trkpt lat="48.98738" lon="0.78659">
        <ele>138</ele>
        <time>2019-08-15T07:32:16.707Z</time>
      </trkpt>
      <trkpt lat="48.98732" lon="0.78656">
        <ele>139</ele>
        <time>2019-08-15T07:32:17.708Z</time>
      </trkpt>
      <trkpt lat="48.98732" lon="0.78656">
        <ele>139</ele>
        <time>2019-08-15T07:32:18.705Z</time>
      </trkpt>
      <trkpt lat="48.98726" lon="0.78655">
        <ele>140</ele>
        <time>2019-08-15T07:32:19.708Z</time>
      </trkpt>
      <trkpt lat="48.98724" lon="0.78655">
        <ele>140</ele>
        <time>2019-08-15T07:32:20.713Z</time>
      </trkpt>
      <trkpt lat="48.98724" lon="0.78655">
        <ele>140</ele>
        <time>2019-08-15T07:32:21.706Z</time>
      </trkpt>
      <trkpt lat="48.98717" lon="0.78654">
        <ele>140</ele>
        <time>2019-08-15T07:32:22.712Z</time>
      </trkpt>
      <trkpt lat="48.98717" lon="0.78654">
        <ele>140</ele>
        <time>2019-08-15T07:32:23.708Z</time>
      </trkpt>
      <trkpt lat="48.98712" lon="0.78654">
        <ele>141</ele>
        <time>2019-08-15T07:32:24.708Z</time>
      </trkpt>
      <trkpt lat="48.98712" lon="0.78654">
        <ele>141</ele>
        <time>2019-08-15T07:32:25.705Z</time>
      </trkpt>
      <trkpt lat="48.98706" lon="0.78652">
        <ele>142</ele>
        <time>2019-08-15T07:32:26.682Z</time>
      </trkpt>
      <trkpt lat="48.98706" lon="0.78652">
        <ele>142</ele>
        <time>2019-08-15T07:32:27.708Z</time>
      </trkpt>
      <trkpt lat="48.98701" lon="0.78649">
        <ele>142</ele>
        <time>2019-08-15T07:32:28.713Z</time>
      </trkpt>
      <trkpt lat="48.98701" lon="0.78649">
        <ele>142</ele>
        <time>2019-08-15T07:32:29.706Z</time>
      </trkpt>
      <trkpt lat="48.98696" lon="0.78645">
        <ele>143</ele>
        <time>2019-08-15T07:32:30.713Z</time>
      </trkpt>
      <trkpt lat="48.98696" lon="0.78645">
        <ele>143</ele>
        <time>2019-08-15T07:32:31.705Z</time>
      </trkpt>
      <trkpt lat="48.98691" lon="0.78642">
        <ele>144</ele>
        <time>2019-08-15T07:32:32.713Z</time>
      </trkpt>
      <trkpt lat="48.98691" lon="0.78642">
        <ele>144</ele>
        <time>2019-08-15T07:32:33.712Z</time>
      </trkpt>
      <trkpt lat="48.98687" lon="0.78638">
        <ele>144</ele>
        <time>2019-08-15T07:32:34.681Z</time>
      </trkpt>
      <trkpt lat="48.98687" lon="0.78638">
        <ele>144</ele>
        <time>2019-08-15T07:32:35.705Z</time>
      </trkpt>
      <trkpt lat="48.98683" lon="0.78634">
        <ele>145</ele>
        <time>2019-08-15T07:32:36.708Z</time>
      </trkpt>
      <trkpt lat="48.98681" lon="0.78632">
        <ele>146</ele>
        <time>2019-08-15T07:32:37.684Z</time>
      </trkpt>
      <trkpt lat="48.98679" lon="0.78629">
        <ele>146</ele>
        <time>2019-08-15T07:32:38.712Z</time>
      </trkpt>
      <trkpt lat="48.98679" lon="0.78629">
        <ele>146</ele>
        <time>2019-08-15T07:32:39.704Z</time>
      </trkpt>
      <trkpt lat="48.98675" lon="0.78625">
        <ele>147</ele>
        <time>2019-08-15T07:32:40.708Z</time>
      </trkpt>
      <trkpt lat="48.98675" lon="0.78625">
        <ele>147</ele>
        <time>2019-08-15T07:32:41.705Z</time>
      </trkpt>
      <trkpt lat="48.9867" lon="0.7862">
        <ele>147</ele>
        <time>2019-08-15T07:32:42.708Z</time>
      </trkpt>
      <trkpt lat="48.9867" lon="0.7862">
        <ele>147</ele>
        <time>2019-08-15T07:32:43.690Z</time>
      </trkpt>
      <trkpt lat="48.98665" lon="0.78617">
        <ele>148</ele>
        <time>2019-08-15T07:32:44.713Z</time>
      </trkpt>
      <trkpt lat="48.98665" lon="0.78617">
        <ele>148</ele>
        <time>2019-08-15T07:32:45.705Z</time>
      </trkpt>
      <trkpt lat="48.9866" lon="0.78614">
        <ele>147</ele>
        <time>2019-08-15T07:32:46.713Z</time>
      </trkpt>
      <trkpt lat="48.9866" lon="0.78614">
        <ele>147</ele>
        <time>2019-08-15T07:32:47.705Z</time>
      </trkpt>
      <trkpt lat="48.98656" lon="0.78613">
        <ele>147</ele>
        <time>2019-08-15T07:32:48.708Z</time>
      </trkpt>
      <trkpt lat="48.98656" lon="0.78613">
        <ele>147</ele>
        <time>2019-08-15T07:32:49.703Z</time>
      </trkpt>
      <trkpt lat="48.9865" lon="0.7861">
        <ele>147</ele>
        <time>2019-08-15T07:32:50.713Z</time>
      </trkpt>
      <trkpt lat="48.9865" lon="0.7861">
        <ele>147</ele>
        <time>2019-08-15T07:32:51.706Z</time>
      </trkpt>
      <trkpt lat="48.98645" lon="0.78608">
        <ele>147</ele>
        <time>2019-08-15T07:32:52.712Z</time>
      </trkpt>
      <trkpt lat="48.98645" lon="0.78608">
        <ele>147</ele>
        <time>2019-08-15T07:32:53.709Z</time>
      </trkpt>
      <trkpt lat="48.98641" lon="0.78605">
        <ele>146</ele>
        <time>2019-08-15T07:32:54.688Z</time>
      </trkpt>
      <trkpt lat="48.98641" lon="0.78605">
        <ele>146</ele>
        <time>2019-08-15T07:32:55.714Z</time>
      </trkpt>
      <trkpt lat="48.98637" lon="0.78602">
        <ele>146</ele>
        <time>2019-08-15T07:32:56.713Z</time>
      </trkpt>
      <trkpt lat="48.98637" lon="0.78602">
        <ele>146</ele>
        <time>2019-08-15T07:32:57.705Z</time>
      </trkpt>
      <trkpt lat="48.98632" lon="0.78597">
        <ele>146</ele>
        <time>2019-08-15T07:32:58.713Z</time>
      </trkpt>
      <trkpt lat="48.98632" lon="0.78597">
        <ele>146</ele>
        <time>2019-08-15T07:32:59.706Z</time>
      </trkpt>
      <trkpt lat="48.98625" lon="0.78592">
        <ele>146</ele>
        <time>2019-08-15T07:33:00.713Z</time>
      </trkpt>
      <trkpt lat="48.98625" lon="0.78592">
        <ele>146</ele>
        <time>2019-08-15T07:33:01.705Z</time>
      </trkpt>
      <trkpt lat="48.98619" lon="0.78586">
        <ele>147</ele>
        <time>2019-08-15T07:33:02.713Z</time>
      </trkpt>
      <trkpt lat="48.98619" lon="0.78586">
        <ele>147</ele>
        <time>2019-08-15T07:33:03.729Z</time>
      </trkpt>
      <trkpt lat="48.98614" lon="0.78579">
        <ele>147</ele>
        <time>2019-08-15T07:33:04.713Z</time>
      </trkpt>
      <trkpt lat="48.98614" lon="0.78579">
        <ele>147</ele>
        <time>2019-08-15T07:33:05.705Z</time>
      </trkpt>
      <trkpt lat="48.98608" lon="0.78573">
        <ele>147</ele>
        <time>2019-08-15T07:33:06.712Z</time>
      </trkpt>
      <trkpt lat="48.98608" lon="0.78573">
        <ele>147</ele>
        <time>2019-08-15T07:33:07.703Z</time>
      </trkpt>
      <trkpt lat="48.98603" lon="0.78566">
        <ele>147</ele>
        <time>2019-08-15T07:33:08.713Z</time>
      </trkpt>
      <trkpt lat="48.98603" lon="0.78566">
        <ele>147</ele>
        <time>2019-08-15T07:33:09.705Z</time>
      </trkpt>
      <trkpt lat="48.98597" lon="0.78561">
        <ele>147</ele>
        <time>2019-08-15T07:33:10.708Z</time>
      </trkpt>
      <trkpt lat="48.98594" lon="0.78557">
        <ele>148</ele>
        <time>2019-08-15T07:33:11.678Z</time>
      </trkpt>
      <trkpt lat="48.98594" lon="0.78557">
        <ele>148</ele>
        <time>2019-08-15T07:33:12.705Z</time>
      </trkpt>
      <trkpt lat="48.98588" lon="0.78551">
        <ele>148</ele>
        <time>2019-08-15T07:33:13.709Z</time>
      </trkpt>
      <trkpt lat="48.98586" lon="0.78547">
        <ele>148</ele>
        <time>2019-08-15T07:33:14.712Z</time>
      </trkpt>
      <trkpt lat="48.98586" lon="0.78547">
        <ele>148</ele>
        <time>2019-08-15T07:33:15.704Z</time>
      </trkpt>
      <trkpt lat="48.98581" lon="0.78541">
        <ele>148</ele>
        <time>2019-08-15T07:33:16.708Z</time>
      </trkpt>
      <trkpt lat="48.98581" lon="0.78541">
        <ele>148</ele>
        <time>2019-08-15T07:33:17.705Z</time>
      </trkpt>
      <trkpt lat="48.98576" lon="0.78535">
        <ele>149</ele>
        <time>2019-08-15T07:33:18.708Z</time>
      </trkpt>
      <trkpt lat="48.98576" lon="0.78535">
        <ele>149</ele>
        <time>2019-08-15T07:33:19.705Z</time>
      </trkpt>
      <trkpt lat="48.98572" lon="0.78528">
        <ele>149</ele>
        <time>2019-08-15T07:33:20.713Z</time>
      </trkpt>
      <trkpt lat="48.98569" lon="0.78524">
        <ele>149</ele>
        <time>2019-08-15T07:33:21.713Z</time>
      </trkpt>
      <trkpt lat="48.98569" lon="0.78524">
        <ele>149</ele>
        <time>2019-08-15T07:33:22.707Z</time>
      </trkpt>
      <trkpt lat="48.98564" lon="0.78517">
        <ele>150</ele>
        <time>2019-08-15T07:33:23.713Z</time>
      </trkpt>
      <trkpt lat="48.98562" lon="0.78514">
        <ele>150</ele>
        <time>2019-08-15T07:33:24.713Z</time>
      </trkpt>
      <trkpt lat="48.98562" lon="0.78514">
        <ele>150</ele>
        <time>2019-08-15T07:33:25.703Z</time>
      </trkpt>
      <trkpt lat="48.98558" lon="0.78506">
        <ele>151</ele>
        <time>2019-08-15T07:33:26.713Z</time>
      </trkpt>
      <trkpt lat="48.98558" lon="0.78506">
        <ele>151</ele>
        <time>2019-08-15T07:33:27.705Z</time>
      </trkpt>
      <trkpt lat="48.98554" lon="0.78499">
        <ele>151</ele>
        <time>2019-08-15T07:33:28.713Z</time>
      </trkpt>
      <trkpt lat="48.98554" lon="0.78499">
        <ele>151</ele>
        <time>2019-08-15T07:33:29.704Z</time>
      </trkpt>
      <trkpt lat="48.9855" lon="0.78492">
        <ele>151</ele>
        <time>2019-08-15T07:33:30.707Z</time>
      </trkpt>
      <trkpt lat="48.9855" lon="0.78492">
        <ele>151</ele>
        <time>2019-08-15T07:33:31.705Z</time>
      </trkpt>
      <trkpt lat="48.98547" lon="0.78485">
        <ele>150</ele>
        <time>2019-08-15T07:33:32.713Z</time>
      </trkpt>
      <trkpt lat="48.98547" lon="0.78485">
        <ele>150</ele>
        <time>2019-08-15T07:33:33.707Z</time>
      </trkpt>
      <trkpt lat="48.98544" lon="0.78478">
        <ele>150</ele>
        <time>2019-08-15T07:33:34.701Z</time>
      </trkpt>
      <trkpt lat="48.98543" lon="0.78474">
        <ele>150</ele>
        <time>2019-08-15T07:33:35.708Z</time>
      </trkpt>
      <trkpt lat="48.98543" lon="0.78474">
        <ele>150</ele>
        <time>2019-08-15T07:33:36.705Z</time>
      </trkpt>
      <trkpt lat="48.98539" lon="0.78467">
        <ele>151</ele>
        <time>2019-08-15T07:33:37.717Z</time>
      </trkpt>
      <trkpt lat="48.98538" lon="0.78463">
        <ele>151</ele>
        <time>2019-08-15T07:33:38.714Z</time>
      </trkpt>
      <trkpt lat="48.98538" lon="0.78463">
        <ele>151</ele>
        <time>2019-08-15T07:33:39.705Z</time>
      </trkpt>
      <trkpt lat="48.98536" lon="0.78454">
        <ele>152</ele>
        <time>2019-08-15T07:33:40.705Z</time>
      </trkpt>
      <trkpt lat="48.98536" lon="0.78454">
        <ele>152</ele>
        <time>2019-08-15T07:33:41.704Z</time>
      </trkpt>
      <trkpt lat="48.98533" lon="0.78446">
        <ele>152</ele>
        <time>2019-08-15T07:33:42.707Z</time>
      </trkpt>
      <trkpt lat="48.98533" lon="0.78446">
        <ele>152</ele>
        <time>2019-08-15T07:33:43.689Z</time>
      </trkpt>
      <trkpt lat="48.98532" lon="0.78437">
        <ele>152</ele>
        <time>2019-08-15T07:33:44.680Z</time>
      </trkpt>
      <trkpt lat="48.98531" lon="0.78433">
        <ele>152</ele>
        <time>2019-08-15T07:33:45.713Z</time>
      </trkpt>
      <trkpt lat="48.98531" lon="0.78433">
        <ele>152</ele>
        <time>2019-08-15T07:33:46.707Z</time>
      </trkpt>
      <trkpt lat="48.9853" lon="0.78425">
        <ele>153</ele>
        <time>2019-08-15T07:33:47.708Z</time>
      </trkpt>
      <trkpt lat="48.98529" lon="0.7842">
        <ele>153</ele>
        <time>2019-08-15T07:33:48.705Z</time>
      </trkpt>
      <trkpt lat="48.98529" lon="0.7842">
        <ele>153</ele>
        <time>2019-08-15T07:33:49.703Z</time>
      </trkpt>
      <trkpt lat="48.98527" lon="0.78411">
        <ele>153</ele>
        <time>2019-08-15T07:33:50.713Z</time>
      </trkpt>
      <trkpt lat="48.98527" lon="0.78411">
        <ele>153</ele>
        <time>2019-08-15T07:33:51.705Z</time>
      </trkpt>
      <trkpt lat="48.98526" lon="0.78403">
        <ele>153</ele>
        <time>2019-08-15T07:33:52.712Z</time>
      </trkpt>
      <trkpt lat="48.98526" lon="0.78403">
        <ele>153</ele>
        <time>2019-08-15T07:33:53.703Z</time>
      </trkpt>
      <trkpt lat="48.98525" lon="0.78394">
        <ele>154</ele>
        <time>2019-08-15T07:33:54.686Z</time>
      </trkpt>
      <trkpt lat="48.98525" lon="0.78394">
        <ele>154</ele>
        <time>2019-08-15T07:33:55.713Z</time>
      </trkpt>
      <trkpt lat="48.98524" lon="0.78385">
        <ele>154</ele>
        <time>2019-08-15T07:33:56.713Z</time>
      </trkpt>
      <trkpt lat="48.98524" lon="0.78385">
        <ele>154</ele>
        <time>2019-08-15T07:33:57.703Z</time>
      </trkpt>
      <trkpt lat="48.98523" lon="0.78377">
        <ele>154</ele>
        <time>2019-08-15T07:33:58.712Z</time>
      </trkpt>
      <trkpt lat="48.98523" lon="0.78377">
        <ele>154</ele>
        <time>2019-08-15T07:33:59.705Z</time>
      </trkpt>
      <trkpt lat="48.98521" lon="0.78368">
        <ele>155</ele>
        <time>2019-08-15T07:34:00.708Z</time>
      </trkpt>
      <trkpt lat="48.98521" lon="0.78368">
        <ele>155</ele>
        <time>2019-08-15T07:34:01.703Z</time>
      </trkpt>
      <trkpt lat="48.98521" lon="0.7836">
        <ele>155</ele>
        <time>2019-08-15T07:34:02.713Z</time>
      </trkpt>
      <trkpt lat="48.98521" lon="0.7836">
        <ele>155</ele>
        <time>2019-08-15T07:34:03.707Z</time>
      </trkpt>
      <trkpt lat="48.9852" lon="0.78353">
        <ele>155</ele>
        <time>2019-08-15T07:34:04.712Z</time>
      </trkpt>
      <trkpt lat="48.9852" lon="0.78353">
        <ele>155</ele>
        <time>2019-08-15T07:34:05.706Z</time>
      </trkpt>
      <trkpt lat="48.98519" lon="0.78348">
        <ele>155</ele>
        <time>2019-08-15T07:34:06.708Z</time>
      </trkpt>
      <trkpt lat="48.98519" lon="0.78348">
        <ele>155</ele>
        <time>2019-08-15T07:34:07.705Z</time>
      </trkpt>
      <trkpt lat="48.98519" lon="0.78347">
        <ele>155</ele>
        <time>2019-08-15T07:34:08.709Z</time>
      </trkpt>
      <trkpt lat="48.98515" lon="0.78341">
        <ele>154</ele>
        <time>2019-08-15T07:34:09.684Z</time>
      </trkpt>
      <trkpt lat="48.98515" lon="0.78341">
        <ele>154</ele>
        <time>2019-08-15T07:34:10.709Z</time>
      </trkpt>
      <trkpt lat="48.98511" lon="0.78339">
        <ele>154</ele>
        <time>2019-08-15T07:34:11.715Z</time>
      </trkpt>
      <trkpt lat="48.98511" lon="0.78339">
        <ele>154</ele>
        <time>2019-08-15T07:34:12.714Z</time>
      </trkpt>
      <trkpt lat="48.98504" lon="0.78338">
        <ele>153</ele>
        <time>2019-08-15T07:34:13.714Z</time>
      </trkpt>
      <trkpt lat="48.98504" lon="0.78338">
        <ele>153</ele>
        <time>2019-08-15T07:34:14.711Z</time>
      </trkpt>
      <trkpt lat="48.98497" lon="0.78337">
        <ele>153</ele>
        <time>2019-08-15T07:34:15.716Z</time>
      </trkpt>
      <trkpt lat="48.98497" lon="0.78337">
        <ele>153</ele>
        <time>2019-08-15T07:34:16.712Z</time>
      </trkpt>
      <trkpt lat="48.9849" lon="0.78336">
        <ele>153</ele>
        <time>2019-08-15T07:34:17.716Z</time>
      </trkpt>
      <trkpt lat="48.9849" lon="0.78336">
        <ele>153</ele>
        <time>2019-08-15T07:34:18.687Z</time>
      </trkpt>
      <trkpt lat="48.98482" lon="0.78335">
        <ele>152</ele>
        <time>2019-08-15T07:34:19.715Z</time>
      </trkpt>
      <trkpt lat="48.98482" lon="0.78335">
        <ele>152</ele>
        <time>2019-08-15T07:34:20.710Z</time>
      </trkpt>
      <trkpt lat="48.98473" lon="0.78334">
        <ele>152</ele>
        <time>2019-08-15T07:34:21.717Z</time>
      </trkpt>
      <trkpt lat="48.98473" lon="0.78334">
        <ele>152</ele>
        <time>2019-08-15T07:34:22.712Z</time>
      </trkpt>
      <trkpt lat="48.98465" lon="0.78333">
        <ele>152</ele>
        <time>2019-08-15T07:34:23.716Z</time>
      </trkpt>
      <trkpt lat="48.98465" lon="0.78333">
        <ele>152</ele>
        <time>2019-08-15T07:34:24.709Z</time>
      </trkpt>
      <trkpt lat="48.98457" lon="0.78333">
        <ele>152</ele>
        <time>2019-08-15T07:34:25.715Z</time>
      </trkpt>
      <trkpt lat="48.98457" lon="0.78333">
        <ele>152</ele>
        <time>2019-08-15T07:34:26.713Z</time>
      </trkpt>
      <trkpt lat="48.9845" lon="0.78332">
        <ele>152</ele>
        <time>2019-08-15T07:34:27.715Z</time>
      </trkpt>
      <trkpt lat="48.9845" lon="0.78332">
        <ele>152</ele>
        <time>2019-08-15T07:34:28.710Z</time>
      </trkpt>
      <trkpt lat="48.98444" lon="0.78328">
        <ele>151</ele>
        <time>2019-08-15T07:34:29.715Z</time>
      </trkpt>
      <trkpt lat="48.98444" lon="0.78328">
        <ele>151</ele>
        <time>2019-08-15T07:34:30.710Z</time>
      </trkpt>
      <trkpt lat="48.9844" lon="0.78318">
        <ele>151</ele>
        <time>2019-08-15T07:34:31.714Z</time>
      </trkpt>
      <trkpt lat="48.9844" lon="0.78313">
        <ele>151</ele>
        <time>2019-08-15T07:34:32.712Z</time>
      </trkpt>
      <trkpt lat="48.9844" lon="0.78313">
        <ele>151</ele>
        <time>2019-08-15T07:34:33.691Z</time>
      </trkpt>
      <trkpt lat="48.98443" lon="0.78302">
        <ele>151</ele>
        <time>2019-08-15T07:34:34.717Z</time>
      </trkpt>
      <trkpt lat="48.98445" lon="0.78297">
        <ele>151</ele>
        <time>2019-08-15T07:34:35.716Z</time>
      </trkpt>
      <trkpt lat="48.98445" lon="0.78297">
        <ele>151</ele>
        <time>2019-08-15T07:34:36.712Z</time>
      </trkpt>
      <trkpt lat="48.98449" lon="0.78286">
        <ele>150</ele>
        <time>2019-08-15T07:34:37.714Z</time>
      </trkpt>
      <trkpt lat="48.98451" lon="0.7828">
        <ele>150</ele>
        <time>2019-08-15T07:34:38.713Z</time>
      </trkpt>
      <trkpt lat="48.98451" lon="0.7828">
        <ele>150</ele>
        <time>2019-08-15T07:34:39.692Z</time>
      </trkpt>
      <trkpt lat="48.98454" lon="0.7827">
        <ele>150</ele>
        <time>2019-08-15T07:34:40.717Z</time>
      </trkpt>
      <trkpt lat="48.98455" lon="0.78265">
        <ele>151</ele>
        <time>2019-08-15T07:34:41.716Z</time>
      </trkpt>
      <trkpt lat="48.98455" lon="0.78265">
        <ele>151</ele>
        <time>2019-08-15T07:34:42.710Z</time>
      </trkpt>
      <trkpt lat="48.98453" lon="0.78255">
        <ele>151</ele>
        <time>2019-08-15T07:34:43.713Z</time>
      </trkpt>
      <trkpt lat="48.98453" lon="0.78255">
        <ele>151</ele>
        <time>2019-08-15T07:34:44.712Z</time>
      </trkpt>
      <trkpt lat="48.98448" lon="0.78248">
        <ele>151</ele>
        <time>2019-08-15T07:34:45.717Z</time>
      </trkpt>
      <trkpt lat="48.98448" lon="0.78248">
        <ele>151</ele>
        <time>2019-08-15T07:34:46.713Z</time>
      </trkpt>
      <trkpt lat="48.98441" lon="0.78245">
        <ele>151</ele>
        <time>2019-08-15T07:34:47.716Z</time>
      </trkpt>
      <trkpt lat="48.98441" lon="0.78245">
        <ele>151</ele>
        <time>2019-08-15T07:34:48.713Z</time>
      </trkpt>
      <trkpt lat="48.98433" lon="0.78242">
        <ele>151</ele>
        <time>2019-08-15T07:34:49.711Z</time>
      </trkpt>
      <trkpt lat="48.98429" lon="0.7824">
        <ele>151</ele>
        <time>2019-08-15T07:34:50.717Z</time>
      </trkpt>
      <trkpt lat="48.98429" lon="0.7824">
        <ele>151</ele>
        <time>2019-08-15T07:34:51.713Z</time>
      </trkpt>
      <trkpt lat="48.98421" lon="0.78239">
        <ele>151</ele>
        <time>2019-08-15T07:34:52.710Z</time>
      </trkpt>
      <trkpt lat="48.98417" lon="0.7824">
        <ele>150</ele>
        <time>2019-08-15T07:34:53.688Z</time>
      </trkpt>
      <trkpt lat="48.98417" lon="0.7824">
        <ele>150</ele>
        <time>2019-08-15T07:34:54.709Z</time>
      </trkpt>
      <trkpt lat="48.98409" lon="0.78241">
        <ele>150</ele>
        <time>2019-08-15T07:34:55.715Z</time>
      </trkpt>
      <trkpt lat="48.98409" lon="0.78241">
        <ele>150</ele>
        <time>2019-08-15T07:34:56.711Z</time>
      </trkpt>
      <trkpt lat="48.98402" lon="0.78242">
        <ele>150</ele>
        <time>2019-08-15T07:34:57.715Z</time>
      </trkpt>
      <trkpt lat="48.98402" lon="0.78242">
        <ele>150</ele>
        <time>2019-08-15T07:34:58.709Z</time>
      </trkpt>
      <trkpt lat="48.98394" lon="0.78244">
        <ele>150</ele>
        <time>2019-08-15T07:34:59.714Z</time>
      </trkpt>
      <trkpt lat="48.98394" lon="0.78244">
        <ele>150</ele>
        <time>2019-08-15T07:35:00.711Z</time>
      </trkpt>
      <trkpt lat="48.98386" lon="0.78245">
        <ele>150</ele>
        <time>2019-08-15T07:35:01.714Z</time>
      </trkpt>
      <trkpt lat="48.98382" lon="0.78246">
        <ele>150</ele>
        <time>2019-08-15T07:35:02.683Z</time>
      </trkpt>
      <trkpt lat="48.98382" lon="0.78246">
        <ele>150</ele>
        <time>2019-08-15T07:35:03.710Z</time>
      </trkpt>
      <trkpt lat="48.98373" lon="0.78247">
        <ele>149</ele>
        <time>2019-08-15T07:35:04.715Z</time>
      </trkpt>
      <trkpt lat="48.98369" lon="0.78248">
        <ele>149</ele>
        <time>2019-08-15T07:35:05.690Z</time>
      </trkpt>
      <trkpt lat="48.98369" lon="0.78248">
        <ele>149</ele>
        <time>2019-08-15T07:35:06.712Z</time>
      </trkpt>
      <trkpt lat="48.9836" lon="0.78248">
        <ele>149</ele>
        <time>2019-08-15T07:35:07.712Z</time>
      </trkpt>
      <trkpt lat="48.9836" lon="0.78248">
        <ele>149</ele>
        <time>2019-08-15T07:35:08.691Z</time>
      </trkpt>
      <trkpt lat="48.98352" lon="0.78248">
        <ele>149</ele>
        <time>2019-08-15T07:35:09.717Z</time>
      </trkpt>
      <trkpt lat="48.98352" lon="0.78248">
        <ele>149</ele>
        <time>2019-08-15T07:35:10.712Z</time>
      </trkpt>
      <trkpt lat="48.98347" lon="0.78249">
        <ele>149</ele>
        <time>2019-08-15T07:35:11.714Z</time>
      </trkpt>
      <trkpt lat="48.98347" lon="0.78249">
        <ele>149</ele>
        <time>2019-08-15T07:35:12.711Z</time>
      </trkpt>
      <trkpt lat="48.9834" lon="0.78248">
        <ele>149</ele>
        <time>2019-08-15T07:35:13.715Z</time>
      </trkpt>
      <trkpt lat="48.9834" lon="0.78248">
        <ele>149</ele>
        <time>2019-08-15T07:35:14.711Z</time>
      </trkpt>
      <trkpt lat="48.98333" lon="0.78244">
        <ele>149</ele>
        <time>2019-08-15T07:35:15.716Z</time>
      </trkpt>
      <trkpt lat="48.98333" lon="0.78244">
        <ele>149</ele>
        <time>2019-08-15T07:35:16.713Z</time>
      </trkpt>
      <trkpt lat="48.98325" lon="0.78239">
        <ele>149</ele>
        <time>2019-08-15T07:35:17.716Z</time>
      </trkpt>
      <trkpt lat="48.98325" lon="0.78239">
        <ele>149</ele>
        <time>2019-08-15T07:35:18.713Z</time>
      </trkpt>
      <trkpt lat="48.98316" lon="0.78234">
        <ele>149</ele>
        <time>2019-08-15T07:35:19.714Z</time>
      </trkpt>
      <trkpt lat="48.98316" lon="0.78234">
        <ele>149</ele>
        <time>2019-08-15T07:35:20.711Z</time>
      </trkpt>
      <trkpt lat="48.98306" lon="0.78228">
        <ele>149</ele>
        <time>2019-08-15T07:35:21.715Z</time>
      </trkpt>
      <trkpt lat="48.98306" lon="0.78228">
        <ele>149</ele>
        <time>2019-08-15T07:35:22.710Z</time>
      </trkpt>
      <trkpt lat="48.98294" lon="0.78222">
        <ele>149</ele>
        <time>2019-08-15T07:35:23.715Z</time>
      </trkpt>
      <trkpt lat="48.98294" lon="0.78222">
        <ele>149</ele>
        <time>2019-08-15T07:35:24.712Z</time>
      </trkpt>
      <trkpt lat="48.9828" lon="0.7822">
        <ele>149</ele>
        <time>2019-08-15T07:35:25.713Z</time>
      </trkpt>
      <trkpt lat="48.9828" lon="0.7822">
        <ele>149</ele>
        <time>2019-08-15T07:35:26.702Z</time>
      </trkpt>
      <trkpt lat="48.98267" lon="0.78219">
        <ele>149</ele>
        <time>2019-08-15T07:35:27.686Z</time>
      </trkpt>
      <trkpt lat="48.98267" lon="0.78219">
        <ele>149</ele>
        <time>2019-08-15T07:35:28.711Z</time>
      </trkpt>
      <trkpt lat="48.98254" lon="0.78219">
        <ele>149</ele>
        <time>2019-08-15T07:35:29.716Z</time>
      </trkpt>
      <trkpt lat="48.98254" lon="0.78219">
        <ele>149</ele>
        <time>2019-08-15T07:35:30.712Z</time>
      </trkpt>
      <trkpt lat="48.98243" lon="0.78215">
        <ele>149</ele>
        <time>2019-08-15T07:35:31.714Z</time>
      </trkpt>
      <trkpt lat="48.98238" lon="0.78212">
        <ele>149</ele>
        <time>2019-08-15T07:35:32.715Z</time>
      </trkpt>
      <trkpt lat="48.98238" lon="0.78212">
        <ele>149</ele>
        <time>2019-08-15T07:35:33.712Z</time>
      </trkpt>
      <trkpt lat="48.98227" lon="0.78205">
        <ele>149</ele>
        <time>2019-08-15T07:35:34.714Z</time>
      </trkpt>
      <trkpt lat="48.98221" lon="0.78201">
        <ele>148</ele>
        <time>2019-08-15T07:35:35.716Z</time>
      </trkpt>
      <trkpt lat="48.98215" lon="0.78198">
        <ele>148</ele>
        <time>2019-08-15T07:35:36.716Z</time>
      </trkpt>
      <trkpt lat="48.98215" lon="0.78198">
        <ele>148</ele>
        <time>2019-08-15T07:35:37.712Z</time>
      </trkpt>
      <trkpt lat="48.98204" lon="0.78194">
        <ele>147</ele>
        <time>2019-08-15T07:35:38.714Z</time>
      </trkpt>
      <trkpt lat="48.98198" lon="0.78193">
        <ele>147</ele>
        <time>2019-08-15T07:35:39.715Z</time>
      </trkpt>
      <trkpt lat="48.98198" lon="0.78193">
        <ele>147</ele>
        <time>2019-08-15T07:35:40.710Z</time>
      </trkpt>
      <trkpt lat="48.98191" lon="0.7819">
        <ele>146</ele>
        <time>2019-08-15T07:35:41.716Z</time>
      </trkpt>
      <trkpt lat="48.98191" lon="0.7819">
        <ele>146</ele>
        <time>2019-08-15T07:35:42.712Z</time>
      </trkpt>
      <trkpt lat="48.98184" lon="0.78187">
        <ele>146</ele>
        <time>2019-08-15T07:35:43.715Z</time>
      </trkpt>
      <trkpt lat="48.98184" lon="0.78187">
        <ele>146</ele>
        <time>2019-08-15T07:35:44.710Z</time>
      </trkpt>
      <trkpt lat="48.98179" lon="0.78184">
        <ele>145</ele>
        <time>2019-08-15T07:35:45.714Z</time>
      </trkpt>
      <trkpt lat="48.98179" lon="0.78184">
        <ele>145</ele>
        <time>2019-08-15T07:35:46.684Z</time>
      </trkpt>
      <trkpt lat="48.98176" lon="0.78183">
        <ele>145</ele>
        <time>2019-08-15T07:35:47.715Z</time>
      </trkpt>
      <trkpt lat="48.98176" lon="0.78183">
        <ele>145</ele>
        <time>2019-08-15T07:35:48.712Z</time>
      </trkpt>
      <trkpt lat="48.98175" lon="0.78182">
        <ele>145</ele>
        <time>2019-08-15T07:35:49.715Z</time>
      </trkpt>
      <trkpt lat="48.98175" lon="0.78182">
        <ele>145</ele>
        <time>2019-08-15T07:35:50.685Z</time>
      </trkpt>
      <trkpt lat="48.98174" lon="0.78183">
        <ele>145</ele>
        <time>2019-08-15T07:35:51.692Z</time>
      </trkpt>
      <trkpt lat="48.98174" lon="0.78183">
        <ele>145</ele>
        <time>2019-08-15T07:35:52.717Z</time>
      </trkpt>
      <trkpt lat="48.98174" lon="0.78183">
        <ele>145</ele>
        <time>2019-08-15T07:35:53.715Z</time>
      </trkpt>
      <trkpt lat="48.98166" lon="0.78182">
        <ele>145</ele>
        <time>2019-08-15T07:35:54.716Z</time>
      </trkpt>
      <trkpt lat="48.98166" lon="0.78182">
        <ele>145</ele>
        <time>2019-08-15T07:35:55.711Z</time>
      </trkpt>
      <trkpt lat="48.98154" lon="0.78178">
        <ele>145</ele>
        <time>2019-08-15T07:35:56.695Z</time>
      </trkpt>
      <trkpt lat="48.98154" lon="0.78178">
        <ele>145</ele>
        <time>2019-08-15T07:35:57.693Z</time>
      </trkpt>
      <trkpt lat="48.98147" lon="0.78177">
        <ele>145</ele>
        <time>2019-08-15T07:35:58.693Z</time>
      </trkpt>
      <trkpt lat="48.98147" lon="0.78177">
        <ele>145</ele>
        <time>2019-08-15T07:35:59.691Z</time>
      </trkpt>
      <trkpt lat="48.98141" lon="0.78176">
        <ele>144</ele>
        <time>2019-08-15T07:36:00.697Z</time>
      </trkpt>
      <trkpt lat="48.98138" lon="0.78175">
        <ele>144</ele>
        <time>2019-08-15T07:36:01.700Z</time>
      </trkpt>
      <trkpt lat="48.98138" lon="0.78175">
        <ele>144</ele>
        <time>2019-08-15T07:36:02.693Z</time>
      </trkpt>
      <trkpt lat="48.98135" lon="0.78174">
        <ele>144</ele>
        <time>2019-08-15T07:36:03.700Z</time>
      </trkpt>
      <trkpt lat="48.98135" lon="0.78174">
        <ele>144</ele>
        <time>2019-08-15T07:36:04.693Z</time>
      </trkpt>
      <trkpt lat="48.98132" lon="0.78174">
        <ele>144</ele>
        <time>2019-08-15T07:36:05.699Z</time>
      </trkpt>
      <trkpt lat="48.98132" lon="0.78174">
        <ele>144</ele>
        <time>2019-08-15T07:36:06.693Z</time>
      </trkpt>
      <trkpt lat="48.98129" lon="0.78173">
        <ele>143</ele>
        <time>2019-08-15T07:36:07.700Z</time>
      </trkpt>
      <trkpt lat="48.98129" lon="0.78173">
        <ele>143</ele>
        <time>2019-08-15T07:36:08.691Z</time>
      </trkpt>
      <trkpt lat="48.98128" lon="0.78173">
        <ele>143</ele>
        <time>2019-08-15T07:36:09.694Z</time>
      </trkpt>
      <trkpt lat="48.98128" lon="0.78173">
        <ele>143</ele>
        <time>2019-08-15T07:36:10.693Z</time>
      </trkpt>
      <trkpt lat="48.98127" lon="0.78172">
        <ele>142</ele>
        <time>2019-08-15T07:36:11.711Z</time>
      </trkpt>
      <trkpt lat="48.98126" lon="0.78171">
        <ele>142</ele>
        <time>2019-08-15T07:36:12.700Z</time>
      </trkpt>
      <trkpt lat="48.98125" lon="0.7817">
        <ele>142</ele>
        <time>2019-08-15T07:36:13.706Z</time>
      </trkpt>
      <trkpt lat="48.98125" lon="0.7817">
        <ele>142</ele>
        <time>2019-08-15T07:36:14.692Z</time>
      </trkpt>
      <trkpt lat="48.98122" lon="0.78168">
        <ele>141</ele>
        <time>2019-08-15T07:36:15.701Z</time>
      </trkpt>
      <trkpt lat="48.98122" lon="0.78168">
        <ele>141</ele>
        <time>2019-08-15T07:36:16.692Z</time>
      </trkpt>
      <trkpt lat="48.98119" lon="0.78166">
        <ele>141</ele>
        <time>2019-08-15T07:36:17.700Z</time>
      </trkpt>
      <trkpt lat="48.98119" lon="0.78166">
        <ele>141</ele>
        <time>2019-08-15T07:36:18.692Z</time>
      </trkpt>
      <trkpt lat="48.98115" lon="0.78164">
        <ele>140</ele>
        <time>2019-08-15T07:36:19.699Z</time>
      </trkpt>
      <trkpt lat="48.98115" lon="0.78164">
        <ele>140</ele>
        <time>2019-08-15T07:36:20.678Z</time>
      </trkpt>
      <trkpt lat="48.98113" lon="0.78162">
        <ele>140</ele>
        <time>2019-08-15T07:36:21.699Z</time>
      </trkpt>
      <trkpt lat="48.98113" lon="0.78162">
        <ele>140</ele>
        <time>2019-08-15T07:36:22.692Z</time>
      </trkpt>
      <trkpt lat="48.98111" lon="0.78161">
        <ele>139</ele>
        <time>2019-08-15T07:36:23.701Z</time>
      </trkpt>
      <trkpt lat="48.98111" lon="0.78161">
        <ele>139</ele>
        <time>2019-08-15T07:36:24.691Z</time>
      </trkpt>
      <trkpt lat="48.98108" lon="0.78159">
        <ele>139</ele>
        <time>2019-08-15T07:36:25.699Z</time>
      </trkpt>
      <trkpt lat="48.98107" lon="0.78158">
        <ele>139</ele>
        <time>2019-08-15T07:36:26.700Z</time>
      </trkpt>
      <trkpt lat="48.98107" lon="0.78158">
        <ele>139</ele>
        <time>2019-08-15T07:36:27.693Z</time>
      </trkpt>
      <trkpt lat="48.98105" lon="0.78155">
        <ele>139</ele>
        <time>2019-08-15T07:36:28.701Z</time>
      </trkpt>
      <trkpt lat="48.98103" lon="0.78154">
        <ele>138</ele>
        <time>2019-08-15T07:36:29.700Z</time>
      </trkpt>
      <trkpt lat="48.98103" lon="0.78154">
        <ele>138</ele>
        <time>2019-08-15T07:36:30.706Z</time>
      </trkpt>
      <trkpt lat="48.98101" lon="0.78152">
        <ele>138</ele>
        <time>2019-08-15T07:36:31.711Z</time>
      </trkpt>
      <trkpt lat="48.98099" lon="0.78151">
        <ele>138</ele>
        <time>2019-08-15T07:36:32.700Z</time>
      </trkpt>
      <trkpt lat="48.98099" lon="0.78151">
        <ele>138</ele>
        <time>2019-08-15T07:36:33.706Z</time>
      </trkpt>
      <trkpt lat="48.98096" lon="0.78151">
        <ele>138</ele>
        <time>2019-08-15T07:36:34.706Z</time>
      </trkpt>
      <trkpt lat="48.98095" lon="0.7815">
        <ele>137</ele>
        <time>2019-08-15T07:36:35.710Z</time>
      </trkpt>
      <trkpt lat="48.98095" lon="0.7815">
        <ele>137</ele>
        <time>2019-08-15T07:36:36.694Z</time>
      </trkpt>
      <trkpt lat="48.98092" lon="0.78151">
        <ele>137</ele>
        <time>2019-08-15T07:36:37.700Z</time>
      </trkpt>
      <trkpt lat="48.98092" lon="0.78151">
        <ele>137</ele>
        <time>2019-08-15T07:36:38.690Z</time>
      </trkpt>
      <trkpt lat="48.98089" lon="0.78151">
        <ele>137</ele>
        <time>2019-08-15T07:36:39.700Z</time>
      </trkpt>
      <trkpt lat="48.98089" lon="0.78151">
        <ele>137</ele>
        <time>2019-08-15T07:36:40.694Z</time>
      </trkpt>
      <trkpt lat="48.98087" lon="0.78152">
        <ele>136</ele>
        <time>2019-08-15T07:36:41.699Z</time>
      </trkpt>
      <trkpt lat="48.98087" lon="0.78152">
        <ele>136</ele>
        <time>2019-08-15T07:36:42.699Z</time>
      </trkpt>
      <trkpt lat="48.98086" lon="0.78151">
        <ele>136</ele>
        <time>2019-08-15T07:36:43.700Z</time>
      </trkpt>
      <trkpt lat="48.98086" lon="0.78151">
        <ele>136</ele>
        <time>2019-08-15T07:36:44.699Z</time>
      </trkpt>
      <trkpt lat="48.98086" lon="0.7815">
        <ele>136</ele>
        <time>2019-08-15T07:36:45.697Z</time>
      </trkpt>
      <trkpt lat="48.98081" lon="0.78152">
        <ele>133</ele>
        <time>2019-08-15T07:36:46.705Z</time>
      </trkpt>
      <trkpt lat="48.98081" lon="0.78152">
        <ele>133</ele>
        <time>2019-08-15T07:36:47.703Z</time>
      </trkpt>
      <trkpt lat="48.98079" lon="0.78153">
        <ele>133</ele>
        <time>2019-08-15T07:36:48.705Z</time>
      </trkpt>
      <trkpt lat="48.98079" lon="0.78153">
        <ele>133</ele>
        <time>2019-08-15T07:36:49.702Z</time>
      </trkpt>
      <trkpt lat="48.98077" lon="0.78154">
        <ele>133</ele>
        <time>2019-08-15T07:36:50.713Z</time>
      </trkpt>
      <trkpt lat="48.98077" lon="0.78154">
        <ele>133</ele>
        <time>2019-08-15T07:36:51.685Z</time>
      </trkpt>
      <trkpt lat="48.98076" lon="0.78153">
        <ele>133</ele>
        <time>2019-08-15T07:36:52.714Z</time>
      </trkpt>
      <trkpt lat="48.98076" lon="0.78153">
        <ele>133</ele>
        <time>2019-08-15T07:36:53.705Z</time>
      </trkpt>
      <trkpt lat="48.98076" lon="0.78153">
        <ele>133</ele>
        <time>2019-08-15T07:36:54.694Z</time>
      </trkpt>
      <trkpt lat="48.98072" lon="0.78159">
        <ele>133</ele>
        <time>2019-08-15T07:36:55.695Z</time>
      </trkpt>
      <trkpt lat="48.98072" lon="0.78159">
        <ele>133</ele>
        <time>2019-08-15T07:36:56.687Z</time>
      </trkpt>
      <trkpt lat="48.98072" lon="0.78159">
        <ele>133</ele>
        <time>2019-08-15T07:36:57.691Z</time>
      </trkpt>
      <trkpt lat="48.9806" lon="0.78158">
        <ele>133</ele>
        <time>2019-08-15T07:36:58.716Z</time>
      </trkpt>
      <trkpt lat="48.9806" lon="0.78158">
        <ele>133</ele>
        <time>2019-08-15T07:36:59.709Z</time>
      </trkpt>
      <trkpt lat="48.98056" lon="0.7816">
        <ele>133</ele>
        <time>2019-08-15T07:37:00.716Z</time>
      </trkpt>
      <trkpt lat="48.98056" lon="0.7816">
        <ele>133</ele>
        <time>2019-08-15T07:37:01.713Z</time>
      </trkpt>
      <trkpt lat="48.9805" lon="0.78165">
        <ele>133</ele>
        <time>2019-08-15T07:37:02.716Z</time>
      </trkpt>
      <trkpt lat="48.9805" lon="0.78165">
        <ele>133</ele>
        <time>2019-08-15T07:37:03.709Z</time>
      </trkpt>
      <trkpt lat="48.98042" lon="0.78173">
        <ele>132</ele>
        <time>2019-08-15T07:37:04.715Z</time>
      </trkpt>
      <trkpt lat="48.98042" lon="0.78173">
        <ele>132</ele>
        <time>2019-08-15T07:37:05.711Z</time>
      </trkpt>
      <trkpt lat="48.98034" lon="0.78181">
        <ele>132</ele>
        <time>2019-08-15T07:37:06.711Z</time>
      </trkpt>
      <trkpt lat="48.9803" lon="0.78186">
        <ele>132</ele>
        <time>2019-08-15T07:37:07.717Z</time>
      </trkpt>
      <trkpt lat="48.9803" lon="0.78186">
        <ele>132</ele>
        <time>2019-08-15T07:37:08.709Z</time>
      </trkpt>
      <trkpt lat="48.98021" lon="0.78193">
        <ele>132</ele>
        <time>2019-08-15T07:37:09.716Z</time>
      </trkpt>
      <trkpt lat="48.98021" lon="0.78193">
        <ele>132</ele>
        <time>2019-08-15T07:37:10.707Z</time>
      </trkpt>
      <trkpt lat="48.98013" lon="0.78199">
        <ele>132</ele>
        <time>2019-08-15T07:37:11.716Z</time>
      </trkpt>
      <trkpt lat="48.9801" lon="0.78203">
        <ele>132</ele>
        <time>2019-08-15T07:37:12.716Z</time>
      </trkpt>
      <trkpt lat="48.9801" lon="0.78203">
        <ele>132</ele>
        <time>2019-08-15T07:37:13.710Z</time>
      </trkpt>
      <trkpt lat="48.98004" lon="0.78208">
        <ele>132</ele>
        <time>2019-08-15T07:37:14.708Z</time>
      </trkpt>
      <trkpt lat="48.98004" lon="0.78208">
        <ele>132</ele>
        <time>2019-08-15T07:37:15.707Z</time>
      </trkpt>
      <trkpt lat="48.97999" lon="0.78211">
        <ele>132</ele>
        <time>2019-08-15T07:37:16.709Z</time>
      </trkpt>
      <trkpt lat="48.97998" lon="0.78212">
        <ele>132</ele>
        <time>2019-08-15T07:37:17.716Z</time>
      </trkpt>
      <trkpt lat="48.97998" lon="0.78212">
        <ele>132</ele>
        <time>2019-08-15T07:37:18.702Z</time>
      </trkpt>
      <trkpt lat="48.97997" lon="0.78212">
        <ele>132</ele>
        <time>2019-08-15T07:37:19.687Z</time>
      </trkpt>
      <trkpt lat="48.97997" lon="0.78212">
        <ele>132</ele>
        <time>2019-08-15T07:37:20.711Z</time>
      </trkpt>
      <trkpt lat="48.97997" lon="0.7821">
        <ele>132</ele>
        <time>2019-08-15T07:37:21.711Z</time>
      </trkpt>
      <trkpt lat="48.97997" lon="0.7821">
        <ele>132</ele>
        <time>2019-08-15T07:37:22.706Z</time>
      </trkpt>
      <trkpt lat="48.97994" lon="0.78217">
        <ele>131</ele>
        <time>2019-08-15T07:37:23.701Z</time>
      </trkpt>
      <trkpt lat="48.97994" lon="0.78217">
        <ele>131</ele>
        <time>2019-08-15T07:37:24.686Z</time>
      </trkpt>
      <trkpt lat="48.97988" lon="0.78215">
        <ele>130</ele>
        <time>2019-08-15T07:37:25.678Z</time>
      </trkpt>
      <trkpt lat="48.97986" lon="0.78217">
        <ele>130</ele>
        <time>2019-08-15T07:37:26.717Z</time>
      </trkpt>
      <trkpt lat="48.97986" lon="0.78217">
        <ele>130</ele>
        <time>2019-08-15T07:37:27.715Z</time>
      </trkpt>
      <trkpt lat="48.97982" lon="0.78222">
        <ele>130</ele>
        <time>2019-08-15T07:37:28.678Z</time>
      </trkpt>
      <trkpt lat="48.97982" lon="0.78222">
        <ele>130</ele>
        <time>2019-08-15T07:37:29.705Z</time>
      </trkpt>
      <trkpt lat="48.97975" lon="0.78227">
        <ele>130</ele>
        <time>2019-08-15T07:37:30.688Z</time>
      </trkpt>
      <trkpt lat="48.97975" lon="0.78227">
        <ele>130</ele>
        <time>2019-08-15T07:37:31.716Z</time>
      </trkpt>
      <trkpt lat="48.97966" lon="0.78232">
        <ele>130</ele>
        <time>2019-08-15T07:37:32.679Z</time>
      </trkpt>
      <trkpt lat="48.97966" lon="0.78232">
        <ele>130</ele>
        <time>2019-08-15T07:37:33.714Z</time>
      </trkpt>
      <trkpt lat="48.97957" lon="0.78237">
        <ele>129</ele>
        <time>2019-08-15T07:37:34.680Z</time>
      </trkpt>
      <trkpt lat="48.97953" lon="0.78239">
        <ele>129</ele>
        <time>2019-08-15T07:37:35.717Z</time>
      </trkpt>
      <trkpt lat="48.97953" lon="0.78239">
        <ele>129</ele>
        <time>2019-08-15T07:37:36.716Z</time>
      </trkpt>
      <trkpt lat="48.97946" lon="0.78246">
        <ele>129</ele>
        <time>2019-08-15T07:37:37.678Z</time>
      </trkpt>
      <trkpt lat="48.97941" lon="0.7825">
        <ele>129</ele>
        <time>2019-08-15T07:37:38.680Z</time>
      </trkpt>
      <trkpt lat="48.97941" lon="0.7825">
        <ele>129</ele>
        <time>2019-08-15T07:37:39.714Z</time>
      </trkpt>
      <trkpt lat="48.97932" lon="0.78257">
        <ele>128</ele>
        <time>2019-08-15T07:37:40.689Z</time>
      </trkpt>
      <trkpt lat="48.97932" lon="0.78257">
        <ele>128</ele>
        <time>2019-08-15T07:37:41.715Z</time>
      </trkpt>
      <trkpt lat="48.97924" lon="0.78264">
        <ele>128</ele>
        <time>2019-08-15T07:37:42.678Z</time>
      </trkpt>
      <trkpt lat="48.97924" lon="0.78264">
        <ele>128</ele>
        <time>2019-08-15T07:37:43.715Z</time>
      </trkpt>
      <trkpt lat="48.97917" lon="0.78273">
        <ele>128</ele>
        <time>2019-08-15T07:37:44.678Z</time>
      </trkpt>
      <trkpt lat="48.97917" lon="0.78273">
        <ele>128</ele>
        <time>2019-08-15T07:37:45.716Z</time>
      </trkpt>
      <trkpt lat="48.97911" lon="0.78282">
        <ele>128</ele>
        <time>2019-08-15T07:37:46.714Z</time>
      </trkpt>
      <trkpt lat="48.97909" lon="0.78285">
        <ele>128</ele>
        <time>2019-08-15T07:37:47.678Z</time>
      </trkpt>
      <trkpt lat="48.97909" lon="0.78285">
        <ele>128</ele>
        <time>2019-08-15T07:37:48.715Z</time>
      </trkpt>
      <trkpt lat="48.97903" lon="0.78285">
        <ele>128</ele>
        <time>2019-08-15T07:37:49.678Z</time>
      </trkpt>
      <trkpt lat="48.979" lon="0.78282">
        <ele>128</ele>
        <time>2019-08-15T07:37:50.688Z</time>
      </trkpt>
      <trkpt lat="48.979" lon="0.78282">
        <ele>128</ele>
        <time>2019-08-15T07:37:51.716Z</time>
      </trkpt>
      <trkpt lat="48.97896" lon="0.78271">
        <ele>128</ele>
        <time>2019-08-15T07:37:52.679Z</time>
      </trkpt>
      <trkpt lat="48.97896" lon="0.78271">
        <ele>128</ele>
        <time>2019-08-15T07:37:53.715Z</time>
      </trkpt>
      <trkpt lat="48.97892" lon="0.7826">
        <ele>128</ele>
        <time>2019-08-15T07:37:54.678Z</time>
      </trkpt>
      <trkpt lat="48.97889" lon="0.78255">
        <ele>128</ele>
        <time>2019-08-15T07:37:55.678Z</time>
      </trkpt>
      <trkpt lat="48.97887" lon="0.78249">
        <ele>128</ele>
        <time>2019-08-15T07:37:56.678Z</time>
      </trkpt>
      <trkpt lat="48.97887" lon="0.78249">
        <ele>128</ele>
        <time>2019-08-15T07:37:57.715Z</time>
      </trkpt>
      <trkpt lat="48.97881" lon="0.78237">
        <ele>128</ele>
        <time>2019-08-15T07:37:58.717Z</time>
      </trkpt>
      <trkpt lat="48.97877" lon="0.7823">
        <ele>128</ele>
        <time>2019-08-15T07:37:59.717Z</time>
      </trkpt>
      <trkpt lat="48.97877" lon="0.7823">
        <ele>128</ele>
        <time>2019-08-15T07:38:00.713Z</time>
      </trkpt>
      <trkpt lat="48.9787" lon="0.78218">
        <ele>128</ele>
        <time>2019-08-15T07:38:01.679Z</time>
      </trkpt>
      <trkpt lat="48.97867" lon="0.78211">
        <ele>128</ele>
        <time>2019-08-15T07:38:02.678Z</time>
      </trkpt>
      <trkpt lat="48.97867" lon="0.78211">
        <ele>128</ele>
        <time>2019-08-15T07:38:03.712Z</time>
      </trkpt>
      <trkpt lat="48.9786" lon="0.78199">
        <ele>128</ele>
        <time>2019-08-15T07:38:04.678Z</time>
      </trkpt>
      <trkpt lat="48.9786" lon="0.78199">
        <ele>128</ele>
        <time>2019-08-15T07:38:05.714Z</time>
      </trkpt>
      <trkpt lat="48.97853" lon="0.78186">
        <ele>128</ele>
        <time>2019-08-15T07:38:06.678Z</time>
      </trkpt>
      <trkpt lat="48.97849" lon="0.7818">
        <ele>128</ele>
        <time>2019-08-15T07:38:07.678Z</time>
      </trkpt>
      <trkpt lat="48.97846" lon="0.78173">
        <ele>127</ele>
        <time>2019-08-15T07:38:08.678Z</time>
      </trkpt>
      <trkpt lat="48.97846" lon="0.78173">
        <ele>127</ele>
        <time>2019-08-15T07:38:09.714Z</time>
      </trkpt>
      <trkpt lat="48.97839" lon="0.78157">
        <ele>127</ele>
        <time>2019-08-15T07:38:10.678Z</time>
      </trkpt>
      <trkpt lat="48.97839" lon="0.78157">
        <ele>127</ele>
        <time>2019-08-15T07:38:11.713Z</time>
      </trkpt>
      <trkpt lat="48.97833" lon="0.78143">
        <ele>127</ele>
        <time>2019-08-15T07:38:12.678Z</time>
      </trkpt>
      <trkpt lat="48.97833" lon="0.78143">
        <ele>127</ele>
        <time>2019-08-15T07:38:13.712Z</time>
      </trkpt>
      <trkpt lat="48.97826" lon="0.78129">
        <ele>127</ele>
        <time>2019-08-15T07:38:14.717Z</time>
      </trkpt>
      <trkpt lat="48.97826" lon="0.78129">
        <ele>127</ele>
        <time>2019-08-15T07:38:15.715Z</time>
      </trkpt>
      <trkpt lat="48.97818" lon="0.78116">
        <ele>126</ele>
        <time>2019-08-15T07:38:16.678Z</time>
      </trkpt>
      <trkpt lat="48.97818" lon="0.78116">
        <ele>126</ele>
        <time>2019-08-15T07:38:17.715Z</time>
      </trkpt>
      <trkpt lat="48.97812" lon="0.78102">
        <ele>126</ele>
        <time>2019-08-15T07:38:18.678Z</time>
      </trkpt>
      <trkpt lat="48.97809" lon="0.78094">
        <ele>126</ele>
        <time>2019-08-15T07:38:19.678Z</time>
      </trkpt>
      <trkpt lat="48.97806" lon="0.78087">
        <ele>126</ele>
        <time>2019-08-15T07:38:20.717Z</time>
      </trkpt>
      <trkpt lat="48.97806" lon="0.78087">
        <ele>126</ele>
        <time>2019-08-15T07:38:21.716Z</time>
      </trkpt>
      <trkpt lat="48.97799" lon="0.78072">
        <ele>126</ele>
        <time>2019-08-15T07:38:22.717Z</time>
      </trkpt>
      <trkpt lat="48.97799" lon="0.78072">
        <ele>126</ele>
        <time>2019-08-15T07:38:23.708Z</time>
      </trkpt>
      <trkpt lat="48.97793" lon="0.78056">
        <ele>126</ele>
        <time>2019-08-15T07:38:24.692Z</time>
      </trkpt>
      <trkpt lat="48.9779" lon="0.78048">
        <ele>125</ele>
        <time>2019-08-15T07:38:25.678Z</time>
      </trkpt>
      <trkpt lat="48.97787" lon="0.78041">
        <ele>125</ele>
        <time>2019-08-15T07:38:26.678Z</time>
      </trkpt>
      <trkpt lat="48.97787" lon="0.78041">
        <ele>125</ele>
        <time>2019-08-15T07:38:27.714Z</time>
      </trkpt>
      <trkpt lat="48.97781" lon="0.78025">
        <ele>125</ele>
        <time>2019-08-15T07:38:28.717Z</time>
      </trkpt>
      <trkpt lat="48.97778" lon="0.78018">
        <ele>125</ele>
        <time>2019-08-15T07:38:29.717Z</time>
      </trkpt>
      <trkpt lat="48.97775" lon="0.7801">
        <ele>125</ele>
        <time>2019-08-15T07:38:30.717Z</time>
      </trkpt>
      <trkpt lat="48.97775" lon="0.7801">
        <ele>125</ele>
        <time>2019-08-15T07:38:31.714Z</time>
      </trkpt>
      <trkpt lat="48.97769" lon="0.77995">
        <ele>125</ele>
        <time>2019-08-15T07:38:32.716Z</time>
      </trkpt>
      <trkpt lat="48.97769" lon="0.77995">
        <ele>125</ele>
        <time>2019-08-15T07:38:33.678Z</time>
      </trkpt>
      <trkpt lat="48.97763" lon="0.7798">
        <ele>125</ele>
        <time>2019-08-15T07:38:34.678Z</time>
      </trkpt>
      <trkpt lat="48.97763" lon="0.7798">
        <ele>125</ele>
        <time>2019-08-15T07:38:35.715Z</time>
      </trkpt>
      <trkpt lat="48.97757" lon="0.77966">
        <ele>126</ele>
        <time>2019-08-15T07:38:36.678Z</time>
      </trkpt>
      <trkpt lat="48.97754" lon="0.77959">
        <ele>126</ele>
        <time>2019-08-15T07:38:37.678Z</time>
      </trkpt>
      <trkpt lat="48.9775" lon="0.77953">
        <ele>126</ele>
        <time>2019-08-15T07:38:38.678Z</time>
      </trkpt>
      <trkpt lat="48.9775" lon="0.77953">
        <ele>126</ele>
        <time>2019-08-15T07:38:39.715Z</time>
      </trkpt>
      <trkpt lat="48.97743" lon="0.7794">
        <ele>126</ele>
        <time>2019-08-15T07:38:40.714Z</time>
      </trkpt>
      <trkpt lat="48.9774" lon="0.77934">
        <ele>126</ele>
        <time>2019-08-15T07:38:41.717Z</time>
      </trkpt>
      <trkpt lat="48.9774" lon="0.77934">
        <ele>126</ele>
        <time>2019-08-15T07:38:42.717Z</time>
      </trkpt>
      <trkpt lat="48.97732" lon="0.77922">
        <ele>126</ele>
        <time>2019-08-15T07:38:43.683Z</time>
      </trkpt>
      <trkpt lat="48.97732" lon="0.77922">
        <ele>126</ele>
        <time>2019-08-15T07:38:44.715Z</time>
      </trkpt>
      <trkpt lat="48.97724" lon="0.77911">
        <ele>127</ele>
        <time>2019-08-15T07:38:45.717Z</time>
      </trkpt>
      <trkpt lat="48.97724" lon="0.77911">
        <ele>127</ele>
        <time>2019-08-15T07:38:46.715Z</time>
      </trkpt>
      <trkpt lat="48.97715" lon="0.779">
        <ele>127</ele>
        <time>2019-08-15T07:38:47.691Z</time>
      </trkpt>
      <trkpt lat="48.97715" lon="0.779">
        <ele>127</ele>
        <time>2019-08-15T07:38:48.678Z</time>
      </trkpt>
      <trkpt lat="48.97707" lon="0.7789">
        <ele>127</ele>
        <time>2019-08-15T07:38:49.678Z</time>
      </trkpt>
      <trkpt lat="48.97702" lon="0.77885">
        <ele>127</ele>
        <time>2019-08-15T07:38:50.689Z</time>
      </trkpt>
      <trkpt lat="48.97702" lon="0.77885">
        <ele>127</ele>
        <time>2019-08-15T07:38:51.716Z</time>
      </trkpt>
      <trkpt lat="48.97693" lon="0.77875">
        <ele>127</ele>
        <time>2019-08-15T07:38:52.678Z</time>
      </trkpt>
      <trkpt lat="48.97693" lon="0.77875">
        <ele>127</ele>
        <time>2019-08-15T07:38:53.680Z</time>
      </trkpt>
      <trkpt lat="48.97684" lon="0.77865">
        <ele>128</ele>
        <time>2019-08-15T07:38:54.679Z</time>
      </trkpt>
      <trkpt lat="48.97684" lon="0.77865">
        <ele>128</ele>
        <time>2019-08-15T07:38:55.715Z</time>
      </trkpt>
      <trkpt lat="48.97675" lon="0.77856">
        <ele>128</ele>
        <time>2019-08-15T07:38:56.678Z</time>
      </trkpt>
      <trkpt lat="48.97675" lon="0.77856">
        <ele>128</ele>
        <time>2019-08-15T07:38:57.716Z</time>
      </trkpt>
      <trkpt lat="48.97667" lon="0.77847">
        <ele>128</ele>
        <time>2019-08-15T07:38:58.689Z</time>
      </trkpt>
      <trkpt lat="48.97667" lon="0.77847">
        <ele>128</ele>
        <time>2019-08-15T07:38:59.715Z</time>
      </trkpt>
      <trkpt lat="48.97658" lon="0.77838">
        <ele>128</ele>
        <time>2019-08-15T07:39:00.679Z</time>
      </trkpt>
      <trkpt lat="48.97658" lon="0.77838">
        <ele>128</ele>
        <time>2019-08-15T07:39:01.713Z</time>
      </trkpt>
      <trkpt lat="48.97649" lon="0.7783">
        <ele>128</ele>
        <time>2019-08-15T07:39:02.717Z</time>
      </trkpt>
      <trkpt lat="48.97649" lon="0.7783">
        <ele>128</ele>
        <time>2019-08-15T07:39:03.720Z</time>
      </trkpt>
      <trkpt lat="48.97641" lon="0.77821">
        <ele>128</ele>
        <time>2019-08-15T07:39:04.718Z</time>
      </trkpt>
      <trkpt lat="48.97641" lon="0.77821">
        <ele>128</ele>
        <time>2019-08-15T07:39:05.707Z</time>
      </trkpt>
      <trkpt lat="48.97632" lon="0.77812">
        <ele>129</ele>
        <time>2019-08-15T07:39:06.692Z</time>
      </trkpt>
      <trkpt lat="48.97632" lon="0.77812">
        <ele>129</ele>
        <time>2019-08-15T07:39:07.715Z</time>
      </trkpt>
      <trkpt lat="48.97623" lon="0.77802">
        <ele>129</ele>
        <time>2019-08-15T07:39:08.678Z</time>
      </trkpt>
      <trkpt lat="48.97623" lon="0.77802">
        <ele>129</ele>
        <time>2019-08-15T07:39:09.715Z</time>
      </trkpt>
      <trkpt lat="48.97615" lon="0.77792">
        <ele>129</ele>
        <time>2019-08-15T07:39:10.714Z</time>
      </trkpt>
      <trkpt lat="48.97611" lon="0.77787">
        <ele>129</ele>
        <time>2019-08-15T07:39:11.717Z</time>
      </trkpt>
      <trkpt lat="48.97607" lon="0.77782">
        <ele>130</ele>
        <time>2019-08-15T07:39:12.679Z</time>
      </trkpt>
      <trkpt lat="48.97604" lon="0.77776">
        <ele>130</ele>
        <time>2019-08-15T07:39:13.716Z</time>
      </trkpt>
      <trkpt lat="48.97604" lon="0.77776">
        <ele>130</ele>
        <time>2019-08-15T07:39:14.715Z</time>
      </trkpt>
      <trkpt lat="48.97597" lon="0.77766">
        <ele>130</ele>
        <time>2019-08-15T07:39:15.717Z</time>
      </trkpt>
      <trkpt lat="48.97597" lon="0.77766">
        <ele>130</ele>
        <time>2019-08-15T07:39:16.714Z</time>
      </trkpt>
      <trkpt lat="48.9759" lon="0.77758">
        <ele>130</ele>
        <time>2019-08-15T07:39:17.679Z</time>
      </trkpt>
      <trkpt lat="48.9759" lon="0.77758">
        <ele>130</ele>
        <time>2019-08-15T07:39:18.681Z</time>
      </trkpt>
      <trkpt lat="48.97583" lon="0.77751">
        <ele>130</ele>
        <time>2019-08-15T07:39:19.717Z</time>
      </trkpt>
      <trkpt lat="48.9758" lon="0.77749">
        <ele>130</ele>
        <time>2019-08-15T07:39:20.716Z</time>
      </trkpt>
      <trkpt lat="48.9758" lon="0.77749">
        <ele>130</ele>
        <time>2019-08-15T07:39:21.713Z</time>
      </trkpt>
      <trkpt lat="48.97573" lon="0.77741">
        <ele>131</ele>
        <time>2019-08-15T07:39:22.678Z</time>
      </trkpt>
      <trkpt lat="48.97573" lon="0.77741">
        <ele>131</ele>
        <time>2019-08-15T07:39:23.712Z</time>
      </trkpt>
      <trkpt lat="48.97567" lon="0.77732">
        <ele>131</ele>
        <time>2019-08-15T07:39:24.678Z</time>
      </trkpt>
      <trkpt lat="48.97564" lon="0.77727">
        <ele>131</ele>
        <time>2019-08-15T07:39:25.678Z</time>
      </trkpt>
      <trkpt lat="48.97564" lon="0.77727">
        <ele>131</ele>
        <time>2019-08-15T07:39:26.715Z</time>
      </trkpt>
      <trkpt lat="48.97556" lon="0.77716">
        <ele>131</ele>
        <time>2019-08-15T07:39:27.678Z</time>
      </trkpt>
      <trkpt lat="48.97556" lon="0.77716">
        <ele>131</ele>
        <time>2019-08-15T07:39:28.715Z</time>
      </trkpt>
      <trkpt lat="48.9755" lon="0.77704">
        <ele>131</ele>
        <time>2019-08-15T07:39:29.717Z</time>
      </trkpt>
      <trkpt lat="48.9755" lon="0.77704">
        <ele>131</ele>
        <time>2019-08-15T07:39:30.713Z</time>
      </trkpt>
      <trkpt lat="48.97543" lon="0.77692">
        <ele>131</ele>
        <time>2019-08-15T07:39:31.678Z</time>
      </trkpt>
      <trkpt lat="48.9754" lon="0.77686">
        <ele>131</ele>
        <time>2019-08-15T07:39:32.678Z</time>
      </trkpt>
      <trkpt lat="48.9754" lon="0.77686">
        <ele>131</ele>
        <time>2019-08-15T07:39:33.715Z</time>
      </trkpt>
      <trkpt lat="48.97533" lon="0.77674">
        <ele>131</ele>
        <time>2019-08-15T07:39:34.718Z</time>
      </trkpt>
      <trkpt lat="48.9753" lon="0.77667">
        <ele>131</ele>
        <time>2019-08-15T07:39:35.717Z</time>
      </trkpt>
      <trkpt lat="48.9753" lon="0.77667">
        <ele>131</ele>
        <time>2019-08-15T07:39:36.715Z</time>
      </trkpt>
      <trkpt lat="48.97523" lon="0.77652">
        <ele>131</ele>
        <time>2019-08-15T07:39:37.718Z</time>
      </trkpt>
      <trkpt lat="48.97521" lon="0.77645">
        <ele>131</ele>
        <time>2019-08-15T07:39:38.678Z</time>
      </trkpt>
      <trkpt lat="48.97518" lon="0.77637">
        <ele>131</ele>
        <time>2019-08-15T07:39:39.716Z</time>
      </trkpt>
      <trkpt lat="48.97518" lon="0.77637">
        <ele>131</ele>
        <time>2019-08-15T07:39:40.715Z</time>
      </trkpt>
      <trkpt lat="48.97512" lon="0.77623">
        <ele>131</ele>
        <time>2019-08-15T07:39:41.678Z</time>
      </trkpt>
      <trkpt lat="48.97512" lon="0.77623">
        <ele>131</ele>
        <time>2019-08-15T07:39:42.716Z</time>
      </trkpt>
      <trkpt lat="48.97504" lon="0.7761">
        <ele>131</ele>
        <time>2019-08-15T07:39:43.718Z</time>
      </trkpt>
      <trkpt lat="48.97504" lon="0.7761">
        <ele>131</ele>
        <time>2019-08-15T07:39:44.715Z</time>
      </trkpt>
      <trkpt lat="48.97497" lon="0.77597">
        <ele>131</ele>
        <time>2019-08-15T07:39:45.717Z</time>
      </trkpt>
      <trkpt lat="48.97497" lon="0.77597">
        <ele>131</ele>
        <time>2019-08-15T07:39:46.714Z</time>
      </trkpt>
      <trkpt lat="48.97488" lon="0.77585">
        <ele>132</ele>
        <time>2019-08-15T07:39:47.718Z</time>
      </trkpt>
      <trkpt lat="48.97488" lon="0.77585">
        <ele>132</ele>
        <time>2019-08-15T07:39:48.681Z</time>
      </trkpt>
      <trkpt lat="48.9748" lon="0.77572">
        <ele>131</ele>
        <time>2019-08-15T07:39:49.678Z</time>
      </trkpt>
      <trkpt lat="48.97476" lon="0.77565">
        <ele>131</ele>
        <time>2019-08-15T07:39:50.678Z</time>
      </trkpt>
      <trkpt lat="48.97476" lon="0.77565">
        <ele>131</ele>
        <time>2019-08-15T07:39:51.687Z</time>
      </trkpt>
      <trkpt lat="48.97468" lon="0.77552">
        <ele>131</ele>
        <time>2019-08-15T07:39:52.678Z</time>
      </trkpt>
      <trkpt lat="48.97468" lon="0.77552">
        <ele>131</ele>
        <time>2019-08-15T07:39:53.716Z</time>
      </trkpt>
      <trkpt lat="48.97461" lon="0.77539">
        <ele>131</ele>
        <time>2019-08-15T07:39:54.678Z</time>
      </trkpt>
      <trkpt lat="48.97458" lon="0.77533">
        <ele>131</ele>
        <time>2019-08-15T07:39:55.679Z</time>
      </trkpt>
      <trkpt lat="48.97458" lon="0.77533">
        <ele>131</ele>
        <time>2019-08-15T07:39:56.715Z</time>
      </trkpt>
      <trkpt lat="48.9745" lon="0.77522">
        <ele>131</ele>
        <time>2019-08-15T07:39:57.690Z</time>
      </trkpt>
      <trkpt lat="48.97446" lon="0.77516">
        <ele>131</ele>
        <time>2019-08-15T07:39:58.681Z</time>
      </trkpt>
      <trkpt lat="48.97446" lon="0.77516">
        <ele>131</ele>
        <time>2019-08-15T07:39:59.712Z</time>
      </trkpt>
      <trkpt lat="48.97438" lon="0.77505">
        <ele>131</ele>
        <time>2019-08-15T07:40:00.679Z</time>
      </trkpt>
      <trkpt lat="48.97434" lon="0.77499">
        <ele>131</ele>
        <time>2019-08-15T07:40:01.717Z</time>
      </trkpt>
      <trkpt lat="48.97434" lon="0.77499">
        <ele>131</ele>
        <time>2019-08-15T07:40:02.690Z</time>
      </trkpt>
      <trkpt lat="48.97424" lon="0.77489">
        <ele>131</ele>
        <time>2019-08-15T07:40:03.679Z</time>
      </trkpt>
      <trkpt lat="48.97424" lon="0.77489">
        <ele>131</ele>
        <time>2019-08-15T07:40:04.717Z</time>
      </trkpt>
      <trkpt lat="48.97415" lon="0.77478">
        <ele>131</ele>
        <time>2019-08-15T07:40:05.717Z</time>
      </trkpt>
      <trkpt lat="48.97415" lon="0.77478">
        <ele>131</ele>
        <time>2019-08-15T07:40:06.713Z</time>
      </trkpt>
      <trkpt lat="48.97406" lon="0.77468">
        <ele>131</ele>
        <time>2019-08-15T07:40:07.717Z</time>
      </trkpt>
      <trkpt lat="48.97402" lon="0.77463">
        <ele>131</ele>
        <time>2019-08-15T07:40:08.678Z</time>
      </trkpt>
      <trkpt lat="48.97402" lon="0.77463">
        <ele>131</ele>
        <time>2019-08-15T07:40:09.713Z</time>
      </trkpt>
      <trkpt lat="48.97392" lon="0.77451">
        <ele>130</ele>
        <time>2019-08-15T07:40:10.717Z</time>
      </trkpt>
      <trkpt lat="48.97388" lon="0.77446">
        <ele>130</ele>
        <time>2019-08-15T07:40:11.678Z</time>
      </trkpt>
      <trkpt lat="48.97388" lon="0.77446">
        <ele>130</ele>
        <time>2019-08-15T07:40:12.716Z</time>
      </trkpt>
      <trkpt lat="48.9738" lon="0.77435">
        <ele>131</ele>
        <time>2019-08-15T07:40:13.678Z</time>
      </trkpt>
      <trkpt lat="48.9738" lon="0.77435">
        <ele>131</ele>
        <time>2019-08-15T07:40:14.710Z</time>
      </trkpt>
      <trkpt lat="48.97371" lon="0.77425">
        <ele>131</ele>
        <time>2019-08-15T07:40:15.694Z</time>
      </trkpt>
      <trkpt lat="48.97367" lon="0.77419">
        <ele>131</ele>
        <time>2019-08-15T07:40:16.679Z</time>
      </trkpt>
      <trkpt lat="48.97367" lon="0.77419">
        <ele>131</ele>
        <time>2019-08-15T07:40:17.715Z</time>
      </trkpt>
      <trkpt lat="48.97359" lon="0.77407">
        <ele>130</ele>
        <time>2019-08-15T07:40:18.683Z</time>
      </trkpt>
      <trkpt lat="48.97359" lon="0.77407">
        <ele>130</ele>
        <time>2019-08-15T07:40:19.713Z</time>
      </trkpt>
      <trkpt lat="48.97351" lon="0.77397">
        <ele>130</ele>
        <time>2019-08-15T07:40:20.678Z</time>
      </trkpt>
      <trkpt lat="48.97351" lon="0.77397">
        <ele>130</ele>
        <time>2019-08-15T07:40:21.716Z</time>
      </trkpt>
      <trkpt lat="48.97342" lon="0.77388">
        <ele>130</ele>
        <time>2019-08-15T07:40:22.718Z</time>
      </trkpt>
      <trkpt lat="48.97342" lon="0.77388">
        <ele>130</ele>
        <time>2019-08-15T07:40:23.715Z</time>
      </trkpt>
      <trkpt lat="48.97333" lon="0.77379">
        <ele>130</ele>
        <time>2019-08-15T07:40:24.690Z</time>
      </trkpt>
      <trkpt lat="48.97329" lon="0.77374">
        <ele>130</ele>
        <time>2019-08-15T07:40:25.678Z</time>
      </trkpt>
      <trkpt lat="48.97329" lon="0.77374">
        <ele>130</ele>
        <time>2019-08-15T07:40:26.715Z</time>
      </trkpt>
      <trkpt lat="48.97321" lon="0.77365">
        <ele>130</ele>
        <time>2019-08-15T07:40:27.716Z</time>
      </trkpt>
      <trkpt lat="48.97317" lon="0.77361">
        <ele>130</ele>
        <time>2019-08-15T07:40:28.678Z</time>
      </trkpt>
      <trkpt lat="48.97314" lon="0.77356">
        <ele>131</ele>
        <time>2019-08-15T07:40:29.678Z</time>
      </trkpt>
      <trkpt lat="48.97314" lon="0.77356">
        <ele>131</ele>
        <time>2019-08-15T07:40:30.716Z</time>
      </trkpt>
      <trkpt lat="48.97306" lon="0.77344">
        <ele>131</ele>
        <time>2019-08-15T07:40:31.678Z</time>
      </trkpt>
      <trkpt lat="48.97302" lon="0.77338">
        <ele>131</ele>
        <time>2019-08-15T07:40:32.678Z</time>
      </trkpt>
      <trkpt lat="48.97302" lon="0.77338">
        <ele>131</ele>
        <time>2019-08-15T07:40:33.711Z</time>
      </trkpt>
      <trkpt lat="48.97292" lon="0.77328">
        <ele>131</ele>
        <time>2019-08-15T07:40:34.679Z</time>
      </trkpt>
      <trkpt lat="48.97292" lon="0.77328">
        <ele>131</ele>
        <time>2019-08-15T07:40:35.713Z</time>
      </trkpt>
      <trkpt lat="48.97282" lon="0.77318">
        <ele>131</ele>
        <time>2019-08-15T07:40:36.678Z</time>
      </trkpt>
      <trkpt lat="48.97278" lon="0.77313">
        <ele>131</ele>
        <time>2019-08-15T07:40:37.715Z</time>
      </trkpt>
      <trkpt lat="48.97278" lon="0.77313">
        <ele>131</ele>
        <time>2019-08-15T07:40:38.713Z</time>
      </trkpt>
      <trkpt lat="48.97268" lon="0.77301">
        <ele>131</ele>
        <time>2019-08-15T07:40:39.718Z</time>
      </trkpt>
      <trkpt lat="48.97268" lon="0.77301">
        <ele>131</ele>
        <time>2019-08-15T07:40:40.715Z</time>
      </trkpt>
      <trkpt lat="48.9726" lon="0.77291">
        <ele>131</ele>
        <time>2019-08-15T07:40:41.717Z</time>
      </trkpt>
      <trkpt lat="48.9726" lon="0.77291">
        <ele>131</ele>
        <time>2019-08-15T07:40:42.713Z</time>
      </trkpt>
      <trkpt lat="48.97253" lon="0.77279">
        <ele>131</ele>
        <time>2019-08-15T07:40:43.711Z</time>
      </trkpt>
      <trkpt lat="48.97253" lon="0.77279">
        <ele>131</ele>
        <time>2019-08-15T07:40:44.690Z</time>
      </trkpt>
      <trkpt lat="48.97245" lon="0.77268">
        <ele>131</ele>
        <time>2019-08-15T07:40:45.708Z</time>
      </trkpt>
      <trkpt lat="48.97242" lon="0.77261">
        <ele>131</ele>
        <time>2019-08-15T07:40:46.715Z</time>
      </trkpt>
      <trkpt lat="48.97238" lon="0.77255">
        <ele>131</ele>
        <time>2019-08-15T07:40:47.680Z</time>
      </trkpt>
      <trkpt lat="48.97238" lon="0.77255">
        <ele>131</ele>
        <time>2019-08-15T07:40:48.679Z</time>
      </trkpt>
      <trkpt lat="48.97232" lon="0.77241">
        <ele>130</ele>
        <time>2019-08-15T07:40:49.715Z</time>
      </trkpt>
      <trkpt lat="48.97229" lon="0.77235">
        <ele>130</ele>
        <time>2019-08-15T07:40:50.693Z</time>
      </trkpt>
      <trkpt lat="48.97229" lon="0.77235">
        <ele>130</ele>
        <time>2019-08-15T07:40:51.716Z</time>
      </trkpt>
      <trkpt lat="48.97221" lon="0.77222">
        <ele>130</ele>
        <time>2019-08-15T07:40:52.678Z</time>
      </trkpt>
      <trkpt lat="48.97221" lon="0.77222">
        <ele>130</ele>
        <time>2019-08-15T07:40:53.715Z</time>
      </trkpt>
      <trkpt lat="48.97214" lon="0.77211">
        <ele>130</ele>
        <time>2019-08-15T07:40:54.680Z</time>
      </trkpt>
      <trkpt lat="48.9721" lon="0.77205">
        <ele>130</ele>
        <time>2019-08-15T07:40:55.680Z</time>
      </trkpt>
      <trkpt lat="48.97206" lon="0.77199">
        <ele>130</ele>
        <time>2019-08-15T07:40:56.718Z</time>
      </trkpt>
      <trkpt lat="48.97206" lon="0.77199">
        <ele>130</ele>
        <time>2019-08-15T07:40:57.715Z</time>
      </trkpt>
      <trkpt lat="48.97199" lon="0.77187">
        <ele>130</ele>
        <time>2019-08-15T07:40:58.717Z</time>
      </trkpt>
      <trkpt lat="48.97195" lon="0.77181">
        <ele>130</ele>
        <time>2019-08-15T07:40:59.680Z</time>
      </trkpt>
      <trkpt lat="48.97195" lon="0.77181">
        <ele>130</ele>
        <time>2019-08-15T07:41:00.716Z</time>
      </trkpt>
      <trkpt lat="48.97189" lon="0.77168">
        <ele>131</ele>
        <time>2019-08-15T07:41:01.678Z</time>
      </trkpt>
      <trkpt lat="48.97186" lon="0.77161">
        <ele>131</ele>
        <time>2019-08-15T07:41:02.695Z</time>
      </trkpt>
      <trkpt lat="48.97186" lon="0.77161">
        <ele>131</ele>
        <time>2019-08-15T07:41:03.678Z</time>
      </trkpt>
      <trkpt lat="48.9718" lon="0.77148">
        <ele>131</ele>
        <time>2019-08-15T07:41:04.717Z</time>
      </trkpt>
      <trkpt lat="48.9718" lon="0.77148">
        <ele>131</ele>
        <time>2019-08-15T07:41:05.715Z</time>
      </trkpt>
      <trkpt lat="48.97174" lon="0.77136">
        <ele>131</ele>
        <time>2019-08-15T07:41:06.718Z</time>
      </trkpt>
      <trkpt lat="48.97174" lon="0.77136">
        <ele>131</ele>
        <time>2019-08-15T07:41:07.715Z</time>
      </trkpt>
      <trkpt lat="48.97167" lon="0.77123">
        <ele>131</ele>
        <time>2019-08-15T07:41:08.717Z</time>
      </trkpt>
      <trkpt lat="48.97163" lon="0.77117">
        <ele>131</ele>
        <time>2019-08-15T07:41:09.717Z</time>
      </trkpt>
      <trkpt lat="48.97163" lon="0.77117">
        <ele>131</ele>
        <time>2019-08-15T07:41:10.715Z</time>
      </trkpt>
      <trkpt lat="48.97157" lon="0.77104">
        <ele>131</ele>
        <time>2019-08-15T07:41:11.678Z</time>
      </trkpt>
      <trkpt lat="48.97157" lon="0.77104">
        <ele>131</ele>
        <time>2019-08-15T07:41:12.716Z</time>
      </trkpt>
      <trkpt lat="48.97151" lon="0.77092">
        <ele>131</ele>
        <time>2019-08-15T07:41:13.717Z</time>
      </trkpt>
      <trkpt lat="48.97151" lon="0.77092">
        <ele>131</ele>
        <time>2019-08-15T07:41:14.711Z</time>
      </trkpt>
      <trkpt lat="48.97143" lon="0.77081">
        <ele>131</ele>
        <time>2019-08-15T07:41:15.717Z</time>
      </trkpt>
      <trkpt lat="48.97143" lon="0.77081">
        <ele>131</ele>
        <time>2019-08-15T07:41:16.715Z</time>
      </trkpt>
      <trkpt lat="48.97137" lon="0.77068">
        <ele>131</ele>
        <time>2019-08-15T07:41:17.678Z</time>
      </trkpt>
      <trkpt lat="48.97137" lon="0.77068">
        <ele>131</ele>
        <time>2019-08-15T07:41:18.678Z</time>
      </trkpt>
      <trkpt lat="48.9713" lon="0.77056">
        <ele>131</ele>
        <time>2019-08-15T07:41:19.678Z</time>
      </trkpt>
      <trkpt lat="48.97127" lon="0.77049">
        <ele>131</ele>
        <time>2019-08-15T07:41:20.678Z</time>
      </trkpt>
      <trkpt lat="48.97127" lon="0.77049">
        <ele>131</ele>
        <time>2019-08-15T07:41:21.713Z</time>
      </trkpt>
      <trkpt lat="48.9712" lon="0.77035">
        <ele>131</ele>
        <time>2019-08-15T07:41:22.718Z</time>
      </trkpt>
      <trkpt lat="48.9712" lon="0.77035">
        <ele>131</ele>
        <time>2019-08-15T07:41:23.713Z</time>
      </trkpt>
      <trkpt lat="48.97113" lon="0.77022">
        <ele>131</ele>
        <time>2019-08-15T07:41:24.679Z</time>
      </trkpt>
      <trkpt lat="48.97113" lon="0.77022">
        <ele>131</ele>
        <time>2019-08-15T07:41:25.715Z</time>
      </trkpt>
      <trkpt lat="48.97106" lon="0.77009">
        <ele>131</ele>
        <time>2019-08-15T07:41:26.717Z</time>
      </trkpt>
      <trkpt lat="48.97106" lon="0.77009">
        <ele>131</ele>
        <time>2019-08-15T07:41:27.715Z</time>
      </trkpt>
      <trkpt lat="48.971" lon="0.76996">
        <ele>131</ele>
        <time>2019-08-15T07:41:28.679Z</time>
      </trkpt>
      <trkpt lat="48.971" lon="0.76996">
        <ele>131</ele>
        <time>2019-08-15T07:41:29.715Z</time>
      </trkpt>
      <trkpt lat="48.97095" lon="0.76984">
        <ele>131</ele>
        <time>2019-08-15T07:41:30.679Z</time>
      </trkpt>
      <trkpt lat="48.97095" lon="0.76984">
        <ele>131</ele>
        <time>2019-08-15T07:41:31.715Z</time>
      </trkpt>
      <trkpt lat="48.97089" lon="0.76972">
        <ele>131</ele>
        <time>2019-08-15T07:41:32.679Z</time>
      </trkpt>
      <trkpt lat="48.97089" lon="0.76972">
        <ele>131</ele>
        <time>2019-08-15T07:41:33.712Z</time>
      </trkpt>
      <trkpt lat="48.97085" lon="0.76961">
        <ele>131</ele>
        <time>2019-08-15T07:41:34.679Z</time>
      </trkpt>
      <trkpt lat="48.97085" lon="0.76961">
        <ele>131</ele>
        <time>2019-08-15T07:41:35.714Z</time>
      </trkpt>
      <trkpt lat="48.97079" lon="0.76949">
        <ele>132</ele>
        <time>2019-08-15T07:41:36.715Z</time>
      </trkpt>
      <trkpt lat="48.97076" lon="0.76943">
        <ele>132</ele>
        <time>2019-08-15T07:41:37.718Z</time>
      </trkpt>
      <trkpt lat="48.97076" lon="0.76943">
        <ele>132</ele>
        <time>2019-08-15T07:41:38.715Z</time>
      </trkpt>
      <trkpt lat="48.97069" lon="0.76932">
        <ele>132</ele>
        <time>2019-08-15T07:41:39.678Z</time>
      </trkpt>
      <trkpt lat="48.97069" lon="0.76932">
        <ele>132</ele>
        <time>2019-08-15T07:41:40.715Z</time>
      </trkpt>
      <trkpt lat="48.97062" lon="0.76921">
        <ele>132</ele>
        <time>2019-08-15T07:41:41.678Z</time>
      </trkpt>
      <trkpt lat="48.97062" lon="0.76921">
        <ele>132</ele>
        <time>2019-08-15T07:41:42.716Z</time>
      </trkpt>
      <trkpt lat="48.97055" lon="0.76912">
        <ele>132</ele>
        <time>2019-08-15T07:41:43.678Z</time>
      </trkpt>
      <trkpt lat="48.97055" lon="0.76912">
        <ele>132</ele>
        <time>2019-08-15T07:41:44.715Z</time>
      </trkpt>
      <trkpt lat="48.97049" lon="0.76901">
        <ele>132</ele>
        <time>2019-08-15T07:41:45.714Z</time>
      </trkpt>
      <trkpt lat="48.97049" lon="0.76901">
        <ele>132</ele>
        <time>2019-08-15T07:41:46.680Z</time>
      </trkpt>
      <trkpt lat="48.97046" lon="0.76889">
        <ele>132</ele>
        <time>2019-08-15T07:41:47.678Z</time>
      </trkpt>
      <trkpt lat="48.97046" lon="0.76889">
        <ele>132</ele>
        <time>2019-08-15T07:41:48.715Z</time>
      </trkpt>
      <trkpt lat="48.97042" lon="0.76876">
        <ele>132</ele>
        <time>2019-08-15T07:41:49.717Z</time>
      </trkpt>
      <trkpt lat="48.97041" lon="0.7687">
        <ele>132</ele>
        <time>2019-08-15T07:41:50.678Z</time>
      </trkpt>
      <trkpt lat="48.97041" lon="0.7687">
        <ele>132</ele>
        <time>2019-08-15T07:41:51.680Z</time>
      </trkpt>
      <trkpt lat="48.97036" lon="0.76857">
        <ele>132</ele>
        <time>2019-08-15T07:41:52.678Z</time>
      </trkpt>
      <trkpt lat="48.97034" lon="0.7685">
        <ele>132</ele>
        <time>2019-08-15T07:41:53.718Z</time>
      </trkpt>
      <trkpt lat="48.97034" lon="0.7685">
        <ele>132</ele>
        <time>2019-08-15T07:41:54.712Z</time>
      </trkpt>
      <trkpt lat="48.9703" lon="0.76836">
        <ele>132</ele>
        <time>2019-08-15T07:41:55.678Z</time>
      </trkpt>
      <trkpt lat="48.97027" lon="0.76828">
        <ele>132</ele>
        <time>2019-08-15T07:41:56.717Z</time>
      </trkpt>
      <trkpt lat="48.97027" lon="0.76828">
        <ele>132</ele>
        <time>2019-08-15T07:41:57.715Z</time>
      </trkpt>
      <trkpt lat="48.97023" lon="0.76814">
        <ele>133</ele>
        <time>2019-08-15T07:41:58.717Z</time>
      </trkpt>
      <trkpt lat="48.9702" lon="0.76808">
        <ele>133</ele>
        <time>2019-08-15T07:41:59.678Z</time>
      </trkpt>
      <trkpt lat="48.9702" lon="0.76808">
        <ele>133</ele>
        <time>2019-08-15T07:42:00.715Z</time>
      </trkpt>
      <trkpt lat="48.97016" lon="0.76794">
        <ele>133</ele>
        <time>2019-08-15T07:42:01.718Z</time>
      </trkpt>
      <trkpt lat="48.97014" lon="0.76787">
        <ele>133</ele>
        <time>2019-08-15T07:42:02.678Z</time>
      </trkpt>
      <trkpt lat="48.97014" lon="0.76787">
        <ele>133</ele>
        <time>2019-08-15T07:42:03.712Z</time>
      </trkpt>
      <trkpt lat="48.97009" lon="0.76773">
        <ele>133</ele>
        <time>2019-08-15T07:42:04.678Z</time>
      </trkpt>
      <trkpt lat="48.97009" lon="0.76773">
        <ele>133</ele>
        <time>2019-08-15T07:42:05.712Z</time>
      </trkpt>
      <trkpt lat="48.97004" lon="0.76759">
        <ele>133</ele>
        <time>2019-08-15T07:42:06.716Z</time>
      </trkpt>
      <trkpt lat="48.97001" lon="0.76751">
        <ele>133</ele>
        <time>2019-08-15T07:42:07.679Z</time>
      </trkpt>
      <trkpt lat="48.97001" lon="0.76751">
        <ele>133</ele>
        <time>2019-08-15T07:42:08.715Z</time>
      </trkpt>
      <trkpt lat="48.96997" lon="0.76737">
        <ele>133</ele>
        <time>2019-08-15T07:42:09.717Z</time>
      </trkpt>
      <trkpt lat="48.96996" lon="0.7673">
        <ele>133</ele>
        <time>2019-08-15T07:42:10.680Z</time>
      </trkpt>
      <trkpt lat="48.96996" lon="0.7673">
        <ele>133</ele>
        <time>2019-08-15T07:42:11.713Z</time>
      </trkpt>
      <trkpt lat="48.96993" lon="0.76715">
        <ele>133</ele>
        <time>2019-08-15T07:42:12.678Z</time>
      </trkpt>
      <trkpt lat="48.96993" lon="0.76715">
        <ele>133</ele>
        <time>2019-08-15T07:42:13.711Z</time>
      </trkpt>
      <trkpt lat="48.9699" lon="0.76699">
        <ele>133</ele>
        <time>2019-08-15T07:42:14.717Z</time>
      </trkpt>
      <trkpt lat="48.9699" lon="0.76699">
        <ele>133</ele>
        <time>2019-08-15T07:42:15.708Z</time>
      </trkpt>
      <trkpt lat="48.96987" lon="0.76684">
        <ele>133</ele>
        <time>2019-08-15T07:42:16.693Z</time>
      </trkpt>
      <trkpt lat="48.96984" lon="0.76676">
        <ele>133</ele>
        <time>2019-08-15T07:42:17.680Z</time>
      </trkpt>
      <trkpt lat="48.96984" lon="0.76676">
        <ele>133</ele>
        <time>2019-08-15T07:42:18.714Z</time>
      </trkpt>
      <trkpt lat="48.9698" lon="0.7666">
        <ele>133</ele>
        <time>2019-08-15T07:42:19.678Z</time>
      </trkpt>
      <trkpt lat="48.96977" lon="0.76653">
        <ele>133</ele>
        <time>2019-08-15T07:42:20.678Z</time>
      </trkpt>
      <trkpt lat="48.96977" lon="0.76653">
        <ele>133</ele>
        <time>2019-08-15T07:42:21.715Z</time>
      </trkpt>
      <trkpt lat="48.96973" lon="0.76638">
        <ele>133</ele>
        <time>2019-08-15T07:42:22.678Z</time>
      </trkpt>
      <trkpt lat="48.96973" lon="0.76638">
        <ele>133</ele>
        <time>2019-08-15T07:42:23.715Z</time>
      </trkpt>
      <trkpt lat="48.9697" lon="0.76623">
        <ele>133</ele>
        <time>2019-08-15T07:42:24.678Z</time>
      </trkpt>
      <trkpt lat="48.9697" lon="0.76623">
        <ele>133</ele>
        <time>2019-08-15T07:42:25.689Z</time>
      </trkpt>
      <trkpt lat="48.96966" lon="0.76611">
        <ele>133</ele>
        <time>2019-08-15T07:42:26.717Z</time>
      </trkpt>
      <trkpt lat="48.96966" lon="0.76611">
        <ele>133</ele>
        <time>2019-08-15T07:42:27.713Z</time>
      </trkpt>
      <trkpt lat="48.96961" lon="0.76599">
        <ele>133</ele>
        <time>2019-08-15T07:42:28.717Z</time>
      </trkpt>
      <trkpt lat="48.96961" lon="0.76599">
        <ele>133</ele>
        <time>2019-08-15T07:42:29.716Z</time>
      </trkpt>
      <trkpt lat="48.96959" lon="0.76584">
        <ele>133</ele>
        <time>2019-08-15T07:42:30.678Z</time>
      </trkpt>
      <trkpt lat="48.96958" lon="0.76575">
        <ele>133</ele>
        <time>2019-08-15T07:42:31.715Z</time>
      </trkpt>
      <trkpt lat="48.96957" lon="0.76567">
        <ele>133</ele>
        <time>2019-08-15T07:42:32.717Z</time>
      </trkpt>
      <trkpt lat="48.96957" lon="0.76567">
        <ele>133</ele>
        <time>2019-08-15T07:42:33.717Z</time>
      </trkpt>
      <trkpt lat="48.96956" lon="0.76551">
        <ele>133</ele>
        <time>2019-08-15T07:42:34.678Z</time>
      </trkpt>
      <trkpt lat="48.96956" lon="0.76551">
        <ele>133</ele>
        <time>2019-08-15T07:42:35.679Z</time>
      </trkpt>
      <trkpt lat="48.96955" lon="0.76533">
        <ele>133</ele>
        <time>2019-08-15T07:42:36.678Z</time>
      </trkpt>
      <trkpt lat="48.96955" lon="0.76525">
        <ele>133</ele>
        <time>2019-08-15T07:42:37.717Z</time>
      </trkpt>
      <trkpt lat="48.96955" lon="0.76525">
        <ele>133</ele>
        <time>2019-08-15T07:42:38.715Z</time>
      </trkpt>
      <trkpt lat="48.96953" lon="0.76508">
        <ele>133</ele>
        <time>2019-08-15T07:42:39.678Z</time>
      </trkpt>
      <trkpt lat="48.96953" lon="0.76508">
        <ele>133</ele>
        <time>2019-08-15T07:42:40.711Z</time>
      </trkpt>
      <trkpt lat="48.96952" lon="0.7649">
        <ele>133</ele>
        <time>2019-08-15T07:42:41.678Z</time>
      </trkpt>
      <trkpt lat="48.96952" lon="0.7649">
        <ele>133</ele>
        <time>2019-08-15T07:42:42.716Z</time>
      </trkpt>
      <trkpt lat="48.96951" lon="0.76473">
        <ele>133</ele>
        <time>2019-08-15T07:42:43.717Z</time>
      </trkpt>
      <trkpt lat="48.9695" lon="0.76465">
        <ele>133</ele>
        <time>2019-08-15T07:42:44.678Z</time>
      </trkpt>
      <trkpt lat="48.9695" lon="0.76465">
        <ele>133</ele>
        <time>2019-08-15T07:42:45.680Z</time>
      </trkpt>
      <trkpt lat="48.96948" lon="0.76449">
        <ele>133</ele>
        <time>2019-08-15T07:42:46.686Z</time>
      </trkpt>
      <trkpt lat="48.96948" lon="0.76441">
        <ele>133</ele>
        <time>2019-08-15T07:42:47.678Z</time>
      </trkpt>
      <trkpt lat="48.96948" lon="0.76441">
        <ele>133</ele>
        <time>2019-08-15T07:42:48.715Z</time>
      </trkpt>
      <trkpt lat="48.96945" lon="0.7643">
        <ele>134</ele>
        <time>2019-08-15T07:42:49.717Z</time>
      </trkpt>
      <trkpt lat="48.96944" lon="0.76426">
        <ele>134</ele>
        <time>2019-08-15T07:42:50.678Z</time>
      </trkpt>
      <trkpt lat="48.96944" lon="0.76426">
        <ele>134</ele>
        <time>2019-08-15T07:42:51.701Z</time>
      </trkpt>
      <trkpt lat="48.96938" lon="0.76418">
        <ele>134</ele>
        <time>2019-08-15T07:42:52.686Z</time>
      </trkpt>
      <trkpt lat="48.96938" lon="0.76418">
        <ele>134</ele>
        <time>2019-08-15T07:42:53.716Z</time>
      </trkpt>
      <trkpt lat="48.96937" lon="0.76409">
        <ele>133</ele>
        <time>2019-08-15T07:42:54.679Z</time>
      </trkpt>
      <trkpt lat="48.96937" lon="0.76409">
        <ele>133</ele>
        <time>2019-08-15T07:42:55.712Z</time>
      </trkpt>
      <trkpt lat="48.96938" lon="0.76397">
        <ele>133</ele>
        <time>2019-08-15T07:42:56.717Z</time>
      </trkpt>
      <trkpt lat="48.96938" lon="0.76397">
        <ele>133</ele>
        <time>2019-08-15T07:42:57.715Z</time>
      </trkpt>
      <trkpt lat="48.96939" lon="0.76382">
        <ele>133</ele>
        <time>2019-08-15T07:42:58.718Z</time>
      </trkpt>
      <trkpt lat="48.9694" lon="0.76375">
        <ele>133</ele>
        <time>2019-08-15T07:42:59.717Z</time>
      </trkpt>
      <trkpt lat="48.9694" lon="0.76375">
        <ele>133</ele>
        <time>2019-08-15T07:43:00.715Z</time>
      </trkpt>
      <trkpt lat="48.96942" lon="0.76361">
        <ele>133</ele>
        <time>2019-08-15T07:43:01.715Z</time>
      </trkpt>
      <trkpt lat="48.96944" lon="0.76355">
        <ele>133</ele>
        <time>2019-08-15T07:43:02.717Z</time>
      </trkpt>
      <trkpt lat="48.96944" lon="0.76355">
        <ele>133</ele>
        <time>2019-08-15T07:43:03.716Z</time>
      </trkpt>
      <trkpt lat="48.96947" lon="0.76346">
        <ele>133</ele>
        <time>2019-08-15T07:43:04.717Z</time>
      </trkpt>
      <trkpt lat="48.96949" lon="0.76343">
        <ele>133</ele>
        <time>2019-08-15T07:43:05.716Z</time>
      </trkpt>
      <trkpt lat="48.96949" lon="0.76343">
        <ele>133</ele>
        <time>2019-08-15T07:43:06.713Z</time>
      </trkpt>
      <trkpt lat="48.96953" lon="0.76338">
        <ele>132</ele>
        <time>2019-08-15T07:43:07.717Z</time>
      </trkpt>
      <trkpt lat="48.96953" lon="0.76338">
        <ele>132</ele>
        <time>2019-08-15T07:43:08.716Z</time>
      </trkpt>
      <trkpt lat="48.96955" lon="0.76335">
        <ele>132</ele>
        <time>2019-08-15T07:43:09.678Z</time>
      </trkpt>
      <trkpt lat="48.96955" lon="0.76335">
        <ele>132</ele>
        <time>2019-08-15T07:43:10.712Z</time>
      </trkpt>
      <trkpt lat="48.96957" lon="0.76329">
        <ele>132</ele>
        <time>2019-08-15T07:43:11.716Z</time>
      </trkpt>
      <trkpt lat="48.96957" lon="0.76325">
        <ele>131</ele>
        <time>2019-08-15T07:43:12.716Z</time>
      </trkpt>
      <trkpt lat="48.96957" lon="0.76325">
        <ele>131</ele>
        <time>2019-08-15T07:43:13.713Z</time>
      </trkpt>
      <trkpt lat="48.96956" lon="0.76318">
        <ele>131</ele>
        <time>2019-08-15T07:43:14.717Z</time>
      </trkpt>
      <trkpt lat="48.96956" lon="0.76318">
        <ele>131</ele>
        <time>2019-08-15T07:43:15.715Z</time>
      </trkpt>
      <trkpt lat="48.96953" lon="0.76309">
        <ele>132</ele>
        <time>2019-08-15T07:43:16.680Z</time>
      </trkpt>
      <trkpt lat="48.96953" lon="0.76309">
        <ele>132</ele>
        <time>2019-08-15T07:43:17.713Z</time>
      </trkpt>
      <trkpt lat="48.9695" lon="0.76298">
        <ele>132</ele>
        <time>2019-08-15T07:43:18.691Z</time>
      </trkpt>
      <trkpt lat="48.96948" lon="0.7629">
        <ele>132</ele>
        <time>2019-08-15T07:43:19.678Z</time>
      </trkpt>
      <trkpt lat="48.96948" lon="0.7629">
        <ele>132</ele>
        <time>2019-08-15T07:43:20.716Z</time>
      </trkpt>
      <trkpt lat="48.96946" lon="0.76276">
        <ele>132</ele>
        <time>2019-08-15T07:43:21.715Z</time>
      </trkpt>
      <trkpt lat="48.96946" lon="0.76276">
        <ele>132</ele>
        <time>2019-08-15T07:43:22.713Z</time>
      </trkpt>
      <trkpt lat="48.96944" lon="0.76259">
        <ele>132</ele>
        <time>2019-08-15T07:43:23.697Z</time>
      </trkpt>
      <trkpt lat="48.96944" lon="0.76251">
        <ele>132</ele>
        <time>2019-08-15T07:43:24.686Z</time>
      </trkpt>
      <trkpt lat="48.96943" lon="0.76243">
        <ele>132</ele>
        <time>2019-08-15T07:43:25.717Z</time>
      </trkpt>
      <trkpt lat="48.96942" lon="0.76236">
        <ele>132</ele>
        <time>2019-08-15T07:43:26.678Z</time>
      </trkpt>
      <trkpt lat="48.96942" lon="0.76236">
        <ele>132</ele>
        <time>2019-08-15T07:43:27.713Z</time>
      </trkpt>
      <trkpt lat="48.9694" lon="0.76222">
        <ele>132</ele>
        <time>2019-08-15T07:43:28.717Z</time>
      </trkpt>
      <trkpt lat="48.9694" lon="0.76222">
        <ele>132</ele>
        <time>2019-08-15T07:43:29.716Z</time>
      </trkpt>
      <trkpt lat="48.96939" lon="0.76206">
        <ele>132</ele>
        <time>2019-08-15T07:43:30.678Z</time>
      </trkpt>
      <trkpt lat="48.96939" lon="0.76199">
        <ele>131</ele>
        <time>2019-08-15T07:43:31.678Z</time>
      </trkpt>
      <trkpt lat="48.96939" lon="0.76199">
        <ele>131</ele>
        <time>2019-08-15T07:43:32.715Z</time>
      </trkpt>
      <trkpt lat="48.9694" lon="0.76183">
        <ele>131</ele>
        <time>2019-08-15T07:43:33.717Z</time>
      </trkpt>
      <trkpt lat="48.9694" lon="0.76183">
        <ele>131</ele>
        <time>2019-08-15T07:43:34.715Z</time>
      </trkpt>
      <trkpt lat="48.96941" lon="0.76169">
        <ele>130</ele>
        <time>2019-08-15T07:43:35.715Z</time>
      </trkpt>
      <trkpt lat="48.96941" lon="0.76169">
        <ele>130</ele>
        <time>2019-08-15T07:43:36.714Z</time>
      </trkpt>
      <trkpt lat="48.96942" lon="0.76151">
        <ele>130</ele>
        <time>2019-08-15T07:43:37.678Z</time>
      </trkpt>
      <trkpt lat="48.96943" lon="0.76143">
        <ele>129</ele>
        <time>2019-08-15T07:43:38.678Z</time>
      </trkpt>
      <trkpt lat="48.96943" lon="0.76143">
        <ele>129</ele>
        <time>2019-08-15T07:43:39.715Z</time>
      </trkpt>
      <trkpt lat="48.96943" lon="0.76127">
        <ele>129</ele>
        <time>2019-08-15T07:43:40.717Z</time>
      </trkpt>
      <trkpt lat="48.96943" lon="0.76127">
        <ele>129</ele>
        <time>2019-08-15T07:43:41.715Z</time>
      </trkpt>
      <trkpt lat="48.96944" lon="0.76111">
        <ele>129</ele>
        <time>2019-08-15T07:43:42.678Z</time>
      </trkpt>
      <trkpt lat="48.96943" lon="0.76103">
        <ele>129</ele>
        <time>2019-08-15T07:43:43.717Z</time>
      </trkpt>
      <trkpt lat="48.96943" lon="0.76103">
        <ele>129</ele>
        <time>2019-08-15T07:43:44.712Z</time>
      </trkpt>
      <trkpt lat="48.96943" lon="0.76087">
        <ele>129</ele>
        <time>2019-08-15T07:43:45.717Z</time>
      </trkpt>
      <trkpt lat="48.96943" lon="0.76087">
        <ele>129</ele>
        <time>2019-08-15T07:43:46.678Z</time>
      </trkpt>
      <trkpt lat="48.96942" lon="0.76068">
        <ele>129</ele>
        <time>2019-08-15T07:43:47.678Z</time>
      </trkpt>
      <trkpt lat="48.96942" lon="0.76068">
        <ele>129</ele>
        <time>2019-08-15T07:43:48.717Z</time>
      </trkpt>
      <trkpt lat="48.96938" lon="0.7605">
        <ele>129</ele>
        <time>2019-08-15T07:43:49.678Z</time>
      </trkpt>
      <trkpt lat="48.96938" lon="0.7605">
        <ele>129</ele>
        <time>2019-08-15T07:43:50.679Z</time>
      </trkpt>
      <trkpt lat="48.96936" lon="0.76034">
        <ele>129</ele>
        <time>2019-08-15T07:43:51.687Z</time>
      </trkpt>
      <trkpt lat="48.96936" lon="0.76034">
        <ele>129</ele>
        <time>2019-08-15T07:43:52.715Z</time>
      </trkpt>
      <trkpt lat="48.96935" lon="0.76018">
        <ele>128</ele>
        <time>2019-08-15T07:43:53.680Z</time>
      </trkpt>
      <trkpt lat="48.96935" lon="0.76018">
        <ele>128</ele>
        <time>2019-08-15T07:43:54.714Z</time>
      </trkpt>
      <trkpt lat="48.96934" lon="0.76001">
        <ele>128</ele>
        <time>2019-08-15T07:43:55.678Z</time>
      </trkpt>
      <trkpt lat="48.96934" lon="0.76001">
        <ele>128</ele>
        <time>2019-08-15T07:43:56.715Z</time>
      </trkpt>
      <trkpt lat="48.96933" lon="0.75986">
        <ele>128</ele>
        <time>2019-08-15T07:43:57.717Z</time>
      </trkpt>
      <trkpt lat="48.96933" lon="0.75986">
        <ele>128</ele>
        <time>2019-08-15T07:43:58.713Z</time>
      </trkpt>
      <trkpt lat="48.96932" lon="0.75969">
        <ele>128</ele>
        <time>2019-08-15T07:43:59.717Z</time>
      </trkpt>
      <trkpt lat="48.96932" lon="0.75969">
        <ele>128</ele>
        <time>2019-08-15T07:44:00.717Z</time>
      </trkpt>
      <trkpt lat="48.96932" lon="0.75953">
        <ele>128</ele>
        <time>2019-08-15T07:44:01.717Z</time>
      </trkpt>
      <trkpt lat="48.96931" lon="0.75948">
        <ele>128</ele>
        <time>2019-08-15T07:44:02.679Z</time>
      </trkpt>
      <trkpt lat="48.96931" lon="0.75948">
        <ele>128</ele>
        <time>2019-08-15T07:44:03.713Z</time>
      </trkpt>
      <trkpt lat="48.96932" lon="0.75935">
        <ele>127</ele>
        <time>2019-08-15T07:44:04.717Z</time>
      </trkpt>
      <trkpt lat="48.96932" lon="0.75929">
        <ele>127</ele>
        <time>2019-08-15T07:44:05.717Z</time>
      </trkpt>
      <trkpt lat="48.96932" lon="0.75929">
        <ele>127</ele>
        <time>2019-08-15T07:44:06.714Z</time>
      </trkpt>
      <trkpt lat="48.96932" lon="0.75915">
        <ele>126</ele>
        <time>2019-08-15T07:44:07.717Z</time>
      </trkpt>
      <trkpt lat="48.96932" lon="0.75915">
        <ele>126</ele>
        <time>2019-08-15T07:44:08.715Z</time>
      </trkpt>
      <trkpt lat="48.96932" lon="0.75901">
        <ele>126</ele>
        <time>2019-08-15T07:44:09.717Z</time>
      </trkpt>
      <trkpt lat="48.96932" lon="0.75901">
        <ele>126</ele>
        <time>2019-08-15T07:44:10.712Z</time>
      </trkpt>
      <trkpt lat="48.96931" lon="0.75887">
        <ele>126</ele>
        <time>2019-08-15T07:44:11.717Z</time>
      </trkpt>
      <trkpt lat="48.96931" lon="0.75887">
        <ele>126</ele>
        <time>2019-08-15T07:44:12.714Z</time>
      </trkpt>
      <trkpt lat="48.96932" lon="0.75871">
        <ele>126</ele>
        <time>2019-08-15T07:44:13.717Z</time>
      </trkpt>
      <trkpt lat="48.96933" lon="0.75862">
        <ele>126</ele>
        <time>2019-08-15T07:44:14.717Z</time>
      </trkpt>
      <trkpt lat="48.96933" lon="0.75862">
        <ele>126</ele>
        <time>2019-08-15T07:44:15.714Z</time>
      </trkpt>
      <trkpt lat="48.96934" lon="0.75849">
        <ele>125</ele>
        <time>2019-08-15T07:44:16.688Z</time>
      </trkpt>
      <trkpt lat="48.96934" lon="0.75843">
        <ele>125</ele>
        <time>2019-08-15T07:44:17.712Z</time>
      </trkpt>
      <trkpt lat="48.96934" lon="0.75843">
        <ele>125</ele>
        <time>2019-08-15T07:44:18.699Z</time>
      </trkpt>
      <trkpt lat="48.96933" lon="0.75831">
        <ele>125</ele>
        <time>2019-08-15T07:44:19.684Z</time>
      </trkpt>
      <trkpt lat="48.96933" lon="0.75831">
        <ele>125</ele>
        <time>2019-08-15T07:44:20.715Z</time>
      </trkpt>
      <trkpt lat="48.96931" lon="0.75816">
        <ele>124</ele>
        <time>2019-08-15T07:44:21.716Z</time>
      </trkpt>
      <trkpt lat="48.9693" lon="0.75807">
        <ele>124</ele>
        <time>2019-08-15T07:44:22.680Z</time>
      </trkpt>
      <trkpt lat="48.9693" lon="0.75807">
        <ele>124</ele>
        <time>2019-08-15T07:44:23.715Z</time>
      </trkpt>
      <trkpt lat="48.96928" lon="0.75789">
        <ele>124</ele>
        <time>2019-08-15T07:44:24.717Z</time>
      </trkpt>
      <trkpt lat="48.96928" lon="0.75789">
        <ele>124</ele>
        <time>2019-08-15T07:44:25.715Z</time>
      </trkpt>
      <trkpt lat="48.96925" lon="0.75773">
        <ele>124</ele>
        <time>2019-08-15T07:44:26.716Z</time>
      </trkpt>
      <trkpt lat="48.96925" lon="0.75773">
        <ele>124</ele>
        <time>2019-08-15T07:44:27.715Z</time>
      </trkpt>
      <trkpt lat="48.96924" lon="0.75761">
        <ele>124</ele>
        <time>2019-08-15T07:44:28.715Z</time>
      </trkpt>
      <trkpt lat="48.96924" lon="0.75761">
        <ele>124</ele>
        <time>2019-08-15T07:44:29.713Z</time>
      </trkpt>
      <trkpt lat="48.96922" lon="0.75749">
        <ele>124</ele>
        <time>2019-08-15T07:44:30.678Z</time>
      </trkpt>
      <trkpt lat="48.9692" lon="0.75742">
        <ele>124</ele>
        <time>2019-08-15T07:44:31.686Z</time>
      </trkpt>
      <trkpt lat="48.96918" lon="0.75736">
        <ele>124</ele>
        <time>2019-08-15T07:44:32.717Z</time>
      </trkpt>
      <trkpt lat="48.96918" lon="0.75736">
        <ele>124</ele>
        <time>2019-08-15T07:44:33.712Z</time>
      </trkpt>
      <trkpt lat="48.96916" lon="0.75718">
        <ele>124</ele>
        <time>2019-08-15T07:44:34.717Z</time>
      </trkpt>
      <trkpt lat="48.96916" lon="0.75718">
        <ele>124</ele>
        <time>2019-08-15T07:44:35.715Z</time>
      </trkpt>
      <trkpt lat="48.96913" lon="0.75699">
        <ele>125</ele>
        <time>2019-08-15T07:44:36.680Z</time>
      </trkpt>
      <trkpt lat="48.96913" lon="0.75699">
        <ele>125</ele>
        <time>2019-08-15T07:44:37.697Z</time>
      </trkpt>
      <trkpt lat="48.9691" lon="0.75682">
        <ele>124</ele>
        <time>2019-08-15T07:44:38.685Z</time>
      </trkpt>
      <trkpt lat="48.96908" lon="0.75672">
        <ele>124</ele>
        <time>2019-08-15T07:44:39.716Z</time>
      </trkpt>
      <trkpt lat="48.96908" lon="0.75672">
        <ele>124</ele>
        <time>2019-08-15T07:44:40.715Z</time>
      </trkpt>
      <trkpt lat="48.96905" lon="0.75653">
        <ele>125</ele>
        <time>2019-08-15T07:44:41.718Z</time>
      </trkpt>
      <trkpt lat="48.96905" lon="0.75653">
        <ele>125</ele>
        <time>2019-08-15T07:44:42.713Z</time>
      </trkpt>
      <trkpt lat="48.96902" lon="0.75639">
        <ele>125</ele>
        <time>2019-08-15T07:44:43.698Z</time>
      </trkpt>
      <trkpt lat="48.969" lon="0.75632">
        <ele>125</ele>
        <time>2019-08-15T07:44:44.684Z</time>
      </trkpt>
      <trkpt lat="48.969" lon="0.75632">
        <ele>125</ele>
        <time>2019-08-15T07:44:45.715Z</time>
      </trkpt>
      <trkpt lat="48.96898" lon="0.75615">
        <ele>125</ele>
        <time>2019-08-15T07:44:46.715Z</time>
      </trkpt>
      <trkpt lat="48.96898" lon="0.75615">
        <ele>125</ele>
        <time>2019-08-15T07:44:47.714Z</time>
      </trkpt>
      <trkpt lat="48.96896" lon="0.75601">
        <ele>125</ele>
        <time>2019-08-15T07:44:48.679Z</time>
      </trkpt>
      <trkpt lat="48.96895" lon="0.75594">
        <ele>125</ele>
        <time>2019-08-15T07:44:49.717Z</time>
      </trkpt>
      <trkpt lat="48.96895" lon="0.75594">
        <ele>125</ele>
        <time>2019-08-15T07:44:50.715Z</time>
      </trkpt>
      <trkpt lat="48.96893" lon="0.75577">
        <ele>125</ele>
        <time>2019-08-15T07:44:51.689Z</time>
      </trkpt>
      <trkpt lat="48.96892" lon="0.7557">
        <ele>125</ele>
        <time>2019-08-15T07:44:52.717Z</time>
      </trkpt>
      <trkpt lat="48.96892" lon="0.7557">
        <ele>125</ele>
        <time>2019-08-15T07:44:53.714Z</time>
      </trkpt>
      <trkpt lat="48.96891" lon="0.75559">
        <ele>125</ele>
        <time>2019-08-15T07:44:54.717Z</time>
      </trkpt>
      <trkpt lat="48.96891" lon="0.75554">
        <ele>125</ele>
        <time>2019-08-15T07:44:55.717Z</time>
      </trkpt>
      <trkpt lat="48.96891" lon="0.75554">
        <ele>125</ele>
        <time>2019-08-15T07:44:56.713Z</time>
      </trkpt>
      <trkpt lat="48.9689" lon="0.75543">
        <ele>126</ele>
        <time>2019-08-15T07:44:57.678Z</time>
      </trkpt>
      <trkpt lat="48.9689" lon="0.75543">
        <ele>126</ele>
        <time>2019-08-15T07:44:58.715Z</time>
      </trkpt>
      <trkpt lat="48.9689" lon="0.75527">
        <ele>126</ele>
        <time>2019-08-15T07:44:59.678Z</time>
      </trkpt>
      <trkpt lat="48.9689" lon="0.75527">
        <ele>126</ele>
        <time>2019-08-15T07:45:00.715Z</time>
      </trkpt>
      <trkpt lat="48.96888" lon="0.75513">
        <ele>127</ele>
        <time>2019-08-15T07:45:01.717Z</time>
      </trkpt>
      <trkpt lat="48.96888" lon="0.75513">
        <ele>127</ele>
        <time>2019-08-15T07:45:02.715Z</time>
      </trkpt>
      <trkpt lat="48.96884" lon="0.75502">
        <ele>127</ele>
        <time>2019-08-15T07:45:03.717Z</time>
      </trkpt>
      <trkpt lat="48.96883" lon="0.75498">
        <ele>127</ele>
        <time>2019-08-15T07:45:04.678Z</time>
      </trkpt>
      <trkpt lat="48.96883" lon="0.75498">
        <ele>127</ele>
        <time>2019-08-15T07:45:05.712Z</time>
      </trkpt>
      <trkpt lat="48.96881" lon="0.7549">
        <ele>127</ele>
        <time>2019-08-15T07:45:06.679Z</time>
      </trkpt>
      <trkpt lat="48.9688" lon="0.75485">
        <ele>127</ele>
        <time>2019-08-15T07:45:07.717Z</time>
      </trkpt>
      <trkpt lat="48.96879" lon="0.7548">
        <ele>128</ele>
        <time>2019-08-15T07:45:08.678Z</time>
      </trkpt>
      <trkpt lat="48.96879" lon="0.7548">
        <ele>128</ele>
        <time>2019-08-15T07:45:09.715Z</time>
      </trkpt>
      <trkpt lat="48.96877" lon="0.75468">
        <ele>128</ele>
        <time>2019-08-15T07:45:10.717Z</time>
      </trkpt>
      <trkpt lat="48.96877" lon="0.75468">
        <ele>128</ele>
        <time>2019-08-15T07:45:11.715Z</time>
      </trkpt>
      <trkpt lat="48.96874" lon="0.75454">
        <ele>129</ele>
        <time>2019-08-15T07:45:12.678Z</time>
      </trkpt>
      <trkpt lat="48.96874" lon="0.75454">
        <ele>129</ele>
        <time>2019-08-15T07:45:13.715Z</time>
      </trkpt>
      <trkpt lat="48.96872" lon="0.75436">
        <ele>129</ele>
        <time>2019-08-15T07:45:14.717Z</time>
      </trkpt>
      <trkpt lat="48.96872" lon="0.75436">
        <ele>129</ele>
        <time>2019-08-15T07:45:15.715Z</time>
      </trkpt>
      <trkpt lat="48.9687" lon="0.75423">
        <ele>129</ele>
        <time>2019-08-15T07:45:16.717Z</time>
      </trkpt>
      <trkpt lat="48.96868" lon="0.75417">
        <ele>129</ele>
        <time>2019-08-15T07:45:17.691Z</time>
      </trkpt>
      <trkpt lat="48.96868" lon="0.75417">
        <ele>129</ele>
        <time>2019-08-15T07:45:18.687Z</time>
      </trkpt>
      <trkpt lat="48.96866" lon="0.75408">
        <ele>129</ele>
        <time>2019-08-15T07:45:19.678Z</time>
      </trkpt>
      <trkpt lat="48.96864" lon="0.75404">
        <ele>129</ele>
        <time>2019-08-15T07:45:20.716Z</time>
      </trkpt>
      <trkpt lat="48.96864" lon="0.75404">
        <ele>129</ele>
        <time>2019-08-15T07:45:21.715Z</time>
      </trkpt>
      <trkpt lat="48.9686" lon="0.75394">
        <ele>129</ele>
        <time>2019-08-15T07:45:22.679Z</time>
      </trkpt>
      <trkpt lat="48.9686" lon="0.75394">
        <ele>129</ele>
        <time>2019-08-15T07:45:23.712Z</time>
      </trkpt>
      <trkpt lat="48.96858" lon="0.75388">
        <ele>130</ele>
        <time>2019-08-15T07:45:24.678Z</time>
      </trkpt>
      <trkpt lat="48.96858" lon="0.75388">
        <ele>130</ele>
        <time>2019-08-15T07:45:25.715Z</time>
      </trkpt>
      <trkpt lat="48.96856" lon="0.75382">
        <ele>130</ele>
        <time>2019-08-15T07:45:26.718Z</time>
      </trkpt>
      <trkpt lat="48.96856" lon="0.75382">
        <ele>130</ele>
        <time>2019-08-15T07:45:27.715Z</time>
      </trkpt>
      <trkpt lat="48.96854" lon="0.75378">
        <ele>130</ele>
        <time>2019-08-15T07:45:28.714Z</time>
      </trkpt>
      <trkpt lat="48.96854" lon="0.75377">
        <ele>130</ele>
        <time>2019-08-15T07:45:29.716Z</time>
      </trkpt>
      <trkpt lat="48.96854" lon="0.75377">
        <ele>130</ele>
        <time>2019-08-15T07:45:30.715Z</time>
      </trkpt>
      <trkpt lat="48.96853" lon="0.75374">
        <ele>129</ele>
        <time>2019-08-15T07:45:31.717Z</time>
      </trkpt>
      <trkpt lat="48.96853" lon="0.75374">
        <ele>129</ele>
        <time>2019-08-15T07:45:32.713Z</time>
      </trkpt>
      <trkpt lat="48.96852" lon="0.75372">
        <ele>129</ele>
        <time>2019-08-15T07:45:33.698Z</time>
      </trkpt>
      <trkpt lat="48.96851" lon="0.75369">
        <ele>129</ele>
        <time>2019-08-15T07:45:34.686Z</time>
      </trkpt>
      <trkpt lat="48.96851" lon="0.75369">
        <ele>129</ele>
        <time>2019-08-15T07:45:35.715Z</time>
      </trkpt>
      <trkpt lat="48.9685" lon="0.75366">
        <ele>129</ele>
        <time>2019-08-15T07:45:36.696Z</time>
      </trkpt>
      <trkpt lat="48.9685" lon="0.75366">
        <ele>129</ele>
        <time>2019-08-15T07:45:37.687Z</time>
      </trkpt>
      <trkpt lat="48.9685" lon="0.75366">
        <ele>129</ele>
        <time>2019-08-15T07:45:38.690Z</time>
      </trkpt>
      <trkpt lat="48.9685" lon="0.75366">
        <ele>129</ele>
        <time>2019-08-15T07:45:39.679Z</time>
      </trkpt>
      <trkpt lat="48.96837" lon="0.75336">
        <ele>131</ele>
        <time>2019-08-15T07:45:40.699Z</time>
      </trkpt>
      <trkpt lat="48.96837" lon="0.75336">
        <ele>131</ele>
        <time>2019-08-15T07:45:41.690Z</time>
      </trkpt>
      <trkpt lat="48.96837" lon="0.75332">
        <ele>131</ele>
        <time>2019-08-15T07:45:42.699Z</time>
      </trkpt>
      <trkpt lat="48.96837" lon="0.75329">
        <ele>131</ele>
        <time>2019-08-15T07:45:43.697Z</time>
      </trkpt>
      <trkpt lat="48.96837" lon="0.75329">
        <ele>131</ele>
        <time>2019-08-15T07:45:44.689Z</time>
      </trkpt>
      <trkpt lat="48.96836" lon="0.75324">
        <ele>131</ele>
        <time>2019-08-15T07:45:45.694Z</time>
      </trkpt>
      <trkpt lat="48.96836" lon="0.75324">
        <ele>131</ele>
        <time>2019-08-15T07:45:46.692Z</time>
      </trkpt>
      <trkpt lat="48.96833" lon="0.75317">
        <ele>131</ele>
        <time>2019-08-15T07:45:47.680Z</time>
      </trkpt>
      <trkpt lat="48.96833" lon="0.75317">
        <ele>131</ele>
        <time>2019-08-15T07:45:48.693Z</time>
      </trkpt>
      <trkpt lat="48.96831" lon="0.75309">
        <ele>132</ele>
        <time>2019-08-15T07:45:49.694Z</time>
      </trkpt>
      <trkpt lat="48.96829" lon="0.75306">
        <ele>132</ele>
        <time>2019-08-15T07:45:50.693Z</time>
      </trkpt>
      <trkpt lat="48.96829" lon="0.75306">
        <ele>132</ele>
        <time>2019-08-15T07:45:51.704Z</time>
      </trkpt>
      <trkpt lat="48.96825" lon="0.75298">
        <ele>132</ele>
        <time>2019-08-15T07:45:52.698Z</time>
      </trkpt>
      <trkpt lat="48.96824" lon="0.75294">
        <ele>132</ele>
        <time>2019-08-15T07:45:53.694Z</time>
      </trkpt>
      <trkpt lat="48.96824" lon="0.75294">
        <ele>132</ele>
        <time>2019-08-15T07:45:54.700Z</time>
      </trkpt>
      <trkpt lat="48.96817" lon="0.75287">
        <ele>132</ele>
        <time>2019-08-15T07:45:55.693Z</time>
      </trkpt>
      <trkpt lat="48.96812" lon="0.75284">
        <ele>132</ele>
        <time>2019-08-15T07:45:56.691Z</time>
      </trkpt>
      <trkpt lat="48.96812" lon="0.75284">
        <ele>132</ele>
        <time>2019-08-15T07:45:57.691Z</time>
      </trkpt>
      <trkpt lat="48.96802" lon="0.75278">
        <ele>131</ele>
        <time>2019-08-15T07:45:58.698Z</time>
      </trkpt>
      <trkpt lat="48.96798" lon="0.75275">
        <ele>131</ele>
        <time>2019-08-15T07:45:59.693Z</time>
      </trkpt>
      <trkpt lat="48.96794" lon="0.7527">
        <ele>131</ele>
        <time>2019-08-15T07:46:00.698Z</time>
      </trkpt>
      <trkpt lat="48.96794" lon="0.7527">
        <ele>131</ele>
        <time>2019-08-15T07:46:01.690Z</time>
      </trkpt>
      <trkpt lat="48.96787" lon="0.7526">
        <ele>131</ele>
        <time>2019-08-15T07:46:02.699Z</time>
      </trkpt>
      <trkpt lat="48.96787" lon="0.7526">
        <ele>131</ele>
        <time>2019-08-15T07:46:03.689Z</time>
      </trkpt>
      <trkpt lat="48.96782" lon="0.75251">
        <ele>131</ele>
        <time>2019-08-15T07:46:04.698Z</time>
      </trkpt>
      <trkpt lat="48.96782" lon="0.75251">
        <ele>131</ele>
        <time>2019-08-15T07:46:05.692Z</time>
      </trkpt>
      <trkpt lat="48.96776" lon="0.75242">
        <ele>131</ele>
        <time>2019-08-15T07:46:06.699Z</time>
      </trkpt>
      <trkpt lat="48.96776" lon="0.75242">
        <ele>131</ele>
        <time>2019-08-15T07:46:07.689Z</time>
      </trkpt>
      <trkpt lat="48.9677" lon="0.75232">
        <ele>131</ele>
        <time>2019-08-15T07:46:08.698Z</time>
      </trkpt>
      <trkpt lat="48.9677" lon="0.75232">
        <ele>131</ele>
        <time>2019-08-15T07:46:09.688Z</time>
      </trkpt>
      <trkpt lat="48.96764" lon="0.75223">
        <ele>131</ele>
        <time>2019-08-15T07:46:10.698Z</time>
      </trkpt>
      <trkpt lat="48.96764" lon="0.75223">
        <ele>131</ele>
        <time>2019-08-15T07:46:11.688Z</time>
      </trkpt>
      <trkpt lat="48.96759" lon="0.75214">
        <ele>131</ele>
        <time>2019-08-15T07:46:12.698Z</time>
      </trkpt>
      <trkpt lat="48.96759" lon="0.75214">
        <ele>131</ele>
        <time>2019-08-15T07:46:13.688Z</time>
      </trkpt>
      <trkpt lat="48.96753" lon="0.75207">
        <ele>131</ele>
        <time>2019-08-15T07:46:14.698Z</time>
      </trkpt>
      <trkpt lat="48.96753" lon="0.75207">
        <ele>131</ele>
        <time>2019-08-15T07:46:15.688Z</time>
      </trkpt>
      <trkpt lat="48.96748" lon="0.75199">
        <ele>131</ele>
        <time>2019-08-15T07:46:16.694Z</time>
      </trkpt>
      <trkpt lat="48.96748" lon="0.75199">
        <ele>131</ele>
        <time>2019-08-15T07:46:17.699Z</time>
      </trkpt>
      <trkpt lat="48.96743" lon="0.75191">
        <ele>132</ele>
        <time>2019-08-15T07:46:18.698Z</time>
      </trkpt>
      <trkpt lat="48.96743" lon="0.75191">
        <ele>132</ele>
        <time>2019-08-15T07:46:19.689Z</time>
      </trkpt>
      <trkpt lat="48.96739" lon="0.75183">
        <ele>131</ele>
        <time>2019-08-15T07:46:20.698Z</time>
      </trkpt>
      <trkpt lat="48.96739" lon="0.75183">
        <ele>131</ele>
        <time>2019-08-15T07:46:21.689Z</time>
      </trkpt>
      <trkpt lat="48.96733" lon="0.75176">
        <ele>132</ele>
        <time>2019-08-15T07:46:22.699Z</time>
      </trkpt>
      <trkpt lat="48.96733" lon="0.75176">
        <ele>132</ele>
        <time>2019-08-15T07:46:23.688Z</time>
      </trkpt>
      <trkpt lat="48.96727" lon="0.75169">
        <ele>132</ele>
        <time>2019-08-15T07:46:24.698Z</time>
      </trkpt>
      <trkpt lat="48.96727" lon="0.75169">
        <ele>132</ele>
        <time>2019-08-15T07:46:25.689Z</time>
      </trkpt>
      <trkpt lat="48.9672" lon="0.75164">
        <ele>131</ele>
        <time>2019-08-15T07:46:26.693Z</time>
      </trkpt>
      <trkpt lat="48.9672" lon="0.75164">
        <ele>131</ele>
        <time>2019-08-15T07:46:27.692Z</time>
      </trkpt>
      <trkpt lat="48.96713" lon="0.7516">
        <ele>131</ele>
        <time>2019-08-15T07:46:28.693Z</time>
      </trkpt>
      <trkpt lat="48.96713" lon="0.7516">
        <ele>131</ele>
        <time>2019-08-15T07:46:29.689Z</time>
      </trkpt>
      <trkpt lat="48.96706" lon="0.75156">
        <ele>131</ele>
        <time>2019-08-15T07:46:30.699Z</time>
      </trkpt>
      <trkpt lat="48.96703" lon="0.75153">
        <ele>131</ele>
        <time>2019-08-15T07:46:31.694Z</time>
      </trkpt>
      <trkpt lat="48.96703" lon="0.75153">
        <ele>131</ele>
        <time>2019-08-15T07:46:32.692Z</time>
      </trkpt>
      <trkpt lat="48.96696" lon="0.75147">
        <ele>130</ele>
        <time>2019-08-15T07:46:33.698Z</time>
      </trkpt>
      <trkpt lat="48.96693" lon="0.75144">
        <ele>130</ele>
        <time>2019-08-15T07:46:34.698Z</time>
      </trkpt>
      <trkpt lat="48.96693" lon="0.75144">
        <ele>130</ele>
        <time>2019-08-15T07:46:35.689Z</time>
      </trkpt>
      <trkpt lat="48.96688" lon="0.75139">
        <ele>129</ele>
        <time>2019-08-15T07:46:36.698Z</time>
      </trkpt>
      <trkpt lat="48.96688" lon="0.75139">
        <ele>129</ele>
        <time>2019-08-15T07:46:37.689Z</time>
      </trkpt>
      <trkpt lat="48.96681" lon="0.75134">
        <ele>128</ele>
        <time>2019-08-15T07:46:38.698Z</time>
      </trkpt>
      <trkpt lat="48.96681" lon="0.75134">
        <ele>128</ele>
        <time>2019-08-15T07:46:39.689Z</time>
      </trkpt>
      <trkpt lat="48.96676" lon="0.75128">
        <ele>127</ele>
        <time>2019-08-15T07:46:40.694Z</time>
      </trkpt>
      <trkpt lat="48.96676" lon="0.75128">
        <ele>127</ele>
        <time>2019-08-15T07:46:41.688Z</time>
      </trkpt>
      <trkpt lat="48.96671" lon="0.75122">
        <ele>127</ele>
        <time>2019-08-15T07:46:42.698Z</time>
      </trkpt>
      <trkpt lat="48.96671" lon="0.75122">
        <ele>127</ele>
        <time>2019-08-15T07:46:43.692Z</time>
      </trkpt>
      <trkpt lat="48.96666" lon="0.75116">
        <ele>127</ele>
        <time>2019-08-15T07:46:44.691Z</time>
      </trkpt>
      <trkpt lat="48.96664" lon="0.75113">
        <ele>127</ele>
        <time>2019-08-15T07:46:45.693Z</time>
      </trkpt>
      <trkpt lat="48.96664" lon="0.75113">
        <ele>127</ele>
        <time>2019-08-15T07:46:46.704Z</time>
      </trkpt>
      <trkpt lat="48.9666" lon="0.75104">
        <ele>126</ele>
        <time>2019-08-15T07:46:47.693Z</time>
      </trkpt>
      <trkpt lat="48.96658" lon="0.751">
        <ele>126</ele>
        <time>2019-08-15T07:46:48.698Z</time>
      </trkpt>
      <trkpt lat="48.96658" lon="0.751">
        <ele>126</ele>
        <time>2019-08-15T07:46:49.689Z</time>
      </trkpt>
      <trkpt lat="48.96655" lon="0.75093">
        <ele>126</ele>
        <time>2019-08-15T07:46:50.698Z</time>
      </trkpt>
      <trkpt lat="48.96655" lon="0.75093">
        <ele>126</ele>
        <time>2019-08-15T07:46:51.704Z</time>
      </trkpt>
      <trkpt lat="48.9665" lon="0.75086">
        <ele>125</ele>
        <time>2019-08-15T07:46:52.691Z</time>
      </trkpt>
      <trkpt lat="48.96648" lon="0.75083">
        <ele>125</ele>
        <time>2019-08-15T07:46:53.699Z</time>
      </trkpt>
      <trkpt lat="48.96648" lon="0.75083">
        <ele>125</ele>
        <time>2019-08-15T07:46:54.690Z</time>
      </trkpt>
      <trkpt lat="48.96645" lon="0.75077">
        <ele>125</ele>
        <time>2019-08-15T07:46:55.698Z</time>
      </trkpt>
      <trkpt lat="48.96644" lon="0.75073">
        <ele>125</ele>
        <time>2019-08-15T07:46:56.698Z</time>
      </trkpt>
      <trkpt lat="48.96644" lon="0.75073">
        <ele>125</ele>
        <time>2019-08-15T07:46:57.689Z</time>
      </trkpt>
      <trkpt lat="48.96639" lon="0.75066">
        <ele>124</ele>
        <time>2019-08-15T07:46:58.693Z</time>
      </trkpt>
      <trkpt lat="48.96639" lon="0.75066">
        <ele>124</ele>
        <time>2019-08-15T07:46:59.689Z</time>
      </trkpt>
      <trkpt lat="48.96634" lon="0.75059">
        <ele>124</ele>
        <time>2019-08-15T07:47:00.698Z</time>
      </trkpt>
      <trkpt lat="48.96634" lon="0.75059">
        <ele>124</ele>
        <time>2019-08-15T07:47:01.688Z</time>
      </trkpt>
      <trkpt lat="48.9663" lon="0.75053">
        <ele>124</ele>
        <time>2019-08-15T07:47:02.699Z</time>
      </trkpt>
      <trkpt lat="48.9663" lon="0.75053">
        <ele>124</ele>
        <time>2019-08-15T07:47:03.689Z</time>
      </trkpt>
      <trkpt lat="48.96625" lon="0.75047">
        <ele>124</ele>
        <time>2019-08-15T07:47:04.688Z</time>
      </trkpt>
      <trkpt lat="48.96622" lon="0.75044">
        <ele>124</ele>
        <time>2019-08-15T07:47:05.700Z</time>
      </trkpt>
      <trkpt lat="48.96622" lon="0.75044">
        <ele>124</ele>
        <time>2019-08-15T07:47:06.691Z</time>
      </trkpt>
      <trkpt lat="48.96617" lon="0.7504">
        <ele>124</ele>
        <time>2019-08-15T07:47:07.699Z</time>
      </trkpt>
      <trkpt lat="48.96614" lon="0.75038">
        <ele>123</ele>
        <time>2019-08-15T07:47:08.698Z</time>
      </trkpt>
      <trkpt lat="48.96614" lon="0.75038">
        <ele>123</ele>
        <time>2019-08-15T07:47:09.691Z</time>
      </trkpt>
      <trkpt lat="48.9661" lon="0.75033">
        <ele>123</ele>
        <time>2019-08-15T07:47:10.693Z</time>
      </trkpt>
      <trkpt lat="48.9661" lon="0.75033">
        <ele>123</ele>
        <time>2019-08-15T07:47:11.691Z</time>
      </trkpt>
      <trkpt lat="48.96606" lon="0.7503">
        <ele>123</ele>
        <time>2019-08-15T07:47:12.699Z</time>
      </trkpt>
      <trkpt lat="48.96606" lon="0.7503">
        <ele>123</ele>
        <time>2019-08-15T07:47:13.691Z</time>
      </trkpt>
      <trkpt lat="48.96602" lon="0.75025">
        <ele>122</ele>
        <time>2019-08-15T07:47:14.709Z</time>
      </trkpt>
      <trkpt lat="48.96599" lon="0.75023">
        <ele>123</ele>
        <time>2019-08-15T07:47:15.698Z</time>
      </trkpt>
      <trkpt lat="48.96599" lon="0.75023">
        <ele>123</ele>
        <time>2019-08-15T07:47:16.691Z</time>
      </trkpt>
      <trkpt lat="48.96595" lon="0.75018">
        <ele>122</ele>
        <time>2019-08-15T07:47:17.699Z</time>
      </trkpt>
      <trkpt lat="48.96595" lon="0.75018">
        <ele>122</ele>
        <time>2019-08-15T07:47:18.705Z</time>
      </trkpt>
      <trkpt lat="48.9659" lon="0.75015">
        <ele>122</ele>
        <time>2019-08-15T07:47:19.708Z</time>
      </trkpt>
      <trkpt lat="48.96588" lon="0.75013">
        <ele>122</ele>
        <time>2019-08-15T07:47:20.700Z</time>
      </trkpt>
      <trkpt lat="48.96588" lon="0.75013">
        <ele>122</ele>
        <time>2019-08-15T07:47:21.699Z</time>
      </trkpt>
      <trkpt lat="48.96583" lon="0.75012">
        <ele>122</ele>
        <time>2019-08-15T07:47:22.709Z</time>
      </trkpt>
      <trkpt lat="48.96583" lon="0.75012">
        <ele>122</ele>
        <time>2019-08-15T07:47:23.702Z</time>
      </trkpt>
      <trkpt lat="48.96578" lon="0.7501">
        <ele>123</ele>
        <time>2019-08-15T07:47:24.700Z</time>
      </trkpt>
      <trkpt lat="48.96576" lon="0.7501">
        <ele>123</ele>
        <time>2019-08-15T07:47:25.701Z</time>
      </trkpt>
      <trkpt lat="48.96576" lon="0.7501">
        <ele>123</ele>
        <time>2019-08-15T07:47:26.701Z</time>
      </trkpt>
      <trkpt lat="48.96571" lon="0.75008">
        <ele>124</ele>
        <time>2019-08-15T07:47:27.702Z</time>
      </trkpt>
      <trkpt lat="48.96571" lon="0.75008">
        <ele>124</ele>
        <time>2019-08-15T07:47:28.693Z</time>
      </trkpt>
      <trkpt lat="48.96566" lon="0.75007">
        <ele>125</ele>
        <time>2019-08-15T07:47:29.701Z</time>
      </trkpt>
      <trkpt lat="48.96564" lon="0.75006">
        <ele>125</ele>
        <time>2019-08-15T07:47:30.702Z</time>
      </trkpt>
      <trkpt lat="48.96564" lon="0.75006">
        <ele>125</ele>
        <time>2019-08-15T07:47:31.704Z</time>
      </trkpt>
      <trkpt lat="48.96559" lon="0.75004">
        <ele>127</ele>
        <time>2019-08-15T07:47:32.700Z</time>
      </trkpt>
      <trkpt lat="48.96556" lon="0.75004">
        <ele>127</ele>
        <time>2019-08-15T07:47:33.702Z</time>
      </trkpt>
      <trkpt lat="48.96556" lon="0.75004">
        <ele>127</ele>
        <time>2019-08-15T07:47:34.699Z</time>
      </trkpt>
      <trkpt lat="48.96551" lon="0.75004">
        <ele>129</ele>
        <time>2019-08-15T07:47:35.691Z</time>
      </trkpt>
      <trkpt lat="48.96548" lon="0.75003">
        <ele>129</ele>
        <time>2019-08-15T07:47:36.700Z</time>
      </trkpt>
      <trkpt lat="48.96548" lon="0.75003">
        <ele>129</ele>
        <time>2019-08-15T07:47:37.699Z</time>
      </trkpt>
      <trkpt lat="48.96544" lon="0.75">
        <ele>130</ele>
        <time>2019-08-15T07:47:38.700Z</time>
      </trkpt>
      <trkpt lat="48.96544" lon="0.75">
        <ele>130</ele>
        <time>2019-08-15T07:47:39.690Z</time>
      </trkpt>
      <trkpt lat="48.96539" lon="0.74999">
        <ele>130</ele>
        <time>2019-08-15T07:47:40.701Z</time>
      </trkpt>
      <trkpt lat="48.96539" lon="0.74999">
        <ele>130</ele>
        <time>2019-08-15T07:47:41.694Z</time>
      </trkpt>
      <trkpt lat="48.96533" lon="0.75">
        <ele>130</ele>
        <time>2019-08-15T07:47:42.700Z</time>
      </trkpt>
      <trkpt lat="48.96533" lon="0.75">
        <ele>130</ele>
        <time>2019-08-15T07:47:43.689Z</time>
      </trkpt>
      <trkpt lat="48.96528" lon="0.74999">
        <ele>130</ele>
        <time>2019-08-15T07:47:44.699Z</time>
      </trkpt>
      <trkpt lat="48.96528" lon="0.74999">
        <ele>130</ele>
        <time>2019-08-15T07:47:45.704Z</time>
      </trkpt>
      <trkpt lat="48.96524" lon="0.74999">
        <ele>130</ele>
        <time>2019-08-15T07:47:46.679Z</time>
      </trkpt>
      <trkpt lat="48.96524" lon="0.74999">
        <ele>130</ele>
        <time>2019-08-15T07:47:47.691Z</time>
      </trkpt>
      <trkpt lat="48.9652" lon="0.75001">
        <ele>131</ele>
        <time>2019-08-15T07:47:48.699Z</time>
      </trkpt>
      <trkpt lat="48.9652" lon="0.75001">
        <ele>131</ele>
        <time>2019-08-15T07:47:49.692Z</time>
      </trkpt>
      <trkpt lat="48.96515" lon="0.75002">
        <ele>131</ele>
        <time>2019-08-15T07:47:50.710Z</time>
      </trkpt>
      <trkpt lat="48.96515" lon="0.75002">
        <ele>131</ele>
        <time>2019-08-15T07:47:51.689Z</time>
      </trkpt>
      <trkpt lat="48.9651" lon="0.75001">
        <ele>131</ele>
        <time>2019-08-15T07:47:52.701Z</time>
      </trkpt>
      <trkpt lat="48.9651" lon="0.75001">
        <ele>131</ele>
        <time>2019-08-15T07:47:53.689Z</time>
      </trkpt>
      <trkpt lat="48.96504" lon="0.75001">
        <ele>130</ele>
        <time>2019-08-15T07:47:54.699Z</time>
      </trkpt>
      <trkpt lat="48.96504" lon="0.75001">
        <ele>130</ele>
        <time>2019-08-15T07:47:55.693Z</time>
      </trkpt>
      <trkpt lat="48.96499" lon="0.74998">
        <ele>129</ele>
        <time>2019-08-15T07:47:56.699Z</time>
      </trkpt>
      <trkpt lat="48.96499" lon="0.74998">
        <ele>129</ele>
        <time>2019-08-15T07:47:57.703Z</time>
      </trkpt>
      <trkpt lat="48.96494" lon="0.74998">
        <ele>130</ele>
        <time>2019-08-15T07:47:58.699Z</time>
      </trkpt>
      <trkpt lat="48.96494" lon="0.74998">
        <ele>130</ele>
        <time>2019-08-15T07:47:59.688Z</time>
      </trkpt>
      <trkpt lat="48.9649" lon="0.75">
        <ele>130</ele>
        <time>2019-08-15T07:48:00.698Z</time>
      </trkpt>
      <trkpt lat="48.9649" lon="0.75">
        <ele>130</ele>
        <time>2019-08-15T07:48:01.689Z</time>
      </trkpt>
      <trkpt lat="48.96486" lon="0.75001">
        <ele>130</ele>
        <time>2019-08-15T07:48:02.699Z</time>
      </trkpt>
      <trkpt lat="48.96486" lon="0.75001">
        <ele>130</ele>
        <time>2019-08-15T07:48:03.699Z</time>
      </trkpt>
      <trkpt lat="48.96481" lon="0.75002">
        <ele>130</ele>
        <time>2019-08-15T07:48:04.700Z</time>
      </trkpt>
      <trkpt lat="48.96481" lon="0.75002">
        <ele>130</ele>
        <time>2019-08-15T07:48:05.690Z</time>
      </trkpt>
      <trkpt lat="48.96476" lon="0.75003">
        <ele>131</ele>
        <time>2019-08-15T07:48:06.699Z</time>
      </trkpt>
      <trkpt lat="48.96476" lon="0.75003">
        <ele>131</ele>
        <time>2019-08-15T07:48:07.692Z</time>
      </trkpt>
      <trkpt lat="48.96472" lon="0.75003">
        <ele>130</ele>
        <time>2019-08-15T07:48:08.699Z</time>
      </trkpt>
      <trkpt lat="48.96472" lon="0.75003">
        <ele>130</ele>
        <time>2019-08-15T07:48:09.689Z</time>
      </trkpt>
      <trkpt lat="48.96468" lon="0.75002">
        <ele>130</ele>
        <time>2019-08-15T07:48:10.699Z</time>
      </trkpt>
      <trkpt lat="48.96468" lon="0.75002">
        <ele>130</ele>
        <time>2019-08-15T07:48:11.689Z</time>
      </trkpt>
      <trkpt lat="48.96465" lon="0.74999">
        <ele>129</ele>
        <time>2019-08-15T07:48:12.699Z</time>
      </trkpt>
      <trkpt lat="48.96465" lon="0.74999">
        <ele>129</ele>
        <time>2019-08-15T07:48:13.689Z</time>
      </trkpt>
      <trkpt lat="48.96464" lon="0.74994">
        <ele>130</ele>
        <time>2019-08-15T07:48:14.698Z</time>
      </trkpt>
      <trkpt lat="48.96464" lon="0.74994">
        <ele>130</ele>
        <time>2019-08-15T07:48:15.692Z</time>
      </trkpt>
      <trkpt lat="48.96464" lon="0.7499">
        <ele>130</ele>
        <time>2019-08-15T07:48:16.698Z</time>
      </trkpt>
      <trkpt lat="48.96464" lon="0.7499">
        <ele>130</ele>
        <time>2019-08-15T07:48:17.689Z</time>
      </trkpt>
      <trkpt lat="48.96465" lon="0.74984">
        <ele>130</ele>
        <time>2019-08-15T07:48:18.699Z</time>
      </trkpt>
      <trkpt lat="48.96466" lon="0.74983">
        <ele>130</ele>
        <time>2019-08-15T07:48:19.700Z</time>
      </trkpt>
      <trkpt lat="48.96466" lon="0.74983">
        <ele>130</ele>
        <time>2019-08-15T07:48:20.689Z</time>
      </trkpt>
      <trkpt lat="48.96466" lon="0.7498">
        <ele>130</ele>
        <time>2019-08-15T07:48:21.699Z</time>
      </trkpt>
      <trkpt lat="48.96466" lon="0.7498">
        <ele>130</ele>
        <time>2019-08-15T07:48:22.691Z</time>
      </trkpt>
      <trkpt lat="48.96464" lon="0.74976">
        <ele>130</ele>
        <time>2019-08-15T07:48:23.701Z</time>
      </trkpt>
      <trkpt lat="48.96463" lon="0.74973">
        <ele>129</ele>
        <time>2019-08-15T07:48:24.699Z</time>
      </trkpt>
      <trkpt lat="48.96463" lon="0.74973">
        <ele>129</ele>
        <time>2019-08-15T07:48:25.692Z</time>
      </trkpt>
      <trkpt lat="48.9646" lon="0.74972">
        <ele>129</ele>
        <time>2019-08-15T07:48:26.698Z</time>
      </trkpt>
      <trkpt lat="48.9646" lon="0.74972">
        <ele>129</ele>
        <time>2019-08-15T07:48:27.689Z</time>
      </trkpt>
      <trkpt lat="48.96456" lon="0.74974">
        <ele>130</ele>
        <time>2019-08-15T07:48:28.699Z</time>
      </trkpt>
      <trkpt lat="48.96456" lon="0.74974">
        <ele>130</ele>
        <time>2019-08-15T07:48:29.689Z</time>
      </trkpt>
      <trkpt lat="48.96453" lon="0.74976">
        <ele>130</ele>
        <time>2019-08-15T07:48:30.699Z</time>
      </trkpt>
      <trkpt lat="48.96453" lon="0.74976">
        <ele>130</ele>
        <time>2019-08-15T07:48:31.691Z</time>
      </trkpt>
      <trkpt lat="48.96451" lon="0.74978">
        <ele>130</ele>
        <time>2019-08-15T07:48:32.701Z</time>
      </trkpt>
      <trkpt lat="48.96451" lon="0.74978">
        <ele>130</ele>
        <time>2019-08-15T07:48:33.689Z</time>
      </trkpt>
      <trkpt lat="48.96449" lon="0.74978">
        <ele>130</ele>
        <time>2019-08-15T07:48:34.698Z</time>
      </trkpt>
      <trkpt lat="48.96449" lon="0.74978">
        <ele>130</ele>
        <time>2019-08-15T07:48:35.689Z</time>
      </trkpt>
      <trkpt lat="48.96448" lon="0.74977">
        <ele>129</ele>
        <time>2019-08-15T07:48:36.699Z</time>
      </trkpt>
      <trkpt lat="48.96448" lon="0.74977">
        <ele>129</ele>
        <time>2019-08-15T07:48:37.689Z</time>
      </trkpt>
      <trkpt lat="48.96443" lon="0.74975">
        <ele>129</ele>
        <time>2019-08-15T07:48:38.699Z</time>
      </trkpt>
      <trkpt lat="48.96443" lon="0.74975">
        <ele>129</ele>
        <time>2019-08-15T07:48:39.690Z</time>
      </trkpt>
      <trkpt lat="48.9644" lon="0.74973">
        <ele>129</ele>
        <time>2019-08-15T07:48:40.699Z</time>
      </trkpt>
      <trkpt lat="48.9644" lon="0.74973">
        <ele>129</ele>
        <time>2019-08-15T07:48:41.690Z</time>
      </trkpt>
      <trkpt lat="48.96437" lon="0.74971">
        <ele>129</ele>
        <time>2019-08-15T07:48:42.699Z</time>
      </trkpt>
      <trkpt lat="48.96437" lon="0.74971">
        <ele>129</ele>
        <time>2019-08-15T07:48:43.689Z</time>
      </trkpt>
      <trkpt lat="48.96434" lon="0.7497">
        <ele>129</ele>
        <time>2019-08-15T07:48:44.699Z</time>
      </trkpt>
      <trkpt lat="48.96434" lon="0.7497">
        <ele>129</ele>
        <time>2019-08-15T07:48:45.693Z</time>
      </trkpt>
      <trkpt lat="48.96429" lon="0.74967">
        <ele>129</ele>
        <time>2019-08-15T07:48:46.717Z</time>
      </trkpt>
      <trkpt lat="48.96429" lon="0.74967">
        <ele>129</ele>
        <time>2019-08-15T07:48:47.707Z</time>
      </trkpt>
      <trkpt lat="48.96426" lon="0.74965">
        <ele>128</ele>
        <time>2019-08-15T07:48:48.700Z</time>
      </trkpt>
      <trkpt lat="48.96426" lon="0.74965">
        <ele>128</ele>
        <time>2019-08-15T07:48:49.689Z</time>
      </trkpt>
      <trkpt lat="48.96422" lon="0.74962">
        <ele>128</ele>
        <time>2019-08-15T07:48:50.709Z</time>
      </trkpt>
      <trkpt lat="48.96422" lon="0.74962">
        <ele>128</ele>
        <time>2019-08-15T07:48:51.689Z</time>
      </trkpt>
      <trkpt lat="48.96419" lon="0.74958">
        <ele>129</ele>
        <time>2019-08-15T07:48:52.699Z</time>
      </trkpt>
      <trkpt lat="48.96419" lon="0.74958">
        <ele>129</ele>
        <time>2019-08-15T07:48:53.689Z</time>
      </trkpt>
      <trkpt lat="48.96415" lon="0.74955">
        <ele>128</ele>
        <time>2019-08-15T07:48:54.698Z</time>
      </trkpt>
      <trkpt lat="48.96415" lon="0.74955">
        <ele>128</ele>
        <time>2019-08-15T07:48:55.691Z</time>
      </trkpt>
      <trkpt lat="48.96412" lon="0.74952">
        <ele>128</ele>
        <time>2019-08-15T07:48:56.699Z</time>
      </trkpt>
      <trkpt lat="48.96412" lon="0.74952">
        <ele>128</ele>
        <time>2019-08-15T07:48:57.689Z</time>
      </trkpt>
      <trkpt lat="48.96409" lon="0.74949">
        <ele>128</ele>
        <time>2019-08-15T07:48:58.699Z</time>
      </trkpt>
      <trkpt lat="48.96409" lon="0.74949">
        <ele>128</ele>
        <time>2019-08-15T07:48:59.689Z</time>
      </trkpt>
      <trkpt lat="48.96405" lon="0.74946">
        <ele>127</ele>
        <time>2019-08-15T07:49:00.699Z</time>
      </trkpt>
      <trkpt lat="48.96403" lon="0.74945">
        <ele>128</ele>
        <time>2019-08-15T07:49:01.693Z</time>
      </trkpt>
      <trkpt lat="48.96403" lon="0.74945">
        <ele>128</ele>
        <time>2019-08-15T07:49:02.691Z</time>
      </trkpt>
      <trkpt lat="48.96398" lon="0.74941">
        <ele>127</ele>
        <time>2019-08-15T07:49:03.698Z</time>
      </trkpt>
      <trkpt lat="48.96398" lon="0.74941">
        <ele>127</ele>
        <time>2019-08-15T07:49:04.689Z</time>
      </trkpt>
      <trkpt lat="48.96394" lon="0.7494">
        <ele>127</ele>
        <time>2019-08-15T07:49:05.706Z</time>
      </trkpt>
      <trkpt lat="48.96392" lon="0.74938">
        <ele>127</ele>
        <time>2019-08-15T07:49:06.698Z</time>
      </trkpt>
      <trkpt lat="48.96392" lon="0.74938">
        <ele>127</ele>
        <time>2019-08-15T07:49:07.689Z</time>
      </trkpt>
      <trkpt lat="48.96388" lon="0.74937">
        <ele>127</ele>
        <time>2019-08-15T07:49:08.691Z</time>
      </trkpt>
      <trkpt lat="48.96388" lon="0.74937">
        <ele>127</ele>
        <time>2019-08-15T07:49:09.691Z</time>
      </trkpt>
      <trkpt lat="48.96385" lon="0.74936">
        <ele>127</ele>
        <time>2019-08-15T07:49:10.699Z</time>
      </trkpt>
      <trkpt lat="48.96385" lon="0.74936">
        <ele>127</ele>
        <time>2019-08-15T07:49:11.689Z</time>
      </trkpt>
      <trkpt lat="48.96382" lon="0.74932">
        <ele>127</ele>
        <time>2019-08-15T07:49:12.699Z</time>
      </trkpt>
      <trkpt lat="48.9638" lon="0.74929">
        <ele>126</ele>
        <time>2019-08-15T07:49:13.693Z</time>
      </trkpt>
      <trkpt lat="48.96379" lon="0.74927">
        <ele>126</ele>
        <time>2019-08-15T07:49:14.699Z</time>
      </trkpt>
      <trkpt lat="48.96379" lon="0.74927">
        <ele>126</ele>
        <time>2019-08-15T07:49:15.691Z</time>
      </trkpt>
      <trkpt lat="48.96374" lon="0.74923">
        <ele>126</ele>
        <time>2019-08-15T07:49:16.699Z</time>
      </trkpt>
      <trkpt lat="48.96374" lon="0.74923">
        <ele>126</ele>
        <time>2019-08-15T07:49:17.700Z</time>
      </trkpt>
      <trkpt lat="48.96369" lon="0.74919">
        <ele>126</ele>
        <time>2019-08-15T07:49:18.698Z</time>
      </trkpt>
      <trkpt lat="48.96369" lon="0.74919">
        <ele>126</ele>
        <time>2019-08-15T07:49:19.690Z</time>
      </trkpt>
      <trkpt lat="48.96363" lon="0.74915">
        <ele>128</ele>
        <time>2019-08-15T07:49:20.699Z</time>
      </trkpt>
      <trkpt lat="48.96363" lon="0.74915">
        <ele>128</ele>
        <time>2019-08-15T07:49:21.689Z</time>
      </trkpt>
      <trkpt lat="48.96357" lon="0.74912">
        <ele>129</ele>
        <time>2019-08-15T07:49:22.699Z</time>
      </trkpt>
      <trkpt lat="48.96357" lon="0.74912">
        <ele>129</ele>
        <time>2019-08-15T07:49:23.690Z</time>
      </trkpt>
      <trkpt lat="48.96356" lon="0.74912">
        <ele>130</ele>
        <time>2019-08-15T07:49:24.698Z</time>
      </trkpt>
      <trkpt lat="48.96356" lon="0.74912">
        <ele>130</ele>
        <time>2019-08-15T07:49:25.692Z</time>
      </trkpt>
      <trkpt lat="48.96355" lon="0.74912">
        <ele>130</ele>
        <time>2019-08-15T07:49:26.699Z</time>
      </trkpt>
      <trkpt lat="48.96355" lon="0.74912">
        <ele>130</ele>
        <time>2019-08-15T07:49:27.688Z</time>
      </trkpt>
      <trkpt lat="48.96355" lon="0.74912">
        <ele>130</ele>
        <time>2019-08-15T07:49:28.706Z</time>
      </trkpt>
      <trkpt lat="48.96337" lon="0.74911">
        <ele>151</ele>
        <time>2019-08-15T07:49:29.708Z</time>
      </trkpt>
      <trkpt lat="48.96336" lon="0.7491">
        <ele>151</ele>
        <time>2019-08-15T07:49:30.712Z</time>
      </trkpt>
      <trkpt lat="48.96336" lon="0.7491">
        <ele>151</ele>
        <time>2019-08-15T07:49:31.705Z</time>
      </trkpt>
      <trkpt lat="48.96335" lon="0.74907">
        <ele>151</ele>
        <time>2019-08-15T07:49:32.712Z</time>
      </trkpt>
      <trkpt lat="48.96335" lon="0.74907">
        <ele>151</ele>
        <time>2019-08-15T07:49:33.707Z</time>
      </trkpt>
      <trkpt lat="48.96331" lon="0.74905">
        <ele>151</ele>
        <time>2019-08-15T07:49:34.711Z</time>
      </trkpt>
      <trkpt lat="48.96329" lon="0.74904">
        <ele>151</ele>
        <time>2019-08-15T07:49:35.711Z</time>
      </trkpt>
      <trkpt lat="48.96329" lon="0.74904">
        <ele>151</ele>
        <time>2019-08-15T07:49:36.706Z</time>
      </trkpt>
      <trkpt lat="48.96326" lon="0.74903">
        <ele>152</ele>
        <time>2019-08-15T07:49:37.711Z</time>
      </trkpt>
      <trkpt lat="48.96325" lon="0.749">
        <ele>152</ele>
        <time>2019-08-15T07:49:38.717Z</time>
      </trkpt>
      <trkpt lat="48.96325" lon="0.749">
        <ele>152</ele>
        <time>2019-08-15T07:49:39.706Z</time>
      </trkpt>
      <trkpt lat="48.96321" lon="0.74898">
        <ele>151</ele>
        <time>2019-08-15T07:49:40.710Z</time>
      </trkpt>
      <trkpt lat="48.9632" lon="0.74897">
        <ele>151</ele>
        <time>2019-08-15T07:49:41.712Z</time>
      </trkpt>
      <trkpt lat="48.9632" lon="0.74897">
        <ele>151</ele>
        <time>2019-08-15T07:49:42.707Z</time>
      </trkpt>
      <trkpt lat="48.96317" lon="0.74893">
        <ele>152</ele>
        <time>2019-08-15T07:49:43.683Z</time>
      </trkpt>
      <trkpt lat="48.96314" lon="0.74892">
        <ele>152</ele>
        <time>2019-08-15T07:49:44.678Z</time>
      </trkpt>
      <trkpt lat="48.96314" lon="0.74892">
        <ele>152</ele>
        <time>2019-08-15T07:49:45.706Z</time>
      </trkpt>
      <trkpt lat="48.9631" lon="0.7489">
        <ele>152</ele>
        <time>2019-08-15T07:49:46.710Z</time>
      </trkpt>
      <trkpt lat="48.96309" lon="0.74889">
        <ele>152</ele>
        <time>2019-08-15T07:49:47.708Z</time>
      </trkpt>
      <trkpt lat="48.96306" lon="0.74887">
        <ele>152</ele>
        <time>2019-08-15T07:49:48.678Z</time>
      </trkpt>
      <trkpt lat="48.96306" lon="0.74887">
        <ele>152</ele>
        <time>2019-08-15T07:49:49.708Z</time>
      </trkpt>
      <trkpt lat="48.96303" lon="0.74884">
        <ele>152</ele>
        <time>2019-08-15T07:49:50.710Z</time>
      </trkpt>
      <trkpt lat="48.96302" lon="0.74883">
        <ele>152</ele>
        <time>2019-08-15T07:49:51.688Z</time>
      </trkpt>
      <trkpt lat="48.96302" lon="0.74883">
        <ele>152</ele>
        <time>2019-08-15T07:49:52.717Z</time>
      </trkpt>
      <trkpt lat="48.963" lon="0.74877">
        <ele>152</ele>
        <time>2019-08-15T07:49:53.708Z</time>
      </trkpt>
      <trkpt lat="48.96297" lon="0.74875">
        <ele>152</ele>
        <time>2019-08-15T07:49:54.717Z</time>
      </trkpt>
      <trkpt lat="48.96297" lon="0.74875">
        <ele>152</ele>
        <time>2019-08-15T07:49:55.705Z</time>
      </trkpt>
      <trkpt lat="48.96296" lon="0.74872">
        <ele>152</ele>
        <time>2019-08-15T07:49:56.709Z</time>
      </trkpt>
      <trkpt lat="48.96296" lon="0.74872">
        <ele>152</ele>
        <time>2019-08-15T07:49:57.705Z</time>
      </trkpt>
      <trkpt lat="48.96293" lon="0.74867">
        <ele>152</ele>
        <time>2019-08-15T07:49:58.711Z</time>
      </trkpt>
      <trkpt lat="48.96293" lon="0.74867">
        <ele>152</ele>
        <time>2019-08-15T07:49:59.705Z</time>
      </trkpt>
      <trkpt lat="48.9629" lon="0.74862">
        <ele>152</ele>
        <time>2019-08-15T07:50:00.716Z</time>
      </trkpt>
      <trkpt lat="48.9629" lon="0.74862">
        <ele>152</ele>
        <time>2019-08-15T07:50:01.706Z</time>
      </trkpt>
      <trkpt lat="48.96287" lon="0.74856">
        <ele>153</ele>
        <time>2019-08-15T07:50:02.712Z</time>
      </trkpt>
      <trkpt lat="48.96287" lon="0.74856">
        <ele>153</ele>
        <time>2019-08-15T07:50:03.707Z</time>
      </trkpt>
      <trkpt lat="48.96283" lon="0.7485">
        <ele>153</ele>
        <time>2019-08-15T07:50:04.711Z</time>
      </trkpt>
      <trkpt lat="48.96283" lon="0.7485">
        <ele>153</ele>
        <time>2019-08-15T07:50:05.705Z</time>
      </trkpt>
      <trkpt lat="48.9628" lon="0.74843">
        <ele>154</ele>
        <time>2019-08-15T07:50:06.712Z</time>
      </trkpt>
      <trkpt lat="48.96279" lon="0.74839">
        <ele>154</ele>
        <time>2019-08-15T07:50:07.711Z</time>
      </trkpt>
      <trkpt lat="48.96279" lon="0.74839">
        <ele>154</ele>
        <time>2019-08-15T07:50:08.709Z</time>
      </trkpt>
      <trkpt lat="48.96275" lon="0.74831">
        <ele>154</ele>
        <time>2019-08-15T07:50:09.707Z</time>
      </trkpt>
      <trkpt lat="48.96275" lon="0.74831">
        <ele>154</ele>
        <time>2019-08-15T07:50:10.706Z</time>
      </trkpt>
      <trkpt lat="48.96273" lon="0.74825">
        <ele>155</ele>
        <time>2019-08-15T07:50:11.711Z</time>
      </trkpt>
      <trkpt lat="48.96274" lon="0.74824">
        <ele>155</ele>
        <time>2019-08-15T07:50:12.716Z</time>
      </trkpt>
      <trkpt lat="48.96274" lon="0.74824">
        <ele>155</ele>
        <time>2019-08-15T07:50:13.705Z</time>
      </trkpt>
      <trkpt lat="48.96274" lon="0.74823">
        <ele>155</ele>
        <time>2019-08-15T07:50:14.716Z</time>
      </trkpt>
      <trkpt lat="48.96274" lon="0.74823">
        <ele>155</ele>
        <time>2019-08-15T07:50:15.705Z</time>
      </trkpt>
      <trkpt lat="48.96273" lon="0.74823">
        <ele>155</ele>
        <time>2019-08-15T07:50:16.703Z</time>
      </trkpt>
      <trkpt lat="48.96274" lon="0.74823">
        <ele>155</ele>
        <time>2019-08-15T07:50:17.712Z</time>
      </trkpt>
      <trkpt lat="48.96274" lon="0.74824">
        <ele>155</ele>
        <time>2019-08-15T07:50:18.716Z</time>
      </trkpt>
      <trkpt lat="48.96274" lon="0.74824">
        <ele>155</ele>
        <time>2019-08-15T07:50:19.708Z</time>
      </trkpt>
      <trkpt lat="48.96274" lon="0.74824">
        <ele>156</ele>
        <time>2019-08-15T07:50:20.711Z</time>
      </trkpt>
      <trkpt lat="48.96274" lon="0.74824">
        <ele>156</ele>
        <time>2019-08-15T07:50:21.706Z</time>
      </trkpt>
      <trkpt lat="48.96275" lon="0.74825">
        <ele>156</ele>
        <time>2019-08-15T07:50:22.707Z</time>
      </trkpt>
      <trkpt lat="48.96276" lon="0.74825">
        <ele>156</ele>
        <time>2019-08-15T07:50:23.712Z</time>
      </trkpt>
      <trkpt lat="48.96276" lon="0.74825">
        <ele>156</ele>
        <time>2019-08-15T07:50:24.716Z</time>
      </trkpt>
      <trkpt lat="48.96277" lon="0.74825">
        <ele>156</ele>
        <time>2019-08-15T07:50:25.711Z</time>
      </trkpt>
      <trkpt lat="48.96277" lon="0.74825">
        <ele>156</ele>
        <time>2019-08-15T07:50:26.717Z</time>
      </trkpt>
      <trkpt lat="48.96281" lon="0.74822">
        <ele>156</ele>
        <time>2019-08-15T07:50:27.707Z</time>
      </trkpt>
      <trkpt lat="48.96281" lon="0.74822">
        <ele>156</ele>
        <time>2019-08-15T07:50:28.707Z</time>
      </trkpt>
      <trkpt lat="48.96285" lon="0.7482">
        <ele>157</ele>
        <time>2019-08-15T07:50:29.716Z</time>
      </trkpt>
      <trkpt lat="48.96285" lon="0.7482">
        <ele>157</ele>
        <time>2019-08-15T07:50:30.706Z</time>
      </trkpt>
      <trkpt lat="48.96288" lon="0.74819">
        <ele>157</ele>
        <time>2019-08-15T07:50:31.707Z</time>
      </trkpt>
      <trkpt lat="48.96289" lon="0.74817">
        <ele>157</ele>
        <time>2019-08-15T07:50:32.716Z</time>
      </trkpt>
      <trkpt lat="48.96289" lon="0.74817">
        <ele>157</ele>
        <time>2019-08-15T07:50:33.708Z</time>
      </trkpt>
      <trkpt lat="48.96293" lon="0.74814">
        <ele>158</ele>
        <time>2019-08-15T07:50:34.712Z</time>
      </trkpt>
      <trkpt lat="48.96293" lon="0.74814">
        <ele>158</ele>
        <time>2019-08-15T07:50:35.705Z</time>
      </trkpt>
      <trkpt lat="48.96297" lon="0.74812">
        <ele>158</ele>
        <time>2019-08-15T07:50:36.716Z</time>
      </trkpt>
      <trkpt lat="48.96297" lon="0.74812">
        <ele>158</ele>
        <time>2019-08-15T07:50:37.706Z</time>
      </trkpt>
      <trkpt lat="48.96301" lon="0.74812">
        <ele>159</ele>
        <time>2019-08-15T07:50:38.711Z</time>
      </trkpt>
      <trkpt lat="48.96301" lon="0.74812">
        <ele>159</ele>
        <time>2019-08-15T07:50:39.706Z</time>
      </trkpt>
      <trkpt lat="48.96306" lon="0.74809">
        <ele>161</ele>
        <time>2019-08-15T07:50:40.711Z</time>
      </trkpt>
      <trkpt lat="48.96308" lon="0.74809">
        <ele>161</ele>
        <time>2019-08-15T07:50:41.712Z</time>
      </trkpt>
      <trkpt lat="48.96308" lon="0.74809">
        <ele>161</ele>
        <time>2019-08-15T07:50:42.707Z</time>
      </trkpt>
      <trkpt lat="48.96312" lon="0.74808">
        <ele>162</ele>
        <time>2019-08-15T07:50:43.710Z</time>
      </trkpt>
      <trkpt lat="48.96314" lon="0.74806">
        <ele>162</ele>
        <time>2019-08-15T07:50:44.711Z</time>
      </trkpt>
      <trkpt lat="48.96314" lon="0.74806">
        <ele>162</ele>
        <time>2019-08-15T07:50:45.698Z</time>
      </trkpt>
      <trkpt lat="48.96318" lon="0.74802">
        <ele>163</ele>
        <time>2019-08-15T07:50:46.685Z</time>
      </trkpt>
      <trkpt lat="48.96318" lon="0.74801">
        <ele>163</ele>
        <time>2019-08-15T07:50:47.711Z</time>
      </trkpt>
      <trkpt lat="48.96318" lon="0.74799">
        <ele>164</ele>
        <time>2019-08-15T07:50:48.717Z</time>
      </trkpt>
      <trkpt lat="48.96318" lon="0.74799">
        <ele>164</ele>
        <time>2019-08-15T07:50:49.708Z</time>
      </trkpt>
      <trkpt lat="48.96315" lon="0.74795">
        <ele>164</ele>
        <time>2019-08-15T07:50:50.690Z</time>
      </trkpt>
      <trkpt lat="48.96315" lon="0.74795">
        <ele>164</ele>
        <time>2019-08-15T07:50:51.707Z</time>
      </trkpt>
      <trkpt lat="48.96313" lon="0.74788">
        <ele>164</ele>
        <time>2019-08-15T07:50:52.711Z</time>
      </trkpt>
      <trkpt lat="48.96313" lon="0.74788">
        <ele>164</ele>
        <time>2019-08-15T07:50:53.705Z</time>
      </trkpt>
      <trkpt lat="48.96311" lon="0.74783">
        <ele>164</ele>
        <time>2019-08-15T07:50:54.717Z</time>
      </trkpt>
      <trkpt lat="48.96311" lon="0.74783">
        <ele>164</ele>
        <time>2019-08-15T07:50:55.707Z</time>
      </trkpt>
      <trkpt lat="48.96309" lon="0.74779">
        <ele>165</ele>
        <time>2019-08-15T07:50:56.715Z</time>
      </trkpt>
      <trkpt lat="48.96309" lon="0.74779">
        <ele>165</ele>
        <time>2019-08-15T07:50:57.709Z</time>
      </trkpt>
      <trkpt lat="48.96307" lon="0.74777">
        <ele>165</ele>
        <time>2019-08-15T07:50:58.678Z</time>
      </trkpt>
      <trkpt lat="48.96307" lon="0.74777">
        <ele>165</ele>
        <time>2019-08-15T07:50:59.705Z</time>
      </trkpt>
      <trkpt lat="48.96304" lon="0.74772">
        <ele>166</ele>
        <time>2019-08-15T07:51:00.716Z</time>
      </trkpt>
      <trkpt lat="48.96304" lon="0.74772">
        <ele>166</ele>
        <time>2019-08-15T07:51:01.705Z</time>
      </trkpt>
      <trkpt lat="48.96303" lon="0.74763">
        <ele>166</ele>
        <time>2019-08-15T07:51:02.711Z</time>
      </trkpt>
      <trkpt lat="48.96303" lon="0.74763">
        <ele>166</ele>
        <time>2019-08-15T07:51:03.706Z</time>
      </trkpt>
      <trkpt lat="48.96305" lon="0.74755">
        <ele>166</ele>
        <time>2019-08-15T07:51:04.707Z</time>
      </trkpt>
      <trkpt lat="48.96307" lon="0.74752">
        <ele>166</ele>
        <time>2019-08-15T07:51:05.712Z</time>
      </trkpt>
      <trkpt lat="48.9631" lon="0.7475">
        <ele>166</ele>
        <time>2019-08-15T07:51:06.717Z</time>
      </trkpt>
      <trkpt lat="48.9631" lon="0.7475">
        <ele>166</ele>
        <time>2019-08-15T07:51:07.708Z</time>
      </trkpt>
      <trkpt lat="48.96315" lon="0.74746">
        <ele>167</ele>
        <time>2019-08-15T07:51:08.712Z</time>
      </trkpt>
      <trkpt lat="48.96315" lon="0.74746">
        <ele>167</ele>
        <time>2019-08-15T07:51:09.698Z</time>
      </trkpt>
      <trkpt lat="48.96318" lon="0.74739">
        <ele>167</ele>
        <time>2019-08-15T07:51:10.680Z</time>
      </trkpt>
      <trkpt lat="48.96318" lon="0.74739">
        <ele>167</ele>
        <time>2019-08-15T07:51:11.706Z</time>
      </trkpt>
      <trkpt lat="48.96322" lon="0.74734">
        <ele>167</ele>
        <time>2019-08-15T07:51:12.716Z</time>
      </trkpt>
      <trkpt lat="48.96322" lon="0.74734">
        <ele>167</ele>
        <time>2019-08-15T07:51:13.707Z</time>
      </trkpt>
      <trkpt lat="48.96325" lon="0.74725">
        <ele>167</ele>
        <time>2019-08-15T07:51:14.710Z</time>
      </trkpt>
      <trkpt lat="48.96325" lon="0.74725">
        <ele>167</ele>
        <time>2019-08-15T07:51:15.709Z</time>
      </trkpt>
      <trkpt lat="48.96327" lon="0.74717">
        <ele>168</ele>
        <time>2019-08-15T07:51:16.713Z</time>
      </trkpt>
      <trkpt lat="48.96328" lon="0.74713">
        <ele>168</ele>
        <time>2019-08-15T07:51:17.679Z</time>
      </trkpt>
      <trkpt lat="48.9633" lon="0.74708">
        <ele>168</ele>
        <time>2019-08-15T07:51:18.716Z</time>
      </trkpt>
      <trkpt lat="48.9633" lon="0.74708">
        <ele>168</ele>
        <time>2019-08-15T07:51:19.705Z</time>
      </trkpt>
      <trkpt lat="48.96331" lon="0.74698">
        <ele>169</ele>
        <time>2019-08-15T07:51:20.711Z</time>
      </trkpt>
      <trkpt lat="48.96331" lon="0.74698">
        <ele>169</ele>
        <time>2019-08-15T07:51:21.707Z</time>
      </trkpt>
      <trkpt lat="48.96333" lon="0.74689">
        <ele>170</ele>
        <time>2019-08-15T07:51:22.707Z</time>
      </trkpt>
      <trkpt lat="48.96333" lon="0.74684">
        <ele>169</ele>
        <time>2019-08-15T07:51:23.711Z</time>
      </trkpt>
      <trkpt lat="48.96334" lon="0.74679">
        <ele>169</ele>
        <time>2019-08-15T07:51:24.716Z</time>
      </trkpt>
      <trkpt lat="48.96334" lon="0.74679">
        <ele>169</ele>
        <time>2019-08-15T07:51:25.705Z</time>
      </trkpt>
      <trkpt lat="48.96334" lon="0.74669">
        <ele>170</ele>
        <time>2019-08-15T07:51:26.711Z</time>
      </trkpt>
      <trkpt lat="48.96334" lon="0.74669">
        <ele>170</ele>
        <time>2019-08-15T07:51:27.706Z</time>
      </trkpt>
      <trkpt lat="48.96336" lon="0.7466">
        <ele>170</ele>
        <time>2019-08-15T07:51:28.712Z</time>
      </trkpt>
      <trkpt lat="48.96336" lon="0.74655">
        <ele>170</ele>
        <time>2019-08-15T07:51:29.708Z</time>
      </trkpt>
      <trkpt lat="48.96336" lon="0.74651">
        <ele>171</ele>
        <time>2019-08-15T07:51:30.717Z</time>
      </trkpt>
      <trkpt lat="48.96336" lon="0.74651">
        <ele>171</ele>
        <time>2019-08-15T07:51:31.705Z</time>
      </trkpt>
      <trkpt lat="48.96337" lon="0.74641">
        <ele>170</ele>
        <time>2019-08-15T07:51:32.711Z</time>
      </trkpt>
      <trkpt lat="48.96337" lon="0.74641">
        <ele>170</ele>
        <time>2019-08-15T07:51:33.706Z</time>
      </trkpt>
      <trkpt lat="48.96338" lon="0.74631">
        <ele>169</ele>
        <time>2019-08-15T07:51:34.707Z</time>
      </trkpt>
      <trkpt lat="48.96338" lon="0.74626">
        <ele>169</ele>
        <time>2019-08-15T07:51:35.712Z</time>
      </trkpt>
      <trkpt lat="48.96338" lon="0.7462">
        <ele>170</ele>
        <time>2019-08-15T07:51:36.716Z</time>
      </trkpt>
      <trkpt lat="48.96338" lon="0.7462">
        <ele>170</ele>
        <time>2019-08-15T07:51:37.717Z</time>
      </trkpt>
      <trkpt lat="48.96338" lon="0.7461">
        <ele>170</ele>
        <time>2019-08-15T07:51:38.716Z</time>
      </trkpt>
      <trkpt lat="48.96338" lon="0.7461">
        <ele>170</ele>
        <time>2019-08-15T07:51:39.706Z</time>
      </trkpt>
      <trkpt lat="48.96338" lon="0.74599">
        <ele>171</ele>
        <time>2019-08-15T07:51:40.717Z</time>
      </trkpt>
      <trkpt lat="48.96338" lon="0.74599">
        <ele>171</ele>
        <time>2019-08-15T07:51:41.705Z</time>
      </trkpt>
      <trkpt lat="48.96338" lon="0.74588">
        <ele>171</ele>
        <time>2019-08-15T07:51:42.716Z</time>
      </trkpt>
      <trkpt lat="48.96338" lon="0.74588">
        <ele>171</ele>
        <time>2019-08-15T07:51:43.705Z</time>
      </trkpt>
      <trkpt lat="48.96338" lon="0.74578">
        <ele>172</ele>
        <time>2019-08-15T07:51:44.711Z</time>
      </trkpt>
      <trkpt lat="48.96338" lon="0.74578">
        <ele>172</ele>
        <time>2019-08-15T07:51:45.706Z</time>
      </trkpt>
      <trkpt lat="48.96338" lon="0.74567">
        <ele>172</ele>
        <time>2019-08-15T07:51:46.711Z</time>
      </trkpt>
      <trkpt lat="48.96339" lon="0.74561">
        <ele>172</ele>
        <time>2019-08-15T07:51:47.710Z</time>
      </trkpt>
      <trkpt lat="48.96339" lon="0.74561">
        <ele>172</ele>
        <time>2019-08-15T07:51:48.708Z</time>
      </trkpt>
      <trkpt lat="48.96341" lon="0.74551">
        <ele>172</ele>
        <time>2019-08-15T07:51:49.711Z</time>
      </trkpt>
      <trkpt lat="48.96341" lon="0.74551">
        <ele>172</ele>
        <time>2019-08-15T07:51:50.702Z</time>
      </trkpt>
      <trkpt lat="48.96344" lon="0.7454">
        <ele>172</ele>
        <time>2019-08-15T07:51:51.687Z</time>
      </trkpt>
      <trkpt lat="48.96344" lon="0.7454">
        <ele>172</ele>
        <time>2019-08-15T07:51:52.717Z</time>
      </trkpt>
      <trkpt lat="48.96348" lon="0.74532">
        <ele>172</ele>
        <time>2019-08-15T07:51:53.708Z</time>
      </trkpt>
      <trkpt lat="48.96351" lon="0.74527">
        <ele>172</ele>
        <time>2019-08-15T07:51:54.712Z</time>
      </trkpt>
      <trkpt lat="48.96351" lon="0.74527">
        <ele>172</ele>
        <time>2019-08-15T07:51:55.707Z</time>
      </trkpt>
      <trkpt lat="48.96356" lon="0.7452">
        <ele>173</ele>
        <time>2019-08-15T07:51:56.711Z</time>
      </trkpt>
      <trkpt lat="48.96356" lon="0.7452">
        <ele>173</ele>
        <time>2019-08-15T07:51:57.707Z</time>
      </trkpt>
      <trkpt lat="48.96361" lon="0.74513">
        <ele>173</ele>
        <time>2019-08-15T07:51:58.710Z</time>
      </trkpt>
      <trkpt lat="48.96361" lon="0.74513">
        <ele>173</ele>
        <time>2019-08-15T07:51:59.706Z</time>
      </trkpt>
      <trkpt lat="48.96365" lon="0.74505">
        <ele>173</ele>
        <time>2019-08-15T07:52:00.717Z</time>
      </trkpt>
      <trkpt lat="48.96365" lon="0.74505">
        <ele>173</ele>
        <time>2019-08-15T07:52:01.706Z</time>
      </trkpt>
      <trkpt lat="48.96371" lon="0.74498">
        <ele>174</ele>
        <time>2019-08-15T07:52:02.712Z</time>
      </trkpt>
      <trkpt lat="48.96371" lon="0.74498">
        <ele>174</ele>
        <time>2019-08-15T07:52:03.706Z</time>
      </trkpt>
      <trkpt lat="48.96376" lon="0.7449">
        <ele>174</ele>
        <time>2019-08-15T07:52:04.711Z</time>
      </trkpt>
      <trkpt lat="48.96378" lon="0.74486">
        <ele>174</ele>
        <time>2019-08-15T07:52:05.712Z</time>
      </trkpt>
      <trkpt lat="48.96378" lon="0.74486">
        <ele>174</ele>
        <time>2019-08-15T07:52:06.706Z</time>
      </trkpt>
      <trkpt lat="48.96383" lon="0.74479">
        <ele>174</ele>
        <time>2019-08-15T07:52:07.711Z</time>
      </trkpt>
      <trkpt lat="48.96383" lon="0.74479">
        <ele>174</ele>
        <time>2019-08-15T07:52:08.708Z</time>
      </trkpt>
      <trkpt lat="48.96388" lon="0.74471">
        <ele>174</ele>
        <time>2019-08-15T07:52:09.707Z</time>
      </trkpt>
      <trkpt lat="48.9639" lon="0.74467">
        <ele>174</ele>
        <time>2019-08-15T07:52:10.711Z</time>
      </trkpt>
      <trkpt lat="48.9639" lon="0.74467">
        <ele>174</ele>
        <time>2019-08-15T07:52:11.706Z</time>
      </trkpt>
      <trkpt lat="48.96391" lon="0.74458">
        <ele>174</ele>
        <time>2019-08-15T07:52:12.716Z</time>
      </trkpt>
      <trkpt lat="48.9639" lon="0.74453">
        <ele>174</ele>
        <time>2019-08-15T07:52:13.711Z</time>
      </trkpt>
      <trkpt lat="48.9639" lon="0.74453">
        <ele>174</ele>
        <time>2019-08-15T07:52:14.709Z</time>
      </trkpt>
      <trkpt lat="48.96386" lon="0.74444">
        <ele>174</ele>
        <time>2019-08-15T07:52:15.712Z</time>
      </trkpt>
      <trkpt lat="48.96386" lon="0.74444">
        <ele>174</ele>
        <time>2019-08-15T07:52:16.698Z</time>
      </trkpt>
      <trkpt lat="48.96383" lon="0.74435">
        <ele>174</ele>
        <time>2019-08-15T07:52:17.697Z</time>
      </trkpt>
      <trkpt lat="48.9638" lon="0.7443">
        <ele>174</ele>
        <time>2019-08-15T07:52:18.687Z</time>
      </trkpt>
      <trkpt lat="48.9638" lon="0.7443">
        <ele>174</ele>
        <time>2019-08-15T07:52:19.712Z</time>
      </trkpt>
      <trkpt lat="48.96376" lon="0.74422">
        <ele>174</ele>
        <time>2019-08-15T07:52:20.712Z</time>
      </trkpt>
      <trkpt lat="48.96376" lon="0.74422">
        <ele>174</ele>
        <time>2019-08-15T07:52:21.705Z</time>
      </trkpt>
      <trkpt lat="48.96371" lon="0.74414">
        <ele>174</ele>
        <time>2019-08-15T07:52:22.678Z</time>
      </trkpt>
      <trkpt lat="48.96371" lon="0.74414">
        <ele>174</ele>
        <time>2019-08-15T07:52:23.707Z</time>
      </trkpt>
      <trkpt lat="48.96367" lon="0.74406">
        <ele>174</ele>
        <time>2019-08-15T07:52:24.716Z</time>
      </trkpt>
      <trkpt lat="48.96367" lon="0.74406">
        <ele>174</ele>
        <time>2019-08-15T07:52:25.705Z</time>
      </trkpt>
      <trkpt lat="48.96362" lon="0.74398">
        <ele>174</ele>
        <time>2019-08-15T07:52:26.711Z</time>
      </trkpt>
      <trkpt lat="48.96362" lon="0.74398">
        <ele>174</ele>
        <time>2019-08-15T07:52:27.687Z</time>
      </trkpt>
      <trkpt lat="48.96357" lon="0.7439">
        <ele>174</ele>
        <time>2019-08-15T07:52:28.678Z</time>
      </trkpt>
      <trkpt lat="48.96357" lon="0.7439">
        <ele>174</ele>
        <time>2019-08-15T07:52:29.707Z</time>
      </trkpt>
      <trkpt lat="48.96352" lon="0.74382">
        <ele>174</ele>
        <time>2019-08-15T07:52:30.716Z</time>
      </trkpt>
      <trkpt lat="48.96352" lon="0.74382">
        <ele>174</ele>
        <time>2019-08-15T07:52:31.704Z</time>
      </trkpt>
      <trkpt lat="48.96347" lon="0.74373">
        <ele>174</ele>
        <time>2019-08-15T07:52:32.711Z</time>
      </trkpt>
      <trkpt lat="48.96347" lon="0.74373">
        <ele>174</ele>
        <time>2019-08-15T07:52:33.705Z</time>
      </trkpt>
      <trkpt lat="48.96343" lon="0.74364">
        <ele>174</ele>
        <time>2019-08-15T07:52:34.711Z</time>
      </trkpt>
      <trkpt lat="48.96343" lon="0.74364">
        <ele>174</ele>
        <time>2019-08-15T07:52:35.706Z</time>
      </trkpt>
      <trkpt lat="48.96338" lon="0.74356">
        <ele>174</ele>
        <time>2019-08-15T07:52:36.716Z</time>
      </trkpt>
      <trkpt lat="48.96338" lon="0.74356">
        <ele>174</ele>
        <time>2019-08-15T07:52:37.708Z</time>
      </trkpt>
      <trkpt lat="48.96334" lon="0.74348">
        <ele>174</ele>
        <time>2019-08-15T07:52:38.711Z</time>
      </trkpt>
      <trkpt lat="48.96334" lon="0.74348">
        <ele>174</ele>
        <time>2019-08-15T07:52:39.705Z</time>
      </trkpt>
      <trkpt lat="48.96328" lon="0.74341">
        <ele>174</ele>
        <time>2019-08-15T07:52:40.710Z</time>
      </trkpt>
      <trkpt lat="48.96328" lon="0.74341">
        <ele>174</ele>
        <time>2019-08-15T07:52:41.704Z</time>
      </trkpt>
      <trkpt lat="48.96322" lon="0.74335">
        <ele>174</ele>
        <time>2019-08-15T07:52:42.716Z</time>
      </trkpt>
      <trkpt lat="48.96322" lon="0.74335">
        <ele>174</ele>
        <time>2019-08-15T07:52:43.705Z</time>
      </trkpt>
      <trkpt lat="48.96317" lon="0.7433">
        <ele>174</ele>
        <time>2019-08-15T07:52:44.708Z</time>
      </trkpt>
      <trkpt lat="48.96317" lon="0.7433">
        <ele>174</ele>
        <time>2019-08-15T07:52:45.705Z</time>
      </trkpt>
      <trkpt lat="48.9631" lon="0.74326">
        <ele>174</ele>
        <time>2019-08-15T07:52:46.716Z</time>
      </trkpt>
      <trkpt lat="48.9631" lon="0.74326">
        <ele>174</ele>
        <time>2019-08-15T07:52:47.711Z</time>
      </trkpt>
      <trkpt lat="48.96304" lon="0.7432">
        <ele>175</ele>
        <time>2019-08-15T07:52:48.712Z</time>
      </trkpt>
      <trkpt lat="48.96304" lon="0.7432">
        <ele>175</ele>
        <time>2019-08-15T07:52:49.706Z</time>
      </trkpt>
      <trkpt lat="48.96298" lon="0.74315">
        <ele>175</ele>
        <time>2019-08-15T07:52:50.712Z</time>
      </trkpt>
      <trkpt lat="48.96298" lon="0.74315">
        <ele>175</ele>
        <time>2019-08-15T07:52:51.678Z</time>
      </trkpt>
      <trkpt lat="48.96291" lon="0.74311">
        <ele>175</ele>
        <time>2019-08-15T07:52:52.707Z</time>
      </trkpt>
      <trkpt lat="48.96288" lon="0.74309">
        <ele>174</ele>
        <time>2019-08-15T07:52:53.708Z</time>
      </trkpt>
      <trkpt lat="48.96285" lon="0.74307">
        <ele>174</ele>
        <time>2019-08-15T07:52:54.716Z</time>
      </trkpt>
      <trkpt lat="48.96285" lon="0.74307">
        <ele>174</ele>
        <time>2019-08-15T07:52:55.708Z</time>
      </trkpt>
      <trkpt lat="48.96279" lon="0.74303">
        <ele>175</ele>
        <time>2019-08-15T07:52:56.711Z</time>
      </trkpt>
      <trkpt lat="48.96279" lon="0.74303">
        <ele>175</ele>
        <time>2019-08-15T07:52:57.717Z</time>
      </trkpt>
      <trkpt lat="48.96272" lon="0.74299">
        <ele>174</ele>
        <time>2019-08-15T07:52:58.711Z</time>
      </trkpt>
      <trkpt lat="48.96269" lon="0.74297">
        <ele>175</ele>
        <time>2019-08-15T07:52:59.707Z</time>
      </trkpt>
      <trkpt lat="48.96266" lon="0.74295">
        <ele>175</ele>
        <time>2019-08-15T07:53:00.712Z</time>
      </trkpt>
      <trkpt lat="48.96266" lon="0.74295">
        <ele>175</ele>
        <time>2019-08-15T07:53:01.705Z</time>
      </trkpt>
      <trkpt lat="48.96259" lon="0.7429">
        <ele>175</ele>
        <time>2019-08-15T07:53:02.712Z</time>
      </trkpt>
      <trkpt lat="48.96259" lon="0.7429">
        <ele>175</ele>
        <time>2019-08-15T07:53:03.710Z</time>
      </trkpt>
      <trkpt lat="48.96253" lon="0.74285">
        <ele>175</ele>
        <time>2019-08-15T07:53:04.710Z</time>
      </trkpt>
      <trkpt lat="48.9625" lon="0.74283">
        <ele>175</ele>
        <time>2019-08-15T07:53:05.711Z</time>
      </trkpt>
      <trkpt lat="48.9625" lon="0.74283">
        <ele>175</ele>
        <time>2019-08-15T07:53:06.707Z</time>
      </trkpt>
      <trkpt lat="48.96244" lon="0.74277">
        <ele>175</ele>
        <time>2019-08-15T07:53:07.717Z</time>
      </trkpt>
      <trkpt lat="48.96241" lon="0.74275">
        <ele>175</ele>
        <time>2019-08-15T07:53:08.710Z</time>
      </trkpt>
      <trkpt lat="48.96241" lon="0.74275">
        <ele>175</ele>
        <time>2019-08-15T07:53:09.704Z</time>
      </trkpt>
      <trkpt lat="48.96235" lon="0.7427">
        <ele>175</ele>
        <time>2019-08-15T07:53:10.707Z</time>
      </trkpt>
      <trkpt lat="48.96232" lon="0.74267">
        <ele>175</ele>
        <time>2019-08-15T07:53:11.716Z</time>
      </trkpt>
      <trkpt lat="48.96229" lon="0.74264">
        <ele>176</ele>
        <time>2019-08-15T07:53:12.716Z</time>
      </trkpt>
      <trkpt lat="48.96229" lon="0.74264">
        <ele>176</ele>
        <time>2019-08-15T07:53:13.705Z</time>
      </trkpt>
      <trkpt lat="48.96223" lon="0.74259">
        <ele>176</ele>
        <time>2019-08-15T07:53:14.710Z</time>
      </trkpt>
      <trkpt lat="48.96223" lon="0.74259">
        <ele>176</ele>
        <time>2019-08-15T07:53:15.704Z</time>
      </trkpt>
      <trkpt lat="48.96217" lon="0.74252">
        <ele>176</ele>
        <time>2019-08-15T07:53:16.710Z</time>
      </trkpt>
      <trkpt lat="48.96217" lon="0.74252">
        <ele>176</ele>
        <time>2019-08-15T07:53:17.715Z</time>
      </trkpt>
      <trkpt lat="48.96211" lon="0.74246">
        <ele>176</ele>
        <time>2019-08-15T07:53:18.716Z</time>
      </trkpt>
      <trkpt lat="48.96211" lon="0.74246">
        <ele>176</ele>
        <time>2019-08-15T07:53:19.708Z</time>
      </trkpt>
      <trkpt lat="48.96205" lon="0.74241">
        <ele>176</ele>
        <time>2019-08-15T07:53:20.711Z</time>
      </trkpt>
      <trkpt lat="48.96205" lon="0.74241">
        <ele>176</ele>
        <time>2019-08-15T07:53:21.708Z</time>
      </trkpt>
      <trkpt lat="48.96199" lon="0.74236">
        <ele>176</ele>
        <time>2019-08-15T07:53:22.708Z</time>
      </trkpt>
      <trkpt lat="48.96199" lon="0.74236">
        <ele>176</ele>
        <time>2019-08-15T07:53:23.707Z</time>
      </trkpt>
      <trkpt lat="48.96193" lon="0.74232">
        <ele>175</ele>
        <time>2019-08-15T07:53:24.712Z</time>
      </trkpt>
      <trkpt lat="48.96193" lon="0.74232">
        <ele>175</ele>
        <time>2019-08-15T07:53:25.705Z</time>
      </trkpt>
      <trkpt lat="48.96187" lon="0.74226">
        <ele>175</ele>
        <time>2019-08-15T07:53:26.711Z</time>
      </trkpt>
      <trkpt lat="48.96187" lon="0.74226">
        <ele>175</ele>
        <time>2019-08-15T07:53:27.707Z</time>
      </trkpt>
      <trkpt lat="48.9618" lon="0.74222">
        <ele>175</ele>
        <time>2019-08-15T07:53:28.712Z</time>
      </trkpt>
      <trkpt lat="48.9618" lon="0.74222">
        <ele>175</ele>
        <time>2019-08-15T07:53:29.707Z</time>
      </trkpt>
      <trkpt lat="48.96173" lon="0.74218">
        <ele>175</ele>
        <time>2019-08-15T07:53:30.716Z</time>
      </trkpt>
      <trkpt lat="48.96173" lon="0.74218">
        <ele>175</ele>
        <time>2019-08-15T07:53:31.706Z</time>
      </trkpt>
      <trkpt lat="48.96166" lon="0.74213">
        <ele>175</ele>
        <time>2019-08-15T07:53:32.711Z</time>
      </trkpt>
      <trkpt lat="48.96166" lon="0.74213">
        <ele>175</ele>
        <time>2019-08-15T07:53:33.706Z</time>
      </trkpt>
      <trkpt lat="48.96159" lon="0.74208">
        <ele>174</ele>
        <time>2019-08-15T07:53:34.707Z</time>
      </trkpt>
      <trkpt lat="48.96159" lon="0.74208">
        <ele>174</ele>
        <time>2019-08-15T07:53:35.707Z</time>
      </trkpt>
      <trkpt lat="48.96153" lon="0.74204">
        <ele>174</ele>
        <time>2019-08-15T07:53:36.712Z</time>
      </trkpt>
      <trkpt lat="48.96153" lon="0.74204">
        <ele>174</ele>
        <time>2019-08-15T07:53:37.705Z</time>
      </trkpt>
      <trkpt lat="48.96146" lon="0.74199">
        <ele>174</ele>
        <time>2019-08-15T07:53:38.711Z</time>
      </trkpt>
      <trkpt lat="48.96146" lon="0.74199">
        <ele>174</ele>
        <time>2019-08-15T07:53:39.705Z</time>
      </trkpt>
      <trkpt lat="48.96141" lon="0.74192">
        <ele>174</ele>
        <time>2019-08-15T07:53:40.711Z</time>
      </trkpt>
      <trkpt lat="48.96141" lon="0.74192">
        <ele>174</ele>
        <time>2019-08-15T07:53:41.706Z</time>
      </trkpt>
      <trkpt lat="48.96135" lon="0.74185">
        <ele>174</ele>
        <time>2019-08-15T07:53:42.716Z</time>
      </trkpt>
      <trkpt lat="48.96135" lon="0.74185">
        <ele>174</ele>
        <time>2019-08-15T07:53:43.706Z</time>
      </trkpt>
      <trkpt lat="48.9613" lon="0.74177">
        <ele>174</ele>
        <time>2019-08-15T07:53:44.711Z</time>
      </trkpt>
      <trkpt lat="48.9613" lon="0.74177">
        <ele>174</ele>
        <time>2019-08-15T07:53:45.705Z</time>
      </trkpt>
      <trkpt lat="48.96125" lon="0.74168">
        <ele>174</ele>
        <time>2019-08-15T07:53:46.706Z</time>
      </trkpt>
      <trkpt lat="48.96122" lon="0.74164">
        <ele>174</ele>
        <time>2019-08-15T07:53:47.711Z</time>
      </trkpt>
      <trkpt lat="48.96119" lon="0.7416">
        <ele>174</ele>
        <time>2019-08-15T07:53:48.716Z</time>
      </trkpt>
      <trkpt lat="48.96119" lon="0.7416">
        <ele>174</ele>
        <time>2019-08-15T07:53:49.705Z</time>
      </trkpt>
      <trkpt lat="48.96115" lon="0.74152">
        <ele>175</ele>
        <time>2019-08-15T07:53:50.682Z</time>
      </trkpt>
      <trkpt lat="48.96115" lon="0.74152">
        <ele>175</ele>
        <time>2019-08-15T07:53:51.680Z</time>
      </trkpt>
      <trkpt lat="48.96111" lon="0.74142">
        <ele>176</ele>
        <time>2019-08-15T07:53:52.712Z</time>
      </trkpt>
      <trkpt lat="48.96111" lon="0.74142">
        <ele>176</ele>
        <time>2019-08-15T07:53:53.706Z</time>
      </trkpt>
      <trkpt lat="48.96107" lon="0.74131">
        <ele>176</ele>
        <time>2019-08-15T07:53:54.716Z</time>
      </trkpt>
      <trkpt lat="48.96107" lon="0.74131">
        <ele>176</ele>
        <time>2019-08-15T07:53:55.707Z</time>
      </trkpt>
      <trkpt lat="48.96103" lon="0.7412">
        <ele>176</ele>
        <time>2019-08-15T07:53:56.710Z</time>
      </trkpt>
      <trkpt lat="48.96102" lon="0.74114">
        <ele>176</ele>
        <time>2019-08-15T07:53:57.716Z</time>
      </trkpt>
      <trkpt lat="48.96102" lon="0.74114">
        <ele>176</ele>
        <time>2019-08-15T07:53:58.678Z</time>
      </trkpt>
      <trkpt lat="48.961" lon="0.74104">
        <ele>176</ele>
        <time>2019-08-15T07:53:59.707Z</time>
      </trkpt>
      <trkpt lat="48.96099" lon="0.74098">
        <ele>176</ele>
        <time>2019-08-15T07:54:00.712Z</time>
      </trkpt>
      <trkpt lat="48.96099" lon="0.74098">
        <ele>176</ele>
        <time>2019-08-15T07:54:01.706Z</time>
      </trkpt>
      <trkpt lat="48.96096" lon="0.74087">
        <ele>176</ele>
        <time>2019-08-15T07:54:02.711Z</time>
      </trkpt>
      <trkpt lat="48.96096" lon="0.74087">
        <ele>176</ele>
        <time>2019-08-15T07:54:03.705Z</time>
      </trkpt>
      <trkpt lat="48.96094" lon="0.74075">
        <ele>177</ele>
        <time>2019-08-15T07:54:04.711Z</time>
      </trkpt>
      <trkpt lat="48.96094" lon="0.74075">
        <ele>177</ele>
        <time>2019-08-15T07:54:05.707Z</time>
      </trkpt>
      <trkpt lat="48.96091" lon="0.74063">
        <ele>177</ele>
        <time>2019-08-15T07:54:06.711Z</time>
      </trkpt>
      <trkpt lat="48.96091" lon="0.74063">
        <ele>177</ele>
        <time>2019-08-15T07:54:07.707Z</time>
      </trkpt>
      <trkpt lat="48.96089" lon="0.7405">
        <ele>177</ele>
        <time>2019-08-15T07:54:08.703Z</time>
      </trkpt>
      <trkpt lat="48.96087" lon="0.74044">
        <ele>177</ele>
        <time>2019-08-15T07:54:09.707Z</time>
      </trkpt>
      <trkpt lat="48.96086" lon="0.74038">
        <ele>177</ele>
        <time>2019-08-15T07:54:10.711Z</time>
      </trkpt>
      <trkpt lat="48.96084" lon="0.74032">
        <ele>177</ele>
        <time>2019-08-15T07:54:11.716Z</time>
      </trkpt>
      <trkpt lat="48.96082" lon="0.74025">
        <ele>176</ele>
        <time>2019-08-15T07:54:12.716Z</time>
      </trkpt>
      <trkpt lat="48.96082" lon="0.74025">
        <ele>176</ele>
        <time>2019-08-15T07:54:13.706Z</time>
      </trkpt>
      <trkpt lat="48.96079" lon="0.74014">
        <ele>176</ele>
        <time>2019-08-15T07:54:14.716Z</time>
      </trkpt>
      <trkpt lat="48.96079" lon="0.74014">
        <ele>176</ele>
        <time>2019-08-15T07:54:15.705Z</time>
      </trkpt>
      <trkpt lat="48.96077" lon="0.74002">
        <ele>176</ele>
        <time>2019-08-15T07:54:16.699Z</time>
      </trkpt>
      <trkpt lat="48.96077" lon="0.74002">
        <ele>176</ele>
        <time>2019-08-15T07:54:17.683Z</time>
      </trkpt>
      <trkpt lat="48.96075" lon="0.7399">
        <ele>175</ele>
        <time>2019-08-15T07:54:18.703Z</time>
      </trkpt>
      <trkpt lat="48.96074" lon="0.73985">
        <ele>174</ele>
        <time>2019-08-15T07:54:19.710Z</time>
      </trkpt>
      <trkpt lat="48.96073" lon="0.7398">
        <ele>174</ele>
        <time>2019-08-15T07:54:20.711Z</time>
      </trkpt>
      <trkpt lat="48.96073" lon="0.7398">
        <ele>174</ele>
        <time>2019-08-15T07:54:21.707Z</time>
      </trkpt>
      <trkpt lat="48.9607" lon="0.73969">
        <ele>174</ele>
        <time>2019-08-15T07:54:22.681Z</time>
      </trkpt>
      <trkpt lat="48.9607" lon="0.73969">
        <ele>174</ele>
        <time>2019-08-15T07:54:23.707Z</time>
      </trkpt>
      <trkpt lat="48.96069" lon="0.7396">
        <ele>174</ele>
        <time>2019-08-15T07:54:24.716Z</time>
      </trkpt>
      <trkpt lat="48.96069" lon="0.7396">
        <ele>174</ele>
        <time>2019-08-15T07:54:25.705Z</time>
      </trkpt>
      <trkpt lat="48.96068" lon="0.7395">
        <ele>174</ele>
        <time>2019-08-15T07:54:26.711Z</time>
      </trkpt>
      <trkpt lat="48.96068" lon="0.7395">
        <ele>174</ele>
        <time>2019-08-15T07:54:27.708Z</time>
      </trkpt>
      <trkpt lat="48.96066" lon="0.73939">
        <ele>173</ele>
        <time>2019-08-15T07:54:28.718Z</time>
      </trkpt>
      <trkpt lat="48.96066" lon="0.73939">
        <ele>173</ele>
        <time>2019-08-15T07:54:29.706Z</time>
      </trkpt>
      <trkpt lat="48.96063" lon="0.73927">
        <ele>172</ele>
        <time>2019-08-15T07:54:30.716Z</time>
      </trkpt>
      <trkpt lat="48.96063" lon="0.73927">
        <ele>172</ele>
        <time>2019-08-15T07:54:31.706Z</time>
      </trkpt>
      <trkpt lat="48.96058" lon="0.73915">
        <ele>171</ele>
        <time>2019-08-15T07:54:32.711Z</time>
      </trkpt>
      <trkpt lat="48.96058" lon="0.73915">
        <ele>171</ele>
        <time>2019-08-15T07:54:33.707Z</time>
      </trkpt>
      <trkpt lat="48.96055" lon="0.73905">
        <ele>170</ele>
        <time>2019-08-15T07:54:34.711Z</time>
      </trkpt>
      <trkpt lat="48.96055" lon="0.73905">
        <ele>170</ele>
        <time>2019-08-15T07:54:35.705Z</time>
      </trkpt>
      <trkpt lat="48.9605" lon="0.73893">
        <ele>169</ele>
        <time>2019-08-15T07:54:36.716Z</time>
      </trkpt>
      <trkpt lat="48.9605" lon="0.73893">
        <ele>169</ele>
        <time>2019-08-15T07:54:37.705Z</time>
      </trkpt>
      <trkpt lat="48.96046" lon="0.73881">
        <ele>168</ele>
        <time>2019-08-15T07:54:38.694Z</time>
      </trkpt>
      <trkpt lat="48.96046" lon="0.73881">
        <ele>168</ele>
        <time>2019-08-15T07:54:39.678Z</time>
      </trkpt>
      <trkpt lat="48.96042" lon="0.73869">
        <ele>167</ele>
        <time>2019-08-15T07:54:40.711Z</time>
      </trkpt>
      <trkpt lat="48.9604" lon="0.73863">
        <ele>167</ele>
        <time>2019-08-15T07:54:41.711Z</time>
      </trkpt>
      <trkpt lat="48.9604" lon="0.73863">
        <ele>167</ele>
        <time>2019-08-15T07:54:42.707Z</time>
      </trkpt>
      <trkpt lat="48.96035" lon="0.73852">
        <ele>166</ele>
        <time>2019-08-15T07:54:43.711Z</time>
      </trkpt>
      <trkpt lat="48.96035" lon="0.73852">
        <ele>166</ele>
        <time>2019-08-15T07:54:44.708Z</time>
      </trkpt>
      <trkpt lat="48.96029" lon="0.73839">
        <ele>166</ele>
        <time>2019-08-15T07:54:45.707Z</time>
      </trkpt>
      <trkpt lat="48.96029" lon="0.73839">
        <ele>166</ele>
        <time>2019-08-15T07:54:46.706Z</time>
      </trkpt>
      <trkpt lat="48.96023" lon="0.73826">
        <ele>166</ele>
        <time>2019-08-15T07:54:47.689Z</time>
      </trkpt>
      <trkpt lat="48.9602" lon="0.7382">
        <ele>167</ele>
        <time>2019-08-15T07:54:48.683Z</time>
      </trkpt>
      <trkpt lat="48.9602" lon="0.7382">
        <ele>167</ele>
        <time>2019-08-15T07:54:49.708Z</time>
      </trkpt>
      <trkpt lat="48.96014" lon="0.73809">
        <ele>167</ele>
        <time>2019-08-15T07:54:50.716Z</time>
      </trkpt>
      <trkpt lat="48.96014" lon="0.73809">
        <ele>167</ele>
        <time>2019-08-15T07:54:51.682Z</time>
      </trkpt>
      <trkpt lat="48.96008" lon="0.738">
        <ele>167</ele>
        <time>2019-08-15T07:54:52.716Z</time>
      </trkpt>
      <trkpt lat="48.96004" lon="0.73793">
        <ele>168</ele>
        <time>2019-08-15T07:54:53.708Z</time>
      </trkpt>
      <trkpt lat="48.96002" lon="0.73787">
        <ele>168</ele>
        <time>2019-08-15T07:54:54.716Z</time>
      </trkpt>
      <trkpt lat="48.96002" lon="0.73787">
        <ele>168</ele>
        <time>2019-08-15T07:54:55.706Z</time>
      </trkpt>
      <trkpt lat="48.95995" lon="0.73775">
        <ele>168</ele>
        <time>2019-08-15T07:54:56.710Z</time>
      </trkpt>
      <trkpt lat="48.95995" lon="0.73775">
        <ele>168</ele>
        <time>2019-08-15T07:54:57.706Z</time>
      </trkpt>
      <trkpt lat="48.9599" lon="0.73765">
        <ele>168</ele>
        <time>2019-08-15T07:54:58.711Z</time>
      </trkpt>
      <trkpt lat="48.95988" lon="0.73761">
        <ele>167</ele>
        <time>2019-08-15T07:54:59.707Z</time>
      </trkpt>
      <trkpt lat="48.95986" lon="0.73758">
        <ele>167</ele>
        <time>2019-08-15T07:55:00.716Z</time>
      </trkpt>
      <trkpt lat="48.95986" lon="0.73758">
        <ele>167</ele>
        <time>2019-08-15T07:55:01.705Z</time>
      </trkpt>
      <trkpt lat="48.95981" lon="0.7375">
        <ele>166</ele>
        <time>2019-08-15T07:55:02.711Z</time>
      </trkpt>
      <trkpt lat="48.95981" lon="0.7375">
        <ele>166</ele>
        <time>2019-08-15T07:55:03.707Z</time>
      </trkpt>
      <trkpt lat="48.95973" lon="0.73745">
        <ele>165</ele>
        <time>2019-08-15T07:55:04.711Z</time>
      </trkpt>
      <trkpt lat="48.95973" lon="0.73745">
        <ele>165</ele>
        <time>2019-08-15T07:55:05.708Z</time>
      </trkpt>
      <trkpt lat="48.95963" lon="0.73741">
        <ele>165</ele>
        <time>2019-08-15T07:55:06.710Z</time>
      </trkpt>
      <trkpt lat="48.95963" lon="0.73741">
        <ele>165</ele>
        <time>2019-08-15T07:55:07.704Z</time>
      </trkpt>
      <trkpt lat="48.95951" lon="0.73738">
        <ele>164</ele>
        <time>2019-08-15T07:55:08.714Z</time>
      </trkpt>
      <trkpt lat="48.95951" lon="0.73738">
        <ele>164</ele>
        <time>2019-08-15T07:55:09.707Z</time>
      </trkpt>
      <trkpt lat="48.95937" lon="0.73737">
        <ele>163</ele>
        <time>2019-08-15T07:55:10.710Z</time>
      </trkpt>
      <trkpt lat="48.9593" lon="0.73737">
        <ele>163</ele>
        <time>2019-08-15T07:55:11.686Z</time>
      </trkpt>
      <trkpt lat="48.9593" lon="0.73737">
        <ele>163</ele>
        <time>2019-08-15T07:55:12.710Z</time>
      </trkpt>
      <trkpt lat="48.95918" lon="0.73738">
        <ele>162</ele>
        <time>2019-08-15T07:55:13.710Z</time>
      </trkpt>
      <trkpt lat="48.95913" lon="0.73738">
        <ele>161</ele>
        <time>2019-08-15T07:55:14.712Z</time>
      </trkpt>
      <trkpt lat="48.95913" lon="0.73738">
        <ele>161</ele>
        <time>2019-08-15T07:55:15.705Z</time>
      </trkpt>
      <trkpt lat="48.95901" lon="0.73736">
        <ele>160</ele>
        <time>2019-08-15T07:55:16.707Z</time>
      </trkpt>
      <trkpt lat="48.95901" lon="0.73736">
        <ele>160</ele>
        <time>2019-08-15T07:55:17.706Z</time>
      </trkpt>
      <trkpt lat="48.95892" lon="0.73731">
        <ele>160</ele>
        <time>2019-08-15T07:55:18.719Z</time>
      </trkpt>
      <trkpt lat="48.95892" lon="0.73731">
        <ele>160</ele>
        <time>2019-08-15T07:55:19.678Z</time>
      </trkpt>
      <trkpt lat="48.95885" lon="0.73725">
        <ele>159</ele>
        <time>2019-08-15T07:55:20.711Z</time>
      </trkpt>
      <trkpt lat="48.95885" lon="0.73725">
        <ele>159</ele>
        <time>2019-08-15T07:55:21.707Z</time>
      </trkpt>
      <trkpt lat="48.95878" lon="0.73717">
        <ele>159</ele>
        <time>2019-08-15T07:55:22.709Z</time>
      </trkpt>
      <trkpt lat="48.95873" lon="0.73711">
        <ele>160</ele>
        <time>2019-08-15T07:55:23.716Z</time>
      </trkpt>
      <trkpt lat="48.95873" lon="0.73711">
        <ele>160</ele>
        <time>2019-08-15T07:55:24.706Z</time>
      </trkpt>
      <trkpt lat="48.95864" lon="0.737">
        <ele>160</ele>
        <time>2019-08-15T07:55:25.707Z</time>
      </trkpt>
      <trkpt lat="48.9586" lon="0.73694">
        <ele>161</ele>
        <time>2019-08-15T07:55:26.711Z</time>
      </trkpt>
      <trkpt lat="48.9586" lon="0.73694">
        <ele>161</ele>
        <time>2019-08-15T07:55:27.706Z</time>
      </trkpt>
      <trkpt lat="48.95851" lon="0.73683">
        <ele>162</ele>
        <time>2019-08-15T07:55:28.717Z</time>
      </trkpt>
      <trkpt lat="48.95851" lon="0.73683">
        <ele>162</ele>
        <time>2019-08-15T07:55:29.707Z</time>
      </trkpt>
      <trkpt lat="48.95842" lon="0.73671">
        <ele>162</ele>
        <time>2019-08-15T07:55:30.716Z</time>
      </trkpt>
      <trkpt lat="48.95842" lon="0.73671">
        <ele>162</ele>
        <time>2019-08-15T07:55:31.704Z</time>
      </trkpt>
      <trkpt lat="48.95834" lon="0.7366">
        <ele>163</ele>
        <time>2019-08-15T07:55:32.711Z</time>
      </trkpt>
      <trkpt lat="48.95834" lon="0.7366">
        <ele>163</ele>
        <time>2019-08-15T07:55:33.686Z</time>
      </trkpt>
      <trkpt lat="48.95827" lon="0.73649">
        <ele>164</ele>
        <time>2019-08-15T07:55:34.711Z</time>
      </trkpt>
      <trkpt lat="48.95823" lon="0.73644">
        <ele>164</ele>
        <time>2019-08-15T07:55:35.710Z</time>
      </trkpt>
      <trkpt lat="48.95819" lon="0.73639">
        <ele>165</ele>
        <time>2019-08-15T07:55:36.716Z</time>
      </trkpt>
      <trkpt lat="48.95819" lon="0.73639">
        <ele>165</ele>
        <time>2019-08-15T07:55:37.707Z</time>
      </trkpt>
      <trkpt lat="48.95812" lon="0.73629">
        <ele>165</ele>
        <time>2019-08-15T07:55:38.716Z</time>
      </trkpt>
      <trkpt lat="48.95812" lon="0.73629">
        <ele>165</ele>
        <time>2019-08-15T07:55:39.705Z</time>
      </trkpt>
      <trkpt lat="48.95804" lon="0.7362">
        <ele>166</ele>
        <time>2019-08-15T07:55:40.710Z</time>
      </trkpt>
      <trkpt lat="48.95804" lon="0.7362">
        <ele>166</ele>
        <time>2019-08-15T07:55:41.698Z</time>
      </trkpt>
      <trkpt lat="48.95796" lon="0.73611">
        <ele>167</ele>
        <time>2019-08-15T07:55:42.716Z</time>
      </trkpt>
      <trkpt lat="48.95796" lon="0.73611">
        <ele>167</ele>
        <time>2019-08-15T07:55:43.705Z</time>
      </trkpt>
      <trkpt lat="48.95788" lon="0.73602">
        <ele>168</ele>
        <time>2019-08-15T07:55:44.710Z</time>
      </trkpt>
      <trkpt lat="48.95788" lon="0.73602">
        <ele>168</ele>
        <time>2019-08-15T07:55:45.705Z</time>
      </trkpt>
      <trkpt lat="48.9578" lon="0.73594">
        <ele>168</ele>
        <time>2019-08-15T07:55:46.712Z</time>
      </trkpt>
      <trkpt lat="48.9578" lon="0.73594">
        <ele>168</ele>
        <time>2019-08-15T07:55:47.706Z</time>
      </trkpt>
      <trkpt lat="48.95773" lon="0.73586">
        <ele>169</ele>
        <time>2019-08-15T07:55:48.716Z</time>
      </trkpt>
      <trkpt lat="48.95773" lon="0.73586">
        <ele>169</ele>
        <time>2019-08-15T07:55:49.711Z</time>
      </trkpt>
      <trkpt lat="48.95765" lon="0.73577">
        <ele>169</ele>
        <time>2019-08-15T07:55:50.710Z</time>
      </trkpt>
      <trkpt lat="48.95765" lon="0.73577">
        <ele>169</ele>
        <time>2019-08-15T07:55:51.717Z</time>
      </trkpt>
      <trkpt lat="48.95758" lon="0.73569">
        <ele>170</ele>
        <time>2019-08-15T07:55:52.707Z</time>
      </trkpt>
      <trkpt lat="48.95758" lon="0.73569">
        <ele>170</ele>
        <time>2019-08-15T07:55:53.707Z</time>
      </trkpt>
      <trkpt lat="48.95751" lon="0.7356">
        <ele>170</ele>
        <time>2019-08-15T07:55:54.716Z</time>
      </trkpt>
      <trkpt lat="48.95751" lon="0.7356">
        <ele>170</ele>
        <time>2019-08-15T07:55:55.708Z</time>
      </trkpt>
      <trkpt lat="48.95744" lon="0.73552">
        <ele>170</ele>
        <time>2019-08-15T07:55:56.711Z</time>
      </trkpt>
      <trkpt lat="48.95744" lon="0.73552">
        <ele>170</ele>
        <time>2019-08-15T07:55:57.705Z</time>
      </trkpt>
      <trkpt lat="48.95737" lon="0.73542">
        <ele>170</ele>
        <time>2019-08-15T07:55:58.690Z</time>
      </trkpt>
      <trkpt lat="48.95733" lon="0.73538">
        <ele>170</ele>
        <time>2019-08-15T07:55:59.679Z</time>
      </trkpt>
      <trkpt lat="48.95733" lon="0.73538">
        <ele>170</ele>
        <time>2019-08-15T07:56:00.706Z</time>
      </trkpt>
      <trkpt lat="48.95725" lon="0.73528">
        <ele>170</ele>
        <time>2019-08-15T07:56:01.716Z</time>
      </trkpt>
      <trkpt lat="48.95725" lon="0.73528">
        <ele>170</ele>
        <time>2019-08-15T07:56:02.709Z</time>
      </trkpt>
      <trkpt lat="48.95717" lon="0.73519">
        <ele>170</ele>
        <time>2019-08-15T07:56:03.708Z</time>
      </trkpt>
      <trkpt lat="48.95717" lon="0.73519">
        <ele>170</ele>
        <time>2019-08-15T07:56:04.707Z</time>
      </trkpt>
      <trkpt lat="48.95709" lon="0.73509">
        <ele>170</ele>
        <time>2019-08-15T07:56:05.710Z</time>
      </trkpt>
      <trkpt lat="48.95704" lon="0.73505">
        <ele>170</ele>
        <time>2019-08-15T07:56:06.716Z</time>
      </trkpt>
      <trkpt lat="48.95704" lon="0.73505">
        <ele>170</ele>
        <time>2019-08-15T07:56:07.705Z</time>
      </trkpt>
      <trkpt lat="48.95696" lon="0.73496">
        <ele>170</ele>
        <time>2019-08-15T07:56:08.708Z</time>
      </trkpt>
      <trkpt lat="48.95696" lon="0.73496">
        <ele>170</ele>
        <time>2019-08-15T07:56:09.701Z</time>
      </trkpt>
      <trkpt lat="48.95687" lon="0.73488">
        <ele>170</ele>
        <time>2019-08-15T07:56:10.686Z</time>
      </trkpt>
      <trkpt lat="48.95687" lon="0.73488">
        <ele>170</ele>
        <time>2019-08-15T07:56:11.709Z</time>
      </trkpt>
      <trkpt lat="48.95679" lon="0.73479">
        <ele>170</ele>
        <time>2019-08-15T07:56:12.716Z</time>
      </trkpt>
      <trkpt lat="48.95679" lon="0.73479">
        <ele>170</ele>
        <time>2019-08-15T07:56:13.707Z</time>
      </trkpt>
      <trkpt lat="48.95671" lon="0.7347">
        <ele>170</ele>
        <time>2019-08-15T07:56:14.710Z</time>
      </trkpt>
      <trkpt lat="48.95671" lon="0.7347">
        <ele>170</ele>
        <time>2019-08-15T07:56:15.706Z</time>
      </trkpt>
      <trkpt lat="48.95664" lon="0.7346">
        <ele>170</ele>
        <time>2019-08-15T07:56:16.709Z</time>
      </trkpt>
      <trkpt lat="48.95661" lon="0.73455">
        <ele>171</ele>
        <time>2019-08-15T07:56:17.708Z</time>
      </trkpt>
      <trkpt lat="48.95661" lon="0.73455">
        <ele>171</ele>
        <time>2019-08-15T07:56:18.706Z</time>
      </trkpt>
      <trkpt lat="48.95654" lon="0.73445">
        <ele>171</ele>
        <time>2019-08-15T07:56:19.706Z</time>
      </trkpt>
      <trkpt lat="48.95651" lon="0.73439">
        <ele>171</ele>
        <time>2019-08-15T07:56:20.711Z</time>
      </trkpt>
      <trkpt lat="48.95651" lon="0.73439">
        <ele>171</ele>
        <time>2019-08-15T07:56:21.707Z</time>
      </trkpt>
      <trkpt lat="48.95646" lon="0.73428">
        <ele>171</ele>
        <time>2019-08-15T07:56:22.707Z</time>
      </trkpt>
      <trkpt lat="48.95646" lon="0.73428">
        <ele>171</ele>
        <time>2019-08-15T07:56:23.706Z</time>
      </trkpt>
      <trkpt lat="48.9564" lon="0.73416">
        <ele>171</ele>
        <time>2019-08-15T07:56:24.716Z</time>
      </trkpt>
      <trkpt lat="48.9564" lon="0.73416">
        <ele>171</ele>
        <time>2019-08-15T07:56:25.705Z</time>
      </trkpt>
      <trkpt lat="48.95635" lon="0.73406">
        <ele>171</ele>
        <time>2019-08-15T07:56:26.708Z</time>
      </trkpt>
      <trkpt lat="48.95635" lon="0.73406">
        <ele>171</ele>
        <time>2019-08-15T07:56:27.705Z</time>
      </trkpt>
      <trkpt lat="48.95629" lon="0.73395">
        <ele>171</ele>
        <time>2019-08-15T07:56:28.707Z</time>
      </trkpt>
      <trkpt lat="48.95629" lon="0.73395">
        <ele>171</ele>
        <time>2019-08-15T07:56:29.708Z</time>
      </trkpt>
      <trkpt lat="48.95624" lon="0.73384">
        <ele>172</ele>
        <time>2019-08-15T07:56:30.716Z</time>
      </trkpt>
      <trkpt lat="48.95624" lon="0.73384">
        <ele>172</ele>
        <time>2019-08-15T07:56:31.707Z</time>
      </trkpt>
      <trkpt lat="48.95619" lon="0.73373">
        <ele>171</ele>
        <time>2019-08-15T07:56:32.711Z</time>
      </trkpt>
      <trkpt lat="48.95619" lon="0.73373">
        <ele>171</ele>
        <time>2019-08-15T07:56:33.707Z</time>
      </trkpt>
      <trkpt lat="48.95613" lon="0.73364">
        <ele>171</ele>
        <time>2019-08-15T07:56:34.711Z</time>
      </trkpt>
      <trkpt lat="48.9561" lon="0.73359">
        <ele>171</ele>
        <time>2019-08-15T07:56:35.711Z</time>
      </trkpt>
      <trkpt lat="48.95607" lon="0.73354">
        <ele>171</ele>
        <time>2019-08-15T07:56:36.716Z</time>
      </trkpt>
      <trkpt lat="48.95607" lon="0.73354">
        <ele>171</ele>
        <time>2019-08-15T07:56:37.705Z</time>
      </trkpt>
      <trkpt lat="48.956" lon="0.73345">
        <ele>171</ele>
        <time>2019-08-15T07:56:38.709Z</time>
      </trkpt>
      <trkpt lat="48.95596" lon="0.73342">
        <ele>171</ele>
        <time>2019-08-15T07:56:39.710Z</time>
      </trkpt>
      <trkpt lat="48.95596" lon="0.73342">
        <ele>171</ele>
        <time>2019-08-15T07:56:40.707Z</time>
      </trkpt>
      <trkpt lat="48.95588" lon="0.73336">
        <ele>171</ele>
        <time>2019-08-15T07:56:41.710Z</time>
      </trkpt>
      <trkpt lat="48.95588" lon="0.73336">
        <ele>171</ele>
        <time>2019-08-15T07:56:42.706Z</time>
      </trkpt>
      <trkpt lat="48.9558" lon="0.73333">
        <ele>172</ele>
        <time>2019-08-15T07:56:43.709Z</time>
      </trkpt>
      <trkpt lat="48.95575" lon="0.73332">
        <ele>172</ele>
        <time>2019-08-15T07:56:44.688Z</time>
      </trkpt>
      <trkpt lat="48.95575" lon="0.73332">
        <ele>172</ele>
        <time>2019-08-15T07:56:45.716Z</time>
      </trkpt>
      <trkpt lat="48.95566" lon="0.7333">
        <ele>172</ele>
        <time>2019-08-15T07:56:46.678Z</time>
      </trkpt>
      <trkpt lat="48.95562" lon="0.73329">
        <ele>172</ele>
        <time>2019-08-15T07:56:47.710Z</time>
      </trkpt>
      <trkpt lat="48.95562" lon="0.73329">
        <ele>172</ele>
        <time>2019-08-15T07:56:48.710Z</time>
      </trkpt>
      <trkpt lat="48.95553" lon="0.73328">
        <ele>172</ele>
        <time>2019-08-15T07:56:49.717Z</time>
      </trkpt>
      <trkpt lat="48.95553" lon="0.73328">
        <ele>172</ele>
        <time>2019-08-15T07:56:50.704Z</time>
      </trkpt>
      <trkpt lat="48.95544" lon="0.73326">
        <ele>172</ele>
        <time>2019-08-15T07:56:51.716Z</time>
      </trkpt>
      <trkpt lat="48.95544" lon="0.73326">
        <ele>172</ele>
        <time>2019-08-15T07:56:52.706Z</time>
      </trkpt>
      <trkpt lat="48.95536" lon="0.73324">
        <ele>173</ele>
        <time>2019-08-15T07:56:53.711Z</time>
      </trkpt>
      <trkpt lat="48.95532" lon="0.73323">
        <ele>172</ele>
        <time>2019-08-15T07:56:54.716Z</time>
      </trkpt>
      <trkpt lat="48.95532" lon="0.73323">
        <ele>172</ele>
        <time>2019-08-15T07:56:55.705Z</time>
      </trkpt>
      <trkpt lat="48.95523" lon="0.73322">
        <ele>173</ele>
        <time>2019-08-15T07:56:56.710Z</time>
      </trkpt>
      <trkpt lat="48.95523" lon="0.73322">
        <ele>173</ele>
        <time>2019-08-15T07:56:57.708Z</time>
      </trkpt>
      <trkpt lat="48.95515" lon="0.73321">
        <ele>173</ele>
        <time>2019-08-15T07:56:58.682Z</time>
      </trkpt>
      <trkpt lat="48.95515" lon="0.73321">
        <ele>173</ele>
        <time>2019-08-15T07:56:59.716Z</time>
      </trkpt>
      <trkpt lat="48.95507" lon="0.73319">
        <ele>173</ele>
        <time>2019-08-15T07:57:00.716Z</time>
      </trkpt>
      <trkpt lat="48.95507" lon="0.73319">
        <ele>173</ele>
        <time>2019-08-15T07:57:01.704Z</time>
      </trkpt>
      <trkpt lat="48.95501" lon="0.73314">
        <ele>173</ele>
        <time>2019-08-15T07:57:02.711Z</time>
      </trkpt>
      <trkpt lat="48.95501" lon="0.73314">
        <ele>173</ele>
        <time>2019-08-15T07:57:03.707Z</time>
      </trkpt>
      <trkpt lat="48.95495" lon="0.73304">
        <ele>173</ele>
        <time>2019-08-15T07:57:04.709Z</time>
      </trkpt>
      <trkpt lat="48.95493" lon="0.73297">
        <ele>173</ele>
        <time>2019-08-15T07:57:05.710Z</time>
      </trkpt>
      <trkpt lat="48.95492" lon="0.73291">
        <ele>173</ele>
        <time>2019-08-15T07:57:06.708Z</time>
      </trkpt>
      <trkpt lat="48.95492" lon="0.73291">
        <ele>173</ele>
        <time>2019-08-15T07:57:07.707Z</time>
      </trkpt>
      <trkpt lat="48.95489" lon="0.73278">
        <ele>173</ele>
        <time>2019-08-15T07:57:08.716Z</time>
      </trkpt>
      <trkpt lat="48.95489" lon="0.73278">
        <ele>173</ele>
        <time>2019-08-15T07:57:09.711Z</time>
      </trkpt>
      <trkpt lat="48.95486" lon="0.73267">
        <ele>173</ele>
        <time>2019-08-15T07:57:10.711Z</time>
      </trkpt>
      <trkpt lat="48.95483" lon="0.73262">
        <ele>173</ele>
        <time>2019-08-15T07:57:11.707Z</time>
      </trkpt>
      <trkpt lat="48.95481" lon="0.73258">
        <ele>173</ele>
        <time>2019-08-15T07:57:12.716Z</time>
      </trkpt>
      <trkpt lat="48.95481" lon="0.73258">
        <ele>173</ele>
        <time>2019-08-15T07:57:13.705Z</time>
      </trkpt>
      <trkpt lat="48.95474" lon="0.73253">
        <ele>173</ele>
        <time>2019-08-15T07:57:14.711Z</time>
      </trkpt>
      <trkpt lat="48.95474" lon="0.73253">
        <ele>173</ele>
        <time>2019-08-15T07:57:15.707Z</time>
      </trkpt>
      <trkpt lat="48.95467" lon="0.73249">
        <ele>173</ele>
        <time>2019-08-15T07:57:16.711Z</time>
      </trkpt>
      <trkpt lat="48.95467" lon="0.73249">
        <ele>173</ele>
        <time>2019-08-15T07:57:17.708Z</time>
      </trkpt>
      <trkpt lat="48.95458" lon="0.73247">
        <ele>172</ele>
        <time>2019-08-15T07:57:18.716Z</time>
      </trkpt>
      <trkpt lat="48.95458" lon="0.73247">
        <ele>172</ele>
        <time>2019-08-15T07:57:19.707Z</time>
      </trkpt>
      <trkpt lat="48.95447" lon="0.73246">
        <ele>172</ele>
        <time>2019-08-15T07:57:20.711Z</time>
      </trkpt>
      <trkpt lat="48.95447" lon="0.73246">
        <ele>172</ele>
        <time>2019-08-15T07:57:21.708Z</time>
      </trkpt>
      <trkpt lat="48.95437" lon="0.73246">
        <ele>171</ele>
        <time>2019-08-15T07:57:22.706Z</time>
      </trkpt>
      <trkpt lat="48.95432" lon="0.73247">
        <ele>171</ele>
        <time>2019-08-15T07:57:23.707Z</time>
      </trkpt>
      <trkpt lat="48.95428" lon="0.73247">
        <ele>171</ele>
        <time>2019-08-15T07:57:24.716Z</time>
      </trkpt>
      <trkpt lat="48.95428" lon="0.73247">
        <ele>171</ele>
        <time>2019-08-15T07:57:25.707Z</time>
      </trkpt>
      <trkpt lat="48.95419" lon="0.73249">
        <ele>170</ele>
        <time>2019-08-15T07:57:26.716Z</time>
      </trkpt>
      <trkpt lat="48.95419" lon="0.73249">
        <ele>170</ele>
        <time>2019-08-15T07:57:27.706Z</time>
      </trkpt>
      <trkpt lat="48.9541" lon="0.73251">
        <ele>170</ele>
        <time>2019-08-15T07:57:28.710Z</time>
      </trkpt>
      <trkpt lat="48.95406" lon="0.73252">
        <ele>170</ele>
        <time>2019-08-15T07:57:29.708Z</time>
      </trkpt>
      <trkpt lat="48.95406" lon="0.73252">
        <ele>170</ele>
        <time>2019-08-15T07:57:30.707Z</time>
      </trkpt>
      <trkpt lat="48.954" lon="0.73253">
        <ele>170</ele>
        <time>2019-08-15T07:57:31.707Z</time>
      </trkpt>
      <trkpt lat="48.95398" lon="0.73254">
        <ele>170</ele>
        <time>2019-08-15T07:57:32.711Z</time>
      </trkpt>
      <trkpt lat="48.95398" lon="0.73254">
        <ele>170</ele>
        <time>2019-08-15T07:57:33.707Z</time>
      </trkpt>
      <trkpt lat="48.95396" lon="0.73256">
        <ele>169</ele>
        <time>2019-08-15T07:57:34.710Z</time>
      </trkpt>
      <trkpt lat="48.95396" lon="0.73256">
        <ele>169</ele>
        <time>2019-08-15T07:57:35.705Z</time>
      </trkpt>
      <trkpt lat="48.95397" lon="0.73262">
        <ele>169</ele>
        <time>2019-08-15T07:57:36.708Z</time>
      </trkpt>
      <trkpt lat="48.95397" lon="0.73262">
        <ele>169</ele>
        <time>2019-08-15T07:57:37.704Z</time>
      </trkpt>
      <trkpt lat="48.95398" lon="0.73271">
        <ele>169</ele>
        <time>2019-08-15T07:57:38.716Z</time>
      </trkpt>
      <trkpt lat="48.95398" lon="0.73271">
        <ele>169</ele>
        <time>2019-08-15T07:57:39.705Z</time>
      </trkpt>
      <trkpt lat="48.95398" lon="0.73278">
        <ele>169</ele>
        <time>2019-08-15T07:57:40.707Z</time>
      </trkpt>
      <trkpt lat="48.95398" lon="0.73278">
        <ele>169</ele>
        <time>2019-08-15T07:57:41.705Z</time>
      </trkpt>
      <trkpt lat="48.95398" lon="0.73286">
        <ele>168</ele>
        <time>2019-08-15T07:57:42.716Z</time>
      </trkpt>
      <trkpt lat="48.95398" lon="0.73286">
        <ele>168</ele>
        <time>2019-08-15T07:57:43.705Z</time>
      </trkpt>
      <trkpt lat="48.95398" lon="0.73295">
        <ele>168</ele>
        <time>2019-08-15T07:57:44.707Z</time>
      </trkpt>
      <trkpt lat="48.95398" lon="0.73295">
        <ele>168</ele>
        <time>2019-08-15T07:57:45.702Z</time>
      </trkpt>
      <trkpt lat="48.95398" lon="0.73305">
        <ele>168</ele>
        <time>2019-08-15T07:57:46.686Z</time>
      </trkpt>
      <trkpt lat="48.95398" lon="0.73305">
        <ele>168</ele>
        <time>2019-08-15T07:57:47.709Z</time>
      </trkpt>
      <trkpt lat="48.95398" lon="0.73315">
        <ele>168</ele>
        <time>2019-08-15T07:57:48.684Z</time>
      </trkpt>
      <trkpt lat="48.95398" lon="0.73315">
        <ele>168</ele>
        <time>2019-08-15T07:57:49.708Z</time>
      </trkpt>
      <trkpt lat="48.95399" lon="0.73326">
        <ele>168</ele>
        <time>2019-08-15T07:57:50.716Z</time>
      </trkpt>
      <trkpt lat="48.95399" lon="0.73326">
        <ele>168</ele>
        <time>2019-08-15T07:57:51.683Z</time>
      </trkpt>
      <trkpt lat="48.954" lon="0.73337">
        <ele>168</ele>
        <time>2019-08-15T07:57:52.711Z</time>
      </trkpt>
      <trkpt lat="48.954" lon="0.73337">
        <ele>168</ele>
        <time>2019-08-15T07:57:53.706Z</time>
      </trkpt>
      <trkpt lat="48.95402" lon="0.73348">
        <ele>168</ele>
        <time>2019-08-15T07:57:54.711Z</time>
      </trkpt>
      <trkpt lat="48.95402" lon="0.73348">
        <ele>168</ele>
        <time>2019-08-15T07:57:55.704Z</time>
      </trkpt>
      <trkpt lat="48.95402" lon="0.7336">
        <ele>167</ele>
        <time>2019-08-15T07:57:56.709Z</time>
      </trkpt>
      <trkpt lat="48.95402" lon="0.7336">
        <ele>167</ele>
        <time>2019-08-15T07:57:57.705Z</time>
      </trkpt>
      <trkpt lat="48.95402" lon="0.73372">
        <ele>167</ele>
        <time>2019-08-15T07:57:58.708Z</time>
      </trkpt>
      <trkpt lat="48.95402" lon="0.73372">
        <ele>167</ele>
        <time>2019-08-15T07:57:59.705Z</time>
      </trkpt>
      <trkpt lat="48.954" lon="0.73384">
        <ele>167</ele>
        <time>2019-08-15T07:58:00.708Z</time>
      </trkpt>
      <trkpt lat="48.95399" lon="0.73389">
        <ele>167</ele>
        <time>2019-08-15T07:58:01.710Z</time>
      </trkpt>
      <trkpt lat="48.95398" lon="0.73396">
        <ele>167</ele>
        <time>2019-08-15T07:58:02.710Z</time>
      </trkpt>
      <trkpt lat="48.95398" lon="0.73396">
        <ele>167</ele>
        <time>2019-08-15T07:58:03.704Z</time>
      </trkpt>
      <trkpt lat="48.95398" lon="0.73408">
        <ele>166</ele>
        <time>2019-08-15T07:58:04.710Z</time>
      </trkpt>
      <trkpt lat="48.95398" lon="0.73414">
        <ele>166</ele>
        <time>2019-08-15T07:58:05.708Z</time>
      </trkpt>
      <trkpt lat="48.95398" lon="0.7342">
        <ele>166</ele>
        <time>2019-08-15T07:58:06.716Z</time>
      </trkpt>
      <trkpt lat="48.95398" lon="0.7342">
        <ele>166</ele>
        <time>2019-08-15T07:58:07.705Z</time>
      </trkpt>
      <trkpt lat="48.95397" lon="0.73432">
        <ele>166</ele>
        <time>2019-08-15T07:58:08.711Z</time>
      </trkpt>
      <trkpt lat="48.95397" lon="0.73432">
        <ele>166</ele>
        <time>2019-08-15T07:58:09.704Z</time>
      </trkpt>
      <trkpt lat="48.95395" lon="0.73443">
        <ele>165</ele>
        <time>2019-08-15T07:58:10.694Z</time>
      </trkpt>
      <trkpt lat="48.95394" lon="0.7345">
        <ele>165</ele>
        <time>2019-08-15T07:58:11.679Z</time>
      </trkpt>
      <trkpt lat="48.95392" lon="0.73456">
        <ele>165</ele>
        <time>2019-08-15T07:58:12.716Z</time>
      </trkpt>
      <trkpt lat="48.95392" lon="0.73456">
        <ele>165</ele>
        <time>2019-08-15T07:58:13.704Z</time>
      </trkpt>
      <trkpt lat="48.9539" lon="0.73467">
        <ele>164</ele>
        <time>2019-08-15T07:58:14.716Z</time>
      </trkpt>
      <trkpt lat="48.9539" lon="0.73467">
        <ele>164</ele>
        <time>2019-08-15T07:58:15.716Z</time>
      </trkpt>
      <trkpt lat="48.95388" lon="0.7348">
        <ele>164</ele>
        <time>2019-08-15T07:58:16.709Z</time>
      </trkpt>
      <trkpt lat="48.95387" lon="0.73486">
        <ele>164</ele>
        <time>2019-08-15T07:58:17.716Z</time>
      </trkpt>
      <trkpt lat="48.95385" lon="0.73491">
        <ele>163</ele>
        <time>2019-08-15T07:58:18.716Z</time>
      </trkpt>
      <trkpt lat="48.95385" lon="0.73491">
        <ele>163</ele>
        <time>2019-08-15T07:58:19.705Z</time>
      </trkpt>
      <trkpt lat="48.95384" lon="0.73496">
        <ele>163</ele>
        <time>2019-08-15T07:58:20.680Z</time>
      </trkpt>
      <trkpt lat="48.95384" lon="0.73496">
        <ele>163</ele>
        <time>2019-08-15T07:58:21.705Z</time>
      </trkpt>
      <trkpt lat="48.95382" lon="0.73501">
        <ele>163</ele>
        <time>2019-08-15T07:58:22.713Z</time>
      </trkpt>
      <trkpt lat="48.95382" lon="0.73501">
        <ele>163</ele>
        <time>2019-08-15T07:58:23.708Z</time>
      </trkpt>
      <trkpt lat="48.95378" lon="0.73507">
        <ele>163</ele>
        <time>2019-08-15T07:58:24.711Z</time>
      </trkpt>
      <trkpt lat="48.95378" lon="0.73507">
        <ele>163</ele>
        <time>2019-08-15T07:58:25.704Z</time>
      </trkpt>
      <trkpt lat="48.95375" lon="0.73515">
        <ele>162</ele>
        <time>2019-08-15T07:58:26.711Z</time>
      </trkpt>
      <trkpt lat="48.95375" lon="0.73515">
        <ele>162</ele>
        <time>2019-08-15T07:58:27.704Z</time>
      </trkpt>
      <trkpt lat="48.95376" lon="0.73528">
        <ele>162</ele>
        <time>2019-08-15T07:58:28.709Z</time>
      </trkpt>
      <trkpt lat="48.95376" lon="0.73528">
        <ele>162</ele>
        <time>2019-08-15T07:58:29.707Z</time>
      </trkpt>
      <trkpt lat="48.95379" lon="0.73542">
        <ele>161</ele>
        <time>2019-08-15T07:58:30.716Z</time>
      </trkpt>
      <trkpt lat="48.95379" lon="0.73542">
        <ele>161</ele>
        <time>2019-08-15T07:58:31.707Z</time>
      </trkpt>
      <trkpt lat="48.95382" lon="0.73555">
        <ele>161</ele>
        <time>2019-08-15T07:58:32.716Z</time>
      </trkpt>
      <trkpt lat="48.95382" lon="0.73555">
        <ele>161</ele>
        <time>2019-08-15T07:58:33.708Z</time>
      </trkpt>
      <trkpt lat="48.95386" lon="0.73567">
        <ele>161</ele>
        <time>2019-08-15T07:58:34.710Z</time>
      </trkpt>
      <trkpt lat="48.95387" lon="0.73573">
        <ele>161</ele>
        <time>2019-08-15T07:58:35.707Z</time>
      </trkpt>
      <trkpt lat="48.95387" lon="0.73573">
        <ele>161</ele>
        <time>2019-08-15T07:58:36.709Z</time>
      </trkpt>
      <trkpt lat="48.95391" lon="0.73586">
        <ele>161</ele>
        <time>2019-08-15T07:58:37.707Z</time>
      </trkpt>
      <trkpt lat="48.95393" lon="0.73591">
        <ele>160</ele>
        <time>2019-08-15T07:58:38.716Z</time>
      </trkpt>
      <trkpt lat="48.95393" lon="0.73591">
        <ele>160</ele>
        <time>2019-08-15T07:58:39.704Z</time>
      </trkpt>
      <trkpt lat="48.95395" lon="0.736">
        <ele>160</ele>
        <time>2019-08-15T07:58:40.715Z</time>
      </trkpt>
      <trkpt lat="48.95395" lon="0.736">
        <ele>160</ele>
        <time>2019-08-15T07:58:41.707Z</time>
      </trkpt>
      <trkpt lat="48.95391" lon="0.73607">
        <ele>160</ele>
        <time>2019-08-15T07:58:42.716Z</time>
      </trkpt>
      <trkpt lat="48.95391" lon="0.73607">
        <ele>160</ele>
        <time>2019-08-15T07:58:43.707Z</time>
      </trkpt>
      <trkpt lat="48.95385" lon="0.73615">
        <ele>160</ele>
        <time>2019-08-15T07:58:44.710Z</time>
      </trkpt>
      <trkpt lat="48.95385" lon="0.73615">
        <ele>160</ele>
        <time>2019-08-15T07:58:45.706Z</time>
      </trkpt>
      <trkpt lat="48.95378" lon="0.73621">
        <ele>160</ele>
        <time>2019-08-15T07:58:46.709Z</time>
      </trkpt>
      <trkpt lat="48.95378" lon="0.73621">
        <ele>160</ele>
        <time>2019-08-15T07:58:47.708Z</time>
      </trkpt>
      <trkpt lat="48.95371" lon="0.73628">
        <ele>160</ele>
        <time>2019-08-15T07:58:48.710Z</time>
      </trkpt>
      <trkpt lat="48.95368" lon="0.73632">
        <ele>161</ele>
        <time>2019-08-15T07:58:49.711Z</time>
      </trkpt>
      <trkpt lat="48.95368" lon="0.73632">
        <ele>161</ele>
        <time>2019-08-15T07:58:50.713Z</time>
      </trkpt>
      <trkpt lat="48.95361" lon="0.73638">
        <ele>161</ele>
        <time>2019-08-15T07:58:51.716Z</time>
      </trkpt>
      <trkpt lat="48.95361" lon="0.73638">
        <ele>161</ele>
        <time>2019-08-15T07:58:52.710Z</time>
      </trkpt>
      <trkpt lat="48.95355" lon="0.73643">
        <ele>162</ele>
        <time>2019-08-15T07:58:53.710Z</time>
      </trkpt>
      <trkpt lat="48.95352" lon="0.73645">
        <ele>163</ele>
        <time>2019-08-15T07:58:54.716Z</time>
      </trkpt>
      <trkpt lat="48.95352" lon="0.73645">
        <ele>163</ele>
        <time>2019-08-15T07:58:55.705Z</time>
      </trkpt>
      <trkpt lat="48.95347" lon="0.73647">
        <ele>164</ele>
        <time>2019-08-15T07:58:56.707Z</time>
      </trkpt>
      <trkpt lat="48.95347" lon="0.73647">
        <ele>164</ele>
        <time>2019-08-15T07:58:57.706Z</time>
      </trkpt>
      <trkpt lat="48.95343" lon="0.73648">
        <ele>164</ele>
        <time>2019-08-15T07:58:58.717Z</time>
      </trkpt>
      <trkpt lat="48.95343" lon="0.73648">
        <ele>164</ele>
        <time>2019-08-15T07:58:59.704Z</time>
      </trkpt>
      <trkpt lat="48.95337" lon="0.73648">
        <ele>164</ele>
        <time>2019-08-15T07:59:00.690Z</time>
      </trkpt>
      <trkpt lat="48.95337" lon="0.73648">
        <ele>164</ele>
        <time>2019-08-15T07:59:01.708Z</time>
      </trkpt>
      <trkpt lat="48.95329" lon="0.73648">
        <ele>165</ele>
        <time>2019-08-15T07:59:02.711Z</time>
      </trkpt>
      <trkpt lat="48.95325" lon="0.73648">
        <ele>165</ele>
        <time>2019-08-15T07:59:03.716Z</time>
      </trkpt>
      <trkpt lat="48.95325" lon="0.73648">
        <ele>165</ele>
        <time>2019-08-15T07:59:04.707Z</time>
      </trkpt>
      <trkpt lat="48.95317" lon="0.73649">
        <ele>165</ele>
        <time>2019-08-15T07:59:05.708Z</time>
      </trkpt>
      <trkpt lat="48.95313" lon="0.7365">
        <ele>165</ele>
        <time>2019-08-15T07:59:06.716Z</time>
      </trkpt>
      <trkpt lat="48.95313" lon="0.7365">
        <ele>165</ele>
        <time>2019-08-15T07:59:07.705Z</time>
      </trkpt>
      <trkpt lat="48.95305" lon="0.7365">
        <ele>166</ele>
        <time>2019-08-15T07:59:08.711Z</time>
      </trkpt>
      <trkpt lat="48.95305" lon="0.7365">
        <ele>166</ele>
        <time>2019-08-15T07:59:09.707Z</time>
      </trkpt>
      <trkpt lat="48.95296" lon="0.7365">
        <ele>166</ele>
        <time>2019-08-15T07:59:10.713Z</time>
      </trkpt>
      <trkpt lat="48.95296" lon="0.7365">
        <ele>166</ele>
        <time>2019-08-15T07:59:11.707Z</time>
      </trkpt>
      <trkpt lat="48.95287" lon="0.7365">
        <ele>167</ele>
        <time>2019-08-15T07:59:12.716Z</time>
      </trkpt>
      <trkpt lat="48.95287" lon="0.7365">
        <ele>167</ele>
        <time>2019-08-15T07:59:13.705Z</time>
      </trkpt>
      <trkpt lat="48.95277" lon="0.73648">
        <ele>167</ele>
        <time>2019-08-15T07:59:14.711Z</time>
      </trkpt>
      <trkpt lat="48.95277" lon="0.73648">
        <ele>167</ele>
        <time>2019-08-15T07:59:15.709Z</time>
      </trkpt>
      <trkpt lat="48.95268" lon="0.73646">
        <ele>168</ele>
        <time>2019-08-15T07:59:16.710Z</time>
      </trkpt>
      <trkpt lat="48.95268" lon="0.73646">
        <ele>168</ele>
        <time>2019-08-15T07:59:17.699Z</time>
      </trkpt>
      <trkpt lat="48.9526" lon="0.73644">
        <ele>168</ele>
        <time>2019-08-15T07:59:18.716Z</time>
      </trkpt>
      <trkpt lat="48.9526" lon="0.73644">
        <ele>168</ele>
        <time>2019-08-15T07:59:19.705Z</time>
      </trkpt>
      <trkpt lat="48.9525" lon="0.73641">
        <ele>168</ele>
        <time>2019-08-15T07:59:20.710Z</time>
      </trkpt>
      <trkpt lat="48.9525" lon="0.73641">
        <ele>168</ele>
        <time>2019-08-15T07:59:21.704Z</time>
      </trkpt>
      <trkpt lat="48.95242" lon="0.73638">
        <ele>169</ele>
        <time>2019-08-15T07:59:22.709Z</time>
      </trkpt>
      <trkpt lat="48.95239" lon="0.73636">
        <ele>169</ele>
        <time>2019-08-15T07:59:23.707Z</time>
      </trkpt>
      <trkpt lat="48.95239" lon="0.73636">
        <ele>169</ele>
        <time>2019-08-15T07:59:24.706Z</time>
      </trkpt>
      <trkpt lat="48.95231" lon="0.73634">
        <ele>169</ele>
        <time>2019-08-15T07:59:25.711Z</time>
      </trkpt>
      <trkpt lat="48.95227" lon="0.73634">
        <ele>169</ele>
        <time>2019-08-15T07:59:26.710Z</time>
      </trkpt>
      <trkpt lat="48.95227" lon="0.73634">
        <ele>169</ele>
        <time>2019-08-15T07:59:27.706Z</time>
      </trkpt>
      <trkpt lat="48.95218" lon="0.73633">
        <ele>169</ele>
        <time>2019-08-15T07:59:28.710Z</time>
      </trkpt>
      <trkpt lat="48.95218" lon="0.73633">
        <ele>169</ele>
        <time>2019-08-15T07:59:29.707Z</time>
      </trkpt>
      <trkpt lat="48.95209" lon="0.73633">
        <ele>169</ele>
        <time>2019-08-15T07:59:30.716Z</time>
      </trkpt>
      <trkpt lat="48.95209" lon="0.73633">
        <ele>169</ele>
        <time>2019-08-15T07:59:31.705Z</time>
      </trkpt>
      <trkpt lat="48.95202" lon="0.73632">
        <ele>170</ele>
        <time>2019-08-15T07:59:32.716Z</time>
      </trkpt>
      <trkpt lat="48.95202" lon="0.73632">
        <ele>170</ele>
        <time>2019-08-15T07:59:33.705Z</time>
      </trkpt>
      <trkpt lat="48.95195" lon="0.73629">
        <ele>170</ele>
        <time>2019-08-15T07:59:34.711Z</time>
      </trkpt>
      <trkpt lat="48.95195" lon="0.73629">
        <ele>170</ele>
        <time>2019-08-15T07:59:35.707Z</time>
      </trkpt>
      <trkpt lat="48.95187" lon="0.73626">
        <ele>170</ele>
        <time>2019-08-15T07:59:36.716Z</time>
      </trkpt>
      <trkpt lat="48.95187" lon="0.73626">
        <ele>170</ele>
        <time>2019-08-15T07:59:37.705Z</time>
      </trkpt>
      <trkpt lat="48.95178" lon="0.73624">
        <ele>170</ele>
        <time>2019-08-15T07:59:38.711Z</time>
      </trkpt>
      <trkpt lat="48.95178" lon="0.73624">
        <ele>170</ele>
        <time>2019-08-15T07:59:39.706Z</time>
      </trkpt>
      <trkpt lat="48.9517" lon="0.73624">
        <ele>171</ele>
        <time>2019-08-15T07:59:40.711Z</time>
      </trkpt>
      <trkpt lat="48.95167" lon="0.73623">
        <ele>171</ele>
        <time>2019-08-15T07:59:41.711Z</time>
      </trkpt>
      <trkpt lat="48.95162" lon="0.73624">
        <ele>171</ele>
        <time>2019-08-15T07:59:42.716Z</time>
      </trkpt>
      <trkpt lat="48.95162" lon="0.73624">
        <ele>171</ele>
        <time>2019-08-15T07:59:43.705Z</time>
      </trkpt>
      <trkpt lat="48.95154" lon="0.73625">
        <ele>171</ele>
        <time>2019-08-15T07:59:44.711Z</time>
      </trkpt>
      <trkpt lat="48.95154" lon="0.73625">
        <ele>171</ele>
        <time>2019-08-15T07:59:45.705Z</time>
      </trkpt>
      <trkpt lat="48.95146" lon="0.73625">
        <ele>171</ele>
        <time>2019-08-15T07:59:46.682Z</time>
      </trkpt>
      <trkpt lat="48.95146" lon="0.73625">
        <ele>171</ele>
        <time>2019-08-15T07:59:47.708Z</time>
      </trkpt>
      <trkpt lat="48.95136" lon="0.73625">
        <ele>171</ele>
        <time>2019-08-15T07:59:48.716Z</time>
      </trkpt>
      <trkpt lat="48.95136" lon="0.73625">
        <ele>171</ele>
        <time>2019-08-15T07:59:49.707Z</time>
      </trkpt>
      <trkpt lat="48.95127" lon="0.73623">
        <ele>172</ele>
        <time>2019-08-15T07:59:50.710Z</time>
      </trkpt>
      <trkpt lat="48.95127" lon="0.73623">
        <ele>172</ele>
        <time>2019-08-15T07:59:51.688Z</time>
      </trkpt>
      <trkpt lat="48.95118" lon="0.73622">
        <ele>172</ele>
        <time>2019-08-15T07:59:52.717Z</time>
      </trkpt>
      <trkpt lat="48.95118" lon="0.73622">
        <ele>172</ele>
        <time>2019-08-15T07:59:53.707Z</time>
      </trkpt>
      <trkpt lat="48.95109" lon="0.73621">
        <ele>172</ele>
        <time>2019-08-15T07:59:54.716Z</time>
      </trkpt>
      <trkpt lat="48.95109" lon="0.73621">
        <ele>172</ele>
        <time>2019-08-15T07:59:55.707Z</time>
      </trkpt>
      <trkpt lat="48.95098" lon="0.7362">
        <ele>171</ele>
        <time>2019-08-15T07:59:56.716Z</time>
      </trkpt>
      <trkpt lat="48.95098" lon="0.7362">
        <ele>171</ele>
        <time>2019-08-15T07:59:57.705Z</time>
      </trkpt>
      <trkpt lat="48.95086" lon="0.7362">
        <ele>172</ele>
        <time>2019-08-15T07:59:58.708Z</time>
      </trkpt>
      <trkpt lat="48.95086" lon="0.7362">
        <ele>172</ele>
        <time>2019-08-15T07:59:59.707Z</time>
      </trkpt>
      <trkpt lat="48.95075" lon="0.7362">
        <ele>172</ele>
        <time>2019-08-15T08:00:00.710Z</time>
      </trkpt>
      <trkpt lat="48.95075" lon="0.7362">
        <ele>172</ele>
        <time>2019-08-15T08:00:01.703Z</time>
      </trkpt>
      <trkpt lat="48.95064" lon="0.73621">
        <ele>172</ele>
        <time>2019-08-15T08:00:02.686Z</time>
      </trkpt>
      <trkpt lat="48.95064" lon="0.73621">
        <ele>172</ele>
        <time>2019-08-15T08:00:03.715Z</time>
      </trkpt>
      <trkpt lat="48.95053" lon="0.73623">
        <ele>171</ele>
        <time>2019-08-15T08:00:04.710Z</time>
      </trkpt>
      <trkpt lat="48.95053" lon="0.73623">
        <ele>171</ele>
        <time>2019-08-15T08:00:05.707Z</time>
      </trkpt>
      <trkpt lat="48.95042" lon="0.73626">
        <ele>171</ele>
        <time>2019-08-15T08:00:06.716Z</time>
      </trkpt>
      <trkpt lat="48.95042" lon="0.73626">
        <ele>171</ele>
        <time>2019-08-15T08:00:07.707Z</time>
      </trkpt>
      <trkpt lat="48.95031" lon="0.73632">
        <ele>171</ele>
        <time>2019-08-15T08:00:08.707Z</time>
      </trkpt>
      <trkpt lat="48.95031" lon="0.73632">
        <ele>171</ele>
        <time>2019-08-15T08:00:09.707Z</time>
      </trkpt>
      <trkpt lat="48.95021" lon="0.73637">
        <ele>170</ele>
        <time>2019-08-15T08:00:10.710Z</time>
      </trkpt>
      <trkpt lat="48.95021" lon="0.73637">
        <ele>170</ele>
        <time>2019-08-15T08:00:11.686Z</time>
      </trkpt>
      <trkpt lat="48.95011" lon="0.73643">
        <ele>170</ele>
        <time>2019-08-15T08:00:12.715Z</time>
      </trkpt>
      <trkpt lat="48.95011" lon="0.73643">
        <ele>170</ele>
        <time>2019-08-15T08:00:13.704Z</time>
      </trkpt>
      <trkpt lat="48.95001" lon="0.7365">
        <ele>170</ele>
        <time>2019-08-15T08:00:14.711Z</time>
      </trkpt>
      <trkpt lat="48.95001" lon="0.7365">
        <ele>170</ele>
        <time>2019-08-15T08:00:15.705Z</time>
      </trkpt>
      <trkpt lat="48.94992" lon="0.73656">
        <ele>170</ele>
        <time>2019-08-15T08:00:16.709Z</time>
      </trkpt>
      <trkpt lat="48.94992" lon="0.73656">
        <ele>170</ele>
        <time>2019-08-15T08:00:17.684Z</time>
      </trkpt>
      <trkpt lat="48.94983" lon="0.73663">
        <ele>170</ele>
        <time>2019-08-15T08:00:18.716Z</time>
      </trkpt>
      <trkpt lat="48.94978" lon="0.73667">
        <ele>170</ele>
        <time>2019-08-15T08:00:19.716Z</time>
      </trkpt>
      <trkpt lat="48.94978" lon="0.73667">
        <ele>170</ele>
        <time>2019-08-15T08:00:20.709Z</time>
      </trkpt>
      <trkpt lat="48.94969" lon="0.73673">
        <ele>169</ele>
        <time>2019-08-15T08:00:21.711Z</time>
      </trkpt>
      <trkpt lat="48.94965" lon="0.73676">
        <ele>169</ele>
        <time>2019-08-15T08:00:22.708Z</time>
      </trkpt>
      <trkpt lat="48.94965" lon="0.73676">
        <ele>169</ele>
        <time>2019-08-15T08:00:23.705Z</time>
      </trkpt>
      <trkpt lat="48.94956" lon="0.73682">
        <ele>169</ele>
        <time>2019-08-15T08:00:24.716Z</time>
      </trkpt>
      <trkpt lat="48.94956" lon="0.73682">
        <ele>169</ele>
        <time>2019-08-15T08:00:25.706Z</time>
      </trkpt>
      <trkpt lat="48.94947" lon="0.73689">
        <ele>169</ele>
        <time>2019-08-15T08:00:26.715Z</time>
      </trkpt>
      <trkpt lat="48.94947" lon="0.73689">
        <ele>169</ele>
        <time>2019-08-15T08:00:27.705Z</time>
      </trkpt>
      <trkpt lat="48.94939" lon="0.73695">
        <ele>169</ele>
        <time>2019-08-15T08:00:28.711Z</time>
      </trkpt>
      <trkpt lat="48.94939" lon="0.73695">
        <ele>169</ele>
        <time>2019-08-15T08:00:29.707Z</time>
      </trkpt>
      <trkpt lat="48.9493" lon="0.73702">
        <ele>169</ele>
        <time>2019-08-15T08:00:30.715Z</time>
      </trkpt>
      <trkpt lat="48.9493" lon="0.73702">
        <ele>169</ele>
        <time>2019-08-15T08:00:31.708Z</time>
      </trkpt>
      <trkpt lat="48.94921" lon="0.73707">
        <ele>169</ele>
        <time>2019-08-15T08:00:32.710Z</time>
      </trkpt>
      <trkpt lat="48.94921" lon="0.73707">
        <ele>169</ele>
        <time>2019-08-15T08:00:33.704Z</time>
      </trkpt>
      <trkpt lat="48.94912" lon="0.73713">
        <ele>169</ele>
        <time>2019-08-15T08:00:34.710Z</time>
      </trkpt>
      <trkpt lat="48.94908" lon="0.73716">
        <ele>168</ele>
        <time>2019-08-15T08:00:35.708Z</time>
      </trkpt>
      <trkpt lat="48.94903" lon="0.73719">
        <ele>168</ele>
        <time>2019-08-15T08:00:36.716Z</time>
      </trkpt>
      <trkpt lat="48.94899" lon="0.73721">
        <ele>168</ele>
        <time>2019-08-15T08:00:37.700Z</time>
      </trkpt>
      <trkpt lat="48.94899" lon="0.73721">
        <ele>168</ele>
        <time>2019-08-15T08:00:38.705Z</time>
      </trkpt>
      <trkpt lat="48.94889" lon="0.73726">
        <ele>168</ele>
        <time>2019-08-15T08:00:39.716Z</time>
      </trkpt>
      <trkpt lat="48.94889" lon="0.73726">
        <ele>168</ele>
        <time>2019-08-15T08:00:40.683Z</time>
      </trkpt>
      <trkpt lat="48.9488" lon="0.73731">
        <ele>168</ele>
        <time>2019-08-15T08:00:41.691Z</time>
      </trkpt>
      <trkpt lat="48.94875" lon="0.73734">
        <ele>168</ele>
        <time>2019-08-15T08:00:42.716Z</time>
      </trkpt>
      <trkpt lat="48.94875" lon="0.73734">
        <ele>168</ele>
        <time>2019-08-15T08:00:43.704Z</time>
      </trkpt>
      <trkpt lat="48.94865" lon="0.73738">
        <ele>167</ele>
        <time>2019-08-15T08:00:44.710Z</time>
      </trkpt>
      <trkpt lat="48.94865" lon="0.73738">
        <ele>167</ele>
        <time>2019-08-15T08:00:45.704Z</time>
      </trkpt>
      <trkpt lat="48.94855" lon="0.73742">
        <ele>167</ele>
        <time>2019-08-15T08:00:46.694Z</time>
      </trkpt>
      <trkpt lat="48.94855" lon="0.73742">
        <ele>167</ele>
        <time>2019-08-15T08:00:47.679Z</time>
      </trkpt>
      <trkpt lat="48.94844" lon="0.73746">
        <ele>167</ele>
        <time>2019-08-15T08:00:48.716Z</time>
      </trkpt>
      <trkpt lat="48.94844" lon="0.73746">
        <ele>167</ele>
        <time>2019-08-15T08:00:49.704Z</time>
      </trkpt>
      <trkpt lat="48.94834" lon="0.73749">
        <ele>167</ele>
        <time>2019-08-15T08:00:50.684Z</time>
      </trkpt>
      <trkpt lat="48.94834" lon="0.73749">
        <ele>167</ele>
        <time>2019-08-15T08:00:51.678Z</time>
      </trkpt>
      <trkpt lat="48.94823" lon="0.73751">
        <ele>167</ele>
        <time>2019-08-15T08:00:52.710Z</time>
      </trkpt>
      <trkpt lat="48.94819" lon="0.73752">
        <ele>167</ele>
        <time>2019-08-15T08:00:53.682Z</time>
      </trkpt>
      <trkpt lat="48.94819" lon="0.73752">
        <ele>167</ele>
        <time>2019-08-15T08:00:54.706Z</time>
      </trkpt>
      <trkpt lat="48.94809" lon="0.73754">
        <ele>167</ele>
        <time>2019-08-15T08:00:55.711Z</time>
      </trkpt>
      <trkpt lat="48.94804" lon="0.73754">
        <ele>166</ele>
        <time>2019-08-15T08:00:56.711Z</time>
      </trkpt>
      <trkpt lat="48.94804" lon="0.73754">
        <ele>166</ele>
        <time>2019-08-15T08:00:57.708Z</time>
      </trkpt>
      <trkpt lat="48.94796" lon="0.73755">
        <ele>166</ele>
        <time>2019-08-15T08:00:58.710Z</time>
      </trkpt>
      <trkpt lat="48.94796" lon="0.73755">
        <ele>166</ele>
        <time>2019-08-15T08:00:59.705Z</time>
      </trkpt>
      <trkpt lat="48.94788" lon="0.73756">
        <ele>166</ele>
        <time>2019-08-15T08:01:00.716Z</time>
      </trkpt>
      <trkpt lat="48.94788" lon="0.73756">
        <ele>166</ele>
        <time>2019-08-15T08:01:01.705Z</time>
      </trkpt>
      <trkpt lat="48.9478" lon="0.73755">
        <ele>166</ele>
        <time>2019-08-15T08:01:02.683Z</time>
      </trkpt>
      <trkpt lat="48.9478" lon="0.73755">
        <ele>166</ele>
        <time>2019-08-15T08:01:03.707Z</time>
      </trkpt>
      <trkpt lat="48.94772" lon="0.73753">
        <ele>166</ele>
        <time>2019-08-15T08:01:04.708Z</time>
      </trkpt>
      <trkpt lat="48.94769" lon="0.73753">
        <ele>165</ele>
        <time>2019-08-15T08:01:05.715Z</time>
      </trkpt>
      <trkpt lat="48.94765" lon="0.73754">
        <ele>165</ele>
        <time>2019-08-15T08:01:06.716Z</time>
      </trkpt>
      <trkpt lat="48.94765" lon="0.73754">
        <ele>165</ele>
        <time>2019-08-15T08:01:07.704Z</time>
      </trkpt>
      <trkpt lat="48.94756" lon="0.73757">
        <ele>165</ele>
        <time>2019-08-15T08:01:08.691Z</time>
      </trkpt>
      <trkpt lat="48.94756" lon="0.73757">
        <ele>165</ele>
        <time>2019-08-15T08:01:09.688Z</time>
      </trkpt>
      <trkpt lat="48.94744" lon="0.73759">
        <ele>165</ele>
        <time>2019-08-15T08:01:10.716Z</time>
      </trkpt>
      <trkpt lat="48.94744" lon="0.73759">
        <ele>165</ele>
        <time>2019-08-15T08:01:11.704Z</time>
      </trkpt>
      <trkpt lat="48.94733" lon="0.73764">
        <ele>164</ele>
        <time>2019-08-15T08:01:12.715Z</time>
      </trkpt>
      <trkpt lat="48.94733" lon="0.73764">
        <ele>164</ele>
        <time>2019-08-15T08:01:13.707Z</time>
      </trkpt>
      <trkpt lat="48.9472" lon="0.73768">
        <ele>164</ele>
        <time>2019-08-15T08:01:14.710Z</time>
      </trkpt>
      <trkpt lat="48.9472" lon="0.73768">
        <ele>164</ele>
        <time>2019-08-15T08:01:15.707Z</time>
      </trkpt>
      <trkpt lat="48.94706" lon="0.73771">
        <ele>163</ele>
        <time>2019-08-15T08:01:16.710Z</time>
      </trkpt>
      <trkpt lat="48.947" lon="0.73773">
        <ele>162</ele>
        <time>2019-08-15T08:01:17.708Z</time>
      </trkpt>
      <trkpt lat="48.947" lon="0.73773">
        <ele>162</ele>
        <time>2019-08-15T08:01:18.706Z</time>
      </trkpt>
      <trkpt lat="48.94687" lon="0.73777">
        <ele>161</ele>
        <time>2019-08-15T08:01:19.710Z</time>
      </trkpt>
      <trkpt lat="48.94682" lon="0.73778">
        <ele>160</ele>
        <time>2019-08-15T08:01:20.710Z</time>
      </trkpt>
      <trkpt lat="48.94682" lon="0.73778">
        <ele>160</ele>
        <time>2019-08-15T08:01:21.707Z</time>
      </trkpt>
      <trkpt lat="48.94672" lon="0.73781">
        <ele>159</ele>
        <time>2019-08-15T08:01:22.691Z</time>
      </trkpt>
      <trkpt lat="48.94672" lon="0.73781">
        <ele>159</ele>
        <time>2019-08-15T08:01:23.715Z</time>
      </trkpt>
      <trkpt lat="48.94662" lon="0.73783">
        <ele>158</ele>
        <time>2019-08-15T08:01:24.716Z</time>
      </trkpt>
      <trkpt lat="48.94662" lon="0.73783">
        <ele>158</ele>
        <time>2019-08-15T08:01:25.707Z</time>
      </trkpt>
      <trkpt lat="48.94656" lon="0.73783">
        <ele>157</ele>
        <time>2019-08-15T08:01:26.710Z</time>
      </trkpt>
      <trkpt lat="48.94656" lon="0.73783">
        <ele>157</ele>
        <time>2019-08-15T08:01:27.707Z</time>
      </trkpt>
      <trkpt lat="48.94654" lon="0.7378">
        <ele>157</ele>
        <time>2019-08-15T08:01:28.711Z</time>
      </trkpt>
      <trkpt lat="48.94654" lon="0.7378">
        <ele>157</ele>
        <time>2019-08-15T08:01:29.707Z</time>
      </trkpt>
      <trkpt lat="48.94651" lon="0.73776">
        <ele>157</ele>
        <time>2019-08-15T08:01:30.678Z</time>
      </trkpt>
      <trkpt lat="48.94651" lon="0.73776">
        <ele>157</ele>
        <time>2019-08-15T08:01:31.706Z</time>
      </trkpt>
      <trkpt lat="48.94644" lon="0.73772">
        <ele>155</ele>
        <time>2019-08-15T08:01:32.692Z</time>
      </trkpt>
      <trkpt lat="48.94644" lon="0.73772">
        <ele>155</ele>
        <time>2019-08-15T08:01:33.707Z</time>
      </trkpt>
      <trkpt lat="48.94634" lon="0.73772">
        <ele>154</ele>
        <time>2019-08-15T08:01:34.711Z</time>
      </trkpt>
      <trkpt lat="48.94634" lon="0.73772">
        <ele>154</ele>
        <time>2019-08-15T08:01:35.706Z</time>
      </trkpt>
      <trkpt lat="48.94625" lon="0.73775">
        <ele>153</ele>
        <time>2019-08-15T08:01:36.711Z</time>
      </trkpt>
      <trkpt lat="48.94625" lon="0.73775">
        <ele>153</ele>
        <time>2019-08-15T08:01:37.707Z</time>
      </trkpt>
      <trkpt lat="48.94618" lon="0.73775">
        <ele>152</ele>
        <time>2019-08-15T08:01:38.691Z</time>
      </trkpt>
      <trkpt lat="48.94618" lon="0.73775">
        <ele>152</ele>
        <time>2019-08-15T08:01:39.688Z</time>
      </trkpt>
      <trkpt lat="48.94612" lon="0.73771">
        <ele>150</ele>
        <time>2019-08-15T08:01:40.716Z</time>
      </trkpt>
      <trkpt lat="48.94612" lon="0.73771">
        <ele>150</ele>
        <time>2019-08-15T08:01:41.707Z</time>
      </trkpt>
      <trkpt lat="48.94608" lon="0.73763">
        <ele>148</ele>
        <time>2019-08-15T08:01:42.715Z</time>
      </trkpt>
      <trkpt lat="48.94607" lon="0.73759">
        <ele>147</ele>
        <time>2019-08-15T08:01:43.715Z</time>
      </trkpt>
      <trkpt lat="48.94605" lon="0.73755">
        <ele>146</ele>
        <time>2019-08-15T08:01:44.711Z</time>
      </trkpt>
      <trkpt lat="48.94605" lon="0.73755">
        <ele>146</ele>
        <time>2019-08-15T08:01:45.707Z</time>
      </trkpt>
      <trkpt lat="48.946" lon="0.73749">
        <ele>145</ele>
        <time>2019-08-15T08:01:46.678Z</time>
      </trkpt>
      <trkpt lat="48.946" lon="0.73749">
        <ele>145</ele>
        <time>2019-08-15T08:01:47.704Z</time>
      </trkpt>
      <trkpt lat="48.94592" lon="0.73748">
        <ele>143</ele>
        <time>2019-08-15T08:01:48.716Z</time>
      </trkpt>
      <trkpt lat="48.94592" lon="0.73748">
        <ele>143</ele>
        <time>2019-08-15T08:01:49.707Z</time>
      </trkpt>
      <trkpt lat="48.94582" lon="0.73752">
        <ele>142</ele>
        <time>2019-08-15T08:01:50.716Z</time>
      </trkpt>
      <trkpt lat="48.94582" lon="0.73752">
        <ele>142</ele>
        <time>2019-08-15T08:01:51.691Z</time>
      </trkpt>
      <trkpt lat="48.94573" lon="0.7376">
        <ele>143</ele>
        <time>2019-08-15T08:01:52.683Z</time>
      </trkpt>
      <trkpt lat="48.94569" lon="0.73763">
        <ele>142</ele>
        <time>2019-08-15T08:01:53.708Z</time>
      </trkpt>
      <trkpt lat="48.94569" lon="0.73763">
        <ele>142</ele>
        <time>2019-08-15T08:01:54.706Z</time>
      </trkpt>
      <trkpt lat="48.94564" lon="0.73764">
        <ele>142</ele>
        <time>2019-08-15T08:01:55.709Z</time>
      </trkpt>
      <trkpt lat="48.94561" lon="0.73764">
        <ele>142</ele>
        <time>2019-08-15T08:01:56.710Z</time>
      </trkpt>
      <trkpt lat="48.94561" lon="0.73764">
        <ele>142</ele>
        <time>2019-08-15T08:01:57.707Z</time>
      </trkpt>
      <trkpt lat="48.94557" lon="0.73764">
        <ele>141</ele>
        <time>2019-08-15T08:01:58.690Z</time>
      </trkpt>
      <trkpt lat="48.94557" lon="0.73764">
        <ele>141</ele>
        <time>2019-08-15T08:01:59.715Z</time>
      </trkpt>
      <trkpt lat="48.94551" lon="0.73763">
        <ele>141</ele>
        <time>2019-08-15T08:02:00.716Z</time>
      </trkpt>
      <trkpt lat="48.94551" lon="0.73763">
        <ele>141</ele>
        <time>2019-08-15T08:02:01.704Z</time>
      </trkpt>
      <trkpt lat="48.94544" lon="0.73761">
        <ele>141</ele>
        <time>2019-08-15T08:02:02.689Z</time>
      </trkpt>
      <trkpt lat="48.94544" lon="0.73761">
        <ele>141</ele>
        <time>2019-08-15T08:02:03.715Z</time>
      </trkpt>
      <trkpt lat="48.94537" lon="0.73759">
        <ele>140</ele>
        <time>2019-08-15T08:02:04.706Z</time>
      </trkpt>
      <trkpt lat="48.94537" lon="0.73759">
        <ele>140</ele>
        <time>2019-08-15T08:02:05.705Z</time>
      </trkpt>
      <trkpt lat="48.94528" lon="0.73757">
        <ele>140</ele>
        <time>2019-08-15T08:02:06.708Z</time>
      </trkpt>
      <trkpt lat="48.94528" lon="0.73757">
        <ele>140</ele>
        <time>2019-08-15T08:02:07.707Z</time>
      </trkpt>
      <trkpt lat="48.9452" lon="0.73754">
        <ele>139</ele>
        <time>2019-08-15T08:02:08.710Z</time>
      </trkpt>
      <trkpt lat="48.94516" lon="0.73753">
        <ele>139</ele>
        <time>2019-08-15T08:02:09.710Z</time>
      </trkpt>
      <trkpt lat="48.94516" lon="0.73753">
        <ele>139</ele>
        <time>2019-08-15T08:02:10.706Z</time>
      </trkpt>
      <trkpt lat="48.94508" lon="0.73752">
        <ele>139</ele>
        <time>2019-08-15T08:02:11.707Z</time>
      </trkpt>
      <trkpt lat="48.94504" lon="0.73751">
        <ele>139</ele>
        <time>2019-08-15T08:02:12.716Z</time>
      </trkpt>
      <trkpt lat="48.94504" lon="0.73751">
        <ele>139</ele>
        <time>2019-08-15T08:02:13.708Z</time>
      </trkpt>
      <trkpt lat="48.94496" lon="0.73748">
        <ele>139</ele>
        <time>2019-08-15T08:02:14.711Z</time>
      </trkpt>
      <trkpt lat="48.94496" lon="0.73748">
        <ele>139</ele>
        <time>2019-08-15T08:02:15.704Z</time>
      </trkpt>
      <trkpt lat="48.94487" lon="0.73744">
        <ele>139</ele>
        <time>2019-08-15T08:02:16.709Z</time>
      </trkpt>
      <trkpt lat="48.94487" lon="0.73744">
        <ele>139</ele>
        <time>2019-08-15T08:02:17.688Z</time>
      </trkpt>
      <trkpt lat="48.94478" lon="0.73741">
        <ele>138</ele>
        <time>2019-08-15T08:02:18.716Z</time>
      </trkpt>
      <trkpt lat="48.94478" lon="0.73741">
        <ele>138</ele>
        <time>2019-08-15T08:02:19.707Z</time>
      </trkpt>
      <trkpt lat="48.9447" lon="0.73736">
        <ele>138</ele>
        <time>2019-08-15T08:02:20.715Z</time>
      </trkpt>
      <trkpt lat="48.9447" lon="0.73736">
        <ele>138</ele>
        <time>2019-08-15T08:02:21.705Z</time>
      </trkpt>
      <trkpt lat="48.94461" lon="0.73733">
        <ele>138</ele>
        <time>2019-08-15T08:02:22.710Z</time>
      </trkpt>
      <trkpt lat="48.94461" lon="0.73733">
        <ele>138</ele>
        <time>2019-08-15T08:02:23.707Z</time>
      </trkpt>
      <trkpt lat="48.94452" lon="0.73729">
        <ele>137</ele>
        <time>2019-08-15T08:02:24.708Z</time>
      </trkpt>
      <trkpt lat="48.94452" lon="0.73729">
        <ele>137</ele>
        <time>2019-08-15T08:02:25.705Z</time>
      </trkpt>
      <trkpt lat="48.94442" lon="0.73723">
        <ele>138</ele>
        <time>2019-08-15T08:02:26.711Z</time>
      </trkpt>
      <trkpt lat="48.94442" lon="0.73723">
        <ele>138</ele>
        <time>2019-08-15T08:02:27.707Z</time>
      </trkpt>
      <trkpt lat="48.94433" lon="0.73718">
        <ele>138</ele>
        <time>2019-08-15T08:02:28.707Z</time>
      </trkpt>
      <trkpt lat="48.94433" lon="0.73718">
        <ele>138</ele>
        <time>2019-08-15T08:02:29.707Z</time>
      </trkpt>
      <trkpt lat="48.94423" lon="0.73713">
        <ele>138</ele>
        <time>2019-08-15T08:02:30.711Z</time>
      </trkpt>
      <trkpt lat="48.94423" lon="0.73713">
        <ele>138</ele>
        <time>2019-08-15T08:02:31.707Z</time>
      </trkpt>
      <trkpt lat="48.94412" lon="0.73708">
        <ele>138</ele>
        <time>2019-08-15T08:02:32.711Z</time>
      </trkpt>
      <trkpt lat="48.94412" lon="0.73708">
        <ele>138</ele>
        <time>2019-08-15T08:02:33.707Z</time>
      </trkpt>
      <trkpt lat="48.94402" lon="0.73703">
        <ele>137</ele>
        <time>2019-08-15T08:02:34.706Z</time>
      </trkpt>
      <trkpt lat="48.94402" lon="0.73703">
        <ele>137</ele>
        <time>2019-08-15T08:02:35.705Z</time>
      </trkpt>
      <trkpt lat="48.94391" lon="0.73698">
        <ele>137</ele>
        <time>2019-08-15T08:02:36.709Z</time>
      </trkpt>
      <trkpt lat="48.94391" lon="0.73698">
        <ele>137</ele>
        <time>2019-08-15T08:02:37.707Z</time>
      </trkpt>
      <trkpt lat="48.94381" lon="0.73693">
        <ele>137</ele>
        <time>2019-08-15T08:02:38.691Z</time>
      </trkpt>
      <trkpt lat="48.94376" lon="0.73691">
        <ele>137</ele>
        <time>2019-08-15T08:02:39.686Z</time>
      </trkpt>
      <trkpt lat="48.94376" lon="0.73691">
        <ele>137</ele>
        <time>2019-08-15T08:02:40.710Z</time>
      </trkpt>
      <trkpt lat="48.94367" lon="0.73686">
        <ele>137</ele>
        <time>2019-08-15T08:02:41.708Z</time>
      </trkpt>
      <trkpt lat="48.94362" lon="0.73684">
        <ele>137</ele>
        <time>2019-08-15T08:02:42.714Z</time>
      </trkpt>
      <trkpt lat="48.94362" lon="0.73684">
        <ele>137</ele>
        <time>2019-08-15T08:02:43.704Z</time>
      </trkpt>
      <trkpt lat="48.94353" lon="0.73681">
        <ele>137</ele>
        <time>2019-08-15T08:02:44.707Z</time>
      </trkpt>
      <trkpt lat="48.94353" lon="0.73681">
        <ele>137</ele>
        <time>2019-08-15T08:02:45.703Z</time>
      </trkpt>
      <trkpt lat="48.94344" lon="0.73676">
        <ele>137</ele>
        <time>2019-08-15T08:02:46.709Z</time>
      </trkpt>
      <trkpt lat="48.94344" lon="0.73676">
        <ele>137</ele>
        <time>2019-08-15T08:02:47.706Z</time>
      </trkpt>
      <trkpt lat="48.94334" lon="0.7367">
        <ele>137</ele>
        <time>2019-08-15T08:02:48.691Z</time>
      </trkpt>
      <trkpt lat="48.94334" lon="0.7367">
        <ele>137</ele>
        <time>2019-08-15T08:02:49.716Z</time>
      </trkpt>
      <trkpt lat="48.94325" lon="0.73663">
        <ele>137</ele>
        <time>2019-08-15T08:02:50.711Z</time>
      </trkpt>
      <trkpt lat="48.94325" lon="0.73663">
        <ele>137</ele>
        <time>2019-08-15T08:02:51.692Z</time>
      </trkpt>
      <trkpt lat="48.94317" lon="0.73655">
        <ele>138</ele>
        <time>2019-08-15T08:02:52.678Z</time>
      </trkpt>
      <trkpt lat="48.94317" lon="0.73655">
        <ele>138</ele>
        <time>2019-08-15T08:02:53.708Z</time>
      </trkpt>
      <trkpt lat="48.94311" lon="0.73648">
        <ele>138</ele>
        <time>2019-08-15T08:02:54.716Z</time>
      </trkpt>
      <trkpt lat="48.94307" lon="0.73645">
        <ele>138</ele>
        <time>2019-08-15T08:02:55.715Z</time>
      </trkpt>
      <trkpt lat="48.94307" lon="0.73645">
        <ele>138</ele>
        <time>2019-08-15T08:02:56.709Z</time>
      </trkpt>
      <trkpt lat="48.94298" lon="0.73641">
        <ele>138</ele>
        <time>2019-08-15T08:02:57.710Z</time>
      </trkpt>
      <trkpt lat="48.94298" lon="0.73641">
        <ele>138</ele>
        <time>2019-08-15T08:02:58.707Z</time>
      </trkpt>
      <trkpt lat="48.9429" lon="0.73635">
        <ele>138</ele>
        <time>2019-08-15T08:02:59.715Z</time>
      </trkpt>
      <trkpt lat="48.9429" lon="0.73635">
        <ele>138</ele>
        <time>2019-08-15T08:03:00.709Z</time>
      </trkpt>
      <trkpt lat="48.94282" lon="0.73628">
        <ele>138</ele>
        <time>2019-08-15T08:03:01.710Z</time>
      </trkpt>
      <trkpt lat="48.94278" lon="0.73625">
        <ele>138</ele>
        <time>2019-08-15T08:03:02.715Z</time>
      </trkpt>
      <trkpt lat="48.94278" lon="0.73625">
        <ele>138</ele>
        <time>2019-08-15T08:03:03.710Z</time>
      </trkpt>
      <trkpt lat="48.94269" lon="0.73617">
        <ele>138</ele>
        <time>2019-08-15T08:03:04.710Z</time>
      </trkpt>
      <trkpt lat="48.94269" lon="0.73617">
        <ele>138</ele>
        <time>2019-08-15T08:03:05.707Z</time>
      </trkpt>
      <trkpt lat="48.94261" lon="0.73609">
        <ele>138</ele>
        <time>2019-08-15T08:03:06.715Z</time>
      </trkpt>
      <trkpt lat="48.94261" lon="0.73609">
        <ele>138</ele>
        <time>2019-08-15T08:03:07.707Z</time>
      </trkpt>
      <trkpt lat="48.94253" lon="0.73602">
        <ele>138</ele>
        <time>2019-08-15T08:03:08.691Z</time>
      </trkpt>
      <trkpt lat="48.94253" lon="0.73602">
        <ele>138</ele>
        <time>2019-08-15T08:03:09.691Z</time>
      </trkpt>
      <trkpt lat="48.94245" lon="0.73594">
        <ele>138</ele>
        <time>2019-08-15T08:03:10.716Z</time>
      </trkpt>
      <trkpt lat="48.94245" lon="0.73594">
        <ele>138</ele>
        <time>2019-08-15T08:03:11.707Z</time>
      </trkpt>
      <trkpt lat="48.94236" lon="0.73586">
        <ele>139</ele>
        <time>2019-08-15T08:03:12.708Z</time>
      </trkpt>
      <trkpt lat="48.94236" lon="0.73586">
        <ele>139</ele>
        <time>2019-08-15T08:03:13.705Z</time>
      </trkpt>
      <trkpt lat="48.94228" lon="0.73578">
        <ele>139</ele>
        <time>2019-08-15T08:03:14.715Z</time>
      </trkpt>
      <trkpt lat="48.94228" lon="0.73578">
        <ele>139</ele>
        <time>2019-08-15T08:03:15.706Z</time>
      </trkpt>
      <trkpt lat="48.94221" lon="0.73571">
        <ele>139</ele>
        <time>2019-08-15T08:03:16.709Z</time>
      </trkpt>
      <trkpt lat="48.94221" lon="0.73571">
        <ele>139</ele>
        <time>2019-08-15T08:03:17.703Z</time>
      </trkpt>
      <trkpt lat="48.94214" lon="0.73563">
        <ele>138</ele>
        <time>2019-08-15T08:03:18.716Z</time>
      </trkpt>
      <trkpt lat="48.94214" lon="0.73563">
        <ele>138</ele>
        <time>2019-08-15T08:03:19.707Z</time>
      </trkpt>
      <trkpt lat="48.94206" lon="0.73555">
        <ele>138</ele>
        <time>2019-08-15T08:03:20.715Z</time>
      </trkpt>
      <trkpt lat="48.94206" lon="0.73555">
        <ele>138</ele>
        <time>2019-08-15T08:03:21.705Z</time>
      </trkpt>
      <trkpt lat="48.94199" lon="0.73548">
        <ele>138</ele>
        <time>2019-08-15T08:03:22.710Z</time>
      </trkpt>
      <trkpt lat="48.94199" lon="0.73548">
        <ele>138</ele>
        <time>2019-08-15T08:03:23.707Z</time>
      </trkpt>
      <trkpt lat="48.94191" lon="0.7354">
        <ele>138</ele>
        <time>2019-08-15T08:03:24.715Z</time>
      </trkpt>
      <trkpt lat="48.94191" lon="0.7354">
        <ele>138</ele>
        <time>2019-08-15T08:03:25.705Z</time>
      </trkpt>
      <trkpt lat="48.94183" lon="0.73533">
        <ele>138</ele>
        <time>2019-08-15T08:03:26.711Z</time>
      </trkpt>
      <trkpt lat="48.94183" lon="0.73533">
        <ele>138</ele>
        <time>2019-08-15T08:03:27.707Z</time>
      </trkpt>
      <trkpt lat="48.94175" lon="0.73526">
        <ele>138</ele>
        <time>2019-08-15T08:03:28.709Z</time>
      </trkpt>
      <trkpt lat="48.9417" lon="0.73522">
        <ele>138</ele>
        <time>2019-08-15T08:03:29.711Z</time>
      </trkpt>
      <trkpt lat="48.94166" lon="0.73519">
        <ele>138</ele>
        <time>2019-08-15T08:03:30.708Z</time>
      </trkpt>
      <trkpt lat="48.94166" lon="0.73519">
        <ele>138</ele>
        <time>2019-08-15T08:03:31.707Z</time>
      </trkpt>
      <trkpt lat="48.94158" lon="0.73512">
        <ele>138</ele>
        <time>2019-08-15T08:03:32.711Z</time>
      </trkpt>
      <trkpt lat="48.94158" lon="0.73512">
        <ele>138</ele>
        <time>2019-08-15T08:03:33.707Z</time>
      </trkpt>
      <trkpt lat="48.94149" lon="0.73506">
        <ele>138</ele>
        <time>2019-08-15T08:03:34.710Z</time>
      </trkpt>
      <trkpt lat="48.94149" lon="0.73506">
        <ele>138</ele>
        <time>2019-08-15T08:03:35.707Z</time>
      </trkpt>
      <trkpt lat="48.94141" lon="0.73499">
        <ele>138</ele>
        <time>2019-08-15T08:03:36.715Z</time>
      </trkpt>
      <trkpt lat="48.94141" lon="0.73499">
        <ele>138</ele>
        <time>2019-08-15T08:03:37.707Z</time>
      </trkpt>
      <trkpt lat="48.94132" lon="0.73493">
        <ele>138</ele>
        <time>2019-08-15T08:03:38.691Z</time>
      </trkpt>
      <trkpt lat="48.94132" lon="0.73493">
        <ele>138</ele>
        <time>2019-08-15T08:03:39.683Z</time>
      </trkpt>
      <trkpt lat="48.94124" lon="0.73487">
        <ele>138</ele>
        <time>2019-08-15T08:03:40.709Z</time>
      </trkpt>
      <trkpt lat="48.94124" lon="0.73487">
        <ele>138</ele>
        <time>2019-08-15T08:03:41.706Z</time>
      </trkpt>
      <trkpt lat="48.94117" lon="0.73481">
        <ele>138</ele>
        <time>2019-08-15T08:03:42.708Z</time>
      </trkpt>
      <trkpt lat="48.94117" lon="0.73481">
        <ele>138</ele>
        <time>2019-08-15T08:03:43.706Z</time>
      </trkpt>
      <trkpt lat="48.9411" lon="0.73475">
        <ele>137</ele>
        <time>2019-08-15T08:03:44.711Z</time>
      </trkpt>
      <trkpt lat="48.9411" lon="0.73475">
        <ele>137</ele>
        <time>2019-08-15T08:03:45.705Z</time>
      </trkpt>
      <trkpt lat="48.94104" lon="0.73469">
        <ele>137</ele>
        <time>2019-08-15T08:03:46.707Z</time>
      </trkpt>
      <trkpt lat="48.94104" lon="0.73469">
        <ele>137</ele>
        <time>2019-08-15T08:03:47.694Z</time>
      </trkpt>
      <trkpt lat="48.94098" lon="0.73462">
        <ele>137</ele>
        <time>2019-08-15T08:03:48.679Z</time>
      </trkpt>
      <trkpt lat="48.94098" lon="0.73462">
        <ele>137</ele>
        <time>2019-08-15T08:03:49.704Z</time>
      </trkpt>
      <trkpt lat="48.94093" lon="0.73455">
        <ele>137</ele>
        <time>2019-08-15T08:03:50.710Z</time>
      </trkpt>
      <trkpt lat="48.94093" lon="0.73455">
        <ele>137</ele>
        <time>2019-08-15T08:03:51.691Z</time>
      </trkpt>
      <trkpt lat="48.94085" lon="0.73447">
        <ele>137</ele>
        <time>2019-08-15T08:03:52.717Z</time>
      </trkpt>
      <trkpt lat="48.94085" lon="0.73447">
        <ele>137</ele>
        <time>2019-08-15T08:03:53.707Z</time>
      </trkpt>
      <trkpt lat="48.94078" lon="0.7344">
        <ele>137</ele>
        <time>2019-08-15T08:03:54.716Z</time>
      </trkpt>
      <trkpt lat="48.94078" lon="0.7344">
        <ele>137</ele>
        <time>2019-08-15T08:03:55.707Z</time>
      </trkpt>
      <trkpt lat="48.94071" lon="0.73432">
        <ele>137</ele>
        <time>2019-08-15T08:03:56.678Z</time>
      </trkpt>
      <trkpt lat="48.94071" lon="0.73432">
        <ele>137</ele>
        <time>2019-08-15T08:03:57.707Z</time>
      </trkpt>
      <trkpt lat="48.94065" lon="0.73422">
        <ele>136</ele>
        <time>2019-08-15T08:03:58.709Z</time>
      </trkpt>
      <trkpt lat="48.94061" lon="0.73418">
        <ele>136</ele>
        <time>2019-08-15T08:03:59.707Z</time>
      </trkpt>
      <trkpt lat="48.94061" lon="0.73418">
        <ele>136</ele>
        <time>2019-08-15T08:04:00.705Z</time>
      </trkpt>
      <trkpt lat="48.94055" lon="0.73409">
        <ele>135</ele>
        <time>2019-08-15T08:04:01.709Z</time>
      </trkpt>
      <trkpt lat="48.94052" lon="0.73405">
        <ele>135</ele>
        <time>2019-08-15T08:04:02.715Z</time>
      </trkpt>
      <trkpt lat="48.94052" lon="0.73405">
        <ele>135</ele>
        <time>2019-08-15T08:04:03.711Z</time>
      </trkpt>
      <trkpt lat="48.94044" lon="0.73396">
        <ele>134</ele>
        <time>2019-08-15T08:04:04.711Z</time>
      </trkpt>
      <trkpt lat="48.94044" lon="0.73396">
        <ele>134</ele>
        <time>2019-08-15T08:04:05.707Z</time>
      </trkpt>
      <trkpt lat="48.94036" lon="0.73387">
        <ele>134</ele>
        <time>2019-08-15T08:04:06.715Z</time>
      </trkpt>
      <trkpt lat="48.94036" lon="0.73387">
        <ele>134</ele>
        <time>2019-08-15T08:04:07.704Z</time>
      </trkpt>
      <trkpt lat="48.94027" lon="0.73378">
        <ele>134</ele>
        <time>2019-08-15T08:04:08.715Z</time>
      </trkpt>
      <trkpt lat="48.94027" lon="0.73378">
        <ele>134</ele>
        <time>2019-08-15T08:04:09.707Z</time>
      </trkpt>
      <trkpt lat="48.94017" lon="0.73369">
        <ele>134</ele>
        <time>2019-08-15T08:04:10.706Z</time>
      </trkpt>
      <trkpt lat="48.94012" lon="0.73368">
        <ele>134</ele>
        <time>2019-08-15T08:04:11.715Z</time>
      </trkpt>
      <trkpt lat="48.94012" lon="0.73368">
        <ele>134</ele>
        <time>2019-08-15T08:04:12.705Z</time>
      </trkpt>
      <trkpt lat="48.94004" lon="0.73373">
        <ele>134</ele>
        <time>2019-08-15T08:04:13.707Z</time>
      </trkpt>
      <trkpt lat="48.94001" lon="0.73377">
        <ele>134</ele>
        <time>2019-08-15T08:04:14.715Z</time>
      </trkpt>
      <trkpt lat="48.94001" lon="0.73377">
        <ele>134</ele>
        <time>2019-08-15T08:04:15.705Z</time>
      </trkpt>
      <trkpt lat="48.93996" lon="0.73384">
        <ele>135</ele>
        <time>2019-08-15T08:04:16.708Z</time>
      </trkpt>
      <trkpt lat="48.93992" lon="0.73387">
        <ele>135</ele>
        <time>2019-08-15T08:04:17.709Z</time>
      </trkpt>
      <trkpt lat="48.93989" lon="0.73391">
        <ele>136</ele>
        <time>2019-08-15T08:04:18.715Z</time>
      </trkpt>
      <trkpt lat="48.93989" lon="0.73391">
        <ele>136</ele>
        <time>2019-08-15T08:04:19.706Z</time>
      </trkpt>
      <trkpt lat="48.93984" lon="0.73396">
        <ele>137</ele>
        <time>2019-08-15T08:04:20.710Z</time>
      </trkpt>
      <trkpt lat="48.93984" lon="0.73396">
        <ele>137</ele>
        <time>2019-08-15T08:04:21.707Z</time>
      </trkpt>
      <trkpt lat="48.93977" lon="0.734">
        <ele>137</ele>
        <time>2019-08-15T08:04:22.708Z</time>
      </trkpt>
      <trkpt lat="48.93977" lon="0.734">
        <ele>137</ele>
        <time>2019-08-15T08:04:23.707Z</time>
      </trkpt>
      <trkpt lat="48.93969" lon="0.73407">
        <ele>137</ele>
        <time>2019-08-15T08:04:24.715Z</time>
      </trkpt>
      <trkpt lat="48.93969" lon="0.73407">
        <ele>137</ele>
        <time>2019-08-15T08:04:25.704Z</time>
      </trkpt>
      <trkpt lat="48.9396" lon="0.73413">
        <ele>138</ele>
        <time>2019-08-15T08:04:26.711Z</time>
      </trkpt>
      <trkpt lat="48.9396" lon="0.73413">
        <ele>138</ele>
        <time>2019-08-15T08:04:27.707Z</time>
      </trkpt>
      <trkpt lat="48.93951" lon="0.7342">
        <ele>137</ele>
        <time>2019-08-15T08:04:28.690Z</time>
      </trkpt>
      <trkpt lat="48.93946" lon="0.73423">
        <ele>137</ele>
        <time>2019-08-15T08:04:29.678Z</time>
      </trkpt>
      <trkpt lat="48.93946" lon="0.73423">
        <ele>137</ele>
        <time>2019-08-15T08:04:30.706Z</time>
      </trkpt>
      <trkpt lat="48.93936" lon="0.73431">
        <ele>137</ele>
        <time>2019-08-15T08:04:31.709Z</time>
      </trkpt>
      <trkpt lat="48.93933" lon="0.73436">
        <ele>137</ele>
        <time>2019-08-15T08:04:32.715Z</time>
      </trkpt>
      <trkpt lat="48.93933" lon="0.73436">
        <ele>137</ele>
        <time>2019-08-15T08:04:33.705Z</time>
      </trkpt>
      <trkpt lat="48.93927" lon="0.73446">
        <ele>137</ele>
        <time>2019-08-15T08:04:34.707Z</time>
      </trkpt>
      <trkpt lat="48.93927" lon="0.73446">
        <ele>137</ele>
        <time>2019-08-15T08:04:35.706Z</time>
      </trkpt>
      <trkpt lat="48.93922" lon="0.73458">
        <ele>138</ele>
        <time>2019-08-15T08:04:36.715Z</time>
      </trkpt>
      <trkpt lat="48.93922" lon="0.73458">
        <ele>138</ele>
        <time>2019-08-15T08:04:37.704Z</time>
      </trkpt>
      <trkpt lat="48.93913" lon="0.73466">
        <ele>139</ele>
        <time>2019-08-15T08:04:38.691Z</time>
      </trkpt>
      <trkpt lat="48.93913" lon="0.73466">
        <ele>139</ele>
        <time>2019-08-15T08:04:39.690Z</time>
      </trkpt>
      <trkpt lat="48.93902" lon="0.7347">
        <ele>140</ele>
        <time>2019-08-15T08:04:40.717Z</time>
      </trkpt>
      <trkpt lat="48.93902" lon="0.7347">
        <ele>140</ele>
        <time>2019-08-15T08:04:41.707Z</time>
      </trkpt>
      <trkpt lat="48.93892" lon="0.73478">
        <ele>140</ele>
        <time>2019-08-15T08:04:42.708Z</time>
      </trkpt>
      <trkpt lat="48.93892" lon="0.73478">
        <ele>140</ele>
        <time>2019-08-15T08:04:43.704Z</time>
      </trkpt>
      <trkpt lat="48.93884" lon="0.7349">
        <ele>141</ele>
        <time>2019-08-15T08:04:44.711Z</time>
      </trkpt>
      <trkpt lat="48.93884" lon="0.7349">
        <ele>141</ele>
        <time>2019-08-15T08:04:45.704Z</time>
      </trkpt>
      <trkpt lat="48.93879" lon="0.73503">
        <ele>140</ele>
        <time>2019-08-15T08:04:46.707Z</time>
      </trkpt>
      <trkpt lat="48.93879" lon="0.73503">
        <ele>140</ele>
        <time>2019-08-15T08:04:47.707Z</time>
      </trkpt>
      <trkpt lat="48.93876" lon="0.73519">
        <ele>139</ele>
        <time>2019-08-15T08:04:48.691Z</time>
      </trkpt>
      <trkpt lat="48.93876" lon="0.73519">
        <ele>139</ele>
        <time>2019-08-15T08:04:49.715Z</time>
      </trkpt>
      <trkpt lat="48.93873" lon="0.73535">
        <ele>139</ele>
        <time>2019-08-15T08:04:50.716Z</time>
      </trkpt>
      <trkpt lat="48.93873" lon="0.73535">
        <ele>139</ele>
        <time>2019-08-15T08:04:51.688Z</time>
      </trkpt>
      <trkpt lat="48.9387" lon="0.73551">
        <ele>139</ele>
        <time>2019-08-15T08:04:52.679Z</time>
      </trkpt>
      <trkpt lat="48.9387" lon="0.73551">
        <ele>139</ele>
        <time>2019-08-15T08:04:53.706Z</time>
      </trkpt>
      <trkpt lat="48.93868" lon="0.73568">
        <ele>139</ele>
        <time>2019-08-15T08:04:54.683Z</time>
      </trkpt>
      <trkpt lat="48.93868" lon="0.73568">
        <ele>139</ele>
        <time>2019-08-15T08:04:55.707Z</time>
      </trkpt>
      <trkpt lat="48.93865" lon="0.73585">
        <ele>138</ele>
        <time>2019-08-15T08:04:56.707Z</time>
      </trkpt>
      <trkpt lat="48.93865" lon="0.73585">
        <ele>138</ele>
        <time>2019-08-15T08:04:57.703Z</time>
      </trkpt>
      <trkpt lat="48.93864" lon="0.73602">
        <ele>138</ele>
        <time>2019-08-15T08:04:58.716Z</time>
      </trkpt>
      <trkpt lat="48.93864" lon="0.73602">
        <ele>138</ele>
        <time>2019-08-15T08:04:59.706Z</time>
      </trkpt>
      <trkpt lat="48.93862" lon="0.73618">
        <ele>138</ele>
        <time>2019-08-15T08:05:00.710Z</time>
      </trkpt>
      <trkpt lat="48.93862" lon="0.73618">
        <ele>138</ele>
        <time>2019-08-15T08:05:01.707Z</time>
      </trkpt>
      <trkpt lat="48.9386" lon="0.73634">
        <ele>138</ele>
        <time>2019-08-15T08:05:02.710Z</time>
      </trkpt>
      <trkpt lat="48.9386" lon="0.73634">
        <ele>138</ele>
        <time>2019-08-15T08:05:03.707Z</time>
      </trkpt>
      <trkpt lat="48.93856" lon="0.73648">
        <ele>137</ele>
        <time>2019-08-15T08:05:04.707Z</time>
      </trkpt>
      <trkpt lat="48.93856" lon="0.73648">
        <ele>137</ele>
        <time>2019-08-15T08:05:05.707Z</time>
      </trkpt>
      <trkpt lat="48.93853" lon="0.73662">
        <ele>137</ele>
        <time>2019-08-15T08:05:06.715Z</time>
      </trkpt>
      <trkpt lat="48.93851" lon="0.73669">
        <ele>137</ele>
        <time>2019-08-15T08:05:07.715Z</time>
      </trkpt>
      <trkpt lat="48.93851" lon="0.73669">
        <ele>137</ele>
        <time>2019-08-15T08:05:08.704Z</time>
      </trkpt>
      <trkpt lat="48.93849" lon="0.7368">
        <ele>136</ele>
        <time>2019-08-15T08:05:09.678Z</time>
      </trkpt>
      <trkpt lat="48.93847" lon="0.73683">
        <ele>137</ele>
        <time>2019-08-15T08:05:10.707Z</time>
      </trkpt>
      <trkpt lat="48.93847" lon="0.73683">
        <ele>137</ele>
        <time>2019-08-15T08:05:11.705Z</time>
      </trkpt>
      <trkpt lat="48.93842" lon="0.73683">
        <ele>136</ele>
        <time>2019-08-15T08:05:12.715Z</time>
      </trkpt>
      <trkpt lat="48.93842" lon="0.73683">
        <ele>136</ele>
        <time>2019-08-15T08:05:13.707Z</time>
      </trkpt>
      <trkpt lat="48.93836" lon="0.73679">
        <ele>136</ele>
        <time>2019-08-15T08:05:14.690Z</time>
      </trkpt>
      <trkpt lat="48.93833" lon="0.73677">
        <ele>137</ele>
        <time>2019-08-15T08:05:15.717Z</time>
      </trkpt>
      <trkpt lat="48.93832" lon="0.73675">
        <ele>136</ele>
        <time>2019-08-15T08:05:16.708Z</time>
      </trkpt>
      <trkpt lat="48.93832" lon="0.73675">
        <ele>136</ele>
        <time>2019-08-15T08:05:17.707Z</time>
      </trkpt>
      <trkpt lat="48.93826" lon="0.73672">
        <ele>136</ele>
        <time>2019-08-15T08:05:18.715Z</time>
      </trkpt>
      <trkpt lat="48.93822" lon="0.73669">
        <ele>136</ele>
        <time>2019-08-15T08:05:19.711Z</time>
      </trkpt>
      <trkpt lat="48.93822" lon="0.73669">
        <ele>136</ele>
        <time>2019-08-15T08:05:20.708Z</time>
      </trkpt>
      <trkpt lat="48.93814" lon="0.73665">
        <ele>136</ele>
        <time>2019-08-15T08:05:21.678Z</time>
      </trkpt>
      <trkpt lat="48.93814" lon="0.73665">
        <ele>136</ele>
        <time>2019-08-15T08:05:22.707Z</time>
      </trkpt>
      <trkpt lat="48.93807" lon="0.7366">
        <ele>136</ele>
        <time>2019-08-15T08:05:23.711Z</time>
      </trkpt>
      <trkpt lat="48.93803" lon="0.73658">
        <ele>136</ele>
        <time>2019-08-15T08:05:24.711Z</time>
      </trkpt>
      <trkpt lat="48.93803" lon="0.73658">
        <ele>136</ele>
        <time>2019-08-15T08:05:25.706Z</time>
      </trkpt>
      <trkpt lat="48.93796" lon="0.73656">
        <ele>136</ele>
        <time>2019-08-15T08:05:26.710Z</time>
      </trkpt>
      <trkpt lat="48.93796" lon="0.73656">
        <ele>136</ele>
        <time>2019-08-15T08:05:27.704Z</time>
      </trkpt>
      <trkpt lat="48.93788" lon="0.73653">
        <ele>136</ele>
        <time>2019-08-15T08:05:28.686Z</time>
      </trkpt>
      <trkpt lat="48.93788" lon="0.73653">
        <ele>136</ele>
        <time>2019-08-15T08:05:29.715Z</time>
      </trkpt>
      <trkpt lat="48.9378" lon="0.7365">
        <ele>136</ele>
        <time>2019-08-15T08:05:30.707Z</time>
      </trkpt>
      <trkpt lat="48.9378" lon="0.7365">
        <ele>136</ele>
        <time>2019-08-15T08:05:31.708Z</time>
      </trkpt>
      <trkpt lat="48.93772" lon="0.73647">
        <ele>136</ele>
        <time>2019-08-15T08:05:32.710Z</time>
      </trkpt>
      <trkpt lat="48.93772" lon="0.73647">
        <ele>136</ele>
        <time>2019-08-15T08:05:33.706Z</time>
      </trkpt>
      <trkpt lat="48.93762" lon="0.73644">
        <ele>136</ele>
        <time>2019-08-15T08:05:34.690Z</time>
      </trkpt>
      <trkpt lat="48.93757" lon="0.7364">
        <ele>136</ele>
        <time>2019-08-15T08:05:35.716Z</time>
      </trkpt>
      <trkpt lat="48.93752" lon="0.73636">
        <ele>136</ele>
        <time>2019-08-15T08:05:36.711Z</time>
      </trkpt>
      <trkpt lat="48.93752" lon="0.73636">
        <ele>136</ele>
        <time>2019-08-15T08:05:37.706Z</time>
      </trkpt>
      <trkpt lat="48.93742" lon="0.73627">
        <ele>136</ele>
        <time>2019-08-15T08:05:38.715Z</time>
      </trkpt>
      <trkpt lat="48.93742" lon="0.73627">
        <ele>136</ele>
        <time>2019-08-15T08:05:39.706Z</time>
      </trkpt>
      <trkpt lat="48.93732" lon="0.73623">
        <ele>136</ele>
        <time>2019-08-15T08:05:40.709Z</time>
      </trkpt>
      <trkpt lat="48.93732" lon="0.73623">
        <ele>136</ele>
        <time>2019-08-15T08:05:41.706Z</time>
      </trkpt>
      <trkpt lat="48.93721" lon="0.73621">
        <ele>136</ele>
        <time>2019-08-15T08:05:42.715Z</time>
      </trkpt>
      <trkpt lat="48.93721" lon="0.73621">
        <ele>136</ele>
        <time>2019-08-15T08:05:43.706Z</time>
      </trkpt>
      <trkpt lat="48.93711" lon="0.7362">
        <ele>136</ele>
        <time>2019-08-15T08:05:44.690Z</time>
      </trkpt>
      <trkpt lat="48.93706" lon="0.73619">
        <ele>136</ele>
        <time>2019-08-15T08:05:45.678Z</time>
      </trkpt>
      <trkpt lat="48.93706" lon="0.73619">
        <ele>136</ele>
        <time>2019-08-15T08:05:46.705Z</time>
      </trkpt>
      <trkpt lat="48.93693" lon="0.73623">
        <ele>136</ele>
        <time>2019-08-15T08:05:47.709Z</time>
      </trkpt>
      <trkpt lat="48.93693" lon="0.73623">
        <ele>136</ele>
        <time>2019-08-15T08:05:48.709Z</time>
      </trkpt>
      <trkpt lat="48.93682" lon="0.73625">
        <ele>136</ele>
        <time>2019-08-15T08:05:49.707Z</time>
      </trkpt>
      <trkpt lat="48.93678" lon="0.73627">
        <ele>136</ele>
        <time>2019-08-15T08:05:50.696Z</time>
      </trkpt>
      <trkpt lat="48.93678" lon="0.73627">
        <ele>136</ele>
        <time>2019-08-15T08:05:51.715Z</time>
      </trkpt>
      <trkpt lat="48.93669" lon="0.73632">
        <ele>136</ele>
        <time>2019-08-15T08:05:52.710Z</time>
      </trkpt>
      <trkpt lat="48.93669" lon="0.73632">
        <ele>136</ele>
        <time>2019-08-15T08:05:53.707Z</time>
      </trkpt>
      <trkpt lat="48.93659" lon="0.73635">
        <ele>136</ele>
        <time>2019-08-15T08:05:54.703Z</time>
      </trkpt>
      <trkpt lat="48.93653" lon="0.73636">
        <ele>137</ele>
        <time>2019-08-15T08:05:55.709Z</time>
      </trkpt>
      <trkpt lat="48.93648" lon="0.73639">
        <ele>137</ele>
        <time>2019-08-15T08:05:56.715Z</time>
      </trkpt>
      <trkpt lat="48.93648" lon="0.73639">
        <ele>137</ele>
        <time>2019-08-15T08:05:57.706Z</time>
      </trkpt>
      <trkpt lat="48.9364" lon="0.73643">
        <ele>137</ele>
        <time>2019-08-15T08:05:58.691Z</time>
      </trkpt>
      <trkpt lat="48.9364" lon="0.73643">
        <ele>137</ele>
        <time>2019-08-15T08:05:59.715Z</time>
      </trkpt>
      <trkpt lat="48.93634" lon="0.73648">
        <ele>137</ele>
        <time>2019-08-15T08:06:00.707Z</time>
      </trkpt>
      <trkpt lat="48.93634" lon="0.73648">
        <ele>137</ele>
        <time>2019-08-15T08:06:01.706Z</time>
      </trkpt>
      <trkpt lat="48.93626" lon="0.73653">
        <ele>138</ele>
        <time>2019-08-15T08:06:02.711Z</time>
      </trkpt>
      <trkpt lat="48.93626" lon="0.73653">
        <ele>138</ele>
        <time>2019-08-15T08:06:03.707Z</time>
      </trkpt>
      <trkpt lat="48.93616" lon="0.73658">
        <ele>138</ele>
        <time>2019-08-15T08:06:04.685Z</time>
      </trkpt>
      <trkpt lat="48.93611" lon="0.73662">
        <ele>138</ele>
        <time>2019-08-15T08:06:05.715Z</time>
      </trkpt>
      <trkpt lat="48.93611" lon="0.73662">
        <ele>138</ele>
        <time>2019-08-15T08:06:06.705Z</time>
      </trkpt>
      <trkpt lat="48.93601" lon="0.73671">
        <ele>138</ele>
        <time>2019-08-15T08:06:07.709Z</time>
      </trkpt>
      <trkpt lat="48.93596" lon="0.73675">
        <ele>138</ele>
        <time>2019-08-15T08:06:08.715Z</time>
      </trkpt>
      <trkpt lat="48.93596" lon="0.73675">
        <ele>138</ele>
        <time>2019-08-15T08:06:09.706Z</time>
      </trkpt>
      <trkpt lat="48.93586" lon="0.73684">
        <ele>138</ele>
        <time>2019-08-15T08:06:10.709Z</time>
      </trkpt>
      <trkpt lat="48.93586" lon="0.73684">
        <ele>138</ele>
        <time>2019-08-15T08:06:11.704Z</time>
      </trkpt>
      <trkpt lat="48.93577" lon="0.73692">
        <ele>139</ele>
        <time>2019-08-15T08:06:12.688Z</time>
      </trkpt>
      <trkpt lat="48.93577" lon="0.73692">
        <ele>139</ele>
        <time>2019-08-15T08:06:13.715Z</time>
      </trkpt>
      <trkpt lat="48.93568" lon="0.73701">
        <ele>137</ele>
        <time>2019-08-15T08:06:14.709Z</time>
      </trkpt>
      <trkpt lat="48.93568" lon="0.73701">
        <ele>137</ele>
        <time>2019-08-15T08:06:15.688Z</time>
      </trkpt>
      <trkpt lat="48.93559" lon="0.7371">
        <ele>138</ele>
        <time>2019-08-15T08:06:16.716Z</time>
      </trkpt>
      <trkpt lat="48.93559" lon="0.7371">
        <ele>138</ele>
        <time>2019-08-15T08:06:17.679Z</time>
      </trkpt>
      <trkpt lat="48.93552" lon="0.73719">
        <ele>139</ele>
        <time>2019-08-15T08:06:18.683Z</time>
      </trkpt>
      <trkpt lat="48.93552" lon="0.73719">
        <ele>139</ele>
        <time>2019-08-15T08:06:19.707Z</time>
      </trkpt>
      <trkpt lat="48.93547" lon="0.73729">
        <ele>139</ele>
        <time>2019-08-15T08:06:20.715Z</time>
      </trkpt>
      <trkpt lat="48.93547" lon="0.73729">
        <ele>139</ele>
        <time>2019-08-15T08:06:21.705Z</time>
      </trkpt>
      <trkpt lat="48.93543" lon="0.73739">
        <ele>140</ele>
        <time>2019-08-15T08:06:22.709Z</time>
      </trkpt>
      <trkpt lat="48.93543" lon="0.73739">
        <ele>140</ele>
        <time>2019-08-15T08:06:23.707Z</time>
      </trkpt>
      <trkpt lat="48.93538" lon="0.73748">
        <ele>140</ele>
        <time>2019-08-15T08:06:24.708Z</time>
      </trkpt>
      <trkpt lat="48.93538" lon="0.73748">
        <ele>140</ele>
        <time>2019-08-15T08:06:25.705Z</time>
      </trkpt>
      <trkpt lat="48.93533" lon="0.7376">
        <ele>140</ele>
        <time>2019-08-15T08:06:26.715Z</time>
      </trkpt>
      <trkpt lat="48.93533" lon="0.7376">
        <ele>140</ele>
        <time>2019-08-15T08:06:27.705Z</time>
      </trkpt>
      <trkpt lat="48.93531" lon="0.73776">
        <ele>140</ele>
        <time>2019-08-15T08:06:28.690Z</time>
      </trkpt>
      <trkpt lat="48.93531" lon="0.73776">
        <ele>140</ele>
        <time>2019-08-15T08:06:29.686Z</time>
      </trkpt>
      <trkpt lat="48.93531" lon="0.73791">
        <ele>140</ele>
        <time>2019-08-15T08:06:30.715Z</time>
      </trkpt>
      <trkpt lat="48.93531" lon="0.73791">
        <ele>140</ele>
        <time>2019-08-15T08:06:31.706Z</time>
      </trkpt>
      <trkpt lat="48.93533" lon="0.73807">
        <ele>141</ele>
        <time>2019-08-15T08:06:32.709Z</time>
      </trkpt>
      <trkpt lat="48.93533" lon="0.73807">
        <ele>141</ele>
        <time>2019-08-15T08:06:33.707Z</time>
      </trkpt>
      <trkpt lat="48.93534" lon="0.73822">
        <ele>141</ele>
        <time>2019-08-15T08:06:34.711Z</time>
      </trkpt>
      <trkpt lat="48.93534" lon="0.73822">
        <ele>141</ele>
        <time>2019-08-15T08:06:35.704Z</time>
      </trkpt>
      <trkpt lat="48.93533" lon="0.73837">
        <ele>141</ele>
        <time>2019-08-15T08:06:36.707Z</time>
      </trkpt>
      <trkpt lat="48.93533" lon="0.73837">
        <ele>141</ele>
        <time>2019-08-15T08:06:37.707Z</time>
      </trkpt>
      <trkpt lat="48.9353" lon="0.73853">
        <ele>141</ele>
        <time>2019-08-15T08:06:38.690Z</time>
      </trkpt>
      <trkpt lat="48.93529" lon="0.73861">
        <ele>141</ele>
        <time>2019-08-15T08:06:39.678Z</time>
      </trkpt>
      <trkpt lat="48.93529" lon="0.73861">
        <ele>141</ele>
        <time>2019-08-15T08:06:40.706Z</time>
      </trkpt>
      <trkpt lat="48.93528" lon="0.73877">
        <ele>141</ele>
        <time>2019-08-15T08:06:41.709Z</time>
      </trkpt>
      <trkpt lat="48.93527" lon="0.73885">
        <ele>141</ele>
        <time>2019-08-15T08:06:42.715Z</time>
      </trkpt>
      <trkpt lat="48.93527" lon="0.73885">
        <ele>141</ele>
        <time>2019-08-15T08:06:43.707Z</time>
      </trkpt>
      <trkpt lat="48.93525" lon="0.73901">
        <ele>141</ele>
        <time>2019-08-15T08:06:44.709Z</time>
      </trkpt>
      <trkpt lat="48.93525" lon="0.73901">
        <ele>141</ele>
        <time>2019-08-15T08:06:45.705Z</time>
      </trkpt>
      <trkpt lat="48.93524" lon="0.73917">
        <ele>141</ele>
        <time>2019-08-15T08:06:46.709Z</time>
      </trkpt>
      <trkpt lat="48.93523" lon="0.73924">
        <ele>141</ele>
        <time>2019-08-15T08:06:47.707Z</time>
      </trkpt>
      <trkpt lat="48.93523" lon="0.73924">
        <ele>141</ele>
        <time>2019-08-15T08:06:48.707Z</time>
      </trkpt>
      <trkpt lat="48.9352" lon="0.73939">
        <ele>141</ele>
        <time>2019-08-15T08:06:49.709Z</time>
      </trkpt>
      <trkpt lat="48.93519" lon="0.73946">
        <ele>141</ele>
        <time>2019-08-15T08:06:50.710Z</time>
      </trkpt>
      <trkpt lat="48.93519" lon="0.73946">
        <ele>141</ele>
        <time>2019-08-15T08:06:51.680Z</time>
      </trkpt>
      <trkpt lat="48.93516" lon="0.73962">
        <ele>141</ele>
        <time>2019-08-15T08:06:52.708Z</time>
      </trkpt>
      <trkpt lat="48.93516" lon="0.73962">
        <ele>141</ele>
        <time>2019-08-15T08:06:53.707Z</time>
      </trkpt>
      <trkpt lat="48.93513" lon="0.73976">
        <ele>141</ele>
        <time>2019-08-15T08:06:54.711Z</time>
      </trkpt>
      <trkpt lat="48.93513" lon="0.73976">
        <ele>141</ele>
        <time>2019-08-15T08:06:55.706Z</time>
      </trkpt>
      <trkpt lat="48.93509" lon="0.73988">
        <ele>140</ele>
        <time>2019-08-15T08:06:56.710Z</time>
      </trkpt>
      <trkpt lat="48.93509" lon="0.73988">
        <ele>140</ele>
        <time>2019-08-15T08:06:57.707Z</time>
      </trkpt>
      <trkpt lat="48.93506" lon="0.74003">
        <ele>141</ele>
        <time>2019-08-15T08:06:58.706Z</time>
      </trkpt>
      <trkpt lat="48.93504" lon="0.7401">
        <ele>141</ele>
        <time>2019-08-15T08:06:59.710Z</time>
      </trkpt>
      <trkpt lat="48.93504" lon="0.7401">
        <ele>141</ele>
        <time>2019-08-15T08:07:00.708Z</time>
      </trkpt>
      <trkpt lat="48.93503" lon="0.74027">
        <ele>140</ele>
        <time>2019-08-15T08:07:01.708Z</time>
      </trkpt>
      <trkpt lat="48.93501" lon="0.74035">
        <ele>140</ele>
        <time>2019-08-15T08:07:02.711Z</time>
      </trkpt>
      <trkpt lat="48.93501" lon="0.74035">
        <ele>140</ele>
        <time>2019-08-15T08:07:03.704Z</time>
      </trkpt>
      <trkpt lat="48.93498" lon="0.74051">
        <ele>140</ele>
        <time>2019-08-15T08:07:04.709Z</time>
      </trkpt>
      <trkpt lat="48.93498" lon="0.74051">
        <ele>140</ele>
        <time>2019-08-15T08:07:05.707Z</time>
      </trkpt>
      <trkpt lat="48.93495" lon="0.74067">
        <ele>140</ele>
        <time>2019-08-15T08:07:06.708Z</time>
      </trkpt>
      <trkpt lat="48.93495" lon="0.74067">
        <ele>140</ele>
        <time>2019-08-15T08:07:07.704Z</time>
      </trkpt>
      <trkpt lat="48.93492" lon="0.74081">
        <ele>139</ele>
        <time>2019-08-15T08:07:08.686Z</time>
      </trkpt>
      <trkpt lat="48.9349" lon="0.74088">
        <ele>139</ele>
        <time>2019-08-15T08:07:09.690Z</time>
      </trkpt>
      <trkpt lat="48.9349" lon="0.74088">
        <ele>139</ele>
        <time>2019-08-15T08:07:10.716Z</time>
      </trkpt>
      <trkpt lat="48.93486" lon="0.74101">
        <ele>139</ele>
        <time>2019-08-15T08:07:11.709Z</time>
      </trkpt>
      <trkpt lat="48.93486" lon="0.74101">
        <ele>139</ele>
        <time>2019-08-15T08:07:12.705Z</time>
      </trkpt>
      <trkpt lat="48.93481" lon="0.74113">
        <ele>139</ele>
        <time>2019-08-15T08:07:13.706Z</time>
      </trkpt>
      <trkpt lat="48.93478" lon="0.74118">
        <ele>139</ele>
        <time>2019-08-15T08:07:14.711Z</time>
      </trkpt>
      <trkpt lat="48.93478" lon="0.74118">
        <ele>139</ele>
        <time>2019-08-15T08:07:15.706Z</time>
      </trkpt>
      <trkpt lat="48.93473" lon="0.7413">
        <ele>139</ele>
        <time>2019-08-15T08:07:16.707Z</time>
      </trkpt>
      <trkpt lat="48.93473" lon="0.7413">
        <ele>139</ele>
        <time>2019-08-15T08:07:17.705Z</time>
      </trkpt>
      <trkpt lat="48.93468" lon="0.7414">
        <ele>139</ele>
        <time>2019-08-15T08:07:18.708Z</time>
      </trkpt>
      <trkpt lat="48.93468" lon="0.7414">
        <ele>139</ele>
        <time>2019-08-15T08:07:19.707Z</time>
      </trkpt>
      <trkpt lat="48.93465" lon="0.7415">
        <ele>139</ele>
        <time>2019-08-15T08:07:20.710Z</time>
      </trkpt>
      <trkpt lat="48.93465" lon="0.7415">
        <ele>139</ele>
        <time>2019-08-15T08:07:21.706Z</time>
      </trkpt>
      <trkpt lat="48.93463" lon="0.7416">
        <ele>139</ele>
        <time>2019-08-15T08:07:22.709Z</time>
      </trkpt>
      <trkpt lat="48.93463" lon="0.74164">
        <ele>139</ele>
        <time>2019-08-15T08:07:23.709Z</time>
      </trkpt>
      <trkpt lat="48.93463" lon="0.74164">
        <ele>139</ele>
        <time>2019-08-15T08:07:24.705Z</time>
      </trkpt>
      <trkpt lat="48.93463" lon="0.74174">
        <ele>140</ele>
        <time>2019-08-15T08:07:25.688Z</time>
      </trkpt>
      <trkpt lat="48.93463" lon="0.74177">
        <ele>141</ele>
        <time>2019-08-15T08:07:26.715Z</time>
      </trkpt>
      <trkpt lat="48.93463" lon="0.74177">
        <ele>141</ele>
        <time>2019-08-15T08:07:27.706Z</time>
      </trkpt>
      <trkpt lat="48.93463" lon="0.74183">
        <ele>142</ele>
        <time>2019-08-15T08:07:28.691Z</time>
      </trkpt>
      <trkpt lat="48.93465" lon="0.74188">
        <ele>142</ele>
        <time>2019-08-15T08:07:29.678Z</time>
      </trkpt>
      <trkpt lat="48.93466" lon="0.74191">
        <ele>142</ele>
        <time>2019-08-15T08:07:30.715Z</time>
      </trkpt>
      <trkpt lat="48.93466" lon="0.74191">
        <ele>142</ele>
        <time>2019-08-15T08:07:31.706Z</time>
      </trkpt>
      <trkpt lat="48.93469" lon="0.74201">
        <ele>143</ele>
        <time>2019-08-15T08:07:32.715Z</time>
      </trkpt>
      <trkpt lat="48.93469" lon="0.74201">
        <ele>143</ele>
        <time>2019-08-15T08:07:33.706Z</time>
      </trkpt>
      <trkpt lat="48.9347" lon="0.74209">
        <ele>144</ele>
        <time>2019-08-15T08:07:34.711Z</time>
      </trkpt>
      <trkpt lat="48.9347" lon="0.74209">
        <ele>144</ele>
        <time>2019-08-15T08:07:35.707Z</time>
      </trkpt>
      <trkpt lat="48.93473" lon="0.74216">
        <ele>145</ele>
        <time>2019-08-15T08:07:36.715Z</time>
      </trkpt>
      <trkpt lat="48.93473" lon="0.74216">
        <ele>145</ele>
        <time>2019-08-15T08:07:37.707Z</time>
      </trkpt>
      <trkpt lat="48.93475" lon="0.74223">
        <ele>146</ele>
        <time>2019-08-15T08:07:38.710Z</time>
      </trkpt>
      <trkpt lat="48.93477" lon="0.74227">
        <ele>146</ele>
        <time>2019-08-15T08:07:39.706Z</time>
      </trkpt>
      <trkpt lat="48.93477" lon="0.74227">
        <ele>146</ele>
        <time>2019-08-15T08:07:40.704Z</time>
      </trkpt>
      <trkpt lat="48.93479" lon="0.74233">
        <ele>147</ele>
        <time>2019-08-15T08:07:41.709Z</time>
      </trkpt>
      <trkpt lat="48.93481" lon="0.74236">
        <ele>148</ele>
        <time>2019-08-15T08:07:42.715Z</time>
      </trkpt>
      <trkpt lat="48.93481" lon="0.74236">
        <ele>148</ele>
        <time>2019-08-15T08:07:43.706Z</time>
      </trkpt>
      <trkpt lat="48.93483" lon="0.74241">
        <ele>149</ele>
        <time>2019-08-15T08:07:44.710Z</time>
      </trkpt>
      <trkpt lat="48.93483" lon="0.74241">
        <ele>149</ele>
        <time>2019-08-15T08:07:45.700Z</time>
      </trkpt>
      <trkpt lat="48.93486" lon="0.74244">
        <ele>149</ele>
        <time>2019-08-15T08:07:46.717Z</time>
      </trkpt>
      <trkpt lat="48.93486" lon="0.74244">
        <ele>149</ele>
        <time>2019-08-15T08:07:47.705Z</time>
      </trkpt>
      <trkpt lat="48.93492" lon="0.74251">
        <ele>150</ele>
        <time>2019-08-15T08:07:48.691Z</time>
      </trkpt>
      <trkpt lat="48.93492" lon="0.74251">
        <ele>150</ele>
        <time>2019-08-15T08:07:49.716Z</time>
      </trkpt>
      <trkpt lat="48.93496" lon="0.74256">
        <ele>151</ele>
        <time>2019-08-15T08:07:50.711Z</time>
      </trkpt>
      <trkpt lat="48.93496" lon="0.74256">
        <ele>151</ele>
        <time>2019-08-15T08:07:51.690Z</time>
      </trkpt>
      <trkpt lat="48.93502" lon="0.74263">
        <ele>151</ele>
        <time>2019-08-15T08:07:52.716Z</time>
      </trkpt>
      <trkpt lat="48.93502" lon="0.74263">
        <ele>151</ele>
        <time>2019-08-15T08:07:53.704Z</time>
      </trkpt>
      <trkpt lat="48.93506" lon="0.74273">
        <ele>153</ele>
        <time>2019-08-15T08:07:54.715Z</time>
      </trkpt>
      <trkpt lat="48.93506" lon="0.74273">
        <ele>153</ele>
        <time>2019-08-15T08:07:55.706Z</time>
      </trkpt>
      <trkpt lat="48.93508" lon="0.74282">
        <ele>154</ele>
        <time>2019-08-15T08:07:56.708Z</time>
      </trkpt>
      <trkpt lat="48.93508" lon="0.74282">
        <ele>154</ele>
        <time>2019-08-15T08:07:57.704Z</time>
      </trkpt>
      <trkpt lat="48.93512" lon="0.74291">
        <ele>155</ele>
        <time>2019-08-15T08:07:58.690Z</time>
      </trkpt>
      <trkpt lat="48.93513" lon="0.74295">
        <ele>156</ele>
        <time>2019-08-15T08:07:59.678Z</time>
      </trkpt>
      <trkpt lat="48.93513" lon="0.74295">
        <ele>156</ele>
        <time>2019-08-15T08:08:00.705Z</time>
      </trkpt>
      <trkpt lat="48.93515" lon="0.74304">
        <ele>158</ele>
        <time>2019-08-15T08:08:01.710Z</time>
      </trkpt>
      <trkpt lat="48.93516" lon="0.74308">
        <ele>158</ele>
        <time>2019-08-15T08:08:02.710Z</time>
      </trkpt>
      <trkpt lat="48.93516" lon="0.74308">
        <ele>158</ele>
        <time>2019-08-15T08:08:03.705Z</time>
      </trkpt>
      <trkpt lat="48.93518" lon="0.74316">
        <ele>160</ele>
        <time>2019-08-15T08:08:04.709Z</time>
      </trkpt>
      <trkpt lat="48.93518" lon="0.74316">
        <ele>160</ele>
        <time>2019-08-15T08:08:05.707Z</time>
      </trkpt>
      <trkpt lat="48.9352" lon="0.74324">
        <ele>161</ele>
        <time>2019-08-15T08:08:06.715Z</time>
      </trkpt>
      <trkpt lat="48.9352" lon="0.74324">
        <ele>161</ele>
        <time>2019-08-15T08:08:07.704Z</time>
      </trkpt>
      <trkpt lat="48.93523" lon="0.74333">
        <ele>163</ele>
        <time>2019-08-15T08:08:08.691Z</time>
      </trkpt>
      <trkpt lat="48.93523" lon="0.74333">
        <ele>163</ele>
        <time>2019-08-15T08:08:09.693Z</time>
      </trkpt>
      <trkpt lat="48.93525" lon="0.74344">
        <ele>165</ele>
        <time>2019-08-15T08:08:10.716Z</time>
      </trkpt>
      <trkpt lat="48.93525" lon="0.74344">
        <ele>165</ele>
        <time>2019-08-15T08:08:11.704Z</time>
      </trkpt>
      <trkpt lat="48.93527" lon="0.74356">
        <ele>167</ele>
        <time>2019-08-15T08:08:12.686Z</time>
      </trkpt>
      <trkpt lat="48.93527" lon="0.74356">
        <ele>167</ele>
        <time>2019-08-15T08:08:13.715Z</time>
      </trkpt>
      <trkpt lat="48.93531" lon="0.74369">
        <ele>169</ele>
        <time>2019-08-15T08:08:14.707Z</time>
      </trkpt>
      <trkpt lat="48.93531" lon="0.74369">
        <ele>169</ele>
        <time>2019-08-15T08:08:15.707Z</time>
      </trkpt>
      <trkpt lat="48.93534" lon="0.7438">
        <ele>170</ele>
        <time>2019-08-15T08:08:16.714Z</time>
      </trkpt>
      <trkpt lat="48.93536" lon="0.74386">
        <ele>170</ele>
        <time>2019-08-15T08:08:17.710Z</time>
      </trkpt>
      <trkpt lat="48.93537" lon="0.74391">
        <ele>171</ele>
        <time>2019-08-15T08:08:18.694Z</time>
      </trkpt>
      <trkpt lat="48.93537" lon="0.74391">
        <ele>171</ele>
        <time>2019-08-15T08:08:19.715Z</time>
      </trkpt>
      <trkpt lat="48.93541" lon="0.744">
        <ele>173</ele>
        <time>2019-08-15T08:08:20.710Z</time>
      </trkpt>
      <trkpt lat="48.93541" lon="0.744">
        <ele>173</ele>
        <time>2019-08-15T08:08:21.706Z</time>
      </trkpt>
      <trkpt lat="48.93545" lon="0.74409">
        <ele>174</ele>
        <time>2019-08-15T08:08:22.707Z</time>
      </trkpt>
      <trkpt lat="48.93545" lon="0.74409">
        <ele>174</ele>
        <time>2019-08-15T08:08:23.707Z</time>
      </trkpt>
      <trkpt lat="48.9355" lon="0.74417">
        <ele>175</ele>
        <time>2019-08-15T08:08:24.710Z</time>
      </trkpt>
      <trkpt lat="48.9355" lon="0.74417">
        <ele>175</ele>
        <time>2019-08-15T08:08:25.704Z</time>
      </trkpt>
      <trkpt lat="48.93557" lon="0.74425">
        <ele>174</ele>
        <time>2019-08-15T08:08:26.711Z</time>
      </trkpt>
      <trkpt lat="48.93557" lon="0.74425">
        <ele>174</ele>
        <time>2019-08-15T08:08:27.704Z</time>
      </trkpt>
      <trkpt lat="48.93563" lon="0.74433">
        <ele>174</ele>
        <time>2019-08-15T08:08:28.690Z</time>
      </trkpt>
      <trkpt lat="48.93563" lon="0.74433">
        <ele>174</ele>
        <time>2019-08-15T08:08:29.715Z</time>
      </trkpt>
      <trkpt lat="48.9357" lon="0.74442">
        <ele>174</ele>
        <time>2019-08-15T08:08:30.708Z</time>
      </trkpt>
      <trkpt lat="48.9357" lon="0.74442">
        <ele>174</ele>
        <time>2019-08-15T08:08:31.707Z</time>
      </trkpt>
      <trkpt lat="48.93574" lon="0.7445">
        <ele>174</ele>
        <time>2019-08-15T08:08:32.707Z</time>
      </trkpt>
      <trkpt lat="48.93574" lon="0.7445">
        <ele>174</ele>
        <time>2019-08-15T08:08:33.690Z</time>
      </trkpt>
      <trkpt lat="48.93578" lon="0.74455">
        <ele>172</ele>
        <time>2019-08-15T08:08:34.716Z</time>
      </trkpt>
      <trkpt lat="48.93578" lon="0.74455">
        <ele>172</ele>
        <time>2019-08-15T08:08:35.705Z</time>
      </trkpt>
      <trkpt lat="48.93579" lon="0.74456">
        <ele>172</ele>
        <time>2019-08-15T08:08:36.707Z</time>
      </trkpt>
      <trkpt lat="48.93579" lon="0.74456">
        <ele>172</ele>
        <time>2019-08-15T08:08:37.707Z</time>
      </trkpt>
      <trkpt lat="48.93579" lon="0.74457">
        <ele>172</ele>
        <time>2019-08-15T08:08:38.680Z</time>
      </trkpt>
      <trkpt lat="48.93589" lon="0.74451">
        <ele>164</ele>
        <time>2019-08-15T08:08:39.707Z</time>
      </trkpt>
      <trkpt lat="48.93589" lon="0.74451">
        <ele>164</ele>
        <time>2019-08-15T08:08:40.698Z</time>
      </trkpt>
      <trkpt lat="48.93593" lon="0.74452">
        <ele>164</ele>
        <time>2019-08-15T08:08:41.706Z</time>
      </trkpt>
      <trkpt lat="48.93597" lon="0.74452">
        <ele>165</ele>
        <time>2019-08-15T08:08:42.699Z</time>
      </trkpt>
      <trkpt lat="48.93597" lon="0.74452">
        <ele>165</ele>
        <time>2019-08-15T08:08:43.695Z</time>
      </trkpt>
      <trkpt lat="48.93603" lon="0.74454">
        <ele>165</ele>
        <time>2019-08-15T08:08:44.712Z</time>
      </trkpt>
      <trkpt lat="48.93607" lon="0.74454">
        <ele>165</ele>
        <time>2019-08-15T08:08:45.705Z</time>
      </trkpt>
      <trkpt lat="48.93607" lon="0.74454">
        <ele>165</ele>
        <time>2019-08-15T08:08:46.694Z</time>
      </trkpt>
      <trkpt lat="48.93614" lon="0.74455">
        <ele>165</ele>
        <time>2019-08-15T08:08:47.704Z</time>
      </trkpt>
      <trkpt lat="48.93614" lon="0.74455">
        <ele>165</ele>
        <time>2019-08-15T08:08:48.696Z</time>
      </trkpt>
      <trkpt lat="48.93622" lon="0.74456">
        <ele>165</ele>
        <time>2019-08-15T08:08:49.706Z</time>
      </trkpt>
      <trkpt lat="48.93622" lon="0.74456">
        <ele>165</ele>
        <time>2019-08-15T08:08:50.688Z</time>
      </trkpt>
      <trkpt lat="48.93629" lon="0.74457">
        <ele>166</ele>
        <time>2019-08-15T08:08:51.705Z</time>
      </trkpt>
      <trkpt lat="48.93633" lon="0.74457">
        <ele>166</ele>
        <time>2019-08-15T08:08:52.697Z</time>
      </trkpt>
      <trkpt lat="48.93633" lon="0.74457">
        <ele>166</ele>
        <time>2019-08-15T08:08:53.697Z</time>
      </trkpt>
      <trkpt lat="48.9364" lon="0.74458">
        <ele>166</ele>
        <time>2019-08-15T08:08:54.700Z</time>
      </trkpt>
      <trkpt lat="48.93644" lon="0.74458">
        <ele>166</ele>
        <time>2019-08-15T08:08:55.706Z</time>
      </trkpt>
      <trkpt lat="48.93644" lon="0.74458">
        <ele>166</ele>
        <time>2019-08-15T08:08:56.699Z</time>
      </trkpt>
      <trkpt lat="48.93651" lon="0.74459">
        <ele>166</ele>
        <time>2019-08-15T08:08:57.704Z</time>
      </trkpt>
      <trkpt lat="48.93651" lon="0.74459">
        <ele>166</ele>
        <time>2019-08-15T08:08:58.696Z</time>
      </trkpt>
      <trkpt lat="48.93658" lon="0.7446">
        <ele>166</ele>
        <time>2019-08-15T08:08:59.699Z</time>
      </trkpt>
      <trkpt lat="48.93658" lon="0.7446">
        <ele>166</ele>
        <time>2019-08-15T08:09:00.697Z</time>
      </trkpt>
      <trkpt lat="48.93666" lon="0.7446">
        <ele>167</ele>
        <time>2019-08-15T08:09:01.703Z</time>
      </trkpt>
      <trkpt lat="48.93669" lon="0.7446">
        <ele>167</ele>
        <time>2019-08-15T08:09:02.715Z</time>
      </trkpt>
      <trkpt lat="48.93669" lon="0.7446">
        <ele>167</ele>
        <time>2019-08-15T08:09:03.698Z</time>
      </trkpt>
      <trkpt lat="48.93676" lon="0.74461">
        <ele>167</ele>
        <time>2019-08-15T08:09:04.697Z</time>
      </trkpt>
      <trkpt lat="48.9368" lon="0.74461">
        <ele>167</ele>
        <time>2019-08-15T08:09:05.700Z</time>
      </trkpt>
      <trkpt lat="48.9368" lon="0.74461">
        <ele>167</ele>
        <time>2019-08-15T08:09:06.695Z</time>
      </trkpt>
      <trkpt lat="48.93687" lon="0.7446">
        <ele>167</ele>
        <time>2019-08-15T08:09:07.706Z</time>
      </trkpt>
      <trkpt lat="48.93687" lon="0.7446">
        <ele>167</ele>
        <time>2019-08-15T08:09:08.697Z</time>
      </trkpt>
      <trkpt lat="48.93694" lon="0.7446">
        <ele>167</ele>
        <time>2019-08-15T08:09:09.697Z</time>
      </trkpt>
      <trkpt lat="48.93694" lon="0.7446">
        <ele>167</ele>
        <time>2019-08-15T08:09:10.697Z</time>
      </trkpt>
      <trkpt lat="48.93702" lon="0.7446">
        <ele>167</ele>
        <time>2019-08-15T08:09:11.705Z</time>
      </trkpt>
      <trkpt lat="48.93702" lon="0.7446">
        <ele>167</ele>
        <time>2019-08-15T08:09:12.694Z</time>
      </trkpt>
      <trkpt lat="48.93709" lon="0.74459">
        <ele>168</ele>
        <time>2019-08-15T08:09:13.699Z</time>
      </trkpt>
      <trkpt lat="48.93709" lon="0.74459">
        <ele>168</ele>
        <time>2019-08-15T08:09:14.696Z</time>
      </trkpt>
      <trkpt lat="48.93716" lon="0.74458">
        <ele>168</ele>
        <time>2019-08-15T08:09:15.697Z</time>
      </trkpt>
      <trkpt lat="48.93716" lon="0.74458">
        <ele>168</ele>
        <time>2019-08-15T08:09:16.694Z</time>
      </trkpt>
      <trkpt lat="48.93723" lon="0.74457">
        <ele>168</ele>
        <time>2019-08-15T08:09:17.701Z</time>
      </trkpt>
      <trkpt lat="48.93723" lon="0.74457">
        <ele>168</ele>
        <time>2019-08-15T08:09:18.695Z</time>
      </trkpt>
      <trkpt lat="48.9373" lon="0.74456">
        <ele>168</ele>
        <time>2019-08-15T08:09:19.701Z</time>
      </trkpt>
      <trkpt lat="48.9373" lon="0.74456">
        <ele>168</ele>
        <time>2019-08-15T08:09:20.694Z</time>
      </trkpt>
      <trkpt lat="48.93737" lon="0.74454">
        <ele>168</ele>
        <time>2019-08-15T08:09:21.680Z</time>
      </trkpt>
      <trkpt lat="48.93737" lon="0.74454">
        <ele>168</ele>
        <time>2019-08-15T08:09:22.709Z</time>
      </trkpt>
      <trkpt lat="48.93744" lon="0.74453">
        <ele>168</ele>
        <time>2019-08-15T08:09:23.701Z</time>
      </trkpt>
      <trkpt lat="48.93744" lon="0.74453">
        <ele>168</ele>
        <time>2019-08-15T08:09:24.696Z</time>
      </trkpt>
      <trkpt lat="48.93751" lon="0.74451">
        <ele>168</ele>
        <time>2019-08-15T08:09:25.700Z</time>
      </trkpt>
      <trkpt lat="48.93755" lon="0.74451">
        <ele>168</ele>
        <time>2019-08-15T08:09:26.705Z</time>
      </trkpt>
      <trkpt lat="48.93755" lon="0.74451">
        <ele>168</ele>
        <time>2019-08-15T08:09:27.698Z</time>
      </trkpt>
      <trkpt lat="48.93762" lon="0.7445">
        <ele>168</ele>
        <time>2019-08-15T08:09:28.700Z</time>
      </trkpt>
      <trkpt lat="48.93762" lon="0.7445">
        <ele>168</ele>
        <time>2019-08-15T08:09:29.694Z</time>
      </trkpt>
      <trkpt lat="48.9377" lon="0.74448">
        <ele>168</ele>
        <time>2019-08-15T08:09:30.698Z</time>
      </trkpt>
      <trkpt lat="48.93773" lon="0.74447">
        <ele>169</ele>
        <time>2019-08-15T08:09:31.700Z</time>
      </trkpt>
      <trkpt lat="48.93773" lon="0.74447">
        <ele>169</ele>
        <time>2019-08-15T08:09:32.690Z</time>
      </trkpt>
      <trkpt lat="48.9378" lon="0.74444">
        <ele>169</ele>
        <time>2019-08-15T08:09:33.714Z</time>
      </trkpt>
      <trkpt lat="48.93783" lon="0.74443">
        <ele>169</ele>
        <time>2019-08-15T08:09:34.705Z</time>
      </trkpt>
      <trkpt lat="48.93783" lon="0.74443">
        <ele>169</ele>
        <time>2019-08-15T08:09:35.695Z</time>
      </trkpt>
      <trkpt lat="48.93789" lon="0.7444">
        <ele>169</ele>
        <time>2019-08-15T08:09:36.699Z</time>
      </trkpt>
      <trkpt lat="48.93789" lon="0.7444">
        <ele>169</ele>
        <time>2019-08-15T08:09:37.697Z</time>
      </trkpt>
      <trkpt lat="48.93796" lon="0.74439">
        <ele>169</ele>
        <time>2019-08-15T08:09:38.700Z</time>
      </trkpt>
      <trkpt lat="48.93796" lon="0.74439">
        <ele>169</ele>
        <time>2019-08-15T08:09:39.698Z</time>
      </trkpt>
      <trkpt lat="48.93803" lon="0.74437">
        <ele>169</ele>
        <time>2019-08-15T08:09:40.704Z</time>
      </trkpt>
      <trkpt lat="48.93806" lon="0.74436">
        <ele>169</ele>
        <time>2019-08-15T08:09:41.699Z</time>
      </trkpt>
      <trkpt lat="48.93806" lon="0.74436">
        <ele>169</ele>
        <time>2019-08-15T08:09:42.695Z</time>
      </trkpt>
      <trkpt lat="48.93813" lon="0.74433">
        <ele>169</ele>
        <time>2019-08-15T08:09:43.700Z</time>
      </trkpt>
      <trkpt lat="48.93813" lon="0.74433">
        <ele>169</ele>
        <time>2019-08-15T08:09:44.697Z</time>
      </trkpt>
      <trkpt lat="48.9382" lon="0.74431">
        <ele>169</ele>
        <time>2019-08-15T08:09:45.713Z</time>
      </trkpt>
      <trkpt lat="48.9382" lon="0.74431">
        <ele>169</ele>
        <time>2019-08-15T08:09:46.699Z</time>
      </trkpt>
      <trkpt lat="48.93828" lon="0.74429">
        <ele>169</ele>
        <time>2019-08-15T08:09:47.700Z</time>
      </trkpt>
      <trkpt lat="48.93828" lon="0.74429">
        <ele>169</ele>
        <time>2019-08-15T08:09:48.696Z</time>
      </trkpt>
      <trkpt lat="48.93836" lon="0.74427">
        <ele>170</ele>
        <time>2019-08-15T08:09:49.699Z</time>
      </trkpt>
      <trkpt lat="48.93839" lon="0.74425">
        <ele>170</ele>
        <time>2019-08-15T08:09:50.681Z</time>
      </trkpt>
      <trkpt lat="48.93839" lon="0.74425">
        <ele>170</ele>
        <time>2019-08-15T08:09:51.717Z</time>
      </trkpt>
      <trkpt lat="48.93847" lon="0.74423">
        <ele>170</ele>
        <time>2019-08-15T08:09:52.705Z</time>
      </trkpt>
      <trkpt lat="48.93851" lon="0.74422">
        <ele>170</ele>
        <time>2019-08-15T08:09:53.704Z</time>
      </trkpt>
      <trkpt lat="48.93851" lon="0.74422">
        <ele>170</ele>
        <time>2019-08-15T08:09:54.696Z</time>
      </trkpt>
      <trkpt lat="48.93859" lon="0.74419">
        <ele>170</ele>
        <time>2019-08-15T08:09:55.699Z</time>
      </trkpt>
      <trkpt lat="48.93863" lon="0.74418">
        <ele>170</ele>
        <time>2019-08-15T08:09:56.696Z</time>
      </trkpt>
      <trkpt lat="48.93863" lon="0.74418">
        <ele>170</ele>
        <time>2019-08-15T08:09:57.695Z</time>
      </trkpt>
      <trkpt lat="48.93871" lon="0.74415">
        <ele>170</ele>
        <time>2019-08-15T08:09:58.698Z</time>
      </trkpt>
      <trkpt lat="48.93875" lon="0.74414">
        <ele>170</ele>
        <time>2019-08-15T08:09:59.705Z</time>
      </trkpt>
      <trkpt lat="48.93875" lon="0.74414">
        <ele>170</ele>
        <time>2019-08-15T08:10:00.703Z</time>
      </trkpt>
      <trkpt lat="48.93883" lon="0.74411">
        <ele>170</ele>
        <time>2019-08-15T08:10:01.706Z</time>
      </trkpt>
      <trkpt lat="48.93883" lon="0.74411">
        <ele>170</ele>
        <time>2019-08-15T08:10:02.698Z</time>
      </trkpt>
      <trkpt lat="48.93891" lon="0.74409">
        <ele>170</ele>
        <time>2019-08-15T08:10:03.701Z</time>
      </trkpt>
      <trkpt lat="48.93891" lon="0.74409">
        <ele>170</ele>
        <time>2019-08-15T08:10:04.697Z</time>
      </trkpt>
      <trkpt lat="48.93899" lon="0.74408">
        <ele>170</ele>
        <time>2019-08-15T08:10:05.705Z</time>
      </trkpt>
      <trkpt lat="48.93899" lon="0.74408">
        <ele>170</ele>
        <time>2019-08-15T08:10:06.694Z</time>
      </trkpt>
      <trkpt lat="48.93905" lon="0.74407">
        <ele>170</ele>
        <time>2019-08-15T08:10:07.705Z</time>
      </trkpt>
      <trkpt lat="48.93905" lon="0.74407">
        <ele>170</ele>
        <time>2019-08-15T08:10:08.697Z</time>
      </trkpt>
      <trkpt lat="48.9391" lon="0.74407">
        <ele>170</ele>
        <time>2019-08-15T08:10:09.700Z</time>
      </trkpt>
      <trkpt lat="48.9391" lon="0.74407">
        <ele>170</ele>
        <time>2019-08-15T08:10:10.693Z</time>
      </trkpt>
      <trkpt lat="48.93914" lon="0.74408">
        <ele>170</ele>
        <time>2019-08-15T08:10:11.680Z</time>
      </trkpt>
      <trkpt lat="48.93916" lon="0.7441">
        <ele>170</ele>
        <time>2019-08-15T08:10:12.708Z</time>
      </trkpt>
      <trkpt lat="48.93916" lon="0.7441">
        <ele>170</ele>
        <time>2019-08-15T08:10:13.696Z</time>
      </trkpt>
      <trkpt lat="48.9392" lon="0.74416">
        <ele>171</ele>
        <time>2019-08-15T08:10:14.696Z</time>
      </trkpt>
      <trkpt lat="48.9392" lon="0.74416">
        <ele>171</ele>
        <time>2019-08-15T08:10:15.678Z</time>
      </trkpt>
      <trkpt lat="48.93924" lon="0.74425">
        <ele>171</ele>
        <time>2019-08-15T08:10:16.704Z</time>
      </trkpt>
      <trkpt lat="48.93926" lon="0.74431">
        <ele>171</ele>
        <time>2019-08-15T08:10:17.705Z</time>
      </trkpt>
      <trkpt lat="48.93926" lon="0.74431">
        <ele>171</ele>
        <time>2019-08-15T08:10:18.697Z</time>
      </trkpt>
      <trkpt lat="48.9393" lon="0.74442">
        <ele>171</ele>
        <time>2019-08-15T08:10:19.696Z</time>
      </trkpt>
      <trkpt lat="48.93932" lon="0.74448">
        <ele>171</ele>
        <time>2019-08-15T08:10:20.705Z</time>
      </trkpt>
      <trkpt lat="48.93932" lon="0.74448">
        <ele>171</ele>
        <time>2019-08-15T08:10:21.698Z</time>
      </trkpt>
      <trkpt lat="48.93935" lon="0.7446">
        <ele>171</ele>
        <time>2019-08-15T08:10:22.697Z</time>
      </trkpt>
      <trkpt lat="48.93937" lon="0.74466">
        <ele>171</ele>
        <time>2019-08-15T08:10:23.705Z</time>
      </trkpt>
      <trkpt lat="48.93937" lon="0.74466">
        <ele>171</ele>
        <time>2019-08-15T08:10:24.696Z</time>
      </trkpt>
      <trkpt lat="48.9394" lon="0.74479">
        <ele>171</ele>
        <time>2019-08-15T08:10:25.700Z</time>
      </trkpt>
      <trkpt lat="48.93942" lon="0.74486">
        <ele>171</ele>
        <time>2019-08-15T08:10:26.699Z</time>
      </trkpt>
      <trkpt lat="48.93942" lon="0.74486">
        <ele>171</ele>
        <time>2019-08-15T08:10:27.695Z</time>
      </trkpt>
      <trkpt lat="48.93945" lon="0.74499">
        <ele>171</ele>
        <time>2019-08-15T08:10:28.696Z</time>
      </trkpt>
      <trkpt lat="48.93946" lon="0.74504">
        <ele>171</ele>
        <time>2019-08-15T08:10:29.704Z</time>
      </trkpt>
      <trkpt lat="48.93946" lon="0.74504">
        <ele>171</ele>
        <time>2019-08-15T08:10:30.696Z</time>
      </trkpt>
      <trkpt lat="48.93949" lon="0.74515">
        <ele>171</ele>
        <time>2019-08-15T08:10:31.680Z</time>
      </trkpt>
      <trkpt lat="48.93949" lon="0.74515">
        <ele>171</ele>
        <time>2019-08-15T08:10:32.714Z</time>
      </trkpt>
      <trkpt lat="48.93952" lon="0.74524">
        <ele>171</ele>
        <time>2019-08-15T08:10:33.704Z</time>
      </trkpt>
      <trkpt lat="48.93952" lon="0.74524">
        <ele>171</ele>
        <time>2019-08-15T08:10:34.696Z</time>
      </trkpt>
      <trkpt lat="48.93954" lon="0.74534">
        <ele>171</ele>
        <time>2019-08-15T08:10:35.704Z</time>
      </trkpt>
      <trkpt lat="48.93954" lon="0.74534">
        <ele>171</ele>
        <time>2019-08-15T08:10:36.694Z</time>
      </trkpt>
      <trkpt lat="48.93955" lon="0.74542">
        <ele>171</ele>
        <time>2019-08-15T08:10:37.698Z</time>
      </trkpt>
      <trkpt lat="48.93955" lon="0.74546">
        <ele>171</ele>
        <time>2019-08-15T08:10:38.701Z</time>
      </trkpt>
      <trkpt lat="48.93955" lon="0.74546">
        <ele>171</ele>
        <time>2019-08-15T08:10:39.698Z</time>
      </trkpt>
      <trkpt lat="48.93957" lon="0.74553">
        <ele>171</ele>
        <time>2019-08-15T08:10:40.704Z</time>
      </trkpt>
      <trkpt lat="48.93959" lon="0.74556">
        <ele>171</ele>
        <time>2019-08-15T08:10:41.711Z</time>
      </trkpt>
      <trkpt lat="48.93959" lon="0.74556">
        <ele>171</ele>
        <time>2019-08-15T08:10:42.697Z</time>
      </trkpt>
      <trkpt lat="48.93965" lon="0.74558">
        <ele>172</ele>
        <time>2019-08-15T08:10:43.715Z</time>
      </trkpt>
      <trkpt lat="48.93965" lon="0.74558">
        <ele>172</ele>
        <time>2019-08-15T08:10:44.698Z</time>
      </trkpt>
      <trkpt lat="48.93972" lon="0.7456">
        <ele>171</ele>
        <time>2019-08-15T08:10:45.697Z</time>
      </trkpt>
      <trkpt lat="48.93972" lon="0.7456">
        <ele>171</ele>
        <time>2019-08-15T08:10:46.695Z</time>
      </trkpt>
      <trkpt lat="48.9398" lon="0.74562">
        <ele>171</ele>
        <time>2019-08-15T08:10:47.705Z</time>
      </trkpt>
      <trkpt lat="48.9398" lon="0.74562">
        <ele>171</ele>
        <time>2019-08-15T08:10:48.697Z</time>
      </trkpt>
      <trkpt lat="48.93988" lon="0.74562">
        <ele>171</ele>
        <time>2019-08-15T08:10:49.701Z</time>
      </trkpt>
      <trkpt lat="48.93988" lon="0.74562">
        <ele>171</ele>
        <time>2019-08-15T08:10:50.694Z</time>
      </trkpt>
      <trkpt lat="48.93996" lon="0.74563">
        <ele>171</ele>
        <time>2019-08-15T08:10:51.705Z</time>
      </trkpt>
      <trkpt lat="48.93996" lon="0.74563">
        <ele>171</ele>
        <time>2019-08-15T08:10:52.701Z</time>
      </trkpt>
      <trkpt lat="48.94005" lon="0.74563">
        <ele>171</ele>
        <time>2019-08-15T08:10:53.705Z</time>
      </trkpt>
      <trkpt lat="48.94005" lon="0.74563">
        <ele>171</ele>
        <time>2019-08-15T08:10:54.697Z</time>
      </trkpt>
      <trkpt lat="48.94014" lon="0.74563">
        <ele>170</ele>
        <time>2019-08-15T08:10:55.700Z</time>
      </trkpt>
      <trkpt lat="48.94014" lon="0.74563">
        <ele>170</ele>
        <time>2019-08-15T08:10:56.696Z</time>
      </trkpt>
      <trkpt lat="48.94023" lon="0.74561">
        <ele>170</ele>
        <time>2019-08-15T08:10:57.699Z</time>
      </trkpt>
      <trkpt lat="48.94023" lon="0.74561">
        <ele>170</ele>
        <time>2019-08-15T08:10:58.697Z</time>
      </trkpt>
      <trkpt lat="48.94032" lon="0.74559">
        <ele>170</ele>
        <time>2019-08-15T08:10:59.696Z</time>
      </trkpt>
      <trkpt lat="48.94032" lon="0.74559">
        <ele>170</ele>
        <time>2019-08-15T08:11:00.694Z</time>
      </trkpt>
      <trkpt lat="48.9404" lon="0.74557">
        <ele>170</ele>
        <time>2019-08-15T08:11:01.706Z</time>
      </trkpt>
      <trkpt lat="48.9404" lon="0.74557">
        <ele>170</ele>
        <time>2019-08-15T08:11:02.696Z</time>
      </trkpt>
      <trkpt lat="48.94048" lon="0.74556">
        <ele>170</ele>
        <time>2019-08-15T08:11:03.681Z</time>
      </trkpt>
      <trkpt lat="48.94048" lon="0.74556">
        <ele>170</ele>
        <time>2019-08-15T08:11:04.704Z</time>
      </trkpt>
      <trkpt lat="48.94057" lon="0.74554">
        <ele>170</ele>
        <time>2019-08-15T08:11:05.697Z</time>
      </trkpt>
      <trkpt lat="48.94057" lon="0.74554">
        <ele>170</ele>
        <time>2019-08-15T08:11:06.696Z</time>
      </trkpt>
      <trkpt lat="48.94066" lon="0.74552">
        <ele>170</ele>
        <time>2019-08-15T08:11:07.700Z</time>
      </trkpt>
      <trkpt lat="48.94066" lon="0.74552">
        <ele>170</ele>
        <time>2019-08-15T08:11:08.693Z</time>
      </trkpt>
      <trkpt lat="48.94074" lon="0.7455">
        <ele>170</ele>
        <time>2019-08-15T08:11:09.705Z</time>
      </trkpt>
      <trkpt lat="48.94074" lon="0.7455">
        <ele>170</ele>
        <time>2019-08-15T08:11:10.697Z</time>
      </trkpt>
      <trkpt lat="48.94083" lon="0.74549">
        <ele>170</ele>
        <time>2019-08-15T08:11:11.681Z</time>
      </trkpt>
      <trkpt lat="48.94083" lon="0.74549">
        <ele>170</ele>
        <time>2019-08-15T08:11:12.705Z</time>
      </trkpt>
      <trkpt lat="48.94091" lon="0.74547">
        <ele>169</ele>
        <time>2019-08-15T08:11:13.698Z</time>
      </trkpt>
      <trkpt lat="48.94095" lon="0.74547">
        <ele>169</ele>
        <time>2019-08-15T08:11:14.699Z</time>
      </trkpt>
      <trkpt lat="48.94099" lon="0.74546">
        <ele>169</ele>
        <time>2019-08-15T08:11:15.704Z</time>
      </trkpt>
      <trkpt lat="48.94099" lon="0.74546">
        <ele>169</ele>
        <time>2019-08-15T08:11:16.697Z</time>
      </trkpt>
      <trkpt lat="48.94108" lon="0.74544">
        <ele>169</ele>
        <time>2019-08-15T08:11:17.705Z</time>
      </trkpt>
      <trkpt lat="48.94108" lon="0.74544">
        <ele>169</ele>
        <time>2019-08-15T08:11:18.696Z</time>
      </trkpt>
      <trkpt lat="48.94116" lon="0.74542">
        <ele>169</ele>
        <time>2019-08-15T08:11:19.699Z</time>
      </trkpt>
      <trkpt lat="48.94116" lon="0.74542">
        <ele>169</ele>
        <time>2019-08-15T08:11:20.697Z</time>
      </trkpt>
      <trkpt lat="48.94122" lon="0.74543">
        <ele>169</ele>
        <time>2019-08-15T08:11:21.705Z</time>
      </trkpt>
      <trkpt lat="48.94122" lon="0.74543">
        <ele>169</ele>
        <time>2019-08-15T08:11:22.696Z</time>
      </trkpt>
      <trkpt lat="48.94128" lon="0.74547">
        <ele>169</ele>
        <time>2019-08-15T08:11:23.699Z</time>
      </trkpt>
      <trkpt lat="48.94128" lon="0.74547">
        <ele>169</ele>
        <time>2019-08-15T08:11:24.696Z</time>
      </trkpt>
      <trkpt lat="48.94132" lon="0.74552">
        <ele>169</ele>
        <time>2019-08-15T08:11:25.699Z</time>
      </trkpt>
      <trkpt lat="48.94134" lon="0.74555">
        <ele>170</ele>
        <time>2019-08-15T08:11:26.699Z</time>
      </trkpt>
      <trkpt lat="48.94134" lon="0.74555">
        <ele>170</ele>
        <time>2019-08-15T08:11:27.696Z</time>
      </trkpt>
      <trkpt lat="48.94137" lon="0.74561">
        <ele>171</ele>
        <time>2019-08-15T08:11:28.700Z</time>
      </trkpt>
      <trkpt lat="48.94139" lon="0.74562">
        <ele>171</ele>
        <time>2019-08-15T08:11:29.699Z</time>
      </trkpt>
      <trkpt lat="48.94139" lon="0.74562">
        <ele>171</ele>
        <time>2019-08-15T08:11:30.694Z</time>
      </trkpt>
      <trkpt lat="48.94145" lon="0.74562">
        <ele>172</ele>
        <time>2019-08-15T08:11:31.680Z</time>
      </trkpt>
      <trkpt lat="48.94145" lon="0.74562">
        <ele>172</ele>
        <time>2019-08-15T08:11:32.704Z</time>
      </trkpt>
      <trkpt lat="48.94152" lon="0.7456">
        <ele>172</ele>
        <time>2019-08-15T08:11:33.691Z</time>
      </trkpt>
      <trkpt lat="48.94156" lon="0.74559">
        <ele>172</ele>
        <time>2019-08-15T08:11:34.699Z</time>
      </trkpt>
      <trkpt lat="48.94159" lon="0.74558">
        <ele>172</ele>
        <time>2019-08-15T08:11:35.704Z</time>
      </trkpt>
      <trkpt lat="48.94159" lon="0.74558">
        <ele>172</ele>
        <time>2019-08-15T08:11:36.697Z</time>
      </trkpt>
      <trkpt lat="48.94165" lon="0.74556">
        <ele>172</ele>
        <time>2019-08-15T08:11:37.699Z</time>
      </trkpt>
      <trkpt lat="48.94165" lon="0.74556">
        <ele>172</ele>
        <time>2019-08-15T08:11:38.693Z</time>
      </trkpt>
      <trkpt lat="48.9417" lon="0.74558">
        <ele>173</ele>
        <time>2019-08-15T08:11:39.716Z</time>
      </trkpt>
      <trkpt lat="48.9417" lon="0.74558">
        <ele>173</ele>
        <time>2019-08-15T08:11:40.704Z</time>
      </trkpt>
      <trkpt lat="48.94171" lon="0.74568">
        <ele>173</ele>
        <time>2019-08-15T08:11:41.699Z</time>
      </trkpt>
      <trkpt lat="48.9417" lon="0.74573">
        <ele>173</ele>
        <time>2019-08-15T08:11:42.699Z</time>
      </trkpt>
      <trkpt lat="48.9417" lon="0.74573">
        <ele>173</ele>
        <time>2019-08-15T08:11:43.700Z</time>
      </trkpt>
      <trkpt lat="48.94167" lon="0.74583">
        <ele>173</ele>
        <time>2019-08-15T08:11:44.699Z</time>
      </trkpt>
      <trkpt lat="48.94166" lon="0.74588">
        <ele>173</ele>
        <time>2019-08-15T08:11:45.705Z</time>
      </trkpt>
      <trkpt lat="48.94166" lon="0.74588">
        <ele>173</ele>
        <time>2019-08-15T08:11:46.697Z</time>
      </trkpt>
      <trkpt lat="48.94163" lon="0.746">
        <ele>173</ele>
        <time>2019-08-15T08:11:47.704Z</time>
      </trkpt>
      <trkpt lat="48.94163" lon="0.746">
        <ele>173</ele>
        <time>2019-08-15T08:11:48.697Z</time>
      </trkpt>
      <trkpt lat="48.9416" lon="0.7461">
        <ele>173</ele>
        <time>2019-08-15T08:11:49.700Z</time>
      </trkpt>
      <trkpt lat="48.9416" lon="0.7461">
        <ele>173</ele>
        <time>2019-08-15T08:11:50.687Z</time>
      </trkpt>
      <trkpt lat="48.94158" lon="0.74619">
        <ele>172</ele>
        <time>2019-08-15T08:11:51.700Z</time>
      </trkpt>
      <trkpt lat="48.94158" lon="0.74619">
        <ele>172</ele>
        <time>2019-08-15T08:11:52.694Z</time>
      </trkpt>
      <trkpt lat="48.94156" lon="0.74626">
        <ele>172</ele>
        <time>2019-08-15T08:11:53.705Z</time>
      </trkpt>
      <trkpt lat="48.94156" lon="0.74626">
        <ele>172</ele>
        <time>2019-08-15T08:11:54.697Z</time>
      </trkpt>
      <trkpt lat="48.94155" lon="0.74635">
        <ele>172</ele>
        <time>2019-08-15T08:11:55.698Z</time>
      </trkpt>
      <trkpt lat="48.94155" lon="0.74635">
        <ele>172</ele>
        <time>2019-08-15T08:11:56.696Z</time>
      </trkpt>
      <trkpt lat="48.94154" lon="0.74645">
        <ele>172</ele>
        <time>2019-08-15T08:11:57.700Z</time>
      </trkpt>
      <trkpt lat="48.94154" lon="0.74645">
        <ele>172</ele>
        <time>2019-08-15T08:11:58.696Z</time>
      </trkpt>
      <trkpt lat="48.94152" lon="0.74653">
        <ele>173</ele>
        <time>2019-08-15T08:11:59.704Z</time>
      </trkpt>
      <trkpt lat="48.94152" lon="0.74653">
        <ele>173</ele>
        <time>2019-08-15T08:12:00.696Z</time>
      </trkpt>
      <trkpt lat="48.94152" lon="0.74661">
        <ele>173</ele>
        <time>2019-08-15T08:12:01.680Z</time>
      </trkpt>
      <trkpt lat="48.94152" lon="0.74665">
        <ele>173</ele>
        <time>2019-08-15T08:12:02.714Z</time>
      </trkpt>
      <trkpt lat="48.94152" lon="0.7467">
        <ele>173</ele>
        <time>2019-08-15T08:12:03.704Z</time>
      </trkpt>
      <trkpt lat="48.94152" lon="0.7467">
        <ele>173</ele>
        <time>2019-08-15T08:12:04.694Z</time>
      </trkpt>
      <trkpt lat="48.94153" lon="0.74679">
        <ele>173</ele>
        <time>2019-08-15T08:12:05.708Z</time>
      </trkpt>
      <trkpt lat="48.94153" lon="0.74679">
        <ele>173</ele>
        <time>2019-08-15T08:12:06.694Z</time>
      </trkpt>
      <trkpt lat="48.94154" lon="0.74688">
        <ele>173</ele>
        <time>2019-08-15T08:12:07.697Z</time>
      </trkpt>
      <trkpt lat="48.94154" lon="0.74688">
        <ele>173</ele>
        <time>2019-08-15T08:12:08.696Z</time>
      </trkpt>
      <trkpt lat="48.94154" lon="0.74697">
        <ele>172</ele>
        <time>2019-08-15T08:12:09.700Z</time>
      </trkpt>
      <trkpt lat="48.94154" lon="0.74697">
        <ele>172</ele>
        <time>2019-08-15T08:12:10.696Z</time>
      </trkpt>
      <trkpt lat="48.94155" lon="0.74707">
        <ele>172</ele>
        <time>2019-08-15T08:12:11.700Z</time>
      </trkpt>
      <trkpt lat="48.94155" lon="0.74707">
        <ele>172</ele>
        <time>2019-08-15T08:12:12.697Z</time>
      </trkpt>
      <trkpt lat="48.94156" lon="0.74717">
        <ele>172</ele>
        <time>2019-08-15T08:12:13.703Z</time>
      </trkpt>
      <trkpt lat="48.94156" lon="0.74717">
        <ele>172</ele>
        <time>2019-08-15T08:12:14.696Z</time>
      </trkpt>
      <trkpt lat="48.94155" lon="0.74726">
        <ele>171</ele>
        <time>2019-08-15T08:12:15.704Z</time>
      </trkpt>
      <trkpt lat="48.94155" lon="0.74726">
        <ele>171</ele>
        <time>2019-08-15T08:12:16.697Z</time>
      </trkpt>
      <trkpt lat="48.94153" lon="0.74735">
        <ele>171</ele>
        <time>2019-08-15T08:12:17.700Z</time>
      </trkpt>
      <trkpt lat="48.94153" lon="0.74735">
        <ele>171</ele>
        <time>2019-08-15T08:12:18.696Z</time>
      </trkpt>
      <trkpt lat="48.9415" lon="0.74743">
        <ele>172</ele>
        <time>2019-08-15T08:12:19.707Z</time>
      </trkpt>
      <trkpt lat="48.9415" lon="0.74743">
        <ele>172</ele>
        <time>2019-08-15T08:12:20.694Z</time>
      </trkpt>
      <trkpt lat="48.94144" lon="0.74749">
        <ele>173</ele>
        <time>2019-08-15T08:12:21.680Z</time>
      </trkpt>
      <trkpt lat="48.94144" lon="0.74749">
        <ele>173</ele>
        <time>2019-08-15T08:12:22.704Z</time>
      </trkpt>
      <trkpt lat="48.94138" lon="0.74755">
        <ele>174</ele>
        <time>2019-08-15T08:12:23.702Z</time>
      </trkpt>
      <trkpt lat="48.94138" lon="0.74755">
        <ele>174</ele>
        <time>2019-08-15T08:12:24.699Z</time>
      </trkpt>
      <trkpt lat="48.94131" lon="0.74761">
        <ele>174</ele>
        <time>2019-08-15T08:12:25.699Z</time>
      </trkpt>
      <trkpt lat="48.94131" lon="0.74761">
        <ele>174</ele>
        <time>2019-08-15T08:12:26.697Z</time>
      </trkpt>
      <trkpt lat="48.94125" lon="0.74768">
        <ele>175</ele>
        <time>2019-08-15T08:12:27.700Z</time>
      </trkpt>
      <trkpt lat="48.94125" lon="0.74768">
        <ele>175</ele>
        <time>2019-08-15T08:12:28.694Z</time>
      </trkpt>
      <trkpt lat="48.94119" lon="0.74774">
        <ele>175</ele>
        <time>2019-08-15T08:12:29.704Z</time>
      </trkpt>
      <trkpt lat="48.94119" lon="0.74774">
        <ele>175</ele>
        <time>2019-08-15T08:12:30.696Z</time>
      </trkpt>
      <trkpt lat="48.94112" lon="0.74779">
        <ele>176</ele>
        <time>2019-08-15T08:12:31.679Z</time>
      </trkpt>
      <trkpt lat="48.94112" lon="0.74779">
        <ele>176</ele>
        <time>2019-08-15T08:12:32.717Z</time>
      </trkpt>
      <trkpt lat="48.94104" lon="0.74782">
        <ele>176</ele>
        <time>2019-08-15T08:12:33.708Z</time>
      </trkpt>
      <trkpt lat="48.94104" lon="0.74782">
        <ele>176</ele>
        <time>2019-08-15T08:12:34.696Z</time>
      </trkpt>
      <trkpt lat="48.94097" lon="0.74784">
        <ele>177</ele>
        <time>2019-08-15T08:12:35.705Z</time>
      </trkpt>
      <trkpt lat="48.94097" lon="0.74784">
        <ele>177</ele>
        <time>2019-08-15T08:12:36.696Z</time>
      </trkpt>
      <trkpt lat="48.94088" lon="0.74784">
        <ele>177</ele>
        <time>2019-08-15T08:12:37.699Z</time>
      </trkpt>
      <trkpt lat="48.94084" lon="0.74784">
        <ele>176</ele>
        <time>2019-08-15T08:12:38.704Z</time>
      </trkpt>
      <trkpt lat="48.9408" lon="0.74784">
        <ele>175</ele>
        <time>2019-08-15T08:12:39.697Z</time>
      </trkpt>
      <trkpt lat="48.9408" lon="0.74784">
        <ele>175</ele>
        <time>2019-08-15T08:12:40.696Z</time>
      </trkpt>
      <trkpt lat="48.9407" lon="0.74785">
        <ele>176</ele>
        <time>2019-08-15T08:12:41.704Z</time>
      </trkpt>
      <trkpt lat="48.9407" lon="0.74785">
        <ele>176</ele>
        <time>2019-08-15T08:12:42.696Z</time>
      </trkpt>
      <trkpt lat="48.94061" lon="0.74789">
        <ele>176</ele>
        <time>2019-08-15T08:12:43.707Z</time>
      </trkpt>
      <trkpt lat="48.94061" lon="0.74789">
        <ele>176</ele>
        <time>2019-08-15T08:12:44.696Z</time>
      </trkpt>
      <trkpt lat="48.94051" lon="0.74794">
        <ele>175</ele>
        <time>2019-08-15T08:12:45.704Z</time>
      </trkpt>
      <trkpt lat="48.94051" lon="0.74794">
        <ele>175</ele>
        <time>2019-08-15T08:12:46.697Z</time>
      </trkpt>
      <trkpt lat="48.94042" lon="0.748">
        <ele>174</ele>
        <time>2019-08-15T08:12:47.704Z</time>
      </trkpt>
      <trkpt lat="48.94042" lon="0.748">
        <ele>174</ele>
        <time>2019-08-15T08:12:48.694Z</time>
      </trkpt>
      <trkpt lat="48.94034" lon="0.74809">
        <ele>173</ele>
        <time>2019-08-15T08:12:49.704Z</time>
      </trkpt>
      <trkpt lat="48.9403" lon="0.74813">
        <ele>173</ele>
        <time>2019-08-15T08:12:50.688Z</time>
      </trkpt>
      <trkpt lat="48.9403" lon="0.74813">
        <ele>173</ele>
        <time>2019-08-15T08:12:51.716Z</time>
      </trkpt>
      <trkpt lat="48.94022" lon="0.74821">
        <ele>173</ele>
        <time>2019-08-15T08:12:52.704Z</time>
      </trkpt>
      <trkpt lat="48.94018" lon="0.74825">
        <ele>173</ele>
        <time>2019-08-15T08:12:53.711Z</time>
      </trkpt>
      <trkpt lat="48.94018" lon="0.74825">
        <ele>173</ele>
        <time>2019-08-15T08:12:54.716Z</time>
      </trkpt>
      <trkpt lat="48.9401" lon="0.74833">
        <ele>173</ele>
        <time>2019-08-15T08:12:55.705Z</time>
      </trkpt>
      <trkpt lat="48.9401" lon="0.74833">
        <ele>173</ele>
        <time>2019-08-15T08:12:56.696Z</time>
      </trkpt>
      <trkpt lat="48.94001" lon="0.7484">
        <ele>173</ele>
        <time>2019-08-15T08:12:57.698Z</time>
      </trkpt>
      <trkpt lat="48.94001" lon="0.7484">
        <ele>173</ele>
        <time>2019-08-15T08:12:58.696Z</time>
      </trkpt>
      <trkpt lat="48.93993" lon="0.74846">
        <ele>172</ele>
        <time>2019-08-15T08:12:59.704Z</time>
      </trkpt>
      <trkpt lat="48.93993" lon="0.74846">
        <ele>172</ele>
        <time>2019-08-15T08:13:00.698Z</time>
      </trkpt>
      <trkpt lat="48.93984" lon="0.7485">
        <ele>172</ele>
        <time>2019-08-15T08:13:01.698Z</time>
      </trkpt>
      <trkpt lat="48.93984" lon="0.7485">
        <ele>172</ele>
        <time>2019-08-15T08:13:02.696Z</time>
      </trkpt>
      <trkpt lat="48.93976" lon="0.74853">
        <ele>172</ele>
        <time>2019-08-15T08:13:03.699Z</time>
      </trkpt>
      <trkpt lat="48.93976" lon="0.74853">
        <ele>172</ele>
        <time>2019-08-15T08:13:04.696Z</time>
      </trkpt>
      <trkpt lat="48.9397" lon="0.74857">
        <ele>172</ele>
        <time>2019-08-15T08:13:05.700Z</time>
      </trkpt>
      <trkpt lat="48.9397" lon="0.74857">
        <ele>172</ele>
        <time>2019-08-15T08:13:06.694Z</time>
      </trkpt>
      <trkpt lat="48.93963" lon="0.74866">
        <ele>172</ele>
        <time>2019-08-15T08:13:07.698Z</time>
      </trkpt>
      <trkpt lat="48.93963" lon="0.74866">
        <ele>172</ele>
        <time>2019-08-15T08:13:08.695Z</time>
      </trkpt>
      <trkpt lat="48.93959" lon="0.74878">
        <ele>172</ele>
        <time>2019-08-15T08:13:09.696Z</time>
      </trkpt>
      <trkpt lat="48.93959" lon="0.74878">
        <ele>172</ele>
        <time>2019-08-15T08:13:10.691Z</time>
      </trkpt>
      <trkpt lat="48.93958" lon="0.74892">
        <ele>172</ele>
        <time>2019-08-15T08:13:11.715Z</time>
      </trkpt>
      <trkpt lat="48.93958" lon="0.74892">
        <ele>172</ele>
        <time>2019-08-15T08:13:12.699Z</time>
      </trkpt>
      <trkpt lat="48.93958" lon="0.74905">
        <ele>173</ele>
        <time>2019-08-15T08:13:13.698Z</time>
      </trkpt>
      <trkpt lat="48.93958" lon="0.74905">
        <ele>173</ele>
        <time>2019-08-15T08:13:14.695Z</time>
      </trkpt>
      <trkpt lat="48.93958" lon="0.74918">
        <ele>172</ele>
        <time>2019-08-15T08:13:15.699Z</time>
      </trkpt>
      <trkpt lat="48.93958" lon="0.74918">
        <ele>172</ele>
        <time>2019-08-15T08:13:16.698Z</time>
      </trkpt>
      <trkpt lat="48.93956" lon="0.74929">
        <ele>172</ele>
        <time>2019-08-15T08:13:17.704Z</time>
      </trkpt>
      <trkpt lat="48.93956" lon="0.74929">
        <ele>172</ele>
        <time>2019-08-15T08:13:18.695Z</time>
      </trkpt>
      <trkpt lat="48.93953" lon="0.74938">
        <ele>172</ele>
        <time>2019-08-15T08:13:19.705Z</time>
      </trkpt>
      <trkpt lat="48.93953" lon="0.74938">
        <ele>172</ele>
        <time>2019-08-15T08:13:20.697Z</time>
      </trkpt>
      <trkpt lat="48.93948" lon="0.74944">
        <ele>172</ele>
        <time>2019-08-15T08:13:21.710Z</time>
      </trkpt>
      <trkpt lat="48.93948" lon="0.74944">
        <ele>172</ele>
        <time>2019-08-15T08:13:22.696Z</time>
      </trkpt>
      <trkpt lat="48.93945" lon="0.74946">
        <ele>172</ele>
        <time>2019-08-15T08:13:23.704Z</time>
      </trkpt>
      <trkpt lat="48.93945" lon="0.74946">
        <ele>172</ele>
        <time>2019-08-15T08:13:24.693Z</time>
      </trkpt>
      <trkpt lat="48.93945" lon="0.74947">
        <ele>172</ele>
        <time>2019-08-15T08:13:25.699Z</time>
      </trkpt>
      <trkpt lat="48.93945" lon="0.74947">
        <ele>173</ele>
        <time>2019-08-15T08:13:26.696Z</time>
      </trkpt>
      <trkpt lat="48.9394" lon="0.74948">
        <ele>173</ele>
        <time>2019-08-15T08:13:27.689Z</time>
      </trkpt>
      <trkpt lat="48.9394" lon="0.74948">
        <ele>173</ele>
        <time>2019-08-15T08:13:28.692Z</time>
      </trkpt>
      <trkpt lat="48.93933" lon="0.74945">
        <ele>173</ele>
        <time>2019-08-15T08:13:29.700Z</time>
      </trkpt>
      <trkpt lat="48.93933" lon="0.74945">
        <ele>173</ele>
        <time>2019-08-15T08:13:30.702Z</time>
      </trkpt>
      <trkpt lat="48.93926" lon="0.74944">
        <ele>173</ele>
        <time>2019-08-15T08:13:31.692Z</time>
      </trkpt>
      <trkpt lat="48.93926" lon="0.74944">
        <ele>173</ele>
        <time>2019-08-15T08:13:32.688Z</time>
      </trkpt>
      <trkpt lat="48.93921" lon="0.7495">
        <ele>174</ele>
        <time>2019-08-15T08:13:33.691Z</time>
      </trkpt>
      <trkpt lat="48.93921" lon="0.7495">
        <ele>174</ele>
        <time>2019-08-15T08:13:34.688Z</time>
      </trkpt>
      <trkpt lat="48.93918" lon="0.7496">
        <ele>173</ele>
        <time>2019-08-15T08:13:35.688Z</time>
      </trkpt>
      <trkpt lat="48.93918" lon="0.7496">
        <ele>173</ele>
        <time>2019-08-15T08:13:36.686Z</time>
      </trkpt>
      <trkpt lat="48.93917" lon="0.74971">
        <ele>173</ele>
        <time>2019-08-15T08:13:37.690Z</time>
      </trkpt>
      <trkpt lat="48.93917" lon="0.74971">
        <ele>173</ele>
        <time>2019-08-15T08:13:38.703Z</time>
      </trkpt>
      <trkpt lat="48.93915" lon="0.74984">
        <ele>173</ele>
        <time>2019-08-15T08:13:39.696Z</time>
      </trkpt>
      <trkpt lat="48.93915" lon="0.74984">
        <ele>173</ele>
        <time>2019-08-15T08:13:40.688Z</time>
      </trkpt>
      <trkpt lat="48.93915" lon="0.74997">
        <ele>174</ele>
        <time>2019-08-15T08:13:41.692Z</time>
      </trkpt>
      <trkpt lat="48.93915" lon="0.74997">
        <ele>174</ele>
        <time>2019-08-15T08:13:42.686Z</time>
      </trkpt>
      <trkpt lat="48.93916" lon="0.7501">
        <ele>174</ele>
        <time>2019-08-15T08:13:43.690Z</time>
      </trkpt>
      <trkpt lat="48.93916" lon="0.7501">
        <ele>174</ele>
        <time>2019-08-15T08:13:44.687Z</time>
      </trkpt>
      <trkpt lat="48.93917" lon="0.75022">
        <ele>174</ele>
        <time>2019-08-15T08:13:45.679Z</time>
      </trkpt>
      <trkpt lat="48.93917" lon="0.75022">
        <ele>174</ele>
        <time>2019-08-15T08:13:46.703Z</time>
      </trkpt>
      <trkpt lat="48.93917" lon="0.75034">
        <ele>174</ele>
        <time>2019-08-15T08:13:47.696Z</time>
      </trkpt>
      <trkpt lat="48.93917" lon="0.75034">
        <ele>174</ele>
        <time>2019-08-15T08:13:48.696Z</time>
      </trkpt>
      <trkpt lat="48.93917" lon="0.75047">
        <ele>174</ele>
        <time>2019-08-15T08:13:49.690Z</time>
      </trkpt>
      <trkpt lat="48.93917" lon="0.75047">
        <ele>174</ele>
        <time>2019-08-15T08:13:50.679Z</time>
      </trkpt>
      <trkpt lat="48.93918" lon="0.7506">
        <ele>174</ele>
        <time>2019-08-15T08:13:51.696Z</time>
      </trkpt>
      <trkpt lat="48.93918" lon="0.7506">
        <ele>174</ele>
        <time>2019-08-15T08:13:52.688Z</time>
      </trkpt>
      <trkpt lat="48.93919" lon="0.75073">
        <ele>174</ele>
        <time>2019-08-15T08:13:53.696Z</time>
      </trkpt>
      <trkpt lat="48.93919" lon="0.75073">
        <ele>174</ele>
        <time>2019-08-15T08:13:54.689Z</time>
      </trkpt>
      <trkpt lat="48.93919" lon="0.75086">
        <ele>174</ele>
        <time>2019-08-15T08:13:55.698Z</time>
      </trkpt>
      <trkpt lat="48.93919" lon="0.75086">
        <ele>174</ele>
        <time>2019-08-15T08:13:56.686Z</time>
      </trkpt>
      <trkpt lat="48.9392" lon="0.75099">
        <ele>174</ele>
        <time>2019-08-15T08:13:57.691Z</time>
      </trkpt>
      <trkpt lat="48.9392" lon="0.75099">
        <ele>174</ele>
        <time>2019-08-15T08:13:58.690Z</time>
      </trkpt>
      <trkpt lat="48.93921" lon="0.75112">
        <ele>174</ele>
        <time>2019-08-15T08:13:59.692Z</time>
      </trkpt>
      <trkpt lat="48.93921" lon="0.75112">
        <ele>174</ele>
        <time>2019-08-15T08:14:00.685Z</time>
      </trkpt>
      <trkpt lat="48.93922" lon="0.75124">
        <ele>173</ele>
        <time>2019-08-15T08:14:01.690Z</time>
      </trkpt>
      <trkpt lat="48.93922" lon="0.75124">
        <ele>173</ele>
        <time>2019-08-15T08:14:02.687Z</time>
      </trkpt>
      <trkpt lat="48.93922" lon="0.75137">
        <ele>173</ele>
        <time>2019-08-15T08:14:03.691Z</time>
      </trkpt>
      <trkpt lat="48.93922" lon="0.75137">
        <ele>173</ele>
        <time>2019-08-15T08:14:04.685Z</time>
      </trkpt>
      <trkpt lat="48.93923" lon="0.75148">
        <ele>173</ele>
        <time>2019-08-15T08:14:05.692Z</time>
      </trkpt>
      <trkpt lat="48.93923" lon="0.75154">
        <ele>174</ele>
        <time>2019-08-15T08:14:06.691Z</time>
      </trkpt>
      <trkpt lat="48.93923" lon="0.75154">
        <ele>174</ele>
        <time>2019-08-15T08:14:07.688Z</time>
      </trkpt>
      <trkpt lat="48.93923" lon="0.75164">
        <ele>174</ele>
        <time>2019-08-15T08:14:08.698Z</time>
      </trkpt>
      <trkpt lat="48.93923" lon="0.75164">
        <ele>174</ele>
        <time>2019-08-15T08:14:09.689Z</time>
      </trkpt>
      <trkpt lat="48.93923" lon="0.75176">
        <ele>174</ele>
        <time>2019-08-15T08:14:10.691Z</time>
      </trkpt>
      <trkpt lat="48.93924" lon="0.75182">
        <ele>174</ele>
        <time>2019-08-15T08:14:11.695Z</time>
      </trkpt>
      <trkpt lat="48.93924" lon="0.75182">
        <ele>174</ele>
        <time>2019-08-15T08:14:12.686Z</time>
      </trkpt>
      <trkpt lat="48.93924" lon="0.75194">
        <ele>174</ele>
        <time>2019-08-15T08:14:13.688Z</time>
      </trkpt>
      <trkpt lat="48.93924" lon="0.75194">
        <ele>174</ele>
        <time>2019-08-15T08:14:14.688Z</time>
      </trkpt>
      <trkpt lat="48.93924" lon="0.75207">
        <ele>175</ele>
        <time>2019-08-15T08:14:15.691Z</time>
      </trkpt>
      <trkpt lat="48.93924" lon="0.75207">
        <ele>175</ele>
        <time>2019-08-15T08:14:16.688Z</time>
      </trkpt>
      <trkpt lat="48.93924" lon="0.75219">
        <ele>175</ele>
        <time>2019-08-15T08:14:17.696Z</time>
      </trkpt>
      <trkpt lat="48.93924" lon="0.75219">
        <ele>175</ele>
        <time>2019-08-15T08:14:18.689Z</time>
      </trkpt>
      <trkpt lat="48.93924" lon="0.75232">
        <ele>175</ele>
        <time>2019-08-15T08:14:19.702Z</time>
      </trkpt>
      <trkpt lat="48.93924" lon="0.75238">
        <ele>175</ele>
        <time>2019-08-15T08:14:20.691Z</time>
      </trkpt>
      <trkpt lat="48.93924" lon="0.75238">
        <ele>175</ele>
        <time>2019-08-15T08:14:21.687Z</time>
      </trkpt>
      <trkpt lat="48.93924" lon="0.75251">
        <ele>175</ele>
        <time>2019-08-15T08:14:22.690Z</time>
      </trkpt>
      <trkpt lat="48.93924" lon="0.75257">
        <ele>175</ele>
        <time>2019-08-15T08:14:23.696Z</time>
      </trkpt>
      <trkpt lat="48.93924" lon="0.75257">
        <ele>175</ele>
        <time>2019-08-15T08:14:24.689Z</time>
      </trkpt>
      <trkpt lat="48.93923" lon="0.7527">
        <ele>175</ele>
        <time>2019-08-15T08:14:25.690Z</time>
      </trkpt>
      <trkpt lat="48.93923" lon="0.75276">
        <ele>176</ele>
        <time>2019-08-15T08:14:26.692Z</time>
      </trkpt>
      <trkpt lat="48.93923" lon="0.75283">
        <ele>176</ele>
        <time>2019-08-15T08:14:27.696Z</time>
      </trkpt>
      <trkpt lat="48.93923" lon="0.75283">
        <ele>176</ele>
        <time>2019-08-15T08:14:28.695Z</time>
      </trkpt>
      <trkpt lat="48.93923" lon="0.75297">
        <ele>175</ele>
        <time>2019-08-15T08:14:29.697Z</time>
      </trkpt>
      <trkpt lat="48.93923" lon="0.75297">
        <ele>175</ele>
        <time>2019-08-15T08:14:30.685Z</time>
      </trkpt>
      <trkpt lat="48.93922" lon="0.7531">
        <ele>176</ele>
        <time>2019-08-15T08:14:31.692Z</time>
      </trkpt>
      <trkpt lat="48.93922" lon="0.7531">
        <ele>176</ele>
        <time>2019-08-15T08:14:32.688Z</time>
      </trkpt>
      <trkpt lat="48.93922" lon="0.75324">
        <ele>176</ele>
        <time>2019-08-15T08:14:33.696Z</time>
      </trkpt>
      <trkpt lat="48.93922" lon="0.75324">
        <ele>176</ele>
        <time>2019-08-15T08:14:34.686Z</time>
      </trkpt>
      <trkpt lat="48.93921" lon="0.75337">
        <ele>176</ele>
        <time>2019-08-15T08:14:35.689Z</time>
      </trkpt>
      <trkpt lat="48.93921" lon="0.75337">
        <ele>176</ele>
        <time>2019-08-15T08:14:36.688Z</time>
      </trkpt>
      <trkpt lat="48.93921" lon="0.7535">
        <ele>176</ele>
        <time>2019-08-15T08:14:37.690Z</time>
      </trkpt>
      <trkpt lat="48.93921" lon="0.7535">
        <ele>176</ele>
        <time>2019-08-15T08:14:38.689Z</time>
      </trkpt>
      <trkpt lat="48.93921" lon="0.75363">
        <ele>176</ele>
        <time>2019-08-15T08:14:39.689Z</time>
      </trkpt>
      <trkpt lat="48.93921" lon="0.75363">
        <ele>176</ele>
        <time>2019-08-15T08:14:40.687Z</time>
      </trkpt>
      <trkpt lat="48.93921" lon="0.75377">
        <ele>176</ele>
        <time>2019-08-15T08:14:41.691Z</time>
      </trkpt>
      <trkpt lat="48.93921" lon="0.75384">
        <ele>176</ele>
        <time>2019-08-15T08:14:42.691Z</time>
      </trkpt>
      <trkpt lat="48.93921" lon="0.75384">
        <ele>176</ele>
        <time>2019-08-15T08:14:43.687Z</time>
      </trkpt>
      <trkpt lat="48.9392" lon="0.75397">
        <ele>176</ele>
        <time>2019-08-15T08:14:44.690Z</time>
      </trkpt>
      <trkpt lat="48.9392" lon="0.75403">
        <ele>176</ele>
        <time>2019-08-15T08:14:45.696Z</time>
      </trkpt>
      <trkpt lat="48.9392" lon="0.75403">
        <ele>176</ele>
        <time>2019-08-15T08:14:46.688Z</time>
      </trkpt>
      <trkpt lat="48.93921" lon="0.75416">
        <ele>176</ele>
        <time>2019-08-15T08:14:47.693Z</time>
      </trkpt>
      <trkpt lat="48.93921" lon="0.75416">
        <ele>176</ele>
        <time>2019-08-15T08:14:48.688Z</time>
      </trkpt>
      <trkpt lat="48.93922" lon="0.75429">
        <ele>176</ele>
        <time>2019-08-15T08:14:49.699Z</time>
      </trkpt>
      <trkpt lat="48.93922" lon="0.75436">
        <ele>176</ele>
        <time>2019-08-15T08:14:50.690Z</time>
      </trkpt>
      <trkpt lat="48.93922" lon="0.75443">
        <ele>176</ele>
        <time>2019-08-15T08:14:51.690Z</time>
      </trkpt>
      <trkpt lat="48.93922" lon="0.75443">
        <ele>176</ele>
        <time>2019-08-15T08:14:52.688Z</time>
      </trkpt>
      <trkpt lat="48.93923" lon="0.75457">
        <ele>176</ele>
        <time>2019-08-15T08:14:53.696Z</time>
      </trkpt>
      <trkpt lat="48.93923" lon="0.75457">
        <ele>176</ele>
        <time>2019-08-15T08:14:54.683Z</time>
      </trkpt>
      <trkpt lat="48.93925" lon="0.75471">
        <ele>176</ele>
        <time>2019-08-15T08:14:55.688Z</time>
      </trkpt>
      <trkpt lat="48.93925" lon="0.75471">
        <ele>176</ele>
        <time>2019-08-15T08:14:56.689Z</time>
      </trkpt>
      <trkpt lat="48.93926" lon="0.75483">
        <ele>176</ele>
        <time>2019-08-15T08:14:57.692Z</time>
      </trkpt>
      <trkpt lat="48.93926" lon="0.75483">
        <ele>176</ele>
        <time>2019-08-15T08:14:58.685Z</time>
      </trkpt>
      <trkpt lat="48.93927" lon="0.75496">
        <ele>176</ele>
        <time>2019-08-15T08:14:59.691Z</time>
      </trkpt>
      <trkpt lat="48.93927" lon="0.75496">
        <ele>176</ele>
        <time>2019-08-15T08:15:00.688Z</time>
      </trkpt>
      <trkpt lat="48.93929" lon="0.75509">
        <ele>176</ele>
        <time>2019-08-15T08:15:01.691Z</time>
      </trkpt>
      <trkpt lat="48.93929" lon="0.75509">
        <ele>176</ele>
        <time>2019-08-15T08:15:02.688Z</time>
      </trkpt>
      <trkpt lat="48.9393" lon="0.75521">
        <ele>175</ele>
        <time>2019-08-15T08:15:03.692Z</time>
      </trkpt>
      <trkpt lat="48.9393" lon="0.75521">
        <ele>175</ele>
        <time>2019-08-15T08:15:04.687Z</time>
      </trkpt>
      <trkpt lat="48.93931" lon="0.75533">
        <ele>175</ele>
        <time>2019-08-15T08:15:05.712Z</time>
      </trkpt>
      <trkpt lat="48.9393" lon="0.75538">
        <ele>175</ele>
        <time>2019-08-15T08:15:06.709Z</time>
      </trkpt>
      <trkpt lat="48.9393" lon="0.75538">
        <ele>175</ele>
        <time>2019-08-15T08:15:07.692Z</time>
      </trkpt>
      <trkpt lat="48.93925" lon="0.75547">
        <ele>175</ele>
        <time>2019-08-15T08:15:08.689Z</time>
      </trkpt>
      <trkpt lat="48.93925" lon="0.75547">
        <ele>175</ele>
        <time>2019-08-15T08:15:09.690Z</time>
      </trkpt>
      <trkpt lat="48.93918" lon="0.75553">
        <ele>175</ele>
        <time>2019-08-15T08:15:10.691Z</time>
      </trkpt>
      <trkpt lat="48.93914" lon="0.75556">
        <ele>175</ele>
        <time>2019-08-15T08:15:11.691Z</time>
      </trkpt>
      <trkpt lat="48.93914" lon="0.75556">
        <ele>175</ele>
        <time>2019-08-15T08:15:12.683Z</time>
      </trkpt>
      <trkpt lat="48.93905" lon="0.75564">
        <ele>175</ele>
        <time>2019-08-15T08:15:13.706Z</time>
      </trkpt>
      <trkpt lat="48.93905" lon="0.75564">
        <ele>175</ele>
        <time>2019-08-15T08:15:14.691Z</time>
      </trkpt>
      <trkpt lat="48.93896" lon="0.75572">
        <ele>175</ele>
        <time>2019-08-15T08:15:15.689Z</time>
      </trkpt>
      <trkpt lat="48.93896" lon="0.75572">
        <ele>175</ele>
        <time>2019-08-15T08:15:16.685Z</time>
      </trkpt>
      <trkpt lat="48.93886" lon="0.75579">
        <ele>175</ele>
        <time>2019-08-15T08:15:17.691Z</time>
      </trkpt>
      <trkpt lat="48.93886" lon="0.75579">
        <ele>175</ele>
        <time>2019-08-15T08:15:18.689Z</time>
      </trkpt>
      <trkpt lat="48.93876" lon="0.75586">
        <ele>175</ele>
        <time>2019-08-15T08:15:19.697Z</time>
      </trkpt>
      <trkpt lat="48.93871" lon="0.7559">
        <ele>175</ele>
        <time>2019-08-15T08:15:20.690Z</time>
      </trkpt>
      <trkpt lat="48.93866" lon="0.75594">
        <ele>175</ele>
        <time>2019-08-15T08:15:21.696Z</time>
      </trkpt>
      <trkpt lat="48.93866" lon="0.75594">
        <ele>175</ele>
        <time>2019-08-15T08:15:22.687Z</time>
      </trkpt>
      <trkpt lat="48.93857" lon="0.756">
        <ele>175</ele>
        <time>2019-08-15T08:15:23.692Z</time>
      </trkpt>
      <trkpt lat="48.93857" lon="0.756">
        <ele>175</ele>
        <time>2019-08-15T08:15:24.689Z</time>
      </trkpt>
      <trkpt lat="48.9385" lon="0.75604">
        <ele>175</ele>
        <time>2019-08-15T08:15:25.691Z</time>
      </trkpt>
      <trkpt lat="48.93847" lon="0.75606">
        <ele>175</ele>
        <time>2019-08-15T08:15:26.696Z</time>
      </trkpt>
      <trkpt lat="48.93847" lon="0.75606">
        <ele>175</ele>
        <time>2019-08-15T08:15:27.689Z</time>
      </trkpt>
      <trkpt lat="48.93839" lon="0.75611">
        <ele>175</ele>
        <time>2019-08-15T08:15:28.692Z</time>
      </trkpt>
      <trkpt lat="48.93836" lon="0.75613">
        <ele>174</ele>
        <time>2019-08-15T08:15:29.696Z</time>
      </trkpt>
      <trkpt lat="48.93836" lon="0.75613">
        <ele>174</ele>
        <time>2019-08-15T08:15:30.683Z</time>
      </trkpt>
      <trkpt lat="48.93827" lon="0.75619">
        <ele>174</ele>
        <time>2019-08-15T08:15:31.707Z</time>
      </trkpt>
      <trkpt lat="48.93827" lon="0.75619">
        <ele>174</ele>
        <time>2019-08-15T08:15:32.691Z</time>
      </trkpt>
      <trkpt lat="48.93816" lon="0.75624">
        <ele>175</ele>
        <time>2019-08-15T08:15:33.696Z</time>
      </trkpt>
      <trkpt lat="48.93816" lon="0.75624">
        <ele>175</ele>
        <time>2019-08-15T08:15:34.688Z</time>
      </trkpt>
      <trkpt lat="48.93806" lon="0.7563">
        <ele>175</ele>
        <time>2019-08-15T08:15:35.701Z</time>
      </trkpt>
      <trkpt lat="48.93806" lon="0.7563">
        <ele>175</ele>
        <time>2019-08-15T08:15:36.689Z</time>
      </trkpt>
      <trkpt lat="48.93797" lon="0.75635">
        <ele>175</ele>
        <time>2019-08-15T08:15:37.688Z</time>
      </trkpt>
      <trkpt lat="48.93792" lon="0.75638">
        <ele>175</ele>
        <time>2019-08-15T08:15:38.703Z</time>
      </trkpt>
      <trkpt lat="48.93792" lon="0.75638">
        <ele>175</ele>
        <time>2019-08-15T08:15:39.696Z</time>
      </trkpt>
      <trkpt lat="48.93782" lon="0.75645">
        <ele>175</ele>
        <time>2019-08-15T08:15:40.696Z</time>
      </trkpt>
      <trkpt lat="48.93777" lon="0.75649">
        <ele>175</ele>
        <time>2019-08-15T08:15:41.691Z</time>
      </trkpt>
      <trkpt lat="48.93777" lon="0.75649">
        <ele>175</ele>
        <time>2019-08-15T08:15:42.686Z</time>
      </trkpt>
      <trkpt lat="48.93767" lon="0.75655">
        <ele>175</ele>
        <time>2019-08-15T08:15:43.690Z</time>
      </trkpt>
      <trkpt lat="48.93762" lon="0.75658">
        <ele>175</ele>
        <time>2019-08-15T08:15:44.696Z</time>
      </trkpt>
      <trkpt lat="48.93757" lon="0.75661">
        <ele>175</ele>
        <time>2019-08-15T08:15:45.689Z</time>
      </trkpt>
      <trkpt lat="48.93757" lon="0.75661">
        <ele>175</ele>
        <time>2019-08-15T08:15:46.689Z</time>
      </trkpt>
      <trkpt lat="48.93746" lon="0.75667">
        <ele>175</ele>
        <time>2019-08-15T08:15:47.690Z</time>
      </trkpt>
      <trkpt lat="48.93746" lon="0.75667">
        <ele>175</ele>
        <time>2019-08-15T08:15:48.688Z</time>
      </trkpt>
      <trkpt lat="48.93735" lon="0.75673">
        <ele>174</ele>
        <time>2019-08-15T08:15:49.700Z</time>
      </trkpt>
      <trkpt lat="48.93729" lon="0.75677">
        <ele>174</ele>
        <time>2019-08-15T08:15:50.714Z</time>
      </trkpt>
      <trkpt lat="48.93723" lon="0.7568">
        <ele>173</ele>
        <time>2019-08-15T08:15:51.689Z</time>
      </trkpt>
      <trkpt lat="48.93723" lon="0.7568">
        <ele>173</ele>
        <time>2019-08-15T08:15:52.688Z</time>
      </trkpt>
      <trkpt lat="48.93711" lon="0.75686">
        <ele>173</ele>
        <time>2019-08-15T08:15:53.696Z</time>
      </trkpt>
      <trkpt lat="48.93711" lon="0.75686">
        <ele>173</ele>
        <time>2019-08-15T08:15:54.686Z</time>
      </trkpt>
      <trkpt lat="48.93701" lon="0.75695">
        <ele>173</ele>
        <time>2019-08-15T08:15:55.703Z</time>
      </trkpt>
      <trkpt lat="48.93701" lon="0.75695">
        <ele>173</ele>
        <time>2019-08-15T08:15:56.688Z</time>
      </trkpt>
      <trkpt lat="48.9369" lon="0.75702">
        <ele>173</ele>
        <time>2019-08-15T08:15:57.696Z</time>
      </trkpt>
      <trkpt lat="48.9369" lon="0.75702">
        <ele>173</ele>
        <time>2019-08-15T08:15:58.688Z</time>
      </trkpt>
      <trkpt lat="48.93679" lon="0.75709">
        <ele>172</ele>
        <time>2019-08-15T08:15:59.692Z</time>
      </trkpt>
      <trkpt lat="48.93679" lon="0.75709">
        <ele>172</ele>
        <time>2019-08-15T08:16:00.688Z</time>
      </trkpt>
      <trkpt lat="48.93668" lon="0.75715">
        <ele>172</ele>
        <time>2019-08-15T08:16:01.692Z</time>
      </trkpt>
      <trkpt lat="48.93662" lon="0.7572">
        <ele>171</ele>
        <time>2019-08-15T08:16:02.691Z</time>
      </trkpt>
      <trkpt lat="48.93662" lon="0.7572">
        <ele>171</ele>
        <time>2019-08-15T08:16:03.688Z</time>
      </trkpt>
      <trkpt lat="48.93652" lon="0.75729">
        <ele>171</ele>
        <time>2019-08-15T08:16:04.692Z</time>
      </trkpt>
      <trkpt lat="48.93646" lon="0.75732">
        <ele>171</ele>
        <time>2019-08-15T08:16:05.696Z</time>
      </trkpt>
      <trkpt lat="48.93641" lon="0.75737">
        <ele>171</ele>
        <time>2019-08-15T08:16:06.696Z</time>
      </trkpt>
      <trkpt lat="48.93641" lon="0.75737">
        <ele>171</ele>
        <time>2019-08-15T08:16:07.689Z</time>
      </trkpt>
      <trkpt lat="48.93632" lon="0.75746">
        <ele>171</ele>
        <time>2019-08-15T08:16:08.690Z</time>
      </trkpt>
      <trkpt lat="48.93632" lon="0.75746">
        <ele>171</ele>
        <time>2019-08-15T08:16:09.697Z</time>
      </trkpt>
      <trkpt lat="48.93623" lon="0.75756">
        <ele>171</ele>
        <time>2019-08-15T08:16:10.696Z</time>
      </trkpt>
      <trkpt lat="48.93618" lon="0.75761">
        <ele>171</ele>
        <time>2019-08-15T08:16:11.696Z</time>
      </trkpt>
      <trkpt lat="48.93618" lon="0.75761">
        <ele>171</ele>
        <time>2019-08-15T08:16:12.689Z</time>
      </trkpt>
      <trkpt lat="48.93608" lon="0.75771">
        <ele>171</ele>
        <time>2019-08-15T08:16:13.690Z</time>
      </trkpt>
      <trkpt lat="48.93608" lon="0.75771">
        <ele>171</ele>
        <time>2019-08-15T08:16:14.688Z</time>
      </trkpt>
      <trkpt lat="48.93597" lon="0.7578">
        <ele>170</ele>
        <time>2019-08-15T08:16:15.712Z</time>
      </trkpt>
      <trkpt lat="48.93597" lon="0.7578">
        <ele>170</ele>
        <time>2019-08-15T08:16:16.696Z</time>
      </trkpt>
      <trkpt lat="48.93585" lon="0.75787">
        <ele>169</ele>
        <time>2019-08-15T08:16:17.696Z</time>
      </trkpt>
      <trkpt lat="48.93585" lon="0.75787">
        <ele>169</ele>
        <time>2019-08-15T08:16:18.688Z</time>
      </trkpt>
      <trkpt lat="48.93573" lon="0.75793">
        <ele>169</ele>
        <time>2019-08-15T08:16:19.701Z</time>
      </trkpt>
      <trkpt lat="48.93573" lon="0.75793">
        <ele>169</ele>
        <time>2019-08-15T08:16:20.686Z</time>
      </trkpt>
      <trkpt lat="48.93561" lon="0.75802">
        <ele>167</ele>
        <time>2019-08-15T08:16:21.691Z</time>
      </trkpt>
      <trkpt lat="48.93561" lon="0.75802">
        <ele>167</ele>
        <time>2019-08-15T08:16:22.689Z</time>
      </trkpt>
      <trkpt lat="48.93549" lon="0.7581">
        <ele>166</ele>
        <time>2019-08-15T08:16:23.691Z</time>
      </trkpt>
      <trkpt lat="48.93549" lon="0.7581">
        <ele>166</ele>
        <time>2019-08-15T08:16:24.687Z</time>
      </trkpt>
      <trkpt lat="48.93537" lon="0.75813">
        <ele>165</ele>
        <time>2019-08-15T08:16:25.712Z</time>
      </trkpt>
      <trkpt lat="48.93537" lon="0.75813">
        <ele>165</ele>
        <time>2019-08-15T08:16:26.696Z</time>
      </trkpt>
      <trkpt lat="48.93524" lon="0.7581">
        <ele>165</ele>
        <time>2019-08-15T08:16:27.696Z</time>
      </trkpt>
      <trkpt lat="48.93524" lon="0.7581">
        <ele>165</ele>
        <time>2019-08-15T08:16:28.685Z</time>
      </trkpt>
      <trkpt lat="48.93515" lon="0.75808">
        <ele>164</ele>
        <time>2019-08-15T08:16:29.695Z</time>
      </trkpt>
      <trkpt lat="48.93515" lon="0.75808">
        <ele>164</ele>
        <time>2019-08-15T08:16:30.700Z</time>
      </trkpt>
      <trkpt lat="48.93509" lon="0.75808">
        <ele>164</ele>
        <time>2019-08-15T08:16:31.691Z</time>
      </trkpt>
      <trkpt lat="48.93509" lon="0.75808">
        <ele>164</ele>
        <time>2019-08-15T08:16:32.688Z</time>
      </trkpt>
      <trkpt lat="48.93505" lon="0.75811">
        <ele>164</ele>
        <time>2019-08-15T08:16:33.696Z</time>
      </trkpt>
      <trkpt lat="48.93505" lon="0.75811">
        <ele>164</ele>
        <time>2019-08-15T08:16:34.689Z</time>
      </trkpt>
      <trkpt lat="48.93504" lon="0.75818">
        <ele>165</ele>
        <time>2019-08-15T08:16:35.696Z</time>
      </trkpt>
      <trkpt lat="48.93504" lon="0.75818">
        <ele>165</ele>
        <time>2019-08-15T08:16:36.688Z</time>
      </trkpt>
      <trkpt lat="48.93506" lon="0.75828">
        <ele>166</ele>
        <time>2019-08-15T08:16:37.697Z</time>
      </trkpt>
      <trkpt lat="48.93506" lon="0.75834">
        <ele>166</ele>
        <time>2019-08-15T08:16:38.689Z</time>
      </trkpt>
      <trkpt lat="48.93506" lon="0.75834">
        <ele>166</ele>
        <time>2019-08-15T08:16:39.702Z</time>
      </trkpt>
      <trkpt lat="48.93508" lon="0.75848">
        <ele>166</ele>
        <time>2019-08-15T08:16:40.696Z</time>
      </trkpt>
      <trkpt lat="48.93508" lon="0.75855">
        <ele>166</ele>
        <time>2019-08-15T08:16:41.688Z</time>
      </trkpt>
      <trkpt lat="48.93508" lon="0.75855">
        <ele>166</ele>
        <time>2019-08-15T08:16:42.689Z</time>
      </trkpt>
      <trkpt lat="48.93509" lon="0.7587">
        <ele>166</ele>
        <time>2019-08-15T08:16:43.690Z</time>
      </trkpt>
      <trkpt lat="48.93509" lon="0.7587">
        <ele>166</ele>
        <time>2019-08-15T08:16:44.685Z</time>
      </trkpt>
      <trkpt lat="48.9351" lon="0.75885">
        <ele>166</ele>
        <time>2019-08-15T08:16:45.718Z</time>
      </trkpt>
      <trkpt lat="48.93511" lon="0.75892">
        <ele>166</ele>
        <time>2019-08-15T08:16:46.701Z</time>
      </trkpt>
      <trkpt lat="48.93511" lon="0.759">
        <ele>166</ele>
        <time>2019-08-15T08:16:47.695Z</time>
      </trkpt>
      <trkpt lat="48.93511" lon="0.759">
        <ele>166</ele>
        <time>2019-08-15T08:16:48.686Z</time>
      </trkpt>
      <trkpt lat="48.93513" lon="0.75915">
        <ele>166</ele>
        <time>2019-08-15T08:16:49.683Z</time>
      </trkpt>
      <trkpt lat="48.93513" lon="0.75915">
        <ele>166</ele>
        <time>2019-08-15T08:16:50.696Z</time>
      </trkpt>
      <trkpt lat="48.93513" lon="0.75929">
        <ele>166</ele>
        <time>2019-08-15T08:16:51.704Z</time>
      </trkpt>
      <trkpt lat="48.93513" lon="0.75929">
        <ele>166</ele>
        <time>2019-08-15T08:16:52.688Z</time>
      </trkpt>
      <trkpt lat="48.93514" lon="0.75942">
        <ele>166</ele>
        <time>2019-08-15T08:16:53.696Z</time>
      </trkpt>
      <trkpt lat="48.93514" lon="0.75942">
        <ele>166</ele>
        <time>2019-08-15T08:16:54.689Z</time>
      </trkpt>
      <trkpt lat="48.93515" lon="0.75956">
        <ele>167</ele>
        <time>2019-08-15T08:16:55.691Z</time>
      </trkpt>
      <trkpt lat="48.93515" lon="0.75956">
        <ele>167</ele>
        <time>2019-08-15T08:16:56.689Z</time>
      </trkpt>
      <trkpt lat="48.93517" lon="0.75971">
        <ele>168</ele>
        <time>2019-08-15T08:16:57.692Z</time>
      </trkpt>
      <trkpt lat="48.93518" lon="0.75978">
        <ele>168</ele>
        <time>2019-08-15T08:16:58.689Z</time>
      </trkpt>
      <trkpt lat="48.93518" lon="0.75986">
        <ele>168</ele>
        <time>2019-08-15T08:16:59.698Z</time>
      </trkpt>
      <trkpt lat="48.93518" lon="0.75986">
        <ele>168</ele>
        <time>2019-08-15T08:17:00.689Z</time>
      </trkpt>
      <trkpt lat="48.93519" lon="0.76">
        <ele>168</ele>
        <time>2019-08-15T08:17:01.690Z</time>
      </trkpt>
      <trkpt lat="48.93519" lon="0.76">
        <ele>168</ele>
        <time>2019-08-15T08:17:02.683Z</time>
      </trkpt>
      <trkpt lat="48.93516" lon="0.76014">
        <ele>169</ele>
        <time>2019-08-15T08:17:03.707Z</time>
      </trkpt>
      <trkpt lat="48.93516" lon="0.76014">
        <ele>169</ele>
        <time>2019-08-15T08:17:04.691Z</time>
      </trkpt>
      <trkpt lat="48.93509" lon="0.76024">
        <ele>169</ele>
        <time>2019-08-15T08:17:05.691Z</time>
      </trkpt>
      <trkpt lat="48.93509" lon="0.76024">
        <ele>169</ele>
        <time>2019-08-15T08:17:06.686Z</time>
      </trkpt>
      <trkpt lat="48.935" lon="0.76029">
        <ele>170</ele>
        <time>2019-08-15T08:17:07.697Z</time>
      </trkpt>
      <trkpt lat="48.935" lon="0.76029">
        <ele>170</ele>
        <time>2019-08-15T08:17:08.688Z</time>
      </trkpt>
      <trkpt lat="48.9349" lon="0.76032">
        <ele>170</ele>
        <time>2019-08-15T08:17:09.691Z</time>
      </trkpt>
      <trkpt lat="48.9349" lon="0.76032">
        <ele>170</ele>
        <time>2019-08-15T08:17:10.681Z</time>
      </trkpt>
      <trkpt lat="48.9348" lon="0.76035">
        <ele>171</ele>
        <time>2019-08-15T08:17:11.704Z</time>
      </trkpt>
      <trkpt lat="48.9348" lon="0.76035">
        <ele>171</ele>
        <time>2019-08-15T08:17:12.688Z</time>
      </trkpt>
      <trkpt lat="48.93471" lon="0.7604">
        <ele>171</ele>
        <time>2019-08-15T08:17:13.689Z</time>
      </trkpt>
      <trkpt lat="48.93467" lon="0.76043">
        <ele>171</ele>
        <time>2019-08-15T08:17:14.691Z</time>
      </trkpt>
      <trkpt lat="48.93467" lon="0.76043">
        <ele>171</ele>
        <time>2019-08-15T08:17:15.687Z</time>
      </trkpt>
      <trkpt lat="48.9346" lon="0.76053">
        <ele>171</ele>
        <time>2019-08-15T08:17:16.706Z</time>
      </trkpt>
      <trkpt lat="48.93458" lon="0.76059">
        <ele>171</ele>
        <time>2019-08-15T08:17:17.696Z</time>
      </trkpt>
      <trkpt lat="48.93458" lon="0.76059">
        <ele>171</ele>
        <time>2019-08-15T08:17:18.688Z</time>
      </trkpt>
      <trkpt lat="48.93454" lon="0.76073">
        <ele>171</ele>
        <time>2019-08-15T08:17:19.690Z</time>
      </trkpt>
      <trkpt lat="48.93454" lon="0.76073">
        <ele>171</ele>
        <time>2019-08-15T08:17:20.697Z</time>
      </trkpt>
      <trkpt lat="48.93452" lon="0.76086">
        <ele>172</ele>
        <time>2019-08-15T08:17:21.696Z</time>
      </trkpt>
      <trkpt lat="48.93452" lon="0.76086">
        <ele>172</ele>
        <time>2019-08-15T08:17:22.687Z</time>
      </trkpt>
      <trkpt lat="48.93449" lon="0.76099">
        <ele>172</ele>
        <time>2019-08-15T08:17:23.691Z</time>
      </trkpt>
      <trkpt lat="48.93449" lon="0.76099">
        <ele>172</ele>
        <time>2019-08-15T08:17:24.690Z</time>
      </trkpt>
      <trkpt lat="48.93449" lon="0.76112">
        <ele>172</ele>
        <time>2019-08-15T08:17:25.690Z</time>
      </trkpt>
      <trkpt lat="48.93449" lon="0.76112">
        <ele>172</ele>
        <time>2019-08-15T08:17:26.688Z</time>
      </trkpt>
      <trkpt lat="48.93447" lon="0.76123">
        <ele>172</ele>
        <time>2019-08-15T08:17:27.688Z</time>
      </trkpt>
      <trkpt lat="48.93447" lon="0.76123">
        <ele>172</ele>
        <time>2019-08-15T08:17:28.685Z</time>
      </trkpt>
      <trkpt lat="48.93446" lon="0.76132">
        <ele>172</ele>
        <time>2019-08-15T08:17:29.691Z</time>
      </trkpt>
      <trkpt lat="48.93446" lon="0.76132">
        <ele>172</ele>
        <time>2019-08-15T08:17:30.690Z</time>
      </trkpt>
      <trkpt lat="48.93443" lon="0.7614">
        <ele>172</ele>
        <time>2019-08-15T08:17:31.690Z</time>
      </trkpt>
      <trkpt lat="48.93442" lon="0.76144">
        <ele>172</ele>
        <time>2019-08-15T08:17:32.690Z</time>
      </trkpt>
      <trkpt lat="48.93442" lon="0.76149">
        <ele>172</ele>
        <time>2019-08-15T08:17:33.691Z</time>
      </trkpt>
      <trkpt lat="48.93442" lon="0.76149">
        <ele>172</ele>
        <time>2019-08-15T08:17:34.688Z</time>
      </trkpt>
      <trkpt lat="48.93443" lon="0.76157">
        <ele>172</ele>
        <time>2019-08-15T08:17:35.690Z</time>
      </trkpt>
      <trkpt lat="48.93443" lon="0.76157">
        <ele>172</ele>
        <time>2019-08-15T08:17:36.685Z</time>
      </trkpt>
      <trkpt lat="48.93447" lon="0.76166">
        <ele>173</ele>
        <time>2019-08-15T08:17:37.691Z</time>
      </trkpt>
      <trkpt lat="48.93447" lon="0.76166">
        <ele>173</ele>
        <time>2019-08-15T08:17:38.687Z</time>
      </trkpt>
      <trkpt lat="48.93452" lon="0.76174">
        <ele>172</ele>
        <time>2019-08-15T08:17:39.701Z</time>
      </trkpt>
      <trkpt lat="48.93452" lon="0.76174">
        <ele>172</ele>
        <time>2019-08-15T08:17:40.689Z</time>
      </trkpt>
      <trkpt lat="48.93458" lon="0.76182">
        <ele>172</ele>
        <time>2019-08-15T08:17:41.687Z</time>
      </trkpt>
      <trkpt lat="48.93458" lon="0.76182">
        <ele>172</ele>
        <time>2019-08-15T08:17:42.687Z</time>
      </trkpt>
      <trkpt lat="48.93464" lon="0.76191">
        <ele>172</ele>
        <time>2019-08-15T08:17:43.689Z</time>
      </trkpt>
      <trkpt lat="48.93467" lon="0.76196">
        <ele>171</ele>
        <time>2019-08-15T08:17:44.690Z</time>
      </trkpt>
      <trkpt lat="48.93471" lon="0.76201">
        <ele>171</ele>
        <time>2019-08-15T08:17:45.691Z</time>
      </trkpt>
      <trkpt lat="48.93471" lon="0.76201">
        <ele>171</ele>
        <time>2019-08-15T08:17:46.688Z</time>
      </trkpt>
      <trkpt lat="48.93479" lon="0.76212">
        <ele>170</ele>
        <time>2019-08-15T08:17:47.691Z</time>
      </trkpt>
      <trkpt lat="48.93479" lon="0.76212">
        <ele>170</ele>
        <time>2019-08-15T08:17:48.682Z</time>
      </trkpt>
      <trkpt lat="48.93486" lon="0.76223">
        <ele>170</ele>
        <time>2019-08-15T08:17:49.690Z</time>
      </trkpt>
      <trkpt lat="48.9349" lon="0.76229">
        <ele>170</ele>
        <time>2019-08-15T08:17:50.704Z</time>
      </trkpt>
      <trkpt lat="48.9349" lon="0.76229">
        <ele>170</ele>
        <time>2019-08-15T08:17:51.689Z</time>
      </trkpt>
      <trkpt lat="48.93498" lon="0.76241">
        <ele>170</ele>
        <time>2019-08-15T08:17:52.696Z</time>
      </trkpt>
      <trkpt lat="48.93502" lon="0.76247">
        <ele>169</ele>
        <time>2019-08-15T08:17:53.696Z</time>
      </trkpt>
      <trkpt lat="48.93502" lon="0.76247">
        <ele>169</ele>
        <time>2019-08-15T08:17:54.687Z</time>
      </trkpt>
      <trkpt lat="48.93511" lon="0.76258">
        <ele>169</ele>
        <time>2019-08-15T08:17:55.698Z</time>
      </trkpt>
      <trkpt lat="48.93515" lon="0.76264">
        <ele>169</ele>
        <time>2019-08-15T08:17:56.690Z</time>
      </trkpt>
      <trkpt lat="48.93519" lon="0.7627">
        <ele>169</ele>
        <time>2019-08-15T08:17:57.696Z</time>
      </trkpt>
      <trkpt lat="48.93519" lon="0.7627">
        <ele>169</ele>
        <time>2019-08-15T08:17:58.687Z</time>
      </trkpt>
      <trkpt lat="48.93527" lon="0.76282">
        <ele>168</ele>
        <time>2019-08-15T08:17:59.687Z</time>
      </trkpt>
      <trkpt lat="48.93527" lon="0.76282">
        <ele>168</ele>
        <time>2019-08-15T08:18:00.689Z</time>
      </trkpt>
      <trkpt lat="48.93535" lon="0.76293">
        <ele>168</ele>
        <time>2019-08-15T08:18:01.690Z</time>
      </trkpt>
      <trkpt lat="48.93538" lon="0.763">
        <ele>168</ele>
        <time>2019-08-15T08:18:02.687Z</time>
      </trkpt>
      <trkpt lat="48.93538" lon="0.763">
        <ele>168</ele>
        <time>2019-08-15T08:18:03.688Z</time>
      </trkpt>
      <trkpt lat="48.93545" lon="0.76312">
        <ele>168</ele>
        <time>2019-08-15T08:18:04.690Z</time>
      </trkpt>
      <trkpt lat="48.93545" lon="0.76312">
        <ele>168</ele>
        <time>2019-08-15T08:18:05.687Z</time>
      </trkpt>
      <trkpt lat="48.93552" lon="0.76323">
        <ele>168</ele>
        <time>2019-08-15T08:18:06.690Z</time>
      </trkpt>
      <trkpt lat="48.93555" lon="0.76329">
        <ele>167</ele>
        <time>2019-08-15T08:18:07.690Z</time>
      </trkpt>
      <trkpt lat="48.93555" lon="0.76329">
        <ele>167</ele>
        <time>2019-08-15T08:18:08.688Z</time>
      </trkpt>
      <trkpt lat="48.9356" lon="0.76341">
        <ele>167</ele>
        <time>2019-08-15T08:18:09.690Z</time>
      </trkpt>
      <trkpt lat="48.9356" lon="0.76341">
        <ele>167</ele>
        <time>2019-08-15T08:18:10.687Z</time>
      </trkpt>
      <trkpt lat="48.93567" lon="0.76352">
        <ele>167</ele>
        <time>2019-08-15T08:18:11.705Z</time>
      </trkpt>
      <trkpt lat="48.93567" lon="0.76352">
        <ele>167</ele>
        <time>2019-08-15T08:18:12.687Z</time>
      </trkpt>
      <trkpt lat="48.93574" lon="0.76365">
        <ele>167</ele>
        <time>2019-08-15T08:18:13.689Z</time>
      </trkpt>
      <trkpt lat="48.93577" lon="0.76372">
        <ele>167</ele>
        <time>2019-08-15T08:18:14.687Z</time>
      </trkpt>
      <trkpt lat="48.93581" lon="0.76378">
        <ele>167</ele>
        <time>2019-08-15T08:18:15.712Z</time>
      </trkpt>
      <trkpt lat="48.93581" lon="0.76378">
        <ele>167</ele>
        <time>2019-08-15T08:18:16.695Z</time>
      </trkpt>
      <trkpt lat="48.93588" lon="0.76389">
        <ele>167</ele>
        <time>2019-08-15T08:18:17.688Z</time>
      </trkpt>
      <trkpt lat="48.93588" lon="0.76389">
        <ele>167</ele>
        <time>2019-08-15T08:18:18.687Z</time>
      </trkpt>
      <trkpt lat="48.93595" lon="0.76403">
        <ele>167</ele>
        <time>2019-08-15T08:18:19.693Z</time>
      </trkpt>
      <trkpt lat="48.93595" lon="0.76403">
        <ele>167</ele>
        <time>2019-08-15T08:18:20.694Z</time>
      </trkpt>
      <trkpt lat="48.93602" lon="0.76416">
        <ele>167</ele>
        <time>2019-08-15T08:18:21.688Z</time>
      </trkpt>
      <trkpt lat="48.93602" lon="0.76416">
        <ele>167</ele>
        <time>2019-08-15T08:18:22.688Z</time>
      </trkpt>
      <trkpt lat="48.93608" lon="0.76429">
        <ele>167</ele>
        <time>2019-08-15T08:18:23.691Z</time>
      </trkpt>
      <trkpt lat="48.93608" lon="0.76429">
        <ele>167</ele>
        <time>2019-08-15T08:18:24.685Z</time>
      </trkpt>
      <trkpt lat="48.93616" lon="0.76442">
        <ele>168</ele>
        <time>2019-08-15T08:18:25.690Z</time>
      </trkpt>
      <trkpt lat="48.9362" lon="0.76448">
        <ele>168</ele>
        <time>2019-08-15T08:18:26.689Z</time>
      </trkpt>
      <trkpt lat="48.93623" lon="0.76454">
        <ele>168</ele>
        <time>2019-08-15T08:18:27.689Z</time>
      </trkpt>
      <trkpt lat="48.93623" lon="0.76454">
        <ele>168</ele>
        <time>2019-08-15T08:18:28.687Z</time>
      </trkpt>
      <trkpt lat="48.93631" lon="0.76468">
        <ele>168</ele>
        <time>2019-08-15T08:18:29.687Z</time>
      </trkpt>
      <trkpt lat="48.93631" lon="0.76468">
        <ele>168</ele>
        <time>2019-08-15T08:18:30.686Z</time>
      </trkpt>
      <trkpt lat="48.93638" lon="0.76482">
        <ele>169</ele>
        <time>2019-08-15T08:18:31.690Z</time>
      </trkpt>
      <trkpt lat="48.93642" lon="0.76489">
        <ele>169</ele>
        <time>2019-08-15T08:18:32.689Z</time>
      </trkpt>
      <trkpt lat="48.93646" lon="0.76495">
        <ele>169</ele>
        <time>2019-08-15T08:18:33.690Z</time>
      </trkpt>
      <trkpt lat="48.93646" lon="0.76495">
        <ele>169</ele>
        <time>2019-08-15T08:18:34.688Z</time>
      </trkpt>
      <trkpt lat="48.93653" lon="0.76508">
        <ele>169</ele>
        <time>2019-08-15T08:18:35.692Z</time>
      </trkpt>
      <trkpt lat="48.93653" lon="0.76508">
        <ele>169</ele>
        <time>2019-08-15T08:18:36.684Z</time>
      </trkpt>
      <trkpt lat="48.9366" lon="0.76522">
        <ele>169</ele>
        <time>2019-08-15T08:18:37.689Z</time>
      </trkpt>
      <trkpt lat="48.9366" lon="0.76522">
        <ele>169</ele>
        <time>2019-08-15T08:18:38.687Z</time>
      </trkpt>
      <trkpt lat="48.93668" lon="0.76534">
        <ele>170</ele>
        <time>2019-08-15T08:18:39.697Z</time>
      </trkpt>
      <trkpt lat="48.93668" lon="0.76534">
        <ele>170</ele>
        <time>2019-08-15T08:18:40.688Z</time>
      </trkpt>
      <trkpt lat="48.93675" lon="0.76546">
        <ele>170</ele>
        <time>2019-08-15T08:18:41.690Z</time>
      </trkpt>
      <trkpt lat="48.93675" lon="0.76546">
        <ele>170</ele>
        <time>2019-08-15T08:18:42.683Z</time>
      </trkpt>
      <trkpt lat="48.93682" lon="0.76559">
        <ele>170</ele>
        <time>2019-08-15T08:18:43.688Z</time>
      </trkpt>
      <trkpt lat="48.93682" lon="0.76559">
        <ele>170</ele>
        <time>2019-08-15T08:18:44.690Z</time>
      </trkpt>
      <trkpt lat="48.93689" lon="0.7657">
        <ele>171</ele>
        <time>2019-08-15T08:18:45.691Z</time>
      </trkpt>
      <trkpt lat="48.93689" lon="0.7657">
        <ele>171</ele>
        <time>2019-08-15T08:18:46.687Z</time>
      </trkpt>
      <trkpt lat="48.93696" lon="0.7658">
        <ele>171</ele>
        <time>2019-08-15T08:18:47.696Z</time>
      </trkpt>
      <trkpt lat="48.93696" lon="0.7658">
        <ele>171</ele>
        <time>2019-08-15T08:18:48.688Z</time>
      </trkpt>
      <trkpt lat="48.93703" lon="0.76592">
        <ele>171</ele>
        <time>2019-08-15T08:18:49.702Z</time>
      </trkpt>
      <trkpt lat="48.93706" lon="0.76597">
        <ele>172</ele>
        <time>2019-08-15T08:18:50.717Z</time>
      </trkpt>
      <trkpt lat="48.93706" lon="0.76597">
        <ele>172</ele>
        <time>2019-08-15T08:18:51.711Z</time>
      </trkpt>
      <trkpt lat="48.93712" lon="0.7661">
        <ele>172</ele>
        <time>2019-08-15T08:18:52.696Z</time>
      </trkpt>
      <trkpt lat="48.93712" lon="0.7661">
        <ele>172</ele>
        <time>2019-08-15T08:18:53.685Z</time>
      </trkpt>
      <trkpt lat="48.93719" lon="0.76621">
        <ele>173</ele>
        <time>2019-08-15T08:18:54.706Z</time>
      </trkpt>
      <trkpt lat="48.93719" lon="0.76621">
        <ele>173</ele>
        <time>2019-08-15T08:18:55.690Z</time>
      </trkpt>
      <trkpt lat="48.93727" lon="0.76635">
        <ele>173</ele>
        <time>2019-08-15T08:18:56.689Z</time>
      </trkpt>
      <trkpt lat="48.93731" lon="0.76641">
        <ele>173</ele>
        <time>2019-08-15T08:18:57.691Z</time>
      </trkpt>
      <trkpt lat="48.93731" lon="0.76641">
        <ele>173</ele>
        <time>2019-08-15T08:18:58.686Z</time>
      </trkpt>
      <trkpt lat="48.93738" lon="0.76654">
        <ele>173</ele>
        <time>2019-08-15T08:18:59.690Z</time>
      </trkpt>
      <trkpt lat="48.93738" lon="0.76654">
        <ele>173</ele>
        <time>2019-08-15T08:19:00.685Z</time>
      </trkpt>
      <trkpt lat="48.93746" lon="0.76665">
        <ele>174</ele>
        <time>2019-08-15T08:19:01.702Z</time>
      </trkpt>
      <trkpt lat="48.93749" lon="0.76671">
        <ele>174</ele>
        <time>2019-08-15T08:19:02.715Z</time>
      </trkpt>
      <trkpt lat="48.93752" lon="0.76677">
        <ele>174</ele>
        <time>2019-08-15T08:19:03.699Z</time>
      </trkpt>
      <trkpt lat="48.93752" lon="0.76677">
        <ele>174</ele>
        <time>2019-08-15T08:19:04.687Z</time>
      </trkpt>
      <trkpt lat="48.93759" lon="0.76688">
        <ele>175</ele>
        <time>2019-08-15T08:19:05.691Z</time>
      </trkpt>
      <trkpt lat="48.93759" lon="0.76688">
        <ele>175</ele>
        <time>2019-08-15T08:19:06.690Z</time>
      </trkpt>
      <trkpt lat="48.93766" lon="0.76701">
        <ele>175</ele>
        <time>2019-08-15T08:19:07.690Z</time>
      </trkpt>
      <trkpt lat="48.93766" lon="0.76701">
        <ele>175</ele>
        <time>2019-08-15T08:19:08.688Z</time>
      </trkpt>
      <trkpt lat="48.93774" lon="0.76713">
        <ele>175</ele>
        <time>2019-08-15T08:19:09.696Z</time>
      </trkpt>
      <trkpt lat="48.93778" lon="0.7672">
        <ele>176</ele>
        <time>2019-08-15T08:19:10.689Z</time>
      </trkpt>
      <trkpt lat="48.93778" lon="0.7672">
        <ele>176</ele>
        <time>2019-08-15T08:19:11.700Z</time>
      </trkpt>
      <trkpt lat="48.93784" lon="0.76733">
        <ele>176</ele>
        <time>2019-08-15T08:19:12.690Z</time>
      </trkpt>
      <trkpt lat="48.93784" lon="0.76733">
        <ele>176</ele>
        <time>2019-08-15T08:19:13.687Z</time>
      </trkpt>
      <trkpt lat="48.93791" lon="0.76745">
        <ele>177</ele>
        <time>2019-08-15T08:19:14.692Z</time>
      </trkpt>
      <trkpt lat="48.93794" lon="0.7675">
        <ele>177</ele>
        <time>2019-08-15T08:19:15.696Z</time>
      </trkpt>
      <trkpt lat="48.93794" lon="0.7675">
        <ele>177</ele>
        <time>2019-08-15T08:19:16.687Z</time>
      </trkpt>
      <trkpt lat="48.938" lon="0.76761">
        <ele>178</ele>
        <time>2019-08-15T08:19:17.690Z</time>
      </trkpt>
      <trkpt lat="48.938" lon="0.76761">
        <ele>178</ele>
        <time>2019-08-15T08:19:18.684Z</time>
      </trkpt>
      <trkpt lat="48.93806" lon="0.76774">
        <ele>178</ele>
        <time>2019-08-15T08:19:19.688Z</time>
      </trkpt>
      <trkpt lat="48.93806" lon="0.76774">
        <ele>178</ele>
        <time>2019-08-15T08:19:20.687Z</time>
      </trkpt>
      <trkpt lat="48.93813" lon="0.76785">
        <ele>179</ele>
        <time>2019-08-15T08:19:21.695Z</time>
      </trkpt>
      <trkpt lat="48.93813" lon="0.76785">
        <ele>179</ele>
        <time>2019-08-15T08:19:22.685Z</time>
      </trkpt>
      <trkpt lat="48.9382" lon="0.76798">
        <ele>179</ele>
        <time>2019-08-15T08:19:23.687Z</time>
      </trkpt>
      <trkpt lat="48.9382" lon="0.76798">
        <ele>179</ele>
        <time>2019-08-15T08:19:24.686Z</time>
      </trkpt>
      <trkpt lat="48.93826" lon="0.76808">
        <ele>180</ele>
        <time>2019-08-15T08:19:25.689Z</time>
      </trkpt>
      <trkpt lat="48.93829" lon="0.76813">
        <ele>180</ele>
        <time>2019-08-15T08:19:26.689Z</time>
      </trkpt>
      <trkpt lat="48.93832" lon="0.76819">
        <ele>180</ele>
        <time>2019-08-15T08:19:27.696Z</time>
      </trkpt>
      <trkpt lat="48.93832" lon="0.76819">
        <ele>180</ele>
        <time>2019-08-15T08:19:28.688Z</time>
      </trkpt>
      <trkpt lat="48.9384" lon="0.76831">
        <ele>180</ele>
        <time>2019-08-15T08:19:29.687Z</time>
      </trkpt>
      <trkpt lat="48.9384" lon="0.76831">
        <ele>180</ele>
        <time>2019-08-15T08:19:30.686Z</time>
      </trkpt>
      <trkpt lat="48.93846" lon="0.76841">
        <ele>180</ele>
        <time>2019-08-15T08:19:31.691Z</time>
      </trkpt>
      <trkpt lat="48.93846" lon="0.76841">
        <ele>180</ele>
        <time>2019-08-15T08:19:32.684Z</time>
      </trkpt>
      <trkpt lat="48.93852" lon="0.76854">
        <ele>181</ele>
        <time>2019-08-15T08:19:33.691Z</time>
      </trkpt>
      <trkpt lat="48.93852" lon="0.76854">
        <ele>181</ele>
        <time>2019-08-15T08:19:34.688Z</time>
      </trkpt>
      <trkpt lat="48.93859" lon="0.76867">
        <ele>181</ele>
        <time>2019-08-15T08:19:35.696Z</time>
      </trkpt>
      <trkpt lat="48.93859" lon="0.76867">
        <ele>181</ele>
        <time>2019-08-15T08:19:36.684Z</time>
      </trkpt>
      <trkpt lat="48.93866" lon="0.7688">
        <ele>181</ele>
        <time>2019-08-15T08:19:37.688Z</time>
      </trkpt>
      <trkpt lat="48.93866" lon="0.7688">
        <ele>181</ele>
        <time>2019-08-15T08:19:38.687Z</time>
      </trkpt>
      <trkpt lat="48.93872" lon="0.76891">
        <ele>181</ele>
        <time>2019-08-15T08:19:39.700Z</time>
      </trkpt>
      <trkpt lat="48.93872" lon="0.76891">
        <ele>181</ele>
        <time>2019-08-15T08:19:40.688Z</time>
      </trkpt>
      <trkpt lat="48.93878" lon="0.769">
        <ele>181</ele>
        <time>2019-08-15T08:19:41.694Z</time>
      </trkpt>
      <trkpt lat="48.93878" lon="0.769">
        <ele>181</ele>
        <time>2019-08-15T08:19:42.685Z</time>
      </trkpt>
      <trkpt lat="48.93884" lon="0.76909">
        <ele>182</ele>
        <time>2019-08-15T08:19:43.689Z</time>
      </trkpt>
      <trkpt lat="48.93884" lon="0.76909">
        <ele>182</ele>
        <time>2019-08-15T08:19:44.686Z</time>
      </trkpt>
      <trkpt lat="48.93891" lon="0.76919">
        <ele>182</ele>
        <time>2019-08-15T08:19:45.696Z</time>
      </trkpt>
      <trkpt lat="48.93891" lon="0.76919">
        <ele>182</ele>
        <time>2019-08-15T08:19:46.685Z</time>
      </trkpt>
      <trkpt lat="48.93898" lon="0.76929">
        <ele>182</ele>
        <time>2019-08-15T08:19:47.691Z</time>
      </trkpt>
      <trkpt lat="48.93898" lon="0.76929">
        <ele>182</ele>
        <time>2019-08-15T08:19:48.688Z</time>
      </trkpt>
      <trkpt lat="48.93904" lon="0.7694">
        <ele>182</ele>
        <time>2019-08-15T08:19:49.690Z</time>
      </trkpt>
      <trkpt lat="48.93904" lon="0.7694">
        <ele>182</ele>
        <time>2019-08-15T08:19:50.687Z</time>
      </trkpt>
      <trkpt lat="48.9391" lon="0.76951">
        <ele>182</ele>
        <time>2019-08-15T08:19:51.709Z</time>
      </trkpt>
      <trkpt lat="48.9391" lon="0.76951">
        <ele>182</ele>
        <time>2019-08-15T08:19:52.695Z</time>
      </trkpt>
      <trkpt lat="48.93917" lon="0.76963">
        <ele>182</ele>
        <time>2019-08-15T08:19:53.687Z</time>
      </trkpt>
      <trkpt lat="48.93917" lon="0.76963">
        <ele>182</ele>
        <time>2019-08-15T08:19:54.688Z</time>
      </trkpt>
      <trkpt lat="48.93924" lon="0.76973">
        <ele>183</ele>
        <time>2019-08-15T08:19:55.697Z</time>
      </trkpt>
      <trkpt lat="48.93927" lon="0.76979">
        <ele>183</ele>
        <time>2019-08-15T08:19:56.690Z</time>
      </trkpt>
      <trkpt lat="48.93931" lon="0.76986">
        <ele>183</ele>
        <time>2019-08-15T08:19:57.691Z</time>
      </trkpt>
      <trkpt lat="48.93931" lon="0.76986">
        <ele>183</ele>
        <time>2019-08-15T08:19:58.686Z</time>
      </trkpt>
      <trkpt lat="48.93939" lon="0.76999">
        <ele>183</ele>
        <time>2019-08-15T08:19:59.690Z</time>
      </trkpt>
      <trkpt lat="48.93943" lon="0.77006">
        <ele>183</ele>
        <time>2019-08-15T08:20:00.687Z</time>
      </trkpt>
      <trkpt lat="48.93943" lon="0.77006">
        <ele>183</ele>
        <time>2019-08-15T08:20:01.689Z</time>
      </trkpt>
      <trkpt lat="48.93951" lon="0.7702">
        <ele>184</ele>
        <time>2019-08-15T08:20:02.706Z</time>
      </trkpt>
      <trkpt lat="48.93954" lon="0.77028">
        <ele>184</ele>
        <time>2019-08-15T08:20:03.681Z</time>
      </trkpt>
      <trkpt lat="48.93954" lon="0.77028">
        <ele>184</ele>
        <time>2019-08-15T08:20:04.685Z</time>
      </trkpt>
      <trkpt lat="48.9396" lon="0.7704">
        <ele>184</ele>
        <time>2019-08-15T08:20:05.691Z</time>
      </trkpt>
      <trkpt lat="48.9396" lon="0.7704">
        <ele>184</ele>
        <time>2019-08-15T08:20:06.687Z</time>
      </trkpt>
      <trkpt lat="48.93965" lon="0.77049">
        <ele>186</ele>
        <time>2019-08-15T08:20:07.689Z</time>
      </trkpt>
      <trkpt lat="48.93968" lon="0.77055">
        <ele>186</ele>
        <time>2019-08-15T08:20:08.690Z</time>
      </trkpt>
      <trkpt lat="48.93972" lon="0.77061">
        <ele>186</ele>
        <time>2019-08-15T08:20:09.696Z</time>
      </trkpt>
      <trkpt lat="48.93972" lon="0.77061">
        <ele>186</ele>
        <time>2019-08-15T08:20:10.688Z</time>
      </trkpt>
      <trkpt lat="48.93979" lon="0.77073">
        <ele>187</ele>
        <time>2019-08-15T08:20:11.689Z</time>
      </trkpt>
      <trkpt lat="48.93979" lon="0.77073">
        <ele>187</ele>
        <time>2019-08-15T08:20:12.689Z</time>
      </trkpt>
      <trkpt lat="48.93987" lon="0.77088">
        <ele>188</ele>
        <time>2019-08-15T08:20:13.689Z</time>
      </trkpt>
      <trkpt lat="48.9399" lon="0.77094">
        <ele>188</ele>
        <time>2019-08-15T08:20:14.689Z</time>
      </trkpt>
      <trkpt lat="48.9399" lon="0.77094">
        <ele>188</ele>
        <time>2019-08-15T08:20:15.689Z</time>
      </trkpt>
      <trkpt lat="48.93997" lon="0.77105">
        <ele>188</ele>
        <time>2019-08-15T08:20:16.690Z</time>
      </trkpt>
      <trkpt lat="48.94002" lon="0.77112">
        <ele>189</ele>
        <time>2019-08-15T08:20:17.690Z</time>
      </trkpt>
      <trkpt lat="48.94002" lon="0.77112">
        <ele>189</ele>
        <time>2019-08-15T08:20:18.684Z</time>
      </trkpt>
      <trkpt lat="48.94009" lon="0.77123">
        <ele>189</ele>
        <time>2019-08-15T08:20:19.689Z</time>
      </trkpt>
      <trkpt lat="48.94009" lon="0.77123">
        <ele>189</ele>
        <time>2019-08-15T08:20:20.687Z</time>
      </trkpt>
      <trkpt lat="48.94016" lon="0.77134">
        <ele>190</ele>
        <time>2019-08-15T08:20:21.697Z</time>
      </trkpt>
      <trkpt lat="48.94016" lon="0.77134">
        <ele>190</ele>
        <time>2019-08-15T08:20:22.710Z</time>
      </trkpt>
      <trkpt lat="48.94025" lon="0.77146">
        <ele>190</ele>
        <time>2019-08-15T08:20:23.696Z</time>
      </trkpt>
      <trkpt lat="48.94025" lon="0.77146">
        <ele>190</ele>
        <time>2019-08-15T08:20:24.687Z</time>
      </trkpt>
      <trkpt lat="48.94031" lon="0.77158">
        <ele>191</ele>
        <time>2019-08-15T08:20:25.689Z</time>
      </trkpt>
      <trkpt lat="48.94035" lon="0.77165">
        <ele>191</ele>
        <time>2019-08-15T08:20:26.690Z</time>
      </trkpt>
      <trkpt lat="48.94038" lon="0.77171">
        <ele>191</ele>
        <time>2019-08-15T08:20:27.696Z</time>
      </trkpt>
      <trkpt lat="48.94038" lon="0.77171">
        <ele>191</ele>
        <time>2019-08-15T08:20:28.688Z</time>
      </trkpt>
      <trkpt lat="48.94046" lon="0.77184">
        <ele>191</ele>
        <time>2019-08-15T08:20:29.693Z</time>
      </trkpt>
      <trkpt lat="48.94046" lon="0.77184">
        <ele>191</ele>
        <time>2019-08-15T08:20:30.685Z</time>
      </trkpt>
      <trkpt lat="48.94053" lon="0.77196">
        <ele>192</ele>
        <time>2019-08-15T08:20:31.688Z</time>
      </trkpt>
      <trkpt lat="48.94056" lon="0.77202">
        <ele>192</ele>
        <time>2019-08-15T08:20:32.687Z</time>
      </trkpt>
      <trkpt lat="48.94056" lon="0.77202">
        <ele>192</ele>
        <time>2019-08-15T08:20:33.690Z</time>
      </trkpt>
      <trkpt lat="48.94064" lon="0.77214">
        <ele>193</ele>
        <time>2019-08-15T08:20:34.689Z</time>
      </trkpt>
      <trkpt lat="48.94068" lon="0.7722">
        <ele>193</ele>
        <time>2019-08-15T08:20:35.688Z</time>
      </trkpt>
      <trkpt lat="48.94068" lon="0.7722">
        <ele>193</ele>
        <time>2019-08-15T08:20:36.687Z</time>
      </trkpt>
      <trkpt lat="48.94075" lon="0.77233">
        <ele>193</ele>
        <time>2019-08-15T08:20:37.690Z</time>
      </trkpt>
      <trkpt lat="48.94075" lon="0.77233">
        <ele>193</ele>
        <time>2019-08-15T08:20:38.685Z</time>
      </trkpt>
      <trkpt lat="48.94082" lon="0.77244">
        <ele>193</ele>
        <time>2019-08-15T08:20:39.692Z</time>
      </trkpt>
      <trkpt lat="48.94082" lon="0.77244">
        <ele>193</ele>
        <time>2019-08-15T08:20:40.686Z</time>
      </trkpt>
      <trkpt lat="48.9409" lon="0.77255">
        <ele>193</ele>
        <time>2019-08-15T08:20:41.687Z</time>
      </trkpt>
      <trkpt lat="48.9409" lon="0.77255">
        <ele>193</ele>
        <time>2019-08-15T08:20:42.686Z</time>
      </trkpt>
      <trkpt lat="48.94097" lon="0.77268">
        <ele>194</ele>
        <time>2019-08-15T08:20:43.690Z</time>
      </trkpt>
      <trkpt lat="48.94097" lon="0.77268">
        <ele>194</ele>
        <time>2019-08-15T08:20:44.687Z</time>
      </trkpt>
      <trkpt lat="48.94107" lon="0.77278">
        <ele>194</ele>
        <time>2019-08-15T08:20:45.696Z</time>
      </trkpt>
      <trkpt lat="48.94107" lon="0.77278">
        <ele>194</ele>
        <time>2019-08-15T08:20:46.687Z</time>
      </trkpt>
      <trkpt lat="48.94116" lon="0.77288">
        <ele>194</ele>
        <time>2019-08-15T08:20:47.687Z</time>
      </trkpt>
      <trkpt lat="48.94116" lon="0.77288">
        <ele>194</ele>
        <time>2019-08-15T08:20:48.687Z</time>
      </trkpt>
      <trkpt lat="48.94124" lon="0.77298">
        <ele>194</ele>
        <time>2019-08-15T08:20:49.690Z</time>
      </trkpt>
      <trkpt lat="48.94129" lon="0.77303">
        <ele>194</ele>
        <time>2019-08-15T08:20:50.681Z</time>
      </trkpt>
      <trkpt lat="48.94129" lon="0.77303">
        <ele>194</ele>
        <time>2019-08-15T08:20:51.705Z</time>
      </trkpt>
      <trkpt lat="48.94137" lon="0.77313">
        <ele>194</ele>
        <time>2019-08-15T08:20:52.695Z</time>
      </trkpt>
      <trkpt lat="48.94141" lon="0.77318">
        <ele>194</ele>
        <time>2019-08-15T08:20:53.691Z</time>
      </trkpt>
      <trkpt lat="48.94141" lon="0.77318">
        <ele>194</ele>
        <time>2019-08-15T08:20:54.688Z</time>
      </trkpt>
      <trkpt lat="48.9415" lon="0.77327">
        <ele>194</ele>
        <time>2019-08-15T08:20:55.689Z</time>
      </trkpt>
      <trkpt lat="48.94154" lon="0.77331">
        <ele>194</ele>
        <time>2019-08-15T08:20:56.689Z</time>
      </trkpt>
      <trkpt lat="48.94158" lon="0.77335">
        <ele>194</ele>
        <time>2019-08-15T08:20:57.696Z</time>
      </trkpt>
      <trkpt lat="48.94162" lon="0.7734">
        <ele>194</ele>
        <time>2019-08-15T08:20:58.696Z</time>
      </trkpt>
      <trkpt lat="48.94162" lon="0.7734">
        <ele>194</ele>
        <time>2019-08-15T08:20:59.687Z</time>
      </trkpt>
      <trkpt lat="48.94171" lon="0.77349">
        <ele>194</ele>
        <time>2019-08-15T08:21:00.689Z</time>
      </trkpt>
      <trkpt lat="48.94171" lon="0.77349">
        <ele>194</ele>
        <time>2019-08-15T08:21:01.687Z</time>
      </trkpt>
      <trkpt lat="48.94178" lon="0.77357">
        <ele>194</ele>
        <time>2019-08-15T08:21:02.696Z</time>
      </trkpt>
      <trkpt lat="48.94183" lon="0.77361">
        <ele>194</ele>
        <time>2019-08-15T08:21:03.690Z</time>
      </trkpt>
      <trkpt lat="48.94183" lon="0.77361">
        <ele>194</ele>
        <time>2019-08-15T08:21:04.687Z</time>
      </trkpt>
      <trkpt lat="48.94191" lon="0.77368">
        <ele>194</ele>
        <time>2019-08-15T08:21:05.688Z</time>
      </trkpt>
      <trkpt lat="48.94195" lon="0.77372">
        <ele>194</ele>
        <time>2019-08-15T08:21:06.687Z</time>
      </trkpt>
      <trkpt lat="48.94195" lon="0.77372">
        <ele>194</ele>
        <time>2019-08-15T08:21:07.684Z</time>
      </trkpt>
      <trkpt lat="48.94203" lon="0.7738">
        <ele>194</ele>
        <time>2019-08-15T08:21:08.689Z</time>
      </trkpt>
      <trkpt lat="48.94208" lon="0.77385">
        <ele>194</ele>
        <time>2019-08-15T08:21:09.691Z</time>
      </trkpt>
      <trkpt lat="48.94208" lon="0.77385">
        <ele>194</ele>
        <time>2019-08-15T08:21:10.688Z</time>
      </trkpt>
      <trkpt lat="48.94217" lon="0.77394">
        <ele>194</ele>
        <time>2019-08-15T08:21:11.691Z</time>
      </trkpt>
      <trkpt lat="48.94217" lon="0.77394">
        <ele>194</ele>
        <time>2019-08-15T08:21:12.690Z</time>
      </trkpt>
      <trkpt lat="48.94227" lon="0.77405">
        <ele>194</ele>
        <time>2019-08-15T08:21:13.689Z</time>
      </trkpt>
      <trkpt lat="48.94231" lon="0.77409">
        <ele>194</ele>
        <time>2019-08-15T08:21:14.702Z</time>
      </trkpt>
      <trkpt lat="48.94231" lon="0.77409">
        <ele>194</ele>
        <time>2019-08-15T08:21:15.689Z</time>
      </trkpt>
      <trkpt lat="48.9424" lon="0.77418">
        <ele>194</ele>
        <time>2019-08-15T08:21:16.691Z</time>
      </trkpt>
      <trkpt lat="48.94245" lon="0.77422">
        <ele>194</ele>
        <time>2019-08-15T08:21:17.690Z</time>
      </trkpt>
      <trkpt lat="48.94245" lon="0.77422">
        <ele>194</ele>
        <time>2019-08-15T08:21:18.689Z</time>
      </trkpt>
      <trkpt lat="48.94253" lon="0.77431">
        <ele>194</ele>
        <time>2019-08-15T08:21:19.690Z</time>
      </trkpt>
      <trkpt lat="48.94253" lon="0.77431">
        <ele>194</ele>
        <time>2019-08-15T08:21:20.686Z</time>
      </trkpt>
      <trkpt lat="48.94262" lon="0.7744">
        <ele>194</ele>
        <time>2019-08-15T08:21:21.696Z</time>
      </trkpt>
      <trkpt lat="48.94262" lon="0.7744">
        <ele>194</ele>
        <time>2019-08-15T08:21:22.694Z</time>
      </trkpt>
      <trkpt lat="48.9427" lon="0.77449">
        <ele>194</ele>
        <time>2019-08-15T08:21:23.687Z</time>
      </trkpt>
      <trkpt lat="48.9427" lon="0.77449">
        <ele>194</ele>
        <time>2019-08-15T08:21:24.687Z</time>
      </trkpt>
      <trkpt lat="48.94279" lon="0.77458">
        <ele>194</ele>
        <time>2019-08-15T08:21:25.690Z</time>
      </trkpt>
      <trkpt lat="48.94279" lon="0.77458">
        <ele>194</ele>
        <time>2019-08-15T08:21:26.686Z</time>
      </trkpt>
      <trkpt lat="48.94288" lon="0.77467">
        <ele>194</ele>
        <time>2019-08-15T08:21:27.689Z</time>
      </trkpt>
      <trkpt lat="48.94288" lon="0.77467">
        <ele>194</ele>
        <time>2019-08-15T08:21:28.686Z</time>
      </trkpt>
      <trkpt lat="48.94294" lon="0.77476">
        <ele>193</ele>
        <time>2019-08-15T08:21:29.687Z</time>
      </trkpt>
      <trkpt lat="48.94294" lon="0.77476">
        <ele>193</ele>
        <time>2019-08-15T08:21:30.684Z</time>
      </trkpt>
      <trkpt lat="48.94302" lon="0.77485">
        <ele>193</ele>
        <time>2019-08-15T08:21:31.691Z</time>
      </trkpt>
      <trkpt lat="48.94302" lon="0.77485">
        <ele>193</ele>
        <time>2019-08-15T08:21:32.694Z</time>
      </trkpt>
      <trkpt lat="48.94312" lon="0.77494">
        <ele>193</ele>
        <time>2019-08-15T08:21:33.696Z</time>
      </trkpt>
      <trkpt lat="48.94312" lon="0.77494">
        <ele>193</ele>
        <time>2019-08-15T08:21:34.681Z</time>
      </trkpt>
      <trkpt lat="48.94322" lon="0.77503">
        <ele>193</ele>
        <time>2019-08-15T08:21:35.695Z</time>
      </trkpt>
      <trkpt lat="48.94322" lon="0.77503">
        <ele>193</ele>
        <time>2019-08-15T08:21:36.687Z</time>
      </trkpt>
      <trkpt lat="48.94329" lon="0.77512">
        <ele>193</ele>
        <time>2019-08-15T08:21:37.689Z</time>
      </trkpt>
      <trkpt lat="48.94332" lon="0.77515">
        <ele>193</ele>
        <time>2019-08-15T08:21:38.689Z</time>
      </trkpt>
      <trkpt lat="48.94336" lon="0.7752">
        <ele>193</ele>
        <time>2019-08-15T08:21:39.703Z</time>
      </trkpt>
      <trkpt lat="48.94336" lon="0.7752">
        <ele>193</ele>
        <time>2019-08-15T08:21:40.687Z</time>
      </trkpt>
      <trkpt lat="48.94345" lon="0.7753">
        <ele>193</ele>
        <time>2019-08-15T08:21:41.687Z</time>
      </trkpt>
      <trkpt lat="48.94345" lon="0.7753">
        <ele>193</ele>
        <time>2019-08-15T08:21:42.689Z</time>
      </trkpt>
      <trkpt lat="48.94355" lon="0.7754">
        <ele>192</ele>
        <time>2019-08-15T08:21:43.689Z</time>
      </trkpt>
      <trkpt lat="48.9436" lon="0.77545">
        <ele>192</ele>
        <time>2019-08-15T08:21:44.686Z</time>
      </trkpt>
      <trkpt lat="48.94365" lon="0.7755">
        <ele>192</ele>
        <time>2019-08-15T08:21:45.696Z</time>
      </trkpt>
      <trkpt lat="48.94365" lon="0.7755">
        <ele>192</ele>
        <time>2019-08-15T08:21:46.688Z</time>
      </trkpt>
      <trkpt lat="48.94374" lon="0.77559">
        <ele>192</ele>
        <time>2019-08-15T08:21:47.690Z</time>
      </trkpt>
      <trkpt lat="48.94374" lon="0.77559">
        <ele>192</ele>
        <time>2019-08-15T08:21:48.684Z</time>
      </trkpt>
      <trkpt lat="48.94384" lon="0.7757">
        <ele>192</ele>
        <time>2019-08-15T08:21:49.691Z</time>
      </trkpt>
      <trkpt lat="48.94384" lon="0.7757">
        <ele>192</ele>
        <time>2019-08-15T08:21:50.684Z</time>
      </trkpt>
      <trkpt lat="48.94394" lon="0.77581">
        <ele>191</ele>
        <time>2019-08-15T08:21:51.706Z</time>
      </trkpt>
      <trkpt lat="48.94394" lon="0.77581">
        <ele>191</ele>
        <time>2019-08-15T08:21:52.693Z</time>
      </trkpt>
      <trkpt lat="48.94405" lon="0.77592">
        <ele>191</ele>
        <time>2019-08-15T08:21:53.691Z</time>
      </trkpt>
      <trkpt lat="48.94405" lon="0.77592">
        <ele>191</ele>
        <time>2019-08-15T08:21:54.689Z</time>
      </trkpt>
      <trkpt lat="48.94415" lon="0.77601">
        <ele>191</ele>
        <time>2019-08-15T08:21:55.690Z</time>
      </trkpt>
      <trkpt lat="48.9442" lon="0.77606">
        <ele>191</ele>
        <time>2019-08-15T08:21:56.689Z</time>
      </trkpt>
      <trkpt lat="48.94425" lon="0.77611">
        <ele>191</ele>
        <time>2019-08-15T08:21:57.696Z</time>
      </trkpt>
      <trkpt lat="48.94425" lon="0.77611">
        <ele>191</ele>
        <time>2019-08-15T08:21:58.687Z</time>
      </trkpt>
      <trkpt lat="48.94433" lon="0.77621">
        <ele>191</ele>
        <time>2019-08-15T08:21:59.695Z</time>
      </trkpt>
      <trkpt lat="48.94433" lon="0.77621">
        <ele>191</ele>
        <time>2019-08-15T08:22:00.687Z</time>
      </trkpt>
      <trkpt lat="48.94442" lon="0.77629">
        <ele>190</ele>
        <time>2019-08-15T08:22:01.688Z</time>
      </trkpt>
      <trkpt lat="48.94446" lon="0.77633">
        <ele>190</ele>
        <time>2019-08-15T08:22:02.689Z</time>
      </trkpt>
      <trkpt lat="48.94446" lon="0.77633">
        <ele>190</ele>
        <time>2019-08-15T08:22:03.707Z</time>
      </trkpt>
      <trkpt lat="48.94457" lon="0.77642">
        <ele>189</ele>
        <time>2019-08-15T08:22:04.690Z</time>
      </trkpt>
      <trkpt lat="48.94463" lon="0.77647">
        <ele>189</ele>
        <time>2019-08-15T08:22:05.696Z</time>
      </trkpt>
      <trkpt lat="48.94463" lon="0.77647">
        <ele>189</ele>
        <time>2019-08-15T08:22:06.685Z</time>
      </trkpt>
      <trkpt lat="48.94475" lon="0.77655">
        <ele>188</ele>
        <time>2019-08-15T08:22:07.690Z</time>
      </trkpt>
      <trkpt lat="48.94475" lon="0.77655">
        <ele>188</ele>
        <time>2019-08-15T08:22:08.686Z</time>
      </trkpt>
      <trkpt lat="48.94485" lon="0.77664">
        <ele>188</ele>
        <time>2019-08-15T08:22:09.695Z</time>
      </trkpt>
      <trkpt lat="48.94485" lon="0.77664">
        <ele>188</ele>
        <time>2019-08-15T08:22:10.684Z</time>
      </trkpt>
      <trkpt lat="48.94494" lon="0.77674">
        <ele>187</ele>
        <time>2019-08-15T08:22:11.691Z</time>
      </trkpt>
      <trkpt lat="48.94494" lon="0.77674">
        <ele>187</ele>
        <time>2019-08-15T08:22:12.688Z</time>
      </trkpt>
      <trkpt lat="48.94504" lon="0.77681">
        <ele>186</ele>
        <time>2019-08-15T08:22:13.691Z</time>
      </trkpt>
      <trkpt lat="48.94504" lon="0.77681">
        <ele>186</ele>
        <time>2019-08-15T08:22:14.688Z</time>
      </trkpt>
      <trkpt lat="48.94513" lon="0.77687">
        <ele>185</ele>
        <time>2019-08-15T08:22:15.712Z</time>
      </trkpt>
      <trkpt lat="48.94513" lon="0.77687">
        <ele>185</ele>
        <time>2019-08-15T08:22:16.710Z</time>
      </trkpt>
      <trkpt lat="48.9452" lon="0.77692">
        <ele>185</ele>
        <time>2019-08-15T08:22:17.695Z</time>
      </trkpt>
      <trkpt lat="48.9452" lon="0.77692">
        <ele>185</ele>
        <time>2019-08-15T08:22:18.687Z</time>
      </trkpt>
      <trkpt lat="48.94529" lon="0.77697">
        <ele>184</ele>
        <time>2019-08-15T08:22:19.690Z</time>
      </trkpt>
      <trkpt lat="48.94529" lon="0.77697">
        <ele>184</ele>
        <time>2019-08-15T08:22:20.680Z</time>
      </trkpt>
      <trkpt lat="48.94537" lon="0.77703">
        <ele>184</ele>
        <time>2019-08-15T08:22:21.704Z</time>
      </trkpt>
      <trkpt lat="48.94537" lon="0.77703">
        <ele>184</ele>
        <time>2019-08-15T08:22:22.688Z</time>
      </trkpt>
      <trkpt lat="48.94547" lon="0.7771">
        <ele>183</ele>
        <time>2019-08-15T08:22:23.690Z</time>
      </trkpt>
      <trkpt lat="48.94553" lon="0.77714">
        <ele>183</ele>
        <time>2019-08-15T08:22:24.691Z</time>
      </trkpt>
      <trkpt lat="48.94558" lon="0.77718">
        <ele>182</ele>
        <time>2019-08-15T08:22:25.697Z</time>
      </trkpt>
      <trkpt lat="48.94558" lon="0.77718">
        <ele>182</ele>
        <time>2019-08-15T08:22:26.687Z</time>
      </trkpt>
      <trkpt lat="48.94568" lon="0.77726">
        <ele>182</ele>
        <time>2019-08-15T08:22:27.696Z</time>
      </trkpt>
      <trkpt lat="48.94573" lon="0.77729">
        <ele>181</ele>
        <time>2019-08-15T08:22:28.688Z</time>
      </trkpt>
      <trkpt lat="48.94573" lon="0.77729">
        <ele>181</ele>
        <time>2019-08-15T08:22:29.687Z</time>
      </trkpt>
      <trkpt lat="48.94584" lon="0.77736">
        <ele>181</ele>
        <time>2019-08-15T08:22:30.709Z</time>
      </trkpt>
      <trkpt lat="48.94589" lon="0.77739">
        <ele>181</ele>
        <time>2019-08-15T08:22:31.697Z</time>
      </trkpt>
      <trkpt lat="48.94594" lon="0.77742">
        <ele>180</ele>
        <time>2019-08-15T08:22:32.695Z</time>
      </trkpt>
      <trkpt lat="48.94594" lon="0.77742">
        <ele>180</ele>
        <time>2019-08-15T08:22:33.690Z</time>
      </trkpt>
      <trkpt lat="48.94604" lon="0.77748">
        <ele>180</ele>
        <time>2019-08-15T08:22:34.691Z</time>
      </trkpt>
      <trkpt lat="48.94604" lon="0.77748">
        <ele>180</ele>
        <time>2019-08-15T08:22:35.688Z</time>
      </trkpt>
      <trkpt lat="48.94615" lon="0.77752">
        <ele>179</ele>
        <time>2019-08-15T08:22:36.690Z</time>
      </trkpt>
      <trkpt lat="48.94615" lon="0.77752">
        <ele>179</ele>
        <time>2019-08-15T08:22:37.686Z</time>
      </trkpt>
      <trkpt lat="48.94625" lon="0.77756">
        <ele>179</ele>
        <time>2019-08-15T08:22:38.689Z</time>
      </trkpt>
      <trkpt lat="48.94625" lon="0.77756">
        <ele>179</ele>
        <time>2019-08-15T08:22:39.688Z</time>
      </trkpt>
      <trkpt lat="48.94635" lon="0.77759">
        <ele>178</ele>
        <time>2019-08-15T08:22:40.690Z</time>
      </trkpt>
      <trkpt lat="48.9464" lon="0.7776">
        <ele>178</ele>
        <time>2019-08-15T08:22:41.690Z</time>
      </trkpt>
      <trkpt lat="48.9464" lon="0.7776">
        <ele>178</ele>
        <time>2019-08-15T08:22:42.687Z</time>
      </trkpt>
      <trkpt lat="48.9465" lon="0.77761">
        <ele>177</ele>
        <time>2019-08-15T08:22:43.683Z</time>
      </trkpt>
      <trkpt lat="48.94655" lon="0.77762">
        <ele>177</ele>
        <time>2019-08-15T08:22:44.689Z</time>
      </trkpt>
      <trkpt lat="48.94661" lon="0.77763">
        <ele>178</ele>
        <time>2019-08-15T08:22:45.695Z</time>
      </trkpt>
      <trkpt lat="48.94661" lon="0.77763">
        <ele>178</ele>
        <time>2019-08-15T08:22:46.688Z</time>
      </trkpt>
      <trkpt lat="48.94671" lon="0.77764">
        <ele>177</ele>
        <time>2019-08-15T08:22:47.695Z</time>
      </trkpt>
      <trkpt lat="48.94671" lon="0.77764">
        <ele>177</ele>
        <time>2019-08-15T08:22:48.685Z</time>
      </trkpt>
      <trkpt lat="48.94681" lon="0.77766">
        <ele>177</ele>
        <time>2019-08-15T08:22:49.689Z</time>
      </trkpt>
      <trkpt lat="48.94681" lon="0.77766">
        <ele>177</ele>
        <time>2019-08-15T08:22:50.686Z</time>
      </trkpt>
      <trkpt lat="48.94691" lon="0.77767">
        <ele>177</ele>
        <time>2019-08-15T08:22:51.707Z</time>
      </trkpt>
      <trkpt lat="48.94691" lon="0.77767">
        <ele>177</ele>
        <time>2019-08-15T08:22:52.690Z</time>
      </trkpt>
      <trkpt lat="48.94701" lon="0.77767">
        <ele>176</ele>
        <time>2019-08-15T08:22:53.696Z</time>
      </trkpt>
      <trkpt lat="48.94701" lon="0.77767">
        <ele>176</ele>
        <time>2019-08-15T08:22:54.688Z</time>
      </trkpt>
      <trkpt lat="48.94712" lon="0.7777">
        <ele>175</ele>
        <time>2019-08-15T08:22:55.691Z</time>
      </trkpt>
      <trkpt lat="48.94712" lon="0.7777">
        <ele>175</ele>
        <time>2019-08-15T08:22:56.687Z</time>
      </trkpt>
      <trkpt lat="48.94724" lon="0.77773">
        <ele>174</ele>
        <time>2019-08-15T08:22:57.696Z</time>
      </trkpt>
      <trkpt lat="48.9473" lon="0.77775">
        <ele>174</ele>
        <time>2019-08-15T08:22:58.687Z</time>
      </trkpt>
      <trkpt lat="48.94735" lon="0.77777">
        <ele>172</ele>
        <time>2019-08-15T08:22:59.687Z</time>
      </trkpt>
      <trkpt lat="48.94735" lon="0.77777">
        <ele>172</ele>
        <time>2019-08-15T08:23:00.688Z</time>
      </trkpt>
      <trkpt lat="48.94746" lon="0.77779">
        <ele>172</ele>
        <time>2019-08-15T08:23:01.688Z</time>
      </trkpt>
      <trkpt lat="48.94746" lon="0.77779">
        <ele>172</ele>
        <time>2019-08-15T08:23:02.685Z</time>
      </trkpt>
      <trkpt lat="48.94756" lon="0.77781">
        <ele>172</ele>
        <time>2019-08-15T08:23:03.696Z</time>
      </trkpt>
      <trkpt lat="48.94756" lon="0.77781">
        <ele>172</ele>
        <time>2019-08-15T08:23:04.687Z</time>
      </trkpt>
      <trkpt lat="48.94767" lon="0.77784">
        <ele>172</ele>
        <time>2019-08-15T08:23:05.696Z</time>
      </trkpt>
      <trkpt lat="48.94767" lon="0.77784">
        <ele>172</ele>
        <time>2019-08-15T08:23:06.687Z</time>
      </trkpt>
      <trkpt lat="48.94779" lon="0.77786">
        <ele>172</ele>
        <time>2019-08-15T08:23:07.690Z</time>
      </trkpt>
      <trkpt lat="48.94779" lon="0.77786">
        <ele>172</ele>
        <time>2019-08-15T08:23:08.688Z</time>
      </trkpt>
      <trkpt lat="48.9479" lon="0.77788">
        <ele>172</ele>
        <time>2019-08-15T08:23:09.696Z</time>
      </trkpt>
      <trkpt lat="48.9479" lon="0.77788">
        <ele>172</ele>
        <time>2019-08-15T08:23:10.685Z</time>
      </trkpt>
      <trkpt lat="48.94802" lon="0.77791">
        <ele>172</ele>
        <time>2019-08-15T08:23:11.689Z</time>
      </trkpt>
      <trkpt lat="48.94802" lon="0.77791">
        <ele>172</ele>
        <time>2019-08-15T08:23:12.687Z</time>
      </trkpt>
      <trkpt lat="48.94814" lon="0.77795">
        <ele>173</ele>
        <time>2019-08-15T08:23:13.691Z</time>
      </trkpt>
      <trkpt lat="48.94814" lon="0.77795">
        <ele>173</ele>
        <time>2019-08-15T08:23:14.685Z</time>
      </trkpt>
      <trkpt lat="48.94827" lon="0.77798">
        <ele>175</ele>
        <time>2019-08-15T08:23:15.711Z</time>
      </trkpt>
      <trkpt lat="48.94827" lon="0.77798">
        <ele>175</ele>
        <time>2019-08-15T08:23:16.695Z</time>
      </trkpt>
      <trkpt lat="48.94838" lon="0.77801">
        <ele>176</ele>
        <time>2019-08-15T08:23:17.690Z</time>
      </trkpt>
      <trkpt lat="48.94838" lon="0.77801">
        <ele>176</ele>
        <time>2019-08-15T08:23:18.684Z</time>
      </trkpt>
      <trkpt lat="48.9485" lon="0.77804">
        <ele>177</ele>
        <time>2019-08-15T08:23:19.688Z</time>
      </trkpt>
      <trkpt lat="48.9485" lon="0.77804">
        <ele>177</ele>
        <time>2019-08-15T08:23:20.700Z</time>
      </trkpt>
      <trkpt lat="48.94861" lon="0.77808">
        <ele>178</ele>
        <time>2019-08-15T08:23:21.695Z</time>
      </trkpt>
      <trkpt lat="48.94861" lon="0.77808">
        <ele>178</ele>
        <time>2019-08-15T08:23:22.687Z</time>
      </trkpt>
      <trkpt lat="48.94871" lon="0.7781">
        <ele>179</ele>
        <time>2019-08-15T08:23:23.694Z</time>
      </trkpt>
      <trkpt lat="48.94871" lon="0.7781">
        <ele>179</ele>
        <time>2019-08-15T08:23:24.688Z</time>
      </trkpt>
      <trkpt lat="48.94881" lon="0.77813">
        <ele>181</ele>
        <time>2019-08-15T08:23:25.688Z</time>
      </trkpt>
      <trkpt lat="48.94886" lon="0.77814">
        <ele>182</ele>
        <time>2019-08-15T08:23:26.688Z</time>
      </trkpt>
      <trkpt lat="48.94891" lon="0.77816">
        <ele>183</ele>
        <time>2019-08-15T08:23:27.696Z</time>
      </trkpt>
      <trkpt lat="48.94891" lon="0.77816">
        <ele>183</ele>
        <time>2019-08-15T08:23:28.685Z</time>
      </trkpt>
      <trkpt lat="48.94901" lon="0.77818">
        <ele>184</ele>
        <time>2019-08-15T08:23:29.688Z</time>
      </trkpt>
      <trkpt lat="48.94901" lon="0.77818">
        <ele>184</ele>
        <time>2019-08-15T08:23:30.688Z</time>
      </trkpt>
      <trkpt lat="48.94912" lon="0.77819">
        <ele>185</ele>
        <time>2019-08-15T08:23:31.689Z</time>
      </trkpt>
      <trkpt lat="48.94917" lon="0.7782">
        <ele>185</ele>
        <time>2019-08-15T08:23:32.690Z</time>
      </trkpt>
      <trkpt lat="48.94922" lon="0.77821">
        <ele>185</ele>
        <time>2019-08-15T08:23:33.691Z</time>
      </trkpt>
      <trkpt lat="48.94922" lon="0.77821">
        <ele>185</ele>
        <time>2019-08-15T08:23:34.687Z</time>
      </trkpt>
      <trkpt lat="48.94931" lon="0.77822">
        <ele>185</ele>
        <time>2019-08-15T08:23:35.695Z</time>
      </trkpt>
      <trkpt lat="48.94931" lon="0.77822">
        <ele>185</ele>
        <time>2019-08-15T08:23:36.685Z</time>
      </trkpt>
      <trkpt lat="48.9494" lon="0.77824">
        <ele>185</ele>
        <time>2019-08-15T08:23:37.697Z</time>
      </trkpt>
      <trkpt lat="48.9494" lon="0.77824">
        <ele>185</ele>
        <time>2019-08-15T08:23:38.687Z</time>
      </trkpt>
      <trkpt lat="48.94949" lon="0.77827">
        <ele>184</ele>
        <time>2019-08-15T08:23:39.699Z</time>
      </trkpt>
      <trkpt lat="48.94949" lon="0.77827">
        <ele>184</ele>
        <time>2019-08-15T08:23:40.686Z</time>
      </trkpt>
      <trkpt lat="48.94957" lon="0.77827">
        <ele>184</ele>
        <time>2019-08-15T08:23:41.687Z</time>
      </trkpt>
      <trkpt lat="48.94957" lon="0.77827">
        <ele>184</ele>
        <time>2019-08-15T08:23:42.686Z</time>
      </trkpt>
      <trkpt lat="48.94965" lon="0.7782">
        <ele>184</ele>
        <time>2019-08-15T08:23:43.710Z</time>
      </trkpt>
      <trkpt lat="48.94965" lon="0.7782">
        <ele>184</ele>
        <time>2019-08-15T08:23:44.696Z</time>
      </trkpt>
      <trkpt lat="48.94971" lon="0.77809">
        <ele>184</ele>
        <time>2019-08-15T08:23:45.690Z</time>
      </trkpt>
      <trkpt lat="48.94971" lon="0.77809">
        <ele>184</ele>
        <time>2019-08-15T08:23:46.687Z</time>
      </trkpt>
      <trkpt lat="48.94977" lon="0.77796">
        <ele>183</ele>
        <time>2019-08-15T08:23:47.690Z</time>
      </trkpt>
      <trkpt lat="48.94977" lon="0.77796">
        <ele>183</ele>
        <time>2019-08-15T08:23:48.687Z</time>
      </trkpt>
      <trkpt lat="48.94982" lon="0.77784">
        <ele>183</ele>
        <time>2019-08-15T08:23:49.688Z</time>
      </trkpt>
      <trkpt lat="48.94982" lon="0.77784">
        <ele>183</ele>
        <time>2019-08-15T08:23:50.683Z</time>
      </trkpt>
      <trkpt lat="48.94986" lon="0.77773">
        <ele>183</ele>
        <time>2019-08-15T08:23:51.688Z</time>
      </trkpt>
      <trkpt lat="48.94986" lon="0.77773">
        <ele>183</ele>
        <time>2019-08-15T08:23:52.694Z</time>
      </trkpt>
      <trkpt lat="48.94991" lon="0.7776">
        <ele>183</ele>
        <time>2019-08-15T08:23:53.700Z</time>
      </trkpt>
      <trkpt lat="48.94993" lon="0.77754">
        <ele>183</ele>
        <time>2019-08-15T08:23:54.689Z</time>
      </trkpt>
      <trkpt lat="48.94993" lon="0.77754">
        <ele>183</ele>
        <time>2019-08-15T08:23:55.686Z</time>
      </trkpt>
      <trkpt lat="48.94998" lon="0.77741">
        <ele>182</ele>
        <time>2019-08-15T08:23:56.703Z</time>
      </trkpt>
      <trkpt lat="48.95" lon="0.77734">
        <ele>182</ele>
        <time>2019-08-15T08:23:57.695Z</time>
      </trkpt>
      <trkpt lat="48.95" lon="0.77734">
        <ele>182</ele>
        <time>2019-08-15T08:23:58.687Z</time>
      </trkpt>
      <trkpt lat="48.95004" lon="0.77721">
        <ele>182</ele>
        <time>2019-08-15T08:23:59.689Z</time>
      </trkpt>
      <trkpt lat="48.95004" lon="0.77721">
        <ele>182</ele>
        <time>2019-08-15T08:24:00.685Z</time>
      </trkpt>
      <trkpt lat="48.95009" lon="0.77708">
        <ele>182</ele>
        <time>2019-08-15T08:24:01.688Z</time>
      </trkpt>
      <trkpt lat="48.95011" lon="0.77701">
        <ele>182</ele>
        <time>2019-08-15T08:24:02.688Z</time>
      </trkpt>
      <trkpt lat="48.95013" lon="0.77695">
        <ele>181</ele>
        <time>2019-08-15T08:24:03.688Z</time>
      </trkpt>
      <trkpt lat="48.95013" lon="0.77695">
        <ele>181</ele>
        <time>2019-08-15T08:24:04.686Z</time>
      </trkpt>
      <trkpt lat="48.95017" lon="0.77683">
        <ele>181</ele>
        <time>2019-08-15T08:24:05.690Z</time>
      </trkpt>
      <trkpt lat="48.95017" lon="0.77683">
        <ele>181</ele>
        <time>2019-08-15T08:24:06.686Z</time>
      </trkpt>
      <trkpt lat="48.95021" lon="0.77669">
        <ele>181</ele>
        <time>2019-08-15T08:24:07.688Z</time>
      </trkpt>
      <trkpt lat="48.95021" lon="0.77669">
        <ele>181</ele>
        <time>2019-08-15T08:24:08.686Z</time>
      </trkpt>
      <trkpt lat="48.95026" lon="0.77654">
        <ele>180</ele>
        <time>2019-08-15T08:24:09.695Z</time>
      </trkpt>
      <trkpt lat="48.95026" lon="0.77654">
        <ele>180</ele>
        <time>2019-08-15T08:24:10.687Z</time>
      </trkpt>
      <trkpt lat="48.95031" lon="0.77639">
        <ele>180</ele>
        <time>2019-08-15T08:24:11.687Z</time>
      </trkpt>
      <trkpt lat="48.95031" lon="0.77639">
        <ele>180</ele>
        <time>2019-08-15T08:24:12.689Z</time>
      </trkpt>
      <trkpt lat="48.95036" lon="0.77625">
        <ele>181</ele>
        <time>2019-08-15T08:24:13.688Z</time>
      </trkpt>
      <trkpt lat="48.95036" lon="0.77625">
        <ele>181</ele>
        <time>2019-08-15T08:24:14.686Z</time>
      </trkpt>
      <trkpt lat="48.9504" lon="0.77611">
        <ele>181</ele>
        <time>2019-08-15T08:24:15.711Z</time>
      </trkpt>
      <trkpt lat="48.9504" lon="0.77611">
        <ele>181</ele>
        <time>2019-08-15T08:24:16.695Z</time>
      </trkpt>
      <trkpt lat="48.95045" lon="0.77596">
        <ele>181</ele>
        <time>2019-08-15T08:24:17.690Z</time>
      </trkpt>
      <trkpt lat="48.95045" lon="0.77596">
        <ele>181</ele>
        <time>2019-08-15T08:24:18.687Z</time>
      </trkpt>
      <trkpt lat="48.9505" lon="0.77581">
        <ele>181</ele>
        <time>2019-08-15T08:24:19.689Z</time>
      </trkpt>
      <trkpt lat="48.9505" lon="0.77581">
        <ele>181</ele>
        <time>2019-08-15T08:24:20.700Z</time>
      </trkpt>
      <trkpt lat="48.95055" lon="0.77565">
        <ele>181</ele>
        <time>2019-08-15T08:24:21.687Z</time>
      </trkpt>
      <trkpt lat="48.95055" lon="0.77565">
        <ele>181</ele>
        <time>2019-08-15T08:24:22.681Z</time>
      </trkpt>
      <trkpt lat="48.9506" lon="0.7755">
        <ele>181</ele>
        <time>2019-08-15T08:24:23.705Z</time>
      </trkpt>
      <trkpt lat="48.9506" lon="0.7755">
        <ele>181</ele>
        <time>2019-08-15T08:24:24.689Z</time>
      </trkpt>
      <trkpt lat="48.95064" lon="0.77534">
        <ele>181</ele>
        <time>2019-08-15T08:24:25.698Z</time>
      </trkpt>
      <trkpt lat="48.95064" lon="0.77534">
        <ele>181</ele>
        <time>2019-08-15T08:24:26.684Z</time>
      </trkpt>
      <trkpt lat="48.95069" lon="0.77519">
        <ele>181</ele>
        <time>2019-08-15T08:24:27.690Z</time>
      </trkpt>
      <trkpt lat="48.95069" lon="0.77519">
        <ele>181</ele>
        <time>2019-08-15T08:24:28.684Z</time>
      </trkpt>
      <trkpt lat="48.95073" lon="0.77502">
        <ele>181</ele>
        <time>2019-08-15T08:24:29.689Z</time>
      </trkpt>
      <trkpt lat="48.95073" lon="0.77502">
        <ele>181</ele>
        <time>2019-08-15T08:24:30.687Z</time>
      </trkpt>
      <trkpt lat="48.95077" lon="0.77486">
        <ele>181</ele>
        <time>2019-08-15T08:24:31.690Z</time>
      </trkpt>
      <trkpt lat="48.95079" lon="0.77478">
        <ele>181</ele>
        <time>2019-08-15T08:24:32.690Z</time>
      </trkpt>
      <trkpt lat="48.95079" lon="0.77478">
        <ele>181</ele>
        <time>2019-08-15T08:24:33.688Z</time>
      </trkpt>
      <trkpt lat="48.95082" lon="0.77462">
        <ele>181</ele>
        <time>2019-08-15T08:24:34.688Z</time>
      </trkpt>
      <trkpt lat="48.95084" lon="0.77454">
        <ele>181</ele>
        <time>2019-08-15T08:24:35.689Z</time>
      </trkpt>
      <trkpt lat="48.95084" lon="0.77454">
        <ele>181</ele>
        <time>2019-08-15T08:24:36.686Z</time>
      </trkpt>
      <trkpt lat="48.95085" lon="0.77439">
        <ele>181</ele>
        <time>2019-08-15T08:24:37.688Z</time>
      </trkpt>
      <trkpt lat="48.95085" lon="0.77431">
        <ele>181</ele>
        <time>2019-08-15T08:24:38.686Z</time>
      </trkpt>
      <trkpt lat="48.95085" lon="0.77424">
        <ele>181</ele>
        <time>2019-08-15T08:24:39.690Z</time>
      </trkpt>
      <trkpt lat="48.95085" lon="0.77424">
        <ele>181</ele>
        <time>2019-08-15T08:24:40.687Z</time>
      </trkpt>
      <trkpt lat="48.95084" lon="0.77407">
        <ele>181</ele>
        <time>2019-08-15T08:24:41.689Z</time>
      </trkpt>
      <trkpt lat="48.95084" lon="0.77407">
        <ele>181</ele>
        <time>2019-08-15T08:24:42.687Z</time>
      </trkpt>
      <trkpt lat="48.95084" lon="0.77392">
        <ele>182</ele>
        <time>2019-08-15T08:24:43.688Z</time>
      </trkpt>
      <trkpt lat="48.95084" lon="0.77392">
        <ele>182</ele>
        <time>2019-08-15T08:24:44.680Z</time>
      </trkpt>
      <trkpt lat="48.95084" lon="0.77375">
        <ele>182</ele>
        <time>2019-08-15T08:24:45.703Z</time>
      </trkpt>
      <trkpt lat="48.95085" lon="0.77367">
        <ele>182</ele>
        <time>2019-08-15T08:24:46.689Z</time>
      </trkpt>
      <trkpt lat="48.95086" lon="0.77359">
        <ele>182</ele>
        <time>2019-08-15T08:24:47.689Z</time>
      </trkpt>
      <trkpt lat="48.95086" lon="0.77359">
        <ele>182</ele>
        <time>2019-08-15T08:24:48.686Z</time>
      </trkpt>
      <trkpt lat="48.95091" lon="0.77343">
        <ele>182</ele>
        <time>2019-08-15T08:24:49.686Z</time>
      </trkpt>
      <trkpt lat="48.95091" lon="0.77343">
        <ele>182</ele>
        <time>2019-08-15T08:24:50.686Z</time>
      </trkpt>
      <trkpt lat="48.95097" lon="0.77329">
        <ele>182</ele>
        <time>2019-08-15T08:24:51.703Z</time>
      </trkpt>
      <trkpt lat="48.95097" lon="0.77329">
        <ele>182</ele>
        <time>2019-08-15T08:24:52.688Z</time>
      </trkpt>
      <trkpt lat="48.95102" lon="0.77314">
        <ele>182</ele>
        <time>2019-08-15T08:24:53.691Z</time>
      </trkpt>
      <trkpt lat="48.95102" lon="0.77314">
        <ele>182</ele>
        <time>2019-08-15T08:24:54.691Z</time>
      </trkpt>
      <trkpt lat="48.95108" lon="0.77299">
        <ele>183</ele>
        <time>2019-08-15T08:24:55.690Z</time>
      </trkpt>
      <trkpt lat="48.95108" lon="0.77299">
        <ele>183</ele>
        <time>2019-08-15T08:24:56.686Z</time>
      </trkpt>
      <trkpt lat="48.95113" lon="0.77285">
        <ele>182</ele>
        <time>2019-08-15T08:24:57.691Z</time>
      </trkpt>
      <trkpt lat="48.95113" lon="0.77285">
        <ele>182</ele>
        <time>2019-08-15T08:24:58.687Z</time>
      </trkpt>
      <trkpt lat="48.95118" lon="0.7727">
        <ele>182</ele>
        <time>2019-08-15T08:24:59.687Z</time>
      </trkpt>
      <trkpt lat="48.95118" lon="0.7727">
        <ele>182</ele>
        <time>2019-08-15T08:25:00.687Z</time>
      </trkpt>
      <trkpt lat="48.95125" lon="0.77255">
        <ele>182</ele>
        <time>2019-08-15T08:25:01.689Z</time>
      </trkpt>
      <trkpt lat="48.95125" lon="0.77255">
        <ele>182</ele>
        <time>2019-08-15T08:25:02.686Z</time>
      </trkpt>
      <trkpt lat="48.9513" lon="0.7724">
        <ele>182</ele>
        <time>2019-08-15T08:25:03.691Z</time>
      </trkpt>
      <trkpt lat="48.9513" lon="0.7724">
        <ele>182</ele>
        <time>2019-08-15T08:25:04.685Z</time>
      </trkpt>
      <trkpt lat="48.95135" lon="0.77224">
        <ele>181</ele>
        <time>2019-08-15T08:25:05.709Z</time>
      </trkpt>
      <trkpt lat="48.95138" lon="0.77216">
        <ele>181</ele>
        <time>2019-08-15T08:25:06.705Z</time>
      </trkpt>
      <trkpt lat="48.95138" lon="0.77216">
        <ele>181</ele>
        <time>2019-08-15T08:25:07.689Z</time>
      </trkpt>
      <trkpt lat="48.95143" lon="0.77201">
        <ele>181</ele>
        <time>2019-08-15T08:25:08.689Z</time>
      </trkpt>
      <trkpt lat="48.95146" lon="0.77193">
        <ele>181</ele>
        <time>2019-08-15T08:25:09.690Z</time>
      </trkpt>
      <trkpt lat="48.95146" lon="0.77193">
        <ele>181</ele>
        <time>2019-08-15T08:25:10.686Z</time>
      </trkpt>
      <trkpt lat="48.9515" lon="0.77177">
        <ele>181</ele>
        <time>2019-08-15T08:25:11.687Z</time>
      </trkpt>
      <trkpt lat="48.9515" lon="0.77177">
        <ele>181</ele>
        <time>2019-08-15T08:25:12.685Z</time>
      </trkpt>
      <trkpt lat="48.95154" lon="0.77161">
        <ele>181</ele>
        <time>2019-08-15T08:25:13.690Z</time>
      </trkpt>
      <trkpt lat="48.95154" lon="0.77161">
        <ele>181</ele>
        <time>2019-08-15T08:25:14.687Z</time>
      </trkpt>
      <trkpt lat="48.95159" lon="0.77145">
        <ele>180</ele>
        <time>2019-08-15T08:25:15.711Z</time>
      </trkpt>
      <trkpt lat="48.95159" lon="0.77145">
        <ele>180</ele>
        <time>2019-08-15T08:25:16.695Z</time>
      </trkpt>
      <trkpt lat="48.95164" lon="0.77128">
        <ele>180</ele>
        <time>2019-08-15T08:25:17.688Z</time>
      </trkpt>
      <trkpt lat="48.95164" lon="0.77128">
        <ele>180</ele>
        <time>2019-08-15T08:25:18.686Z</time>
      </trkpt>
      <trkpt lat="48.95169" lon="0.77112">
        <ele>180</ele>
        <time>2019-08-15T08:25:19.688Z</time>
      </trkpt>
      <trkpt lat="48.95169" lon="0.77112">
        <ele>180</ele>
        <time>2019-08-15T08:25:20.687Z</time>
      </trkpt>
      <trkpt lat="48.95174" lon="0.77096">
        <ele>179</ele>
        <time>2019-08-15T08:25:21.691Z</time>
      </trkpt>
      <trkpt lat="48.95174" lon="0.77096">
        <ele>179</ele>
        <time>2019-08-15T08:25:22.684Z</time>
      </trkpt>
      <trkpt lat="48.95179" lon="0.7708">
        <ele>179</ele>
        <time>2019-08-15T08:25:23.690Z</time>
      </trkpt>
      <trkpt lat="48.95179" lon="0.7708">
        <ele>179</ele>
        <time>2019-08-15T08:25:24.687Z</time>
      </trkpt>
      <trkpt lat="48.95184" lon="0.77064">
        <ele>179</ele>
        <time>2019-08-15T08:25:25.690Z</time>
      </trkpt>
      <trkpt lat="48.95184" lon="0.77064">
        <ele>179</ele>
        <time>2019-08-15T08:25:26.685Z</time>
      </trkpt>
      <trkpt lat="48.95189" lon="0.77049">
        <ele>178</ele>
        <time>2019-08-15T08:25:27.690Z</time>
      </trkpt>
      <trkpt lat="48.95189" lon="0.77049">
        <ele>178</ele>
        <time>2019-08-15T08:25:28.688Z</time>
      </trkpt>
      <trkpt lat="48.95194" lon="0.77033">
        <ele>178</ele>
        <time>2019-08-15T08:25:29.686Z</time>
      </trkpt>
      <trkpt lat="48.95194" lon="0.77033">
        <ele>178</ele>
        <time>2019-08-15T08:25:30.686Z</time>
      </trkpt>
      <trkpt lat="48.95199" lon="0.77018">
        <ele>178</ele>
        <time>2019-08-15T08:25:31.689Z</time>
      </trkpt>
      <trkpt lat="48.95201" lon="0.77011">
        <ele>178</ele>
        <time>2019-08-15T08:25:32.689Z</time>
      </trkpt>
      <trkpt lat="48.95203" lon="0.77004">
        <ele>178</ele>
        <time>2019-08-15T08:25:33.691Z</time>
      </trkpt>
      <trkpt lat="48.95203" lon="0.77004">
        <ele>178</ele>
        <time>2019-08-15T08:25:34.687Z</time>
      </trkpt>
      <trkpt lat="48.95208" lon="0.76991">
        <ele>178</ele>
        <time>2019-08-15T08:25:35.689Z</time>
      </trkpt>
      <trkpt lat="48.95208" lon="0.76991">
        <ele>178</ele>
        <time>2019-08-15T08:25:36.686Z</time>
      </trkpt>
      <trkpt lat="48.95214" lon="0.76982">
        <ele>178</ele>
        <time>2019-08-15T08:25:37.688Z</time>
      </trkpt>
      <trkpt lat="48.95214" lon="0.76982">
        <ele>178</ele>
        <time>2019-08-15T08:25:38.686Z</time>
      </trkpt>
      <trkpt lat="48.95222" lon="0.76975">
        <ele>178</ele>
        <time>2019-08-15T08:25:39.695Z</time>
      </trkpt>
      <trkpt lat="48.95222" lon="0.76975">
        <ele>178</ele>
        <time>2019-08-15T08:25:40.686Z</time>
      </trkpt>
      <trkpt lat="48.95232" lon="0.76972">
        <ele>177</ele>
        <time>2019-08-15T08:25:41.695Z</time>
      </trkpt>
      <trkpt lat="48.95232" lon="0.76972">
        <ele>177</ele>
        <time>2019-08-15T08:25:42.681Z</time>
      </trkpt>
      <trkpt lat="48.95242" lon="0.76973">
        <ele>177</ele>
        <time>2019-08-15T08:25:43.704Z</time>
      </trkpt>
      <trkpt lat="48.95242" lon="0.76973">
        <ele>177</ele>
        <time>2019-08-15T08:25:44.689Z</time>
      </trkpt>
      <trkpt lat="48.95253" lon="0.76978">
        <ele>177</ele>
        <time>2019-08-15T08:25:45.708Z</time>
      </trkpt>
      <trkpt lat="48.95253" lon="0.76978">
        <ele>177</ele>
        <time>2019-08-15T08:25:46.691Z</time>
      </trkpt>
      <trkpt lat="48.95262" lon="0.76985">
        <ele>177</ele>
        <time>2019-08-15T08:25:47.689Z</time>
      </trkpt>
      <trkpt lat="48.95262" lon="0.76985">
        <ele>177</ele>
        <time>2019-08-15T08:25:48.688Z</time>
      </trkpt>
      <trkpt lat="48.95271" lon="0.76994">
        <ele>177</ele>
        <time>2019-08-15T08:25:49.689Z</time>
      </trkpt>
      <trkpt lat="48.95271" lon="0.76994">
        <ele>177</ele>
        <time>2019-08-15T08:25:50.691Z</time>
      </trkpt>
      <trkpt lat="48.9528" lon="0.77002">
        <ele>177</ele>
        <time>2019-08-15T08:25:51.686Z</time>
      </trkpt>
      <trkpt lat="48.9528" lon="0.77002">
        <ele>177</ele>
        <time>2019-08-15T08:25:52.693Z</time>
      </trkpt>
      <trkpt lat="48.95288" lon="0.77011">
        <ele>177</ele>
        <time>2019-08-15T08:25:53.699Z</time>
      </trkpt>
      <trkpt lat="48.95288" lon="0.77011">
        <ele>177</ele>
        <time>2019-08-15T08:25:54.687Z</time>
      </trkpt>
      <trkpt lat="48.95296" lon="0.77019">
        <ele>177</ele>
        <time>2019-08-15T08:25:55.706Z</time>
      </trkpt>
      <trkpt lat="48.95299" lon="0.77023">
        <ele>176</ele>
        <time>2019-08-15T08:25:56.695Z</time>
      </trkpt>
      <trkpt lat="48.95299" lon="0.77023">
        <ele>176</ele>
        <time>2019-08-15T08:25:57.687Z</time>
      </trkpt>
      <trkpt lat="48.95308" lon="0.77031">
        <ele>176</ele>
        <time>2019-08-15T08:25:58.689Z</time>
      </trkpt>
      <trkpt lat="48.95312" lon="0.77036">
        <ele>176</ele>
        <time>2019-08-15T08:25:59.690Z</time>
      </trkpt>
      <trkpt lat="48.95312" lon="0.77036">
        <ele>176</ele>
        <time>2019-08-15T08:26:00.684Z</time>
      </trkpt>
      <trkpt lat="48.9532" lon="0.77045">
        <ele>176</ele>
        <time>2019-08-15T08:26:01.689Z</time>
      </trkpt>
      <trkpt lat="48.9532" lon="0.77045">
        <ele>176</ele>
        <time>2019-08-15T08:26:02.687Z</time>
      </trkpt>
      <trkpt lat="48.95329" lon="0.77054">
        <ele>175</ele>
        <time>2019-08-15T08:26:03.695Z</time>
      </trkpt>
      <trkpt lat="48.95329" lon="0.77054">
        <ele>175</ele>
        <time>2019-08-15T08:26:04.684Z</time>
      </trkpt>
      <trkpt lat="48.95337" lon="0.77064">
        <ele>175</ele>
        <time>2019-08-15T08:26:05.700Z</time>
      </trkpt>
      <trkpt lat="48.95337" lon="0.77064">
        <ele>175</ele>
        <time>2019-08-15T08:26:06.686Z</time>
      </trkpt>
      <trkpt lat="48.95345" lon="0.77074">
        <ele>175</ele>
        <time>2019-08-15T08:26:07.687Z</time>
      </trkpt>
      <trkpt lat="48.95345" lon="0.77074">
        <ele>175</ele>
        <time>2019-08-15T08:26:08.682Z</time>
      </trkpt>
      <trkpt lat="48.95353" lon="0.77082">
        <ele>175</ele>
        <time>2019-08-15T08:26:09.705Z</time>
      </trkpt>
      <trkpt lat="48.95353" lon="0.77082">
        <ele>175</ele>
        <time>2019-08-15T08:26:10.689Z</time>
      </trkpt>
      <trkpt lat="48.95361" lon="0.77091">
        <ele>174</ele>
        <time>2019-08-15T08:26:11.689Z</time>
      </trkpt>
      <trkpt lat="48.95361" lon="0.77091">
        <ele>174</ele>
        <time>2019-08-15T08:26:12.684Z</time>
      </trkpt>
      <trkpt lat="48.95369" lon="0.771">
        <ele>174</ele>
        <time>2019-08-15T08:26:13.687Z</time>
      </trkpt>
      <trkpt lat="48.95369" lon="0.771">
        <ele>174</ele>
        <time>2019-08-15T08:26:14.688Z</time>
      </trkpt>
      <trkpt lat="48.95377" lon="0.77109">
        <ele>174</ele>
        <time>2019-08-15T08:26:15.687Z</time>
      </trkpt>
      <trkpt lat="48.95381" lon="0.77113">
        <ele>174</ele>
        <time>2019-08-15T08:26:16.688Z</time>
      </trkpt>
      <trkpt lat="48.95385" lon="0.77117">
        <ele>174</ele>
        <time>2019-08-15T08:26:17.689Z</time>
      </trkpt>
      <trkpt lat="48.95385" lon="0.77117">
        <ele>174</ele>
        <time>2019-08-15T08:26:18.685Z</time>
      </trkpt>
      <trkpt lat="48.95396" lon="0.77126">
        <ele>174</ele>
        <time>2019-08-15T08:26:19.694Z</time>
      </trkpt>
      <trkpt lat="48.95396" lon="0.77126">
        <ele>174</ele>
        <time>2019-08-15T08:26:20.689Z</time>
      </trkpt>
      <trkpt lat="48.9541" lon="0.77135">
        <ele>174</ele>
        <time>2019-08-15T08:26:21.695Z</time>
      </trkpt>
      <trkpt lat="48.9541" lon="0.77135">
        <ele>174</ele>
        <time>2019-08-15T08:26:22.687Z</time>
      </trkpt>
      <trkpt lat="48.95422" lon="0.77141">
        <ele>174</ele>
        <time>2019-08-15T08:26:23.688Z</time>
      </trkpt>
      <trkpt lat="48.95422" lon="0.77141">
        <ele>174</ele>
        <time>2019-08-15T08:26:24.686Z</time>
      </trkpt>
      <trkpt lat="48.95434" lon="0.77147">
        <ele>174</ele>
        <time>2019-08-15T08:26:25.686Z</time>
      </trkpt>
      <trkpt lat="48.95439" lon="0.77149">
        <ele>174</ele>
        <time>2019-08-15T08:26:26.689Z</time>
      </trkpt>
      <trkpt lat="48.95445" lon="0.77152">
        <ele>174</ele>
        <time>2019-08-15T08:26:27.695Z</time>
      </trkpt>
      <trkpt lat="48.95445" lon="0.77152">
        <ele>174</ele>
        <time>2019-08-15T08:26:28.687Z</time>
      </trkpt>
      <trkpt lat="48.95456" lon="0.77156">
        <ele>173</ele>
        <time>2019-08-15T08:26:29.690Z</time>
      </trkpt>
      <trkpt lat="48.95456" lon="0.77156">
        <ele>173</ele>
        <time>2019-08-15T08:26:30.684Z</time>
      </trkpt>
      <trkpt lat="48.95467" lon="0.77158">
        <ele>173</ele>
        <time>2019-08-15T08:26:31.689Z</time>
      </trkpt>
      <trkpt lat="48.95467" lon="0.77158">
        <ele>173</ele>
        <time>2019-08-15T08:26:32.687Z</time>
      </trkpt>
      <trkpt lat="48.95475" lon="0.77162">
        <ele>172</ele>
        <time>2019-08-15T08:26:33.690Z</time>
      </trkpt>
      <trkpt lat="48.95475" lon="0.77162">
        <ele>172</ele>
        <time>2019-08-15T08:26:34.686Z</time>
      </trkpt>
      <trkpt lat="48.95485" lon="0.77166">
        <ele>172</ele>
        <time>2019-08-15T08:26:35.683Z</time>
      </trkpt>
      <trkpt lat="48.95489" lon="0.77169">
        <ele>172</ele>
        <time>2019-08-15T08:26:36.689Z</time>
      </trkpt>
      <trkpt lat="48.95491" lon="0.77171">
        <ele>172</ele>
        <time>2019-08-15T08:26:37.689Z</time>
      </trkpt>
      <trkpt lat="48.95491" lon="0.77171">
        <ele>172</ele>
        <time>2019-08-15T08:26:38.686Z</time>
      </trkpt>
      <trkpt lat="48.95495" lon="0.77178">
        <ele>172</ele>
        <time>2019-08-15T08:26:39.695Z</time>
      </trkpt>
      <trkpt lat="48.95495" lon="0.77178">
        <ele>172</ele>
        <time>2019-08-15T08:26:40.685Z</time>
      </trkpt>
      <trkpt lat="48.95499" lon="0.7719">
        <ele>172</ele>
        <time>2019-08-15T08:26:41.689Z</time>
      </trkpt>
      <trkpt lat="48.95499" lon="0.7719">
        <ele>172</ele>
        <time>2019-08-15T08:26:42.684Z</time>
      </trkpt>
      <trkpt lat="48.95501" lon="0.77202">
        <ele>172</ele>
        <time>2019-08-15T08:26:43.690Z</time>
      </trkpt>
      <trkpt lat="48.95501" lon="0.77202">
        <ele>172</ele>
        <time>2019-08-15T08:26:44.687Z</time>
      </trkpt>
      <trkpt lat="48.95502" lon="0.77212">
        <ele>171</ele>
        <time>2019-08-15T08:26:45.709Z</time>
      </trkpt>
      <trkpt lat="48.95502" lon="0.77212">
        <ele>171</ele>
        <time>2019-08-15T08:26:46.695Z</time>
      </trkpt>
      <trkpt lat="48.95505" lon="0.77225">
        <ele>172</ele>
        <time>2019-08-15T08:26:47.688Z</time>
      </trkpt>
      <trkpt lat="48.95505" lon="0.77225">
        <ele>172</ele>
        <time>2019-08-15T08:26:48.687Z</time>
      </trkpt>
      <trkpt lat="48.95509" lon="0.77238">
        <ele>172</ele>
        <time>2019-08-15T08:26:49.708Z</time>
      </trkpt>
      <trkpt lat="48.9551" lon="0.77244">
        <ele>172</ele>
        <time>2019-08-15T08:26:50.679Z</time>
      </trkpt>
      <trkpt lat="48.95511" lon="0.77251">
        <ele>172</ele>
        <time>2019-08-15T08:26:51.695Z</time>
      </trkpt>
      <trkpt lat="48.95511" lon="0.77251">
        <ele>172</ele>
        <time>2019-08-15T08:26:52.684Z</time>
      </trkpt>
      <trkpt lat="48.95512" lon="0.77266">
        <ele>172</ele>
        <time>2019-08-15T08:26:53.689Z</time>
      </trkpt>
      <trkpt lat="48.95512" lon="0.77266">
        <ele>172</ele>
        <time>2019-08-15T08:26:54.687Z</time>
      </trkpt>
      <trkpt lat="48.95514" lon="0.7728">
        <ele>172</ele>
        <time>2019-08-15T08:26:55.696Z</time>
      </trkpt>
      <trkpt lat="48.95514" lon="0.77288">
        <ele>172</ele>
        <time>2019-08-15T08:26:56.689Z</time>
      </trkpt>
      <trkpt lat="48.95515" lon="0.77295">
        <ele>172</ele>
        <time>2019-08-15T08:26:57.690Z</time>
      </trkpt>
      <trkpt lat="48.95515" lon="0.77295">
        <ele>172</ele>
        <time>2019-08-15T08:26:58.687Z</time>
      </trkpt>
      <trkpt lat="48.95517" lon="0.7731">
        <ele>172</ele>
        <time>2019-08-15T08:26:59.686Z</time>
      </trkpt>
      <trkpt lat="48.95517" lon="0.7731">
        <ele>172</ele>
        <time>2019-08-15T08:27:00.685Z</time>
      </trkpt>
      <trkpt lat="48.95521" lon="0.77325">
        <ele>171</ele>
        <time>2019-08-15T08:27:01.689Z</time>
      </trkpt>
      <trkpt lat="48.95521" lon="0.77325">
        <ele>171</ele>
        <time>2019-08-15T08:27:02.687Z</time>
      </trkpt>
      <trkpt lat="48.95523" lon="0.7734">
        <ele>172</ele>
        <time>2019-08-15T08:27:03.695Z</time>
      </trkpt>
      <trkpt lat="48.95523" lon="0.7734">
        <ele>172</ele>
        <time>2019-08-15T08:27:04.686Z</time>
      </trkpt>
      <trkpt lat="48.95525" lon="0.77356">
        <ele>171</ele>
        <time>2019-08-15T08:27:05.710Z</time>
      </trkpt>
      <trkpt lat="48.95525" lon="0.77356">
        <ele>171</ele>
        <time>2019-08-15T08:27:06.700Z</time>
      </trkpt>
      <trkpt lat="48.95527" lon="0.77373">
        <ele>171</ele>
        <time>2019-08-15T08:27:07.690Z</time>
      </trkpt>
      <trkpt lat="48.95527" lon="0.77373">
        <ele>171</ele>
        <time>2019-08-15T08:27:08.687Z</time>
      </trkpt>
      <trkpt lat="48.9553" lon="0.77389">
        <ele>171</ele>
        <time>2019-08-15T08:27:09.695Z</time>
      </trkpt>
      <trkpt lat="48.95532" lon="0.77396">
        <ele>171</ele>
        <time>2019-08-15T08:27:10.690Z</time>
      </trkpt>
      <trkpt lat="48.95532" lon="0.77396">
        <ele>171</ele>
        <time>2019-08-15T08:27:11.687Z</time>
      </trkpt>
      <trkpt lat="48.95535" lon="0.77409">
        <ele>170</ele>
        <time>2019-08-15T08:27:12.689Z</time>
      </trkpt>
      <trkpt lat="48.95535" lon="0.77409">
        <ele>170</ele>
        <time>2019-08-15T08:27:13.685Z</time>
      </trkpt>
      <trkpt lat="48.95538" lon="0.77422">
        <ele>170</ele>
        <time>2019-08-15T08:27:14.695Z</time>
      </trkpt>
      <trkpt lat="48.95538" lon="0.77422">
        <ele>170</ele>
        <time>2019-08-15T08:27:15.688Z</time>
      </trkpt>
      <trkpt lat="48.9554" lon="0.77435">
        <ele>170</ele>
        <time>2019-08-15T08:27:16.690Z</time>
      </trkpt>
      <trkpt lat="48.95542" lon="0.77443">
        <ele>170</ele>
        <time>2019-08-15T08:27:17.691Z</time>
      </trkpt>
      <trkpt lat="48.95542" lon="0.77443">
        <ele>170</ele>
        <time>2019-08-15T08:27:18.684Z</time>
      </trkpt>
      <trkpt lat="48.95544" lon="0.77459">
        <ele>170</ele>
        <time>2019-08-15T08:27:19.697Z</time>
      </trkpt>
      <trkpt lat="48.95544" lon="0.77466">
        <ele>169</ele>
        <time>2019-08-15T08:27:20.690Z</time>
      </trkpt>
      <trkpt lat="48.95545" lon="0.77472">
        <ele>169</ele>
        <time>2019-08-15T08:27:21.695Z</time>
      </trkpt>
      <trkpt lat="48.95545" lon="0.77472">
        <ele>169</ele>
        <time>2019-08-15T08:27:22.685Z</time>
      </trkpt>
      <trkpt lat="48.95546" lon="0.77487">
        <ele>169</ele>
        <time>2019-08-15T08:27:23.687Z</time>
      </trkpt>
      <trkpt lat="48.95546" lon="0.77487">
        <ele>169</ele>
        <time>2019-08-15T08:27:24.688Z</time>
      </trkpt>
      <trkpt lat="48.95548" lon="0.77504">
        <ele>169</ele>
        <time>2019-08-15T08:27:25.696Z</time>
      </trkpt>
      <trkpt lat="48.95548" lon="0.77504">
        <ele>169</ele>
        <time>2019-08-15T08:27:26.683Z</time>
      </trkpt>
      <trkpt lat="48.9555" lon="0.77523">
        <ele>168</ele>
        <time>2019-08-15T08:27:27.707Z</time>
      </trkpt>
      <trkpt lat="48.9555" lon="0.77523">
        <ele>168</ele>
        <time>2019-08-15T08:27:28.691Z</time>
      </trkpt>
      <trkpt lat="48.95552" lon="0.77542">
        <ele>168</ele>
        <time>2019-08-15T08:27:29.687Z</time>
      </trkpt>
      <trkpt lat="48.95552" lon="0.77542">
        <ele>168</ele>
        <time>2019-08-15T08:27:30.685Z</time>
      </trkpt>
      <trkpt lat="48.95555" lon="0.77559">
        <ele>168</ele>
        <time>2019-08-15T08:27:31.689Z</time>
      </trkpt>
      <trkpt lat="48.95555" lon="0.77559">
        <ele>168</ele>
        <time>2019-08-15T08:27:32.686Z</time>
      </trkpt>
      <trkpt lat="48.95558" lon="0.77574">
        <ele>169</ele>
        <time>2019-08-15T08:27:33.695Z</time>
      </trkpt>
      <trkpt lat="48.95558" lon="0.77574">
        <ele>169</ele>
        <time>2019-08-15T08:27:34.687Z</time>
      </trkpt>
      <trkpt lat="48.95559" lon="0.77587">
        <ele>168</ele>
        <time>2019-08-15T08:27:35.695Z</time>
      </trkpt>
      <trkpt lat="48.95559" lon="0.77587">
        <ele>168</ele>
        <time>2019-08-15T08:27:36.688Z</time>
      </trkpt>
      <trkpt lat="48.95557" lon="0.776">
        <ele>168</ele>
        <time>2019-08-15T08:27:37.689Z</time>
      </trkpt>
      <trkpt lat="48.95558" lon="0.77606">
        <ele>168</ele>
        <time>2019-08-15T08:27:38.689Z</time>
      </trkpt>
      <trkpt lat="48.95558" lon="0.77606">
        <ele>168</ele>
        <time>2019-08-15T08:27:39.703Z</time>
      </trkpt>
      <trkpt lat="48.95558" lon="0.77617">
        <ele>169</ele>
        <time>2019-08-15T08:27:40.689Z</time>
      </trkpt>
      <trkpt lat="48.9556" lon="0.77623">
        <ele>169</ele>
        <time>2019-08-15T08:27:41.688Z</time>
      </trkpt>
      <trkpt lat="48.9556" lon="0.77623">
        <ele>169</ele>
        <time>2019-08-15T08:27:42.687Z</time>
      </trkpt>
      <trkpt lat="48.95566" lon="0.77634">
        <ele>169</ele>
        <time>2019-08-15T08:27:43.689Z</time>
      </trkpt>
      <trkpt lat="48.95566" lon="0.77634">
        <ele>169</ele>
        <time>2019-08-15T08:27:44.687Z</time>
      </trkpt>
      <trkpt lat="48.95572" lon="0.77642">
        <ele>168</ele>
        <time>2019-08-15T08:27:45.695Z</time>
      </trkpt>
      <trkpt lat="48.95572" lon="0.77642">
        <ele>168</ele>
        <time>2019-08-15T08:27:46.686Z</time>
      </trkpt>
      <trkpt lat="48.95579" lon="0.7765">
        <ele>168</ele>
        <time>2019-08-15T08:27:47.689Z</time>
      </trkpt>
      <trkpt lat="48.95579" lon="0.7765">
        <ele>168</ele>
        <time>2019-08-15T08:27:48.685Z</time>
      </trkpt>
      <trkpt lat="48.95587" lon="0.77655">
        <ele>167</ele>
        <time>2019-08-15T08:27:49.691Z</time>
      </trkpt>
      <trkpt lat="48.95587" lon="0.77655">
        <ele>167</ele>
        <time>2019-08-15T08:27:50.678Z</time>
      </trkpt>
      <trkpt lat="48.95594" lon="0.77661">
        <ele>166</ele>
        <time>2019-08-15T08:27:51.695Z</time>
      </trkpt>
      <trkpt lat="48.95594" lon="0.77661">
        <ele>166</ele>
        <time>2019-08-15T08:27:52.687Z</time>
      </trkpt>
      <trkpt lat="48.95602" lon="0.77667">
        <ele>166</ele>
        <time>2019-08-15T08:27:53.689Z</time>
      </trkpt>
      <trkpt lat="48.95602" lon="0.77667">
        <ele>166</ele>
        <time>2019-08-15T08:27:54.698Z</time>
      </trkpt>
      <trkpt lat="48.95609" lon="0.77677">
        <ele>166</ele>
        <time>2019-08-15T08:27:55.690Z</time>
      </trkpt>
      <trkpt lat="48.95609" lon="0.77677">
        <ele>166</ele>
        <time>2019-08-15T08:27:56.687Z</time>
      </trkpt>
      <trkpt lat="48.95618" lon="0.77686">
        <ele>165</ele>
        <time>2019-08-15T08:27:57.695Z</time>
      </trkpt>
      <trkpt lat="48.95618" lon="0.77686">
        <ele>165</ele>
        <time>2019-08-15T08:27:58.688Z</time>
      </trkpt>
      <trkpt lat="48.95626" lon="0.77693">
        <ele>165</ele>
        <time>2019-08-15T08:27:59.690Z</time>
      </trkpt>
      <trkpt lat="48.95626" lon="0.77693">
        <ele>165</ele>
        <time>2019-08-15T08:28:00.686Z</time>
      </trkpt>
      <trkpt lat="48.95632" lon="0.77702">
        <ele>164</ele>
        <time>2019-08-15T08:28:01.696Z</time>
      </trkpt>
      <trkpt lat="48.95634" lon="0.77706">
        <ele>165</ele>
        <time>2019-08-15T08:28:02.689Z</time>
      </trkpt>
      <trkpt lat="48.95637" lon="0.7771">
        <ele>165</ele>
        <time>2019-08-15T08:28:03.690Z</time>
      </trkpt>
      <trkpt lat="48.95637" lon="0.7771">
        <ele>165</ele>
        <time>2019-08-15T08:28:04.687Z</time>
      </trkpt>
      <trkpt lat="48.95642" lon="0.7772">
        <ele>166</ele>
        <time>2019-08-15T08:28:05.690Z</time>
      </trkpt>
      <trkpt lat="48.95642" lon="0.7772">
        <ele>166</ele>
        <time>2019-08-15T08:28:06.687Z</time>
      </trkpt>
      <trkpt lat="48.95645" lon="0.7773">
        <ele>168</ele>
        <time>2019-08-15T08:28:07.688Z</time>
      </trkpt>
      <trkpt lat="48.95645" lon="0.7773">
        <ele>168</ele>
        <time>2019-08-15T08:28:08.685Z</time>
      </trkpt>
      <trkpt lat="48.95647" lon="0.77739">
        <ele>168</ele>
        <time>2019-08-15T08:28:09.690Z</time>
      </trkpt>
      <trkpt lat="48.95647" lon="0.77739">
        <ele>168</ele>
        <time>2019-08-15T08:28:10.687Z</time>
      </trkpt>
      <trkpt lat="48.95648" lon="0.7775">
        <ele>170</ele>
        <time>2019-08-15T08:28:11.687Z</time>
      </trkpt>
      <trkpt lat="48.95648" lon="0.7775">
        <ele>170</ele>
        <time>2019-08-15T08:28:12.687Z</time>
      </trkpt>
      <trkpt lat="48.95647" lon="0.77761">
        <ele>170</ele>
        <time>2019-08-15T08:28:13.689Z</time>
      </trkpt>
      <trkpt lat="48.95648" lon="0.77767">
        <ele>170</ele>
        <time>2019-08-15T08:28:14.689Z</time>
      </trkpt>
      <trkpt lat="48.95648" lon="0.77767">
        <ele>170</ele>
        <time>2019-08-15T08:28:15.685Z</time>
      </trkpt>
      <trkpt lat="48.95648" lon="0.77781">
        <ele>170</ele>
        <time>2019-08-15T08:28:16.686Z</time>
      </trkpt>
      <trkpt lat="48.95648" lon="0.77788">
        <ele>171</ele>
        <time>2019-08-15T08:28:17.689Z</time>
      </trkpt>
      <trkpt lat="48.95648" lon="0.77788">
        <ele>171</ele>
        <time>2019-08-15T08:28:18.686Z</time>
      </trkpt>
      <trkpt lat="48.95647" lon="0.77803">
        <ele>171</ele>
        <time>2019-08-15T08:28:19.688Z</time>
      </trkpt>
      <trkpt lat="48.95647" lon="0.77803">
        <ele>171</ele>
        <time>2019-08-15T08:28:20.684Z</time>
      </trkpt>
      <trkpt lat="48.95647" lon="0.77818">
        <ele>172</ele>
        <time>2019-08-15T08:28:21.695Z</time>
      </trkpt>
      <trkpt lat="48.95647" lon="0.77818">
        <ele>172</ele>
        <time>2019-08-15T08:28:22.686Z</time>
      </trkpt>
      <trkpt lat="48.95646" lon="0.77834">
        <ele>172</ele>
        <time>2019-08-15T08:28:23.687Z</time>
      </trkpt>
      <trkpt lat="48.95646" lon="0.77834">
        <ele>172</ele>
        <time>2019-08-15T08:28:24.684Z</time>
      </trkpt>
      <trkpt lat="48.95644" lon="0.77847">
        <ele>173</ele>
        <time>2019-08-15T08:28:25.696Z</time>
      </trkpt>
      <trkpt lat="48.95644" lon="0.77847">
        <ele>173</ele>
        <time>2019-08-15T08:28:26.681Z</time>
      </trkpt>
      <trkpt lat="48.95643" lon="0.77861">
        <ele>173</ele>
        <time>2019-08-15T08:28:27.704Z</time>
      </trkpt>
      <trkpt lat="48.95643" lon="0.77861">
        <ele>173</ele>
        <time>2019-08-15T08:28:28.687Z</time>
      </trkpt>
      <trkpt lat="48.95641" lon="0.77875">
        <ele>173</ele>
        <time>2019-08-15T08:28:29.689Z</time>
      </trkpt>
      <trkpt lat="48.95641" lon="0.77875">
        <ele>173</ele>
        <time>2019-08-15T08:28:30.686Z</time>
      </trkpt>
      <trkpt lat="48.95639" lon="0.7789">
        <ele>174</ele>
        <time>2019-08-15T08:28:31.690Z</time>
      </trkpt>
      <trkpt lat="48.95639" lon="0.7789">
        <ele>174</ele>
        <time>2019-08-15T08:28:32.688Z</time>
      </trkpt>
      <trkpt lat="48.95637" lon="0.77905">
        <ele>174</ele>
        <time>2019-08-15T08:28:33.695Z</time>
      </trkpt>
      <trkpt lat="48.95637" lon="0.77905">
        <ele>174</ele>
        <time>2019-08-15T08:28:34.687Z</time>
      </trkpt>
      <trkpt lat="48.95636" lon="0.77921">
        <ele>175</ele>
        <time>2019-08-15T08:28:35.687Z</time>
      </trkpt>
      <trkpt lat="48.95636" lon="0.77921">
        <ele>175</ele>
        <time>2019-08-15T08:28:36.711Z</time>
      </trkpt>
      <trkpt lat="48.95634" lon="0.77935">
        <ele>175</ele>
        <time>2019-08-15T08:28:37.698Z</time>
      </trkpt>
      <trkpt lat="48.95634" lon="0.77935">
        <ele>175</ele>
        <time>2019-08-15T08:28:38.687Z</time>
      </trkpt>
      <trkpt lat="48.95632" lon="0.7795">
        <ele>176</ele>
        <time>2019-08-15T08:28:39.698Z</time>
      </trkpt>
      <trkpt lat="48.95632" lon="0.7795">
        <ele>176</ele>
        <time>2019-08-15T08:28:40.686Z</time>
      </trkpt>
      <trkpt lat="48.9563" lon="0.77965">
        <ele>176</ele>
        <time>2019-08-15T08:28:41.689Z</time>
      </trkpt>
      <trkpt lat="48.9563" lon="0.77965">
        <ele>176</ele>
        <time>2019-08-15T08:28:42.687Z</time>
      </trkpt>
      <trkpt lat="48.95628" lon="0.77979">
        <ele>176</ele>
        <time>2019-08-15T08:28:43.688Z</time>
      </trkpt>
      <trkpt lat="48.95627" lon="0.77987">
        <ele>176</ele>
        <time>2019-08-15T08:28:44.689Z</time>
      </trkpt>
      <trkpt lat="48.95626" lon="0.77994">
        <ele>176</ele>
        <time>2019-08-15T08:28:45.695Z</time>
      </trkpt>
      <trkpt lat="48.95626" lon="0.77994">
        <ele>176</ele>
        <time>2019-08-15T08:28:46.685Z</time>
      </trkpt>
      <trkpt lat="48.95623" lon="0.78009">
        <ele>176</ele>
        <time>2019-08-15T08:28:47.695Z</time>
      </trkpt>
      <trkpt lat="48.95623" lon="0.78009">
        <ele>176</ele>
        <time>2019-08-15T08:28:48.685Z</time>
      </trkpt>
      <trkpt lat="48.95621" lon="0.78025">
        <ele>175</ele>
        <time>2019-08-15T08:28:49.688Z</time>
      </trkpt>
      <trkpt lat="48.9562" lon="0.78032">
        <ele>175</ele>
        <time>2019-08-15T08:28:50.682Z</time>
      </trkpt>
      <trkpt lat="48.9562" lon="0.78032">
        <ele>175</ele>
        <time>2019-08-15T08:28:51.679Z</time>
      </trkpt>
      <trkpt lat="48.95618" lon="0.78047">
        <ele>175</ele>
        <time>2019-08-15T08:28:52.686Z</time>
      </trkpt>
      <trkpt lat="48.95618" lon="0.78047">
        <ele>175</ele>
        <time>2019-08-15T08:28:53.692Z</time>
      </trkpt>
      <trkpt lat="48.95615" lon="0.78062">
        <ele>175</ele>
        <time>2019-08-15T08:28:54.699Z</time>
      </trkpt>
      <trkpt lat="48.95615" lon="0.78062">
        <ele>175</ele>
        <time>2019-08-15T08:28:55.686Z</time>
      </trkpt>
      <trkpt lat="48.95613" lon="0.78077">
        <ele>175</ele>
        <time>2019-08-15T08:28:56.688Z</time>
      </trkpt>
      <trkpt lat="48.95612" lon="0.78085">
        <ele>175</ele>
        <time>2019-08-15T08:28:57.690Z</time>
      </trkpt>
      <trkpt lat="48.95612" lon="0.78085">
        <ele>175</ele>
        <time>2019-08-15T08:28:58.687Z</time>
      </trkpt>
      <trkpt lat="48.9561" lon="0.78101">
        <ele>174</ele>
        <time>2019-08-15T08:28:59.695Z</time>
      </trkpt>
      <trkpt lat="48.9561" lon="0.78101">
        <ele>174</ele>
        <time>2019-08-15T08:29:00.684Z</time>
      </trkpt>
      <trkpt lat="48.95608" lon="0.78116">
        <ele>174</ele>
        <time>2019-08-15T08:29:01.688Z</time>
      </trkpt>
      <trkpt lat="48.95608" lon="0.78116">
        <ele>174</ele>
        <time>2019-08-15T08:29:02.686Z</time>
      </trkpt>
      <trkpt lat="48.95605" lon="0.7813">
        <ele>174</ele>
        <time>2019-08-15T08:29:03.695Z</time>
      </trkpt>
      <trkpt lat="48.95605" lon="0.7813">
        <ele>174</ele>
        <time>2019-08-15T08:29:04.683Z</time>
      </trkpt>
      <trkpt lat="48.95603" lon="0.78145">
        <ele>173</ele>
        <time>2019-08-15T08:29:05.690Z</time>
      </trkpt>
      <trkpt lat="48.95602" lon="0.78152">
        <ele>173</ele>
        <time>2019-08-15T08:29:06.690Z</time>
      </trkpt>
      <trkpt lat="48.95602" lon="0.78152">
        <ele>173</ele>
        <time>2019-08-15T08:29:07.687Z</time>
      </trkpt>
      <trkpt lat="48.956" lon="0.78167">
        <ele>173</ele>
        <time>2019-08-15T08:29:08.689Z</time>
      </trkpt>
      <trkpt lat="48.95599" lon="0.78174">
        <ele>173</ele>
        <time>2019-08-15T08:29:09.689Z</time>
      </trkpt>
      <trkpt lat="48.95599" lon="0.78174">
        <ele>173</ele>
        <time>2019-08-15T08:29:10.687Z</time>
      </trkpt>
      <trkpt lat="48.95596" lon="0.78189">
        <ele>172</ele>
        <time>2019-08-15T08:29:11.700Z</time>
      </trkpt>
      <trkpt lat="48.95596" lon="0.78189">
        <ele>172</ele>
        <time>2019-08-15T08:29:12.687Z</time>
      </trkpt>
      <trkpt lat="48.95594" lon="0.78204">
        <ele>173</ele>
        <time>2019-08-15T08:29:13.690Z</time>
      </trkpt>
      <trkpt lat="48.95594" lon="0.78204">
        <ele>173</ele>
        <time>2019-08-15T08:29:14.688Z</time>
      </trkpt>
      <trkpt lat="48.95592" lon="0.78218">
        <ele>172</ele>
        <time>2019-08-15T08:29:15.711Z</time>
      </trkpt>
      <trkpt lat="48.95592" lon="0.78218">
        <ele>172</ele>
        <time>2019-08-15T08:29:16.695Z</time>
      </trkpt>
      <trkpt lat="48.95589" lon="0.78233">
        <ele>172</ele>
        <time>2019-08-15T08:29:17.690Z</time>
      </trkpt>
      <trkpt lat="48.95589" lon="0.78233">
        <ele>172</ele>
        <time>2019-08-15T08:29:18.686Z</time>
      </trkpt>
      <trkpt lat="48.95587" lon="0.78247">
        <ele>172</ele>
        <time>2019-08-15T08:29:19.689Z</time>
      </trkpt>
      <trkpt lat="48.95585" lon="0.78254">
        <ele>172</ele>
        <time>2019-08-15T08:29:20.689Z</time>
      </trkpt>
      <trkpt lat="48.95584" lon="0.78262">
        <ele>172</ele>
        <time>2019-08-15T08:29:21.690Z</time>
      </trkpt>
      <trkpt lat="48.95584" lon="0.78262">
        <ele>172</ele>
        <time>2019-08-15T08:29:22.684Z</time>
      </trkpt>
      <trkpt lat="48.95582" lon="0.78277">
        <ele>172</ele>
        <time>2019-08-15T08:29:23.687Z</time>
      </trkpt>
      <trkpt lat="48.95582" lon="0.78277">
        <ele>172</ele>
        <time>2019-08-15T08:29:24.686Z</time>
      </trkpt>
      <trkpt lat="48.9558" lon="0.78293">
        <ele>172</ele>
        <time>2019-08-15T08:29:25.690Z</time>
      </trkpt>
      <trkpt lat="48.9558" lon="0.78293">
        <ele>172</ele>
        <time>2019-08-15T08:29:26.687Z</time>
      </trkpt>
      <trkpt lat="48.95577" lon="0.7831">
        <ele>172</ele>
        <time>2019-08-15T08:29:27.690Z</time>
      </trkpt>
      <trkpt lat="48.95577" lon="0.7831">
        <ele>172</ele>
        <time>2019-08-15T08:29:28.687Z</time>
      </trkpt>
      <trkpt lat="48.95575" lon="0.78327">
        <ele>172</ele>
        <time>2019-08-15T08:29:29.689Z</time>
      </trkpt>
      <trkpt lat="48.95575" lon="0.78327">
        <ele>172</ele>
        <time>2019-08-15T08:29:30.687Z</time>
      </trkpt>
      <trkpt lat="48.95573" lon="0.78344">
        <ele>171</ele>
        <time>2019-08-15T08:29:31.689Z</time>
      </trkpt>
      <trkpt lat="48.95571" lon="0.78352">
        <ele>171</ele>
        <time>2019-08-15T08:29:32.689Z</time>
      </trkpt>
      <trkpt lat="48.95571" lon="0.78352">
        <ele>171</ele>
        <time>2019-08-15T08:29:33.686Z</time>
      </trkpt>
      <trkpt lat="48.95569" lon="0.78368">
        <ele>171</ele>
        <time>2019-08-15T08:29:34.690Z</time>
      </trkpt>
      <trkpt lat="48.95568" lon="0.78374">
        <ele>171</ele>
        <time>2019-08-15T08:29:35.690Z</time>
      </trkpt>
      <trkpt lat="48.95568" lon="0.78374">
        <ele>171</ele>
        <time>2019-08-15T08:29:36.682Z</time>
      </trkpt>
      <trkpt lat="48.95566" lon="0.78389">
        <ele>171</ele>
        <time>2019-08-15T08:29:37.689Z</time>
      </trkpt>
      <trkpt lat="48.95566" lon="0.78389">
        <ele>171</ele>
        <time>2019-08-15T08:29:38.687Z</time>
      </trkpt>
      <trkpt lat="48.95564" lon="0.78405">
        <ele>171</ele>
        <time>2019-08-15T08:29:39.701Z</time>
      </trkpt>
      <trkpt lat="48.95564" lon="0.78405">
        <ele>171</ele>
        <time>2019-08-15T08:29:40.687Z</time>
      </trkpt>
      <trkpt lat="48.95561" lon="0.78421">
        <ele>171</ele>
        <time>2019-08-15T08:29:41.687Z</time>
      </trkpt>
      <trkpt lat="48.95561" lon="0.78421">
        <ele>171</ele>
        <time>2019-08-15T08:29:42.687Z</time>
      </trkpt>
      <trkpt lat="48.95559" lon="0.78437">
        <ele>171</ele>
        <time>2019-08-15T08:29:43.688Z</time>
      </trkpt>
      <trkpt lat="48.95558" lon="0.78446">
        <ele>170</ele>
        <time>2019-08-15T08:29:44.688Z</time>
      </trkpt>
      <trkpt lat="48.95556" lon="0.78454">
        <ele>170</ele>
        <time>2019-08-15T08:29:45.688Z</time>
      </trkpt>
      <trkpt lat="48.95556" lon="0.78454">
        <ele>170</ele>
        <time>2019-08-15T08:29:46.686Z</time>
      </trkpt>
      <trkpt lat="48.95554" lon="0.78469">
        <ele>170</ele>
        <time>2019-08-15T08:29:47.710Z</time>
      </trkpt>
      <trkpt lat="48.95554" lon="0.78469">
        <ele>170</ele>
        <time>2019-08-15T08:29:48.700Z</time>
      </trkpt>
      <trkpt lat="48.95552" lon="0.78483">
        <ele>170</ele>
        <time>2019-08-15T08:29:49.688Z</time>
      </trkpt>
      <trkpt lat="48.95552" lon="0.78483">
        <ele>170</ele>
        <time>2019-08-15T08:29:50.686Z</time>
      </trkpt>
      <trkpt lat="48.9555" lon="0.78496">
        <ele>169</ele>
        <time>2019-08-15T08:29:51.681Z</time>
      </trkpt>
      <trkpt lat="48.95549" lon="0.78502">
        <ele>169</ele>
        <time>2019-08-15T08:29:52.687Z</time>
      </trkpt>
      <trkpt lat="48.95548" lon="0.78509">
        <ele>169</ele>
        <time>2019-08-15T08:29:53.695Z</time>
      </trkpt>
      <trkpt lat="48.95548" lon="0.78509">
        <ele>169</ele>
        <time>2019-08-15T08:29:54.687Z</time>
      </trkpt>
      <trkpt lat="48.95546" lon="0.78522">
        <ele>170</ele>
        <time>2019-08-15T08:29:55.688Z</time>
      </trkpt>
      <trkpt lat="48.95546" lon="0.78522">
        <ele>170</ele>
        <time>2019-08-15T08:29:56.682Z</time>
      </trkpt>
      <trkpt lat="48.95544" lon="0.78533">
        <ele>170</ele>
        <time>2019-08-15T08:29:57.706Z</time>
      </trkpt>
      <trkpt lat="48.95544" lon="0.78533">
        <ele>170</ele>
        <time>2019-08-15T08:29:58.695Z</time>
      </trkpt>
      <trkpt lat="48.95543" lon="0.78541">
        <ele>170</ele>
        <time>2019-08-15T08:29:59.687Z</time>
      </trkpt>
      <trkpt lat="48.95543" lon="0.78541">
        <ele>170</ele>
        <time>2019-08-15T08:30:00.687Z</time>
      </trkpt>
      <trkpt lat="48.95542" lon="0.78549">
        <ele>170</ele>
        <time>2019-08-15T08:30:01.689Z</time>
      </trkpt>
      <trkpt lat="48.95542" lon="0.78549">
        <ele>170</ele>
        <time>2019-08-15T08:30:02.685Z</time>
      </trkpt>
      <trkpt lat="48.95542" lon="0.78556">
        <ele>170</ele>
        <time>2019-08-15T08:30:03.694Z</time>
      </trkpt>
      <trkpt lat="48.95542" lon="0.78556">
        <ele>170</ele>
        <time>2019-08-15T08:30:04.687Z</time>
      </trkpt>
      <trkpt lat="48.95542" lon="0.78562">
        <ele>170</ele>
        <time>2019-08-15T08:30:05.690Z</time>
      </trkpt>
      <trkpt lat="48.95542" lon="0.78562">
        <ele>170</ele>
        <time>2019-08-15T08:30:06.686Z</time>
      </trkpt>
      <trkpt lat="48.95542" lon="0.7857">
        <ele>171</ele>
        <time>2019-08-15T08:30:07.687Z</time>
      </trkpt>
      <trkpt lat="48.95542" lon="0.78576">
        <ele>171</ele>
        <time>2019-08-15T08:30:08.686Z</time>
      </trkpt>
      <trkpt lat="48.95541" lon="0.78582">
        <ele>171</ele>
        <time>2019-08-15T08:30:09.690Z</time>
      </trkpt>
      <trkpt lat="48.95541" lon="0.78582">
        <ele>171</ele>
        <time>2019-08-15T08:30:10.687Z</time>
      </trkpt>
      <trkpt lat="48.95539" lon="0.78595">
        <ele>171</ele>
        <time>2019-08-15T08:30:11.687Z</time>
      </trkpt>
      <trkpt lat="48.95539" lon="0.78595">
        <ele>171</ele>
        <time>2019-08-15T08:30:12.687Z</time>
      </trkpt>
      <trkpt lat="48.95538" lon="0.7861">
        <ele>171</ele>
        <time>2019-08-15T08:30:13.688Z</time>
      </trkpt>
      <trkpt lat="48.95538" lon="0.7861">
        <ele>171</ele>
        <time>2019-08-15T08:30:14.686Z</time>
      </trkpt>
      <trkpt lat="48.95537" lon="0.78626">
        <ele>171</ele>
        <time>2019-08-15T08:30:15.711Z</time>
      </trkpt>
      <trkpt lat="48.95537" lon="0.78626">
        <ele>171</ele>
        <time>2019-08-15T08:30:16.694Z</time>
      </trkpt>
      <trkpt lat="48.95535" lon="0.78642">
        <ele>171</ele>
        <time>2019-08-15T08:30:17.682Z</time>
      </trkpt>
      <trkpt lat="48.95535" lon="0.7865">
        <ele>171</ele>
        <time>2019-08-15T08:30:18.708Z</time>
      </trkpt>
      <trkpt lat="48.95535" lon="0.7865">
        <ele>171</ele>
        <time>2019-08-15T08:30:19.695Z</time>
      </trkpt>
      <trkpt lat="48.95533" lon="0.78666">
        <ele>171</ele>
        <time>2019-08-15T08:30:20.689Z</time>
      </trkpt>
      <trkpt lat="48.95533" lon="0.78674">
        <ele>171</ele>
        <time>2019-08-15T08:30:21.710Z</time>
      </trkpt>
      <trkpt lat="48.95533" lon="0.78674">
        <ele>171</ele>
        <time>2019-08-15T08:30:22.695Z</time>
      </trkpt>
      <trkpt lat="48.95532" lon="0.7869">
        <ele>170</ele>
        <time>2019-08-15T08:30:23.690Z</time>
      </trkpt>
      <trkpt lat="48.95532" lon="0.7869">
        <ele>170</ele>
        <time>2019-08-15T08:30:24.687Z</time>
      </trkpt>
      <trkpt lat="48.95532" lon="0.78704">
        <ele>170</ele>
        <time>2019-08-15T08:30:25.688Z</time>
      </trkpt>
      <trkpt lat="48.95533" lon="0.78711">
        <ele>169</ele>
        <time>2019-08-15T08:30:26.688Z</time>
      </trkpt>
      <trkpt lat="48.95533" lon="0.78711">
        <ele>169</ele>
        <time>2019-08-15T08:30:27.695Z</time>
      </trkpt>
      <trkpt lat="48.95533" lon="0.78724">
        <ele>169</ele>
        <time>2019-08-15T08:30:28.688Z</time>
      </trkpt>
      <trkpt lat="48.95533" lon="0.78731">
        <ele>169</ele>
        <time>2019-08-15T08:30:29.689Z</time>
      </trkpt>
      <trkpt lat="48.95533" lon="0.78731">
        <ele>169</ele>
        <time>2019-08-15T08:30:30.687Z</time>
      </trkpt>
      <trkpt lat="48.95532" lon="0.78744">
        <ele>170</ele>
        <time>2019-08-15T08:30:31.689Z</time>
      </trkpt>
      <trkpt lat="48.95532" lon="0.78744">
        <ele>170</ele>
        <time>2019-08-15T08:30:32.686Z</time>
      </trkpt>
      <trkpt lat="48.95532" lon="0.78758">
        <ele>170</ele>
        <time>2019-08-15T08:30:33.690Z</time>
      </trkpt>
      <trkpt lat="48.95532" lon="0.78758">
        <ele>170</ele>
        <time>2019-08-15T08:30:34.687Z</time>
      </trkpt>
      <trkpt lat="48.95531" lon="0.78772">
        <ele>170</ele>
        <time>2019-08-15T08:30:35.711Z</time>
      </trkpt>
      <trkpt lat="48.95531" lon="0.78772">
        <ele>170</ele>
        <time>2019-08-15T08:30:36.700Z</time>
      </trkpt>
      <trkpt lat="48.9553" lon="0.78784">
        <ele>171</ele>
        <time>2019-08-15T08:30:37.689Z</time>
      </trkpt>
      <trkpt lat="48.9553" lon="0.78789">
        <ele>171</ele>
        <time>2019-08-15T08:30:38.689Z</time>
      </trkpt>
      <trkpt lat="48.9553" lon="0.78795">
        <ele>170</ele>
        <time>2019-08-15T08:30:39.695Z</time>
      </trkpt>
      <trkpt lat="48.9553" lon="0.78795">
        <ele>170</ele>
        <time>2019-08-15T08:30:40.687Z</time>
      </trkpt>
      <trkpt lat="48.9553" lon="0.78806">
        <ele>171</ele>
        <time>2019-08-15T08:30:41.690Z</time>
      </trkpt>
      <trkpt lat="48.9553" lon="0.78806">
        <ele>171</ele>
        <time>2019-08-15T08:30:42.684Z</time>
      </trkpt>
      <trkpt lat="48.9553" lon="0.78819">
        <ele>171</ele>
        <time>2019-08-15T08:30:43.689Z</time>
      </trkpt>
      <trkpt lat="48.9553" lon="0.78819">
        <ele>171</ele>
        <time>2019-08-15T08:30:44.687Z</time>
      </trkpt>
      <trkpt lat="48.95529" lon="0.78831">
        <ele>172</ele>
        <time>2019-08-15T08:30:45.690Z</time>
      </trkpt>
      <trkpt lat="48.95529" lon="0.78837">
        <ele>172</ele>
        <time>2019-08-15T08:30:46.689Z</time>
      </trkpt>
      <trkpt lat="48.95529" lon="0.78844">
        <ele>172</ele>
        <time>2019-08-15T08:30:47.687Z</time>
      </trkpt>
      <trkpt lat="48.95529" lon="0.78844">
        <ele>172</ele>
        <time>2019-08-15T08:30:48.686Z</time>
      </trkpt>
      <trkpt lat="48.95529" lon="0.78857">
        <ele>172</ele>
        <time>2019-08-15T08:30:49.689Z</time>
      </trkpt>
      <trkpt lat="48.95529" lon="0.78857">
        <ele>172</ele>
        <time>2019-08-15T08:30:50.680Z</time>
      </trkpt>
      <trkpt lat="48.95529" lon="0.7887">
        <ele>172</ele>
        <time>2019-08-15T08:30:51.698Z</time>
      </trkpt>
      <trkpt lat="48.95529" lon="0.7887">
        <ele>172</ele>
        <time>2019-08-15T08:30:52.704Z</time>
      </trkpt>
      <trkpt lat="48.95528" lon="0.78883">
        <ele>173</ele>
        <time>2019-08-15T08:30:53.711Z</time>
      </trkpt>
      <trkpt lat="48.95528" lon="0.7889">
        <ele>173</ele>
        <time>2019-08-15T08:30:54.713Z</time>
      </trkpt>
      <trkpt lat="48.95528" lon="0.7889">
        <ele>173</ele>
        <time>2019-08-15T08:30:55.698Z</time>
      </trkpt>
      <trkpt lat="48.95528" lon="0.78902">
        <ele>173</ele>
        <time>2019-08-15T08:30:56.689Z</time>
      </trkpt>
      <trkpt lat="48.95528" lon="0.78908">
        <ele>173</ele>
        <time>2019-08-15T08:30:57.690Z</time>
      </trkpt>
      <trkpt lat="48.95528" lon="0.78908">
        <ele>173</ele>
        <time>2019-08-15T08:30:58.687Z</time>
      </trkpt>
      <trkpt lat="48.95528" lon="0.78921">
        <ele>174</ele>
        <time>2019-08-15T08:30:59.690Z</time>
      </trkpt>
      <trkpt lat="48.95528" lon="0.78921">
        <ele>174</ele>
        <time>2019-08-15T08:31:00.684Z</time>
      </trkpt>
      <trkpt lat="48.95528" lon="0.78933">
        <ele>173</ele>
        <time>2019-08-15T08:31:01.689Z</time>
      </trkpt>
      <trkpt lat="48.95528" lon="0.78933">
        <ele>173</ele>
        <time>2019-08-15T08:31:02.686Z</time>
      </trkpt>
      <trkpt lat="48.95528" lon="0.78943">
        <ele>174</ele>
        <time>2019-08-15T08:31:03.690Z</time>
      </trkpt>
      <trkpt lat="48.95528" lon="0.78943">
        <ele>174</ele>
        <time>2019-08-15T08:31:04.684Z</time>
      </trkpt>
      <trkpt lat="48.95527" lon="0.78951">
        <ele>174</ele>
        <time>2019-08-15T08:31:05.687Z</time>
      </trkpt>
      <trkpt lat="48.95527" lon="0.78951">
        <ele>174</ele>
        <time>2019-08-15T08:31:06.686Z</time>
      </trkpt>
      <trkpt lat="48.95526" lon="0.78957">
        <ele>174</ele>
        <time>2019-08-15T08:31:07.689Z</time>
      </trkpt>
      <trkpt lat="48.95526" lon="0.78957">
        <ele>174</ele>
        <time>2019-08-15T08:31:08.686Z</time>
      </trkpt>
      <trkpt lat="48.95525" lon="0.78965">
        <ele>175</ele>
        <time>2019-08-15T08:31:09.695Z</time>
      </trkpt>
      <trkpt lat="48.95525" lon="0.78965">
        <ele>175</ele>
        <time>2019-08-15T08:31:10.685Z</time>
      </trkpt>
      <trkpt lat="48.95525" lon="0.78977">
        <ele>175</ele>
        <time>2019-08-15T08:31:11.690Z</time>
      </trkpt>
      <trkpt lat="48.95525" lon="0.78977">
        <ele>175</ele>
        <time>2019-08-15T08:31:12.687Z</time>
      </trkpt>
      <trkpt lat="48.95524" lon="0.7899">
        <ele>175</ele>
        <time>2019-08-15T08:31:13.689Z</time>
      </trkpt>
      <trkpt lat="48.95524" lon="0.7899">
        <ele>175</ele>
        <time>2019-08-15T08:31:14.683Z</time>
      </trkpt>
      <trkpt lat="48.95518" lon="0.79001">
        <ele>175</ele>
        <time>2019-08-15T08:31:15.694Z</time>
      </trkpt>
      <trkpt lat="48.95518" lon="0.79001">
        <ele>175</ele>
        <time>2019-08-15T08:31:16.686Z</time>
      </trkpt>
      <trkpt lat="48.95511" lon="0.79013">
        <ele>175</ele>
        <time>2019-08-15T08:31:17.688Z</time>
      </trkpt>
      <trkpt lat="48.95511" lon="0.79013">
        <ele>175</ele>
        <time>2019-08-15T08:31:18.685Z</time>
      </trkpt>
      <trkpt lat="48.95504" lon="0.79023">
        <ele>175</ele>
        <time>2019-08-15T08:31:19.689Z</time>
      </trkpt>
      <trkpt lat="48.95504" lon="0.79023">
        <ele>175</ele>
        <time>2019-08-15T08:31:20.687Z</time>
      </trkpt>
      <trkpt lat="48.95498" lon="0.7903">
        <ele>176</ele>
        <time>2019-08-15T08:31:21.699Z</time>
      </trkpt>
      <trkpt lat="48.95496" lon="0.79034">
        <ele>176</ele>
        <time>2019-08-15T08:31:22.690Z</time>
      </trkpt>
      <trkpt lat="48.95496" lon="0.79034">
        <ele>176</ele>
        <time>2019-08-15T08:31:23.686Z</time>
      </trkpt>
      <trkpt lat="48.95493" lon="0.79041">
        <ele>176</ele>
        <time>2019-08-15T08:31:24.688Z</time>
      </trkpt>
      <trkpt lat="48.95493" lon="0.79041">
        <ele>176</ele>
        <time>2019-08-15T08:31:25.687Z</time>
      </trkpt>
      <trkpt lat="48.95489" lon="0.79047">
        <ele>177</ele>
        <time>2019-08-15T08:31:26.688Z</time>
      </trkpt>
      <trkpt lat="48.95487" lon="0.79051">
        <ele>177</ele>
        <time>2019-08-15T08:31:27.690Z</time>
      </trkpt>
      <trkpt lat="48.95487" lon="0.79051">
        <ele>177</ele>
        <time>2019-08-15T08:31:28.687Z</time>
      </trkpt>
      <trkpt lat="48.95487" lon="0.79058">
        <ele>177</ele>
        <time>2019-08-15T08:31:29.690Z</time>
      </trkpt>
      <trkpt lat="48.95487" lon="0.79058">
        <ele>177</ele>
        <time>2019-08-15T08:31:30.683Z</time>
      </trkpt>
      <trkpt lat="48.95492" lon="0.79065">
        <ele>177</ele>
        <time>2019-08-15T08:31:31.689Z</time>
      </trkpt>
      <trkpt lat="48.95492" lon="0.79065">
        <ele>177</ele>
        <time>2019-08-15T08:31:32.687Z</time>
      </trkpt>
      <trkpt lat="48.95498" lon="0.79074">
        <ele>177</ele>
        <time>2019-08-15T08:31:33.690Z</time>
      </trkpt>
      <trkpt lat="48.95498" lon="0.79074">
        <ele>177</ele>
        <time>2019-08-15T08:31:34.682Z</time>
      </trkpt>
      <trkpt lat="48.95505" lon="0.79082">
        <ele>177</ele>
        <time>2019-08-15T08:31:35.687Z</time>
      </trkpt>
      <trkpt lat="48.95505" lon="0.79082">
        <ele>177</ele>
        <time>2019-08-15T08:31:36.686Z</time>
      </trkpt>
      <trkpt lat="48.95513" lon="0.79092">
        <ele>177</ele>
        <time>2019-08-15T08:31:37.688Z</time>
      </trkpt>
      <trkpt lat="48.95513" lon="0.79092">
        <ele>177</ele>
        <time>2019-08-15T08:31:38.686Z</time>
      </trkpt>
      <trkpt lat="48.9552" lon="0.79103">
        <ele>177</ele>
        <time>2019-08-15T08:31:39.696Z</time>
      </trkpt>
      <trkpt lat="48.9552" lon="0.79103">
        <ele>177</ele>
        <time>2019-08-15T08:31:40.686Z</time>
      </trkpt>
      <trkpt lat="48.95527" lon="0.79113">
        <ele>177</ele>
        <time>2019-08-15T08:31:41.694Z</time>
      </trkpt>
      <trkpt lat="48.95527" lon="0.79113">
        <ele>177</ele>
        <time>2019-08-15T08:31:42.684Z</time>
      </trkpt>
      <trkpt lat="48.95533" lon="0.79122">
        <ele>177</ele>
        <time>2019-08-15T08:31:43.688Z</time>
      </trkpt>
      <trkpt lat="48.95536" lon="0.79126">
        <ele>177</ele>
        <time>2019-08-15T08:31:44.688Z</time>
      </trkpt>
      <trkpt lat="48.95536" lon="0.79126">
        <ele>177</ele>
        <time>2019-08-15T08:31:45.687Z</time>
      </trkpt>
      <trkpt lat="48.95542" lon="0.79135">
        <ele>177</ele>
        <time>2019-08-15T08:31:46.688Z</time>
      </trkpt>
      <trkpt lat="48.95544" lon="0.7914">
        <ele>177</ele>
        <time>2019-08-15T08:31:47.689Z</time>
      </trkpt>
      <trkpt lat="48.95544" lon="0.7914">
        <ele>177</ele>
        <time>2019-08-15T08:31:48.687Z</time>
      </trkpt>
      <trkpt lat="48.9555" lon="0.7915">
        <ele>176</ele>
        <time>2019-08-15T08:31:49.688Z</time>
      </trkpt>
      <trkpt lat="48.9555" lon="0.7915">
        <ele>176</ele>
        <time>2019-08-15T08:31:50.680Z</time>
      </trkpt>
      <trkpt lat="48.95556" lon="0.79159">
        <ele>176</ele>
        <time>2019-08-15T08:31:51.693Z</time>
      </trkpt>
      <trkpt lat="48.95556" lon="0.79159">
        <ele>176</ele>
        <time>2019-08-15T08:31:52.699Z</time>
      </trkpt>
      <trkpt lat="48.95562" lon="0.7917">
        <ele>176</ele>
        <time>2019-08-15T08:31:53.705Z</time>
      </trkpt>
      <trkpt lat="48.95562" lon="0.7917">
        <ele>176</ele>
        <time>2019-08-15T08:31:54.679Z</time>
      </trkpt>
      <trkpt lat="48.95568" lon="0.79179">
        <ele>176</ele>
        <time>2019-08-15T08:31:55.689Z</time>
      </trkpt>
      <trkpt lat="48.95568" lon="0.79179">
        <ele>176</ele>
        <time>2019-08-15T08:31:56.683Z</time>
      </trkpt>
      <trkpt lat="48.95574" lon="0.79189">
        <ele>176</ele>
        <time>2019-08-15T08:31:57.694Z</time>
      </trkpt>
      <trkpt lat="48.95574" lon="0.79189">
        <ele>176</ele>
        <time>2019-08-15T08:31:58.686Z</time>
      </trkpt>
      <trkpt lat="48.9558" lon="0.79199">
        <ele>175</ele>
        <time>2019-08-15T08:31:59.690Z</time>
      </trkpt>
      <trkpt lat="48.9558" lon="0.79199">
        <ele>175</ele>
        <time>2019-08-15T08:32:00.687Z</time>
      </trkpt>
      <trkpt lat="48.95585" lon="0.79209">
        <ele>175</ele>
        <time>2019-08-15T08:32:01.689Z</time>
      </trkpt>
      <trkpt lat="48.95588" lon="0.79213">
        <ele>174</ele>
        <time>2019-08-15T08:32:02.689Z</time>
      </trkpt>
      <trkpt lat="48.9559" lon="0.79219">
        <ele>174</ele>
        <time>2019-08-15T08:32:03.695Z</time>
      </trkpt>
      <trkpt lat="48.9559" lon="0.79219">
        <ele>174</ele>
        <time>2019-08-15T08:32:04.684Z</time>
      </trkpt>
      <trkpt lat="48.95597" lon="0.7923">
        <ele>175</ele>
        <time>2019-08-15T08:32:05.689Z</time>
      </trkpt>
      <trkpt lat="48.95597" lon="0.7923">
        <ele>175</ele>
        <time>2019-08-15T08:32:06.686Z</time>
      </trkpt>
      <trkpt lat="48.95603" lon="0.79242">
        <ele>175</ele>
        <time>2019-08-15T08:32:07.688Z</time>
      </trkpt>
      <trkpt lat="48.95603" lon="0.79242">
        <ele>175</ele>
        <time>2019-08-15T08:32:08.684Z</time>
      </trkpt>
      <trkpt lat="48.95608" lon="0.79255">
        <ele>174</ele>
        <time>2019-08-15T08:32:09.689Z</time>
      </trkpt>
      <trkpt lat="48.95608" lon="0.79255">
        <ele>174</ele>
        <time>2019-08-15T08:32:10.684Z</time>
      </trkpt>
      <trkpt lat="48.95614" lon="0.79267">
        <ele>175</ele>
        <time>2019-08-15T08:32:11.689Z</time>
      </trkpt>
      <trkpt lat="48.95614" lon="0.79267">
        <ele>175</ele>
        <time>2019-08-15T08:32:12.684Z</time>
      </trkpt>
      <trkpt lat="48.95619" lon="0.79279">
        <ele>174</ele>
        <time>2019-08-15T08:32:13.688Z</time>
      </trkpt>
      <trkpt lat="48.95619" lon="0.79279">
        <ele>174</ele>
        <time>2019-08-15T08:32:14.686Z</time>
      </trkpt>
      <trkpt lat="48.95624" lon="0.79292">
        <ele>174</ele>
        <time>2019-08-15T08:32:15.711Z</time>
      </trkpt>
      <trkpt lat="48.95624" lon="0.79292">
        <ele>174</ele>
        <time>2019-08-15T08:32:16.695Z</time>
      </trkpt>
      <trkpt lat="48.95629" lon="0.79304">
        <ele>174</ele>
        <time>2019-08-15T08:32:17.690Z</time>
      </trkpt>
      <trkpt lat="48.95629" lon="0.79304">
        <ele>174</ele>
        <time>2019-08-15T08:32:18.680Z</time>
      </trkpt>
      <trkpt lat="48.95635" lon="0.79315">
        <ele>174</ele>
        <time>2019-08-15T08:32:19.703Z</time>
      </trkpt>
      <trkpt lat="48.95638" lon="0.79319">
        <ele>174</ele>
        <time>2019-08-15T08:32:20.689Z</time>
      </trkpt>
      <trkpt lat="48.95638" lon="0.79319">
        <ele>174</ele>
        <time>2019-08-15T08:32:21.697Z</time>
      </trkpt>
      <trkpt lat="48.95646" lon="0.7932">
        <ele>174</ele>
        <time>2019-08-15T08:32:22.690Z</time>
      </trkpt>
      <trkpt lat="48.95646" lon="0.7932">
        <ele>174</ele>
        <time>2019-08-15T08:32:23.687Z</time>
      </trkpt>
      <trkpt lat="48.95654" lon="0.79313">
        <ele>174</ele>
        <time>2019-08-15T08:32:24.689Z</time>
      </trkpt>
      <trkpt lat="48.95658" lon="0.79309">
        <ele>174</ele>
        <time>2019-08-15T08:32:25.689Z</time>
      </trkpt>
      <trkpt lat="48.95662" lon="0.79304">
        <ele>173</ele>
        <time>2019-08-15T08:32:26.689Z</time>
      </trkpt>
      <trkpt lat="48.95662" lon="0.79304">
        <ele>173</ele>
        <time>2019-08-15T08:32:27.688Z</time>
      </trkpt>
      <trkpt lat="48.95668" lon="0.79294">
        <ele>174</ele>
        <time>2019-08-15T08:32:28.695Z</time>
      </trkpt>
      <trkpt lat="48.95671" lon="0.7929">
        <ele>174</ele>
        <time>2019-08-15T08:32:29.689Z</time>
      </trkpt>
      <trkpt lat="48.95671" lon="0.7929">
        <ele>174</ele>
        <time>2019-08-15T08:32:30.686Z</time>
      </trkpt>
      <trkpt lat="48.95678" lon="0.79282">
        <ele>174</ele>
        <time>2019-08-15T08:32:31.688Z</time>
      </trkpt>
      <trkpt lat="48.95678" lon="0.79282">
        <ele>174</ele>
        <time>2019-08-15T08:32:32.686Z</time>
      </trkpt>
      <trkpt lat="48.95683" lon="0.79275">
        <ele>173</ele>
        <time>2019-08-15T08:32:33.689Z</time>
      </trkpt>
      <trkpt lat="48.95683" lon="0.79275">
        <ele>173</ele>
        <time>2019-08-15T08:32:34.686Z</time>
      </trkpt>
      <trkpt lat="48.9569" lon="0.79267">
        <ele>174</ele>
        <time>2019-08-15T08:32:35.689Z</time>
      </trkpt>
      <trkpt lat="48.9569" lon="0.79267">
        <ele>174</ele>
        <time>2019-08-15T08:32:36.686Z</time>
      </trkpt>
      <trkpt lat="48.95697" lon="0.79259">
        <ele>174</ele>
        <time>2019-08-15T08:32:37.688Z</time>
      </trkpt>
      <trkpt lat="48.957" lon="0.79254">
        <ele>174</ele>
        <time>2019-08-15T08:32:38.690Z</time>
      </trkpt>
      <trkpt lat="48.95703" lon="0.79248">
        <ele>175</ele>
        <time>2019-08-15T08:32:39.702Z</time>
      </trkpt>
      <trkpt lat="48.95703" lon="0.79248">
        <ele>175</ele>
        <time>2019-08-15T08:32:40.686Z</time>
      </trkpt>
      <trkpt lat="48.9571" lon="0.79239">
        <ele>175</ele>
        <time>2019-08-15T08:32:41.690Z</time>
      </trkpt>
      <trkpt lat="48.9571" lon="0.79239">
        <ele>175</ele>
        <time>2019-08-15T08:32:42.686Z</time>
      </trkpt>
      <trkpt lat="48.95716" lon="0.7923">
        <ele>175</ele>
        <time>2019-08-15T08:32:43.695Z</time>
      </trkpt>
      <trkpt lat="48.95719" lon="0.79226">
        <ele>175</ele>
        <time>2019-08-15T08:32:44.688Z</time>
      </trkpt>
      <trkpt lat="48.95719" lon="0.79226">
        <ele>175</ele>
        <time>2019-08-15T08:32:45.685Z</time>
      </trkpt>
      <trkpt lat="48.95725" lon="0.79216">
        <ele>176</ele>
        <time>2019-08-15T08:32:46.689Z</time>
      </trkpt>
      <trkpt lat="48.95729" lon="0.79211">
        <ele>175</ele>
        <time>2019-08-15T08:32:47.687Z</time>
      </trkpt>
      <trkpt lat="48.95729" lon="0.79211">
        <ele>175</ele>
        <time>2019-08-15T08:32:48.690Z</time>
      </trkpt>
      <trkpt lat="48.95735" lon="0.792">
        <ele>175</ele>
        <time>2019-08-15T08:32:49.688Z</time>
      </trkpt>
      <trkpt lat="48.95735" lon="0.792">
        <ele>175</ele>
        <time>2019-08-15T08:32:50.699Z</time>
      </trkpt>
      <trkpt lat="48.95742" lon="0.79188">
        <ele>175</ele>
        <time>2019-08-15T08:32:51.707Z</time>
      </trkpt>
      <trkpt lat="48.95742" lon="0.79188">
        <ele>175</ele>
        <time>2019-08-15T08:32:52.717Z</time>
      </trkpt>
      <trkpt lat="48.9575" lon="0.79178">
        <ele>174</ele>
        <time>2019-08-15T08:32:53.690Z</time>
      </trkpt>
      <trkpt lat="48.9575" lon="0.79178">
        <ele>174</ele>
        <time>2019-08-15T08:32:54.684Z</time>
      </trkpt>
      <trkpt lat="48.95759" lon="0.79169">
        <ele>174</ele>
        <time>2019-08-15T08:32:55.688Z</time>
      </trkpt>
      <trkpt lat="48.95759" lon="0.79169">
        <ele>174</ele>
        <time>2019-08-15T08:32:56.687Z</time>
      </trkpt>
      <trkpt lat="48.95766" lon="0.79161">
        <ele>174</ele>
        <time>2019-08-15T08:32:57.690Z</time>
      </trkpt>
      <trkpt lat="48.95766" lon="0.79161">
        <ele>174</ele>
        <time>2019-08-15T08:32:58.683Z</time>
      </trkpt>
      <trkpt lat="48.95773" lon="0.79154">
        <ele>174</ele>
        <time>2019-08-15T08:32:59.706Z</time>
      </trkpt>
      <trkpt lat="48.95773" lon="0.79154">
        <ele>174</ele>
        <time>2019-08-15T08:33:00.688Z</time>
      </trkpt>
      <trkpt lat="48.95781" lon="0.79147">
        <ele>173</ele>
        <time>2019-08-15T08:33:01.690Z</time>
      </trkpt>
      <trkpt lat="48.95781" lon="0.79147">
        <ele>173</ele>
        <time>2019-08-15T08:33:02.687Z</time>
      </trkpt>
      <trkpt lat="48.95789" lon="0.79139">
        <ele>173</ele>
        <time>2019-08-15T08:33:03.695Z</time>
      </trkpt>
      <trkpt lat="48.95789" lon="0.79139">
        <ele>173</ele>
        <time>2019-08-15T08:33:04.686Z</time>
      </trkpt>
      <trkpt lat="48.95798" lon="0.7913">
        <ele>173</ele>
        <time>2019-08-15T08:33:05.689Z</time>
      </trkpt>
      <trkpt lat="48.95798" lon="0.7913">
        <ele>173</ele>
        <time>2019-08-15T08:33:06.686Z</time>
      </trkpt>
      <trkpt lat="48.95806" lon="0.79122">
        <ele>172</ele>
        <time>2019-08-15T08:33:07.688Z</time>
      </trkpt>
      <trkpt lat="48.95806" lon="0.79122">
        <ele>172</ele>
        <time>2019-08-15T08:33:08.681Z</time>
      </trkpt>
      <trkpt lat="48.95814" lon="0.79114">
        <ele>172</ele>
        <time>2019-08-15T08:33:09.703Z</time>
      </trkpt>
      <trkpt lat="48.95814" lon="0.79114">
        <ele>172</ele>
        <time>2019-08-15T08:33:10.685Z</time>
      </trkpt>
      <trkpt lat="48.95822" lon="0.79107">
        <ele>171</ele>
        <time>2019-08-15T08:33:11.689Z</time>
      </trkpt>
      <trkpt lat="48.95826" lon="0.79103">
        <ele>171</ele>
        <time>2019-08-15T08:33:12.679Z</time>
      </trkpt>
      <trkpt lat="48.95826" lon="0.79103">
        <ele>171</ele>
        <time>2019-08-15T08:33:13.704Z</time>
      </trkpt>
      <trkpt lat="48.95834" lon="0.79096">
        <ele>171</ele>
        <time>2019-08-15T08:33:14.688Z</time>
      </trkpt>
      <trkpt lat="48.95838" lon="0.79093">
        <ele>171</ele>
        <time>2019-08-15T08:33:15.690Z</time>
      </trkpt>
      <trkpt lat="48.95842" lon="0.79089">
        <ele>170</ele>
        <time>2019-08-15T08:33:16.687Z</time>
      </trkpt>
      <trkpt lat="48.95846" lon="0.79085">
        <ele>170</ele>
        <time>2019-08-15T08:33:17.695Z</time>
      </trkpt>
      <trkpt lat="48.95846" lon="0.79085">
        <ele>170</ele>
        <time>2019-08-15T08:33:18.686Z</time>
      </trkpt>
      <trkpt lat="48.95853" lon="0.79077">
        <ele>170</ele>
        <time>2019-08-15T08:33:19.688Z</time>
      </trkpt>
      <trkpt lat="48.95853" lon="0.79077">
        <ele>170</ele>
        <time>2019-08-15T08:33:20.686Z</time>
      </trkpt>
      <trkpt lat="48.95861" lon="0.79069">
        <ele>170</ele>
        <time>2019-08-15T08:33:21.695Z</time>
      </trkpt>
      <trkpt lat="48.95864" lon="0.79065">
        <ele>170</ele>
        <time>2019-08-15T08:33:22.690Z</time>
      </trkpt>
      <trkpt lat="48.95864" lon="0.79065">
        <ele>170</ele>
        <time>2019-08-15T08:33:23.687Z</time>
      </trkpt>
      <trkpt lat="48.95872" lon="0.79055">
        <ele>170</ele>
        <time>2019-08-15T08:33:24.687Z</time>
      </trkpt>
      <trkpt lat="48.95872" lon="0.79055">
        <ele>170</ele>
        <time>2019-08-15T08:33:25.687Z</time>
      </trkpt>
      <trkpt lat="48.9588" lon="0.79047">
        <ele>170</ele>
        <time>2019-08-15T08:33:26.688Z</time>
      </trkpt>
      <trkpt lat="48.95883" lon="0.79043">
        <ele>170</ele>
        <time>2019-08-15T08:33:27.695Z</time>
      </trkpt>
      <trkpt lat="48.95883" lon="0.79043">
        <ele>170</ele>
        <time>2019-08-15T08:33:28.686Z</time>
      </trkpt>
      <trkpt lat="48.95891" lon="0.79033">
        <ele>170</ele>
        <time>2019-08-15T08:33:29.703Z</time>
      </trkpt>
      <trkpt lat="48.95891" lon="0.79033">
        <ele>170</ele>
        <time>2019-08-15T08:33:30.686Z</time>
      </trkpt>
      <trkpt lat="48.95899" lon="0.79024">
        <ele>171</ele>
        <time>2019-08-15T08:33:31.689Z</time>
      </trkpt>
      <trkpt lat="48.95899" lon="0.79024">
        <ele>171</ele>
        <time>2019-08-15T08:33:32.686Z</time>
      </trkpt>
      <trkpt lat="48.95907" lon="0.79014">
        <ele>171</ele>
        <time>2019-08-15T08:33:33.689Z</time>
      </trkpt>
      <trkpt lat="48.95907" lon="0.79014">
        <ele>171</ele>
        <time>2019-08-15T08:33:34.686Z</time>
      </trkpt>
      <trkpt lat="48.95914" lon="0.79004">
        <ele>171</ele>
        <time>2019-08-15T08:33:35.688Z</time>
      </trkpt>
      <trkpt lat="48.95914" lon="0.79004">
        <ele>171</ele>
        <time>2019-08-15T08:33:36.686Z</time>
      </trkpt>
      <trkpt lat="48.95922" lon="0.78993">
        <ele>171</ele>
        <time>2019-08-15T08:33:37.687Z</time>
      </trkpt>
      <trkpt lat="48.95927" lon="0.78988">
        <ele>171</ele>
        <time>2019-08-15T08:33:38.688Z</time>
      </trkpt>
      <trkpt lat="48.95931" lon="0.78983">
        <ele>171</ele>
        <time>2019-08-15T08:33:39.694Z</time>
      </trkpt>
      <trkpt lat="48.95931" lon="0.78983">
        <ele>171</ele>
        <time>2019-08-15T08:33:40.685Z</time>
      </trkpt>
      <trkpt lat="48.95939" lon="0.78972">
        <ele>171</ele>
        <time>2019-08-15T08:33:41.689Z</time>
      </trkpt>
      <trkpt lat="48.95939" lon="0.78972">
        <ele>171</ele>
        <time>2019-08-15T08:33:42.695Z</time>
      </trkpt>
      <trkpt lat="48.95948" lon="0.78961">
        <ele>171</ele>
        <time>2019-08-15T08:33:43.688Z</time>
      </trkpt>
      <trkpt lat="48.95948" lon="0.78961">
        <ele>171</ele>
        <time>2019-08-15T08:33:44.688Z</time>
      </trkpt>
      <trkpt lat="48.95957" lon="0.7895">
        <ele>170</ele>
        <time>2019-08-15T08:33:45.694Z</time>
      </trkpt>
      <trkpt lat="48.95957" lon="0.7895">
        <ele>170</ele>
        <time>2019-08-15T08:33:46.683Z</time>
      </trkpt>
      <trkpt lat="48.95965" lon="0.7894">
        <ele>169</ele>
        <time>2019-08-15T08:33:47.689Z</time>
      </trkpt>
      <trkpt lat="48.95965" lon="0.7894">
        <ele>169</ele>
        <time>2019-08-15T08:33:48.687Z</time>
      </trkpt>
      <trkpt lat="48.95973" lon="0.78931">
        <ele>169</ele>
        <time>2019-08-15T08:33:49.688Z</time>
      </trkpt>
      <trkpt lat="48.95973" lon="0.78931">
        <ele>169</ele>
        <time>2019-08-15T08:33:50.683Z</time>
      </trkpt>
      <trkpt lat="48.95981" lon="0.78922">
        <ele>169</ele>
        <time>2019-08-15T08:33:51.694Z</time>
      </trkpt>
      <trkpt lat="48.95981" lon="0.78922">
        <ele>169</ele>
        <time>2019-08-15T08:33:52.685Z</time>
      </trkpt>
      <trkpt lat="48.9599" lon="0.78912">
        <ele>169</ele>
        <time>2019-08-15T08:33:53.689Z</time>
      </trkpt>
      <trkpt lat="48.95994" lon="0.78908">
        <ele>169</ele>
        <time>2019-08-15T08:33:54.696Z</time>
      </trkpt>
      <trkpt lat="48.95994" lon="0.78908">
        <ele>169</ele>
        <time>2019-08-15T08:33:55.684Z</time>
      </trkpt>
      <trkpt lat="48.96003" lon="0.78899">
        <ele>170</ele>
        <time>2019-08-15T08:33:56.689Z</time>
      </trkpt>
      <trkpt lat="48.96007" lon="0.78895">
        <ele>170</ele>
        <time>2019-08-15T08:33:57.695Z</time>
      </trkpt>
      <trkpt lat="48.96007" lon="0.78895">
        <ele>170</ele>
        <time>2019-08-15T08:33:58.686Z</time>
      </trkpt>
      <trkpt lat="48.96015" lon="0.78886">
        <ele>170</ele>
        <time>2019-08-15T08:33:59.695Z</time>
      </trkpt>
      <trkpt lat="48.96019" lon="0.78881">
        <ele>171</ele>
        <time>2019-08-15T08:34:00.689Z</time>
      </trkpt>
      <trkpt lat="48.96019" lon="0.78881">
        <ele>171</ele>
        <time>2019-08-15T08:34:01.686Z</time>
      </trkpt>
      <trkpt lat="48.96027" lon="0.78872">
        <ele>171</ele>
        <time>2019-08-15T08:34:02.688Z</time>
      </trkpt>
      <trkpt lat="48.9603" lon="0.78868">
        <ele>171</ele>
        <time>2019-08-15T08:34:03.690Z</time>
      </trkpt>
      <trkpt lat="48.96034" lon="0.78863">
        <ele>171</ele>
        <time>2019-08-15T08:34:04.689Z</time>
      </trkpt>
      <trkpt lat="48.96038" lon="0.7886">
        <ele>170</ele>
        <time>2019-08-15T08:34:05.690Z</time>
      </trkpt>
      <trkpt lat="48.96038" lon="0.7886">
        <ele>170</ele>
        <time>2019-08-15T08:34:06.686Z</time>
      </trkpt>
      <trkpt lat="48.96041" lon="0.78856">
        <ele>170</ele>
        <time>2019-08-15T08:34:07.686Z</time>
      </trkpt>
      <trkpt lat="48.96041" lon="0.78856">
        <ele>170</ele>
        <time>2019-08-15T08:34:08.684Z</time>
      </trkpt>
      <trkpt lat="48.9604" lon="0.78853">
        <ele>170</ele>
        <time>2019-08-15T08:34:09.715Z</time>
      </trkpt>
      <trkpt lat="48.96039" lon="0.78853">
        <ele>170</ele>
        <time>2019-08-15T08:34:10.699Z</time>
      </trkpt>
      <trkpt lat="48.96038" lon="0.78854">
        <ele>170</ele>
        <time>2019-08-15T08:34:11.689Z</time>
      </trkpt>
      <trkpt lat="48.96038" lon="0.78854">
        <ele>170</ele>
        <time>2019-08-15T08:34:12.684Z</time>
      </trkpt>
      <trkpt lat="48.96036" lon="0.78859">
        <ele>170</ele>
        <time>2019-08-15T08:34:13.689Z</time>
      </trkpt>
      <trkpt lat="48.96036" lon="0.78859">
        <ele>170</ele>
        <time>2019-08-15T08:34:14.687Z</time>
      </trkpt>
      <trkpt lat="48.96033" lon="0.78867">
        <ele>171</ele>
        <time>2019-08-15T08:34:15.690Z</time>
      </trkpt>
      <trkpt lat="48.96033" lon="0.78867">
        <ele>171</ele>
        <time>2019-08-15T08:34:16.686Z</time>
      </trkpt>
      <trkpt lat="48.96033" lon="0.78876">
        <ele>171</ele>
        <time>2019-08-15T08:34:17.689Z</time>
      </trkpt>
      <trkpt lat="48.96033" lon="0.78876">
        <ele>171</ele>
        <time>2019-08-15T08:34:18.685Z</time>
      </trkpt>
      <trkpt lat="48.96037" lon="0.78883">
        <ele>171</ele>
        <time>2019-08-15T08:34:19.709Z</time>
      </trkpt>
      <trkpt lat="48.96037" lon="0.78883">
        <ele>171</ele>
        <time>2019-08-15T08:34:20.694Z</time>
      </trkpt>
      <trkpt lat="48.96044" lon="0.78888">
        <ele>171</ele>
        <time>2019-08-15T08:34:21.695Z</time>
      </trkpt>
      <trkpt lat="48.96044" lon="0.78888">
        <ele>171</ele>
        <time>2019-08-15T08:34:22.687Z</time>
      </trkpt>
      <trkpt lat="48.96052" lon="0.78895">
        <ele>172</ele>
        <time>2019-08-15T08:34:23.689Z</time>
      </trkpt>
      <trkpt lat="48.96052" lon="0.78895">
        <ele>172</ele>
        <time>2019-08-15T08:34:24.686Z</time>
      </trkpt>
      <trkpt lat="48.9606" lon="0.78903">
        <ele>171</ele>
        <time>2019-08-15T08:34:25.688Z</time>
      </trkpt>
      <trkpt lat="48.96064" lon="0.78906">
        <ele>171</ele>
        <time>2019-08-15T08:34:26.695Z</time>
      </trkpt>
      <trkpt lat="48.96064" lon="0.78906">
        <ele>171</ele>
        <time>2019-08-15T08:34:27.687Z</time>
      </trkpt>
      <trkpt lat="48.96073" lon="0.78914">
        <ele>171</ele>
        <time>2019-08-15T08:34:28.688Z</time>
      </trkpt>
      <trkpt lat="48.96077" lon="0.78918">
        <ele>171</ele>
        <time>2019-08-15T08:34:29.690Z</time>
      </trkpt>
      <trkpt lat="48.96077" lon="0.78918">
        <ele>171</ele>
        <time>2019-08-15T08:34:30.683Z</time>
      </trkpt>
      <trkpt lat="48.96086" lon="0.78926">
        <ele>171</ele>
        <time>2019-08-15T08:34:31.688Z</time>
      </trkpt>
      <trkpt lat="48.96086" lon="0.78926">
        <ele>171</ele>
        <time>2019-08-15T08:34:32.685Z</time>
      </trkpt>
      <trkpt lat="48.96096" lon="0.78935">
        <ele>171</ele>
        <time>2019-08-15T08:34:33.690Z</time>
      </trkpt>
      <trkpt lat="48.96096" lon="0.78935">
        <ele>171</ele>
        <time>2019-08-15T08:34:34.689Z</time>
      </trkpt>
      <trkpt lat="48.96106" lon="0.78944">
        <ele>171</ele>
        <time>2019-08-15T08:34:35.689Z</time>
      </trkpt>
      <trkpt lat="48.96106" lon="0.78944">
        <ele>171</ele>
        <time>2019-08-15T08:34:36.686Z</time>
      </trkpt>
      <trkpt lat="48.96115" lon="0.78953">
        <ele>171</ele>
        <time>2019-08-15T08:34:37.688Z</time>
      </trkpt>
      <trkpt lat="48.9612" lon="0.78957">
        <ele>171</ele>
        <time>2019-08-15T08:34:38.688Z</time>
      </trkpt>
      <trkpt lat="48.96125" lon="0.78962">
        <ele>171</ele>
        <time>2019-08-15T08:34:39.698Z</time>
      </trkpt>
      <trkpt lat="48.96125" lon="0.78962">
        <ele>171</ele>
        <time>2019-08-15T08:34:40.708Z</time>
      </trkpt>
      <trkpt lat="48.96134" lon="0.78972">
        <ele>171</ele>
        <time>2019-08-15T08:34:41.694Z</time>
      </trkpt>
      <trkpt lat="48.96134" lon="0.78972">
        <ele>171</ele>
        <time>2019-08-15T08:34:42.687Z</time>
      </trkpt>
      <trkpt lat="48.96143" lon="0.78981">
        <ele>171</ele>
        <time>2019-08-15T08:34:43.688Z</time>
      </trkpt>
      <trkpt lat="48.96147" lon="0.78987">
        <ele>171</ele>
        <time>2019-08-15T08:34:44.689Z</time>
      </trkpt>
      <trkpt lat="48.96151" lon="0.78992">
        <ele>171</ele>
        <time>2019-08-15T08:34:45.694Z</time>
      </trkpt>
      <trkpt lat="48.96151" lon="0.78992">
        <ele>171</ele>
        <time>2019-08-15T08:34:46.686Z</time>
      </trkpt>
      <trkpt lat="48.9616" lon="0.79002">
        <ele>170</ele>
        <time>2019-08-15T08:34:47.689Z</time>
      </trkpt>
      <trkpt lat="48.9616" lon="0.79002">
        <ele>170</ele>
        <time>2019-08-15T08:34:48.686Z</time>
      </trkpt>
      <trkpt lat="48.96169" lon="0.79011">
        <ele>170</ele>
        <time>2019-08-15T08:34:49.688Z</time>
      </trkpt>
      <trkpt lat="48.96173" lon="0.79016">
        <ele>170</ele>
        <time>2019-08-15T08:34:50.681Z</time>
      </trkpt>
      <trkpt lat="48.96173" lon="0.79016">
        <ele>170</ele>
        <time>2019-08-15T08:34:51.705Z</time>
      </trkpt>
      <trkpt lat="48.96181" lon="0.79024">
        <ele>170</ele>
        <time>2019-08-15T08:34:52.689Z</time>
      </trkpt>
      <trkpt lat="48.96186" lon="0.79029">
        <ele>170</ele>
        <time>2019-08-15T08:34:53.688Z</time>
      </trkpt>
      <trkpt lat="48.96186" lon="0.79029">
        <ele>170</ele>
        <time>2019-08-15T08:34:54.687Z</time>
      </trkpt>
      <trkpt lat="48.96194" lon="0.79036">
        <ele>170</ele>
        <time>2019-08-15T08:34:55.689Z</time>
      </trkpt>
      <trkpt lat="48.96199" lon="0.7904">
        <ele>170</ele>
        <time>2019-08-15T08:34:56.689Z</time>
      </trkpt>
      <trkpt lat="48.96199" lon="0.7904">
        <ele>170</ele>
        <time>2019-08-15T08:34:57.688Z</time>
      </trkpt>
      <trkpt lat="48.96207" lon="0.79048">
        <ele>170</ele>
        <time>2019-08-15T08:34:58.686Z</time>
      </trkpt>
      <trkpt lat="48.96211" lon="0.79051">
        <ele>170</ele>
        <time>2019-08-15T08:34:59.691Z</time>
      </trkpt>
      <trkpt lat="48.96211" lon="0.79051">
        <ele>170</ele>
        <time>2019-08-15T08:35:00.686Z</time>
      </trkpt>
      <trkpt lat="48.96217" lon="0.79058">
        <ele>170</ele>
        <time>2019-08-15T08:35:01.708Z</time>
      </trkpt>
      <trkpt lat="48.96221" lon="0.79061">
        <ele>170</ele>
        <time>2019-08-15T08:35:02.694Z</time>
      </trkpt>
      <trkpt lat="48.96224" lon="0.79062">
        <ele>170</ele>
        <time>2019-08-15T08:35:03.701Z</time>
      </trkpt>
      <trkpt lat="48.96224" lon="0.79062">
        <ele>170</ele>
        <time>2019-08-15T08:35:04.686Z</time>
      </trkpt>
      <trkpt lat="48.96228" lon="0.79061">
        <ele>170</ele>
        <time>2019-08-15T08:35:05.694Z</time>
      </trkpt>
      <trkpt lat="48.96228" lon="0.79061">
        <ele>170</ele>
        <time>2019-08-15T08:35:06.684Z</time>
      </trkpt>
      <trkpt lat="48.96229" lon="0.79061">
        <ele>170</ele>
        <time>2019-08-15T08:35:07.689Z</time>
      </trkpt>
      <trkpt lat="48.96229" lon="0.79061">
        <ele>170</ele>
        <time>2019-08-15T08:35:08.686Z</time>
      </trkpt>
      <trkpt lat="48.96229" lon="0.79061">
        <ele>169</ele>
        <time>2019-08-15T08:35:09.683Z</time>
      </trkpt>
      <trkpt lat="48.96229" lon="0.79061">
        <ele>169</ele>
        <time>2019-08-15T08:35:10.689Z</time>
      </trkpt>
      <trkpt lat="48.96233" lon="0.79055">
        <ele>166</ele>
        <time>2019-08-15T08:35:11.716Z</time>
      </trkpt>
      <trkpt lat="48.96233" lon="0.79055">
        <ele>166</ele>
        <time>2019-08-15T08:35:12.715Z</time>
      </trkpt>
      <trkpt lat="48.96236" lon="0.79047">
        <ele>165</ele>
        <time>2019-08-15T08:35:13.715Z</time>
      </trkpt>
      <trkpt lat="48.96236" lon="0.79047">
        <ele>165</ele>
        <time>2019-08-15T08:35:14.712Z</time>
      </trkpt>
      <trkpt lat="48.96239" lon="0.79039">
        <ele>165</ele>
        <time>2019-08-15T08:35:15.698Z</time>
      </trkpt>
      <trkpt lat="48.96241" lon="0.79037">
        <ele>165</ele>
        <time>2019-08-15T08:35:16.694Z</time>
      </trkpt>
      <trkpt lat="48.96245" lon="0.79035">
        <ele>165</ele>
        <time>2019-08-15T08:35:17.682Z</time>
      </trkpt>
      <trkpt lat="48.96245" lon="0.79035">
        <ele>165</ele>
        <time>2019-08-15T08:35:18.711Z</time>
      </trkpt>
      <trkpt lat="48.96252" lon="0.79037">
        <ele>165</ele>
        <time>2019-08-15T08:35:19.715Z</time>
      </trkpt>
      <trkpt lat="48.96255" lon="0.7904">
        <ele>166</ele>
        <time>2019-08-15T08:35:20.682Z</time>
      </trkpt>
      <trkpt lat="48.96255" lon="0.7904">
        <ele>166</ele>
        <time>2019-08-15T08:35:21.715Z</time>
      </trkpt>
      <trkpt lat="48.96262" lon="0.79045">
        <ele>166</ele>
        <time>2019-08-15T08:35:22.716Z</time>
      </trkpt>
      <trkpt lat="48.96266" lon="0.79048">
        <ele>166</ele>
        <time>2019-08-15T08:35:23.717Z</time>
      </trkpt>
      <trkpt lat="48.9627" lon="0.79051">
        <ele>166</ele>
        <time>2019-08-15T08:35:24.678Z</time>
      </trkpt>
      <trkpt lat="48.9627" lon="0.79051">
        <ele>166</ele>
        <time>2019-08-15T08:35:25.711Z</time>
      </trkpt>
      <trkpt lat="48.96279" lon="0.79057">
        <ele>166</ele>
        <time>2019-08-15T08:35:26.698Z</time>
      </trkpt>
      <trkpt lat="48.96279" lon="0.79057">
        <ele>166</ele>
        <time>2019-08-15T08:35:27.715Z</time>
      </trkpt>
      <trkpt lat="48.96287" lon="0.79064">
        <ele>166</ele>
        <time>2019-08-15T08:35:28.716Z</time>
      </trkpt>
      <trkpt lat="48.96287" lon="0.79064">
        <ele>166</ele>
        <time>2019-08-15T08:35:29.716Z</time>
      </trkpt>
      <trkpt lat="48.96295" lon="0.7907">
        <ele>166</ele>
        <time>2019-08-15T08:35:30.715Z</time>
      </trkpt>
      <trkpt lat="48.963" lon="0.79074">
        <ele>166</ele>
        <time>2019-08-15T08:35:31.717Z</time>
      </trkpt>
      <trkpt lat="48.963" lon="0.79074">
        <ele>166</ele>
        <time>2019-08-15T08:35:32.712Z</time>
      </trkpt>
      <trkpt lat="48.96308" lon="0.7908">
        <ele>166</ele>
        <time>2019-08-15T08:35:33.682Z</time>
      </trkpt>
      <trkpt lat="48.96308" lon="0.7908">
        <ele>166</ele>
        <time>2019-08-15T08:35:34.712Z</time>
      </trkpt>
      <trkpt lat="48.96312" lon="0.79092">
        <ele>166</ele>
        <time>2019-08-15T08:35:35.712Z</time>
      </trkpt>
      <trkpt lat="48.96312" lon="0.79099">
        <ele>166</ele>
        <time>2019-08-15T08:35:36.678Z</time>
      </trkpt>
      <trkpt lat="48.9631" lon="0.79105">
        <ele>166</ele>
        <time>2019-08-15T08:35:37.718Z</time>
      </trkpt>
      <trkpt lat="48.9631" lon="0.79105">
        <ele>166</ele>
        <time>2019-08-15T08:35:38.715Z</time>
      </trkpt>
      <trkpt lat="48.96307" lon="0.79118">
        <ele>166</ele>
        <time>2019-08-15T08:35:39.682Z</time>
      </trkpt>
      <trkpt lat="48.96307" lon="0.79118">
        <ele>166</ele>
        <time>2019-08-15T08:35:40.711Z</time>
      </trkpt>
      <trkpt lat="48.96304" lon="0.79131">
        <ele>166</ele>
        <time>2019-08-15T08:35:41.717Z</time>
      </trkpt>
      <trkpt lat="48.96303" lon="0.79138">
        <ele>166</ele>
        <time>2019-08-15T08:35:42.716Z</time>
      </trkpt>
      <trkpt lat="48.96303" lon="0.79138">
        <ele>166</ele>
        <time>2019-08-15T08:35:43.715Z</time>
      </trkpt>
      <trkpt lat="48.963" lon="0.79152">
        <ele>166</ele>
        <time>2019-08-15T08:35:44.717Z</time>
      </trkpt>
      <trkpt lat="48.96299" lon="0.7916">
        <ele>166</ele>
        <time>2019-08-15T08:35:45.678Z</time>
      </trkpt>
      <trkpt lat="48.96299" lon="0.7916">
        <ele>166</ele>
        <time>2019-08-15T08:35:46.712Z</time>
      </trkpt>
      <trkpt lat="48.96299" lon="0.79174">
        <ele>166</ele>
        <time>2019-08-15T08:35:47.717Z</time>
      </trkpt>
      <trkpt lat="48.96299" lon="0.79174">
        <ele>166</ele>
        <time>2019-08-15T08:35:48.709Z</time>
      </trkpt>
      <trkpt lat="48.96299" lon="0.79188">
        <ele>166</ele>
        <time>2019-08-15T08:35:49.693Z</time>
      </trkpt>
      <trkpt lat="48.96299" lon="0.79188">
        <ele>166</ele>
        <time>2019-08-15T08:35:50.715Z</time>
      </trkpt>
      <trkpt lat="48.96302" lon="0.79202">
        <ele>166</ele>
        <time>2019-08-15T08:35:51.716Z</time>
      </trkpt>
      <trkpt lat="48.96302" lon="0.79202">
        <ele>166</ele>
        <time>2019-08-15T08:35:52.711Z</time>
      </trkpt>
      <trkpt lat="48.96301" lon="0.79215">
        <ele>166</ele>
        <time>2019-08-15T08:35:53.716Z</time>
      </trkpt>
      <trkpt lat="48.96301" lon="0.79215">
        <ele>166</ele>
        <time>2019-08-15T08:35:54.712Z</time>
      </trkpt>
      <trkpt lat="48.96299" lon="0.79225">
        <ele>166</ele>
        <time>2019-08-15T08:35:55.715Z</time>
      </trkpt>
      <trkpt lat="48.96299" lon="0.79225">
        <ele>166</ele>
        <time>2019-08-15T08:35:56.712Z</time>
      </trkpt>
      <trkpt lat="48.96302" lon="0.79234">
        <ele>166</ele>
        <time>2019-08-15T08:35:57.691Z</time>
      </trkpt>
      <trkpt lat="48.96305" lon="0.79238">
        <ele>165</ele>
        <time>2019-08-15T08:35:58.682Z</time>
      </trkpt>
      <trkpt lat="48.96305" lon="0.79238">
        <ele>165</ele>
        <time>2019-08-15T08:35:59.715Z</time>
      </trkpt>
      <trkpt lat="48.96309" lon="0.79248">
        <ele>165</ele>
        <time>2019-08-15T08:36:00.713Z</time>
      </trkpt>
      <trkpt lat="48.96309" lon="0.79248">
        <ele>165</ele>
        <time>2019-08-15T08:36:01.713Z</time>
      </trkpt>
      <trkpt lat="48.96316" lon="0.79258">
        <ele>165</ele>
        <time>2019-08-15T08:36:02.718Z</time>
      </trkpt>
      <trkpt lat="48.96316" lon="0.79258">
        <ele>165</ele>
        <time>2019-08-15T08:36:03.718Z</time>
      </trkpt>
      <trkpt lat="48.96323" lon="0.79268">
        <ele>165</ele>
        <time>2019-08-15T08:36:04.717Z</time>
      </trkpt>
      <trkpt lat="48.96323" lon="0.79268">
        <ele>165</ele>
        <time>2019-08-15T08:36:05.714Z</time>
      </trkpt>
      <trkpt lat="48.9633" lon="0.79279">
        <ele>165</ele>
        <time>2019-08-15T08:36:06.717Z</time>
      </trkpt>
      <trkpt lat="48.9633" lon="0.79279">
        <ele>165</ele>
        <time>2019-08-15T08:36:07.712Z</time>
      </trkpt>
      <trkpt lat="48.96337" lon="0.79288">
        <ele>165</ele>
        <time>2019-08-15T08:36:08.715Z</time>
      </trkpt>
      <trkpt lat="48.96341" lon="0.79293">
        <ele>164</ele>
        <time>2019-08-15T08:36:09.682Z</time>
      </trkpt>
      <trkpt lat="48.96341" lon="0.79293">
        <ele>164</ele>
        <time>2019-08-15T08:36:10.713Z</time>
      </trkpt>
      <trkpt lat="48.96349" lon="0.79303">
        <ele>164</ele>
        <time>2019-08-15T08:36:11.717Z</time>
      </trkpt>
      <trkpt lat="48.96349" lon="0.79303">
        <ele>164</ele>
        <time>2019-08-15T08:36:12.713Z</time>
      </trkpt>
      <trkpt lat="48.96357" lon="0.79314">
        <ele>164</ele>
        <time>2019-08-15T08:36:13.714Z</time>
      </trkpt>
      <trkpt lat="48.96357" lon="0.79314">
        <ele>164</ele>
        <time>2019-08-15T08:36:14.716Z</time>
      </trkpt>
      <trkpt lat="48.96365" lon="0.79324">
        <ele>164</ele>
        <time>2019-08-15T08:36:15.683Z</time>
      </trkpt>
      <trkpt lat="48.96365" lon="0.79324">
        <ele>164</ele>
        <time>2019-08-15T08:36:16.711Z</time>
      </trkpt>
      <trkpt lat="48.96373" lon="0.79335">
        <ele>164</ele>
        <time>2019-08-15T08:36:17.714Z</time>
      </trkpt>
      <trkpt lat="48.96377" lon="0.7934">
        <ele>164</ele>
        <time>2019-08-15T08:36:18.715Z</time>
      </trkpt>
      <trkpt lat="48.96381" lon="0.79345">
        <ele>164</ele>
        <time>2019-08-15T08:36:19.712Z</time>
      </trkpt>
      <trkpt lat="48.96384" lon="0.79349">
        <ele>165</ele>
        <time>2019-08-15T08:36:20.716Z</time>
      </trkpt>
      <trkpt lat="48.96384" lon="0.79349">
        <ele>165</ele>
        <time>2019-08-15T08:36:21.712Z</time>
      </trkpt>
      <trkpt lat="48.9639" lon="0.79358">
        <ele>165</ele>
        <time>2019-08-15T08:36:22.716Z</time>
      </trkpt>
      <trkpt lat="48.96393" lon="0.79364">
        <ele>165</ele>
        <time>2019-08-15T08:36:23.717Z</time>
      </trkpt>
      <trkpt lat="48.96393" lon="0.79364">
        <ele>165</ele>
        <time>2019-08-15T08:36:24.712Z</time>
      </trkpt>
      <trkpt lat="48.96399" lon="0.79373">
        <ele>165</ele>
        <time>2019-08-15T08:36:25.717Z</time>
      </trkpt>
      <trkpt lat="48.96399" lon="0.79373">
        <ele>165</ele>
        <time>2019-08-15T08:36:26.714Z</time>
      </trkpt>
      <trkpt lat="48.96405" lon="0.79383">
        <ele>165</ele>
        <time>2019-08-15T08:36:27.717Z</time>
      </trkpt>
      <trkpt lat="48.96407" lon="0.79388">
        <ele>165</ele>
        <time>2019-08-15T08:36:28.714Z</time>
      </trkpt>
      <trkpt lat="48.9641" lon="0.79392">
        <ele>165</ele>
        <time>2019-08-15T08:36:29.716Z</time>
      </trkpt>
      <trkpt lat="48.9641" lon="0.79392">
        <ele>165</ele>
        <time>2019-08-15T08:36:30.705Z</time>
      </trkpt>
      <trkpt lat="48.96415" lon="0.79401">
        <ele>165</ele>
        <time>2019-08-15T08:36:31.689Z</time>
      </trkpt>
      <trkpt lat="48.96416" lon="0.79406">
        <ele>164</ele>
        <time>2019-08-15T08:36:32.717Z</time>
      </trkpt>
      <trkpt lat="48.96416" lon="0.79406">
        <ele>164</ele>
        <time>2019-08-15T08:36:33.712Z</time>
      </trkpt>
      <trkpt lat="48.96415" lon="0.79415">
        <ele>164</ele>
        <time>2019-08-15T08:36:34.716Z</time>
      </trkpt>
      <trkpt lat="48.96413" lon="0.79419">
        <ele>164</ele>
        <time>2019-08-15T08:36:35.717Z</time>
      </trkpt>
      <trkpt lat="48.96413" lon="0.79419">
        <ele>164</ele>
        <time>2019-08-15T08:36:36.717Z</time>
      </trkpt>
      <trkpt lat="48.96409" lon="0.7943">
        <ele>164</ele>
        <time>2019-08-15T08:36:37.686Z</time>
      </trkpt>
      <trkpt lat="48.96409" lon="0.7943">
        <ele>164</ele>
        <time>2019-08-15T08:36:38.714Z</time>
      </trkpt>
      <trkpt lat="48.96406" lon="0.79441">
        <ele>164</ele>
        <time>2019-08-15T08:36:39.717Z</time>
      </trkpt>
      <trkpt lat="48.96406" lon="0.79441">
        <ele>164</ele>
        <time>2019-08-15T08:36:40.714Z</time>
      </trkpt>
      <trkpt lat="48.964" lon="0.79451">
        <ele>163</ele>
        <time>2019-08-15T08:36:41.717Z</time>
      </trkpt>
      <trkpt lat="48.964" lon="0.79451">
        <ele>163</ele>
        <time>2019-08-15T08:36:42.712Z</time>
      </trkpt>
      <trkpt lat="48.96395" lon="0.79462">
        <ele>163</ele>
        <time>2019-08-15T08:36:43.682Z</time>
      </trkpt>
      <trkpt lat="48.96395" lon="0.79462">
        <ele>163</ele>
        <time>2019-08-15T08:36:44.714Z</time>
      </trkpt>
      <trkpt lat="48.9639" lon="0.79474">
        <ele>162</ele>
        <time>2019-08-15T08:36:45.717Z</time>
      </trkpt>
      <trkpt lat="48.96388" lon="0.7948">
        <ele>162</ele>
        <time>2019-08-15T08:36:46.714Z</time>
      </trkpt>
      <trkpt lat="48.96388" lon="0.7948">
        <ele>162</ele>
        <time>2019-08-15T08:36:47.691Z</time>
      </trkpt>
      <trkpt lat="48.96386" lon="0.7949">
        <ele>162</ele>
        <time>2019-08-15T08:36:48.716Z</time>
      </trkpt>
      <trkpt lat="48.96386" lon="0.7949">
        <ele>162</ele>
        <time>2019-08-15T08:36:49.711Z</time>
      </trkpt>
      <trkpt lat="48.96389" lon="0.79497">
        <ele>161</ele>
        <time>2019-08-15T08:36:50.696Z</time>
      </trkpt>
      <trkpt lat="48.96389" lon="0.79497">
        <ele>161</ele>
        <time>2019-08-15T08:36:51.700Z</time>
      </trkpt>
      <trkpt lat="48.96392" lon="0.79499">
        <ele>161</ele>
        <time>2019-08-15T08:36:52.708Z</time>
      </trkpt>
      <trkpt lat="48.96394" lon="0.79499">
        <ele>161</ele>
        <time>2019-08-15T08:36:53.692Z</time>
      </trkpt>
      <trkpt lat="48.96394" lon="0.79499">
        <ele>161</ele>
        <time>2019-08-15T08:36:54.716Z</time>
      </trkpt>
      <trkpt lat="48.96399" lon="0.79504">
        <ele>161</ele>
        <time>2019-08-15T08:36:55.718Z</time>
      </trkpt>
      <trkpt lat="48.96399" lon="0.79504">
        <ele>161</ele>
        <time>2019-08-15T08:36:56.708Z</time>
      </trkpt>
      <trkpt lat="48.96405" lon="0.79512">
        <ele>161</ele>
        <time>2019-08-15T08:36:57.692Z</time>
      </trkpt>
      <trkpt lat="48.96405" lon="0.79512">
        <ele>161</ele>
        <time>2019-08-15T08:36:58.715Z</time>
      </trkpt>
      <trkpt lat="48.96412" lon="0.79521">
        <ele>161</ele>
        <time>2019-08-15T08:36:59.717Z</time>
      </trkpt>
      <trkpt lat="48.96412" lon="0.79521">
        <ele>161</ele>
        <time>2019-08-15T08:37:00.714Z</time>
      </trkpt>
      <trkpt lat="48.96419" lon="0.79531">
        <ele>161</ele>
        <time>2019-08-15T08:37:01.717Z</time>
      </trkpt>
      <trkpt lat="48.96419" lon="0.79531">
        <ele>161</ele>
        <time>2019-08-15T08:37:02.712Z</time>
      </trkpt>
      <trkpt lat="48.96427" lon="0.79537">
        <ele>161</ele>
        <time>2019-08-15T08:37:03.716Z</time>
      </trkpt>
      <trkpt lat="48.96427" lon="0.79537">
        <ele>161</ele>
        <time>2019-08-15T08:37:04.714Z</time>
      </trkpt>
      <trkpt lat="48.96436" lon="0.7954">
        <ele>162</ele>
        <time>2019-08-15T08:37:05.717Z</time>
      </trkpt>
      <trkpt lat="48.96436" lon="0.7954">
        <ele>162</ele>
        <time>2019-08-15T08:37:06.714Z</time>
      </trkpt>
      <trkpt lat="48.96446" lon="0.79537">
        <ele>162</ele>
        <time>2019-08-15T08:37:07.691Z</time>
      </trkpt>
      <trkpt lat="48.96446" lon="0.79537">
        <ele>162</ele>
        <time>2019-08-15T08:37:08.715Z</time>
      </trkpt>
      <trkpt lat="48.96456" lon="0.79535">
        <ele>162</ele>
        <time>2019-08-15T08:37:09.714Z</time>
      </trkpt>
      <trkpt lat="48.96456" lon="0.79535">
        <ele>162</ele>
        <time>2019-08-15T08:37:10.712Z</time>
      </trkpt>
      <trkpt lat="48.96466" lon="0.79534">
        <ele>162</ele>
        <time>2019-08-15T08:37:11.714Z</time>
      </trkpt>
      <trkpt lat="48.96471" lon="0.79533">
        <ele>162</ele>
        <time>2019-08-15T08:37:12.696Z</time>
      </trkpt>
      <trkpt lat="48.96476" lon="0.79533">
        <ele>162</ele>
        <time>2019-08-15T08:37:13.683Z</time>
      </trkpt>
      <trkpt lat="48.96476" lon="0.79533">
        <ele>162</ele>
        <time>2019-08-15T08:37:14.711Z</time>
      </trkpt>
      <trkpt lat="48.96486" lon="0.79532">
        <ele>162</ele>
        <time>2019-08-15T08:37:15.682Z</time>
      </trkpt>
      <trkpt lat="48.96486" lon="0.79532">
        <ele>162</ele>
        <time>2019-08-15T08:37:16.682Z</time>
      </trkpt>
      <trkpt lat="48.96497" lon="0.79532">
        <ele>163</ele>
        <time>2019-08-15T08:37:17.717Z</time>
      </trkpt>
      <trkpt lat="48.96502" lon="0.79532">
        <ele>162</ele>
        <time>2019-08-15T08:37:18.714Z</time>
      </trkpt>
      <trkpt lat="48.96507" lon="0.79534">
        <ele>162</ele>
        <time>2019-08-15T08:37:19.716Z</time>
      </trkpt>
      <trkpt lat="48.96507" lon="0.79534">
        <ele>162</ele>
        <time>2019-08-15T08:37:20.712Z</time>
      </trkpt>
      <trkpt lat="48.96517" lon="0.79539">
        <ele>162</ele>
        <time>2019-08-15T08:37:21.688Z</time>
      </trkpt>
      <trkpt lat="48.96517" lon="0.79539">
        <ele>162</ele>
        <time>2019-08-15T08:37:22.716Z</time>
      </trkpt>
      <trkpt lat="48.96526" lon="0.79545">
        <ele>162</ele>
        <time>2019-08-15T08:37:23.717Z</time>
      </trkpt>
      <trkpt lat="48.96526" lon="0.79545">
        <ele>162</ele>
        <time>2019-08-15T08:37:24.712Z</time>
      </trkpt>
      <trkpt lat="48.96534" lon="0.79552">
        <ele>162</ele>
        <time>2019-08-15T08:37:25.715Z</time>
      </trkpt>
      <trkpt lat="48.96534" lon="0.79552">
        <ele>162</ele>
        <time>2019-08-15T08:37:26.715Z</time>
      </trkpt>
      <trkpt lat="48.96541" lon="0.79558">
        <ele>163</ele>
        <time>2019-08-15T08:37:27.682Z</time>
      </trkpt>
      <trkpt lat="48.96545" lon="0.79562">
        <ele>163</ele>
        <time>2019-08-15T08:37:28.716Z</time>
      </trkpt>
      <trkpt lat="48.96545" lon="0.79562">
        <ele>163</ele>
        <time>2019-08-15T08:37:29.712Z</time>
      </trkpt>
      <trkpt lat="48.96553" lon="0.79571">
        <ele>164</ele>
        <time>2019-08-15T08:37:30.715Z</time>
      </trkpt>
      <trkpt lat="48.96553" lon="0.79571">
        <ele>164</ele>
        <time>2019-08-15T08:37:31.714Z</time>
      </trkpt>
      <trkpt lat="48.96561" lon="0.79581">
        <ele>164</ele>
        <time>2019-08-15T08:37:32.717Z</time>
      </trkpt>
      <trkpt lat="48.96561" lon="0.79581">
        <ele>164</ele>
        <time>2019-08-15T08:37:33.708Z</time>
      </trkpt>
      <trkpt lat="48.96569" lon="0.79589">
        <ele>165</ele>
        <time>2019-08-15T08:37:34.692Z</time>
      </trkpt>
      <trkpt lat="48.96572" lon="0.79593">
        <ele>165</ele>
        <time>2019-08-15T08:37:35.717Z</time>
      </trkpt>
      <trkpt lat="48.96572" lon="0.79593">
        <ele>165</ele>
        <time>2019-08-15T08:37:36.712Z</time>
      </trkpt>
      <trkpt lat="48.9658" lon="0.79602">
        <ele>165</ele>
        <time>2019-08-15T08:37:37.715Z</time>
      </trkpt>
      <trkpt lat="48.9658" lon="0.79602">
        <ele>165</ele>
        <time>2019-08-15T08:37:38.713Z</time>
      </trkpt>
      <trkpt lat="48.96588" lon="0.79611">
        <ele>163</ele>
        <time>2019-08-15T08:37:39.716Z</time>
      </trkpt>
      <trkpt lat="48.96588" lon="0.79611">
        <ele>163</ele>
        <time>2019-08-15T08:37:40.714Z</time>
      </trkpt>
      <trkpt lat="48.96598" lon="0.79618">
        <ele>163</ele>
        <time>2019-08-15T08:37:41.716Z</time>
      </trkpt>
      <trkpt lat="48.96598" lon="0.79618">
        <ele>163</ele>
        <time>2019-08-15T08:37:42.714Z</time>
      </trkpt>
      <trkpt lat="48.96607" lon="0.79626">
        <ele>163</ele>
        <time>2019-08-15T08:37:43.714Z</time>
      </trkpt>
      <trkpt lat="48.96612" lon="0.7963">
        <ele>163</ele>
        <time>2019-08-15T08:37:44.717Z</time>
      </trkpt>
      <trkpt lat="48.96612" lon="0.7963">
        <ele>163</ele>
        <time>2019-08-15T08:37:45.712Z</time>
      </trkpt>
      <trkpt lat="48.9662" lon="0.79641">
        <ele>162</ele>
        <time>2019-08-15T08:37:46.717Z</time>
      </trkpt>
      <trkpt lat="48.96625" lon="0.79647">
        <ele>162</ele>
        <time>2019-08-15T08:37:47.717Z</time>
      </trkpt>
      <trkpt lat="48.96625" lon="0.79647">
        <ele>162</ele>
        <time>2019-08-15T08:37:48.714Z</time>
      </trkpt>
      <trkpt lat="48.96632" lon="0.79661">
        <ele>161</ele>
        <time>2019-08-15T08:37:49.717Z</time>
      </trkpt>
      <trkpt lat="48.96632" lon="0.79661">
        <ele>161</ele>
        <time>2019-08-15T08:37:50.692Z</time>
      </trkpt>
      <trkpt lat="48.96637" lon="0.79674">
        <ele>161</ele>
        <time>2019-08-15T08:37:51.717Z</time>
      </trkpt>
      <trkpt lat="48.9664" lon="0.7968">
        <ele>161</ele>
        <time>2019-08-15T08:37:52.683Z</time>
      </trkpt>
      <trkpt lat="48.96643" lon="0.79686">
        <ele>161</ele>
        <time>2019-08-15T08:37:53.689Z</time>
      </trkpt>
      <trkpt lat="48.96646" lon="0.79693">
        <ele>160</ele>
        <time>2019-08-15T08:37:54.717Z</time>
      </trkpt>
      <trkpt lat="48.96646" lon="0.79693">
        <ele>160</ele>
        <time>2019-08-15T08:37:55.714Z</time>
      </trkpt>
      <trkpt lat="48.9665" lon="0.79705">
        <ele>160</ele>
        <time>2019-08-15T08:37:56.717Z</time>
      </trkpt>
      <trkpt lat="48.9665" lon="0.79705">
        <ele>160</ele>
        <time>2019-08-15T08:37:57.688Z</time>
      </trkpt>
      <trkpt lat="48.96655" lon="0.79716">
        <ele>160</ele>
        <time>2019-08-15T08:37:58.716Z</time>
      </trkpt>
      <trkpt lat="48.96658" lon="0.79721">
        <ele>159</ele>
        <time>2019-08-15T08:37:59.714Z</time>
      </trkpt>
      <trkpt lat="48.96658" lon="0.79721">
        <ele>159</ele>
        <time>2019-08-15T08:38:00.712Z</time>
      </trkpt>
      <trkpt lat="48.96661" lon="0.79731">
        <ele>160</ele>
        <time>2019-08-15T08:38:01.717Z</time>
      </trkpt>
      <trkpt lat="48.96662" lon="0.79736">
        <ele>160</ele>
        <time>2019-08-15T08:38:02.717Z</time>
      </trkpt>
      <trkpt lat="48.96662" lon="0.79736">
        <ele>160</ele>
        <time>2019-08-15T08:38:03.715Z</time>
      </trkpt>
      <trkpt lat="48.96666" lon="0.79745">
        <ele>161</ele>
        <time>2019-08-15T08:38:04.716Z</time>
      </trkpt>
      <trkpt lat="48.96666" lon="0.79745">
        <ele>161</ele>
        <time>2019-08-15T08:38:05.708Z</time>
      </trkpt>
      <trkpt lat="48.96669" lon="0.79756">
        <ele>161</ele>
        <time>2019-08-15T08:38:06.698Z</time>
      </trkpt>
      <trkpt lat="48.96669" lon="0.79756">
        <ele>161</ele>
        <time>2019-08-15T08:38:07.715Z</time>
      </trkpt>
      <trkpt lat="48.96673" lon="0.79768">
        <ele>160</ele>
        <time>2019-08-15T08:38:08.716Z</time>
      </trkpt>
      <trkpt lat="48.96674" lon="0.79774">
        <ele>160</ele>
        <time>2019-08-15T08:38:09.682Z</time>
      </trkpt>
      <trkpt lat="48.96674" lon="0.79774">
        <ele>160</ele>
        <time>2019-08-15T08:38:10.713Z</time>
      </trkpt>
      <trkpt lat="48.96678" lon="0.79786">
        <ele>160</ele>
        <time>2019-08-15T08:38:11.716Z</time>
      </trkpt>
      <trkpt lat="48.9668" lon="0.79792">
        <ele>160</ele>
        <time>2019-08-15T08:38:12.717Z</time>
      </trkpt>
      <trkpt lat="48.9668" lon="0.79792">
        <ele>160</ele>
        <time>2019-08-15T08:38:13.711Z</time>
      </trkpt>
      <trkpt lat="48.96685" lon="0.79805">
        <ele>160</ele>
        <time>2019-08-15T08:38:14.681Z</time>
      </trkpt>
      <trkpt lat="48.96685" lon="0.79805">
        <ele>160</ele>
        <time>2019-08-15T08:38:15.714Z</time>
      </trkpt>
      <trkpt lat="48.96691" lon="0.79818">
        <ele>159</ele>
        <time>2019-08-15T08:38:16.716Z</time>
      </trkpt>
      <trkpt lat="48.96693" lon="0.79825">
        <ele>160</ele>
        <time>2019-08-15T08:38:17.714Z</time>
      </trkpt>
      <trkpt lat="48.96693" lon="0.79825">
        <ele>160</ele>
        <time>2019-08-15T08:38:18.711Z</time>
      </trkpt>
      <trkpt lat="48.96699" lon="0.79838">
        <ele>160</ele>
        <time>2019-08-15T08:38:19.716Z</time>
      </trkpt>
      <trkpt lat="48.96699" lon="0.79838">
        <ele>160</ele>
        <time>2019-08-15T08:38:20.682Z</time>
      </trkpt>
      <trkpt lat="48.96707" lon="0.7985">
        <ele>160</ele>
        <time>2019-08-15T08:38:21.716Z</time>
      </trkpt>
      <trkpt lat="48.96707" lon="0.7985">
        <ele>160</ele>
        <time>2019-08-15T08:38:22.710Z</time>
      </trkpt>
      <trkpt lat="48.96715" lon="0.79861">
        <ele>160</ele>
        <time>2019-08-15T08:38:23.717Z</time>
      </trkpt>
      <trkpt lat="48.96715" lon="0.79861">
        <ele>160</ele>
        <time>2019-08-15T08:38:24.717Z</time>
      </trkpt>
      <trkpt lat="48.96725" lon="0.79873">
        <ele>160</ele>
        <time>2019-08-15T08:38:25.715Z</time>
      </trkpt>
      <trkpt lat="48.9673" lon="0.79879">
        <ele>159</ele>
        <time>2019-08-15T08:38:26.717Z</time>
      </trkpt>
      <trkpt lat="48.9673" lon="0.79879">
        <ele>159</ele>
        <time>2019-08-15T08:38:27.713Z</time>
      </trkpt>
      <trkpt lat="48.96739" lon="0.79889">
        <ele>160</ele>
        <time>2019-08-15T08:38:28.714Z</time>
      </trkpt>
      <trkpt lat="48.96744" lon="0.79893">
        <ele>160</ele>
        <time>2019-08-15T08:38:29.717Z</time>
      </trkpt>
      <trkpt lat="48.96744" lon="0.79893">
        <ele>160</ele>
        <time>2019-08-15T08:38:30.714Z</time>
      </trkpt>
      <trkpt lat="48.96754" lon="0.79904">
        <ele>160</ele>
        <time>2019-08-15T08:38:31.716Z</time>
      </trkpt>
      <trkpt lat="48.96754" lon="0.79904">
        <ele>160</ele>
        <time>2019-08-15T08:38:32.707Z</time>
      </trkpt>
      <trkpt lat="48.96763" lon="0.79915">
        <ele>159</ele>
        <time>2019-08-15T08:38:33.690Z</time>
      </trkpt>
      <trkpt lat="48.96768" lon="0.7992">
        <ele>159</ele>
        <time>2019-08-15T08:38:34.716Z</time>
      </trkpt>
      <trkpt lat="48.96773" lon="0.79924">
        <ele>159</ele>
        <time>2019-08-15T08:38:35.717Z</time>
      </trkpt>
      <trkpt lat="48.96773" lon="0.79924">
        <ele>159</ele>
        <time>2019-08-15T08:38:36.712Z</time>
      </trkpt>
      <trkpt lat="48.96781" lon="0.79935">
        <ele>160</ele>
        <time>2019-08-15T08:38:37.689Z</time>
      </trkpt>
      <trkpt lat="48.96781" lon="0.79935">
        <ele>160</ele>
        <time>2019-08-15T08:38:38.714Z</time>
      </trkpt>
      <trkpt lat="48.96788" lon="0.79945">
        <ele>159</ele>
        <time>2019-08-15T08:38:39.717Z</time>
      </trkpt>
      <trkpt lat="48.96788" lon="0.79945">
        <ele>159</ele>
        <time>2019-08-15T08:38:40.711Z</time>
      </trkpt>
      <trkpt lat="48.96795" lon="0.79956">
        <ele>159</ele>
        <time>2019-08-15T08:38:41.716Z</time>
      </trkpt>
      <trkpt lat="48.96795" lon="0.79956">
        <ele>159</ele>
        <time>2019-08-15T08:38:42.712Z</time>
      </trkpt>
      <trkpt lat="48.96801" lon="0.79968">
        <ele>159</ele>
        <time>2019-08-15T08:38:43.714Z</time>
      </trkpt>
      <trkpt lat="48.96801" lon="0.79968">
        <ele>159</ele>
        <time>2019-08-15T08:38:44.714Z</time>
      </trkpt>
      <trkpt lat="48.96806" lon="0.79982">
        <ele>159</ele>
        <time>2019-08-15T08:38:45.717Z</time>
      </trkpt>
      <trkpt lat="48.96807" lon="0.7999">
        <ele>159</ele>
        <time>2019-08-15T08:38:46.715Z</time>
      </trkpt>
      <trkpt lat="48.96807" lon="0.7999">
        <ele>159</ele>
        <time>2019-08-15T08:38:47.694Z</time>
      </trkpt>
      <trkpt lat="48.96809" lon="0.80003">
        <ele>159</ele>
        <time>2019-08-15T08:38:48.682Z</time>
      </trkpt>
      <trkpt lat="48.96809" lon="0.80003">
        <ele>159</ele>
        <time>2019-08-15T08:38:49.711Z</time>
      </trkpt>
      <trkpt lat="48.96812" lon="0.80017">
        <ele>159</ele>
        <time>2019-08-15T08:38:50.696Z</time>
      </trkpt>
      <trkpt lat="48.96812" lon="0.80017">
        <ele>159</ele>
        <time>2019-08-15T08:38:51.716Z</time>
      </trkpt>
      <trkpt lat="48.96814" lon="0.80031">
        <ele>159</ele>
        <time>2019-08-15T08:38:52.681Z</time>
      </trkpt>
      <trkpt lat="48.96814" lon="0.80031">
        <ele>159</ele>
        <time>2019-08-15T08:38:53.714Z</time>
      </trkpt>
      <trkpt lat="48.96818" lon="0.80044">
        <ele>159</ele>
        <time>2019-08-15T08:38:54.716Z</time>
      </trkpt>
      <trkpt lat="48.96818" lon="0.80044">
        <ele>159</ele>
        <time>2019-08-15T08:38:55.711Z</time>
      </trkpt>
      <trkpt lat="48.96822" lon="0.80058">
        <ele>159</ele>
        <time>2019-08-15T08:38:56.717Z</time>
      </trkpt>
      <trkpt lat="48.96822" lon="0.80058">
        <ele>159</ele>
        <time>2019-08-15T08:38:57.683Z</time>
      </trkpt>
      <trkpt lat="48.96826" lon="0.80072">
        <ele>159</ele>
        <time>2019-08-15T08:38:58.716Z</time>
      </trkpt>
      <trkpt lat="48.96829" lon="0.80079">
        <ele>159</ele>
        <time>2019-08-15T08:38:59.716Z</time>
      </trkpt>
      <trkpt lat="48.96829" lon="0.80079">
        <ele>159</ele>
        <time>2019-08-15T08:39:00.706Z</time>
      </trkpt>
      <trkpt lat="48.96834" lon="0.80092">
        <ele>158</ele>
        <time>2019-08-15T08:39:01.690Z</time>
      </trkpt>
      <trkpt lat="48.96834" lon="0.80092">
        <ele>158</ele>
        <time>2019-08-15T08:39:02.714Z</time>
      </trkpt>
      <trkpt lat="48.96839" lon="0.80107">
        <ele>158</ele>
        <time>2019-08-15T08:39:03.717Z</time>
      </trkpt>
      <trkpt lat="48.96839" lon="0.80107">
        <ele>158</ele>
        <time>2019-08-15T08:39:04.717Z</time>
      </trkpt>
      <trkpt lat="48.96844" lon="0.8012">
        <ele>158</ele>
        <time>2019-08-15T08:39:05.717Z</time>
      </trkpt>
      <trkpt lat="48.96844" lon="0.8012">
        <ele>158</ele>
        <time>2019-08-15T08:39:06.714Z</time>
      </trkpt>
      <trkpt lat="48.96847" lon="0.8013">
        <ele>158</ele>
        <time>2019-08-15T08:39:07.694Z</time>
      </trkpt>
      <trkpt lat="48.96847" lon="0.8013">
        <ele>158</ele>
        <time>2019-08-15T08:39:08.681Z</time>
      </trkpt>
      <trkpt lat="48.96851" lon="0.80139">
        <ele>158</ele>
        <time>2019-08-15T08:39:09.716Z</time>
      </trkpt>
      <trkpt lat="48.96854" lon="0.80145">
        <ele>158</ele>
        <time>2019-08-15T08:39:10.681Z</time>
      </trkpt>
      <trkpt lat="48.96856" lon="0.8015">
        <ele>158</ele>
        <time>2019-08-15T08:39:11.682Z</time>
      </trkpt>
      <trkpt lat="48.96856" lon="0.8015">
        <ele>158</ele>
        <time>2019-08-15T08:39:12.712Z</time>
      </trkpt>
      <trkpt lat="48.96863" lon="0.8016">
        <ele>158</ele>
        <time>2019-08-15T08:39:13.717Z</time>
      </trkpt>
      <trkpt lat="48.96863" lon="0.8016">
        <ele>158</ele>
        <time>2019-08-15T08:39:14.714Z</time>
      </trkpt>
      <trkpt lat="48.96871" lon="0.8017">
        <ele>158</ele>
        <time>2019-08-15T08:39:15.717Z</time>
      </trkpt>
      <trkpt lat="48.96871" lon="0.8017">
        <ele>158</ele>
        <time>2019-08-15T08:39:16.711Z</time>
      </trkpt>
      <trkpt lat="48.96878" lon="0.80182">
        <ele>158</ele>
        <time>2019-08-15T08:39:17.717Z</time>
      </trkpt>
      <trkpt lat="48.96878" lon="0.80182">
        <ele>158</ele>
        <time>2019-08-15T08:39:18.715Z</time>
      </trkpt>
      <trkpt lat="48.96885" lon="0.80194">
        <ele>158</ele>
        <time>2019-08-15T08:39:19.716Z</time>
      </trkpt>
      <trkpt lat="48.96889" lon="0.802">
        <ele>158</ele>
        <time>2019-08-15T08:39:20.713Z</time>
      </trkpt>
      <trkpt lat="48.96889" lon="0.802">
        <ele>158</ele>
        <time>2019-08-15T08:39:21.711Z</time>
      </trkpt>
      <trkpt lat="48.96896" lon="0.80213">
        <ele>158</ele>
        <time>2019-08-15T08:39:22.695Z</time>
      </trkpt>
      <trkpt lat="48.969" lon="0.8022">
        <ele>157</ele>
        <time>2019-08-15T08:39:23.681Z</time>
      </trkpt>
      <trkpt lat="48.969" lon="0.8022">
        <ele>157</ele>
        <time>2019-08-15T08:39:24.713Z</time>
      </trkpt>
      <trkpt lat="48.96906" lon="0.80232">
        <ele>157</ele>
        <time>2019-08-15T08:39:25.713Z</time>
      </trkpt>
      <trkpt lat="48.96906" lon="0.80232">
        <ele>157</ele>
        <time>2019-08-15T08:39:26.711Z</time>
      </trkpt>
      <trkpt lat="48.96913" lon="0.80245">
        <ele>157</ele>
        <time>2019-08-15T08:39:27.689Z</time>
      </trkpt>
      <trkpt lat="48.96916" lon="0.80251">
        <ele>156</ele>
        <time>2019-08-15T08:39:28.715Z</time>
      </trkpt>
      <trkpt lat="48.96919" lon="0.80258">
        <ele>156</ele>
        <time>2019-08-15T08:39:29.716Z</time>
      </trkpt>
      <trkpt lat="48.96919" lon="0.80258">
        <ele>156</ele>
        <time>2019-08-15T08:39:30.711Z</time>
      </trkpt>
      <trkpt lat="48.96926" lon="0.80271">
        <ele>156</ele>
        <time>2019-08-15T08:39:31.716Z</time>
      </trkpt>
      <trkpt lat="48.96926" lon="0.80271">
        <ele>156</ele>
        <time>2019-08-15T08:39:32.714Z</time>
      </trkpt>
      <trkpt lat="48.96932" lon="0.80285">
        <ele>155</ele>
        <time>2019-08-15T08:39:33.717Z</time>
      </trkpt>
      <trkpt lat="48.96932" lon="0.80285">
        <ele>155</ele>
        <time>2019-08-15T08:39:34.711Z</time>
      </trkpt>
      <trkpt lat="48.96939" lon="0.80299">
        <ele>155</ele>
        <time>2019-08-15T08:39:35.715Z</time>
      </trkpt>
      <trkpt lat="48.96939" lon="0.80299">
        <ele>155</ele>
        <time>2019-08-15T08:39:36.712Z</time>
      </trkpt>
      <trkpt lat="48.96946" lon="0.80313">
        <ele>155</ele>
        <time>2019-08-15T08:39:37.689Z</time>
      </trkpt>
      <trkpt lat="48.96946" lon="0.80313">
        <ele>155</ele>
        <time>2019-08-15T08:39:38.715Z</time>
      </trkpt>
      <trkpt lat="48.96952" lon="0.80327">
        <ele>155</ele>
        <time>2019-08-15T08:39:39.716Z</time>
      </trkpt>
      <trkpt lat="48.96952" lon="0.80327">
        <ele>155</ele>
        <time>2019-08-15T08:39:40.711Z</time>
      </trkpt>
      <trkpt lat="48.96958" lon="0.80341">
        <ele>155</ele>
        <time>2019-08-15T08:39:41.681Z</time>
      </trkpt>
      <trkpt lat="48.96961" lon="0.80349">
        <ele>154</ele>
        <time>2019-08-15T08:39:42.714Z</time>
      </trkpt>
      <trkpt lat="48.96961" lon="0.80349">
        <ele>154</ele>
        <time>2019-08-15T08:39:43.711Z</time>
      </trkpt>
      <trkpt lat="48.96966" lon="0.80366">
        <ele>154</ele>
        <time>2019-08-15T08:39:44.716Z</time>
      </trkpt>
      <trkpt lat="48.96966" lon="0.80366">
        <ele>154</ele>
        <time>2019-08-15T08:39:45.714Z</time>
      </trkpt>
      <trkpt lat="48.9697" lon="0.80383">
        <ele>154</ele>
        <time>2019-08-15T08:39:46.716Z</time>
      </trkpt>
      <trkpt lat="48.96972" lon="0.80391">
        <ele>154</ele>
        <time>2019-08-15T08:39:47.717Z</time>
      </trkpt>
      <trkpt lat="48.96972" lon="0.80391">
        <ele>154</ele>
        <time>2019-08-15T08:39:48.708Z</time>
      </trkpt>
      <trkpt lat="48.96975" lon="0.80408">
        <ele>154</ele>
        <time>2019-08-15T08:39:49.717Z</time>
      </trkpt>
      <trkpt lat="48.96975" lon="0.80408">
        <ele>154</ele>
        <time>2019-08-15T08:39:50.711Z</time>
      </trkpt>
      <trkpt lat="48.96979" lon="0.80426">
        <ele>155</ele>
        <time>2019-08-15T08:39:51.682Z</time>
      </trkpt>
      <trkpt lat="48.96981" lon="0.80434">
        <ele>155</ele>
        <time>2019-08-15T08:39:52.682Z</time>
      </trkpt>
      <trkpt lat="48.96981" lon="0.80434">
        <ele>155</ele>
        <time>2019-08-15T08:39:53.711Z</time>
      </trkpt>
      <trkpt lat="48.96985" lon="0.80449">
        <ele>155</ele>
        <time>2019-08-15T08:39:54.716Z</time>
      </trkpt>
      <trkpt lat="48.96988" lon="0.80456">
        <ele>155</ele>
        <time>2019-08-15T08:39:55.715Z</time>
      </trkpt>
      <trkpt lat="48.96988" lon="0.80456">
        <ele>155</ele>
        <time>2019-08-15T08:39:56.714Z</time>
      </trkpt>
      <trkpt lat="48.96995" lon="0.8047">
        <ele>155</ele>
        <time>2019-08-15T08:39:57.709Z</time>
      </trkpt>
      <trkpt lat="48.96995" lon="0.8047">
        <ele>155</ele>
        <time>2019-08-15T08:39:58.712Z</time>
      </trkpt>
      <trkpt lat="48.97004" lon="0.80483">
        <ele>155</ele>
        <time>2019-08-15T08:39:59.716Z</time>
      </trkpt>
      <trkpt lat="48.97004" lon="0.80483">
        <ele>155</ele>
        <time>2019-08-15T08:40:00.714Z</time>
      </trkpt>
      <trkpt lat="48.97012" lon="0.80494">
        <ele>155</ele>
        <time>2019-08-15T08:40:01.716Z</time>
      </trkpt>
      <trkpt lat="48.97012" lon="0.80494">
        <ele>155</ele>
        <time>2019-08-15T08:40:02.713Z</time>
      </trkpt>
      <trkpt lat="48.97021" lon="0.80503">
        <ele>154</ele>
        <time>2019-08-15T08:40:03.717Z</time>
      </trkpt>
      <trkpt lat="48.97021" lon="0.80503">
        <ele>154</ele>
        <time>2019-08-15T08:40:04.712Z</time>
      </trkpt>
      <trkpt lat="48.9703" lon="0.80514">
        <ele>155</ele>
        <time>2019-08-15T08:40:05.711Z</time>
      </trkpt>
      <trkpt lat="48.97033" lon="0.8052">
        <ele>155</ele>
        <time>2019-08-15T08:40:06.718Z</time>
      </trkpt>
      <trkpt lat="48.97036" lon="0.80527">
        <ele>155</ele>
        <time>2019-08-15T08:40:07.717Z</time>
      </trkpt>
      <trkpt lat="48.97036" lon="0.80527">
        <ele>155</ele>
        <time>2019-08-15T08:40:08.714Z</time>
      </trkpt>
      <trkpt lat="48.97041" lon="0.80541">
        <ele>155</ele>
        <time>2019-08-15T08:40:09.717Z</time>
      </trkpt>
      <trkpt lat="48.97044" lon="0.80548">
        <ele>155</ele>
        <time>2019-08-15T08:40:10.716Z</time>
      </trkpt>
      <trkpt lat="48.97044" lon="0.80548">
        <ele>155</ele>
        <time>2019-08-15T08:40:11.711Z</time>
      </trkpt>
      <trkpt lat="48.9705" lon="0.80561">
        <ele>155</ele>
        <time>2019-08-15T08:40:12.716Z</time>
      </trkpt>
      <trkpt lat="48.9705" lon="0.80561">
        <ele>155</ele>
        <time>2019-08-15T08:40:13.714Z</time>
      </trkpt>
      <trkpt lat="48.97056" lon="0.80574">
        <ele>155</ele>
        <time>2019-08-15T08:40:14.713Z</time>
      </trkpt>
      <trkpt lat="48.97056" lon="0.80574">
        <ele>155</ele>
        <time>2019-08-15T08:40:15.709Z</time>
      </trkpt>
      <trkpt lat="48.97063" lon="0.80585">
        <ele>155</ele>
        <time>2019-08-15T08:40:16.716Z</time>
      </trkpt>
      <trkpt lat="48.97063" lon="0.80585">
        <ele>155</ele>
        <time>2019-08-15T08:40:17.694Z</time>
      </trkpt>
      <trkpt lat="48.9707" lon="0.80598">
        <ele>155</ele>
        <time>2019-08-15T08:40:18.686Z</time>
      </trkpt>
      <trkpt lat="48.9707" lon="0.80598">
        <ele>155</ele>
        <time>2019-08-15T08:40:19.682Z</time>
      </trkpt>
      <trkpt lat="48.97077" lon="0.80612">
        <ele>155</ele>
        <time>2019-08-15T08:40:20.682Z</time>
      </trkpt>
      <trkpt lat="48.97077" lon="0.80612">
        <ele>155</ele>
        <time>2019-08-15T08:40:21.714Z</time>
      </trkpt>
      <trkpt lat="48.97082" lon="0.80626">
        <ele>155</ele>
        <time>2019-08-15T08:40:22.684Z</time>
      </trkpt>
      <trkpt lat="48.97084" lon="0.80634">
        <ele>155</ele>
        <time>2019-08-15T08:40:23.715Z</time>
      </trkpt>
      <trkpt lat="48.97084" lon="0.80634">
        <ele>155</ele>
        <time>2019-08-15T08:40:24.710Z</time>
      </trkpt>
      <trkpt lat="48.97087" lon="0.80649">
        <ele>155</ele>
        <time>2019-08-15T08:40:25.713Z</time>
      </trkpt>
      <trkpt lat="48.97087" lon="0.80649">
        <ele>155</ele>
        <time>2019-08-15T08:40:26.712Z</time>
      </trkpt>
      <trkpt lat="48.9709" lon="0.80664">
        <ele>155</ele>
        <time>2019-08-15T08:40:27.690Z</time>
      </trkpt>
      <trkpt lat="48.9709" lon="0.80664">
        <ele>155</ele>
        <time>2019-08-15T08:40:28.713Z</time>
      </trkpt>
      <trkpt lat="48.97093" lon="0.80678">
        <ele>155</ele>
        <time>2019-08-15T08:40:29.716Z</time>
      </trkpt>
      <trkpt lat="48.97093" lon="0.80678">
        <ele>155</ele>
        <time>2019-08-15T08:40:30.713Z</time>
      </trkpt>
      <trkpt lat="48.97095" lon="0.80692">
        <ele>156</ele>
        <time>2019-08-15T08:40:31.714Z</time>
      </trkpt>
      <trkpt lat="48.97095" lon="0.80692">
        <ele>156</ele>
        <time>2019-08-15T08:40:32.709Z</time>
      </trkpt>
      <trkpt lat="48.97098" lon="0.80704">
        <ele>156</ele>
        <time>2019-08-15T08:40:33.693Z</time>
      </trkpt>
      <trkpt lat="48.97098" lon="0.80704">
        <ele>156</ele>
        <time>2019-08-15T08:40:34.716Z</time>
      </trkpt>
      <trkpt lat="48.97101" lon="0.80711">
        <ele>156</ele>
        <time>2019-08-15T08:40:35.715Z</time>
      </trkpt>
      <trkpt lat="48.97101" lon="0.80711">
        <ele>156</ele>
        <time>2019-08-15T08:40:36.712Z</time>
      </trkpt>
      <trkpt lat="48.97102" lon="0.80711">
        <ele>156</ele>
        <time>2019-08-15T08:40:37.715Z</time>
      </trkpt>
      <trkpt lat="48.97102" lon="0.80711">
        <ele>156</ele>
        <time>2019-08-15T08:40:38.709Z</time>
      </trkpt>
      <trkpt lat="48.97104" lon="0.80717">
        <ele>153</ele>
        <time>2019-08-15T08:40:39.697Z</time>
      </trkpt>
      <trkpt lat="48.97104" lon="0.80717">
        <ele>153</ele>
        <time>2019-08-15T08:40:40.682Z</time>
      </trkpt>
      <trkpt lat="48.97101" lon="0.80724">
        <ele>153</ele>
        <time>2019-08-15T08:40:41.688Z</time>
      </trkpt>
      <trkpt lat="48.97101" lon="0.80724">
        <ele>153</ele>
        <time>2019-08-15T08:40:42.706Z</time>
      </trkpt>
      <trkpt lat="48.97095" lon="0.80731">
        <ele>153</ele>
        <time>2019-08-15T08:40:43.689Z</time>
      </trkpt>
      <trkpt lat="48.97095" lon="0.80731">
        <ele>153</ele>
        <time>2019-08-15T08:40:44.686Z</time>
      </trkpt>
      <trkpt lat="48.97087" lon="0.80738">
        <ele>153</ele>
        <time>2019-08-15T08:40:45.688Z</time>
      </trkpt>
      <trkpt lat="48.97087" lon="0.80738">
        <ele>153</ele>
        <time>2019-08-15T08:40:46.686Z</time>
      </trkpt>
      <trkpt lat="48.97081" lon="0.80745">
        <ele>153</ele>
        <time>2019-08-15T08:40:47.689Z</time>
      </trkpt>
      <trkpt lat="48.97081" lon="0.80745">
        <ele>153</ele>
        <time>2019-08-15T08:40:48.679Z</time>
      </trkpt>
      <trkpt lat="48.97075" lon="0.80752">
        <ele>153</ele>
        <time>2019-08-15T08:40:49.703Z</time>
      </trkpt>
      <trkpt lat="48.97075" lon="0.80752">
        <ele>153</ele>
        <time>2019-08-15T08:40:50.688Z</time>
      </trkpt>
      <trkpt lat="48.97068" lon="0.80759">
        <ele>153</ele>
        <time>2019-08-15T08:40:51.698Z</time>
      </trkpt>
      <trkpt lat="48.97068" lon="0.80759">
        <ele>153</ele>
        <time>2019-08-15T08:40:52.705Z</time>
      </trkpt>
      <trkpt lat="48.97061" lon="0.80768">
        <ele>154</ele>
        <time>2019-08-15T08:40:53.687Z</time>
      </trkpt>
      <trkpt lat="48.97057" lon="0.80772">
        <ele>154</ele>
        <time>2019-08-15T08:40:54.687Z</time>
      </trkpt>
      <trkpt lat="48.97054" lon="0.80776">
        <ele>154</ele>
        <time>2019-08-15T08:40:55.689Z</time>
      </trkpt>
      <trkpt lat="48.97054" lon="0.80776">
        <ele>154</ele>
        <time>2019-08-15T08:40:56.686Z</time>
      </trkpt>
      <trkpt lat="48.97046" lon="0.80784">
        <ele>154</ele>
        <time>2019-08-15T08:40:57.688Z</time>
      </trkpt>
      <trkpt lat="48.97046" lon="0.80784">
        <ele>154</ele>
        <time>2019-08-15T08:40:58.683Z</time>
      </trkpt>
      <trkpt lat="48.97039" lon="0.80792">
        <ele>154</ele>
        <time>2019-08-15T08:40:59.688Z</time>
      </trkpt>
      <trkpt lat="48.97039" lon="0.80792">
        <ele>154</ele>
        <time>2019-08-15T08:41:00.682Z</time>
      </trkpt>
      <trkpt lat="48.97031" lon="0.808">
        <ele>155</ele>
        <time>2019-08-15T08:41:01.704Z</time>
      </trkpt>
      <trkpt lat="48.97031" lon="0.808">
        <ele>155</ele>
        <time>2019-08-15T08:41:02.686Z</time>
      </trkpt>
      <trkpt lat="48.97023" lon="0.80807">
        <ele>155</ele>
        <time>2019-08-15T08:41:03.688Z</time>
      </trkpt>
      <trkpt lat="48.97023" lon="0.80807">
        <ele>155</ele>
        <time>2019-08-15T08:41:04.686Z</time>
      </trkpt>
      <trkpt lat="48.97015" lon="0.80812">
        <ele>155</ele>
        <time>2019-08-15T08:41:05.687Z</time>
      </trkpt>
      <trkpt lat="48.97015" lon="0.80812">
        <ele>155</ele>
        <time>2019-08-15T08:41:06.682Z</time>
      </trkpt>
      <trkpt lat="48.97007" lon="0.80815">
        <ele>155</ele>
        <time>2019-08-15T08:41:07.688Z</time>
      </trkpt>
      <trkpt lat="48.97007" lon="0.80815">
        <ele>155</ele>
        <time>2019-08-15T08:41:08.679Z</time>
      </trkpt>
      <trkpt lat="48.96998" lon="0.80815">
        <ele>156</ele>
        <time>2019-08-15T08:41:09.707Z</time>
      </trkpt>
      <trkpt lat="48.96998" lon="0.80815">
        <ele>156</ele>
        <time>2019-08-15T08:41:10.689Z</time>
      </trkpt>
      <trkpt lat="48.9699" lon="0.80814">
        <ele>156</ele>
        <time>2019-08-15T08:41:11.688Z</time>
      </trkpt>
      <trkpt lat="48.9699" lon="0.80814">
        <ele>156</ele>
        <time>2019-08-15T08:41:12.686Z</time>
      </trkpt>
      <trkpt lat="48.96982" lon="0.80813">
        <ele>156</ele>
        <time>2019-08-15T08:41:13.689Z</time>
      </trkpt>
      <trkpt lat="48.96977" lon="0.80813">
        <ele>156</ele>
        <time>2019-08-15T08:41:14.688Z</time>
      </trkpt>
      <trkpt lat="48.96973" lon="0.80814">
        <ele>156</ele>
        <time>2019-08-15T08:41:15.688Z</time>
      </trkpt>
      <trkpt lat="48.96973" lon="0.80814">
        <ele>156</ele>
        <time>2019-08-15T08:41:16.686Z</time>
      </trkpt>
      <trkpt lat="48.96964" lon="0.80816">
        <ele>156</ele>
        <time>2019-08-15T08:41:17.686Z</time>
      </trkpt>
      <trkpt lat="48.96964" lon="0.80816">
        <ele>156</ele>
        <time>2019-08-15T08:41:18.683Z</time>
      </trkpt>
      <trkpt lat="48.96956" lon="0.8082">
        <ele>156</ele>
        <time>2019-08-15T08:41:19.688Z</time>
      </trkpt>
      <trkpt lat="48.96956" lon="0.8082">
        <ele>156</ele>
        <time>2019-08-15T08:41:20.681Z</time>
      </trkpt>
      <trkpt lat="48.96948" lon="0.80826">
        <ele>157</ele>
        <time>2019-08-15T08:41:21.700Z</time>
      </trkpt>
      <trkpt lat="48.96948" lon="0.80826">
        <ele>157</ele>
        <time>2019-08-15T08:41:22.684Z</time>
      </trkpt>
      <trkpt lat="48.9694" lon="0.80832">
        <ele>157</ele>
        <time>2019-08-15T08:41:23.688Z</time>
      </trkpt>
      <trkpt lat="48.96936" lon="0.80834">
        <ele>157</ele>
        <time>2019-08-15T08:41:24.687Z</time>
      </trkpt>
      <trkpt lat="48.96931" lon="0.80836">
        <ele>157</ele>
        <time>2019-08-15T08:41:25.689Z</time>
      </trkpt>
      <trkpt lat="48.96927" lon="0.80837">
        <ele>157</ele>
        <time>2019-08-15T08:41:26.688Z</time>
      </trkpt>
      <trkpt lat="48.96927" lon="0.80837">
        <ele>157</ele>
        <time>2019-08-15T08:41:27.683Z</time>
      </trkpt>
      <trkpt lat="48.96917" lon="0.80837">
        <ele>157</ele>
        <time>2019-08-15T08:41:28.699Z</time>
      </trkpt>
      <trkpt lat="48.96917" lon="0.80837">
        <ele>157</ele>
        <time>2019-08-15T08:41:29.686Z</time>
      </trkpt>
      <trkpt lat="48.96909" lon="0.80837">
        <ele>158</ele>
        <time>2019-08-15T08:41:30.688Z</time>
      </trkpt>
      <trkpt lat="48.96904" lon="0.80837">
        <ele>157</ele>
        <time>2019-08-15T08:41:31.689Z</time>
      </trkpt>
      <trkpt lat="48.969" lon="0.80839">
        <ele>157</ele>
        <time>2019-08-15T08:41:32.686Z</time>
      </trkpt>
      <trkpt lat="48.969" lon="0.80839">
        <ele>157</ele>
        <time>2019-08-15T08:41:33.687Z</time>
      </trkpt>
      <trkpt lat="48.96891" lon="0.80843">
        <ele>157</ele>
        <time>2019-08-15T08:41:34.687Z</time>
      </trkpt>
      <trkpt lat="48.96891" lon="0.80843">
        <ele>157</ele>
        <time>2019-08-15T08:41:35.685Z</time>
      </trkpt>
      <trkpt lat="48.96882" lon="0.80849">
        <ele>157</ele>
        <time>2019-08-15T08:41:36.687Z</time>
      </trkpt>
      <trkpt lat="48.96878" lon="0.80853">
        <ele>157</ele>
        <time>2019-08-15T08:41:37.710Z</time>
      </trkpt>
      <trkpt lat="48.96874" lon="0.80857">
        <ele>157</ele>
        <time>2019-08-15T08:41:38.709Z</time>
      </trkpt>
      <trkpt lat="48.96874" lon="0.80857">
        <ele>157</ele>
        <time>2019-08-15T08:41:39.698Z</time>
      </trkpt>
      <trkpt lat="48.96867" lon="0.80865">
        <ele>157</ele>
        <time>2019-08-15T08:41:40.688Z</time>
      </trkpt>
      <trkpt lat="48.96867" lon="0.80865">
        <ele>157</ele>
        <time>2019-08-15T08:41:41.683Z</time>
      </trkpt>
      <trkpt lat="48.96859" lon="0.80873">
        <ele>158</ele>
        <time>2019-08-15T08:41:42.688Z</time>
      </trkpt>
      <trkpt lat="48.96855" lon="0.80877">
        <ele>158</ele>
        <time>2019-08-15T08:41:43.689Z</time>
      </trkpt>
      <trkpt lat="48.96851" lon="0.80881">
        <ele>158</ele>
        <time>2019-08-15T08:41:44.688Z</time>
      </trkpt>
      <trkpt lat="48.96847" lon="0.80885">
        <ele>158</ele>
        <time>2019-08-15T08:41:45.687Z</time>
      </trkpt>
      <trkpt lat="48.96847" lon="0.80885">
        <ele>158</ele>
        <time>2019-08-15T08:41:46.682Z</time>
      </trkpt>
      <trkpt lat="48.96839" lon="0.80894">
        <ele>158</ele>
        <time>2019-08-15T08:41:47.706Z</time>
      </trkpt>
      <trkpt lat="48.96839" lon="0.80894">
        <ele>158</ele>
        <time>2019-08-15T08:41:48.689Z</time>
      </trkpt>
      <trkpt lat="48.96831" lon="0.80902">
        <ele>158</ele>
        <time>2019-08-15T08:41:49.688Z</time>
      </trkpt>
      <trkpt lat="48.96831" lon="0.80902">
        <ele>158</ele>
        <time>2019-08-15T08:41:50.699Z</time>
      </trkpt>
      <trkpt lat="48.96824" lon="0.8091">
        <ele>158</ele>
        <time>2019-08-15T08:41:51.689Z</time>
      </trkpt>
      <trkpt lat="48.9682" lon="0.80914">
        <ele>158</ele>
        <time>2019-08-15T08:41:52.695Z</time>
      </trkpt>
      <trkpt lat="48.9682" lon="0.80914">
        <ele>158</ele>
        <time>2019-08-15T08:41:53.701Z</time>
      </trkpt>
      <trkpt lat="48.96812" lon="0.80922">
        <ele>158</ele>
        <time>2019-08-15T08:41:54.687Z</time>
      </trkpt>
      <trkpt lat="48.96808" lon="0.80925">
        <ele>158</ele>
        <time>2019-08-15T08:41:55.689Z</time>
      </trkpt>
      <trkpt lat="48.96808" lon="0.80925">
        <ele>158</ele>
        <time>2019-08-15T08:41:56.682Z</time>
      </trkpt>
      <trkpt lat="48.968" lon="0.80933">
        <ele>158</ele>
        <time>2019-08-15T08:41:57.706Z</time>
      </trkpt>
      <trkpt lat="48.96796" lon="0.80936">
        <ele>158</ele>
        <time>2019-08-15T08:41:58.691Z</time>
      </trkpt>
      <trkpt lat="48.96796" lon="0.80936">
        <ele>158</ele>
        <time>2019-08-15T08:41:59.686Z</time>
      </trkpt>
      <trkpt lat="48.96788" lon="0.80944">
        <ele>158</ele>
        <time>2019-08-15T08:42:00.684Z</time>
      </trkpt>
      <trkpt lat="48.96784" lon="0.80948">
        <ele>158</ele>
        <time>2019-08-15T08:42:01.689Z</time>
      </trkpt>
      <trkpt lat="48.96784" lon="0.80948">
        <ele>158</ele>
        <time>2019-08-15T08:42:02.679Z</time>
      </trkpt>
      <trkpt lat="48.96777" lon="0.80955">
        <ele>157</ele>
        <time>2019-08-15T08:42:03.702Z</time>
      </trkpt>
      <trkpt lat="48.96777" lon="0.80955">
        <ele>157</ele>
        <time>2019-08-15T08:42:04.685Z</time>
      </trkpt>
      <trkpt lat="48.96769" lon="0.80962">
        <ele>157</ele>
        <time>2019-08-15T08:42:05.686Z</time>
      </trkpt>
      <trkpt lat="48.96769" lon="0.80962">
        <ele>157</ele>
        <time>2019-08-15T08:42:06.682Z</time>
      </trkpt>
      <trkpt lat="48.96762" lon="0.80971">
        <ele>157</ele>
        <time>2019-08-15T08:42:07.682Z</time>
      </trkpt>
      <trkpt lat="48.96762" lon="0.80971">
        <ele>157</ele>
        <time>2019-08-15T08:42:08.707Z</time>
      </trkpt>
      <trkpt lat="48.96754" lon="0.8098">
        <ele>157</ele>
        <time>2019-08-15T08:42:09.692Z</time>
      </trkpt>
      <trkpt lat="48.96754" lon="0.8098">
        <ele>157</ele>
        <time>2019-08-15T08:42:10.686Z</time>
      </trkpt>
      <trkpt lat="48.96746" lon="0.80989">
        <ele>156</ele>
        <time>2019-08-15T08:42:11.688Z</time>
      </trkpt>
      <trkpt lat="48.96746" lon="0.80989">
        <ele>156</ele>
        <time>2019-08-15T08:42:12.686Z</time>
      </trkpt>
      <trkpt lat="48.96739" lon="0.80998">
        <ele>156</ele>
        <time>2019-08-15T08:42:13.686Z</time>
      </trkpt>
      <trkpt lat="48.96735" lon="0.81003">
        <ele>156</ele>
        <time>2019-08-15T08:42:14.687Z</time>
      </trkpt>
      <trkpt lat="48.96735" lon="0.81003">
        <ele>156</ele>
        <time>2019-08-15T08:42:15.686Z</time>
      </trkpt>
      <trkpt lat="48.96727" lon="0.81013">
        <ele>156</ele>
        <time>2019-08-15T08:42:16.700Z</time>
      </trkpt>
      <trkpt lat="48.96727" lon="0.81013">
        <ele>156</ele>
        <time>2019-08-15T08:42:17.687Z</time>
      </trkpt>
      <trkpt lat="48.96718" lon="0.81023">
        <ele>156</ele>
        <time>2019-08-15T08:42:18.687Z</time>
      </trkpt>
      <trkpt lat="48.96714" lon="0.81027">
        <ele>156</ele>
        <time>2019-08-15T08:42:19.689Z</time>
      </trkpt>
      <trkpt lat="48.96714" lon="0.81027">
        <ele>156</ele>
        <time>2019-08-15T08:42:20.682Z</time>
      </trkpt>
      <trkpt lat="48.96706" lon="0.81036">
        <ele>156</ele>
        <time>2019-08-15T08:42:21.702Z</time>
      </trkpt>
      <trkpt lat="48.96703" lon="0.81041">
        <ele>156</ele>
        <time>2019-08-15T08:42:22.688Z</time>
      </trkpt>
      <trkpt lat="48.96703" lon="0.81041">
        <ele>156</ele>
        <time>2019-08-15T08:42:23.682Z</time>
      </trkpt>
      <trkpt lat="48.96696" lon="0.8105">
        <ele>156</ele>
        <time>2019-08-15T08:42:24.687Z</time>
      </trkpt>
      <trkpt lat="48.96693" lon="0.81054">
        <ele>156</ele>
        <time>2019-08-15T08:42:25.688Z</time>
      </trkpt>
      <trkpt lat="48.96689" lon="0.81059">
        <ele>156</ele>
        <time>2019-08-15T08:42:26.688Z</time>
      </trkpt>
      <trkpt lat="48.96689" lon="0.81059">
        <ele>156</ele>
        <time>2019-08-15T08:42:27.687Z</time>
      </trkpt>
      <trkpt lat="48.96682" lon="0.81068">
        <ele>157</ele>
        <time>2019-08-15T08:42:28.684Z</time>
      </trkpt>
      <trkpt lat="48.96682" lon="0.81068">
        <ele>157</ele>
        <time>2019-08-15T08:42:29.682Z</time>
      </trkpt>
      <trkpt lat="48.96675" lon="0.81078">
        <ele>157</ele>
        <time>2019-08-15T08:42:30.687Z</time>
      </trkpt>
      <trkpt lat="48.96671" lon="0.81082">
        <ele>157</ele>
        <time>2019-08-15T08:42:31.689Z</time>
      </trkpt>
      <trkpt lat="48.96667" lon="0.81087">
        <ele>157</ele>
        <time>2019-08-15T08:42:32.688Z</time>
      </trkpt>
      <trkpt lat="48.96663" lon="0.81092">
        <ele>157</ele>
        <time>2019-08-15T08:42:33.685Z</time>
      </trkpt>
      <trkpt lat="48.96663" lon="0.81092">
        <ele>157</ele>
        <time>2019-08-15T08:42:34.683Z</time>
      </trkpt>
      <trkpt lat="48.96655" lon="0.81101">
        <ele>157</ele>
        <time>2019-08-15T08:42:35.687Z</time>
      </trkpt>
      <trkpt lat="48.96652" lon="0.81105">
        <ele>157</ele>
        <time>2019-08-15T08:42:36.687Z</time>
      </trkpt>
      <trkpt lat="48.96648" lon="0.81109">
        <ele>157</ele>
        <time>2019-08-15T08:42:37.689Z</time>
      </trkpt>
      <trkpt lat="48.96648" lon="0.81109">
        <ele>157</ele>
        <time>2019-08-15T08:42:38.682Z</time>
      </trkpt>
      <trkpt lat="48.96641" lon="0.81115">
        <ele>157</ele>
        <time>2019-08-15T08:42:39.688Z</time>
      </trkpt>
      <trkpt lat="48.96641" lon="0.81115">
        <ele>157</ele>
        <time>2019-08-15T08:42:40.682Z</time>
      </trkpt>
      <trkpt lat="48.96636" lon="0.81123">
        <ele>157</ele>
        <time>2019-08-15T08:42:41.688Z</time>
      </trkpt>
      <trkpt lat="48.96636" lon="0.81123">
        <ele>157</ele>
        <time>2019-08-15T08:42:42.679Z</time>
      </trkpt>
      <trkpt lat="48.96636" lon="0.81132">
        <ele>158</ele>
        <time>2019-08-15T08:42:43.702Z</time>
      </trkpt>
      <trkpt lat="48.96636" lon="0.81132">
        <ele>158</ele>
        <time>2019-08-15T08:42:44.687Z</time>
      </trkpt>
      <trkpt lat="48.96641" lon="0.8114">
        <ele>158</ele>
        <time>2019-08-15T08:42:45.688Z</time>
      </trkpt>
      <trkpt lat="48.96641" lon="0.8114">
        <ele>158</ele>
        <time>2019-08-15T08:42:46.685Z</time>
      </trkpt>
      <trkpt lat="48.96647" lon="0.8115">
        <ele>158</ele>
        <time>2019-08-15T08:42:47.687Z</time>
      </trkpt>
      <trkpt lat="48.96647" lon="0.8115">
        <ele>158</ele>
        <time>2019-08-15T08:42:48.679Z</time>
      </trkpt>
      <trkpt lat="48.96654" lon="0.8116">
        <ele>159</ele>
        <time>2019-08-15T08:42:49.704Z</time>
      </trkpt>
      <trkpt lat="48.96654" lon="0.8116">
        <ele>159</ele>
        <time>2019-08-15T08:42:50.682Z</time>
      </trkpt>
      <trkpt lat="48.96661" lon="0.81171">
        <ele>159</ele>
        <time>2019-08-15T08:42:51.688Z</time>
      </trkpt>
      <trkpt lat="48.96661" lon="0.81171">
        <ele>159</ele>
        <time>2019-08-15T08:42:52.684Z</time>
      </trkpt>
      <trkpt lat="48.96668" lon="0.81182">
        <ele>159</ele>
        <time>2019-08-15T08:42:53.687Z</time>
      </trkpt>
      <trkpt lat="48.96672" lon="0.81188">
        <ele>159</ele>
        <time>2019-08-15T08:42:54.687Z</time>
      </trkpt>
      <trkpt lat="48.96676" lon="0.81194">
        <ele>159</ele>
        <time>2019-08-15T08:42:55.689Z</time>
      </trkpt>
      <trkpt lat="48.9668" lon="0.81199">
        <ele>159</ele>
        <time>2019-08-15T08:42:56.689Z</time>
      </trkpt>
      <trkpt lat="48.9668" lon="0.81199">
        <ele>159</ele>
        <time>2019-08-15T08:42:57.683Z</time>
      </trkpt>
      <trkpt lat="48.96687" lon="0.8121">
        <ele>159</ele>
        <time>2019-08-15T08:42:58.707Z</time>
      </trkpt>
      <trkpt lat="48.96687" lon="0.8121">
        <ele>159</ele>
        <time>2019-08-15T08:42:59.691Z</time>
      </trkpt>
      <trkpt lat="48.96695" lon="0.8122">
        <ele>158</ele>
        <time>2019-08-15T08:43:00.687Z</time>
      </trkpt>
      <trkpt lat="48.96699" lon="0.81226">
        <ele>158</ele>
        <time>2019-08-15T08:43:01.689Z</time>
      </trkpt>
      <trkpt lat="48.96699" lon="0.81226">
        <ele>158</ele>
        <time>2019-08-15T08:43:02.683Z</time>
      </trkpt>
      <trkpt lat="48.96706" lon="0.81237">
        <ele>158</ele>
        <time>2019-08-15T08:43:03.707Z</time>
      </trkpt>
      <trkpt lat="48.96706" lon="0.81237">
        <ele>158</ele>
        <time>2019-08-15T08:43:04.697Z</time>
      </trkpt>
      <trkpt lat="48.96714" lon="0.81248">
        <ele>158</ele>
        <time>2019-08-15T08:43:05.686Z</time>
      </trkpt>
      <trkpt lat="48.96718" lon="0.81253">
        <ele>158</ele>
        <time>2019-08-15T08:43:06.688Z</time>
      </trkpt>
      <trkpt lat="48.96718" lon="0.81253">
        <ele>158</ele>
        <time>2019-08-15T08:43:07.687Z</time>
      </trkpt>
      <trkpt lat="48.96725" lon="0.81263">
        <ele>158</ele>
        <time>2019-08-15T08:43:08.686Z</time>
      </trkpt>
      <trkpt lat="48.96729" lon="0.81267">
        <ele>158</ele>
        <time>2019-08-15T08:43:09.687Z</time>
      </trkpt>
      <trkpt lat="48.96729" lon="0.81267">
        <ele>158</ele>
        <time>2019-08-15T08:43:10.686Z</time>
      </trkpt>
      <trkpt lat="48.96736" lon="0.81276">
        <ele>158</ele>
        <time>2019-08-15T08:43:11.687Z</time>
      </trkpt>
      <trkpt lat="48.96736" lon="0.81276">
        <ele>158</ele>
        <time>2019-08-15T08:43:12.682Z</time>
      </trkpt>
      <trkpt lat="48.96742" lon="0.81283">
        <ele>158</ele>
        <time>2019-08-15T08:43:13.704Z</time>
      </trkpt>
      <trkpt lat="48.96742" lon="0.81283">
        <ele>158</ele>
        <time>2019-08-15T08:43:14.688Z</time>
      </trkpt>
      <trkpt lat="48.96749" lon="0.81291">
        <ele>159</ele>
        <time>2019-08-15T08:43:15.688Z</time>
      </trkpt>
      <trkpt lat="48.96749" lon="0.81291">
        <ele>159</ele>
        <time>2019-08-15T08:43:16.682Z</time>
      </trkpt>
      <trkpt lat="48.96756" lon="0.81299">
        <ele>159</ele>
        <time>2019-08-15T08:43:17.687Z</time>
      </trkpt>
      <trkpt lat="48.96756" lon="0.81299">
        <ele>159</ele>
        <time>2019-08-15T08:43:18.681Z</time>
      </trkpt>
      <trkpt lat="48.96763" lon="0.81307">
        <ele>159</ele>
        <time>2019-08-15T08:43:19.704Z</time>
      </trkpt>
      <trkpt lat="48.96763" lon="0.81307">
        <ele>159</ele>
        <time>2019-08-15T08:43:20.685Z</time>
      </trkpt>
      <trkpt lat="48.96769" lon="0.81315">
        <ele>159</ele>
        <time>2019-08-15T08:43:21.701Z</time>
      </trkpt>
      <trkpt lat="48.96769" lon="0.81315">
        <ele>159</ele>
        <time>2019-08-15T08:43:22.684Z</time>
      </trkpt>
      <trkpt lat="48.96776" lon="0.81322">
        <ele>159</ele>
        <time>2019-08-15T08:43:23.688Z</time>
      </trkpt>
      <trkpt lat="48.96776" lon="0.81322">
        <ele>159</ele>
        <time>2019-08-15T08:43:24.681Z</time>
      </trkpt>
      <trkpt lat="48.96782" lon="0.81331">
        <ele>159</ele>
        <time>2019-08-15T08:43:25.681Z</time>
      </trkpt>
      <trkpt lat="48.96786" lon="0.81335">
        <ele>159</ele>
        <time>2019-08-15T08:43:26.714Z</time>
      </trkpt>
      <trkpt lat="48.96789" lon="0.81338">
        <ele>159</ele>
        <time>2019-08-15T08:43:27.699Z</time>
      </trkpt>
      <trkpt lat="48.96789" lon="0.81338">
        <ele>159</ele>
        <time>2019-08-15T08:43:28.683Z</time>
      </trkpt>
      <trkpt lat="48.96795" lon="0.81346">
        <ele>159</ele>
        <time>2019-08-15T08:43:29.687Z</time>
      </trkpt>
      <trkpt lat="48.96795" lon="0.81346">
        <ele>159</ele>
        <time>2019-08-15T08:43:30.682Z</time>
      </trkpt>
      <trkpt lat="48.96801" lon="0.81355">
        <ele>158</ele>
        <time>2019-08-15T08:43:31.689Z</time>
      </trkpt>
      <trkpt lat="48.96804" lon="0.81358">
        <ele>158</ele>
        <time>2019-08-15T08:43:32.688Z</time>
      </trkpt>
      <trkpt lat="48.96807" lon="0.81362">
        <ele>158</ele>
        <time>2019-08-15T08:43:33.690Z</time>
      </trkpt>
      <trkpt lat="48.96807" lon="0.81362">
        <ele>158</ele>
        <time>2019-08-15T08:43:34.682Z</time>
      </trkpt>
      <trkpt lat="48.96813" lon="0.81369">
        <ele>158</ele>
        <time>2019-08-15T08:43:35.688Z</time>
      </trkpt>
      <trkpt lat="48.96813" lon="0.81369">
        <ele>158</ele>
        <time>2019-08-15T08:43:36.682Z</time>
      </trkpt>
      <trkpt lat="48.96819" lon="0.81377">
        <ele>158</ele>
        <time>2019-08-15T08:43:37.704Z</time>
      </trkpt>
      <trkpt lat="48.96819" lon="0.81377">
        <ele>158</ele>
        <time>2019-08-15T08:43:38.689Z</time>
      </trkpt>
      <trkpt lat="48.96826" lon="0.81385">
        <ele>158</ele>
        <time>2019-08-15T08:43:39.687Z</time>
      </trkpt>
      <trkpt lat="48.96826" lon="0.81385">
        <ele>158</ele>
        <time>2019-08-15T08:43:40.679Z</time>
      </trkpt>
      <trkpt lat="48.96832" lon="0.81392">
        <ele>159</ele>
        <time>2019-08-15T08:43:41.702Z</time>
      </trkpt>
      <trkpt lat="48.96832" lon="0.81392">
        <ele>159</ele>
        <time>2019-08-15T08:43:42.687Z</time>
      </trkpt>
      <trkpt lat="48.96839" lon="0.81401">
        <ele>159</ele>
        <time>2019-08-15T08:43:43.700Z</time>
      </trkpt>
      <trkpt lat="48.96839" lon="0.81401">
        <ele>159</ele>
        <time>2019-08-15T08:43:44.685Z</time>
      </trkpt>
      <trkpt lat="48.96845" lon="0.81408">
        <ele>159</ele>
        <time>2019-08-15T08:43:45.688Z</time>
      </trkpt>
      <trkpt lat="48.96845" lon="0.81408">
        <ele>159</ele>
        <time>2019-08-15T08:43:46.682Z</time>
      </trkpt>
      <trkpt lat="48.96852" lon="0.81416">
        <ele>159</ele>
        <time>2019-08-15T08:43:47.687Z</time>
      </trkpt>
      <trkpt lat="48.96852" lon="0.81416">
        <ele>159</ele>
        <time>2019-08-15T08:43:48.680Z</time>
      </trkpt>
      <trkpt lat="48.96858" lon="0.81424">
        <ele>159</ele>
        <time>2019-08-15T08:43:49.689Z</time>
      </trkpt>
      <trkpt lat="48.96858" lon="0.81424">
        <ele>159</ele>
        <time>2019-08-15T08:43:50.703Z</time>
      </trkpt>
      <trkpt lat="48.96865" lon="0.81432">
        <ele>159</ele>
        <time>2019-08-15T08:43:51.701Z</time>
      </trkpt>
      <trkpt lat="48.96868" lon="0.81437">
        <ele>159</ele>
        <time>2019-08-15T08:43:52.712Z</time>
      </trkpt>
      <trkpt lat="48.96868" lon="0.81437">
        <ele>159</ele>
        <time>2019-08-15T08:43:53.681Z</time>
      </trkpt>
      <trkpt lat="48.96875" lon="0.81445">
        <ele>159</ele>
        <time>2019-08-15T08:43:54.688Z</time>
      </trkpt>
      <trkpt lat="48.96875" lon="0.81445">
        <ele>159</ele>
        <time>2019-08-15T08:43:55.687Z</time>
      </trkpt>
      <trkpt lat="48.96881" lon="0.81453">
        <ele>159</ele>
        <time>2019-08-15T08:43:56.698Z</time>
      </trkpt>
      <trkpt lat="48.96884" lon="0.81456">
        <ele>159</ele>
        <time>2019-08-15T08:43:57.687Z</time>
      </trkpt>
      <trkpt lat="48.96884" lon="0.81456">
        <ele>159</ele>
        <time>2019-08-15T08:43:58.678Z</time>
      </trkpt>
      <trkpt lat="48.96888" lon="0.81461">
        <ele>159</ele>
        <time>2019-08-15T08:43:59.701Z</time>
      </trkpt>
      <trkpt lat="48.9689" lon="0.81464">
        <ele>159</ele>
        <time>2019-08-15T08:44:00.688Z</time>
      </trkpt>
      <trkpt lat="48.9689" lon="0.81464">
        <ele>159</ele>
        <time>2019-08-15T08:44:01.684Z</time>
      </trkpt>
      <trkpt lat="48.96894" lon="0.8147">
        <ele>159</ele>
        <time>2019-08-15T08:44:02.686Z</time>
      </trkpt>
      <trkpt lat="48.96897" lon="0.81473">
        <ele>159</ele>
        <time>2019-08-15T08:44:03.688Z</time>
      </trkpt>
      <trkpt lat="48.96897" lon="0.81473">
        <ele>159</ele>
        <time>2019-08-15T08:44:04.682Z</time>
      </trkpt>
      <trkpt lat="48.96902" lon="0.8148">
        <ele>159</ele>
        <time>2019-08-15T08:44:05.688Z</time>
      </trkpt>
      <trkpt lat="48.96902" lon="0.8148">
        <ele>159</ele>
        <time>2019-08-15T08:44:06.681Z</time>
      </trkpt>
      <trkpt lat="48.96908" lon="0.81487">
        <ele>159</ele>
        <time>2019-08-15T08:44:07.689Z</time>
      </trkpt>
      <trkpt lat="48.96908" lon="0.81487">
        <ele>159</ele>
        <time>2019-08-15T08:44:08.687Z</time>
      </trkpt>
      <trkpt lat="48.96914" lon="0.81494">
        <ele>159</ele>
        <time>2019-08-15T08:44:09.688Z</time>
      </trkpt>
      <trkpt lat="48.96914" lon="0.81494">
        <ele>159</ele>
        <time>2019-08-15T08:44:10.679Z</time>
      </trkpt>
      <trkpt lat="48.96921" lon="0.81501">
        <ele>159</ele>
        <time>2019-08-15T08:44:11.702Z</time>
      </trkpt>
      <trkpt lat="48.96921" lon="0.81501">
        <ele>159</ele>
        <time>2019-08-15T08:44:12.686Z</time>
      </trkpt>
      <trkpt lat="48.96927" lon="0.81508">
        <ele>158</ele>
        <time>2019-08-15T08:44:13.689Z</time>
      </trkpt>
      <trkpt lat="48.96927" lon="0.81508">
        <ele>158</ele>
        <time>2019-08-15T08:44:14.681Z</time>
      </trkpt>
      <trkpt lat="48.96934" lon="0.81515">
        <ele>158</ele>
        <time>2019-08-15T08:44:15.685Z</time>
      </trkpt>
      <trkpt lat="48.96934" lon="0.81515">
        <ele>158</ele>
        <time>2019-08-15T08:44:16.682Z</time>
      </trkpt>
      <trkpt lat="48.9694" lon="0.81522">
        <ele>158</ele>
        <time>2019-08-15T08:44:17.687Z</time>
      </trkpt>
      <trkpt lat="48.9694" lon="0.81522">
        <ele>158</ele>
        <time>2019-08-15T08:44:18.682Z</time>
      </trkpt>
      <trkpt lat="48.96947" lon="0.81528">
        <ele>158</ele>
        <time>2019-08-15T08:44:19.701Z</time>
      </trkpt>
      <trkpt lat="48.9695" lon="0.81532">
        <ele>158</ele>
        <time>2019-08-15T08:44:20.687Z</time>
      </trkpt>
      <trkpt lat="48.9695" lon="0.81532">
        <ele>158</ele>
        <time>2019-08-15T08:44:21.686Z</time>
      </trkpt>
      <trkpt lat="48.96957" lon="0.81538">
        <ele>158</ele>
        <time>2019-08-15T08:44:22.688Z</time>
      </trkpt>
      <trkpt lat="48.96957" lon="0.81538">
        <ele>158</ele>
        <time>2019-08-15T08:44:23.683Z</time>
      </trkpt>
      <trkpt lat="48.96963" lon="0.81545">
        <ele>158</ele>
        <time>2019-08-15T08:44:24.686Z</time>
      </trkpt>
      <trkpt lat="48.96967" lon="0.81548">
        <ele>158</ele>
        <time>2019-08-15T08:44:25.689Z</time>
      </trkpt>
      <trkpt lat="48.9697" lon="0.81551">
        <ele>158</ele>
        <time>2019-08-15T08:44:26.688Z</time>
      </trkpt>
      <trkpt lat="48.9697" lon="0.81551">
        <ele>158</ele>
        <time>2019-08-15T08:44:27.686Z</time>
      </trkpt>
      <trkpt lat="48.96976" lon="0.81556">
        <ele>158</ele>
        <time>2019-08-15T08:44:28.687Z</time>
      </trkpt>
      <trkpt lat="48.96979" lon="0.81559">
        <ele>158</ele>
        <time>2019-08-15T08:44:29.688Z</time>
      </trkpt>
      <trkpt lat="48.96979" lon="0.81559">
        <ele>158</ele>
        <time>2019-08-15T08:44:30.682Z</time>
      </trkpt>
      <trkpt lat="48.96984" lon="0.81565">
        <ele>157</ele>
        <time>2019-08-15T08:44:31.704Z</time>
      </trkpt>
      <trkpt lat="48.96984" lon="0.81565">
        <ele>157</ele>
        <time>2019-08-15T08:44:32.686Z</time>
      </trkpt>
      <trkpt lat="48.9699" lon="0.81569">
        <ele>157</ele>
        <time>2019-08-15T08:44:33.687Z</time>
      </trkpt>
      <trkpt lat="48.96992" lon="0.81571">
        <ele>157</ele>
        <time>2019-08-15T08:44:34.703Z</time>
      </trkpt>
      <trkpt lat="48.96992" lon="0.81571">
        <ele>157</ele>
        <time>2019-08-15T08:44:35.685Z</time>
      </trkpt>
      <trkpt lat="48.96997" lon="0.81576">
        <ele>157</ele>
        <time>2019-08-15T08:44:36.687Z</time>
      </trkpt>
      <trkpt lat="48.96999" lon="0.81578">
        <ele>157</ele>
        <time>2019-08-15T08:44:37.688Z</time>
      </trkpt>
      <trkpt lat="48.96999" lon="0.81578">
        <ele>157</ele>
        <time>2019-08-15T08:44:38.682Z</time>
      </trkpt>
      <trkpt lat="48.97002" lon="0.81582">
        <ele>157</ele>
        <time>2019-08-15T08:44:39.707Z</time>
      </trkpt>
      <trkpt lat="48.97002" lon="0.81582">
        <ele>157</ele>
        <time>2019-08-15T08:44:40.693Z</time>
      </trkpt>
      <trkpt lat="48.97005" lon="0.81584">
        <ele>157</ele>
        <time>2019-08-15T08:44:41.688Z</time>
      </trkpt>
      <trkpt lat="48.97005" lon="0.81584">
        <ele>157</ele>
        <time>2019-08-15T08:44:42.687Z</time>
      </trkpt>
      <trkpt lat="48.97005" lon="0.81584">
        <ele>157</ele>
        <time>2019-08-15T08:44:43.687Z</time>
      </trkpt>
      <trkpt lat="48.97005" lon="0.81584">
        <ele>157</ele>
        <time>2019-08-15T08:44:44.688Z</time>
      </trkpt>
      <trkpt lat="48.97008" lon="0.81588">
        <ele>157</ele>
        <time>2019-08-15T08:44:45.690Z</time>
      </trkpt>
      <trkpt lat="48.97008" lon="0.81588">
        <ele>157</ele>
        <time>2019-08-15T08:44:46.680Z</time>
      </trkpt>
      <trkpt lat="48.9701" lon="0.81591">
        <ele>157</ele>
        <time>2019-08-15T08:44:47.679Z</time>
      </trkpt>
      <trkpt lat="48.9701" lon="0.81591">
        <ele>157</ele>
        <time>2019-08-15T08:44:48.714Z</time>
      </trkpt>
      <trkpt lat="48.97015" lon="0.81595">
        <ele>156</ele>
        <time>2019-08-15T08:44:49.680Z</time>
      </trkpt>
      <trkpt lat="48.97018" lon="0.81597">
        <ele>156</ele>
        <time>2019-08-15T08:44:50.696Z</time>
      </trkpt>
      <trkpt lat="48.97018" lon="0.81597">
        <ele>156</ele>
        <time>2019-08-15T08:44:51.691Z</time>
      </trkpt>
      <trkpt lat="48.97024" lon="0.81603">
        <ele>156</ele>
        <time>2019-08-15T08:44:52.697Z</time>
      </trkpt>
      <trkpt lat="48.97027" lon="0.81606">
        <ele>156</ele>
        <time>2019-08-15T08:44:53.682Z</time>
      </trkpt>
      <trkpt lat="48.97027" lon="0.81606">
        <ele>156</ele>
        <time>2019-08-15T08:44:54.679Z</time>
      </trkpt>
      <trkpt lat="48.97034" lon="0.81613">
        <ele>156</ele>
        <time>2019-08-15T08:44:55.680Z</time>
      </trkpt>
      <trkpt lat="48.97038" lon="0.81617">
        <ele>156</ele>
        <time>2019-08-15T08:44:56.680Z</time>
      </trkpt>
      <trkpt lat="48.97041" lon="0.81621">
        <ele>156</ele>
        <time>2019-08-15T08:44:57.693Z</time>
      </trkpt>
      <trkpt lat="48.97041" lon="0.81621">
        <ele>156</ele>
        <time>2019-08-15T08:44:58.685Z</time>
      </trkpt>
      <trkpt lat="48.97049" lon="0.8163">
        <ele>156</ele>
        <time>2019-08-15T08:44:59.679Z</time>
      </trkpt>
      <trkpt lat="48.97053" lon="0.81634">
        <ele>156</ele>
        <time>2019-08-15T08:45:00.680Z</time>
      </trkpt>
      <trkpt lat="48.97053" lon="0.81634">
        <ele>156</ele>
        <time>2019-08-15T08:45:01.715Z</time>
      </trkpt>
      <trkpt lat="48.97061" lon="0.81643">
        <ele>156</ele>
        <time>2019-08-15T08:45:02.682Z</time>
      </trkpt>
      <trkpt lat="48.97061" lon="0.81643">
        <ele>156</ele>
        <time>2019-08-15T08:45:03.714Z</time>
      </trkpt>
      <trkpt lat="48.97069" lon="0.81651">
        <ele>156</ele>
        <time>2019-08-15T08:45:04.697Z</time>
      </trkpt>
      <trkpt lat="48.97069" lon="0.81651">
        <ele>156</ele>
        <time>2019-08-15T08:45:05.682Z</time>
      </trkpt>
      <trkpt lat="48.97077" lon="0.8166">
        <ele>156</ele>
        <time>2019-08-15T08:45:06.680Z</time>
      </trkpt>
      <trkpt lat="48.97077" lon="0.8166">
        <ele>156</ele>
        <time>2019-08-15T08:45:07.715Z</time>
      </trkpt>
      <trkpt lat="48.97086" lon="0.81669">
        <ele>156</ele>
        <time>2019-08-15T08:45:08.679Z</time>
      </trkpt>
      <trkpt lat="48.9709" lon="0.81673">
        <ele>156</ele>
        <time>2019-08-15T08:45:09.680Z</time>
      </trkpt>
      <trkpt lat="48.9709" lon="0.81673">
        <ele>156</ele>
        <time>2019-08-15T08:45:10.717Z</time>
      </trkpt>
      <trkpt lat="48.97099" lon="0.81681">
        <ele>156</ele>
        <time>2019-08-15T08:45:11.680Z</time>
      </trkpt>
      <trkpt lat="48.97103" lon="0.81685">
        <ele>156</ele>
        <time>2019-08-15T08:45:12.680Z</time>
      </trkpt>
      <trkpt lat="48.97103" lon="0.81685">
        <ele>156</ele>
        <time>2019-08-15T08:45:13.715Z</time>
      </trkpt>
      <trkpt lat="48.97113" lon="0.81693">
        <ele>156</ele>
        <time>2019-08-15T08:45:14.679Z</time>
      </trkpt>
      <trkpt lat="48.97117" lon="0.81697">
        <ele>155</ele>
        <time>2019-08-15T08:45:15.680Z</time>
      </trkpt>
      <trkpt lat="48.97122" lon="0.81701">
        <ele>155</ele>
        <time>2019-08-15T08:45:16.682Z</time>
      </trkpt>
      <trkpt lat="48.97127" lon="0.81704">
        <ele>155</ele>
        <time>2019-08-15T08:45:17.680Z</time>
      </trkpt>
      <trkpt lat="48.97127" lon="0.81704">
        <ele>155</ele>
        <time>2019-08-15T08:45:18.715Z</time>
      </trkpt>
      <trkpt lat="48.97136" lon="0.8171">
        <ele>155</ele>
        <time>2019-08-15T08:45:19.679Z</time>
      </trkpt>
      <trkpt lat="48.97136" lon="0.8171">
        <ele>155</ele>
        <time>2019-08-15T08:45:20.715Z</time>
      </trkpt>
      <trkpt lat="48.97146" lon="0.81716">
        <ele>156</ele>
        <time>2019-08-15T08:45:21.697Z</time>
      </trkpt>
      <trkpt lat="48.9715" lon="0.81719">
        <ele>156</ele>
        <time>2019-08-15T08:45:22.695Z</time>
      </trkpt>
      <trkpt lat="48.9715" lon="0.81719">
        <ele>156</ele>
        <time>2019-08-15T08:45:23.679Z</time>
      </trkpt>
      <trkpt lat="48.9716" lon="0.81725">
        <ele>155</ele>
        <time>2019-08-15T08:45:24.680Z</time>
      </trkpt>
      <trkpt lat="48.97165" lon="0.81729">
        <ele>155</ele>
        <time>2019-08-15T08:45:25.682Z</time>
      </trkpt>
      <trkpt lat="48.97165" lon="0.81729">
        <ele>155</ele>
        <time>2019-08-15T08:45:26.717Z</time>
      </trkpt>
      <trkpt lat="48.97174" lon="0.81734">
        <ele>155</ele>
        <time>2019-08-15T08:45:27.695Z</time>
      </trkpt>
      <trkpt lat="48.97174" lon="0.81734">
        <ele>155</ele>
        <time>2019-08-15T08:45:28.685Z</time>
      </trkpt>
      <trkpt lat="48.97183" lon="0.81739">
        <ele>156</ele>
        <time>2019-08-15T08:45:29.679Z</time>
      </trkpt>
      <trkpt lat="48.97187" lon="0.8174">
        <ele>156</ele>
        <time>2019-08-15T08:45:30.680Z</time>
      </trkpt>
      <trkpt lat="48.97187" lon="0.8174">
        <ele>156</ele>
        <time>2019-08-15T08:45:31.714Z</time>
      </trkpt>
      <trkpt lat="48.97195" lon="0.81744">
        <ele>156</ele>
        <time>2019-08-15T08:45:32.680Z</time>
      </trkpt>
      <trkpt lat="48.97195" lon="0.81744">
        <ele>156</ele>
        <time>2019-08-15T08:45:33.716Z</time>
      </trkpt>
      <trkpt lat="48.97204" lon="0.81748">
        <ele>156</ele>
        <time>2019-08-15T08:45:34.681Z</time>
      </trkpt>
      <trkpt lat="48.97204" lon="0.81748">
        <ele>156</ele>
        <time>2019-08-15T08:45:35.714Z</time>
      </trkpt>
      <trkpt lat="48.97212" lon="0.81752">
        <ele>156</ele>
        <time>2019-08-15T08:45:36.717Z</time>
      </trkpt>
      <trkpt lat="48.97212" lon="0.81752">
        <ele>156</ele>
        <time>2019-08-15T08:45:37.715Z</time>
      </trkpt>
      <trkpt lat="48.97221" lon="0.81757">
        <ele>156</ele>
        <time>2019-08-15T08:45:38.688Z</time>
      </trkpt>
      <trkpt lat="48.97225" lon="0.81759">
        <ele>155</ele>
        <time>2019-08-15T08:45:39.680Z</time>
      </trkpt>
      <trkpt lat="48.9723" lon="0.81761">
        <ele>155</ele>
        <time>2019-08-15T08:45:40.682Z</time>
      </trkpt>
      <trkpt lat="48.97235" lon="0.81763">
        <ele>155</ele>
        <time>2019-08-15T08:45:41.680Z</time>
      </trkpt>
      <trkpt lat="48.97235" lon="0.81763">
        <ele>155</ele>
        <time>2019-08-15T08:45:42.678Z</time>
      </trkpt>
      <trkpt lat="48.97244" lon="0.81768">
        <ele>155</ele>
        <time>2019-08-15T08:45:43.679Z</time>
      </trkpt>
      <trkpt lat="48.97249" lon="0.8177">
        <ele>155</ele>
        <time>2019-08-15T08:45:44.680Z</time>
      </trkpt>
      <trkpt lat="48.97249" lon="0.8177">
        <ele>155</ele>
        <time>2019-08-15T08:45:45.715Z</time>
      </trkpt>
      <trkpt lat="48.97258" lon="0.81775">
        <ele>154</ele>
        <time>2019-08-15T08:45:46.679Z</time>
      </trkpt>
      <trkpt lat="48.97258" lon="0.81775">
        <ele>154</ele>
        <time>2019-08-15T08:45:47.714Z</time>
      </trkpt>
      <trkpt lat="48.97268" lon="0.81779">
        <ele>154</ele>
        <time>2019-08-15T08:45:48.683Z</time>
      </trkpt>
      <trkpt lat="48.97268" lon="0.81779">
        <ele>154</ele>
        <time>2019-08-15T08:45:49.714Z</time>
      </trkpt>
      <trkpt lat="48.97278" lon="0.81784">
        <ele>154</ele>
        <time>2019-08-15T08:45:50.679Z</time>
      </trkpt>
      <trkpt lat="48.97278" lon="0.81784">
        <ele>154</ele>
        <time>2019-08-15T08:45:51.715Z</time>
      </trkpt>
      <trkpt lat="48.97288" lon="0.81789">
        <ele>154</ele>
        <time>2019-08-15T08:45:52.697Z</time>
      </trkpt>
      <trkpt lat="48.97288" lon="0.81789">
        <ele>154</ele>
        <time>2019-08-15T08:45:53.682Z</time>
      </trkpt>
      <trkpt lat="48.97297" lon="0.81794">
        <ele>153</ele>
        <time>2019-08-15T08:45:54.680Z</time>
      </trkpt>
      <trkpt lat="48.97297" lon="0.81794">
        <ele>153</ele>
        <time>2019-08-15T08:45:55.715Z</time>
      </trkpt>
      <trkpt lat="48.97305" lon="0.81797">
        <ele>153</ele>
        <time>2019-08-15T08:45:56.679Z</time>
      </trkpt>
      <trkpt lat="48.97309" lon="0.81799">
        <ele>153</ele>
        <time>2019-08-15T08:45:57.682Z</time>
      </trkpt>
      <trkpt lat="48.97309" lon="0.81799">
        <ele>153</ele>
        <time>2019-08-15T08:45:58.683Z</time>
      </trkpt>
      <trkpt lat="48.97317" lon="0.81802">
        <ele>153</ele>
        <time>2019-08-15T08:45:59.679Z</time>
      </trkpt>
      <trkpt lat="48.97321" lon="0.81804">
        <ele>153</ele>
        <time>2019-08-15T08:46:00.680Z</time>
      </trkpt>
      <trkpt lat="48.97321" lon="0.81804">
        <ele>153</ele>
        <time>2019-08-15T08:46:01.715Z</time>
      </trkpt>
      <trkpt lat="48.97328" lon="0.81808">
        <ele>153</ele>
        <time>2019-08-15T08:46:02.681Z</time>
      </trkpt>
      <trkpt lat="48.97328" lon="0.81808">
        <ele>153</ele>
        <time>2019-08-15T08:46:03.714Z</time>
      </trkpt>
      <trkpt lat="48.97335" lon="0.81812">
        <ele>153</ele>
        <time>2019-08-15T08:46:04.697Z</time>
      </trkpt>
      <trkpt lat="48.97335" lon="0.81812">
        <ele>153</ele>
        <time>2019-08-15T08:46:05.679Z</time>
      </trkpt>
      <trkpt lat="48.97342" lon="0.81815">
        <ele>153</ele>
        <time>2019-08-15T08:46:06.680Z</time>
      </trkpt>
      <trkpt lat="48.97342" lon="0.81815">
        <ele>153</ele>
        <time>2019-08-15T08:46:07.714Z</time>
      </trkpt>
      <trkpt lat="48.97349" lon="0.81818">
        <ele>153</ele>
        <time>2019-08-15T08:46:08.679Z</time>
      </trkpt>
      <trkpt lat="48.97349" lon="0.81818">
        <ele>153</ele>
        <time>2019-08-15T08:46:09.714Z</time>
      </trkpt>
      <trkpt lat="48.97356" lon="0.81822">
        <ele>153</ele>
        <time>2019-08-15T08:46:10.697Z</time>
      </trkpt>
      <trkpt lat="48.9736" lon="0.81823">
        <ele>153</ele>
        <time>2019-08-15T08:46:11.681Z</time>
      </trkpt>
      <trkpt lat="48.9736" lon="0.81823">
        <ele>153</ele>
        <time>2019-08-15T08:46:12.678Z</time>
      </trkpt>
      <trkpt lat="48.97366" lon="0.81826">
        <ele>153</ele>
        <time>2019-08-15T08:46:13.679Z</time>
      </trkpt>
      <trkpt lat="48.9737" lon="0.81827">
        <ele>154</ele>
        <time>2019-08-15T08:46:14.680Z</time>
      </trkpt>
      <trkpt lat="48.9737" lon="0.81827">
        <ele>154</ele>
        <time>2019-08-15T08:46:15.715Z</time>
      </trkpt>
      <trkpt lat="48.97377" lon="0.8183">
        <ele>154</ele>
        <time>2019-08-15T08:46:16.682Z</time>
      </trkpt>
      <trkpt lat="48.97377" lon="0.8183">
        <ele>154</ele>
        <time>2019-08-15T08:46:17.714Z</time>
      </trkpt>
      <trkpt lat="48.97385" lon="0.81832">
        <ele>155</ele>
        <time>2019-08-15T08:46:18.680Z</time>
      </trkpt>
      <trkpt lat="48.97385" lon="0.81832">
        <ele>155</ele>
        <time>2019-08-15T08:46:19.715Z</time>
      </trkpt>
      <trkpt lat="48.97392" lon="0.81836">
        <ele>154</ele>
        <time>2019-08-15T08:46:20.681Z</time>
      </trkpt>
      <trkpt lat="48.97392" lon="0.81836">
        <ele>154</ele>
        <time>2019-08-15T08:46:21.714Z</time>
      </trkpt>
      <trkpt lat="48.97399" lon="0.81842">
        <ele>155</ele>
        <time>2019-08-15T08:46:22.679Z</time>
      </trkpt>
      <trkpt lat="48.97399" lon="0.81842">
        <ele>155</ele>
        <time>2019-08-15T08:46:23.715Z</time>
      </trkpt>
      <trkpt lat="48.97406" lon="0.8185">
        <ele>155</ele>
        <time>2019-08-15T08:46:24.681Z</time>
      </trkpt>
      <trkpt lat="48.97406" lon="0.8185">
        <ele>155</ele>
        <time>2019-08-15T08:46:25.715Z</time>
      </trkpt>
      <trkpt lat="48.97413" lon="0.8186">
        <ele>154</ele>
        <time>2019-08-15T08:46:26.679Z</time>
      </trkpt>
      <trkpt lat="48.97413" lon="0.8186">
        <ele>154</ele>
        <time>2019-08-15T08:46:27.715Z</time>
      </trkpt>
      <trkpt lat="48.9742" lon="0.81871">
        <ele>154</ele>
        <time>2019-08-15T08:46:28.697Z</time>
      </trkpt>
      <trkpt lat="48.9742" lon="0.81871">
        <ele>154</ele>
        <time>2019-08-15T08:46:29.692Z</time>
      </trkpt>
      <trkpt lat="48.97427" lon="0.8188">
        <ele>154</ele>
        <time>2019-08-15T08:46:30.681Z</time>
      </trkpt>
      <trkpt lat="48.97427" lon="0.8188">
        <ele>154</ele>
        <time>2019-08-15T08:46:31.715Z</time>
      </trkpt>
      <trkpt lat="48.97434" lon="0.81892">
        <ele>153</ele>
        <time>2019-08-15T08:46:32.679Z</time>
      </trkpt>
      <trkpt lat="48.97434" lon="0.81892">
        <ele>153</ele>
        <time>2019-08-15T08:46:33.715Z</time>
      </trkpt>
      <trkpt lat="48.97441" lon="0.81905">
        <ele>153</ele>
        <time>2019-08-15T08:46:34.682Z</time>
      </trkpt>
      <trkpt lat="48.97444" lon="0.8191">
        <ele>153</ele>
        <time>2019-08-15T08:46:35.680Z</time>
      </trkpt>
      <trkpt lat="48.97444" lon="0.8191">
        <ele>153</ele>
        <time>2019-08-15T08:46:36.715Z</time>
      </trkpt>
      <trkpt lat="48.97451" lon="0.8192">
        <ele>153</ele>
        <time>2019-08-15T08:46:37.699Z</time>
      </trkpt>
      <trkpt lat="48.97451" lon="0.8192">
        <ele>153</ele>
        <time>2019-08-15T08:46:38.685Z</time>
      </trkpt>
      <trkpt lat="48.97457" lon="0.81933">
        <ele>154</ele>
        <time>2019-08-15T08:46:39.681Z</time>
      </trkpt>
      <trkpt lat="48.97457" lon="0.81933">
        <ele>154</ele>
        <time>2019-08-15T08:46:40.680Z</time>
      </trkpt>
      <trkpt lat="48.97463" lon="0.81945">
        <ele>154</ele>
        <time>2019-08-15T08:46:41.679Z</time>
      </trkpt>
      <trkpt lat="48.97463" lon="0.81945">
        <ele>154</ele>
        <time>2019-08-15T08:46:42.680Z</time>
      </trkpt>
      <trkpt lat="48.9747" lon="0.81957">
        <ele>154</ele>
        <time>2019-08-15T08:46:43.679Z</time>
      </trkpt>
      <trkpt lat="48.9747" lon="0.81957">
        <ele>154</ele>
        <time>2019-08-15T08:46:44.717Z</time>
      </trkpt>
      <trkpt lat="48.97476" lon="0.81971">
        <ele>154</ele>
        <time>2019-08-15T08:46:45.679Z</time>
      </trkpt>
      <trkpt lat="48.97479" lon="0.81977">
        <ele>155</ele>
        <time>2019-08-15T08:46:46.682Z</time>
      </trkpt>
      <trkpt lat="48.97479" lon="0.81977">
        <ele>155</ele>
        <time>2019-08-15T08:46:47.715Z</time>
      </trkpt>
      <trkpt lat="48.97484" lon="0.8199">
        <ele>155</ele>
        <time>2019-08-15T08:46:48.680Z</time>
      </trkpt>
      <trkpt lat="48.97484" lon="0.8199">
        <ele>155</ele>
        <time>2019-08-15T08:46:49.715Z</time>
      </trkpt>
      <trkpt lat="48.97489" lon="0.82003">
        <ele>155</ele>
        <time>2019-08-15T08:46:50.680Z</time>
      </trkpt>
      <trkpt lat="48.97489" lon="0.82003">
        <ele>155</ele>
        <time>2019-08-15T08:46:51.716Z</time>
      </trkpt>
      <trkpt lat="48.97494" lon="0.82015">
        <ele>155</ele>
        <time>2019-08-15T08:46:52.686Z</time>
      </trkpt>
      <trkpt lat="48.97494" lon="0.82015">
        <ele>155</ele>
        <time>2019-08-15T08:46:53.714Z</time>
      </trkpt>
      <trkpt lat="48.975" lon="0.82028">
        <ele>155</ele>
        <time>2019-08-15T08:46:54.680Z</time>
      </trkpt>
      <trkpt lat="48.975" lon="0.82028">
        <ele>155</ele>
        <time>2019-08-15T08:46:55.678Z</time>
      </trkpt>
      <trkpt lat="48.97505" lon="0.82041">
        <ele>155</ele>
        <time>2019-08-15T08:46:56.680Z</time>
      </trkpt>
      <trkpt lat="48.97505" lon="0.82041">
        <ele>155</ele>
        <time>2019-08-15T08:46:57.715Z</time>
      </trkpt>
      <trkpt lat="48.97511" lon="0.82053">
        <ele>156</ele>
        <time>2019-08-15T08:46:58.697Z</time>
      </trkpt>
      <trkpt lat="48.97511" lon="0.82053">
        <ele>156</ele>
        <time>2019-08-15T08:46:59.685Z</time>
      </trkpt>
      <trkpt lat="48.97517" lon="0.82065">
        <ele>156</ele>
        <time>2019-08-15T08:47:00.680Z</time>
      </trkpt>
      <trkpt lat="48.97517" lon="0.82065">
        <ele>156</ele>
        <time>2019-08-15T08:47:01.715Z</time>
      </trkpt>
      <trkpt lat="48.97523" lon="0.82077">
        <ele>156</ele>
        <time>2019-08-15T08:47:02.717Z</time>
      </trkpt>
      <trkpt lat="48.97523" lon="0.82077">
        <ele>156</ele>
        <time>2019-08-15T08:47:03.714Z</time>
      </trkpt>
      <trkpt lat="48.97529" lon="0.82089">
        <ele>156</ele>
        <time>2019-08-15T08:47:04.697Z</time>
      </trkpt>
      <trkpt lat="48.97529" lon="0.82089">
        <ele>156</ele>
        <time>2019-08-15T08:47:05.679Z</time>
      </trkpt>
      <trkpt lat="48.97535" lon="0.82101">
        <ele>157</ele>
        <time>2019-08-15T08:47:06.680Z</time>
      </trkpt>
      <trkpt lat="48.97535" lon="0.82101">
        <ele>157</ele>
        <time>2019-08-15T08:47:07.714Z</time>
      </trkpt>
      <trkpt lat="48.97541" lon="0.82113">
        <ele>157</ele>
        <time>2019-08-15T08:47:08.679Z</time>
      </trkpt>
      <trkpt lat="48.97541" lon="0.82113">
        <ele>157</ele>
        <time>2019-08-15T08:47:09.715Z</time>
      </trkpt>
      <trkpt lat="48.97546" lon="0.82124">
        <ele>157</ele>
        <time>2019-08-15T08:47:10.697Z</time>
      </trkpt>
      <trkpt lat="48.97546" lon="0.82124">
        <ele>157</ele>
        <time>2019-08-15T08:47:11.683Z</time>
      </trkpt>
      <trkpt lat="48.97553" lon="0.82135">
        <ele>157</ele>
        <time>2019-08-15T08:47:12.690Z</time>
      </trkpt>
      <trkpt lat="48.97553" lon="0.82135">
        <ele>157</ele>
        <time>2019-08-15T08:47:13.716Z</time>
      </trkpt>
      <trkpt lat="48.97559" lon="0.82147">
        <ele>157</ele>
        <time>2019-08-15T08:47:14.679Z</time>
      </trkpt>
      <trkpt lat="48.97559" lon="0.82147">
        <ele>157</ele>
        <time>2019-08-15T08:47:15.714Z</time>
      </trkpt>
      <trkpt lat="48.97564" lon="0.82157">
        <ele>157</ele>
        <time>2019-08-15T08:47:16.697Z</time>
      </trkpt>
      <trkpt lat="48.97564" lon="0.82157">
        <ele>157</ele>
        <time>2019-08-15T08:47:17.682Z</time>
      </trkpt>
      <trkpt lat="48.97569" lon="0.82168">
        <ele>157</ele>
        <time>2019-08-15T08:47:18.680Z</time>
      </trkpt>
      <trkpt lat="48.97569" lon="0.82168">
        <ele>157</ele>
        <time>2019-08-15T08:47:19.712Z</time>
      </trkpt>
      <trkpt lat="48.97573" lon="0.82179">
        <ele>157</ele>
        <time>2019-08-15T08:47:20.695Z</time>
      </trkpt>
      <trkpt lat="48.97573" lon="0.82179">
        <ele>157</ele>
        <time>2019-08-15T08:47:21.680Z</time>
      </trkpt>
      <trkpt lat="48.97575" lon="0.82193">
        <ele>157</ele>
        <time>2019-08-15T08:47:22.686Z</time>
      </trkpt>
      <trkpt lat="48.97575" lon="0.82193">
        <ele>157</ele>
        <time>2019-08-15T08:47:23.715Z</time>
      </trkpt>
      <trkpt lat="48.97579" lon="0.82206">
        <ele>158</ele>
        <time>2019-08-15T08:47:24.680Z</time>
      </trkpt>
      <trkpt lat="48.97579" lon="0.82206">
        <ele>158</ele>
        <time>2019-08-15T08:47:25.715Z</time>
      </trkpt>
      <trkpt lat="48.97584" lon="0.82219">
        <ele>158</ele>
        <time>2019-08-15T08:47:26.679Z</time>
      </trkpt>
      <trkpt lat="48.97587" lon="0.82226">
        <ele>158</ele>
        <time>2019-08-15T08:47:27.680Z</time>
      </trkpt>
      <trkpt lat="48.9759" lon="0.82233">
        <ele>158</ele>
        <time>2019-08-15T08:47:28.681Z</time>
      </trkpt>
      <trkpt lat="48.9759" lon="0.82233">
        <ele>158</ele>
        <time>2019-08-15T08:47:29.681Z</time>
      </trkpt>
      <trkpt lat="48.97595" lon="0.82248">
        <ele>158</ele>
        <time>2019-08-15T08:47:30.680Z</time>
      </trkpt>
      <trkpt lat="48.97595" lon="0.82248">
        <ele>158</ele>
        <time>2019-08-15T08:47:31.714Z</time>
      </trkpt>
      <trkpt lat="48.97602" lon="0.8226">
        <ele>157</ele>
        <time>2019-08-15T08:47:32.699Z</time>
      </trkpt>
      <trkpt lat="48.97602" lon="0.8226">
        <ele>157</ele>
        <time>2019-08-15T08:47:33.686Z</time>
      </trkpt>
      <trkpt lat="48.97611" lon="0.82262">
        <ele>157</ele>
        <time>2019-08-15T08:47:34.682Z</time>
      </trkpt>
      <trkpt lat="48.97611" lon="0.82262">
        <ele>157</ele>
        <time>2019-08-15T08:47:35.714Z</time>
      </trkpt>
      <trkpt lat="48.9762" lon="0.82257">
        <ele>157</ele>
        <time>2019-08-15T08:47:36.680Z</time>
      </trkpt>
      <trkpt lat="48.9762" lon="0.82257">
        <ele>157</ele>
        <time>2019-08-15T08:47:37.714Z</time>
      </trkpt>
      <trkpt lat="48.97629" lon="0.82248">
        <ele>156</ele>
        <time>2019-08-15T08:47:38.680Z</time>
      </trkpt>
      <trkpt lat="48.97634" lon="0.82243">
        <ele>156</ele>
        <time>2019-08-15T08:47:39.680Z</time>
      </trkpt>
      <trkpt lat="48.97639" lon="0.82238">
        <ele>156</ele>
        <time>2019-08-15T08:47:40.682Z</time>
      </trkpt>
      <trkpt lat="48.97639" lon="0.82238">
        <ele>156</ele>
        <time>2019-08-15T08:47:41.715Z</time>
      </trkpt>
      <trkpt lat="48.97649" lon="0.82229">
        <ele>155</ele>
        <time>2019-08-15T08:47:42.682Z</time>
      </trkpt>
      <trkpt lat="48.97649" lon="0.82229">
        <ele>155</ele>
        <time>2019-08-15T08:47:43.714Z</time>
      </trkpt>
      <trkpt lat="48.97659" lon="0.8222">
        <ele>155</ele>
        <time>2019-08-15T08:47:44.690Z</time>
      </trkpt>
      <trkpt lat="48.97659" lon="0.8222">
        <ele>155</ele>
        <time>2019-08-15T08:47:45.714Z</time>
      </trkpt>
      <trkpt lat="48.97668" lon="0.82211">
        <ele>155</ele>
        <time>2019-08-15T08:47:46.679Z</time>
      </trkpt>
      <trkpt lat="48.97668" lon="0.82211">
        <ele>155</ele>
        <time>2019-08-15T08:47:47.715Z</time>
      </trkpt>
      <trkpt lat="48.97677" lon="0.82203">
        <ele>154</ele>
        <time>2019-08-15T08:47:48.680Z</time>
      </trkpt>
      <trkpt lat="48.97677" lon="0.82203">
        <ele>154</ele>
        <time>2019-08-15T08:47:49.684Z</time>
      </trkpt>
      <trkpt lat="48.97687" lon="0.82195">
        <ele>154</ele>
        <time>2019-08-15T08:47:50.679Z</time>
      </trkpt>
      <trkpt lat="48.97687" lon="0.82195">
        <ele>154</ele>
        <time>2019-08-15T08:47:51.714Z</time>
      </trkpt>
      <trkpt lat="48.97697" lon="0.82186">
        <ele>154</ele>
        <time>2019-08-15T08:47:52.681Z</time>
      </trkpt>
      <trkpt lat="48.97697" lon="0.82186">
        <ele>154</ele>
        <time>2019-08-15T08:47:53.678Z</time>
      </trkpt>
      <trkpt lat="48.97707" lon="0.82179">
        <ele>153</ele>
        <time>2019-08-15T08:47:54.681Z</time>
      </trkpt>
      <trkpt lat="48.97707" lon="0.82179">
        <ele>153</ele>
        <time>2019-08-15T08:47:55.715Z</time>
      </trkpt>
      <trkpt lat="48.97716" lon="0.82169">
        <ele>153</ele>
        <time>2019-08-15T08:47:56.680Z</time>
      </trkpt>
      <trkpt lat="48.97716" lon="0.82169">
        <ele>153</ele>
        <time>2019-08-15T08:47:57.714Z</time>
      </trkpt>
      <trkpt lat="48.97727" lon="0.82158">
        <ele>153</ele>
        <time>2019-08-15T08:47:58.697Z</time>
      </trkpt>
      <trkpt lat="48.97727" lon="0.82158">
        <ele>153</ele>
        <time>2019-08-15T08:47:59.684Z</time>
      </trkpt>
      <trkpt lat="48.97737" lon="0.82147">
        <ele>153</ele>
        <time>2019-08-15T08:48:00.680Z</time>
      </trkpt>
      <trkpt lat="48.97737" lon="0.82147">
        <ele>153</ele>
        <time>2019-08-15T08:48:01.714Z</time>
      </trkpt>
      <trkpt lat="48.97746" lon="0.82136">
        <ele>153</ele>
        <time>2019-08-15T08:48:02.717Z</time>
      </trkpt>
      <trkpt lat="48.9775" lon="0.8213">
        <ele>153</ele>
        <time>2019-08-15T08:48:03.679Z</time>
      </trkpt>
      <trkpt lat="48.97754" lon="0.82125">
        <ele>153</ele>
        <time>2019-08-15T08:48:04.682Z</time>
      </trkpt>
      <trkpt lat="48.97754" lon="0.82125">
        <ele>153</ele>
        <time>2019-08-15T08:48:05.678Z</time>
      </trkpt>
      <trkpt lat="48.97762" lon="0.82115">
        <ele>153</ele>
        <time>2019-08-15T08:48:06.680Z</time>
      </trkpt>
      <trkpt lat="48.97762" lon="0.82115">
        <ele>153</ele>
        <time>2019-08-15T08:48:07.715Z</time>
      </trkpt>
      <trkpt lat="48.97769" lon="0.82104">
        <ele>153</ele>
        <time>2019-08-15T08:48:08.680Z</time>
      </trkpt>
      <trkpt lat="48.97769" lon="0.82104">
        <ele>153</ele>
        <time>2019-08-15T08:48:09.715Z</time>
      </trkpt>
      <trkpt lat="48.97777" lon="0.82095">
        <ele>153</ele>
        <time>2019-08-15T08:48:10.682Z</time>
      </trkpt>
      <trkpt lat="48.97777" lon="0.82095">
        <ele>153</ele>
        <time>2019-08-15T08:48:11.714Z</time>
      </trkpt>
      <trkpt lat="48.97784" lon="0.82084">
        <ele>153</ele>
        <time>2019-08-15T08:48:12.717Z</time>
      </trkpt>
      <trkpt lat="48.97784" lon="0.82084">
        <ele>153</ele>
        <time>2019-08-15T08:48:13.714Z</time>
      </trkpt>
      <trkpt lat="48.97791" lon="0.82074">
        <ele>154</ele>
        <time>2019-08-15T08:48:14.680Z</time>
      </trkpt>
      <trkpt lat="48.97791" lon="0.82074">
        <ele>154</ele>
        <time>2019-08-15T08:48:15.714Z</time>
      </trkpt>
      <trkpt lat="48.97798" lon="0.82063">
        <ele>154</ele>
        <time>2019-08-15T08:48:16.697Z</time>
      </trkpt>
      <trkpt lat="48.97798" lon="0.82063">
        <ele>154</ele>
        <time>2019-08-15T08:48:17.683Z</time>
      </trkpt>
      <trkpt lat="48.97805" lon="0.82053">
        <ele>154</ele>
        <time>2019-08-15T08:48:18.680Z</time>
      </trkpt>
      <trkpt lat="48.97805" lon="0.82053">
        <ele>154</ele>
        <time>2019-08-15T08:48:19.714Z</time>
      </trkpt>
      <trkpt lat="48.97812" lon="0.82046">
        <ele>154</ele>
        <time>2019-08-15T08:48:20.679Z</time>
      </trkpt>
      <trkpt lat="48.97812" lon="0.82046">
        <ele>154</ele>
        <time>2019-08-15T08:48:21.714Z</time>
      </trkpt>
      <trkpt lat="48.9782" lon="0.82046">
        <ele>154</ele>
        <time>2019-08-15T08:48:22.687Z</time>
      </trkpt>
      <trkpt lat="48.97825" lon="0.82048">
        <ele>154</ele>
        <time>2019-08-15T08:48:23.680Z</time>
      </trkpt>
      <trkpt lat="48.97825" lon="0.82048">
        <ele>154</ele>
        <time>2019-08-15T08:48:24.679Z</time>
      </trkpt>
      <trkpt lat="48.97834" lon="0.82053">
        <ele>154</ele>
        <time>2019-08-15T08:48:25.679Z</time>
      </trkpt>
      <trkpt lat="48.97834" lon="0.82053">
        <ele>154</ele>
        <time>2019-08-15T08:48:26.714Z</time>
      </trkpt>
      <trkpt lat="48.97843" lon="0.82061">
        <ele>155</ele>
        <time>2019-08-15T08:48:27.704Z</time>
      </trkpt>
      <trkpt lat="48.97847" lon="0.82065">
        <ele>155</ele>
        <time>2019-08-15T08:48:28.689Z</time>
      </trkpt>
      <trkpt lat="48.97847" lon="0.82065">
        <ele>155</ele>
        <time>2019-08-15T08:48:29.715Z</time>
      </trkpt>
      <trkpt lat="48.97856" lon="0.82074">
        <ele>155</ele>
        <time>2019-08-15T08:48:30.680Z</time>
      </trkpt>
      <trkpt lat="48.97856" lon="0.82074">
        <ele>155</ele>
        <time>2019-08-15T08:48:31.715Z</time>
      </trkpt>
      <trkpt lat="48.97866" lon="0.82082">
        <ele>155</ele>
        <time>2019-08-15T08:48:32.680Z</time>
      </trkpt>
      <trkpt lat="48.97866" lon="0.82082">
        <ele>155</ele>
        <time>2019-08-15T08:48:33.714Z</time>
      </trkpt>
      <trkpt lat="48.97876" lon="0.82092">
        <ele>155</ele>
        <time>2019-08-15T08:48:34.697Z</time>
      </trkpt>
      <trkpt lat="48.97876" lon="0.82092">
        <ele>155</ele>
        <time>2019-08-15T08:48:35.679Z</time>
      </trkpt>
      <trkpt lat="48.97886" lon="0.82101">
        <ele>155</ele>
        <time>2019-08-15T08:48:36.680Z</time>
      </trkpt>
      <trkpt lat="48.97886" lon="0.82101">
        <ele>155</ele>
        <time>2019-08-15T08:48:37.716Z</time>
      </trkpt>
      <trkpt lat="48.97896" lon="0.8211">
        <ele>155</ele>
        <time>2019-08-15T08:48:38.680Z</time>
      </trkpt>
      <trkpt lat="48.97896" lon="0.8211">
        <ele>155</ele>
        <time>2019-08-15T08:48:39.714Z</time>
      </trkpt>
      <trkpt lat="48.97906" lon="0.8212">
        <ele>155</ele>
        <time>2019-08-15T08:48:40.681Z</time>
      </trkpt>
      <trkpt lat="48.97906" lon="0.8212">
        <ele>155</ele>
        <time>2019-08-15T08:48:41.678Z</time>
      </trkpt>
      <trkpt lat="48.97916" lon="0.82129">
        <ele>155</ele>
        <time>2019-08-15T08:48:42.679Z</time>
      </trkpt>
      <trkpt lat="48.97916" lon="0.82129">
        <ele>155</ele>
        <time>2019-08-15T08:48:43.715Z</time>
      </trkpt>
      <trkpt lat="48.97926" lon="0.82139">
        <ele>156</ele>
        <time>2019-08-15T08:48:44.679Z</time>
      </trkpt>
      <trkpt lat="48.97926" lon="0.82139">
        <ele>156</ele>
        <time>2019-08-15T08:48:45.715Z</time>
      </trkpt>
      <trkpt lat="48.97936" lon="0.82151">
        <ele>156</ele>
        <time>2019-08-15T08:48:46.681Z</time>
      </trkpt>
      <trkpt lat="48.97936" lon="0.82151">
        <ele>156</ele>
        <time>2019-08-15T08:48:47.714Z</time>
      </trkpt>
      <trkpt lat="48.97944" lon="0.82162">
        <ele>156</ele>
        <time>2019-08-15T08:48:48.680Z</time>
      </trkpt>
      <trkpt lat="48.97944" lon="0.82162">
        <ele>156</ele>
        <time>2019-08-15T08:48:49.715Z</time>
      </trkpt>
      <trkpt lat="48.97952" lon="0.82173">
        <ele>156</ele>
        <time>2019-08-15T08:48:50.699Z</time>
      </trkpt>
      <trkpt lat="48.97956" lon="0.82179">
        <ele>156</ele>
        <time>2019-08-15T08:48:51.702Z</time>
      </trkpt>
      <trkpt lat="48.9796" lon="0.82186">
        <ele>156</ele>
        <time>2019-08-15T08:48:52.712Z</time>
      </trkpt>
      <trkpt lat="48.9796" lon="0.82186">
        <ele>156</ele>
        <time>2019-08-15T08:48:53.715Z</time>
      </trkpt>
      <trkpt lat="48.97969" lon="0.82199">
        <ele>155</ele>
        <time>2019-08-15T08:48:54.680Z</time>
      </trkpt>
      <trkpt lat="48.97969" lon="0.82199">
        <ele>155</ele>
        <time>2019-08-15T08:48:55.690Z</time>
      </trkpt>
      <trkpt lat="48.97978" lon="0.82213">
        <ele>155</ele>
        <time>2019-08-15T08:48:56.681Z</time>
      </trkpt>
      <trkpt lat="48.97978" lon="0.82213">
        <ele>155</ele>
        <time>2019-08-15T08:48:57.715Z</time>
      </trkpt>
      <trkpt lat="48.97988" lon="0.82227">
        <ele>155</ele>
        <time>2019-08-15T08:48:58.697Z</time>
      </trkpt>
      <trkpt lat="48.97988" lon="0.82227">
        <ele>155</ele>
        <time>2019-08-15T08:48:59.679Z</time>
      </trkpt>
      <trkpt lat="48.97997" lon="0.82241">
        <ele>155</ele>
        <time>2019-08-15T08:49:00.679Z</time>
      </trkpt>
      <trkpt lat="48.98002" lon="0.82248">
        <ele>155</ele>
        <time>2019-08-15T08:49:01.717Z</time>
      </trkpt>
      <trkpt lat="48.98002" lon="0.82248">
        <ele>155</ele>
        <time>2019-08-15T08:49:02.714Z</time>
      </trkpt>
      <trkpt lat="48.98011" lon="0.82262">
        <ele>155</ele>
        <time>2019-08-15T08:49:03.679Z</time>
      </trkpt>
      <trkpt lat="48.98015" lon="0.82269">
        <ele>155</ele>
        <time>2019-08-15T08:49:04.682Z</time>
      </trkpt>
      <trkpt lat="48.98015" lon="0.82269">
        <ele>155</ele>
        <time>2019-08-15T08:49:05.714Z</time>
      </trkpt>
      <trkpt lat="48.98024" lon="0.82283">
        <ele>155</ele>
        <time>2019-08-15T08:49:06.681Z</time>
      </trkpt>
      <trkpt lat="48.98024" lon="0.82283">
        <ele>155</ele>
        <time>2019-08-15T08:49:07.714Z</time>
      </trkpt>
      <trkpt lat="48.98033" lon="0.82297">
        <ele>155</ele>
        <time>2019-08-15T08:49:08.679Z</time>
      </trkpt>
      <trkpt lat="48.98037" lon="0.82304">
        <ele>154</ele>
        <time>2019-08-15T08:49:09.680Z</time>
      </trkpt>
      <trkpt lat="48.98037" lon="0.82304">
        <ele>154</ele>
        <time>2019-08-15T08:49:10.715Z</time>
      </trkpt>
      <trkpt lat="48.98046" lon="0.82318">
        <ele>154</ele>
        <time>2019-08-15T08:49:11.679Z</time>
      </trkpt>
      <trkpt lat="48.98046" lon="0.82318">
        <ele>154</ele>
        <time>2019-08-15T08:49:12.714Z</time>
      </trkpt>
      <trkpt lat="48.98055" lon="0.82333">
        <ele>154</ele>
        <time>2019-08-15T08:49:13.680Z</time>
      </trkpt>
      <trkpt lat="48.98055" lon="0.82333">
        <ele>154</ele>
        <time>2019-08-15T08:49:14.714Z</time>
      </trkpt>
      <trkpt lat="48.98063" lon="0.82348">
        <ele>154</ele>
        <time>2019-08-15T08:49:15.680Z</time>
      </trkpt>
      <trkpt lat="48.98067" lon="0.82355">
        <ele>154</ele>
        <time>2019-08-15T08:49:16.681Z</time>
      </trkpt>
      <trkpt lat="48.98067" lon="0.82355">
        <ele>154</ele>
        <time>2019-08-15T08:49:17.680Z</time>
      </trkpt>
      <trkpt lat="48.98075" lon="0.8237">
        <ele>153</ele>
        <time>2019-08-15T08:49:18.681Z</time>
      </trkpt>
      <trkpt lat="48.98075" lon="0.8237">
        <ele>153</ele>
        <time>2019-08-15T08:49:19.714Z</time>
      </trkpt>
      <trkpt lat="48.98083" lon="0.82385">
        <ele>153</ele>
        <time>2019-08-15T08:49:20.699Z</time>
      </trkpt>
      <trkpt lat="48.98087" lon="0.82392">
        <ele>153</ele>
        <time>2019-08-15T08:49:21.687Z</time>
      </trkpt>
      <trkpt lat="48.9809" lon="0.82399">
        <ele>153</ele>
        <time>2019-08-15T08:49:22.682Z</time>
      </trkpt>
      <trkpt lat="48.9809" lon="0.82399">
        <ele>153</ele>
        <time>2019-08-15T08:49:23.715Z</time>
      </trkpt>
      <trkpt lat="48.98099" lon="0.82412">
        <ele>153</ele>
        <time>2019-08-15T08:49:24.680Z</time>
      </trkpt>
      <trkpt lat="48.98099" lon="0.82412">
        <ele>153</ele>
        <time>2019-08-15T08:49:25.689Z</time>
      </trkpt>
      <trkpt lat="48.98108" lon="0.82425">
        <ele>153</ele>
        <time>2019-08-15T08:49:26.680Z</time>
      </trkpt>
      <trkpt lat="48.98108" lon="0.82425">
        <ele>153</ele>
        <time>2019-08-15T08:49:27.714Z</time>
      </trkpt>
      <trkpt lat="48.98117" lon="0.82437">
        <ele>153</ele>
        <time>2019-08-15T08:49:28.697Z</time>
      </trkpt>
      <trkpt lat="48.98117" lon="0.82437">
        <ele>153</ele>
        <time>2019-08-15T08:49:29.717Z</time>
      </trkpt>
      <trkpt lat="48.98125" lon="0.8245">
        <ele>153</ele>
        <time>2019-08-15T08:49:30.700Z</time>
      </trkpt>
      <trkpt lat="48.9813" lon="0.82456">
        <ele>153</ele>
        <time>2019-08-15T08:49:31.683Z</time>
      </trkpt>
      <trkpt lat="48.9813" lon="0.82456">
        <ele>153</ele>
        <time>2019-08-15T08:49:32.714Z</time>
      </trkpt>
      <trkpt lat="48.98139" lon="0.82468">
        <ele>153</ele>
        <time>2019-08-15T08:49:33.679Z</time>
      </trkpt>
      <trkpt lat="48.98144" lon="0.82475">
        <ele>153</ele>
        <time>2019-08-15T08:49:34.681Z</time>
      </trkpt>
      <trkpt lat="48.98144" lon="0.82475">
        <ele>153</ele>
        <time>2019-08-15T08:49:35.678Z</time>
      </trkpt>
      <trkpt lat="48.98152" lon="0.82487">
        <ele>153</ele>
        <time>2019-08-15T08:49:36.680Z</time>
      </trkpt>
      <trkpt lat="48.98152" lon="0.82487">
        <ele>153</ele>
        <time>2019-08-15T08:49:37.714Z</time>
      </trkpt>
      <trkpt lat="48.98161" lon="0.825">
        <ele>152</ele>
        <time>2019-08-15T08:49:38.679Z</time>
      </trkpt>
      <trkpt lat="48.98165" lon="0.82506">
        <ele>152</ele>
        <time>2019-08-15T08:49:39.680Z</time>
      </trkpt>
      <trkpt lat="48.98169" lon="0.82513">
        <ele>152</ele>
        <time>2019-08-15T08:49:40.682Z</time>
      </trkpt>
      <trkpt lat="48.98169" lon="0.82513">
        <ele>152</ele>
        <time>2019-08-15T08:49:41.715Z</time>
      </trkpt>
      <trkpt lat="48.98177" lon="0.82526">
        <ele>152</ele>
        <time>2019-08-15T08:49:42.700Z</time>
      </trkpt>
      <trkpt lat="48.98177" lon="0.82526">
        <ele>152</ele>
        <time>2019-08-15T08:49:43.694Z</time>
      </trkpt>
      <trkpt lat="48.98185" lon="0.8254">
        <ele>152</ele>
        <time>2019-08-15T08:49:44.680Z</time>
      </trkpt>
      <trkpt lat="48.98185" lon="0.8254">
        <ele>152</ele>
        <time>2019-08-15T08:49:45.714Z</time>
      </trkpt>
      <trkpt lat="48.98192" lon="0.82555">
        <ele>152</ele>
        <time>2019-08-15T08:49:46.681Z</time>
      </trkpt>
      <trkpt lat="48.98195" lon="0.82562">
        <ele>152</ele>
        <time>2019-08-15T08:49:47.681Z</time>
      </trkpt>
      <trkpt lat="48.98198" lon="0.8257">
        <ele>152</ele>
        <time>2019-08-15T08:49:48.678Z</time>
      </trkpt>
      <trkpt lat="48.98198" lon="0.8257">
        <ele>152</ele>
        <time>2019-08-15T08:49:49.715Z</time>
      </trkpt>
      <trkpt lat="48.98204" lon="0.82586">
        <ele>151</ele>
        <time>2019-08-15T08:49:50.707Z</time>
      </trkpt>
      <trkpt lat="48.98206" lon="0.82594">
        <ele>151</ele>
        <time>2019-08-15T08:49:51.699Z</time>
      </trkpt>
      <trkpt lat="48.98206" lon="0.82594">
        <ele>151</ele>
        <time>2019-08-15T08:49:52.715Z</time>
      </trkpt>
      <trkpt lat="48.98211" lon="0.82611">
        <ele>151</ele>
        <time>2019-08-15T08:49:53.680Z</time>
      </trkpt>
      <trkpt lat="48.98214" lon="0.82619">
        <ele>151</ele>
        <time>2019-08-15T08:49:54.681Z</time>
      </trkpt>
      <trkpt lat="48.98214" lon="0.82619">
        <ele>151</ele>
        <time>2019-08-15T08:49:55.694Z</time>
      </trkpt>
      <trkpt lat="48.9822" lon="0.82635">
        <ele>151</ele>
        <time>2019-08-15T08:49:56.718Z</time>
      </trkpt>
      <trkpt lat="48.9822" lon="0.82635">
        <ele>151</ele>
        <time>2019-08-15T08:49:57.714Z</time>
      </trkpt>
      <trkpt lat="48.98227" lon="0.8265">
        <ele>151</ele>
        <time>2019-08-15T08:49:58.697Z</time>
      </trkpt>
      <trkpt lat="48.98227" lon="0.8265">
        <ele>151</ele>
        <time>2019-08-15T08:49:59.679Z</time>
      </trkpt>
      <trkpt lat="48.98234" lon="0.82665">
        <ele>151</ele>
        <time>2019-08-15T08:50:00.681Z</time>
      </trkpt>
      <trkpt lat="48.98234" lon="0.82665">
        <ele>151</ele>
        <time>2019-08-15T08:50:01.681Z</time>
      </trkpt>
      <trkpt lat="48.98242" lon="0.8268">
        <ele>150</ele>
        <time>2019-08-15T08:50:02.681Z</time>
      </trkpt>
      <trkpt lat="48.98242" lon="0.8268">
        <ele>150</ele>
        <time>2019-08-15T08:50:03.714Z</time>
      </trkpt>
      <trkpt lat="48.9825" lon="0.82694">
        <ele>150</ele>
        <time>2019-08-15T08:50:04.697Z</time>
      </trkpt>
      <trkpt lat="48.9825" lon="0.82694">
        <ele>150</ele>
        <time>2019-08-15T08:50:05.683Z</time>
      </trkpt>
      <trkpt lat="48.98259" lon="0.82707">
        <ele>150</ele>
        <time>2019-08-15T08:50:06.684Z</time>
      </trkpt>
      <trkpt lat="48.98259" lon="0.82707">
        <ele>150</ele>
        <time>2019-08-15T08:50:07.715Z</time>
      </trkpt>
      <trkpt lat="48.98268" lon="0.8272">
        <ele>150</ele>
        <time>2019-08-15T08:50:08.680Z</time>
      </trkpt>
      <trkpt lat="48.98268" lon="0.8272">
        <ele>150</ele>
        <time>2019-08-15T08:50:09.715Z</time>
      </trkpt>
      <trkpt lat="48.98279" lon="0.82731">
        <ele>149</ele>
        <time>2019-08-15T08:50:10.697Z</time>
      </trkpt>
      <trkpt lat="48.98279" lon="0.82731">
        <ele>149</ele>
        <time>2019-08-15T08:50:11.682Z</time>
      </trkpt>
      <trkpt lat="48.98289" lon="0.8274">
        <ele>149</ele>
        <time>2019-08-15T08:50:12.680Z</time>
      </trkpt>
      <trkpt lat="48.98289" lon="0.8274">
        <ele>149</ele>
        <time>2019-08-15T08:50:13.715Z</time>
      </trkpt>
      <trkpt lat="48.98299" lon="0.8275">
        <ele>149</ele>
        <time>2019-08-15T08:50:14.681Z</time>
      </trkpt>
      <trkpt lat="48.98299" lon="0.8275">
        <ele>149</ele>
        <time>2019-08-15T08:50:15.715Z</time>
      </trkpt>
      <trkpt lat="48.98309" lon="0.82761">
        <ele>149</ele>
        <time>2019-08-15T08:50:16.697Z</time>
      </trkpt>
      <trkpt lat="48.98309" lon="0.82761">
        <ele>149</ele>
        <time>2019-08-15T08:50:17.681Z</time>
      </trkpt>
      <trkpt lat="48.9832" lon="0.82772">
        <ele>149</ele>
        <time>2019-08-15T08:50:18.681Z</time>
      </trkpt>
      <trkpt lat="48.9832" lon="0.82772">
        <ele>149</ele>
        <time>2019-08-15T08:50:19.715Z</time>
      </trkpt>
      <trkpt lat="48.9833" lon="0.82783">
        <ele>149</ele>
        <time>2019-08-15T08:50:20.679Z</time>
      </trkpt>
      <trkpt lat="48.9833" lon="0.82783">
        <ele>149</ele>
        <time>2019-08-15T08:50:21.715Z</time>
      </trkpt>
      <trkpt lat="48.9834" lon="0.82794">
        <ele>149</ele>
        <time>2019-08-15T08:50:22.686Z</time>
      </trkpt>
      <trkpt lat="48.9834" lon="0.82794">
        <ele>149</ele>
        <time>2019-08-15T08:50:23.715Z</time>
      </trkpt>
      <trkpt lat="48.9835" lon="0.82805">
        <ele>149</ele>
        <time>2019-08-15T08:50:24.681Z</time>
      </trkpt>
      <trkpt lat="48.9835" lon="0.82805">
        <ele>149</ele>
        <time>2019-08-15T08:50:25.678Z</time>
      </trkpt>
      <trkpt lat="48.98361" lon="0.82816">
        <ele>149</ele>
        <time>2019-08-15T08:50:26.718Z</time>
      </trkpt>
      <trkpt lat="48.98361" lon="0.82816">
        <ele>149</ele>
        <time>2019-08-15T08:50:27.715Z</time>
      </trkpt>
      <trkpt lat="48.98372" lon="0.82826">
        <ele>148</ele>
        <time>2019-08-15T08:50:28.682Z</time>
      </trkpt>
      <trkpt lat="48.98372" lon="0.82826">
        <ele>148</ele>
        <time>2019-08-15T08:50:29.715Z</time>
      </trkpt>
      <trkpt lat="48.98382" lon="0.82837">
        <ele>148</ele>
        <time>2019-08-15T08:50:30.681Z</time>
      </trkpt>
      <trkpt lat="48.98382" lon="0.82837">
        <ele>148</ele>
        <time>2019-08-15T08:50:31.715Z</time>
      </trkpt>
      <trkpt lat="48.98393" lon="0.82848">
        <ele>148</ele>
        <time>2019-08-15T08:50:32.701Z</time>
      </trkpt>
      <trkpt lat="48.98393" lon="0.82848">
        <ele>148</ele>
        <time>2019-08-15T08:50:33.686Z</time>
      </trkpt>
      <trkpt lat="48.98403" lon="0.82859">
        <ele>149</ele>
        <time>2019-08-15T08:50:34.681Z</time>
      </trkpt>
      <trkpt lat="48.98403" lon="0.82859">
        <ele>149</ele>
        <time>2019-08-15T08:50:35.715Z</time>
      </trkpt>
      <trkpt lat="48.98414" lon="0.82869">
        <ele>149</ele>
        <time>2019-08-15T08:50:36.688Z</time>
      </trkpt>
      <trkpt lat="48.98414" lon="0.82869">
        <ele>149</ele>
        <time>2019-08-15T08:50:37.715Z</time>
      </trkpt>
      <trkpt lat="48.98424" lon="0.82878">
        <ele>149</ele>
        <time>2019-08-15T08:50:38.680Z</time>
      </trkpt>
      <trkpt lat="48.9843" lon="0.82883">
        <ele>149</ele>
        <time>2019-08-15T08:50:39.681Z</time>
      </trkpt>
      <trkpt lat="48.98435" lon="0.82887">
        <ele>149</ele>
        <time>2019-08-15T08:50:40.681Z</time>
      </trkpt>
      <trkpt lat="48.98435" lon="0.82887">
        <ele>149</ele>
        <time>2019-08-15T08:50:41.715Z</time>
      </trkpt>
      <trkpt lat="48.98446" lon="0.82896">
        <ele>149</ele>
        <time>2019-08-15T08:50:42.680Z</time>
      </trkpt>
      <trkpt lat="48.98446" lon="0.82896">
        <ele>149</ele>
        <time>2019-08-15T08:50:43.715Z</time>
      </trkpt>
      <trkpt lat="48.98456" lon="0.82904">
        <ele>148</ele>
        <time>2019-08-15T08:50:44.680Z</time>
      </trkpt>
      <trkpt lat="48.98456" lon="0.82904">
        <ele>148</ele>
        <time>2019-08-15T08:50:45.715Z</time>
      </trkpt>
      <trkpt lat="48.98466" lon="0.82913">
        <ele>148</ele>
        <time>2019-08-15T08:50:46.681Z</time>
      </trkpt>
      <trkpt lat="48.98466" lon="0.82913">
        <ele>148</ele>
        <time>2019-08-15T08:50:47.715Z</time>
      </trkpt>
      <trkpt lat="48.98476" lon="0.82923">
        <ele>148</ele>
        <time>2019-08-15T08:50:48.681Z</time>
      </trkpt>
      <trkpt lat="48.98476" lon="0.82923">
        <ele>148</ele>
        <time>2019-08-15T08:50:49.715Z</time>
      </trkpt>
      <trkpt lat="48.98485" lon="0.82934">
        <ele>148</ele>
        <time>2019-08-15T08:50:50.698Z</time>
      </trkpt>
      <trkpt lat="48.98485" lon="0.82934">
        <ele>148</ele>
        <time>2019-08-15T08:50:51.709Z</time>
      </trkpt>
      <trkpt lat="48.98493" lon="0.82946">
        <ele>148</ele>
        <time>2019-08-15T08:50:52.715Z</time>
      </trkpt>
      <trkpt lat="48.98496" lon="0.82952">
        <ele>148</ele>
        <time>2019-08-15T08:50:53.681Z</time>
      </trkpt>
      <trkpt lat="48.985" lon="0.8296">
        <ele>148</ele>
        <time>2019-08-15T08:50:54.678Z</time>
      </trkpt>
      <trkpt lat="48.985" lon="0.8296">
        <ele>148</ele>
        <time>2019-08-15T08:50:55.685Z</time>
      </trkpt>
      <trkpt lat="48.98506" lon="0.82975">
        <ele>147</ele>
        <time>2019-08-15T08:50:56.680Z</time>
      </trkpt>
      <trkpt lat="48.98506" lon="0.82975">
        <ele>147</ele>
        <time>2019-08-15T08:50:57.715Z</time>
      </trkpt>
      <trkpt lat="48.98512" lon="0.82991">
        <ele>147</ele>
        <time>2019-08-15T08:50:58.697Z</time>
      </trkpt>
      <trkpt lat="48.98512" lon="0.82991">
        <ele>147</ele>
        <time>2019-08-15T08:50:59.682Z</time>
      </trkpt>
      <trkpt lat="48.98518" lon="0.83008">
        <ele>147</ele>
        <time>2019-08-15T08:51:00.681Z</time>
      </trkpt>
      <trkpt lat="48.98518" lon="0.83008">
        <ele>147</ele>
        <time>2019-08-15T08:51:01.714Z</time>
      </trkpt>
      <trkpt lat="48.98523" lon="0.83024">
        <ele>147</ele>
        <time>2019-08-15T08:51:02.680Z</time>
      </trkpt>
      <trkpt lat="48.98526" lon="0.83033">
        <ele>147</ele>
        <time>2019-08-15T08:51:03.678Z</time>
      </trkpt>
      <trkpt lat="48.98529" lon="0.83041">
        <ele>147</ele>
        <time>2019-08-15T08:51:04.681Z</time>
      </trkpt>
      <trkpt lat="48.98529" lon="0.83041">
        <ele>147</ele>
        <time>2019-08-15T08:51:05.715Z</time>
      </trkpt>
      <trkpt lat="48.98534" lon="0.83057">
        <ele>146</ele>
        <time>2019-08-15T08:51:06.717Z</time>
      </trkpt>
      <trkpt lat="48.98534" lon="0.83057">
        <ele>146</ele>
        <time>2019-08-15T08:51:07.700Z</time>
      </trkpt>
      <trkpt lat="48.98539" lon="0.83072">
        <ele>146</ele>
        <time>2019-08-15T08:51:08.686Z</time>
      </trkpt>
      <trkpt lat="48.98539" lon="0.83072">
        <ele>146</ele>
        <time>2019-08-15T08:51:09.715Z</time>
      </trkpt>
      <trkpt lat="48.98545" lon="0.83088">
        <ele>146</ele>
        <time>2019-08-15T08:51:10.681Z</time>
      </trkpt>
      <trkpt lat="48.98545" lon="0.83088">
        <ele>146</ele>
        <time>2019-08-15T08:51:11.713Z</time>
      </trkpt>
      <trkpt lat="48.9855" lon="0.83103">
        <ele>146</ele>
        <time>2019-08-15T08:51:12.700Z</time>
      </trkpt>
      <trkpt lat="48.98553" lon="0.8311">
        <ele>146</ele>
        <time>2019-08-15T08:51:13.700Z</time>
      </trkpt>
      <trkpt lat="48.98553" lon="0.8311">
        <ele>146</ele>
        <time>2019-08-15T08:51:14.678Z</time>
      </trkpt>
      <trkpt lat="48.98557" lon="0.83124">
        <ele>147</ele>
        <time>2019-08-15T08:51:15.681Z</time>
      </trkpt>
      <trkpt lat="48.98557" lon="0.83124">
        <ele>147</ele>
        <time>2019-08-15T08:51:16.679Z</time>
      </trkpt>
      <trkpt lat="48.9856" lon="0.83137">
        <ele>147</ele>
        <time>2019-08-15T08:51:17.717Z</time>
      </trkpt>
      <trkpt lat="48.98562" lon="0.83143">
        <ele>147</ele>
        <time>2019-08-15T08:51:18.684Z</time>
      </trkpt>
      <trkpt lat="48.98562" lon="0.83143">
        <ele>147</ele>
        <time>2019-08-15T08:51:19.678Z</time>
      </trkpt>
      <trkpt lat="48.98566" lon="0.83156">
        <ele>147</ele>
        <time>2019-08-15T08:51:20.718Z</time>
      </trkpt>
      <trkpt lat="48.98566" lon="0.83156">
        <ele>147</ele>
        <time>2019-08-15T08:51:21.715Z</time>
      </trkpt>
      <trkpt lat="48.98569" lon="0.83168">
        <ele>147</ele>
        <time>2019-08-15T08:51:22.689Z</time>
      </trkpt>
      <trkpt lat="48.98572" lon="0.83173">
        <ele>146</ele>
        <time>2019-08-15T08:51:23.684Z</time>
      </trkpt>
      <trkpt lat="48.98576" lon="0.83176">
        <ele>146</ele>
        <time>2019-08-15T08:51:24.680Z</time>
      </trkpt>
      <trkpt lat="48.98576" lon="0.83176">
        <ele>146</ele>
        <time>2019-08-15T08:51:25.715Z</time>
      </trkpt>
      <trkpt lat="48.98583" lon="0.83176">
        <ele>146</ele>
        <time>2019-08-15T08:51:26.680Z</time>
      </trkpt>
      <trkpt lat="48.98583" lon="0.83176">
        <ele>146</ele>
        <time>2019-08-15T08:51:27.715Z</time>
      </trkpt>
      <trkpt lat="48.98587" lon="0.83168">
        <ele>146</ele>
        <time>2019-08-15T08:51:28.697Z</time>
      </trkpt>
      <trkpt lat="48.98587" lon="0.83168">
        <ele>146</ele>
        <time>2019-08-15T08:51:29.682Z</time>
      </trkpt>
      <trkpt lat="48.98591" lon="0.83158">
        <ele>146</ele>
        <time>2019-08-15T08:51:30.681Z</time>
      </trkpt>
      <trkpt lat="48.98591" lon="0.83158">
        <ele>146</ele>
        <time>2019-08-15T08:51:31.684Z</time>
      </trkpt>
      <trkpt lat="48.98595" lon="0.83149">
        <ele>146</ele>
        <time>2019-08-15T08:51:32.681Z</time>
      </trkpt>
      <trkpt lat="48.98595" lon="0.83149">
        <ele>146</ele>
        <time>2019-08-15T08:51:33.715Z</time>
      </trkpt>
      <trkpt lat="48.98599" lon="0.8314">
        <ele>146</ele>
        <time>2019-08-15T08:51:34.697Z</time>
      </trkpt>
      <trkpt lat="48.98599" lon="0.8314">
        <ele>146</ele>
        <time>2019-08-15T08:51:35.679Z</time>
      </trkpt>
      <trkpt lat="48.98603" lon="0.83132">
        <ele>146</ele>
        <time>2019-08-15T08:51:36.681Z</time>
      </trkpt>
      <trkpt lat="48.98603" lon="0.83132">
        <ele>146</ele>
        <time>2019-08-15T08:51:37.714Z</time>
      </trkpt>
      <trkpt lat="48.98609" lon="0.83123">
        <ele>147</ele>
        <time>2019-08-15T08:51:38.679Z</time>
      </trkpt>
      <trkpt lat="48.98609" lon="0.83123">
        <ele>147</ele>
        <time>2019-08-15T08:51:39.715Z</time>
      </trkpt>
      <trkpt lat="48.98614" lon="0.83113">
        <ele>147</ele>
        <time>2019-08-15T08:51:40.681Z</time>
      </trkpt>
      <trkpt lat="48.98614" lon="0.83113">
        <ele>147</ele>
        <time>2019-08-15T08:51:41.715Z</time>
      </trkpt>
      <trkpt lat="48.9862" lon="0.83103">
        <ele>147</ele>
        <time>2019-08-15T08:51:42.701Z</time>
      </trkpt>
      <trkpt lat="48.9862" lon="0.83103">
        <ele>147</ele>
        <time>2019-08-15T08:51:43.694Z</time>
      </trkpt>
      <trkpt lat="48.98626" lon="0.83092">
        <ele>148</ele>
        <time>2019-08-15T08:51:44.680Z</time>
      </trkpt>
      <trkpt lat="48.98626" lon="0.83092">
        <ele>148</ele>
        <time>2019-08-15T08:51:45.715Z</time>
      </trkpt>
      <trkpt lat="48.98632" lon="0.83081">
        <ele>148</ele>
        <time>2019-08-15T08:51:46.681Z</time>
      </trkpt>
      <trkpt lat="48.98632" lon="0.83081">
        <ele>148</ele>
        <time>2019-08-15T08:51:47.679Z</time>
      </trkpt>
      <trkpt lat="48.98638" lon="0.83069">
        <ele>149</ele>
        <time>2019-08-15T08:51:48.681Z</time>
      </trkpt>
      <trkpt lat="48.98638" lon="0.83069">
        <ele>149</ele>
        <time>2019-08-15T08:51:49.715Z</time>
      </trkpt>
      <trkpt lat="48.98644" lon="0.83056">
        <ele>149</ele>
        <time>2019-08-15T08:51:50.696Z</time>
      </trkpt>
      <trkpt lat="48.98644" lon="0.83056">
        <ele>149</ele>
        <time>2019-08-15T08:51:51.681Z</time>
      </trkpt>
      <trkpt lat="48.9865" lon="0.83044">
        <ele>150</ele>
        <time>2019-08-15T08:51:52.681Z</time>
      </trkpt>
      <trkpt lat="48.9865" lon="0.83044">
        <ele>150</ele>
        <time>2019-08-15T08:51:53.715Z</time>
      </trkpt>
      <trkpt lat="48.98656" lon="0.83032">
        <ele>151</ele>
        <time>2019-08-15T08:51:54.681Z</time>
      </trkpt>
      <trkpt lat="48.98656" lon="0.83032">
        <ele>151</ele>
        <time>2019-08-15T08:51:55.715Z</time>
      </trkpt>
      <trkpt lat="48.98661" lon="0.83019">
        <ele>151</ele>
        <time>2019-08-15T08:51:56.680Z</time>
      </trkpt>
      <trkpt lat="48.98661" lon="0.83019">
        <ele>151</ele>
        <time>2019-08-15T08:51:57.714Z</time>
      </trkpt>
      <trkpt lat="48.98665" lon="0.83009">
        <ele>152</ele>
        <time>2019-08-15T08:51:58.697Z</time>
      </trkpt>
      <trkpt lat="48.98665" lon="0.83009">
        <ele>152</ele>
        <time>2019-08-15T08:51:59.679Z</time>
      </trkpt>
      <trkpt lat="48.98672" lon="0.82999">
        <ele>153</ele>
        <time>2019-08-15T08:52:00.680Z</time>
      </trkpt>
      <trkpt lat="48.98672" lon="0.82999">
        <ele>153</ele>
        <time>2019-08-15T08:52:01.679Z</time>
      </trkpt>
      <trkpt lat="48.98678" lon="0.82986">
        <ele>153</ele>
        <time>2019-08-15T08:52:02.679Z</time>
      </trkpt>
      <trkpt lat="48.98683" lon="0.8298">
        <ele>154</ele>
        <time>2019-08-15T08:52:03.680Z</time>
      </trkpt>
      <trkpt lat="48.98686" lon="0.82974">
        <ele>154</ele>
        <time>2019-08-15T08:52:04.681Z</time>
      </trkpt>
      <trkpt lat="48.98686" lon="0.82974">
        <ele>154</ele>
        <time>2019-08-15T08:52:05.715Z</time>
      </trkpt>
      <trkpt lat="48.98694" lon="0.82963">
        <ele>154</ele>
        <time>2019-08-15T08:52:06.681Z</time>
      </trkpt>
      <trkpt lat="48.98694" lon="0.82963">
        <ele>154</ele>
        <time>2019-08-15T08:52:07.715Z</time>
      </trkpt>
      <trkpt lat="48.98702" lon="0.82951">
        <ele>155</ele>
        <time>2019-08-15T08:52:08.680Z</time>
      </trkpt>
      <trkpt lat="48.98702" lon="0.82951">
        <ele>155</ele>
        <time>2019-08-15T08:52:09.715Z</time>
      </trkpt>
      <trkpt lat="48.98708" lon="0.8294">
        <ele>155</ele>
        <time>2019-08-15T08:52:10.681Z</time>
      </trkpt>
      <trkpt lat="48.98708" lon="0.8294">
        <ele>155</ele>
        <time>2019-08-15T08:52:11.715Z</time>
      </trkpt>
      <trkpt lat="48.98715" lon="0.82929">
        <ele>155</ele>
        <time>2019-08-15T08:52:12.701Z</time>
      </trkpt>
      <trkpt lat="48.98719" lon="0.82924">
        <ele>155</ele>
        <time>2019-08-15T08:52:13.699Z</time>
      </trkpt>
      <trkpt lat="48.98723" lon="0.82918">
        <ele>155</ele>
        <time>2019-08-15T08:52:14.681Z</time>
      </trkpt>
      <trkpt lat="48.98723" lon="0.82918">
        <ele>155</ele>
        <time>2019-08-15T08:52:15.714Z</time>
      </trkpt>
      <trkpt lat="48.98729" lon="0.82907">
        <ele>156</ele>
        <time>2019-08-15T08:52:16.697Z</time>
      </trkpt>
      <trkpt lat="48.98732" lon="0.82902">
        <ele>156</ele>
        <time>2019-08-15T08:52:17.683Z</time>
      </trkpt>
      <trkpt lat="48.98735" lon="0.82899">
        <ele>156</ele>
        <time>2019-08-15T08:52:18.682Z</time>
      </trkpt>
      <trkpt lat="48.98735" lon="0.82899">
        <ele>156</ele>
        <time>2019-08-15T08:52:19.679Z</time>
      </trkpt>
      <trkpt lat="48.9874" lon="0.82891">
        <ele>157</ele>
        <time>2019-08-15T08:52:20.679Z</time>
      </trkpt>
      <trkpt lat="48.9874" lon="0.82891">
        <ele>157</ele>
        <time>2019-08-15T08:52:21.689Z</time>
      </trkpt>
      <trkpt lat="48.98746" lon="0.82884">
        <ele>157</ele>
        <time>2019-08-15T08:52:22.681Z</time>
      </trkpt>
      <trkpt lat="48.98746" lon="0.82884">
        <ele>157</ele>
        <time>2019-08-15T08:52:23.678Z</time>
      </trkpt>
      <trkpt lat="48.9875" lon="0.82874">
        <ele>158</ele>
        <time>2019-08-15T08:52:24.681Z</time>
      </trkpt>
      <trkpt lat="48.9875" lon="0.82874">
        <ele>158</ele>
        <time>2019-08-15T08:52:25.715Z</time>
      </trkpt>
      <trkpt lat="48.98753" lon="0.82865">
        <ele>158</ele>
        <time>2019-08-15T08:52:26.680Z</time>
      </trkpt>
      <trkpt lat="48.98754" lon="0.82863">
        <ele>159</ele>
        <time>2019-08-15T08:52:27.681Z</time>
      </trkpt>
      <trkpt lat="48.98754" lon="0.82863">
        <ele>159</ele>
        <time>2019-08-15T08:52:28.680Z</time>
      </trkpt>
      <trkpt lat="48.98758" lon="0.82861">
        <ele>159</ele>
        <time>2019-08-15T08:52:29.680Z</time>
      </trkpt>
      <trkpt lat="48.9876" lon="0.82862">
        <ele>159</ele>
        <time>2019-08-15T08:52:30.680Z</time>
      </trkpt>
      <trkpt lat="48.9876" lon="0.82862">
        <ele>159</ele>
        <time>2019-08-15T08:52:31.711Z</time>
      </trkpt>
      <trkpt lat="48.98766" lon="0.82866">
        <ele>159</ele>
        <time>2019-08-15T08:52:32.694Z</time>
      </trkpt>
      <trkpt lat="48.98769" lon="0.82868">
        <ele>159</ele>
        <time>2019-08-15T08:52:33.681Z</time>
      </trkpt>
      <trkpt lat="48.98773" lon="0.82871">
        <ele>159</ele>
        <time>2019-08-15T08:52:34.682Z</time>
      </trkpt>
      <trkpt lat="48.98773" lon="0.82871">
        <ele>159</ele>
        <time>2019-08-15T08:52:35.715Z</time>
      </trkpt>
      <trkpt lat="48.98779" lon="0.82877">
        <ele>159</ele>
        <time>2019-08-15T08:52:36.681Z</time>
      </trkpt>
      <trkpt lat="48.98779" lon="0.82877">
        <ele>159</ele>
        <time>2019-08-15T08:52:37.715Z</time>
      </trkpt>
      <trkpt lat="48.98787" lon="0.82882">
        <ele>160</ele>
        <time>2019-08-15T08:52:38.681Z</time>
      </trkpt>
      <trkpt lat="48.98787" lon="0.82882">
        <ele>160</ele>
        <time>2019-08-15T08:52:39.715Z</time>
      </trkpt>
      <trkpt lat="48.98795" lon="0.82885">
        <ele>160</ele>
        <time>2019-08-15T08:52:40.697Z</time>
      </trkpt>
      <trkpt lat="48.98795" lon="0.82885">
        <ele>160</ele>
        <time>2019-08-15T08:52:41.683Z</time>
      </trkpt>
      <trkpt lat="48.98803" lon="0.82888">
        <ele>160</ele>
        <time>2019-08-15T08:52:42.680Z</time>
      </trkpt>
      <trkpt lat="48.98808" lon="0.82891">
        <ele>160</ele>
        <time>2019-08-15T08:52:43.679Z</time>
      </trkpt>
      <trkpt lat="48.98808" lon="0.82891">
        <ele>160</ele>
        <time>2019-08-15T08:52:44.715Z</time>
      </trkpt>
      <trkpt lat="48.98817" lon="0.82897">
        <ele>160</ele>
        <time>2019-08-15T08:52:45.681Z</time>
      </trkpt>
      <trkpt lat="48.98817" lon="0.82897">
        <ele>160</ele>
        <time>2019-08-15T08:52:46.679Z</time>
      </trkpt>
      <trkpt lat="48.98827" lon="0.82905">
        <ele>161</ele>
        <time>2019-08-15T08:52:47.680Z</time>
      </trkpt>
      <trkpt lat="48.98831" lon="0.82909">
        <ele>161</ele>
        <time>2019-08-15T08:52:48.681Z</time>
      </trkpt>
      <trkpt lat="48.98831" lon="0.82909">
        <ele>161</ele>
        <time>2019-08-15T08:52:49.715Z</time>
      </trkpt>
      <trkpt lat="48.98839" lon="0.82918">
        <ele>161</ele>
        <time>2019-08-15T08:52:50.680Z</time>
      </trkpt>
      <trkpt lat="48.98839" lon="0.82918">
        <ele>161</ele>
        <time>2019-08-15T08:52:51.715Z</time>
      </trkpt>
      <trkpt lat="48.98849" lon="0.82926">
        <ele>162</ele>
        <time>2019-08-15T08:52:52.702Z</time>
      </trkpt>
      <trkpt lat="48.98849" lon="0.82926">
        <ele>162</ele>
        <time>2019-08-15T08:52:53.686Z</time>
      </trkpt>
      <trkpt lat="48.98858" lon="0.82934">
        <ele>162</ele>
        <time>2019-08-15T08:52:54.681Z</time>
      </trkpt>
      <trkpt lat="48.98858" lon="0.82934">
        <ele>162</ele>
        <time>2019-08-15T08:52:55.715Z</time>
      </trkpt>
      <trkpt lat="48.98867" lon="0.82941">
        <ele>163</ele>
        <time>2019-08-15T08:52:56.680Z</time>
      </trkpt>
      <trkpt lat="48.98867" lon="0.82941">
        <ele>163</ele>
        <time>2019-08-15T08:52:57.714Z</time>
      </trkpt>
      <trkpt lat="48.98876" lon="0.82945">
        <ele>163</ele>
        <time>2019-08-15T08:52:58.697Z</time>
      </trkpt>
      <trkpt lat="48.98876" lon="0.82945">
        <ele>163</ele>
        <time>2019-08-15T08:52:59.682Z</time>
      </trkpt>
      <trkpt lat="48.98885" lon="0.82947">
        <ele>164</ele>
        <time>2019-08-15T08:53:00.681Z</time>
      </trkpt>
      <trkpt lat="48.98885" lon="0.82947">
        <ele>164</ele>
        <time>2019-08-15T08:53:01.679Z</time>
      </trkpt>
      <trkpt lat="48.98896" lon="0.82949">
        <ele>164</ele>
        <time>2019-08-15T08:53:02.715Z</time>
      </trkpt>
      <trkpt lat="48.989" lon="0.82951">
        <ele>164</ele>
        <time>2019-08-15T08:53:03.680Z</time>
      </trkpt>
      <trkpt lat="48.98905" lon="0.82954">
        <ele>164</ele>
        <time>2019-08-15T08:53:04.681Z</time>
      </trkpt>
      <trkpt lat="48.98905" lon="0.82954">
        <ele>164</ele>
        <time>2019-08-15T08:53:05.679Z</time>
      </trkpt>
      <trkpt lat="48.98913" lon="0.82963">
        <ele>165</ele>
        <time>2019-08-15T08:53:06.681Z</time>
      </trkpt>
      <trkpt lat="48.98918" lon="0.82968">
        <ele>165</ele>
        <time>2019-08-15T08:53:07.696Z</time>
      </trkpt>
      <trkpt lat="48.98918" lon="0.82968">
        <ele>165</ele>
        <time>2019-08-15T08:53:08.680Z</time>
      </trkpt>
      <trkpt lat="48.98924" lon="0.82977">
        <ele>166</ele>
        <time>2019-08-15T08:53:09.681Z</time>
      </trkpt>
      <trkpt lat="48.98924" lon="0.82977">
        <ele>166</ele>
        <time>2019-08-15T08:53:10.679Z</time>
      </trkpt>
      <trkpt lat="48.98932" lon="0.82986">
        <ele>166</ele>
        <time>2019-08-15T08:53:11.680Z</time>
      </trkpt>
      <trkpt lat="48.98932" lon="0.82986">
        <ele>166</ele>
        <time>2019-08-15T08:53:12.681Z</time>
      </trkpt>
      <trkpt lat="48.9894" lon="0.82995">
        <ele>166</ele>
        <time>2019-08-15T08:53:13.680Z</time>
      </trkpt>
      <trkpt lat="48.98944" lon="0.83">
        <ele>167</ele>
        <time>2019-08-15T08:53:14.680Z</time>
      </trkpt>
      <trkpt lat="48.98944" lon="0.83">
        <ele>167</ele>
        <time>2019-08-15T08:53:15.715Z</time>
      </trkpt>
      <trkpt lat="48.98951" lon="0.83009">
        <ele>167</ele>
        <time>2019-08-15T08:53:16.697Z</time>
      </trkpt>
      <trkpt lat="48.98954" lon="0.83013">
        <ele>167</ele>
        <time>2019-08-15T08:53:17.689Z</time>
      </trkpt>
      <trkpt lat="48.98954" lon="0.83013">
        <ele>167</ele>
        <time>2019-08-15T08:53:18.715Z</time>
      </trkpt>
      <trkpt lat="48.9896" lon="0.83021">
        <ele>167</ele>
        <time>2019-08-15T08:53:19.680Z</time>
      </trkpt>
      <trkpt lat="48.98963" lon="0.83026">
        <ele>167</ele>
        <time>2019-08-15T08:53:20.681Z</time>
      </trkpt>
      <trkpt lat="48.98963" lon="0.83026">
        <ele>167</ele>
        <time>2019-08-15T08:53:21.715Z</time>
      </trkpt>
      <trkpt lat="48.98971" lon="0.83035">
        <ele>167</ele>
        <time>2019-08-15T08:53:22.681Z</time>
      </trkpt>
      <trkpt lat="48.98971" lon="0.83035">
        <ele>167</ele>
        <time>2019-08-15T08:53:23.717Z</time>
      </trkpt>
      <trkpt lat="48.98979" lon="0.83043">
        <ele>168</ele>
        <time>2019-08-15T08:53:24.678Z</time>
      </trkpt>
      <trkpt lat="48.98979" lon="0.83043">
        <ele>168</ele>
        <time>2019-08-15T08:53:25.715Z</time>
      </trkpt>
      <trkpt lat="48.98985" lon="0.8305">
        <ele>168</ele>
        <time>2019-08-15T08:53:26.681Z</time>
      </trkpt>
      <trkpt lat="48.98985" lon="0.8305">
        <ele>168</ele>
        <time>2019-08-15T08:53:27.714Z</time>
      </trkpt>
      <trkpt lat="48.98993" lon="0.83056">
        <ele>168</ele>
        <time>2019-08-15T08:53:28.697Z</time>
      </trkpt>
      <trkpt lat="48.98993" lon="0.83056">
        <ele>168</ele>
        <time>2019-08-15T08:53:29.683Z</time>
      </trkpt>
      <trkpt lat="48.99" lon="0.83063">
        <ele>168</ele>
        <time>2019-08-15T08:53:30.680Z</time>
      </trkpt>
      <trkpt lat="48.99" lon="0.83063">
        <ele>168</ele>
        <time>2019-08-15T08:53:31.678Z</time>
      </trkpt>
      <trkpt lat="48.99007" lon="0.8307">
        <ele>168</ele>
        <time>2019-08-15T08:53:32.687Z</time>
      </trkpt>
      <trkpt lat="48.99011" lon="0.83074">
        <ele>168</ele>
        <time>2019-08-15T08:53:33.689Z</time>
      </trkpt>
      <trkpt lat="48.99015" lon="0.83077">
        <ele>168</ele>
        <time>2019-08-15T08:53:34.681Z</time>
      </trkpt>
      <trkpt lat="48.99015" lon="0.83077">
        <ele>168</ele>
        <time>2019-08-15T08:53:35.715Z</time>
      </trkpt>
      <trkpt lat="48.99024" lon="0.83085">
        <ele>168</ele>
        <time>2019-08-15T08:53:36.680Z</time>
      </trkpt>
      <trkpt lat="48.99024" lon="0.83085">
        <ele>168</ele>
        <time>2019-08-15T08:53:37.678Z</time>
      </trkpt>
      <trkpt lat="48.99033" lon="0.83093">
        <ele>168</ele>
        <time>2019-08-15T08:53:38.681Z</time>
      </trkpt>
      <trkpt lat="48.99033" lon="0.83093">
        <ele>168</ele>
        <time>2019-08-15T08:53:39.715Z</time>
      </trkpt>
      <trkpt lat="48.9904" lon="0.83098">
        <ele>169</ele>
        <time>2019-08-15T08:53:40.708Z</time>
      </trkpt>
      <trkpt lat="48.9904" lon="0.83098">
        <ele>169</ele>
        <time>2019-08-15T08:53:41.702Z</time>
      </trkpt>
      <trkpt lat="48.99047" lon="0.83101">
        <ele>169</ele>
        <time>2019-08-15T08:53:42.688Z</time>
      </trkpt>
      <trkpt lat="48.99051" lon="0.83103">
        <ele>169</ele>
        <time>2019-08-15T08:53:43.680Z</time>
      </trkpt>
      <trkpt lat="48.99054" lon="0.83104">
        <ele>169</ele>
        <time>2019-08-15T08:53:44.681Z</time>
      </trkpt>
      <trkpt lat="48.99054" lon="0.83104">
        <ele>169</ele>
        <time>2019-08-15T08:53:45.716Z</time>
      </trkpt>
      <trkpt lat="48.99061" lon="0.83105">
        <ele>169</ele>
        <time>2019-08-15T08:53:46.682Z</time>
      </trkpt>
      <trkpt lat="48.99061" lon="0.83105">
        <ele>169</ele>
        <time>2019-08-15T08:53:47.715Z</time>
      </trkpt>
      <trkpt lat="48.99067" lon="0.83108">
        <ele>169</ele>
        <time>2019-08-15T08:53:48.681Z</time>
      </trkpt>
      <trkpt lat="48.99067" lon="0.83108">
        <ele>169</ele>
        <time>2019-08-15T08:53:49.715Z</time>
      </trkpt>
      <trkpt lat="48.99075" lon="0.8311">
        <ele>170</ele>
        <time>2019-08-15T08:53:50.681Z</time>
      </trkpt>
      <trkpt lat="48.99075" lon="0.8311">
        <ele>170</ele>
        <time>2019-08-15T08:53:51.679Z</time>
      </trkpt>
      <trkpt lat="48.99081" lon="0.83111">
        <ele>170</ele>
        <time>2019-08-15T08:53:52.678Z</time>
      </trkpt>
      <trkpt lat="48.99083" lon="0.83112">
        <ele>170</ele>
        <time>2019-08-15T08:53:53.680Z</time>
      </trkpt>
      <trkpt lat="48.99084" lon="0.83112">
        <ele>170</ele>
        <time>2019-08-15T08:53:54.681Z</time>
      </trkpt>
      <trkpt lat="48.99084" lon="0.83112">
        <ele>170</ele>
        <time>2019-08-15T08:53:55.716Z</time>
      </trkpt>
      <trkpt lat="48.99084" lon="0.83113">
        <ele>171</ele>
        <time>2019-08-15T08:53:56.681Z</time>
      </trkpt>
      <trkpt lat="48.99112" lon="0.83118">
        <ele>172</ele>
        <time>2019-08-15T08:53:57.711Z</time>
      </trkpt>
      <trkpt lat="48.99112" lon="0.83118">
        <ele>172</ele>
        <time>2019-08-15T08:53:58.706Z</time>
      </trkpt>
      <trkpt lat="48.99116" lon="0.83118">
        <ele>172</ele>
        <time>2019-08-15T08:53:59.711Z</time>
      </trkpt>
      <trkpt lat="48.99119" lon="0.83118">
        <ele>172</ele>
        <time>2019-08-15T08:54:00.712Z</time>
      </trkpt>
      <trkpt lat="48.99119" lon="0.83118">
        <ele>172</ele>
        <time>2019-08-15T08:54:01.710Z</time>
      </trkpt>
      <trkpt lat="48.99124" lon="0.83118">
        <ele>173</ele>
        <time>2019-08-15T08:54:02.712Z</time>
      </trkpt>
      <trkpt lat="48.99127" lon="0.83118">
        <ele>173</ele>
        <time>2019-08-15T08:54:03.711Z</time>
      </trkpt>
      <trkpt lat="48.99127" lon="0.83118">
        <ele>173</ele>
        <time>2019-08-15T08:54:04.706Z</time>
      </trkpt>
      <trkpt lat="48.99134" lon="0.83119">
        <ele>172</ele>
        <time>2019-08-15T08:54:05.684Z</time>
      </trkpt>
      <trkpt lat="48.99134" lon="0.83119">
        <ele>172</ele>
        <time>2019-08-15T08:54:06.706Z</time>
      </trkpt>
      <trkpt lat="48.99141" lon="0.83121">
        <ele>173</ele>
        <time>2019-08-15T08:54:07.697Z</time>
      </trkpt>
      <trkpt lat="48.99141" lon="0.83121">
        <ele>173</ele>
        <time>2019-08-15T08:54:08.681Z</time>
      </trkpt>
      <trkpt lat="48.99148" lon="0.83123">
        <ele>174</ele>
        <time>2019-08-15T08:54:09.709Z</time>
      </trkpt>
      <trkpt lat="48.9915" lon="0.83124">
        <ele>174</ele>
        <time>2019-08-15T08:54:10.712Z</time>
      </trkpt>
      <trkpt lat="48.9915" lon="0.83124">
        <ele>174</ele>
        <time>2019-08-15T08:54:11.708Z</time>
      </trkpt>
      <trkpt lat="48.99157" lon="0.83125">
        <ele>175</ele>
        <time>2019-08-15T08:54:12.715Z</time>
      </trkpt>
      <trkpt lat="48.99157" lon="0.83125">
        <ele>175</ele>
        <time>2019-08-15T08:54:13.710Z</time>
      </trkpt>
      <trkpt lat="48.99165" lon="0.83126">
        <ele>176</ele>
        <time>2019-08-15T08:54:14.712Z</time>
      </trkpt>
      <trkpt lat="48.99165" lon="0.83126">
        <ele>176</ele>
        <time>2019-08-15T08:54:15.706Z</time>
      </trkpt>
      <trkpt lat="48.99173" lon="0.83128">
        <ele>176</ele>
        <time>2019-08-15T08:54:16.691Z</time>
      </trkpt>
      <trkpt lat="48.99177" lon="0.83128">
        <ele>177</ele>
        <time>2019-08-15T08:54:17.715Z</time>
      </trkpt>
      <trkpt lat="48.99177" lon="0.83128">
        <ele>177</ele>
        <time>2019-08-15T08:54:18.710Z</time>
      </trkpt>
      <trkpt lat="48.99185" lon="0.83128">
        <ele>179</ele>
        <time>2019-08-15T08:54:19.713Z</time>
      </trkpt>
      <trkpt lat="48.99185" lon="0.83128">
        <ele>179</ele>
        <time>2019-08-15T08:54:20.707Z</time>
      </trkpt>
      <trkpt lat="48.99192" lon="0.83128">
        <ele>180</ele>
        <time>2019-08-15T08:54:21.711Z</time>
      </trkpt>
      <trkpt lat="48.99192" lon="0.83128">
        <ele>180</ele>
        <time>2019-08-15T08:54:22.706Z</time>
      </trkpt>
      <trkpt lat="48.99198" lon="0.83128">
        <ele>178</ele>
        <time>2019-08-15T08:54:23.712Z</time>
      </trkpt>
      <trkpt lat="48.99198" lon="0.83128">
        <ele>178</ele>
        <time>2019-08-15T08:54:24.709Z</time>
      </trkpt>
      <trkpt lat="48.99204" lon="0.83129">
        <ele>177</ele>
        <time>2019-08-15T08:54:25.693Z</time>
      </trkpt>
      <trkpt lat="48.99204" lon="0.83129">
        <ele>177</ele>
        <time>2019-08-15T08:54:26.678Z</time>
      </trkpt>
      <trkpt lat="48.99211" lon="0.83128">
        <ele>178</ele>
        <time>2019-08-15T08:54:27.712Z</time>
      </trkpt>
      <trkpt lat="48.99213" lon="0.83128">
        <ele>178</ele>
        <time>2019-08-15T08:54:28.712Z</time>
      </trkpt>
      <trkpt lat="48.99213" lon="0.83128">
        <ele>178</ele>
        <time>2019-08-15T08:54:29.710Z</time>
      </trkpt>
      <trkpt lat="48.99216" lon="0.83126">
        <ele>177</ele>
        <time>2019-08-15T08:54:30.709Z</time>
      </trkpt>
      <trkpt lat="48.99216" lon="0.83126">
        <ele>177</ele>
        <time>2019-08-15T08:54:31.708Z</time>
      </trkpt>
      <trkpt lat="48.99218" lon="0.83126">
        <ele>177</ele>
        <time>2019-08-15T08:54:32.711Z</time>
      </trkpt>
      <trkpt lat="48.99218" lon="0.83126">
        <ele>177</ele>
        <time>2019-08-15T08:54:33.710Z</time>
      </trkpt>
      <trkpt lat="48.9922" lon="0.83126">
        <ele>174</ele>
        <time>2019-08-15T08:54:34.711Z</time>
      </trkpt>
      <trkpt lat="48.9922" lon="0.83125">
        <ele>174</ele>
        <time>2019-08-15T08:54:35.712Z</time>
      </trkpt>
      <trkpt lat="48.9922" lon="0.83125">
        <ele>174</ele>
        <time>2019-08-15T08:54:36.707Z</time>
      </trkpt>
      <trkpt lat="48.99221" lon="0.83125">
        <ele>173</ele>
        <time>2019-08-15T08:54:37.704Z</time>
      </trkpt>
      <trkpt lat="48.99221" lon="0.83125">
        <ele>173</ele>
        <time>2019-08-15T08:54:38.705Z</time>
      </trkpt>
      <trkpt lat="48.99234" lon="0.83121">
        <ele>166</ele>
        <time>2019-08-15T08:54:39.703Z</time>
      </trkpt>
      <trkpt lat="48.99238" lon="0.8312">
        <ele>166</ele>
        <time>2019-08-15T08:54:40.683Z</time>
      </trkpt>
      <trkpt lat="48.99238" lon="0.8312">
        <ele>166</ele>
        <time>2019-08-15T08:54:41.707Z</time>
      </trkpt>
      <trkpt lat="48.99245" lon="0.8312">
        <ele>165</ele>
        <time>2019-08-15T08:54:42.706Z</time>
      </trkpt>
      <trkpt lat="48.99245" lon="0.8312">
        <ele>165</ele>
        <time>2019-08-15T08:54:43.705Z</time>
      </trkpt>
      <trkpt lat="48.99252" lon="0.83121">
        <ele>165</ele>
        <time>2019-08-15T08:54:44.708Z</time>
      </trkpt>
      <trkpt lat="48.99252" lon="0.83121">
        <ele>165</ele>
        <time>2019-08-15T08:54:45.698Z</time>
      </trkpt>
      <trkpt lat="48.99258" lon="0.83119">
        <ele>165</ele>
        <time>2019-08-15T08:54:46.708Z</time>
      </trkpt>
      <trkpt lat="48.99261" lon="0.83117">
        <ele>165</ele>
        <time>2019-08-15T08:54:47.707Z</time>
      </trkpt>
      <trkpt lat="48.99261" lon="0.83117">
        <ele>165</ele>
        <time>2019-08-15T08:54:48.702Z</time>
      </trkpt>
      <trkpt lat="48.99269" lon="0.83116">
        <ele>165</ele>
        <time>2019-08-15T08:54:49.706Z</time>
      </trkpt>
      <trkpt lat="48.99269" lon="0.83116">
        <ele>165</ele>
        <time>2019-08-15T08:54:50.697Z</time>
      </trkpt>
      <trkpt lat="48.99276" lon="0.83113">
        <ele>165</ele>
        <time>2019-08-15T08:54:51.697Z</time>
      </trkpt>
      <trkpt lat="48.99276" lon="0.83113">
        <ele>165</ele>
        <time>2019-08-15T08:54:52.703Z</time>
      </trkpt>
      <trkpt lat="48.99284" lon="0.83108">
        <ele>166</ele>
        <time>2019-08-15T08:54:53.710Z</time>
      </trkpt>
      <trkpt lat="48.99288" lon="0.83105">
        <ele>166</ele>
        <time>2019-08-15T08:54:54.707Z</time>
      </trkpt>
      <trkpt lat="48.99288" lon="0.83105">
        <ele>166</ele>
        <time>2019-08-15T08:54:55.705Z</time>
      </trkpt>
      <trkpt lat="48.99296" lon="0.831">
        <ele>166</ele>
        <time>2019-08-15T08:54:56.706Z</time>
      </trkpt>
      <trkpt lat="48.99296" lon="0.831">
        <ele>166</ele>
        <time>2019-08-15T08:54:57.701Z</time>
      </trkpt>
      <trkpt lat="48.99302" lon="0.83095">
        <ele>167</ele>
        <time>2019-08-15T08:54:58.708Z</time>
      </trkpt>
      <trkpt lat="48.99306" lon="0.83092">
        <ele>167</ele>
        <time>2019-08-15T08:54:59.707Z</time>
      </trkpt>
      <trkpt lat="48.99306" lon="0.83092">
        <ele>167</ele>
        <time>2019-08-15T08:55:00.703Z</time>
      </trkpt>
      <trkpt lat="48.99314" lon="0.83086">
        <ele>168</ele>
        <time>2019-08-15T08:55:01.712Z</time>
      </trkpt>
      <trkpt lat="48.99317" lon="0.83083">
        <ele>168</ele>
        <time>2019-08-15T08:55:02.705Z</time>
      </trkpt>
      <trkpt lat="48.99317" lon="0.83083">
        <ele>168</ele>
        <time>2019-08-15T08:55:03.707Z</time>
      </trkpt>
      <trkpt lat="48.99324" lon="0.83079">
        <ele>169</ele>
        <time>2019-08-15T08:55:04.707Z</time>
      </trkpt>
      <trkpt lat="48.99324" lon="0.83079">
        <ele>169</ele>
        <time>2019-08-15T08:55:05.700Z</time>
      </trkpt>
      <trkpt lat="48.99331" lon="0.83073">
        <ele>170</ele>
        <time>2019-08-15T08:55:06.684Z</time>
      </trkpt>
      <trkpt lat="48.99335" lon="0.83069">
        <ele>170</ele>
        <time>2019-08-15T08:55:07.710Z</time>
      </trkpt>
      <trkpt lat="48.99335" lon="0.83069">
        <ele>170</ele>
        <time>2019-08-15T08:55:08.701Z</time>
      </trkpt>
      <trkpt lat="48.99343" lon="0.83064">
        <ele>171</ele>
        <time>2019-08-15T08:55:09.705Z</time>
      </trkpt>
      <trkpt lat="48.99346" lon="0.83062">
        <ele>171</ele>
        <time>2019-08-15T08:55:10.707Z</time>
      </trkpt>
      <trkpt lat="48.99346" lon="0.83062">
        <ele>171</ele>
        <time>2019-08-15T08:55:11.700Z</time>
      </trkpt>
      <trkpt lat="48.99353" lon="0.83057">
        <ele>173</ele>
        <time>2019-08-15T08:55:12.703Z</time>
      </trkpt>
      <trkpt lat="48.99356" lon="0.83054">
        <ele>173</ele>
        <time>2019-08-15T08:55:13.704Z</time>
      </trkpt>
      <trkpt lat="48.99356" lon="0.83054">
        <ele>173</ele>
        <time>2019-08-15T08:55:14.700Z</time>
      </trkpt>
      <trkpt lat="48.99359" lon="0.83049">
        <ele>175</ele>
        <time>2019-08-15T08:55:15.705Z</time>
      </trkpt>
      <trkpt lat="48.99361" lon="0.83047">
        <ele>175</ele>
        <time>2019-08-15T08:55:16.708Z</time>
      </trkpt>
      <trkpt lat="48.99361" lon="0.83047">
        <ele>175</ele>
        <time>2019-08-15T08:55:17.700Z</time>
      </trkpt>
      <trkpt lat="48.99366" lon="0.83042">
        <ele>176</ele>
        <time>2019-08-15T08:55:18.685Z</time>
      </trkpt>
      <trkpt lat="48.99366" lon="0.83042">
        <ele>176</ele>
        <time>2019-08-15T08:55:19.709Z</time>
      </trkpt>
      <trkpt lat="48.99371" lon="0.83038">
        <ele>177</ele>
        <time>2019-08-15T08:55:20.706Z</time>
      </trkpt>
      <trkpt lat="48.99371" lon="0.83038">
        <ele>177</ele>
        <time>2019-08-15T08:55:21.706Z</time>
      </trkpt>
      <trkpt lat="48.99375" lon="0.83035">
        <ele>178</ele>
        <time>2019-08-15T08:55:22.707Z</time>
      </trkpt>
      <trkpt lat="48.99375" lon="0.83035">
        <ele>178</ele>
        <time>2019-08-15T08:55:23.697Z</time>
      </trkpt>
      <trkpt lat="48.99379" lon="0.83031">
        <ele>178</ele>
        <time>2019-08-15T08:55:24.681Z</time>
      </trkpt>
      <trkpt lat="48.99379" lon="0.83031">
        <ele>178</ele>
        <time>2019-08-15T08:55:25.710Z</time>
      </trkpt>
      <trkpt lat="48.99384" lon="0.83026">
        <ele>179</ele>
        <time>2019-08-15T08:55:26.706Z</time>
      </trkpt>
      <trkpt lat="48.99386" lon="0.83024">
        <ele>180</ele>
        <time>2019-08-15T08:55:27.705Z</time>
      </trkpt>
      <trkpt lat="48.99388" lon="0.83021">
        <ele>181</ele>
        <time>2019-08-15T08:55:28.707Z</time>
      </trkpt>
      <trkpt lat="48.99388" lon="0.83021">
        <ele>181</ele>
        <time>2019-08-15T08:55:29.703Z</time>
      </trkpt>
      <trkpt lat="48.99392" lon="0.83016">
        <ele>182</ele>
        <time>2019-08-15T08:55:30.706Z</time>
      </trkpt>
      <trkpt lat="48.99392" lon="0.83016">
        <ele>182</ele>
        <time>2019-08-15T08:55:31.701Z</time>
      </trkpt>
      <trkpt lat="48.99395" lon="0.83011">
        <ele>182</ele>
        <time>2019-08-15T08:55:32.705Z</time>
      </trkpt>
      <trkpt lat="48.99397" lon="0.83009">
        <ele>183</ele>
        <time>2019-08-15T08:55:33.705Z</time>
      </trkpt>
      <trkpt lat="48.99399" lon="0.83008">
        <ele>183</ele>
        <time>2019-08-15T08:55:34.708Z</time>
      </trkpt>
      <trkpt lat="48.99399" lon="0.83008">
        <ele>183</ele>
        <time>2019-08-15T08:55:35.701Z</time>
      </trkpt>
      <trkpt lat="48.99404" lon="0.83004">
        <ele>184</ele>
        <time>2019-08-15T08:55:36.685Z</time>
      </trkpt>
      <trkpt lat="48.99404" lon="0.83004">
        <ele>184</ele>
        <time>2019-08-15T08:55:37.680Z</time>
      </trkpt>
      <trkpt lat="48.99408" lon="0.82999">
        <ele>185</ele>
        <time>2019-08-15T08:55:38.705Z</time>
      </trkpt>
      <trkpt lat="48.99408" lon="0.82999">
        <ele>185</ele>
        <time>2019-08-15T08:55:39.700Z</time>
      </trkpt>
      <trkpt lat="48.99412" lon="0.82993">
        <ele>185</ele>
        <time>2019-08-15T08:55:40.683Z</time>
      </trkpt>
      <trkpt lat="48.99412" lon="0.82993">
        <ele>185</ele>
        <time>2019-08-15T08:55:41.705Z</time>
      </trkpt>
      <trkpt lat="48.99415" lon="0.82988">
        <ele>186</ele>
        <time>2019-08-15T08:55:42.705Z</time>
      </trkpt>
      <trkpt lat="48.99415" lon="0.82988">
        <ele>186</ele>
        <time>2019-08-15T08:55:43.699Z</time>
      </trkpt>
      <trkpt lat="48.99419" lon="0.82984">
        <ele>187</ele>
        <time>2019-08-15T08:55:44.705Z</time>
      </trkpt>
      <trkpt lat="48.99419" lon="0.82984">
        <ele>187</ele>
        <time>2019-08-15T08:55:45.702Z</time>
      </trkpt>
      <trkpt lat="48.99422" lon="0.82983">
        <ele>188</ele>
        <time>2019-08-15T08:55:46.708Z</time>
      </trkpt>
      <trkpt lat="48.99422" lon="0.82983">
        <ele>188</ele>
        <time>2019-08-15T08:55:47.703Z</time>
      </trkpt>
      <trkpt lat="48.99426" lon="0.82978">
        <ele>188</ele>
        <time>2019-08-15T08:55:48.705Z</time>
      </trkpt>
      <trkpt lat="48.99426" lon="0.82978">
        <ele>188</ele>
        <time>2019-08-15T08:55:49.700Z</time>
      </trkpt>
      <trkpt lat="48.99432" lon="0.82971">
        <ele>188</ele>
        <time>2019-08-15T08:55:50.705Z</time>
      </trkpt>
      <trkpt lat="48.99432" lon="0.82971">
        <ele>188</ele>
        <time>2019-08-15T08:55:51.717Z</time>
      </trkpt>
      <trkpt lat="48.9944" lon="0.82963">
        <ele>188</ele>
        <time>2019-08-15T08:55:52.705Z</time>
      </trkpt>
      <trkpt lat="48.9944" lon="0.82963">
        <ele>188</ele>
        <time>2019-08-15T08:55:53.700Z</time>
      </trkpt>
      <trkpt lat="48.99446" lon="0.82956">
        <ele>188</ele>
        <time>2019-08-15T08:55:54.705Z</time>
      </trkpt>
      <trkpt lat="48.99446" lon="0.82956">
        <ele>188</ele>
        <time>2019-08-15T08:55:55.702Z</time>
      </trkpt>
      <trkpt lat="48.99453" lon="0.82948">
        <ele>189</ele>
        <time>2019-08-15T08:55:56.705Z</time>
      </trkpt>
      <trkpt lat="48.99453" lon="0.82948">
        <ele>189</ele>
        <time>2019-08-15T08:55:57.703Z</time>
      </trkpt>
      <trkpt lat="48.99459" lon="0.8294">
        <ele>189</ele>
        <time>2019-08-15T08:55:58.686Z</time>
      </trkpt>
      <trkpt lat="48.99459" lon="0.8294">
        <ele>189</ele>
        <time>2019-08-15T08:55:59.708Z</time>
      </trkpt>
      <trkpt lat="48.99463" lon="0.82933">
        <ele>191</ele>
        <time>2019-08-15T08:56:00.706Z</time>
      </trkpt>
      <trkpt lat="48.99463" lon="0.82933">
        <ele>191</ele>
        <time>2019-08-15T08:56:01.703Z</time>
      </trkpt>
      <trkpt lat="48.9947" lon="0.82926">
        <ele>189</ele>
        <time>2019-08-15T08:56:02.705Z</time>
      </trkpt>
      <trkpt lat="48.99473" lon="0.82922">
        <ele>189</ele>
        <time>2019-08-15T08:56:03.705Z</time>
      </trkpt>
      <trkpt lat="48.99473" lon="0.82922">
        <ele>189</ele>
        <time>2019-08-15T08:56:04.705Z</time>
      </trkpt>
      <trkpt lat="48.9948" lon="0.82912">
        <ele>188</ele>
        <time>2019-08-15T08:56:05.705Z</time>
      </trkpt>
      <trkpt lat="48.99483" lon="0.82909">
        <ele>188</ele>
        <time>2019-08-15T08:56:06.705Z</time>
      </trkpt>
      <trkpt lat="48.99483" lon="0.82909">
        <ele>188</ele>
        <time>2019-08-15T08:56:07.699Z</time>
      </trkpt>
      <trkpt lat="48.99488" lon="0.82904">
        <ele>189</ele>
        <time>2019-08-15T08:56:08.685Z</time>
      </trkpt>
      <trkpt lat="48.99488" lon="0.82904">
        <ele>189</ele>
        <time>2019-08-15T08:56:09.708Z</time>
      </trkpt>
      <trkpt lat="48.99495" lon="0.82898">
        <ele>190</ele>
        <time>2019-08-15T08:56:10.708Z</time>
      </trkpt>
      <trkpt lat="48.99495" lon="0.82898">
        <ele>190</ele>
        <time>2019-08-15T08:56:11.700Z</time>
      </trkpt>
      <trkpt lat="48.99503" lon="0.82892">
        <ele>191</ele>
        <time>2019-08-15T08:56:12.704Z</time>
      </trkpt>
      <trkpt lat="48.99506" lon="0.8289">
        <ele>191</ele>
        <time>2019-08-15T08:56:13.705Z</time>
      </trkpt>
      <trkpt lat="48.9951" lon="0.82887">
        <ele>191</ele>
        <time>2019-08-15T08:56:14.706Z</time>
      </trkpt>
      <trkpt lat="48.9951" lon="0.82887">
        <ele>191</ele>
        <time>2019-08-15T08:56:15.702Z</time>
      </trkpt>
      <trkpt lat="48.99517" lon="0.8288">
        <ele>192</ele>
        <time>2019-08-15T08:56:16.686Z</time>
      </trkpt>
      <trkpt lat="48.99517" lon="0.8288">
        <ele>192</ele>
        <time>2019-08-15T08:56:17.710Z</time>
      </trkpt>
      <trkpt lat="48.99524" lon="0.82873">
        <ele>193</ele>
        <time>2019-08-15T08:56:18.698Z</time>
      </trkpt>
      <trkpt lat="48.99527" lon="0.8287">
        <ele>194</ele>
        <time>2019-08-15T08:56:19.704Z</time>
      </trkpt>
      <trkpt lat="48.99527" lon="0.8287">
        <ele>194</ele>
        <time>2019-08-15T08:56:20.703Z</time>
      </trkpt>
      <trkpt lat="48.99534" lon="0.82862">
        <ele>195</ele>
        <time>2019-08-15T08:56:21.704Z</time>
      </trkpt>
      <trkpt lat="48.99537" lon="0.82858">
        <ele>196</ele>
        <time>2019-08-15T08:56:22.711Z</time>
      </trkpt>
      <trkpt lat="48.99537" lon="0.82858">
        <ele>196</ele>
        <time>2019-08-15T08:56:23.703Z</time>
      </trkpt>
      <trkpt lat="48.99541" lon="0.82852">
        <ele>196</ele>
        <time>2019-08-15T08:56:24.705Z</time>
      </trkpt>
      <trkpt lat="48.99541" lon="0.82852">
        <ele>196</ele>
        <time>2019-08-15T08:56:25.699Z</time>
      </trkpt>
      <trkpt lat="48.99546" lon="0.82846">
        <ele>197</ele>
        <time>2019-08-15T08:56:26.685Z</time>
      </trkpt>
      <trkpt lat="48.99549" lon="0.82842">
        <ele>197</ele>
        <time>2019-08-15T08:56:27.710Z</time>
      </trkpt>
      <trkpt lat="48.99549" lon="0.82842">
        <ele>197</ele>
        <time>2019-08-15T08:56:28.703Z</time>
      </trkpt>
      <trkpt lat="48.99556" lon="0.82833">
        <ele>198</ele>
        <time>2019-08-15T08:56:29.706Z</time>
      </trkpt>
      <trkpt lat="48.99561" lon="0.82829">
        <ele>198</ele>
        <time>2019-08-15T08:56:30.705Z</time>
      </trkpt>
      <trkpt lat="48.99561" lon="0.82829">
        <ele>198</ele>
        <time>2019-08-15T08:56:31.700Z</time>
      </trkpt>
      <trkpt lat="48.99567" lon="0.8282">
        <ele>199</ele>
        <time>2019-08-15T08:56:32.700Z</time>
      </trkpt>
      <trkpt lat="48.99567" lon="0.8282">
        <ele>199</ele>
        <time>2019-08-15T08:56:33.680Z</time>
      </trkpt>
      <trkpt lat="48.99573" lon="0.82812">
        <ele>200</ele>
        <time>2019-08-15T08:56:34.706Z</time>
      </trkpt>
      <trkpt lat="48.99573" lon="0.82812">
        <ele>200</ele>
        <time>2019-08-15T08:56:35.700Z</time>
      </trkpt>
      <trkpt lat="48.99579" lon="0.82805">
        <ele>200</ele>
        <time>2019-08-15T08:56:36.685Z</time>
      </trkpt>
      <trkpt lat="48.99579" lon="0.82805">
        <ele>200</ele>
        <time>2019-08-15T08:56:37.706Z</time>
      </trkpt>
      <trkpt lat="48.99585" lon="0.82796">
        <ele>201</ele>
        <time>2019-08-15T08:56:38.706Z</time>
      </trkpt>
      <trkpt lat="48.99585" lon="0.82796">
        <ele>201</ele>
        <time>2019-08-15T08:56:39.697Z</time>
      </trkpt>
      <trkpt lat="48.99592" lon="0.82786">
        <ele>202</ele>
        <time>2019-08-15T08:56:40.680Z</time>
      </trkpt>
      <trkpt lat="48.99592" lon="0.82786">
        <ele>202</ele>
        <time>2019-08-15T08:56:41.701Z</time>
      </trkpt>
      <trkpt lat="48.99599" lon="0.82779">
        <ele>201</ele>
        <time>2019-08-15T08:56:42.705Z</time>
      </trkpt>
      <trkpt lat="48.99602" lon="0.82777">
        <ele>202</ele>
        <time>2019-08-15T08:56:43.705Z</time>
      </trkpt>
      <trkpt lat="48.99605" lon="0.82773">
        <ele>201</ele>
        <time>2019-08-15T08:56:44.705Z</time>
      </trkpt>
      <trkpt lat="48.99605" lon="0.82773">
        <ele>201</ele>
        <time>2019-08-15T08:56:45.702Z</time>
      </trkpt>
      <trkpt lat="48.99613" lon="0.82768">
        <ele>199</ele>
        <time>2019-08-15T08:56:46.687Z</time>
      </trkpt>
      <trkpt lat="48.99613" lon="0.82768">
        <ele>199</ele>
        <time>2019-08-15T08:56:47.680Z</time>
      </trkpt>
      <trkpt lat="48.99622" lon="0.82765">
        <ele>198</ele>
        <time>2019-08-15T08:56:48.705Z</time>
      </trkpt>
      <trkpt lat="48.99622" lon="0.82765">
        <ele>198</ele>
        <time>2019-08-15T08:56:49.700Z</time>
      </trkpt>
      <trkpt lat="48.99631" lon="0.8276">
        <ele>198</ele>
        <time>2019-08-15T08:56:50.705Z</time>
      </trkpt>
      <trkpt lat="48.99631" lon="0.8276">
        <ele>198</ele>
        <time>2019-08-15T08:56:51.699Z</time>
      </trkpt>
      <trkpt lat="48.99639" lon="0.82757">
        <ele>196</ele>
        <time>2019-08-15T08:56:52.705Z</time>
      </trkpt>
      <trkpt lat="48.99639" lon="0.82757">
        <ele>196</ele>
        <time>2019-08-15T08:56:53.699Z</time>
      </trkpt>
      <trkpt lat="48.99647" lon="0.82752">
        <ele>197</ele>
        <time>2019-08-15T08:56:54.706Z</time>
      </trkpt>
      <trkpt lat="48.99647" lon="0.82752">
        <ele>197</ele>
        <time>2019-08-15T08:56:55.700Z</time>
      </trkpt>
      <trkpt lat="48.99657" lon="0.82749">
        <ele>196</ele>
        <time>2019-08-15T08:56:56.705Z</time>
      </trkpt>
      <trkpt lat="48.99662" lon="0.82747">
        <ele>196</ele>
        <time>2019-08-15T08:56:57.706Z</time>
      </trkpt>
      <trkpt lat="48.99662" lon="0.82747">
        <ele>196</ele>
        <time>2019-08-15T08:56:58.703Z</time>
      </trkpt>
      <trkpt lat="48.99671" lon="0.82741">
        <ele>196</ele>
        <time>2019-08-15T08:56:59.705Z</time>
      </trkpt>
      <trkpt lat="48.99675" lon="0.82738">
        <ele>196</ele>
        <time>2019-08-15T08:57:00.705Z</time>
      </trkpt>
      <trkpt lat="48.99675" lon="0.82738">
        <ele>196</ele>
        <time>2019-08-15T08:57:01.699Z</time>
      </trkpt>
      <trkpt lat="48.99682" lon="0.8273">
        <ele>195</ele>
        <time>2019-08-15T08:57:02.705Z</time>
      </trkpt>
      <trkpt lat="48.99682" lon="0.8273">
        <ele>195</ele>
        <time>2019-08-15T08:57:03.697Z</time>
      </trkpt>
      <trkpt lat="48.9969" lon="0.82724">
        <ele>195</ele>
        <time>2019-08-15T08:57:04.681Z</time>
      </trkpt>
      <trkpt lat="48.9969" lon="0.82724">
        <ele>195</ele>
        <time>2019-08-15T08:57:05.701Z</time>
      </trkpt>
      <trkpt lat="48.997" lon="0.82716">
        <ele>193</ele>
        <time>2019-08-15T08:57:06.685Z</time>
      </trkpt>
      <trkpt lat="48.997" lon="0.82716">
        <ele>193</ele>
        <time>2019-08-15T08:57:07.708Z</time>
      </trkpt>
      <trkpt lat="48.99708" lon="0.82709">
        <ele>192</ele>
        <time>2019-08-15T08:57:08.705Z</time>
      </trkpt>
      <trkpt lat="48.99712" lon="0.82707">
        <ele>192</ele>
        <time>2019-08-15T08:57:09.705Z</time>
      </trkpt>
      <trkpt lat="48.99715" lon="0.82704">
        <ele>192</ele>
        <time>2019-08-15T08:57:10.706Z</time>
      </trkpt>
      <trkpt lat="48.99715" lon="0.82704">
        <ele>192</ele>
        <time>2019-08-15T08:57:11.700Z</time>
      </trkpt>
      <trkpt lat="48.99723" lon="0.82699">
        <ele>192</ele>
        <time>2019-08-15T08:57:12.705Z</time>
      </trkpt>
      <trkpt lat="48.99723" lon="0.82699">
        <ele>192</ele>
        <time>2019-08-15T08:57:13.699Z</time>
      </trkpt>
      <trkpt lat="48.99731" lon="0.82694">
        <ele>192</ele>
        <time>2019-08-15T08:57:14.706Z</time>
      </trkpt>
      <trkpt lat="48.99731" lon="0.82694">
        <ele>192</ele>
        <time>2019-08-15T08:57:15.702Z</time>
      </trkpt>
      <trkpt lat="48.99739" lon="0.82686">
        <ele>193</ele>
        <time>2019-08-15T08:57:16.687Z</time>
      </trkpt>
      <trkpt lat="48.99739" lon="0.82686">
        <ele>193</ele>
        <time>2019-08-15T08:57:17.680Z</time>
      </trkpt>
      <trkpt lat="48.99747" lon="0.82681">
        <ele>193</ele>
        <time>2019-08-15T08:57:18.705Z</time>
      </trkpt>
      <trkpt lat="48.99747" lon="0.82681">
        <ele>193</ele>
        <time>2019-08-15T08:57:19.703Z</time>
      </trkpt>
      <trkpt lat="48.99755" lon="0.82677">
        <ele>194</ele>
        <time>2019-08-15T08:57:20.704Z</time>
      </trkpt>
      <trkpt lat="48.99759" lon="0.82674">
        <ele>194</ele>
        <time>2019-08-15T08:57:21.705Z</time>
      </trkpt>
      <trkpt lat="48.99763" lon="0.82672">
        <ele>194</ele>
        <time>2019-08-15T08:57:22.679Z</time>
      </trkpt>
      <trkpt lat="48.99763" lon="0.82672">
        <ele>194</ele>
        <time>2019-08-15T08:57:23.706Z</time>
      </trkpt>
      <trkpt lat="48.99772" lon="0.82664">
        <ele>195</ele>
        <time>2019-08-15T08:57:24.705Z</time>
      </trkpt>
      <trkpt lat="48.99777" lon="0.8266">
        <ele>196</ele>
        <time>2019-08-15T08:57:25.705Z</time>
      </trkpt>
      <trkpt lat="48.99777" lon="0.8266">
        <ele>196</ele>
        <time>2019-08-15T08:57:26.703Z</time>
      </trkpt>
      <trkpt lat="48.99787" lon="0.82651">
        <ele>196</ele>
        <time>2019-08-15T08:57:27.704Z</time>
      </trkpt>
      <trkpt lat="48.99792" lon="0.82648">
        <ele>197</ele>
        <time>2019-08-15T08:57:28.703Z</time>
      </trkpt>
      <trkpt lat="48.99792" lon="0.82648">
        <ele>197</ele>
        <time>2019-08-15T08:57:29.700Z</time>
      </trkpt>
      <trkpt lat="48.99802" lon="0.82642">
        <ele>197</ele>
        <time>2019-08-15T08:57:30.705Z</time>
      </trkpt>
      <trkpt lat="48.99802" lon="0.82642">
        <ele>197</ele>
        <time>2019-08-15T08:57:31.700Z</time>
      </trkpt>
      <trkpt lat="48.9981" lon="0.82634">
        <ele>198</ele>
        <time>2019-08-15T08:57:32.705Z</time>
      </trkpt>
      <trkpt lat="48.9981" lon="0.82634">
        <ele>198</ele>
        <time>2019-08-15T08:57:33.702Z</time>
      </trkpt>
      <trkpt lat="48.99819" lon="0.82628">
        <ele>199</ele>
        <time>2019-08-15T08:57:34.687Z</time>
      </trkpt>
      <trkpt lat="48.99819" lon="0.82628">
        <ele>199</ele>
        <time>2019-08-15T08:57:35.680Z</time>
      </trkpt>
      <trkpt lat="48.99826" lon="0.82622">
        <ele>199</ele>
        <time>2019-08-15T08:57:36.706Z</time>
      </trkpt>
      <trkpt lat="48.9983" lon="0.82618">
        <ele>200</ele>
        <time>2019-08-15T08:57:37.704Z</time>
      </trkpt>
      <trkpt lat="48.9983" lon="0.82618">
        <ele>200</ele>
        <time>2019-08-15T08:57:38.699Z</time>
      </trkpt>
      <trkpt lat="48.99837" lon="0.8261">
        <ele>200</ele>
        <time>2019-08-15T08:57:39.685Z</time>
      </trkpt>
      <trkpt lat="48.99837" lon="0.8261">
        <ele>200</ele>
        <time>2019-08-15T08:57:40.715Z</time>
      </trkpt>
      <trkpt lat="48.99845" lon="0.82601">
        <ele>201</ele>
        <time>2019-08-15T08:57:41.706Z</time>
      </trkpt>
      <trkpt lat="48.99848" lon="0.82597">
        <ele>201</ele>
        <time>2019-08-15T08:57:42.710Z</time>
      </trkpt>
      <trkpt lat="48.99848" lon="0.82597">
        <ele>201</ele>
        <time>2019-08-15T08:57:43.704Z</time>
      </trkpt>
      <trkpt lat="48.99855" lon="0.82591">
        <ele>201</ele>
        <time>2019-08-15T08:57:44.705Z</time>
      </trkpt>
      <trkpt lat="48.99859" lon="0.82588">
        <ele>201</ele>
        <time>2019-08-15T08:57:45.705Z</time>
      </trkpt>
      <trkpt lat="48.99859" lon="0.82588">
        <ele>201</ele>
        <time>2019-08-15T08:57:46.710Z</time>
      </trkpt>
      <trkpt lat="48.99869" lon="0.82577">
        <ele>201</ele>
        <time>2019-08-15T08:57:47.705Z</time>
      </trkpt>
      <trkpt lat="48.99872" lon="0.82573">
        <ele>202</ele>
        <time>2019-08-15T08:57:48.705Z</time>
      </trkpt>
      <trkpt lat="48.99872" lon="0.82573">
        <ele>202</ele>
        <time>2019-08-15T08:57:49.699Z</time>
      </trkpt>
      <trkpt lat="48.9988" lon="0.82566">
        <ele>201</ele>
        <time>2019-08-15T08:57:50.694Z</time>
      </trkpt>
      <trkpt lat="48.99885" lon="0.82562">
        <ele>201</ele>
        <time>2019-08-15T08:57:51.701Z</time>
      </trkpt>
      <trkpt lat="48.99889" lon="0.82558">
        <ele>200</ele>
        <time>2019-08-15T08:57:52.708Z</time>
      </trkpt>
      <trkpt lat="48.99889" lon="0.82558">
        <ele>200</ele>
        <time>2019-08-15T08:57:53.700Z</time>
      </trkpt>
      <trkpt lat="48.99897" lon="0.82548">
        <ele>199</ele>
        <time>2019-08-15T08:57:54.705Z</time>
      </trkpt>
      <trkpt lat="48.99897" lon="0.82548">
        <ele>199</ele>
        <time>2019-08-15T08:57:55.702Z</time>
      </trkpt>
      <trkpt lat="48.99905" lon="0.82539">
        <ele>197</ele>
        <time>2019-08-15T08:57:56.706Z</time>
      </trkpt>
      <trkpt lat="48.99909" lon="0.82535">
        <ele>195</ele>
        <time>2019-08-15T08:57:57.705Z</time>
      </trkpt>
      <trkpt lat="48.99914" lon="0.82531">
        <ele>194</ele>
        <time>2019-08-15T08:57:58.703Z</time>
      </trkpt>
      <trkpt lat="48.99914" lon="0.82531">
        <ele>194</ele>
        <time>2019-08-15T08:57:59.700Z</time>
      </trkpt>
      <trkpt lat="48.99923" lon="0.82521">
        <ele>190</ele>
        <time>2019-08-15T08:58:00.705Z</time>
      </trkpt>
      <trkpt lat="48.99923" lon="0.82521">
        <ele>190</ele>
        <time>2019-08-15T08:58:01.700Z</time>
      </trkpt>
      <trkpt lat="48.99927" lon="0.82513">
        <ele>189</ele>
        <time>2019-08-15T08:58:02.703Z</time>
      </trkpt>
      <trkpt lat="48.99928" lon="0.82509">
        <ele>188</ele>
        <time>2019-08-15T08:58:03.704Z</time>
      </trkpt>
      <trkpt lat="48.99926" lon="0.82506">
        <ele>188</ele>
        <time>2019-08-15T08:58:04.706Z</time>
      </trkpt>
      <trkpt lat="48.99926" lon="0.82506">
        <ele>188</ele>
        <time>2019-08-15T08:58:05.700Z</time>
      </trkpt>
      <trkpt lat="48.99923" lon="0.82502">
        <ele>186</ele>
        <time>2019-08-15T08:58:06.705Z</time>
      </trkpt>
      <trkpt lat="48.99923" lon="0.82502">
        <ele>186</ele>
        <time>2019-08-15T08:58:07.702Z</time>
      </trkpt>
      <trkpt lat="48.99919" lon="0.82495">
        <ele>185</ele>
        <time>2019-08-15T08:58:08.704Z</time>
      </trkpt>
      <trkpt lat="48.99919" lon="0.82495">
        <ele>185</ele>
        <time>2019-08-15T08:58:09.696Z</time>
      </trkpt>
      <trkpt lat="48.99914" lon="0.8249">
        <ele>184</ele>
        <time>2019-08-15T08:58:10.707Z</time>
      </trkpt>
      <trkpt lat="48.99914" lon="0.8249">
        <ele>184</ele>
        <time>2019-08-15T08:58:11.700Z</time>
      </trkpt>
      <trkpt lat="48.99908" lon="0.82484">
        <ele>183</ele>
        <time>2019-08-15T08:58:12.705Z</time>
      </trkpt>
      <trkpt lat="48.99908" lon="0.82484">
        <ele>183</ele>
        <time>2019-08-15T08:58:13.703Z</time>
      </trkpt>
      <trkpt lat="48.99903" lon="0.82478">
        <ele>182</ele>
        <time>2019-08-15T08:58:14.704Z</time>
      </trkpt>
      <trkpt lat="48.99901" lon="0.82475">
        <ele>181</ele>
        <time>2019-08-15T08:58:15.705Z</time>
      </trkpt>
      <trkpt lat="48.99901" lon="0.82475">
        <ele>181</ele>
        <time>2019-08-15T08:58:16.703Z</time>
      </trkpt>
      <trkpt lat="48.99898" lon="0.8247">
        <ele>180</ele>
        <time>2019-08-15T08:58:17.705Z</time>
      </trkpt>
      <trkpt lat="48.99896" lon="0.82466">
        <ele>180</ele>
        <time>2019-08-15T08:58:18.705Z</time>
      </trkpt>
      <trkpt lat="48.99896" lon="0.82466">
        <ele>180</ele>
        <time>2019-08-15T08:58:19.703Z</time>
      </trkpt>
      <trkpt lat="48.99894" lon="0.82456">
        <ele>179</ele>
        <time>2019-08-15T08:58:20.705Z</time>
      </trkpt>
      <trkpt lat="48.99894" lon="0.82456">
        <ele>179</ele>
        <time>2019-08-15T08:58:21.716Z</time>
      </trkpt>
      <trkpt lat="48.99892" lon="0.82445">
        <ele>178</ele>
        <time>2019-08-15T08:58:22.708Z</time>
      </trkpt>
      <trkpt lat="48.99892" lon="0.82445">
        <ele>178</ele>
        <time>2019-08-15T08:58:23.702Z</time>
      </trkpt>
      <trkpt lat="48.99893" lon="0.82433">
        <ele>178</ele>
        <time>2019-08-15T08:58:24.705Z</time>
      </trkpt>
      <trkpt lat="48.99893" lon="0.82433">
        <ele>178</ele>
        <time>2019-08-15T08:58:25.703Z</time>
      </trkpt>
      <trkpt lat="48.99891" lon="0.8242">
        <ele>177</ele>
        <time>2019-08-15T08:58:26.706Z</time>
      </trkpt>
      <trkpt lat="48.99891" lon="0.8242">
        <ele>177</ele>
        <time>2019-08-15T08:58:27.702Z</time>
      </trkpt>
      <trkpt lat="48.99891" lon="0.82404">
        <ele>176</ele>
        <time>2019-08-15T08:58:28.705Z</time>
      </trkpt>
      <trkpt lat="48.99891" lon="0.82404">
        <ele>176</ele>
        <time>2019-08-15T08:58:29.704Z</time>
      </trkpt>
      <trkpt lat="48.99891" lon="0.8239">
        <ele>175</ele>
        <time>2019-08-15T08:58:30.705Z</time>
      </trkpt>
      <trkpt lat="48.99891" lon="0.8239">
        <ele>175</ele>
        <time>2019-08-15T08:58:31.700Z</time>
      </trkpt>
      <trkpt lat="48.99892" lon="0.82376">
        <ele>174</ele>
        <time>2019-08-15T08:58:32.704Z</time>
      </trkpt>
      <trkpt lat="48.99892" lon="0.82376">
        <ele>174</ele>
        <time>2019-08-15T08:58:33.703Z</time>
      </trkpt>
      <trkpt lat="48.99893" lon="0.82363">
        <ele>174</ele>
        <time>2019-08-15T08:58:34.705Z</time>
      </trkpt>
      <trkpt lat="48.99893" lon="0.82363">
        <ele>174</ele>
        <time>2019-08-15T08:58:35.700Z</time>
      </trkpt>
      <trkpt lat="48.99893" lon="0.8235">
        <ele>173</ele>
        <time>2019-08-15T08:58:36.705Z</time>
      </trkpt>
      <trkpt lat="48.99893" lon="0.8235">
        <ele>173</ele>
        <time>2019-08-15T08:58:37.699Z</time>
      </trkpt>
      <trkpt lat="48.99894" lon="0.82338">
        <ele>172</ele>
        <time>2019-08-15T08:58:38.705Z</time>
      </trkpt>
      <trkpt lat="48.99895" lon="0.82332">
        <ele>172</ele>
        <time>2019-08-15T08:58:39.710Z</time>
      </trkpt>
      <trkpt lat="48.99896" lon="0.82325">
        <ele>172</ele>
        <time>2019-08-15T08:58:40.707Z</time>
      </trkpt>
      <trkpt lat="48.99896" lon="0.82325">
        <ele>172</ele>
        <time>2019-08-15T08:58:41.699Z</time>
      </trkpt>
      <trkpt lat="48.99897" lon="0.82315">
        <ele>171</ele>
        <time>2019-08-15T08:58:42.705Z</time>
      </trkpt>
      <trkpt lat="48.99898" lon="0.82311">
        <ele>171</ele>
        <time>2019-08-15T08:58:43.704Z</time>
      </trkpt>
      <trkpt lat="48.99898" lon="0.82311">
        <ele>171</ele>
        <time>2019-08-15T08:58:44.700Z</time>
      </trkpt>
      <trkpt lat="48.99902" lon="0.823">
        <ele>170</ele>
        <time>2019-08-15T08:58:45.705Z</time>
      </trkpt>
      <trkpt lat="48.99902" lon="0.823">
        <ele>170</ele>
        <time>2019-08-15T08:58:46.703Z</time>
      </trkpt>
      <trkpt lat="48.99904" lon="0.82289">
        <ele>170</ele>
        <time>2019-08-15T08:58:47.705Z</time>
      </trkpt>
      <trkpt lat="48.99906" lon="0.82283">
        <ele>170</ele>
        <time>2019-08-15T08:58:48.705Z</time>
      </trkpt>
      <trkpt lat="48.99906" lon="0.82283">
        <ele>170</ele>
        <time>2019-08-15T08:58:49.713Z</time>
      </trkpt>
      <trkpt lat="48.99907" lon="0.82274">
        <ele>169</ele>
        <time>2019-08-15T08:58:50.702Z</time>
      </trkpt>
      <trkpt lat="48.99907" lon="0.82274">
        <ele>169</ele>
        <time>2019-08-15T08:58:51.698Z</time>
      </trkpt>
      <trkpt lat="48.99908" lon="0.82269">
        <ele>169</ele>
        <time>2019-08-15T08:58:52.705Z</time>
      </trkpt>
      <trkpt lat="48.99908" lon="0.82269">
        <ele>169</ele>
        <time>2019-08-15T08:58:53.700Z</time>
      </trkpt>
      <trkpt lat="48.99907" lon="0.82267">
        <ele>168</ele>
        <time>2019-08-15T08:58:54.705Z</time>
      </trkpt>
      <trkpt lat="48.99907" lon="0.82267">
        <ele>168</ele>
        <time>2019-08-15T08:58:55.699Z</time>
      </trkpt>
      <trkpt lat="48.99908" lon="0.82267">
        <ele>168</ele>
        <time>2019-08-15T08:58:56.705Z</time>
      </trkpt>
      <trkpt lat="48.99908" lon="0.82267">
        <ele>168</ele>
        <time>2019-08-15T08:58:57.693Z</time>
      </trkpt>
      <trkpt lat="48.99912" lon="0.82255">
        <ele>166</ele>
        <time>2019-08-15T08:58:58.699Z</time>
      </trkpt>
      <trkpt lat="48.99912" lon="0.82255">
        <ele>166</ele>
        <time>2019-08-15T08:58:59.695Z</time>
      </trkpt>
      <trkpt lat="48.99913" lon="0.82246">
        <ele>165</ele>
        <time>2019-08-15T08:59:00.698Z</time>
      </trkpt>
      <trkpt lat="48.99913" lon="0.82246">
        <ele>165</ele>
        <time>2019-08-15T08:59:01.693Z</time>
      </trkpt>
      <trkpt lat="48.99913" lon="0.82235">
        <ele>165</ele>
        <time>2019-08-15T08:59:02.699Z</time>
      </trkpt>
      <trkpt lat="48.99913" lon="0.82235">
        <ele>165</ele>
        <time>2019-08-15T08:59:03.693Z</time>
      </trkpt>
      <trkpt lat="48.99914" lon="0.82225">
        <ele>165</ele>
        <time>2019-08-15T08:59:04.699Z</time>
      </trkpt>
      <trkpt lat="48.99914" lon="0.82225">
        <ele>165</ele>
        <time>2019-08-15T08:59:05.692Z</time>
      </trkpt>
      <trkpt lat="48.99915" lon="0.82214">
        <ele>165</ele>
        <time>2019-08-15T08:59:06.698Z</time>
      </trkpt>
      <trkpt lat="48.99915" lon="0.82214">
        <ele>165</ele>
        <time>2019-08-15T08:59:07.696Z</time>
      </trkpt>
      <trkpt lat="48.99915" lon="0.82203">
        <ele>163</ele>
        <time>2019-08-15T08:59:08.698Z</time>
      </trkpt>
      <trkpt lat="48.99915" lon="0.82203">
        <ele>163</ele>
        <time>2019-08-15T08:59:09.692Z</time>
      </trkpt>
      <trkpt lat="48.99915" lon="0.82192">
        <ele>163</ele>
        <time>2019-08-15T08:59:10.715Z</time>
      </trkpt>
      <trkpt lat="48.99915" lon="0.82192">
        <ele>163</ele>
        <time>2019-08-15T08:59:11.699Z</time>
      </trkpt>
      <trkpt lat="48.99915" lon="0.82181">
        <ele>163</ele>
        <time>2019-08-15T08:59:12.698Z</time>
      </trkpt>
      <trkpt lat="48.99915" lon="0.82181">
        <ele>163</ele>
        <time>2019-08-15T08:59:13.692Z</time>
      </trkpt>
      <trkpt lat="48.99914" lon="0.82171">
        <ele>162</ele>
        <time>2019-08-15T08:59:14.678Z</time>
      </trkpt>
      <trkpt lat="48.99914" lon="0.82171">
        <ele>162</ele>
        <time>2019-08-15T08:59:15.692Z</time>
      </trkpt>
      <trkpt lat="48.99915" lon="0.82161">
        <ele>162</ele>
        <time>2019-08-15T08:59:16.699Z</time>
      </trkpt>
      <trkpt lat="48.99915" lon="0.82161">
        <ele>162</ele>
        <time>2019-08-15T08:59:17.693Z</time>
      </trkpt>
      <trkpt lat="48.99916" lon="0.82151">
        <ele>163</ele>
        <time>2019-08-15T08:59:18.698Z</time>
      </trkpt>
      <trkpt lat="48.99916" lon="0.82151">
        <ele>163</ele>
        <time>2019-08-15T08:59:19.693Z</time>
      </trkpt>
      <trkpt lat="48.99917" lon="0.82142">
        <ele>163</ele>
        <time>2019-08-15T08:59:20.698Z</time>
      </trkpt>
      <trkpt lat="48.99917" lon="0.82142">
        <ele>163</ele>
        <time>2019-08-15T08:59:21.692Z</time>
      </trkpt>
      <trkpt lat="48.99918" lon="0.82132">
        <ele>164</ele>
        <time>2019-08-15T08:59:22.699Z</time>
      </trkpt>
      <trkpt lat="48.99918" lon="0.82132">
        <ele>164</ele>
        <time>2019-08-15T08:59:23.693Z</time>
      </trkpt>
      <trkpt lat="48.99919" lon="0.8212">
        <ele>164</ele>
        <time>2019-08-15T08:59:24.697Z</time>
      </trkpt>
      <trkpt lat="48.99919" lon="0.8212">
        <ele>164</ele>
        <time>2019-08-15T08:59:25.692Z</time>
      </trkpt>
      <trkpt lat="48.9992" lon="0.82109">
        <ele>164</ele>
        <time>2019-08-15T08:59:26.697Z</time>
      </trkpt>
      <trkpt lat="48.9992" lon="0.82109">
        <ele>164</ele>
        <time>2019-08-15T08:59:27.692Z</time>
      </trkpt>
      <trkpt lat="48.9992" lon="0.82095">
        <ele>164</ele>
        <time>2019-08-15T08:59:28.698Z</time>
      </trkpt>
      <trkpt lat="48.9992" lon="0.82089">
        <ele>164</ele>
        <time>2019-08-15T08:59:29.698Z</time>
      </trkpt>
      <trkpt lat="48.99919" lon="0.82083">
        <ele>164</ele>
        <time>2019-08-15T08:59:30.697Z</time>
      </trkpt>
      <trkpt lat="48.99919" lon="0.82083">
        <ele>164</ele>
        <time>2019-08-15T08:59:31.695Z</time>
      </trkpt>
      <trkpt lat="48.99918" lon="0.82071">
        <ele>164</ele>
        <time>2019-08-15T08:59:32.697Z</time>
      </trkpt>
      <trkpt lat="48.99918" lon="0.82066">
        <ele>164</ele>
        <time>2019-08-15T08:59:33.698Z</time>
      </trkpt>
      <trkpt lat="48.99918" lon="0.82066">
        <ele>164</ele>
        <time>2019-08-15T08:59:34.696Z</time>
      </trkpt>
      <trkpt lat="48.99918" lon="0.82059">
        <ele>164</ele>
        <time>2019-08-15T08:59:35.697Z</time>
      </trkpt>
      <trkpt lat="48.99918" lon="0.82056">
        <ele>164</ele>
        <time>2019-08-15T08:59:36.699Z</time>
      </trkpt>
      <trkpt lat="48.99918" lon="0.82056">
        <ele>164</ele>
        <time>2019-08-15T08:59:37.693Z</time>
      </trkpt>
      <trkpt lat="48.99919" lon="0.8205">
        <ele>164</ele>
        <time>2019-08-15T08:59:38.678Z</time>
      </trkpt>
      <trkpt lat="48.99919" lon="0.8205">
        <ele>164</ele>
        <time>2019-08-15T08:59:39.708Z</time>
      </trkpt>
      <trkpt lat="48.9992" lon="0.82039">
        <ele>164</ele>
        <time>2019-08-15T08:59:40.698Z</time>
      </trkpt>
      <trkpt lat="48.9992" lon="0.82039">
        <ele>164</ele>
        <time>2019-08-15T08:59:41.693Z</time>
      </trkpt>
      <trkpt lat="48.9992" lon="0.82031">
        <ele>164</ele>
        <time>2019-08-15T08:59:42.697Z</time>
      </trkpt>
      <trkpt lat="48.9992" lon="0.82031">
        <ele>164</ele>
        <time>2019-08-15T08:59:43.692Z</time>
      </trkpt>
      <trkpt lat="48.99919" lon="0.82019">
        <ele>164</ele>
        <time>2019-08-15T08:59:44.678Z</time>
      </trkpt>
      <trkpt lat="48.99919" lon="0.82019">
        <ele>164</ele>
        <time>2019-08-15T08:59:45.706Z</time>
      </trkpt>
      <trkpt lat="48.99919" lon="0.82008">
        <ele>164</ele>
        <time>2019-08-15T08:59:46.700Z</time>
      </trkpt>
      <trkpt lat="48.99919" lon="0.82008">
        <ele>164</ele>
        <time>2019-08-15T08:59:47.692Z</time>
      </trkpt>
      <trkpt lat="48.99919" lon="0.81998">
        <ele>164</ele>
        <time>2019-08-15T08:59:48.698Z</time>
      </trkpt>
      <trkpt lat="48.99919" lon="0.81993">
        <ele>164</ele>
        <time>2019-08-15T08:59:49.698Z</time>
      </trkpt>
      <trkpt lat="48.99919" lon="0.81993">
        <ele>164</ele>
        <time>2019-08-15T08:59:50.715Z</time>
      </trkpt>
      <trkpt lat="48.99918" lon="0.81981">
        <ele>165</ele>
        <time>2019-08-15T08:59:51.684Z</time>
      </trkpt>
      <trkpt lat="48.99918" lon="0.81975">
        <ele>165</ele>
        <time>2019-08-15T08:59:52.693Z</time>
      </trkpt>
      <trkpt lat="48.99918" lon="0.81975">
        <ele>165</ele>
        <time>2019-08-15T08:59:53.699Z</time>
      </trkpt>
      <trkpt lat="48.99918" lon="0.81963">
        <ele>166</ele>
        <time>2019-08-15T08:59:54.700Z</time>
      </trkpt>
      <trkpt lat="48.99918" lon="0.81963">
        <ele>166</ele>
        <time>2019-08-15T08:59:55.692Z</time>
      </trkpt>
      <trkpt lat="48.99917" lon="0.8195">
        <ele>167</ele>
        <time>2019-08-15T08:59:56.698Z</time>
      </trkpt>
      <trkpt lat="48.99917" lon="0.8195">
        <ele>167</ele>
        <time>2019-08-15T08:59:57.708Z</time>
      </trkpt>
      <trkpt lat="48.99917" lon="0.81938">
        <ele>167</ele>
        <time>2019-08-15T08:59:58.704Z</time>
      </trkpt>
      <trkpt lat="48.99917" lon="0.81932">
        <ele>168</ele>
        <time>2019-08-15T08:59:59.699Z</time>
      </trkpt>
      <trkpt lat="48.99917" lon="0.81926">
        <ele>168</ele>
        <time>2019-08-15T09:00:00.698Z</time>
      </trkpt>
      <trkpt lat="48.99917" lon="0.81926">
        <ele>168</ele>
        <time>2019-08-15T09:00:01.693Z</time>
      </trkpt>
      <trkpt lat="48.99917" lon="0.81916">
        <ele>168</ele>
        <time>2019-08-15T09:00:02.698Z</time>
      </trkpt>
      <trkpt lat="48.99917" lon="0.81916">
        <ele>168</ele>
        <time>2019-08-15T09:00:03.692Z</time>
      </trkpt>
      <trkpt lat="48.99917" lon="0.81906">
        <ele>169</ele>
        <time>2019-08-15T09:00:04.700Z</time>
      </trkpt>
      <trkpt lat="48.99917" lon="0.81906">
        <ele>169</ele>
        <time>2019-08-15T09:00:05.692Z</time>
      </trkpt>
      <trkpt lat="48.99917" lon="0.81895">
        <ele>169</ele>
        <time>2019-08-15T09:00:06.698Z</time>
      </trkpt>
      <trkpt lat="48.99917" lon="0.81895">
        <ele>169</ele>
        <time>2019-08-15T09:00:07.692Z</time>
      </trkpt>
      <trkpt lat="48.99918" lon="0.81883">
        <ele>169</ele>
        <time>2019-08-15T09:00:08.707Z</time>
      </trkpt>
      <trkpt lat="48.99918" lon="0.81883">
        <ele>169</ele>
        <time>2019-08-15T09:00:09.694Z</time>
      </trkpt>
      <trkpt lat="48.99917" lon="0.81871">
        <ele>169</ele>
        <time>2019-08-15T09:00:10.700Z</time>
      </trkpt>
      <trkpt lat="48.99917" lon="0.81871">
        <ele>169</ele>
        <time>2019-08-15T09:00:11.695Z</time>
      </trkpt>
      <trkpt lat="48.99917" lon="0.8186">
        <ele>170</ele>
        <time>2019-08-15T09:00:12.698Z</time>
      </trkpt>
      <trkpt lat="48.99917" lon="0.8186">
        <ele>170</ele>
        <time>2019-08-15T09:00:13.693Z</time>
      </trkpt>
      <trkpt lat="48.99917" lon="0.81849">
        <ele>170</ele>
        <time>2019-08-15T09:00:14.717Z</time>
      </trkpt>
      <trkpt lat="48.99917" lon="0.81849">
        <ele>170</ele>
        <time>2019-08-15T09:00:15.713Z</time>
      </trkpt>
      <trkpt lat="48.99917" lon="0.81837">
        <ele>170</ele>
        <time>2019-08-15T09:00:16.698Z</time>
      </trkpt>
      <trkpt lat="48.99917" lon="0.81837">
        <ele>170</ele>
        <time>2019-08-15T09:00:17.695Z</time>
      </trkpt>
      <trkpt lat="48.99918" lon="0.81826">
        <ele>170</ele>
        <time>2019-08-15T09:00:18.700Z</time>
      </trkpt>
      <trkpt lat="48.99918" lon="0.81826">
        <ele>170</ele>
        <time>2019-08-15T09:00:19.693Z</time>
      </trkpt>
      <trkpt lat="48.99917" lon="0.81815">
        <ele>171</ele>
        <time>2019-08-15T09:00:20.697Z</time>
      </trkpt>
      <trkpt lat="48.99917" lon="0.81815">
        <ele>171</ele>
        <time>2019-08-15T09:00:21.692Z</time>
      </trkpt>
      <trkpt lat="48.99917" lon="0.81805">
        <ele>172</ele>
        <time>2019-08-15T09:00:22.706Z</time>
      </trkpt>
      <trkpt lat="48.99917" lon="0.81805">
        <ele>172</ele>
        <time>2019-08-15T09:00:23.693Z</time>
      </trkpt>
      <trkpt lat="48.99917" lon="0.81794">
        <ele>173</ele>
        <time>2019-08-15T09:00:24.698Z</time>
      </trkpt>
      <trkpt lat="48.99917" lon="0.81794">
        <ele>173</ele>
        <time>2019-08-15T09:00:25.693Z</time>
      </trkpt>
      <trkpt lat="48.99916" lon="0.81779">
        <ele>174</ele>
        <time>2019-08-15T09:00:26.698Z</time>
      </trkpt>
      <trkpt lat="48.99916" lon="0.81779">
        <ele>174</ele>
        <time>2019-08-15T09:00:27.703Z</time>
      </trkpt>
      <trkpt lat="48.99915" lon="0.81767">
        <ele>175</ele>
        <time>2019-08-15T09:00:28.705Z</time>
      </trkpt>
      <trkpt lat="48.99915" lon="0.81767">
        <ele>175</ele>
        <time>2019-08-15T09:00:29.695Z</time>
      </trkpt>
      <trkpt lat="48.99915" lon="0.81755">
        <ele>175</ele>
        <time>2019-08-15T09:00:30.698Z</time>
      </trkpt>
      <trkpt lat="48.99915" lon="0.81755">
        <ele>175</ele>
        <time>2019-08-15T09:00:31.696Z</time>
      </trkpt>
      <trkpt lat="48.99915" lon="0.81745">
        <ele>176</ele>
        <time>2019-08-15T09:00:32.697Z</time>
      </trkpt>
      <trkpt lat="48.99915" lon="0.81739">
        <ele>177</ele>
        <time>2019-08-15T09:00:33.699Z</time>
      </trkpt>
      <trkpt lat="48.99915" lon="0.81733">
        <ele>177</ele>
        <time>2019-08-15T09:00:34.699Z</time>
      </trkpt>
      <trkpt lat="48.99915" lon="0.81733">
        <ele>177</ele>
        <time>2019-08-15T09:00:35.695Z</time>
      </trkpt>
      <trkpt lat="48.99915" lon="0.81724">
        <ele>178</ele>
        <time>2019-08-15T09:00:36.698Z</time>
      </trkpt>
      <trkpt lat="48.99915" lon="0.81724">
        <ele>178</ele>
        <time>2019-08-15T09:00:37.693Z</time>
      </trkpt>
      <trkpt lat="48.99915" lon="0.81714">
        <ele>179</ele>
        <time>2019-08-15T09:00:38.699Z</time>
      </trkpt>
      <trkpt lat="48.99915" lon="0.81714">
        <ele>179</ele>
        <time>2019-08-15T09:00:39.697Z</time>
      </trkpt>
      <trkpt lat="48.99915" lon="0.81703">
        <ele>180</ele>
        <time>2019-08-15T09:00:40.698Z</time>
      </trkpt>
      <trkpt lat="48.99915" lon="0.81703">
        <ele>180</ele>
        <time>2019-08-15T09:00:41.693Z</time>
      </trkpt>
      <trkpt lat="48.99915" lon="0.8169">
        <ele>180</ele>
        <time>2019-08-15T09:00:42.698Z</time>
      </trkpt>
      <trkpt lat="48.99915" lon="0.8169">
        <ele>180</ele>
        <time>2019-08-15T09:00:43.692Z</time>
      </trkpt>
      <trkpt lat="48.99915" lon="0.81678">
        <ele>181</ele>
        <time>2019-08-15T09:00:44.698Z</time>
      </trkpt>
      <trkpt lat="48.99915" lon="0.81678">
        <ele>181</ele>
        <time>2019-08-15T09:00:45.692Z</time>
      </trkpt>
      <trkpt lat="48.99915" lon="0.81666">
        <ele>181</ele>
        <time>2019-08-15T09:00:46.699Z</time>
      </trkpt>
      <trkpt lat="48.99915" lon="0.81666">
        <ele>181</ele>
        <time>2019-08-15T09:00:47.692Z</time>
      </trkpt>
      <trkpt lat="48.99914" lon="0.81653">
        <ele>181</ele>
        <time>2019-08-15T09:00:48.699Z</time>
      </trkpt>
      <trkpt lat="48.99914" lon="0.81653">
        <ele>181</ele>
        <time>2019-08-15T09:00:49.695Z</time>
      </trkpt>
      <trkpt lat="48.99915" lon="0.81643">
        <ele>182</ele>
        <time>2019-08-15T09:00:50.705Z</time>
      </trkpt>
      <trkpt lat="48.99915" lon="0.81643">
        <ele>182</ele>
        <time>2019-08-15T09:00:51.695Z</time>
      </trkpt>
      <trkpt lat="48.99916" lon="0.81632">
        <ele>182</ele>
        <time>2019-08-15T09:00:52.699Z</time>
      </trkpt>
      <trkpt lat="48.99916" lon="0.81632">
        <ele>182</ele>
        <time>2019-08-15T09:00:53.696Z</time>
      </trkpt>
      <trkpt lat="48.99918" lon="0.81622">
        <ele>183</ele>
        <time>2019-08-15T09:00:54.697Z</time>
      </trkpt>
      <trkpt lat="48.99918" lon="0.81622">
        <ele>183</ele>
        <time>2019-08-15T09:00:55.693Z</time>
      </trkpt>
      <trkpt lat="48.99918" lon="0.8161">
        <ele>184</ele>
        <time>2019-08-15T09:00:56.698Z</time>
      </trkpt>
      <trkpt lat="48.99918" lon="0.8161">
        <ele>184</ele>
        <time>2019-08-15T09:00:57.692Z</time>
      </trkpt>
      <trkpt lat="48.99919" lon="0.81599">
        <ele>184</ele>
        <time>2019-08-15T09:00:58.698Z</time>
      </trkpt>
      <trkpt lat="48.99919" lon="0.81599">
        <ele>184</ele>
        <time>2019-08-15T09:00:59.695Z</time>
      </trkpt>
      <trkpt lat="48.99918" lon="0.81585">
        <ele>183</ele>
        <time>2019-08-15T09:01:00.698Z</time>
      </trkpt>
      <trkpt lat="48.99918" lon="0.81585">
        <ele>183</ele>
        <time>2019-08-15T09:01:01.695Z</time>
      </trkpt>
      <trkpt lat="48.99918" lon="0.81571">
        <ele>182</ele>
        <time>2019-08-15T09:01:02.695Z</time>
      </trkpt>
      <trkpt lat="48.99918" lon="0.81564">
        <ele>182</ele>
        <time>2019-08-15T09:01:03.698Z</time>
      </trkpt>
      <trkpt lat="48.99918" lon="0.81564">
        <ele>182</ele>
        <time>2019-08-15T09:01:04.694Z</time>
      </trkpt>
      <trkpt lat="48.99919" lon="0.81551">
        <ele>180</ele>
        <time>2019-08-15T09:01:05.696Z</time>
      </trkpt>
      <trkpt lat="48.99919" lon="0.81545">
        <ele>179</ele>
        <time>2019-08-15T09:01:06.698Z</time>
      </trkpt>
      <trkpt lat="48.99919" lon="0.81545">
        <ele>179</ele>
        <time>2019-08-15T09:01:07.693Z</time>
      </trkpt>
      <trkpt lat="48.99919" lon="0.81532">
        <ele>179</ele>
        <time>2019-08-15T09:01:08.696Z</time>
      </trkpt>
      <trkpt lat="48.99919" lon="0.81527">
        <ele>179</ele>
        <time>2019-08-15T09:01:09.707Z</time>
      </trkpt>
      <trkpt lat="48.99919" lon="0.81527">
        <ele>179</ele>
        <time>2019-08-15T09:01:10.696Z</time>
      </trkpt>
      <trkpt lat="48.9992" lon="0.81517">
        <ele>179</ele>
        <time>2019-08-15T09:01:11.697Z</time>
      </trkpt>
      <trkpt lat="48.99919" lon="0.8151">
        <ele>179</ele>
        <time>2019-08-15T09:01:12.698Z</time>
      </trkpt>
      <trkpt lat="48.99919" lon="0.8151">
        <ele>179</ele>
        <time>2019-08-15T09:01:13.695Z</time>
      </trkpt>
      <trkpt lat="48.99917" lon="0.81495">
        <ele>179</ele>
        <time>2019-08-15T09:01:14.698Z</time>
      </trkpt>
      <trkpt lat="48.99917" lon="0.81495">
        <ele>179</ele>
        <time>2019-08-15T09:01:15.692Z</time>
      </trkpt>
      <trkpt lat="48.99918" lon="0.81483">
        <ele>179</ele>
        <time>2019-08-15T09:01:16.699Z</time>
      </trkpt>
      <trkpt lat="48.99918" lon="0.81483">
        <ele>179</ele>
        <time>2019-08-15T09:01:17.692Z</time>
      </trkpt>
      <trkpt lat="48.99919" lon="0.81473">
        <ele>179</ele>
        <time>2019-08-15T09:01:18.698Z</time>
      </trkpt>
      <trkpt lat="48.99919" lon="0.81473">
        <ele>179</ele>
        <time>2019-08-15T09:01:19.695Z</time>
      </trkpt>
      <trkpt lat="48.99919" lon="0.81462">
        <ele>179</ele>
        <time>2019-08-15T09:01:20.697Z</time>
      </trkpt>
      <trkpt lat="48.99919" lon="0.81457">
        <ele>180</ele>
        <time>2019-08-15T09:01:21.707Z</time>
      </trkpt>
      <trkpt lat="48.99919" lon="0.81451">
        <ele>180</ele>
        <time>2019-08-15T09:01:22.699Z</time>
      </trkpt>
      <trkpt lat="48.99919" lon="0.81451">
        <ele>180</ele>
        <time>2019-08-15T09:01:23.694Z</time>
      </trkpt>
      <trkpt lat="48.99918" lon="0.81438">
        <ele>180</ele>
        <time>2019-08-15T09:01:24.698Z</time>
      </trkpt>
      <trkpt lat="48.99918" lon="0.81438">
        <ele>180</ele>
        <time>2019-08-15T09:01:25.692Z</time>
      </trkpt>
      <trkpt lat="48.99918" lon="0.81425">
        <ele>179</ele>
        <time>2019-08-15T09:01:26.698Z</time>
      </trkpt>
      <trkpt lat="48.99918" lon="0.81425">
        <ele>179</ele>
        <time>2019-08-15T09:01:27.692Z</time>
      </trkpt>
      <trkpt lat="48.99917" lon="0.81412">
        <ele>179</ele>
        <time>2019-08-15T09:01:28.698Z</time>
      </trkpt>
      <trkpt lat="48.99917" lon="0.81412">
        <ele>179</ele>
        <time>2019-08-15T09:01:29.695Z</time>
      </trkpt>
      <trkpt lat="48.99918" lon="0.81399">
        <ele>178</ele>
        <time>2019-08-15T09:01:30.698Z</time>
      </trkpt>
      <trkpt lat="48.99918" lon="0.81399">
        <ele>178</ele>
        <time>2019-08-15T09:01:31.693Z</time>
      </trkpt>
      <trkpt lat="48.99918" lon="0.81388">
        <ele>177</ele>
        <time>2019-08-15T09:01:32.698Z</time>
      </trkpt>
      <trkpt lat="48.99918" lon="0.81388">
        <ele>177</ele>
        <time>2019-08-15T09:01:33.692Z</time>
      </trkpt>
      <trkpt lat="48.99918" lon="0.81376">
        <ele>177</ele>
        <time>2019-08-15T09:01:34.678Z</time>
      </trkpt>
      <trkpt lat="48.99918" lon="0.81376">
        <ele>177</ele>
        <time>2019-08-15T09:01:35.703Z</time>
      </trkpt>
      <trkpt lat="48.99918" lon="0.81367">
        <ele>176</ele>
        <time>2019-08-15T09:01:36.698Z</time>
      </trkpt>
      <trkpt lat="48.99918" lon="0.81367">
        <ele>176</ele>
        <time>2019-08-15T09:01:37.692Z</time>
      </trkpt>
      <trkpt lat="48.99919" lon="0.81356">
        <ele>175</ele>
        <time>2019-08-15T09:01:38.697Z</time>
      </trkpt>
      <trkpt lat="48.99919" lon="0.81356">
        <ele>175</ele>
        <time>2019-08-15T09:01:39.692Z</time>
      </trkpt>
      <trkpt lat="48.99918" lon="0.81341">
        <ele>174</ele>
        <time>2019-08-15T09:01:40.699Z</time>
      </trkpt>
      <trkpt lat="48.99918" lon="0.81341">
        <ele>174</ele>
        <time>2019-08-15T09:01:41.695Z</time>
      </trkpt>
      <trkpt lat="48.99918" lon="0.81326">
        <ele>173</ele>
        <time>2019-08-15T09:01:42.698Z</time>
      </trkpt>
      <trkpt lat="48.99918" lon="0.81326">
        <ele>173</ele>
        <time>2019-08-15T09:01:43.696Z</time>
      </trkpt>
      <trkpt lat="48.99918" lon="0.81313">
        <ele>173</ele>
        <time>2019-08-15T09:01:44.694Z</time>
      </trkpt>
      <trkpt lat="48.99918" lon="0.81313">
        <ele>173</ele>
        <time>2019-08-15T09:01:45.692Z</time>
      </trkpt>
      <trkpt lat="48.9992" lon="0.813">
        <ele>173</ele>
        <time>2019-08-15T09:01:46.698Z</time>
      </trkpt>
      <trkpt lat="48.9992" lon="0.813">
        <ele>173</ele>
        <time>2019-08-15T09:01:47.695Z</time>
      </trkpt>
      <trkpt lat="48.9992" lon="0.81286">
        <ele>173</ele>
        <time>2019-08-15T09:01:48.698Z</time>
      </trkpt>
      <trkpt lat="48.9992" lon="0.81286">
        <ele>173</ele>
        <time>2019-08-15T09:01:49.690Z</time>
      </trkpt>
      <trkpt lat="48.99919" lon="0.81271">
        <ele>173</ele>
        <time>2019-08-15T09:01:50.686Z</time>
      </trkpt>
      <trkpt lat="48.99919" lon="0.81271">
        <ele>173</ele>
        <time>2019-08-15T09:01:51.696Z</time>
      </trkpt>
      <trkpt lat="48.99918" lon="0.81254">
        <ele>172</ele>
        <time>2019-08-15T09:01:52.702Z</time>
      </trkpt>
      <trkpt lat="48.99918" lon="0.81254">
        <ele>172</ele>
        <time>2019-08-15T09:01:53.708Z</time>
      </trkpt>
      <trkpt lat="48.99918" lon="0.8124">
        <ele>172</ele>
        <time>2019-08-15T09:01:54.698Z</time>
      </trkpt>
      <trkpt lat="48.99918" lon="0.81234">
        <ele>172</ele>
        <time>2019-08-15T09:01:55.710Z</time>
      </trkpt>
      <trkpt lat="48.99918" lon="0.81234">
        <ele>172</ele>
        <time>2019-08-15T09:01:56.695Z</time>
      </trkpt>
      <trkpt lat="48.99917" lon="0.8122">
        <ele>172</ele>
        <time>2019-08-15T09:01:57.697Z</time>
      </trkpt>
      <trkpt lat="48.99916" lon="0.81211">
        <ele>172</ele>
        <time>2019-08-15T09:01:58.699Z</time>
      </trkpt>
      <trkpt lat="48.99916" lon="0.81211">
        <ele>172</ele>
        <time>2019-08-15T09:01:59.697Z</time>
      </trkpt>
      <trkpt lat="48.99916" lon="0.81196">
        <ele>172</ele>
        <time>2019-08-15T09:02:00.697Z</time>
      </trkpt>
      <trkpt lat="48.99916" lon="0.81196">
        <ele>172</ele>
        <time>2019-08-15T09:02:01.696Z</time>
      </trkpt>
      <trkpt lat="48.99916" lon="0.81182">
        <ele>171</ele>
        <time>2019-08-15T09:02:02.697Z</time>
      </trkpt>
      <trkpt lat="48.99916" lon="0.81175">
        <ele>171</ele>
        <time>2019-08-15T09:02:03.697Z</time>
      </trkpt>
      <trkpt lat="48.99917" lon="0.81169">
        <ele>171</ele>
        <time>2019-08-15T09:02:04.709Z</time>
      </trkpt>
      <trkpt lat="48.99917" lon="0.81169">
        <ele>171</ele>
        <time>2019-08-15T09:02:05.695Z</time>
      </trkpt>
      <trkpt lat="48.99917" lon="0.81155">
        <ele>171</ele>
        <time>2019-08-15T09:02:06.698Z</time>
      </trkpt>
      <trkpt lat="48.99917" lon="0.81155">
        <ele>171</ele>
        <time>2019-08-15T09:02:07.692Z</time>
      </trkpt>
      <trkpt lat="48.99917" lon="0.81141">
        <ele>170</ele>
        <time>2019-08-15T09:02:08.697Z</time>
      </trkpt>
      <trkpt lat="48.99917" lon="0.81141">
        <ele>170</ele>
        <time>2019-08-15T09:02:09.709Z</time>
      </trkpt>
      <trkpt lat="48.99918" lon="0.81127">
        <ele>169</ele>
        <time>2019-08-15T09:02:10.697Z</time>
      </trkpt>
      <trkpt lat="48.99918" lon="0.81127">
        <ele>169</ele>
        <time>2019-08-15T09:02:11.692Z</time>
      </trkpt>
      <trkpt lat="48.99918" lon="0.8111">
        <ele>168</ele>
        <time>2019-08-15T09:02:12.697Z</time>
      </trkpt>
      <trkpt lat="48.99918" lon="0.8111">
        <ele>168</ele>
        <time>2019-08-15T09:02:13.691Z</time>
      </trkpt>
      <trkpt lat="48.99916" lon="0.81094">
        <ele>168</ele>
        <time>2019-08-15T09:02:14.703Z</time>
      </trkpt>
      <trkpt lat="48.99916" lon="0.81094">
        <ele>168</ele>
        <time>2019-08-15T09:02:15.692Z</time>
      </trkpt>
      <trkpt lat="48.99916" lon="0.81078">
        <ele>167</ele>
        <time>2019-08-15T09:02:16.698Z</time>
      </trkpt>
      <trkpt lat="48.99916" lon="0.81078">
        <ele>167</ele>
        <time>2019-08-15T09:02:17.690Z</time>
      </trkpt>
      <trkpt lat="48.99916" lon="0.81062">
        <ele>167</ele>
        <time>2019-08-15T09:02:18.713Z</time>
      </trkpt>
      <trkpt lat="48.99916" lon="0.81062">
        <ele>167</ele>
        <time>2019-08-15T09:02:19.707Z</time>
      </trkpt>
      <trkpt lat="48.99916" lon="0.81046">
        <ele>167</ele>
        <time>2019-08-15T09:02:20.698Z</time>
      </trkpt>
      <trkpt lat="48.99916" lon="0.81046">
        <ele>167</ele>
        <time>2019-08-15T09:02:21.692Z</time>
      </trkpt>
      <trkpt lat="48.99916" lon="0.81031">
        <ele>166</ele>
        <time>2019-08-15T09:02:22.712Z</time>
      </trkpt>
      <trkpt lat="48.99916" lon="0.81031">
        <ele>166</ele>
        <time>2019-08-15T09:02:23.697Z</time>
      </trkpt>
      <trkpt lat="48.99916" lon="0.81017">
        <ele>166</ele>
        <time>2019-08-15T09:02:24.698Z</time>
      </trkpt>
      <trkpt lat="48.99916" lon="0.81009">
        <ele>166</ele>
        <time>2019-08-15T09:02:25.697Z</time>
      </trkpt>
      <trkpt lat="48.99916" lon="0.81001">
        <ele>166</ele>
        <time>2019-08-15T09:02:26.698Z</time>
      </trkpt>
      <trkpt lat="48.99916" lon="0.81001">
        <ele>166</ele>
        <time>2019-08-15T09:02:27.692Z</time>
      </trkpt>
      <trkpt lat="48.99916" lon="0.80986">
        <ele>165</ele>
        <time>2019-08-15T09:02:28.699Z</time>
      </trkpt>
      <trkpt lat="48.99916" lon="0.80986">
        <ele>165</ele>
        <time>2019-08-15T09:02:29.697Z</time>
      </trkpt>
      <trkpt lat="48.99915" lon="0.80969">
        <ele>165</ele>
        <time>2019-08-15T09:02:30.698Z</time>
      </trkpt>
      <trkpt lat="48.99915" lon="0.80969">
        <ele>165</ele>
        <time>2019-08-15T09:02:31.695Z</time>
      </trkpt>
      <trkpt lat="48.99914" lon="0.80953">
        <ele>165</ele>
        <time>2019-08-15T09:02:32.696Z</time>
      </trkpt>
      <trkpt lat="48.99914" lon="0.80953">
        <ele>165</ele>
        <time>2019-08-15T09:02:33.692Z</time>
      </trkpt>
      <trkpt lat="48.99915" lon="0.80939">
        <ele>165</ele>
        <time>2019-08-15T09:02:34.699Z</time>
      </trkpt>
      <trkpt lat="48.99914" lon="0.80931">
        <ele>165</ele>
        <time>2019-08-15T09:02:35.699Z</time>
      </trkpt>
      <trkpt lat="48.99914" lon="0.80931">
        <ele>165</ele>
        <time>2019-08-15T09:02:36.695Z</time>
      </trkpt>
      <trkpt lat="48.99915" lon="0.80916">
        <ele>165</ele>
        <time>2019-08-15T09:02:37.697Z</time>
      </trkpt>
      <trkpt lat="48.99915" lon="0.80908">
        <ele>164</ele>
        <time>2019-08-15T09:02:38.697Z</time>
      </trkpt>
      <trkpt lat="48.99915" lon="0.80908">
        <ele>164</ele>
        <time>2019-08-15T09:02:39.692Z</time>
      </trkpt>
      <trkpt lat="48.99916" lon="0.80892">
        <ele>164</ele>
        <time>2019-08-15T09:02:40.698Z</time>
      </trkpt>
      <trkpt lat="48.99916" lon="0.80892">
        <ele>164</ele>
        <time>2019-08-15T09:02:41.695Z</time>
      </trkpt>
      <trkpt lat="48.99916" lon="0.80875">
        <ele>164</ele>
        <time>2019-08-15T09:02:42.698Z</time>
      </trkpt>
      <trkpt lat="48.99916" lon="0.80875">
        <ele>164</ele>
        <time>2019-08-15T09:02:43.692Z</time>
      </trkpt>
      <trkpt lat="48.99917" lon="0.80858">
        <ele>164</ele>
        <time>2019-08-15T09:02:44.699Z</time>
      </trkpt>
      <trkpt lat="48.99917" lon="0.80858">
        <ele>164</ele>
        <time>2019-08-15T09:02:45.692Z</time>
      </trkpt>
      <trkpt lat="48.99917" lon="0.80842">
        <ele>163</ele>
        <time>2019-08-15T09:02:46.699Z</time>
      </trkpt>
      <trkpt lat="48.99917" lon="0.80835">
        <ele>163</ele>
        <time>2019-08-15T09:02:47.698Z</time>
      </trkpt>
      <trkpt lat="48.99917" lon="0.80835">
        <ele>163</ele>
        <time>2019-08-15T09:02:48.695Z</time>
      </trkpt>
      <trkpt lat="48.99919" lon="0.80819">
        <ele>163</ele>
        <time>2019-08-15T09:02:49.698Z</time>
      </trkpt>
      <trkpt lat="48.99919" lon="0.80819">
        <ele>163</ele>
        <time>2019-08-15T09:02:50.702Z</time>
      </trkpt>
      <trkpt lat="48.99921" lon="0.80802">
        <ele>163</ele>
        <time>2019-08-15T09:02:51.687Z</time>
      </trkpt>
      <trkpt lat="48.99923" lon="0.80793">
        <ele>163</ele>
        <time>2019-08-15T09:02:52.694Z</time>
      </trkpt>
      <trkpt lat="48.99923" lon="0.80793">
        <ele>163</ele>
        <time>2019-08-15T09:02:53.700Z</time>
      </trkpt>
      <trkpt lat="48.99925" lon="0.80776">
        <ele>163</ele>
        <time>2019-08-15T09:02:54.699Z</time>
      </trkpt>
      <trkpt lat="48.99926" lon="0.80769">
        <ele>163</ele>
        <time>2019-08-15T09:02:55.698Z</time>
      </trkpt>
      <trkpt lat="48.99926" lon="0.80769">
        <ele>163</ele>
        <time>2019-08-15T09:02:56.693Z</time>
      </trkpt>
      <trkpt lat="48.99928" lon="0.80752">
        <ele>163</ele>
        <time>2019-08-15T09:02:57.698Z</time>
      </trkpt>
      <trkpt lat="48.99929" lon="0.80743">
        <ele>163</ele>
        <time>2019-08-15T09:02:58.700Z</time>
      </trkpt>
      <trkpt lat="48.99929" lon="0.80743">
        <ele>163</ele>
        <time>2019-08-15T09:02:59.692Z</time>
      </trkpt>
      <trkpt lat="48.9993" lon="0.80727">
        <ele>163</ele>
        <time>2019-08-15T09:03:00.678Z</time>
      </trkpt>
      <trkpt lat="48.99931" lon="0.80719">
        <ele>162</ele>
        <time>2019-08-15T09:03:01.705Z</time>
      </trkpt>
      <trkpt lat="48.99931" lon="0.80719">
        <ele>162</ele>
        <time>2019-08-15T09:03:02.693Z</time>
      </trkpt>
      <trkpt lat="48.99932" lon="0.80703">
        <ele>162</ele>
        <time>2019-08-15T09:03:03.698Z</time>
      </trkpt>
      <trkpt lat="48.99932" lon="0.80703">
        <ele>162</ele>
        <time>2019-08-15T09:03:04.697Z</time>
      </trkpt>
      <trkpt lat="48.99934" lon="0.80687">
        <ele>162</ele>
        <time>2019-08-15T09:03:05.700Z</time>
      </trkpt>
      <trkpt lat="48.99934" lon="0.80678">
        <ele>161</ele>
        <time>2019-08-15T09:03:06.699Z</time>
      </trkpt>
      <trkpt lat="48.99934" lon="0.80678">
        <ele>161</ele>
        <time>2019-08-15T09:03:07.693Z</time>
      </trkpt>
      <trkpt lat="48.99935" lon="0.80661">
        <ele>160</ele>
        <time>2019-08-15T09:03:08.699Z</time>
      </trkpt>
      <trkpt lat="48.99935" lon="0.80661">
        <ele>160</ele>
        <time>2019-08-15T09:03:09.693Z</time>
      </trkpt>
      <trkpt lat="48.99936" lon="0.80644">
        <ele>159</ele>
        <time>2019-08-15T09:03:10.678Z</time>
      </trkpt>
      <trkpt lat="48.99936" lon="0.80635">
        <ele>159</ele>
        <time>2019-08-15T09:03:11.702Z</time>
      </trkpt>
      <trkpt lat="48.99937" lon="0.80627">
        <ele>158</ele>
        <time>2019-08-15T09:03:12.697Z</time>
      </trkpt>
      <trkpt lat="48.99937" lon="0.80627">
        <ele>158</ele>
        <time>2019-08-15T09:03:13.691Z</time>
      </trkpt>
      <trkpt lat="48.99937" lon="0.80611">
        <ele>157</ele>
        <time>2019-08-15T09:03:14.718Z</time>
      </trkpt>
      <trkpt lat="48.99937" lon="0.80611">
        <ele>157</ele>
        <time>2019-08-15T09:03:15.701Z</time>
      </trkpt>
      <trkpt lat="48.99935" lon="0.80595">
        <ele>157</ele>
        <time>2019-08-15T09:03:16.699Z</time>
      </trkpt>
      <trkpt lat="48.99935" lon="0.80595">
        <ele>157</ele>
        <time>2019-08-15T09:03:17.692Z</time>
      </trkpt>
      <trkpt lat="48.99934" lon="0.80577">
        <ele>155</ele>
        <time>2019-08-15T09:03:18.698Z</time>
      </trkpt>
      <trkpt lat="48.99934" lon="0.80577">
        <ele>155</ele>
        <time>2019-08-15T09:03:19.691Z</time>
      </trkpt>
      <trkpt lat="48.99932" lon="0.8056">
        <ele>154</ele>
        <time>2019-08-15T09:03:20.714Z</time>
      </trkpt>
      <trkpt lat="48.99931" lon="0.80551">
        <ele>154</ele>
        <time>2019-08-15T09:03:21.697Z</time>
      </trkpt>
      <trkpt lat="48.99931" lon="0.80551">
        <ele>154</ele>
        <time>2019-08-15T09:03:22.709Z</time>
      </trkpt>
      <trkpt lat="48.99927" lon="0.80535">
        <ele>154</ele>
        <time>2019-08-15T09:03:23.698Z</time>
      </trkpt>
      <trkpt lat="48.99927" lon="0.80535">
        <ele>154</ele>
        <time>2019-08-15T09:03:24.692Z</time>
      </trkpt>
      <trkpt lat="48.99922" lon="0.80522">
        <ele>153</ele>
        <time>2019-08-15T09:03:25.701Z</time>
      </trkpt>
      <trkpt lat="48.99922" lon="0.80522">
        <ele>153</ele>
        <time>2019-08-15T09:03:26.692Z</time>
      </trkpt>
      <trkpt lat="48.99915" lon="0.80509">
        <ele>153</ele>
        <time>2019-08-15T09:03:27.698Z</time>
      </trkpt>
      <trkpt lat="48.99912" lon="0.80502">
        <ele>154</ele>
        <time>2019-08-15T09:03:28.698Z</time>
      </trkpt>
      <trkpt lat="48.99912" lon="0.80502">
        <ele>154</ele>
        <time>2019-08-15T09:03:29.693Z</time>
      </trkpt>
      <trkpt lat="48.99904" lon="0.8049">
        <ele>154</ele>
        <time>2019-08-15T09:03:30.680Z</time>
      </trkpt>
      <trkpt lat="48.999" lon="0.80484">
        <ele>154</ele>
        <time>2019-08-15T09:03:31.708Z</time>
      </trkpt>
      <trkpt lat="48.999" lon="0.80484">
        <ele>154</ele>
        <time>2019-08-15T09:03:32.695Z</time>
      </trkpt>
      <trkpt lat="48.99892" lon="0.80472">
        <ele>154</ele>
        <time>2019-08-15T09:03:33.698Z</time>
      </trkpt>
      <trkpt lat="48.99892" lon="0.80472">
        <ele>154</ele>
        <time>2019-08-15T09:03:34.691Z</time>
      </trkpt>
      <trkpt lat="48.99885" lon="0.8046">
        <ele>154</ele>
        <time>2019-08-15T09:03:35.713Z</time>
      </trkpt>
      <trkpt lat="48.99881" lon="0.80455">
        <ele>154</ele>
        <time>2019-08-15T09:03:36.698Z</time>
      </trkpt>
      <trkpt lat="48.99881" lon="0.80455">
        <ele>154</ele>
        <time>2019-08-15T09:03:37.693Z</time>
      </trkpt>
      <trkpt lat="48.99874" lon="0.80445">
        <ele>154</ele>
        <time>2019-08-15T09:03:38.697Z</time>
      </trkpt>
      <trkpt lat="48.9987" lon="0.80441">
        <ele>154</ele>
        <time>2019-08-15T09:03:39.698Z</time>
      </trkpt>
      <trkpt lat="48.9987" lon="0.80441">
        <ele>154</ele>
        <time>2019-08-15T09:03:40.694Z</time>
      </trkpt>
      <trkpt lat="48.99863" lon="0.80431">
        <ele>154</ele>
        <time>2019-08-15T09:03:41.698Z</time>
      </trkpt>
      <trkpt lat="48.9986" lon="0.80426">
        <ele>154</ele>
        <time>2019-08-15T09:03:42.697Z</time>
      </trkpt>
      <trkpt lat="48.9986" lon="0.80426">
        <ele>154</ele>
        <time>2019-08-15T09:03:43.696Z</time>
      </trkpt>
      <trkpt lat="48.99853" lon="0.80417">
        <ele>153</ele>
        <time>2019-08-15T09:03:44.694Z</time>
      </trkpt>
      <trkpt lat="48.99849" lon="0.80412">
        <ele>153</ele>
        <time>2019-08-15T09:03:45.697Z</time>
      </trkpt>
      <trkpt lat="48.99845" lon="0.80407">
        <ele>153</ele>
        <time>2019-08-15T09:03:46.698Z</time>
      </trkpt>
      <trkpt lat="48.99845" lon="0.80407">
        <ele>153</ele>
        <time>2019-08-15T09:03:47.692Z</time>
      </trkpt>
      <trkpt lat="48.99842" lon="0.80397">
        <ele>153</ele>
        <time>2019-08-15T09:03:48.698Z</time>
      </trkpt>
      <trkpt lat="48.99842" lon="0.80397">
        <ele>153</ele>
        <time>2019-08-15T09:03:49.692Z</time>
      </trkpt>
      <trkpt lat="48.99844" lon="0.80387">
        <ele>153</ele>
        <time>2019-08-15T09:03:50.681Z</time>
      </trkpt>
      <trkpt lat="48.99845" lon="0.80382">
        <ele>153</ele>
        <time>2019-08-15T09:03:51.691Z</time>
      </trkpt>
      <trkpt lat="48.99845" lon="0.80382">
        <ele>153</ele>
        <time>2019-08-15T09:03:52.698Z</time>
      </trkpt>
      <trkpt lat="48.99848" lon="0.80371">
        <ele>153</ele>
        <time>2019-08-15T09:03:53.705Z</time>
      </trkpt>
      <trkpt lat="48.99848" lon="0.80371">
        <ele>153</ele>
        <time>2019-08-15T09:03:54.695Z</time>
      </trkpt>
      <trkpt lat="48.99851" lon="0.8036">
        <ele>154</ele>
        <time>2019-08-15T09:03:55.697Z</time>
      </trkpt>
      <trkpt lat="48.99851" lon="0.8036">
        <ele>154</ele>
        <time>2019-08-15T09:03:56.692Z</time>
      </trkpt>
      <trkpt lat="48.99853" lon="0.80348">
        <ele>154</ele>
        <time>2019-08-15T09:03:57.698Z</time>
      </trkpt>
      <trkpt lat="48.99855" lon="0.80342">
        <ele>154</ele>
        <time>2019-08-15T09:03:58.717Z</time>
      </trkpt>
      <trkpt lat="48.99855" lon="0.80342">
        <ele>154</ele>
        <time>2019-08-15T09:03:59.696Z</time>
      </trkpt>
      <trkpt lat="48.99857" lon="0.80331">
        <ele>155</ele>
        <time>2019-08-15T09:04:00.698Z</time>
      </trkpt>
      <trkpt lat="48.99859" lon="0.80325">
        <ele>155</ele>
        <time>2019-08-15T09:04:01.697Z</time>
      </trkpt>
      <trkpt lat="48.99859" lon="0.80325">
        <ele>155</ele>
        <time>2019-08-15T09:04:02.692Z</time>
      </trkpt>
      <trkpt lat="48.99861" lon="0.80313">
        <ele>155</ele>
        <time>2019-08-15T09:04:03.698Z</time>
      </trkpt>
      <trkpt lat="48.99862" lon="0.80306">
        <ele>155</ele>
        <time>2019-08-15T09:04:04.699Z</time>
      </trkpt>
      <trkpt lat="48.99862" lon="0.80306">
        <ele>155</ele>
        <time>2019-08-15T09:04:05.693Z</time>
      </trkpt>
      <trkpt lat="48.99864" lon="0.80294">
        <ele>155</ele>
        <time>2019-08-15T09:04:06.697Z</time>
      </trkpt>
      <trkpt lat="48.99864" lon="0.80294">
        <ele>155</ele>
        <time>2019-08-15T09:04:07.693Z</time>
      </trkpt>
      <trkpt lat="48.99866" lon="0.80281">
        <ele>154</ele>
        <time>2019-08-15T09:04:08.698Z</time>
      </trkpt>
      <trkpt lat="48.99866" lon="0.80281">
        <ele>154</ele>
        <time>2019-08-15T09:04:09.691Z</time>
      </trkpt>
      <trkpt lat="48.99869" lon="0.80268">
        <ele>154</ele>
        <time>2019-08-15T09:04:10.715Z</time>
      </trkpt>
      <trkpt lat="48.99869" lon="0.80268">
        <ele>154</ele>
        <time>2019-08-15T09:04:11.699Z</time>
      </trkpt>
      <trkpt lat="48.99873" lon="0.80257">
        <ele>153</ele>
        <time>2019-08-15T09:04:12.697Z</time>
      </trkpt>
      <trkpt lat="48.99873" lon="0.80257">
        <ele>153</ele>
        <time>2019-08-15T09:04:13.693Z</time>
      </trkpt>
      <trkpt lat="48.99878" lon="0.80248">
        <ele>153</ele>
        <time>2019-08-15T09:04:14.678Z</time>
      </trkpt>
      <trkpt lat="48.99882" lon="0.80245">
        <ele>154</ele>
        <time>2019-08-15T09:04:15.715Z</time>
      </trkpt>
      <trkpt lat="48.99885" lon="0.80243">
        <ele>153</ele>
        <time>2019-08-15T09:04:16.700Z</time>
      </trkpt>
      <trkpt lat="48.99885" lon="0.80243">
        <ele>153</ele>
        <time>2019-08-15T09:04:17.695Z</time>
      </trkpt>
      <trkpt lat="48.99893" lon="0.80243">
        <ele>153</ele>
        <time>2019-08-15T09:04:18.698Z</time>
      </trkpt>
      <trkpt lat="48.99893" lon="0.80243">
        <ele>153</ele>
        <time>2019-08-15T09:04:19.694Z</time>
      </trkpt>
      <trkpt lat="48.999" lon="0.80247">
        <ele>152</ele>
        <time>2019-08-15T09:04:20.697Z</time>
      </trkpt>
      <trkpt lat="48.999" lon="0.80247">
        <ele>152</ele>
        <time>2019-08-15T09:04:21.691Z</time>
      </trkpt>
      <trkpt lat="48.99907" lon="0.80252">
        <ele>152</ele>
        <time>2019-08-15T09:04:22.703Z</time>
      </trkpt>
      <trkpt lat="48.99907" lon="0.80252">
        <ele>152</ele>
        <time>2019-08-15T09:04:23.693Z</time>
      </trkpt>
      <trkpt lat="48.99913" lon="0.80257">
        <ele>153</ele>
        <time>2019-08-15T09:04:24.718Z</time>
      </trkpt>
      <trkpt lat="48.99913" lon="0.80257">
        <ele>153</ele>
        <time>2019-08-15T09:04:25.701Z</time>
      </trkpt>
      <trkpt lat="48.99918" lon="0.80262">
        <ele>153</ele>
        <time>2019-08-15T09:04:26.697Z</time>
      </trkpt>
      <trkpt lat="48.99921" lon="0.80264">
        <ele>152</ele>
        <time>2019-08-15T09:04:27.697Z</time>
      </trkpt>
      <trkpt lat="48.99924" lon="0.80267">
        <ele>152</ele>
        <time>2019-08-15T09:04:28.699Z</time>
      </trkpt>
      <trkpt lat="48.99924" lon="0.80267">
        <ele>152</ele>
        <time>2019-08-15T09:04:29.691Z</time>
      </trkpt>
      <trkpt lat="48.99929" lon="0.8027">
        <ele>152</ele>
        <time>2019-08-15T09:04:30.697Z</time>
      </trkpt>
      <trkpt lat="48.99929" lon="0.8027">
        <ele>152</ele>
        <time>2019-08-15T09:04:31.695Z</time>
      </trkpt>
      <trkpt lat="48.99934" lon="0.80274">
        <ele>152</ele>
        <time>2019-08-15T09:04:32.699Z</time>
      </trkpt>
      <trkpt lat="48.99937" lon="0.80277">
        <ele>152</ele>
        <time>2019-08-15T09:04:33.700Z</time>
      </trkpt>
      <trkpt lat="48.99937" lon="0.80277">
        <ele>152</ele>
        <time>2019-08-15T09:04:34.694Z</time>
      </trkpt>
      <trkpt lat="48.99944" lon="0.80283">
        <ele>152</ele>
        <time>2019-08-15T09:04:35.697Z</time>
      </trkpt>
      <trkpt lat="48.99948" lon="0.80286">
        <ele>152</ele>
        <time>2019-08-15T09:04:36.698Z</time>
      </trkpt>
      <trkpt lat="48.99948" lon="0.80286">
        <ele>152</ele>
        <time>2019-08-15T09:04:37.693Z</time>
      </trkpt>
      <trkpt lat="48.99955" lon="0.80294">
        <ele>153</ele>
        <time>2019-08-15T09:04:38.698Z</time>
      </trkpt>
      <trkpt lat="48.99955" lon="0.80294">
        <ele>153</ele>
        <time>2019-08-15T09:04:39.691Z</time>
      </trkpt>
      <trkpt lat="48.99964" lon="0.803">
        <ele>153</ele>
        <time>2019-08-15T09:04:40.715Z</time>
      </trkpt>
      <trkpt lat="48.99964" lon="0.803">
        <ele>153</ele>
        <time>2019-08-15T09:04:41.697Z</time>
      </trkpt>
      <trkpt lat="48.99973" lon="0.80305">
        <ele>153</ele>
        <time>2019-08-15T09:04:42.697Z</time>
      </trkpt>
      <trkpt lat="48.99973" lon="0.80305">
        <ele>153</ele>
        <time>2019-08-15T09:04:43.691Z</time>
      </trkpt>
      <trkpt lat="48.99982" lon="0.80311">
        <ele>153</ele>
        <time>2019-08-15T09:04:44.716Z</time>
      </trkpt>
      <trkpt lat="48.99986" lon="0.80314">
        <ele>153</ele>
        <time>2019-08-15T09:04:45.702Z</time>
      </trkpt>
      <trkpt lat="48.99986" lon="0.80314">
        <ele>153</ele>
        <time>2019-08-15T09:04:46.693Z</time>
      </trkpt>
      <trkpt lat="48.99996" lon="0.80318">
        <ele>152</ele>
        <time>2019-08-15T09:04:47.699Z</time>
      </trkpt>
      <trkpt lat="48.99996" lon="0.80318">
        <ele>152</ele>
        <time>2019-08-15T09:04:48.693Z</time>
      </trkpt>
      <trkpt lat="49.00006" lon="0.80324">
        <ele>152</ele>
        <time>2019-08-15T09:04:49.697Z</time>
      </trkpt>
      <trkpt lat="49.00006" lon="0.80324">
        <ele>152</ele>
        <time>2019-08-15T09:04:50.685Z</time>
      </trkpt>
      <trkpt lat="49.00015" lon="0.80334">
        <ele>151</ele>
        <time>2019-08-15T09:04:51.691Z</time>
      </trkpt>
      <trkpt lat="49.00019" lon="0.80339">
        <ele>151</ele>
        <time>2019-08-15T09:04:52.697Z</time>
      </trkpt>
      <trkpt lat="49.00019" lon="0.80339">
        <ele>151</ele>
        <time>2019-08-15T09:04:53.704Z</time>
      </trkpt>
      <trkpt lat="49.00027" lon="0.80343">
        <ele>151</ele>
        <time>2019-08-15T09:04:54.697Z</time>
      </trkpt>
      <trkpt lat="49.00027" lon="0.80343">
        <ele>151</ele>
        <time>2019-08-15T09:04:55.692Z</time>
      </trkpt>
      <trkpt lat="49.00034" lon="0.80343">
        <ele>151</ele>
        <time>2019-08-15T09:04:56.714Z</time>
      </trkpt>
      <trkpt lat="49.00034" lon="0.80343">
        <ele>151</ele>
        <time>2019-08-15T09:04:57.698Z</time>
      </trkpt>
      <trkpt lat="49.00039" lon="0.80344">
        <ele>150</ele>
        <time>2019-08-15T09:04:58.698Z</time>
      </trkpt>
      <trkpt lat="49.00039" lon="0.80344">
        <ele>150</ele>
        <time>2019-08-15T09:04:59.690Z</time>
      </trkpt>
      <trkpt lat="49.00043" lon="0.80348">
        <ele>150</ele>
        <time>2019-08-15T09:05:00.697Z</time>
      </trkpt>
      <trkpt lat="49.00043" lon="0.80348">
        <ele>150</ele>
        <time>2019-08-15T09:05:01.694Z</time>
      </trkpt>
      <trkpt lat="49.00044" lon="0.80353">
        <ele>149</ele>
        <time>2019-08-15T09:05:02.698Z</time>
      </trkpt>
      <trkpt lat="49.00044" lon="0.80353">
        <ele>149</ele>
        <time>2019-08-15T09:05:03.693Z</time>
      </trkpt>
      <trkpt lat="49.00048" lon="0.80355">
        <ele>149</ele>
        <time>2019-08-15T09:05:04.699Z</time>
      </trkpt>
      <trkpt lat="49.00048" lon="0.80355">
        <ele>149</ele>
        <time>2019-08-15T09:05:05.693Z</time>
      </trkpt>
      <trkpt lat="49.00054" lon="0.80353">
        <ele>149</ele>
        <time>2019-08-15T09:05:06.697Z</time>
      </trkpt>
      <trkpt lat="49.00058" lon="0.80352">
        <ele>149</ele>
        <time>2019-08-15T09:05:07.698Z</time>
      </trkpt>
      <trkpt lat="49.00058" lon="0.80352">
        <ele>149</ele>
        <time>2019-08-15T09:05:08.693Z</time>
      </trkpt>
      <trkpt lat="49.00065" lon="0.80352">
        <ele>149</ele>
        <time>2019-08-15T09:05:09.717Z</time>
      </trkpt>
      <trkpt lat="49.00068" lon="0.80352">
        <ele>149</ele>
        <time>2019-08-15T09:05:10.705Z</time>
      </trkpt>
      <trkpt lat="49.00068" lon="0.80352">
        <ele>149</ele>
        <time>2019-08-15T09:05:11.698Z</time>
      </trkpt>
      <trkpt lat="49.00075" lon="0.80354">
        <ele>150</ele>
        <time>2019-08-15T09:05:12.700Z</time>
      </trkpt>
      <trkpt lat="49.00075" lon="0.80354">
        <ele>150</ele>
        <time>2019-08-15T09:05:13.692Z</time>
      </trkpt>
      <trkpt lat="49.00082" lon="0.80355">
        <ele>150</ele>
        <time>2019-08-15T09:05:14.699Z</time>
      </trkpt>
      <trkpt lat="49.00082" lon="0.80355">
        <ele>150</ele>
        <time>2019-08-15T09:05:15.693Z</time>
      </trkpt>
      <trkpt lat="49.0009" lon="0.80357">
        <ele>151</ele>
        <time>2019-08-15T09:05:16.699Z</time>
      </trkpt>
      <trkpt lat="49.0009" lon="0.80357">
        <ele>151</ele>
        <time>2019-08-15T09:05:17.693Z</time>
      </trkpt>
      <trkpt lat="49.00098" lon="0.80358">
        <ele>152</ele>
        <time>2019-08-15T09:05:18.695Z</time>
      </trkpt>
      <trkpt lat="49.00103" lon="0.80359">
        <ele>153</ele>
        <time>2019-08-15T09:05:19.697Z</time>
      </trkpt>
      <trkpt lat="49.00103" lon="0.80359">
        <ele>153</ele>
        <time>2019-08-15T09:05:20.692Z</time>
      </trkpt>
      <trkpt lat="49.00112" lon="0.80362">
        <ele>155</ele>
        <time>2019-08-15T09:05:21.697Z</time>
      </trkpt>
      <trkpt lat="49.00117" lon="0.80363">
        <ele>155</ele>
        <time>2019-08-15T09:05:22.707Z</time>
      </trkpt>
      <trkpt lat="49.00117" lon="0.80363">
        <ele>155</ele>
        <time>2019-08-15T09:05:23.693Z</time>
      </trkpt>
      <trkpt lat="49.00127" lon="0.80364">
        <ele>156</ele>
        <time>2019-08-15T09:05:24.698Z</time>
      </trkpt>
      <trkpt lat="49.00127" lon="0.80364">
        <ele>156</ele>
        <time>2019-08-15T09:05:25.693Z</time>
      </trkpt>
      <trkpt lat="49.00138" lon="0.80366">
        <ele>156</ele>
        <time>2019-08-15T09:05:26.698Z</time>
      </trkpt>
      <trkpt lat="49.00138" lon="0.80366">
        <ele>156</ele>
        <time>2019-08-15T09:05:27.693Z</time>
      </trkpt>
      <trkpt lat="49.00148" lon="0.8037">
        <ele>156</ele>
        <time>2019-08-15T09:05:28.698Z</time>
      </trkpt>
      <trkpt lat="49.00148" lon="0.8037">
        <ele>156</ele>
        <time>2019-08-15T09:05:29.692Z</time>
      </trkpt>
      <trkpt lat="49.00158" lon="0.80373">
        <ele>157</ele>
        <time>2019-08-15T09:05:30.698Z</time>
      </trkpt>
      <trkpt lat="49.00158" lon="0.80373">
        <ele>157</ele>
        <time>2019-08-15T09:05:31.691Z</time>
      </trkpt>
      <trkpt lat="49.00168" lon="0.80374">
        <ele>157</ele>
        <time>2019-08-15T09:05:32.698Z</time>
      </trkpt>
      <trkpt lat="49.00168" lon="0.80374">
        <ele>157</ele>
        <time>2019-08-15T09:05:33.692Z</time>
      </trkpt>
      <trkpt lat="49.00177" lon="0.80376">
        <ele>157</ele>
        <time>2019-08-15T09:05:34.679Z</time>
      </trkpt>
      <trkpt lat="49.00177" lon="0.80376">
        <ele>157</ele>
        <time>2019-08-15T09:05:35.704Z</time>
      </trkpt>
      <trkpt lat="49.00187" lon="0.80377">
        <ele>156</ele>
        <time>2019-08-15T09:05:36.698Z</time>
      </trkpt>
      <trkpt lat="49.00187" lon="0.80377">
        <ele>156</ele>
        <time>2019-08-15T09:05:37.691Z</time>
      </trkpt>
      <trkpt lat="49.00197" lon="0.8038">
        <ele>155</ele>
        <time>2019-08-15T09:05:38.698Z</time>
      </trkpt>
      <trkpt lat="49.00197" lon="0.8038">
        <ele>155</ele>
        <time>2019-08-15T09:05:39.693Z</time>
      </trkpt>
      <trkpt lat="49.00205" lon="0.80383">
        <ele>154</ele>
        <time>2019-08-15T09:05:40.699Z</time>
      </trkpt>
      <trkpt lat="49.00205" lon="0.80383">
        <ele>154</ele>
        <time>2019-08-15T09:05:41.694Z</time>
      </trkpt>
      <trkpt lat="49.00214" lon="0.80389">
        <ele>153</ele>
        <time>2019-08-15T09:05:42.697Z</time>
      </trkpt>
      <trkpt lat="49.00218" lon="0.8039">
        <ele>154</ele>
        <time>2019-08-15T09:05:43.698Z</time>
      </trkpt>
      <trkpt lat="49.00218" lon="0.8039">
        <ele>154</ele>
        <time>2019-08-15T09:05:44.693Z</time>
      </trkpt>
      <trkpt lat="49.00228" lon="0.80389">
        <ele>153</ele>
        <time>2019-08-15T09:05:45.705Z</time>
      </trkpt>
      <trkpt lat="49.00233" lon="0.80385">
        <ele>153</ele>
        <time>2019-08-15T09:05:46.699Z</time>
      </trkpt>
      <trkpt lat="49.00233" lon="0.80385">
        <ele>153</ele>
        <time>2019-08-15T09:05:47.693Z</time>
      </trkpt>
      <trkpt lat="49.00241" lon="0.80375">
        <ele>153</ele>
        <time>2019-08-15T09:05:48.697Z</time>
      </trkpt>
      <trkpt lat="49.00241" lon="0.80375">
        <ele>153</ele>
        <time>2019-08-15T09:05:49.692Z</time>
      </trkpt>
      <trkpt lat="49.00247" lon="0.80361">
        <ele>152</ele>
        <time>2019-08-15T09:05:50.690Z</time>
      </trkpt>
      <trkpt lat="49.00247" lon="0.80361">
        <ele>152</ele>
        <time>2019-08-15T09:05:51.700Z</time>
      </trkpt>
      <trkpt lat="49.00253" lon="0.80346">
        <ele>151</ele>
        <time>2019-08-15T09:05:52.707Z</time>
      </trkpt>
      <trkpt lat="49.00253" lon="0.80346">
        <ele>151</ele>
        <time>2019-08-15T09:05:53.713Z</time>
      </trkpt>
      <trkpt lat="49.00261" lon="0.8033">
        <ele>150</ele>
        <time>2019-08-15T09:05:54.700Z</time>
      </trkpt>
      <trkpt lat="49.00265" lon="0.80322">
        <ele>150</ele>
        <time>2019-08-15T09:05:55.711Z</time>
      </trkpt>
      <trkpt lat="49.00265" lon="0.80322">
        <ele>150</ele>
        <time>2019-08-15T09:05:56.697Z</time>
      </trkpt>
      <trkpt lat="49.00276" lon="0.8031">
        <ele>149</ele>
        <time>2019-08-15T09:05:57.698Z</time>
      </trkpt>
      <trkpt lat="49.00282" lon="0.80303">
        <ele>149</ele>
        <time>2019-08-15T09:05:58.699Z</time>
      </trkpt>
      <trkpt lat="49.00282" lon="0.80303">
        <ele>149</ele>
        <time>2019-08-15T09:05:59.705Z</time>
      </trkpt>
      <trkpt lat="49.00294" lon="0.80291">
        <ele>148</ele>
        <time>2019-08-15T09:06:00.694Z</time>
      </trkpt>
      <trkpt lat="49.00294" lon="0.80291">
        <ele>148</ele>
        <time>2019-08-15T09:06:01.680Z</time>
      </trkpt>
      <trkpt lat="49.00307" lon="0.80279">
        <ele>147</ele>
        <time>2019-08-15T09:06:02.698Z</time>
      </trkpt>
      <trkpt lat="49.00307" lon="0.80279">
        <ele>147</ele>
        <time>2019-08-15T09:06:03.684Z</time>
      </trkpt>
      <trkpt lat="49.00322" lon="0.80268">
        <ele>147</ele>
        <time>2019-08-15T09:06:04.704Z</time>
      </trkpt>
      <trkpt lat="49.00322" lon="0.80268">
        <ele>147</ele>
        <time>2019-08-15T09:06:05.684Z</time>
      </trkpt>
      <trkpt lat="49.00337" lon="0.8026">
        <ele>146</ele>
        <time>2019-08-15T09:06:06.681Z</time>
      </trkpt>
      <trkpt lat="49.00337" lon="0.8026">
        <ele>146</ele>
        <time>2019-08-15T09:06:07.702Z</time>
      </trkpt>
      <trkpt lat="49.00352" lon="0.80254">
        <ele>146</ele>
        <time>2019-08-15T09:06:08.681Z</time>
      </trkpt>
      <trkpt lat="49.00361" lon="0.80251">
        <ele>145</ele>
        <time>2019-08-15T09:06:09.701Z</time>
      </trkpt>
      <trkpt lat="49.00361" lon="0.80251">
        <ele>145</ele>
        <time>2019-08-15T09:06:10.685Z</time>
      </trkpt>
      <trkpt lat="49.00378" lon="0.80244">
        <ele>144</ele>
        <time>2019-08-15T09:06:11.690Z</time>
      </trkpt>
      <trkpt lat="49.00378" lon="0.80244">
        <ele>144</ele>
        <time>2019-08-15T09:06:12.697Z</time>
      </trkpt>
      <trkpt lat="49.00397" lon="0.80238">
        <ele>143</ele>
        <time>2019-08-15T09:06:13.713Z</time>
      </trkpt>
      <trkpt lat="49.00397" lon="0.80238">
        <ele>143</ele>
        <time>2019-08-15T09:06:14.698Z</time>
      </trkpt>
      <trkpt lat="49.00415" lon="0.80232">
        <ele>142</ele>
        <time>2019-08-15T09:06:15.697Z</time>
      </trkpt>
      <trkpt lat="49.00424" lon="0.80229">
        <ele>142</ele>
        <time>2019-08-15T09:06:16.699Z</time>
      </trkpt>
      <trkpt lat="49.00424" lon="0.80229">
        <ele>142</ele>
        <time>2019-08-15T09:06:17.691Z</time>
      </trkpt>
      <trkpt lat="49.00441" lon="0.80223">
        <ele>141</ele>
        <time>2019-08-15T09:06:18.698Z</time>
      </trkpt>
      <trkpt lat="49.00441" lon="0.80223">
        <ele>141</ele>
        <time>2019-08-15T09:06:19.702Z</time>
      </trkpt>
      <trkpt lat="49.00457" lon="0.80216">
        <ele>140</ele>
        <time>2019-08-15T09:06:20.697Z</time>
      </trkpt>
      <trkpt lat="49.00465" lon="0.80214">
        <ele>139</ele>
        <time>2019-08-15T09:06:21.698Z</time>
      </trkpt>
      <trkpt lat="49.00465" lon="0.80214">
        <ele>139</ele>
        <time>2019-08-15T09:06:22.695Z</time>
      </trkpt>
      <trkpt lat="49.00479" lon="0.80209">
        <ele>137</ele>
        <time>2019-08-15T09:06:23.680Z</time>
      </trkpt>
      <trkpt lat="49.00479" lon="0.80209">
        <ele>137</ele>
        <time>2019-08-15T09:06:24.712Z</time>
      </trkpt>
      <trkpt lat="49.00492" lon="0.80206">
        <ele>137</ele>
        <time>2019-08-15T09:06:25.680Z</time>
      </trkpt>
      <trkpt lat="49.00492" lon="0.80206">
        <ele>137</ele>
        <time>2019-08-15T09:06:26.693Z</time>
      </trkpt>
      <trkpt lat="49.00502" lon="0.80202">
        <ele>137</ele>
        <time>2019-08-15T09:06:27.698Z</time>
      </trkpt>
      <trkpt lat="49.00506" lon="0.802">
        <ele>137</ele>
        <time>2019-08-15T09:06:28.696Z</time>
      </trkpt>
      <trkpt lat="49.00506" lon="0.802">
        <ele>137</ele>
        <time>2019-08-15T09:06:29.691Z</time>
      </trkpt>
      <trkpt lat="49.00517" lon="0.80198">
        <ele>137</ele>
        <time>2019-08-15T09:06:30.697Z</time>
      </trkpt>
      <trkpt lat="49.00517" lon="0.80198">
        <ele>137</ele>
        <time>2019-08-15T09:06:31.693Z</time>
      </trkpt>
      <trkpt lat="49.00529" lon="0.80196">
        <ele>137</ele>
        <time>2019-08-15T09:06:32.678Z</time>
      </trkpt>
      <trkpt lat="49.00535" lon="0.80194">
        <ele>137</ele>
        <time>2019-08-15T09:06:33.705Z</time>
      </trkpt>
      <trkpt lat="49.00535" lon="0.80194">
        <ele>137</ele>
        <time>2019-08-15T09:06:34.695Z</time>
      </trkpt>
      <trkpt lat="49.00543" lon="0.80193">
        <ele>139</ele>
        <time>2019-08-15T09:06:35.696Z</time>
      </trkpt>
      <trkpt lat="49.00547" lon="0.80192">
        <ele>140</ele>
        <time>2019-08-15T09:06:36.697Z</time>
      </trkpt>
      <trkpt lat="49.00547" lon="0.80192">
        <ele>140</ele>
        <time>2019-08-15T09:06:37.693Z</time>
      </trkpt>
      <trkpt lat="49.00556" lon="0.80191">
        <ele>141</ele>
        <time>2019-08-15T09:06:38.697Z</time>
      </trkpt>
      <trkpt lat="49.00556" lon="0.80191">
        <ele>141</ele>
        <time>2019-08-15T09:06:39.692Z</time>
      </trkpt>
      <trkpt lat="49.00566" lon="0.8019">
        <ele>141</ele>
        <time>2019-08-15T09:06:40.698Z</time>
      </trkpt>
      <trkpt lat="49.00566" lon="0.8019">
        <ele>141</ele>
        <time>2019-08-15T09:06:41.693Z</time>
      </trkpt>
      <trkpt lat="49.00575" lon="0.8019">
        <ele>140</ele>
        <time>2019-08-15T09:06:42.717Z</time>
      </trkpt>
      <trkpt lat="49.00575" lon="0.8019">
        <ele>140</ele>
        <time>2019-08-15T09:06:43.712Z</time>
      </trkpt>
      <trkpt lat="49.00585" lon="0.8019">
        <ele>140</ele>
        <time>2019-08-15T09:06:44.697Z</time>
      </trkpt>
      <trkpt lat="49.0059" lon="0.80191">
        <ele>140</ele>
        <time>2019-08-15T09:06:45.698Z</time>
      </trkpt>
      <trkpt lat="49.0059" lon="0.80191">
        <ele>140</ele>
        <time>2019-08-15T09:06:46.694Z</time>
      </trkpt>
      <trkpt lat="49.00606" lon="0.80194">
        <ele>136</ele>
        <time>2019-08-15T09:06:47.696Z</time>
      </trkpt>
      <trkpt lat="49.00612" lon="0.80195">
        <ele>134</ele>
        <time>2019-08-15T09:06:48.698Z</time>
      </trkpt>
      <trkpt lat="49.00612" lon="0.80195">
        <ele>134</ele>
        <time>2019-08-15T09:06:49.692Z</time>
      </trkpt>
      <trkpt lat="49.00622" lon="0.80191">
        <ele>128</ele>
        <time>2019-08-15T09:06:50.687Z</time>
      </trkpt>
      <trkpt lat="49.00622" lon="0.80191">
        <ele>128</ele>
        <time>2019-08-15T09:06:51.697Z</time>
      </trkpt>
      <trkpt lat="49.00636" lon="0.80191">
        <ele>123</ele>
        <time>2019-08-15T09:06:52.703Z</time>
      </trkpt>
      <trkpt lat="49.00636" lon="0.80191">
        <ele>123</ele>
        <time>2019-08-15T09:06:53.709Z</time>
      </trkpt>
      <trkpt lat="49.00654" lon="0.80189">
        <ele>116</ele>
        <time>2019-08-15T09:06:54.703Z</time>
      </trkpt>
      <trkpt lat="49.00664" lon="0.80187">
        <ele>117</ele>
        <time>2019-08-15T09:06:55.711Z</time>
      </trkpt>
      <trkpt lat="49.00673" lon="0.80187">
        <ele>117</ele>
        <time>2019-08-15T09:06:56.698Z</time>
      </trkpt>
      <trkpt lat="49.00673" lon="0.80187">
        <ele>117</ele>
        <time>2019-08-15T09:06:57.693Z</time>
      </trkpt>
      <trkpt lat="49.00688" lon="0.80185">
        <ele>115</ele>
        <time>2019-08-15T09:06:58.698Z</time>
      </trkpt>
      <trkpt lat="49.00688" lon="0.80185">
        <ele>115</ele>
        <time>2019-08-15T09:06:59.708Z</time>
      </trkpt>
      <trkpt lat="49.00702" lon="0.80184">
        <ele>114</ele>
        <time>2019-08-15T09:07:00.698Z</time>
      </trkpt>
      <trkpt lat="49.00709" lon="0.80183">
        <ele>115</ele>
        <time>2019-08-15T09:07:01.697Z</time>
      </trkpt>
      <trkpt lat="49.00709" lon="0.80183">
        <ele>115</ele>
        <time>2019-08-15T09:07:02.692Z</time>
      </trkpt>
      <trkpt lat="49.00721" lon="0.80182">
        <ele>116</ele>
        <time>2019-08-15T09:07:03.697Z</time>
      </trkpt>
      <trkpt lat="49.00727" lon="0.80181">
        <ele>116</ele>
        <time>2019-08-15T09:07:04.710Z</time>
      </trkpt>
      <trkpt lat="49.00727" lon="0.80181">
        <ele>116</ele>
        <time>2019-08-15T09:07:05.695Z</time>
      </trkpt>
      <trkpt lat="49.00737" lon="0.8018">
        <ele>116</ele>
        <time>2019-08-15T09:07:06.698Z</time>
      </trkpt>
      <trkpt lat="49.00737" lon="0.8018">
        <ele>116</ele>
        <time>2019-08-15T09:07:07.690Z</time>
      </trkpt>
      <trkpt lat="49.00748" lon="0.80178">
        <ele>116</ele>
        <time>2019-08-15T09:07:08.698Z</time>
      </trkpt>
      <trkpt lat="49.00748" lon="0.80178">
        <ele>116</ele>
        <time>2019-08-15T09:07:09.692Z</time>
      </trkpt>
      <trkpt lat="49.00758" lon="0.80175">
        <ele>114</ele>
        <time>2019-08-15T09:07:10.699Z</time>
      </trkpt>
      <trkpt lat="49.00763" lon="0.80174">
        <ele>114</ele>
        <time>2019-08-15T09:07:11.697Z</time>
      </trkpt>
      <trkpt lat="49.00763" lon="0.80174">
        <ele>114</ele>
        <time>2019-08-15T09:07:12.691Z</time>
      </trkpt>
      <trkpt lat="49.00772" lon="0.80169">
        <ele>115</ele>
        <time>2019-08-15T09:07:13.698Z</time>
      </trkpt>
      <trkpt lat="49.00772" lon="0.80169">
        <ele>115</ele>
        <time>2019-08-15T09:07:14.693Z</time>
      </trkpt>
      <trkpt lat="49.00781" lon="0.80163">
        <ele>114</ele>
        <time>2019-08-15T09:07:15.698Z</time>
      </trkpt>
      <trkpt lat="49.00784" lon="0.80159">
        <ele>114</ele>
        <time>2019-08-15T09:07:16.698Z</time>
      </trkpt>
      <trkpt lat="49.00784" lon="0.80159">
        <ele>114</ele>
        <time>2019-08-15T09:07:17.693Z</time>
      </trkpt>
      <trkpt lat="49.00791" lon="0.80153">
        <ele>114</ele>
        <time>2019-08-15T09:07:18.697Z</time>
      </trkpt>
      <trkpt lat="49.00791" lon="0.80153">
        <ele>114</ele>
        <time>2019-08-15T09:07:19.693Z</time>
      </trkpt>
      <trkpt lat="49.00797" lon="0.80149">
        <ele>115</ele>
        <time>2019-08-15T09:07:20.699Z</time>
      </trkpt>
      <trkpt lat="49.00797" lon="0.80149">
        <ele>115</ele>
        <time>2019-08-15T09:07:21.692Z</time>
      </trkpt>
      <trkpt lat="49.00804" lon="0.80143">
        <ele>115</ele>
        <time>2019-08-15T09:07:22.678Z</time>
      </trkpt>
      <trkpt lat="49.00804" lon="0.80143">
        <ele>115</ele>
        <time>2019-08-15T09:07:23.704Z</time>
      </trkpt>
      <trkpt lat="49.0081" lon="0.80136">
        <ele>116</ele>
        <time>2019-08-15T09:07:24.698Z</time>
      </trkpt>
      <trkpt lat="49.00814" lon="0.80133">
        <ele>116</ele>
        <time>2019-08-15T09:07:25.697Z</time>
      </trkpt>
      <trkpt lat="49.00818" lon="0.80129">
        <ele>116</ele>
        <time>2019-08-15T09:07:26.699Z</time>
      </trkpt>
      <trkpt lat="49.00818" lon="0.80129">
        <ele>116</ele>
        <time>2019-08-15T09:07:27.690Z</time>
      </trkpt>
      <trkpt lat="49.00824" lon="0.80123">
        <ele>116</ele>
        <time>2019-08-15T09:07:28.713Z</time>
      </trkpt>
      <trkpt lat="49.00824" lon="0.80123">
        <ele>116</ele>
        <time>2019-08-15T09:07:29.696Z</time>
      </trkpt>
      <trkpt lat="49.00831" lon="0.80118">
        <ele>116</ele>
        <time>2019-08-15T09:07:30.698Z</time>
      </trkpt>
      <trkpt lat="49.00831" lon="0.80118">
        <ele>116</ele>
        <time>2019-08-15T09:07:31.691Z</time>
      </trkpt>
      <trkpt lat="49.00836" lon="0.80113">
        <ele>115</ele>
        <time>2019-08-15T09:07:32.717Z</time>
      </trkpt>
      <trkpt lat="49.00836" lon="0.80113">
        <ele>115</ele>
        <time>2019-08-15T09:07:33.700Z</time>
      </trkpt>
      <trkpt lat="49.0084" lon="0.80108">
        <ele>115</ele>
        <time>2019-08-15T09:07:34.700Z</time>
      </trkpt>
      <trkpt lat="49.0084" lon="0.80108">
        <ele>115</ele>
        <time>2019-08-15T09:07:35.692Z</time>
      </trkpt>
      <trkpt lat="49.00845" lon="0.80102">
        <ele>116</ele>
        <time>2019-08-15T09:07:36.707Z</time>
      </trkpt>
      <trkpt lat="49.00845" lon="0.80102">
        <ele>116</ele>
        <time>2019-08-15T09:07:37.695Z</time>
      </trkpt>
      <trkpt lat="49.0085" lon="0.80098">
        <ele>116</ele>
        <time>2019-08-15T09:07:38.698Z</time>
      </trkpt>
      <trkpt lat="49.0085" lon="0.80098">
        <ele>116</ele>
        <time>2019-08-15T09:07:39.692Z</time>
      </trkpt>
      <trkpt lat="49.00856" lon="0.80092">
        <ele>116</ele>
        <time>2019-08-15T09:07:40.679Z</time>
      </trkpt>
      <trkpt lat="49.00856" lon="0.80092">
        <ele>116</ele>
        <time>2019-08-15T09:07:41.714Z</time>
      </trkpt>
      <trkpt lat="49.00862" lon="0.80087">
        <ele>115</ele>
        <time>2019-08-15T09:07:42.696Z</time>
      </trkpt>
      <trkpt lat="49.00864" lon="0.80085">
        <ele>115</ele>
        <time>2019-08-15T09:07:43.697Z</time>
      </trkpt>
      <trkpt lat="49.00867" lon="0.80085">
        <ele>115</ele>
        <time>2019-08-15T09:07:44.698Z</time>
      </trkpt>
      <trkpt lat="49.00867" lon="0.80085">
        <ele>115</ele>
        <time>2019-08-15T09:07:45.693Z</time>
      </trkpt>
      <trkpt lat="49.0087" lon="0.80084">
        <ele>114</ele>
        <time>2019-08-15T09:07:46.697Z</time>
      </trkpt>
      <trkpt lat="49.0087" lon="0.80084">
        <ele>114</ele>
        <time>2019-08-15T09:07:47.693Z</time>
      </trkpt>
      <trkpt lat="49.0087" lon="0.80084">
        <ele>114</ele>
        <time>2019-08-15T09:07:48.697Z</time>
      </trkpt>
      <trkpt lat="49.0087" lon="0.80084">
        <ele>114</ele>
        <time>2019-08-15T09:07:49.693Z</time>
      </trkpt>
      <trkpt lat="49.00871" lon="0.80084">
        <ele>114</ele>
        <time>2019-08-15T09:07:50.699Z</time>
      </trkpt>
      <trkpt lat="49.00871" lon="0.80084">
        <ele>114</ele>
        <time>2019-08-15T09:07:51.691Z</time>
      </trkpt>
      <trkpt lat="49.00871" lon="0.80084">
        <ele>113</ele>
        <time>2019-08-15T09:07:52.692Z</time>
      </trkpt>
      <trkpt lat="49.00877" lon="0.80079">
        <ele>113</ele>
        <time>2019-08-15T09:07:53.706Z</time>
      </trkpt>
      <trkpt lat="49.00877" lon="0.80079">
        <ele>113</ele>
        <time>2019-08-15T09:07:54.700Z</time>
      </trkpt>
      <trkpt lat="49.00877" lon="0.80077">
        <ele>113</ele>
        <time>2019-08-15T09:07:55.686Z</time>
      </trkpt>
      <trkpt lat="49.00877" lon="0.80077">
        <ele>113</ele>
        <time>2019-08-15T09:07:56.704Z</time>
      </trkpt>
      <trkpt lat="49.0088" lon="0.80074">
        <ele>114</ele>
        <time>2019-08-15T09:07:57.702Z</time>
      </trkpt>
      <trkpt lat="49.0088" lon="0.80074">
        <ele>114</ele>
        <time>2019-08-15T09:07:58.686Z</time>
      </trkpt>
      <trkpt lat="49.00882" lon="0.80074">
        <ele>114</ele>
        <time>2019-08-15T09:07:59.697Z</time>
      </trkpt>
      <trkpt lat="49.00882" lon="0.80074">
        <ele>114</ele>
        <time>2019-08-15T09:08:00.682Z</time>
      </trkpt>
      <trkpt lat="49.00884" lon="0.80074">
        <ele>115</ele>
        <time>2019-08-15T09:08:01.687Z</time>
      </trkpt>
      <trkpt lat="49.00884" lon="0.80074">
        <ele>115</ele>
        <time>2019-08-15T09:08:02.681Z</time>
      </trkpt>
      <trkpt lat="49.00886" lon="0.80072">
        <ele>115</ele>
        <time>2019-08-15T09:08:03.685Z</time>
      </trkpt>
      <trkpt lat="49.00887" lon="0.80071">
        <ele>115</ele>
        <time>2019-08-15T09:08:04.692Z</time>
      </trkpt>
      <trkpt lat="49.00887" lon="0.80071">
        <ele>115</ele>
        <time>2019-08-15T09:08:05.679Z</time>
      </trkpt>
      <trkpt lat="49.00888" lon="0.8007">
        <ele>116</ele>
        <time>2019-08-15T09:08:06.681Z</time>
      </trkpt>
      <trkpt lat="49.00888" lon="0.8007">
        <ele>116</ele>
        <time>2019-08-15T09:08:07.686Z</time>
      </trkpt>
      <trkpt lat="49.00888" lon="0.8007">
        <ele>116</ele>
        <time>2019-08-15T09:08:08.679Z</time>
      </trkpt>
      <trkpt lat="49.00888" lon="0.8007">
        <ele>116</ele>
        <time>2019-08-15T09:08:09.678Z</time>
      </trkpt>
      <trkpt lat="49.00891" lon="0.80062">
        <ele>115</ele>
        <time>2019-08-15T09:08:10.709Z</time>
      </trkpt>
      <trkpt lat="49.00891" lon="0.80062">
        <ele>115</ele>
        <time>2019-08-15T09:08:11.691Z</time>
      </trkpt>
      <trkpt lat="49.00892" lon="0.80059">
        <ele>115</ele>
        <time>2019-08-15T09:08:12.696Z</time>
      </trkpt>
      <trkpt lat="49.00892" lon="0.80059">
        <ele>115</ele>
        <time>2019-08-15T09:08:13.695Z</time>
      </trkpt>
      <trkpt lat="49.00893" lon="0.80055">
        <ele>115</ele>
        <time>2019-08-15T09:08:14.699Z</time>
      </trkpt>
      <trkpt lat="49.00893" lon="0.80055">
        <ele>115</ele>
        <time>2019-08-15T09:08:15.696Z</time>
      </trkpt>
      <trkpt lat="49.00894" lon="0.80053">
        <ele>115</ele>
        <time>2019-08-15T09:08:16.695Z</time>
      </trkpt>
      <trkpt lat="49.00894" lon="0.80053">
        <ele>115</ele>
        <time>2019-08-15T09:08:17.694Z</time>
      </trkpt>
      <trkpt lat="49.00894" lon="0.80053">
        <ele>115</ele>
        <time>2019-08-15T09:08:18.706Z</time>
      </trkpt>
      <trkpt lat="49.00901" lon="0.80047">
        <ele>115</ele>
        <time>2019-08-15T09:08:19.707Z</time>
      </trkpt>
      <trkpt lat="49.00901" lon="0.80047">
        <ele>115</ele>
        <time>2019-08-15T09:08:20.701Z</time>
      </trkpt>
      <trkpt lat="49.00905" lon="0.80044">
        <ele>115</ele>
        <time>2019-08-15T09:08:21.690Z</time>
      </trkpt>
      <trkpt lat="49.00906" lon="0.80043">
        <ele>115</ele>
        <time>2019-08-15T09:08:22.689Z</time>
      </trkpt>
      <trkpt lat="49.00906" lon="0.80043">
        <ele>115</ele>
        <time>2019-08-15T09:08:23.687Z</time>
      </trkpt>
      <trkpt lat="49.0091" lon="0.80042">
        <ele>115</ele>
        <time>2019-08-15T09:08:24.689Z</time>
      </trkpt>
      <trkpt lat="49.0091" lon="0.80042">
        <ele>115</ele>
        <time>2019-08-15T09:08:25.684Z</time>
      </trkpt>
      <trkpt lat="49.00912" lon="0.80039">
        <ele>115</ele>
        <time>2019-08-15T09:08:26.689Z</time>
      </trkpt>
      <trkpt lat="49.00912" lon="0.80037">
        <ele>115</ele>
        <time>2019-08-15T09:08:27.687Z</time>
      </trkpt>
      <trkpt lat="49.00913" lon="0.80034">
        <ele>115</ele>
        <time>2019-08-15T09:08:28.685Z</time>
      </trkpt>
      <trkpt lat="49.00913" lon="0.80034">
        <ele>115</ele>
        <time>2019-08-15T09:08:29.690Z</time>
      </trkpt>
      <trkpt lat="49.00913" lon="0.80028">
        <ele>115</ele>
        <time>2019-08-15T09:08:30.696Z</time>
      </trkpt>
      <trkpt lat="49.00914" lon="0.80024">
        <ele>116</ele>
        <time>2019-08-15T09:08:31.702Z</time>
      </trkpt>
      <trkpt lat="49.00914" lon="0.80024">
        <ele>116</ele>
        <time>2019-08-15T09:08:32.693Z</time>
      </trkpt>
      <trkpt lat="49.00917" lon="0.80018">
        <ele>116</ele>
        <time>2019-08-15T09:08:33.695Z</time>
      </trkpt>
      <trkpt lat="49.00917" lon="0.80018">
        <ele>116</ele>
        <time>2019-08-15T09:08:34.684Z</time>
      </trkpt>
      <trkpt lat="49.0092" lon="0.80012">
        <ele>116</ele>
        <time>2019-08-15T09:08:35.700Z</time>
      </trkpt>
      <trkpt lat="49.0092" lon="0.80012">
        <ele>116</ele>
        <time>2019-08-15T09:08:36.686Z</time>
      </trkpt>
      <trkpt lat="49.00924" lon="0.80004">
        <ele>117</ele>
        <time>2019-08-15T09:08:37.687Z</time>
      </trkpt>
      <trkpt lat="49.00924" lon="0.80004">
        <ele>117</ele>
        <time>2019-08-15T09:08:38.698Z</time>
      </trkpt>
      <trkpt lat="49.00925" lon="0.79991">
        <ele>117</ele>
        <time>2019-08-15T09:08:39.694Z</time>
      </trkpt>
      <trkpt lat="49.00925" lon="0.79985">
        <ele>118</ele>
        <time>2019-08-15T09:08:40.689Z</time>
      </trkpt>
      <trkpt lat="49.00925" lon="0.79979">
        <ele>118</ele>
        <time>2019-08-15T09:08:41.689Z</time>
      </trkpt>
      <trkpt lat="49.00925" lon="0.79979">
        <ele>118</ele>
        <time>2019-08-15T09:08:42.686Z</time>
      </trkpt>
      <trkpt lat="49.00925" lon="0.79965">
        <ele>118</ele>
        <time>2019-08-15T09:08:43.689Z</time>
      </trkpt>
      <trkpt lat="49.00925" lon="0.79965">
        <ele>118</ele>
        <time>2019-08-15T09:08:44.688Z</time>
      </trkpt>
      <trkpt lat="49.00926" lon="0.79952">
        <ele>119</ele>
        <time>2019-08-15T09:08:45.685Z</time>
      </trkpt>
      <trkpt lat="49.00926" lon="0.79952">
        <ele>119</ele>
        <time>2019-08-15T09:08:46.685Z</time>
      </trkpt>
      <trkpt lat="49.00925" lon="0.79941">
        <ele>119</ele>
        <time>2019-08-15T09:08:47.689Z</time>
      </trkpt>
      <trkpt lat="49.00925" lon="0.79941">
        <ele>119</ele>
        <time>2019-08-15T09:08:48.693Z</time>
      </trkpt>
      <trkpt lat="49.00926" lon="0.79925">
        <ele>120</ele>
        <time>2019-08-15T09:08:49.687Z</time>
      </trkpt>
      <trkpt lat="49.00926" lon="0.79925">
        <ele>120</ele>
        <time>2019-08-15T09:08:50.681Z</time>
      </trkpt>
      <trkpt lat="49.00928" lon="0.79911">
        <ele>120</ele>
        <time>2019-08-15T09:08:51.680Z</time>
      </trkpt>
      <trkpt lat="49.00929" lon="0.79905">
        <ele>121</ele>
        <time>2019-08-15T09:08:52.686Z</time>
      </trkpt>
      <trkpt lat="49.00929" lon="0.79905">
        <ele>121</ele>
        <time>2019-08-15T09:08:53.694Z</time>
      </trkpt>
      <trkpt lat="49.00932" lon="0.79896">
        <ele>121</ele>
        <time>2019-08-15T09:08:54.689Z</time>
      </trkpt>
      <trkpt lat="49.00933" lon="0.79892">
        <ele>122</ele>
        <time>2019-08-15T09:08:55.695Z</time>
      </trkpt>
      <trkpt lat="49.00933" lon="0.79892">
        <ele>122</ele>
        <time>2019-08-15T09:08:56.695Z</time>
      </trkpt>
      <trkpt lat="49.00933" lon="0.79883">
        <ele>123</ele>
        <time>2019-08-15T09:08:57.688Z</time>
      </trkpt>
      <trkpt lat="49.00933" lon="0.79883">
        <ele>123</ele>
        <time>2019-08-15T09:08:58.684Z</time>
      </trkpt>
      <trkpt lat="49.00934" lon="0.79874">
        <ele>123</ele>
        <time>2019-08-15T09:08:59.688Z</time>
      </trkpt>
      <trkpt lat="49.00934" lon="0.79874">
        <ele>123</ele>
        <time>2019-08-15T09:09:00.685Z</time>
      </trkpt>
      <trkpt lat="49.00936" lon="0.79866">
        <ele>124</ele>
        <time>2019-08-15T09:09:01.689Z</time>
      </trkpt>
      <trkpt lat="49.00936" lon="0.79862">
        <ele>125</ele>
        <time>2019-08-15T09:09:02.689Z</time>
      </trkpt>
      <trkpt lat="49.00936" lon="0.79862">
        <ele>125</ele>
        <time>2019-08-15T09:09:03.678Z</time>
      </trkpt>
      <trkpt lat="49.00937" lon="0.79855">
        <ele>125</ele>
        <time>2019-08-15T09:09:04.702Z</time>
      </trkpt>
      <trkpt lat="49.00937" lon="0.79855">
        <ele>125</ele>
        <time>2019-08-15T09:09:05.687Z</time>
      </trkpt>
      <trkpt lat="49.00938" lon="0.79846">
        <ele>126</ele>
        <time>2019-08-15T09:09:06.689Z</time>
      </trkpt>
      <trkpt lat="49.00938" lon="0.79841">
        <ele>127</ele>
        <time>2019-08-15T09:09:07.686Z</time>
      </trkpt>
      <trkpt lat="49.00938" lon="0.79841">
        <ele>127</ele>
        <time>2019-08-15T09:09:08.681Z</time>
      </trkpt>
      <trkpt lat="49.00938" lon="0.79832">
        <ele>128</ele>
        <time>2019-08-15T09:09:09.704Z</time>
      </trkpt>
      <trkpt lat="49.00938" lon="0.79832">
        <ele>128</ele>
        <time>2019-08-15T09:09:10.687Z</time>
      </trkpt>
      <trkpt lat="49.00939" lon="0.79822">
        <ele>129</ele>
        <time>2019-08-15T09:09:11.688Z</time>
      </trkpt>
      <trkpt lat="49.00939" lon="0.79822">
        <ele>129</ele>
        <time>2019-08-15T09:09:12.684Z</time>
      </trkpt>
      <trkpt lat="49.0094" lon="0.79812">
        <ele>129</ele>
        <time>2019-08-15T09:09:13.689Z</time>
      </trkpt>
      <trkpt lat="49.0094" lon="0.79808">
        <ele>130</ele>
        <time>2019-08-15T09:09:14.689Z</time>
      </trkpt>
      <trkpt lat="49.0094" lon="0.79803">
        <ele>131</ele>
        <time>2019-08-15T09:09:15.689Z</time>
      </trkpt>
      <trkpt lat="49.0094" lon="0.79803">
        <ele>131</ele>
        <time>2019-08-15T09:09:16.684Z</time>
      </trkpt>
      <trkpt lat="49.00939" lon="0.79794">
        <ele>132</ele>
        <time>2019-08-15T09:09:17.690Z</time>
      </trkpt>
      <trkpt lat="49.00939" lon="0.79794">
        <ele>132</ele>
        <time>2019-08-15T09:09:18.684Z</time>
      </trkpt>
      <trkpt lat="49.00939" lon="0.79786">
        <ele>133</ele>
        <time>2019-08-15T09:09:19.689Z</time>
      </trkpt>
      <trkpt lat="49.00939" lon="0.79786">
        <ele>133</ele>
        <time>2019-08-15T09:09:20.684Z</time>
      </trkpt>
      <trkpt lat="49.00939" lon="0.7978">
        <ele>134</ele>
        <time>2019-08-15T09:09:21.690Z</time>
      </trkpt>
      <trkpt lat="49.00939" lon="0.7978">
        <ele>134</ele>
        <time>2019-08-15T09:09:22.685Z</time>
      </trkpt>
      <trkpt lat="49.00938" lon="0.79772">
        <ele>135</ele>
        <time>2019-08-15T09:09:23.689Z</time>
      </trkpt>
      <trkpt lat="49.00938" lon="0.79772">
        <ele>135</ele>
        <time>2019-08-15T09:09:24.684Z</time>
      </trkpt>
      <trkpt lat="49.00938" lon="0.79764">
        <ele>136</ele>
        <time>2019-08-15T09:09:25.686Z</time>
      </trkpt>
      <trkpt lat="49.00938" lon="0.79764">
        <ele>136</ele>
        <time>2019-08-15T09:09:26.685Z</time>
      </trkpt>
      <trkpt lat="49.00938" lon="0.79755">
        <ele>137</ele>
        <time>2019-08-15T09:09:27.695Z</time>
      </trkpt>
      <trkpt lat="49.00938" lon="0.79755">
        <ele>137</ele>
        <time>2019-08-15T09:09:28.703Z</time>
      </trkpt>
      <trkpt lat="49.00938" lon="0.79747">
        <ele>138</ele>
        <time>2019-08-15T09:09:29.690Z</time>
      </trkpt>
      <trkpt lat="49.00938" lon="0.79747">
        <ele>138</ele>
        <time>2019-08-15T09:09:30.684Z</time>
      </trkpt>
      <trkpt lat="49.00938" lon="0.79735">
        <ele>139</ele>
        <time>2019-08-15T09:09:31.687Z</time>
      </trkpt>
      <trkpt lat="49.00937" lon="0.7973">
        <ele>139</ele>
        <time>2019-08-15T09:09:32.690Z</time>
      </trkpt>
      <trkpt lat="49.00937" lon="0.7973">
        <ele>139</ele>
        <time>2019-08-15T09:09:33.685Z</time>
      </trkpt>
      <trkpt lat="49.00937" lon="0.79718">
        <ele>140</ele>
        <time>2019-08-15T09:09:34.681Z</time>
      </trkpt>
      <trkpt lat="49.00938" lon="0.79713">
        <ele>140</ele>
        <time>2019-08-15T09:09:35.704Z</time>
      </trkpt>
      <trkpt lat="49.0094" lon="0.79708">
        <ele>141</ele>
        <time>2019-08-15T09:09:36.689Z</time>
      </trkpt>
      <trkpt lat="49.0094" lon="0.79708">
        <ele>141</ele>
        <time>2019-08-15T09:09:37.685Z</time>
      </trkpt>
      <trkpt lat="49.00942" lon="0.79698">
        <ele>142</ele>
        <time>2019-08-15T09:09:38.689Z</time>
      </trkpt>
      <trkpt lat="49.00942" lon="0.79698">
        <ele>142</ele>
        <time>2019-08-15T09:09:39.684Z</time>
      </trkpt>
      <trkpt lat="49.00943" lon="0.79688">
        <ele>143</ele>
        <time>2019-08-15T09:09:40.687Z</time>
      </trkpt>
      <trkpt lat="49.00944" lon="0.79683">
        <ele>144</ele>
        <time>2019-08-15T09:09:41.686Z</time>
      </trkpt>
      <trkpt lat="49.00944" lon="0.79683">
        <ele>144</ele>
        <time>2019-08-15T09:09:42.681Z</time>
      </trkpt>
      <trkpt lat="49.00944" lon="0.79673">
        <ele>145</ele>
        <time>2019-08-15T09:09:43.701Z</time>
      </trkpt>
      <trkpt lat="49.00944" lon="0.79673">
        <ele>145</ele>
        <time>2019-08-15T09:09:44.685Z</time>
      </trkpt>
      <trkpt lat="49.00945" lon="0.79665">
        <ele>146</ele>
        <time>2019-08-15T09:09:45.690Z</time>
      </trkpt>
      <trkpt lat="49.00945" lon="0.79665">
        <ele>146</ele>
        <time>2019-08-15T09:09:46.684Z</time>
      </trkpt>
      <trkpt lat="49.00946" lon="0.79657">
        <ele>147</ele>
        <time>2019-08-15T09:09:47.688Z</time>
      </trkpt>
      <trkpt lat="49.00946" lon="0.79657">
        <ele>147</ele>
        <time>2019-08-15T09:09:48.686Z</time>
      </trkpt>
      <trkpt lat="49.00946" lon="0.7965">
        <ele>148</ele>
        <time>2019-08-15T09:09:49.681Z</time>
      </trkpt>
      <trkpt lat="49.00946" lon="0.79647">
        <ele>149</ele>
        <time>2019-08-15T09:09:50.694Z</time>
      </trkpt>
      <trkpt lat="49.00946" lon="0.79647">
        <ele>149</ele>
        <time>2019-08-15T09:09:51.690Z</time>
      </trkpt>
      <trkpt lat="49.00946" lon="0.79638">
        <ele>149</ele>
        <time>2019-08-15T09:09:52.689Z</time>
      </trkpt>
      <trkpt lat="49.00946" lon="0.79633">
        <ele>148</ele>
        <time>2019-08-15T09:09:53.689Z</time>
      </trkpt>
      <trkpt lat="49.00946" lon="0.79633">
        <ele>148</ele>
        <time>2019-08-15T09:09:54.684Z</time>
      </trkpt>
      <trkpt lat="49.00946" lon="0.79624">
        <ele>147</ele>
        <time>2019-08-15T09:09:55.689Z</time>
      </trkpt>
      <trkpt lat="49.00946" lon="0.79624">
        <ele>147</ele>
        <time>2019-08-15T09:09:56.683Z</time>
      </trkpt>
      <trkpt lat="49.00948" lon="0.79615">
        <ele>147</ele>
        <time>2019-08-15T09:09:57.687Z</time>
      </trkpt>
      <trkpt lat="49.00948" lon="0.79615">
        <ele>147</ele>
        <time>2019-08-15T09:09:58.684Z</time>
      </trkpt>
      <trkpt lat="49.00948" lon="0.79604">
        <ele>147</ele>
        <time>2019-08-15T09:09:59.714Z</time>
      </trkpt>
      <trkpt lat="49.00949" lon="0.79598">
        <ele>147</ele>
        <time>2019-08-15T09:10:00.706Z</time>
      </trkpt>
      <trkpt lat="49.00949" lon="0.79598">
        <ele>147</ele>
        <time>2019-08-15T09:10:01.690Z</time>
      </trkpt>
      <trkpt lat="49.00948" lon="0.79586">
        <ele>147</ele>
        <time>2019-08-15T09:10:02.708Z</time>
      </trkpt>
      <trkpt lat="49.00947" lon="0.7958">
        <ele>148</ele>
        <time>2019-08-15T09:10:03.694Z</time>
      </trkpt>
      <trkpt lat="49.00947" lon="0.7958">
        <ele>148</ele>
        <time>2019-08-15T09:10:04.684Z</time>
      </trkpt>
      <trkpt lat="49.00946" lon="0.79568">
        <ele>148</ele>
        <time>2019-08-15T09:10:05.688Z</time>
      </trkpt>
      <trkpt lat="49.00946" lon="0.79568">
        <ele>148</ele>
        <time>2019-08-15T09:10:06.684Z</time>
      </trkpt>
      <trkpt lat="49.00947" lon="0.79556">
        <ele>148</ele>
        <time>2019-08-15T09:10:07.689Z</time>
      </trkpt>
      <trkpt lat="49.00947" lon="0.79556">
        <ele>148</ele>
        <time>2019-08-15T09:10:08.684Z</time>
      </trkpt>
      <trkpt lat="49.00948" lon="0.79544">
        <ele>149</ele>
        <time>2019-08-15T09:10:09.711Z</time>
      </trkpt>
      <trkpt lat="49.00948" lon="0.79544">
        <ele>149</ele>
        <time>2019-08-15T09:10:10.694Z</time>
      </trkpt>
      <trkpt lat="49.00949" lon="0.79533">
        <ele>150</ele>
        <time>2019-08-15T09:10:11.689Z</time>
      </trkpt>
      <trkpt lat="49.00949" lon="0.79533">
        <ele>150</ele>
        <time>2019-08-15T09:10:12.684Z</time>
      </trkpt>
      <trkpt lat="49.00951" lon="0.79522">
        <ele>151</ele>
        <time>2019-08-15T09:10:13.689Z</time>
      </trkpt>
      <trkpt lat="49.00952" lon="0.79517">
        <ele>151</ele>
        <time>2019-08-15T09:10:14.688Z</time>
      </trkpt>
      <trkpt lat="49.00952" lon="0.79517">
        <ele>151</ele>
        <time>2019-08-15T09:10:15.685Z</time>
      </trkpt>
      <trkpt lat="49.00952" lon="0.79506">
        <ele>151</ele>
        <time>2019-08-15T09:10:16.689Z</time>
      </trkpt>
      <trkpt lat="49.00953" lon="0.79499">
        <ele>151</ele>
        <time>2019-08-15T09:10:17.687Z</time>
      </trkpt>
      <trkpt lat="49.00953" lon="0.79499">
        <ele>151</ele>
        <time>2019-08-15T09:10:18.683Z</time>
      </trkpt>
      <trkpt lat="49.00955" lon="0.79487">
        <ele>150</ele>
        <time>2019-08-15T09:10:19.689Z</time>
      </trkpt>
      <trkpt lat="49.00955" lon="0.79487">
        <ele>150</ele>
        <time>2019-08-15T09:10:20.684Z</time>
      </trkpt>
      <trkpt lat="49.00956" lon="0.79472">
        <ele>149</ele>
        <time>2019-08-15T09:10:21.711Z</time>
      </trkpt>
      <trkpt lat="49.00956" lon="0.79472">
        <ele>149</ele>
        <time>2019-08-15T09:10:22.705Z</time>
      </trkpt>
      <trkpt lat="49.00957" lon="0.79458">
        <ele>149</ele>
        <time>2019-08-15T09:10:23.690Z</time>
      </trkpt>
      <trkpt lat="49.00957" lon="0.79458">
        <ele>149</ele>
        <time>2019-08-15T09:10:24.685Z</time>
      </trkpt>
      <trkpt lat="49.0096" lon="0.79447">
        <ele>150</ele>
        <time>2019-08-15T09:10:25.688Z</time>
      </trkpt>
      <trkpt lat="49.00962" lon="0.79441">
        <ele>150</ele>
        <time>2019-08-15T09:10:26.689Z</time>
      </trkpt>
      <trkpt lat="49.00962" lon="0.79441">
        <ele>150</ele>
        <time>2019-08-15T09:10:27.684Z</time>
      </trkpt>
      <trkpt lat="49.00965" lon="0.7943">
        <ele>151</ele>
        <time>2019-08-15T09:10:28.687Z</time>
      </trkpt>
      <trkpt lat="49.00965" lon="0.7943">
        <ele>151</ele>
        <time>2019-08-15T09:10:29.684Z</time>
      </trkpt>
      <trkpt lat="49.00968" lon="0.79419">
        <ele>151</ele>
        <time>2019-08-15T09:10:30.689Z</time>
      </trkpt>
      <trkpt lat="49.0097" lon="0.79413">
        <ele>151</ele>
        <time>2019-08-15T09:10:31.688Z</time>
      </trkpt>
      <trkpt lat="49.0097" lon="0.79413">
        <ele>151</ele>
        <time>2019-08-15T09:10:32.693Z</time>
      </trkpt>
      <trkpt lat="49.00971" lon="0.79399">
        <ele>151</ele>
        <time>2019-08-15T09:10:33.695Z</time>
      </trkpt>
      <trkpt lat="49.00971" lon="0.79399">
        <ele>151</ele>
        <time>2019-08-15T09:10:34.683Z</time>
      </trkpt>
      <trkpt lat="49.00972" lon="0.79386">
        <ele>150</ele>
        <time>2019-08-15T09:10:35.687Z</time>
      </trkpt>
      <trkpt lat="49.00972" lon="0.79386">
        <ele>150</ele>
        <time>2019-08-15T09:10:36.684Z</time>
      </trkpt>
      <trkpt lat="49.00974" lon="0.79373">
        <ele>150</ele>
        <time>2019-08-15T09:10:37.689Z</time>
      </trkpt>
      <trkpt lat="49.00974" lon="0.79366">
        <ele>150</ele>
        <time>2019-08-15T09:10:38.689Z</time>
      </trkpt>
      <trkpt lat="49.00974" lon="0.79366">
        <ele>150</ele>
        <time>2019-08-15T09:10:39.685Z</time>
      </trkpt>
      <trkpt lat="49.00974" lon="0.79353">
        <ele>149</ele>
        <time>2019-08-15T09:10:40.689Z</time>
      </trkpt>
      <trkpt lat="49.00974" lon="0.79347">
        <ele>149</ele>
        <time>2019-08-15T09:10:41.687Z</time>
      </trkpt>
      <trkpt lat="49.00974" lon="0.79347">
        <ele>149</ele>
        <time>2019-08-15T09:10:42.683Z</time>
      </trkpt>
      <trkpt lat="49.00971" lon="0.79334">
        <ele>148</ele>
        <time>2019-08-15T09:10:43.685Z</time>
      </trkpt>
      <trkpt lat="49.00971" lon="0.79334">
        <ele>148</ele>
        <time>2019-08-15T09:10:44.684Z</time>
      </trkpt>
      <trkpt lat="49.00968" lon="0.79322">
        <ele>148</ele>
        <time>2019-08-15T09:10:45.694Z</time>
      </trkpt>
      <trkpt lat="49.00968" lon="0.79322">
        <ele>148</ele>
        <time>2019-08-15T09:10:46.683Z</time>
      </trkpt>
      <trkpt lat="49.00965" lon="0.7931">
        <ele>148</ele>
        <time>2019-08-15T09:10:47.689Z</time>
      </trkpt>
      <trkpt lat="49.00965" lon="0.7931">
        <ele>148</ele>
        <time>2019-08-15T09:10:48.683Z</time>
      </trkpt>
      <trkpt lat="49.00962" lon="0.79298">
        <ele>148</ele>
        <time>2019-08-15T09:10:49.689Z</time>
      </trkpt>
      <trkpt lat="49.00962" lon="0.79298">
        <ele>148</ele>
        <time>2019-08-15T09:10:50.685Z</time>
      </trkpt>
      <trkpt lat="49.0096" lon="0.79287">
        <ele>147</ele>
        <time>2019-08-15T09:10:51.703Z</time>
      </trkpt>
      <trkpt lat="49.0096" lon="0.79287">
        <ele>147</ele>
        <time>2019-08-15T09:10:52.710Z</time>
      </trkpt>
      <trkpt lat="49.00958" lon="0.79275">
        <ele>148</ele>
        <time>2019-08-15T09:10:53.718Z</time>
      </trkpt>
      <trkpt lat="49.00958" lon="0.79275">
        <ele>148</ele>
        <time>2019-08-15T09:10:54.704Z</time>
      </trkpt>
      <trkpt lat="49.00955" lon="0.79264">
        <ele>148</ele>
        <time>2019-08-15T09:10:55.692Z</time>
      </trkpt>
      <trkpt lat="49.00955" lon="0.79264">
        <ele>148</ele>
        <time>2019-08-15T09:10:56.681Z</time>
      </trkpt>
      <trkpt lat="49.00953" lon="0.79253">
        <ele>148</ele>
        <time>2019-08-15T09:10:57.705Z</time>
      </trkpt>
      <trkpt lat="49.00951" lon="0.79247">
        <ele>147</ele>
        <time>2019-08-15T09:10:58.693Z</time>
      </trkpt>
      <trkpt lat="49.0095" lon="0.79242">
        <ele>147</ele>
        <time>2019-08-15T09:10:59.687Z</time>
      </trkpt>
      <trkpt lat="49.0095" lon="0.79242">
        <ele>147</ele>
        <time>2019-08-15T09:11:00.684Z</time>
      </trkpt>
      <trkpt lat="49.00947" lon="0.79231">
        <ele>148</ele>
        <time>2019-08-15T09:11:01.689Z</time>
      </trkpt>
      <trkpt lat="49.00946" lon="0.79225">
        <ele>147</ele>
        <time>2019-08-15T09:11:02.687Z</time>
      </trkpt>
      <trkpt lat="49.00946" lon="0.79225">
        <ele>147</ele>
        <time>2019-08-15T09:11:03.684Z</time>
      </trkpt>
      <trkpt lat="49.00943" lon="0.79212">
        <ele>148</ele>
        <time>2019-08-15T09:11:04.689Z</time>
      </trkpt>
      <trkpt lat="49.00942" lon="0.79206">
        <ele>148</ele>
        <time>2019-08-15T09:11:05.689Z</time>
      </trkpt>
      <trkpt lat="49.00942" lon="0.79206">
        <ele>148</ele>
        <time>2019-08-15T09:11:06.683Z</time>
      </trkpt>
      <trkpt lat="49.00941" lon="0.79195">
        <ele>149</ele>
        <time>2019-08-15T09:11:07.689Z</time>
      </trkpt>
      <trkpt lat="49.0094" lon="0.79189">
        <ele>148</ele>
        <time>2019-08-15T09:11:08.698Z</time>
      </trkpt>
      <trkpt lat="49.0094" lon="0.79189">
        <ele>148</ele>
        <time>2019-08-15T09:11:09.684Z</time>
      </trkpt>
      <trkpt lat="49.00937" lon="0.79178">
        <ele>148</ele>
        <time>2019-08-15T09:11:10.689Z</time>
      </trkpt>
      <trkpt lat="49.00937" lon="0.79172">
        <ele>148</ele>
        <time>2019-08-15T09:11:11.687Z</time>
      </trkpt>
      <trkpt lat="49.00937" lon="0.79172">
        <ele>148</ele>
        <time>2019-08-15T09:11:12.682Z</time>
      </trkpt>
      <trkpt lat="49.00935" lon="0.7916">
        <ele>147</ele>
        <time>2019-08-15T09:11:13.684Z</time>
      </trkpt>
      <trkpt lat="49.00935" lon="0.7916">
        <ele>147</ele>
        <time>2019-08-15T09:11:14.683Z</time>
      </trkpt>
      <trkpt lat="49.00932" lon="0.79148">
        <ele>147</ele>
        <time>2019-08-15T09:11:15.694Z</time>
      </trkpt>
      <trkpt lat="49.00932" lon="0.79148">
        <ele>147</ele>
        <time>2019-08-15T09:11:16.684Z</time>
      </trkpt>
      <trkpt lat="49.0093" lon="0.79135">
        <ele>147</ele>
        <time>2019-08-15T09:11:17.686Z</time>
      </trkpt>
      <trkpt lat="49.0093" lon="0.79135">
        <ele>147</ele>
        <time>2019-08-15T09:11:18.685Z</time>
      </trkpt>
      <trkpt lat="49.00928" lon="0.79123">
        <ele>147</ele>
        <time>2019-08-15T09:11:19.691Z</time>
      </trkpt>
      <trkpt lat="49.00927" lon="0.79116">
        <ele>146</ele>
        <time>2019-08-15T09:11:20.693Z</time>
      </trkpt>
      <trkpt lat="49.00927" lon="0.79116">
        <ele>146</ele>
        <time>2019-08-15T09:11:21.684Z</time>
      </trkpt>
      <trkpt lat="49.00926" lon="0.79103">
        <ele>146</ele>
        <time>2019-08-15T09:11:22.689Z</time>
      </trkpt>
      <trkpt lat="49.00926" lon="0.79096">
        <ele>146</ele>
        <time>2019-08-15T09:11:23.689Z</time>
      </trkpt>
      <trkpt lat="49.00926" lon="0.79096">
        <ele>146</ele>
        <time>2019-08-15T09:11:24.684Z</time>
      </trkpt>
      <trkpt lat="49.00926" lon="0.79084">
        <ele>146</ele>
        <time>2019-08-15T09:11:25.689Z</time>
      </trkpt>
      <trkpt lat="49.00926" lon="0.79084">
        <ele>146</ele>
        <time>2019-08-15T09:11:26.685Z</time>
      </trkpt>
      <trkpt lat="49.00926" lon="0.79073">
        <ele>146</ele>
        <time>2019-08-15T09:11:27.688Z</time>
      </trkpt>
      <trkpt lat="49.00926" lon="0.79073">
        <ele>146</ele>
        <time>2019-08-15T09:11:28.684Z</time>
      </trkpt>
      <trkpt lat="49.00926" lon="0.79063">
        <ele>146</ele>
        <time>2019-08-15T09:11:29.706Z</time>
      </trkpt>
      <trkpt lat="49.00926" lon="0.79063">
        <ele>146</ele>
        <time>2019-08-15T09:11:30.685Z</time>
      </trkpt>
      <trkpt lat="49.00925" lon="0.79053">
        <ele>146</ele>
        <time>2019-08-15T09:11:31.685Z</time>
      </trkpt>
      <trkpt lat="49.00925" lon="0.79053">
        <ele>146</ele>
        <time>2019-08-15T09:11:32.684Z</time>
      </trkpt>
      <trkpt lat="49.00925" lon="0.79043">
        <ele>146</ele>
        <time>2019-08-15T09:11:33.688Z</time>
      </trkpt>
      <trkpt lat="49.00925" lon="0.79043">
        <ele>146</ele>
        <time>2019-08-15T09:11:34.683Z</time>
      </trkpt>
      <trkpt lat="49.00924" lon="0.79034">
        <ele>145</ele>
        <time>2019-08-15T09:11:35.687Z</time>
      </trkpt>
      <trkpt lat="49.00923" lon="0.79029">
        <ele>145</ele>
        <time>2019-08-15T09:11:36.689Z</time>
      </trkpt>
      <trkpt lat="49.00923" lon="0.79029">
        <ele>145</ele>
        <time>2019-08-15T09:11:37.682Z</time>
      </trkpt>
      <trkpt lat="49.00918" lon="0.79018">
        <ele>145</ele>
        <time>2019-08-15T09:11:38.710Z</time>
      </trkpt>
      <trkpt lat="49.00917" lon="0.79012">
        <ele>145</ele>
        <time>2019-08-15T09:11:39.695Z</time>
      </trkpt>
      <trkpt lat="49.00917" lon="0.79012">
        <ele>145</ele>
        <time>2019-08-15T09:11:40.704Z</time>
      </trkpt>
      <trkpt lat="49.00913" lon="0.78999">
        <ele>146</ele>
        <time>2019-08-15T09:11:41.689Z</time>
      </trkpt>
      <trkpt lat="49.00913" lon="0.78999">
        <ele>146</ele>
        <time>2019-08-15T09:11:42.684Z</time>
      </trkpt>
      <trkpt lat="49.00911" lon="0.78988">
        <ele>146</ele>
        <time>2019-08-15T09:11:43.689Z</time>
      </trkpt>
      <trkpt lat="49.00911" lon="0.78988">
        <ele>146</ele>
        <time>2019-08-15T09:11:44.684Z</time>
      </trkpt>
      <trkpt lat="49.00907" lon="0.78975">
        <ele>145</ele>
        <time>2019-08-15T09:11:45.694Z</time>
      </trkpt>
      <trkpt lat="49.00907" lon="0.78975">
        <ele>145</ele>
        <time>2019-08-15T09:11:46.684Z</time>
      </trkpt>
      <trkpt lat="49.00903" lon="0.78961">
        <ele>145</ele>
        <time>2019-08-15T09:11:47.688Z</time>
      </trkpt>
      <trkpt lat="49.00903" lon="0.78961">
        <ele>145</ele>
        <time>2019-08-15T09:11:48.684Z</time>
      </trkpt>
      <trkpt lat="49.00901" lon="0.78951">
        <ele>145</ele>
        <time>2019-08-15T09:11:49.708Z</time>
      </trkpt>
      <trkpt lat="49.009" lon="0.78947">
        <ele>144</ele>
        <time>2019-08-15T09:11:50.688Z</time>
      </trkpt>
      <trkpt lat="49.009" lon="0.78947">
        <ele>144</ele>
        <time>2019-08-15T09:11:51.717Z</time>
      </trkpt>
      <trkpt lat="49.00898" lon="0.78942">
        <ele>144</ele>
        <time>2019-08-15T09:11:52.683Z</time>
      </trkpt>
      <trkpt lat="49.00898" lon="0.78942">
        <ele>144</ele>
        <time>2019-08-15T09:11:53.689Z</time>
      </trkpt>
      <trkpt lat="49.00897" lon="0.78934">
        <ele>144</ele>
        <time>2019-08-15T09:11:54.713Z</time>
      </trkpt>
      <trkpt lat="49.00897" lon="0.78934">
        <ele>144</ele>
        <time>2019-08-15T09:11:55.697Z</time>
      </trkpt>
      <trkpt lat="49.00898" lon="0.78928">
        <ele>145</ele>
        <time>2019-08-15T09:11:56.689Z</time>
      </trkpt>
      <trkpt lat="49.009" lon="0.78925">
        <ele>144</ele>
        <time>2019-08-15T09:11:57.689Z</time>
      </trkpt>
      <trkpt lat="49.009" lon="0.78925">
        <ele>144</ele>
        <time>2019-08-15T09:11:58.684Z</time>
      </trkpt>
      <trkpt lat="49.00905" lon="0.78918">
        <ele>145</ele>
        <time>2019-08-15T09:11:59.705Z</time>
      </trkpt>
      <trkpt lat="49.00905" lon="0.78918">
        <ele>145</ele>
        <time>2019-08-15T09:12:00.695Z</time>
      </trkpt>
      <trkpt lat="49.00909" lon="0.78912">
        <ele>146</ele>
        <time>2019-08-15T09:12:01.688Z</time>
      </trkpt>
      <trkpt lat="49.00909" lon="0.78912">
        <ele>146</ele>
        <time>2019-08-15T09:12:02.683Z</time>
      </trkpt>
      <trkpt lat="49.00914" lon="0.78906">
        <ele>147</ele>
        <time>2019-08-15T09:12:03.690Z</time>
      </trkpt>
      <trkpt lat="49.00914" lon="0.78906">
        <ele>147</ele>
        <time>2019-08-15T09:12:04.684Z</time>
      </trkpt>
      <trkpt lat="49.00919" lon="0.78898">
        <ele>147</ele>
        <time>2019-08-15T09:12:05.689Z</time>
      </trkpt>
      <trkpt lat="49.00919" lon="0.78898">
        <ele>147</ele>
        <time>2019-08-15T09:12:06.682Z</time>
      </trkpt>
      <trkpt lat="49.00925" lon="0.78891">
        <ele>148</ele>
        <time>2019-08-15T09:12:07.686Z</time>
      </trkpt>
      <trkpt lat="49.00927" lon="0.78888">
        <ele>148</ele>
        <time>2019-08-15T09:12:08.694Z</time>
      </trkpt>
      <trkpt lat="49.00927" lon="0.78888">
        <ele>148</ele>
        <time>2019-08-15T09:12:09.685Z</time>
      </trkpt>
      <trkpt lat="49.00932" lon="0.78882">
        <ele>149</ele>
        <time>2019-08-15T09:12:10.687Z</time>
      </trkpt>
      <trkpt lat="49.00933" lon="0.78878">
        <ele>150</ele>
        <time>2019-08-15T09:12:11.689Z</time>
      </trkpt>
      <trkpt lat="49.00933" lon="0.78878">
        <ele>150</ele>
        <time>2019-08-15T09:12:12.683Z</time>
      </trkpt>
      <trkpt lat="49.00934" lon="0.78872">
        <ele>151</ele>
        <time>2019-08-15T09:12:13.685Z</time>
      </trkpt>
      <trkpt lat="49.00934" lon="0.78872">
        <ele>151</ele>
        <time>2019-08-15T09:12:14.683Z</time>
      </trkpt>
      <trkpt lat="49.00934" lon="0.78864">
        <ele>152</ele>
        <time>2019-08-15T09:12:15.689Z</time>
      </trkpt>
      <trkpt lat="49.00934" lon="0.78864">
        <ele>152</ele>
        <time>2019-08-15T09:12:16.683Z</time>
      </trkpt>
      <trkpt lat="49.00932" lon="0.78856">
        <ele>152</ele>
        <time>2019-08-15T09:12:17.689Z</time>
      </trkpt>
      <trkpt lat="49.00932" lon="0.78856">
        <ele>152</ele>
        <time>2019-08-15T09:12:18.682Z</time>
      </trkpt>
      <trkpt lat="49.00931" lon="0.78849">
        <ele>153</ele>
        <time>2019-08-15T09:12:19.705Z</time>
      </trkpt>
      <trkpt lat="49.00931" lon="0.78845">
        <ele>153</ele>
        <time>2019-08-15T09:12:20.693Z</time>
      </trkpt>
      <trkpt lat="49.0093" lon="0.78842">
        <ele>154</ele>
        <time>2019-08-15T09:12:21.689Z</time>
      </trkpt>
      <trkpt lat="49.0093" lon="0.78842">
        <ele>154</ele>
        <time>2019-08-15T09:12:22.703Z</time>
      </trkpt>
      <trkpt lat="49.0093" lon="0.78834">
        <ele>154</ele>
        <time>2019-08-15T09:12:23.694Z</time>
      </trkpt>
      <trkpt lat="49.0093" lon="0.78834">
        <ele>154</ele>
        <time>2019-08-15T09:12:24.685Z</time>
      </trkpt>
      <trkpt lat="49.00929" lon="0.78826">
        <ele>155</ele>
        <time>2019-08-15T09:12:25.687Z</time>
      </trkpt>
      <trkpt lat="49.00929" lon="0.78822">
        <ele>155</ele>
        <time>2019-08-15T09:12:26.689Z</time>
      </trkpt>
      <trkpt lat="49.00928" lon="0.78817">
        <ele>155</ele>
        <time>2019-08-15T09:12:27.695Z</time>
      </trkpt>
      <trkpt lat="49.00928" lon="0.78817">
        <ele>155</ele>
        <time>2019-08-15T09:12:28.699Z</time>
      </trkpt>
      <trkpt lat="49.00928" lon="0.78809">
        <ele>156</ele>
        <time>2019-08-15T09:12:29.689Z</time>
      </trkpt>
      <trkpt lat="49.00928" lon="0.78809">
        <ele>156</ele>
        <time>2019-08-15T09:12:30.684Z</time>
      </trkpt>
      <trkpt lat="49.00926" lon="0.78796">
        <ele>156</ele>
        <time>2019-08-15T09:12:31.685Z</time>
      </trkpt>
      <trkpt lat="49.00925" lon="0.78789">
        <ele>156</ele>
        <time>2019-08-15T09:12:32.693Z</time>
      </trkpt>
      <trkpt lat="49.00924" lon="0.78784">
        <ele>156</ele>
        <time>2019-08-15T09:12:33.690Z</time>
      </trkpt>
      <trkpt lat="49.00924" lon="0.78784">
        <ele>156</ele>
        <time>2019-08-15T09:12:34.685Z</time>
      </trkpt>
      <trkpt lat="49.00922" lon="0.78774">
        <ele>157</ele>
        <time>2019-08-15T09:12:35.689Z</time>
      </trkpt>
      <trkpt lat="49.00922" lon="0.78774">
        <ele>157</ele>
        <time>2019-08-15T09:12:36.682Z</time>
      </trkpt>
      <trkpt lat="49.00919" lon="0.78764">
        <ele>157</ele>
        <time>2019-08-15T09:12:37.685Z</time>
      </trkpt>
      <trkpt lat="49.00918" lon="0.7876">
        <ele>157</ele>
        <time>2019-08-15T09:12:38.697Z</time>
      </trkpt>
      <trkpt lat="49.00917" lon="0.78756">
        <ele>157</ele>
        <time>2019-08-15T09:12:39.695Z</time>
      </trkpt>
      <trkpt lat="49.00917" lon="0.78756">
        <ele>157</ele>
        <time>2019-08-15T09:12:40.689Z</time>
      </trkpt>
      <trkpt lat="49.00916" lon="0.7875">
        <ele>156</ele>
        <time>2019-08-15T09:12:41.689Z</time>
      </trkpt>
      <trkpt lat="49.00916" lon="0.7875">
        <ele>156</ele>
        <time>2019-08-15T09:12:42.684Z</time>
      </trkpt>
      <trkpt lat="49.00914" lon="0.78744">
        <ele>156</ele>
        <time>2019-08-15T09:12:43.685Z</time>
      </trkpt>
      <trkpt lat="49.00914" lon="0.78744">
        <ele>156</ele>
        <time>2019-08-15T09:12:44.686Z</time>
      </trkpt>
      <trkpt lat="49.00913" lon="0.78741">
        <ele>156</ele>
        <time>2019-08-15T09:12:45.685Z</time>
      </trkpt>
      <trkpt lat="49.00913" lon="0.78741">
        <ele>156</ele>
        <time>2019-08-15T09:12:46.687Z</time>
      </trkpt>
      <trkpt lat="49.00913" lon="0.78741">
        <ele>156</ele>
        <time>2019-08-15T09:12:47.689Z</time>
      </trkpt>
      <trkpt lat="49.00907" lon="0.78718">
        <ele>155</ele>
        <time>2019-08-15T09:12:48.703Z</time>
      </trkpt>
      <trkpt lat="49.00907" lon="0.78716">
        <ele>155</ele>
        <time>2019-08-15T09:12:49.696Z</time>
      </trkpt>
      <trkpt lat="49.00907" lon="0.78716">
        <ele>155</ele>
        <time>2019-08-15T09:12:50.742Z</time>
      </trkpt>
      <trkpt lat="49.00906" lon="0.78709">
        <ele>154</ele>
        <time>2019-08-15T09:12:51.696Z</time>
      </trkpt>
      <trkpt lat="49.00906" lon="0.78705">
        <ele>154</ele>
        <time>2019-08-15T09:12:52.697Z</time>
      </trkpt>
      <trkpt lat="49.00906" lon="0.78701">
        <ele>154</ele>
        <time>2019-08-15T09:12:53.702Z</time>
      </trkpt>
      <trkpt lat="49.00906" lon="0.78701">
        <ele>154</ele>
        <time>2019-08-15T09:12:54.694Z</time>
      </trkpt>
      <trkpt lat="49.00904" lon="0.78692">
        <ele>153</ele>
        <time>2019-08-15T09:12:55.712Z</time>
      </trkpt>
      <trkpt lat="49.00904" lon="0.78687">
        <ele>153</ele>
        <time>2019-08-15T09:12:56.697Z</time>
      </trkpt>
      <trkpt lat="49.00904" lon="0.78687">
        <ele>153</ele>
        <time>2019-08-15T09:12:57.692Z</time>
      </trkpt>
      <trkpt lat="49.00901" lon="0.78678">
        <ele>152</ele>
        <time>2019-08-15T09:12:58.696Z</time>
      </trkpt>
      <trkpt lat="49.00901" lon="0.78678">
        <ele>152</ele>
        <time>2019-08-15T09:12:59.691Z</time>
      </trkpt>
      <trkpt lat="49.00901" lon="0.7867">
        <ele>151</ele>
        <time>2019-08-15T09:13:00.702Z</time>
      </trkpt>
      <trkpt lat="49.00901" lon="0.7867">
        <ele>151</ele>
        <time>2019-08-15T09:13:01.691Z</time>
      </trkpt>
      <trkpt lat="49.00906" lon="0.78664">
        <ele>151</ele>
        <time>2019-08-15T09:13:02.692Z</time>
      </trkpt>
      <trkpt lat="49.00906" lon="0.78664">
        <ele>151</ele>
        <time>2019-08-15T09:13:03.690Z</time>
      </trkpt>
      <trkpt lat="49.00911" lon="0.78654">
        <ele>150</ele>
        <time>2019-08-15T09:13:04.692Z</time>
      </trkpt>
      <trkpt lat="49.00911" lon="0.78654">
        <ele>150</ele>
        <time>2019-08-15T09:13:05.692Z</time>
      </trkpt>
      <trkpt lat="49.00915" lon="0.78645">
        <ele>149</ele>
        <time>2019-08-15T09:13:06.696Z</time>
      </trkpt>
      <trkpt lat="49.00915" lon="0.78645">
        <ele>149</ele>
        <time>2019-08-15T09:13:07.689Z</time>
      </trkpt>
      <trkpt lat="49.0092" lon="0.78637">
        <ele>149</ele>
        <time>2019-08-15T09:13:08.692Z</time>
      </trkpt>
      <trkpt lat="49.00923" lon="0.78631">
        <ele>149</ele>
        <time>2019-08-15T09:13:09.696Z</time>
      </trkpt>
      <trkpt lat="49.00923" lon="0.78631">
        <ele>149</ele>
        <time>2019-08-15T09:13:10.691Z</time>
      </trkpt>
      <trkpt lat="49.00929" lon="0.78621">
        <ele>149</ele>
        <time>2019-08-15T09:13:11.696Z</time>
      </trkpt>
      <trkpt lat="49.00929" lon="0.78621">
        <ele>149</ele>
        <time>2019-08-15T09:13:12.691Z</time>
      </trkpt>
      <trkpt lat="49.00935" lon="0.78611">
        <ele>149</ele>
        <time>2019-08-15T09:13:13.692Z</time>
      </trkpt>
      <trkpt lat="49.00938" lon="0.78607">
        <ele>149</ele>
        <time>2019-08-15T09:13:14.695Z</time>
      </trkpt>
      <trkpt lat="49.00938" lon="0.78607">
        <ele>149</ele>
        <time>2019-08-15T09:13:15.689Z</time>
      </trkpt>
      <trkpt lat="49.00944" lon="0.78597">
        <ele>148</ele>
        <time>2019-08-15T09:13:16.701Z</time>
      </trkpt>
      <trkpt lat="49.00944" lon="0.78597">
        <ele>148</ele>
        <time>2019-08-15T09:13:17.691Z</time>
      </trkpt>
      <trkpt lat="49.0095" lon="0.78587">
        <ele>149</ele>
        <time>2019-08-15T09:13:18.695Z</time>
      </trkpt>
      <trkpt lat="49.0095" lon="0.78587">
        <ele>149</ele>
        <time>2019-08-15T09:13:19.690Z</time>
      </trkpt>
      <trkpt lat="49.00957" lon="0.78579">
        <ele>149</ele>
        <time>2019-08-15T09:13:20.695Z</time>
      </trkpt>
      <trkpt lat="49.00957" lon="0.78579">
        <ele>149</ele>
        <time>2019-08-15T09:13:21.689Z</time>
      </trkpt>
      <trkpt lat="49.00964" lon="0.7857">
        <ele>150</ele>
        <time>2019-08-15T09:13:22.678Z</time>
      </trkpt>
      <trkpt lat="49.00964" lon="0.7857">
        <ele>150</ele>
        <time>2019-08-15T09:13:23.713Z</time>
      </trkpt>
      <trkpt lat="49.00972" lon="0.78561">
        <ele>150</ele>
        <time>2019-08-15T09:13:24.707Z</time>
      </trkpt>
      <trkpt lat="49.00975" lon="0.78557">
        <ele>150</ele>
        <time>2019-08-15T09:13:25.696Z</time>
      </trkpt>
      <trkpt lat="49.00975" lon="0.78557">
        <ele>150</ele>
        <time>2019-08-15T09:13:26.690Z</time>
      </trkpt>
      <trkpt lat="49.00983" lon="0.78548">
        <ele>150</ele>
        <time>2019-08-15T09:13:27.696Z</time>
      </trkpt>
      <trkpt lat="49.00987" lon="0.78545">
        <ele>150</ele>
        <time>2019-08-15T09:13:28.697Z</time>
      </trkpt>
      <trkpt lat="49.00992" lon="0.78543">
        <ele>151</ele>
        <time>2019-08-15T09:13:29.709Z</time>
      </trkpt>
      <trkpt lat="49.00992" lon="0.78543">
        <ele>151</ele>
        <time>2019-08-15T09:13:30.695Z</time>
      </trkpt>
      <trkpt lat="49.01" lon="0.78541">
        <ele>151</ele>
        <time>2019-08-15T09:13:31.693Z</time>
      </trkpt>
      <trkpt lat="49.01" lon="0.78541">
        <ele>151</ele>
        <time>2019-08-15T09:13:32.691Z</time>
      </trkpt>
      <trkpt lat="49.01008" lon="0.78542">
        <ele>152</ele>
        <time>2019-08-15T09:13:33.695Z</time>
      </trkpt>
      <trkpt lat="49.01012" lon="0.78544">
        <ele>152</ele>
        <time>2019-08-15T09:13:34.707Z</time>
      </trkpt>
      <trkpt lat="49.01012" lon="0.78544">
        <ele>152</ele>
        <time>2019-08-15T09:13:35.693Z</time>
      </trkpt>
      <trkpt lat="49.01017" lon="0.78545">
        <ele>152</ele>
        <time>2019-08-15T09:13:36.696Z</time>
      </trkpt>
      <trkpt lat="49.01017" lon="0.78545">
        <ele>152</ele>
        <time>2019-08-15T09:13:37.690Z</time>
      </trkpt>
      <trkpt lat="49.01024" lon="0.78548">
        <ele>152</ele>
        <time>2019-08-15T09:13:38.696Z</time>
      </trkpt>
      <trkpt lat="49.01024" lon="0.78548">
        <ele>152</ele>
        <time>2019-08-15T09:13:39.693Z</time>
      </trkpt>
      <trkpt lat="49.01032" lon="0.78553">
        <ele>152</ele>
        <time>2019-08-15T09:13:40.696Z</time>
      </trkpt>
      <trkpt lat="49.01032" lon="0.78553">
        <ele>152</ele>
        <time>2019-08-15T09:13:41.691Z</time>
      </trkpt>
      <trkpt lat="49.01039" lon="0.78557">
        <ele>153</ele>
        <time>2019-08-15T09:13:42.696Z</time>
      </trkpt>
      <trkpt lat="49.01039" lon="0.78557">
        <ele>153</ele>
        <time>2019-08-15T09:13:43.689Z</time>
      </trkpt>
      <trkpt lat="49.01045" lon="0.78562">
        <ele>153</ele>
        <time>2019-08-15T09:13:44.695Z</time>
      </trkpt>
      <trkpt lat="49.01048" lon="0.78564">
        <ele>153</ele>
        <time>2019-08-15T09:13:45.696Z</time>
      </trkpt>
      <trkpt lat="49.01051" lon="0.78565">
        <ele>153</ele>
        <time>2019-08-15T09:13:46.702Z</time>
      </trkpt>
      <trkpt lat="49.01051" lon="0.78565">
        <ele>153</ele>
        <time>2019-08-15T09:13:47.691Z</time>
      </trkpt>
      <trkpt lat="49.01056" lon="0.78569">
        <ele>153</ele>
        <time>2019-08-15T09:13:48.693Z</time>
      </trkpt>
      <trkpt lat="49.01059" lon="0.78572">
        <ele>152</ele>
        <time>2019-08-15T09:13:49.692Z</time>
      </trkpt>
      <trkpt lat="49.01059" lon="0.78572">
        <ele>152</ele>
        <time>2019-08-15T09:13:50.684Z</time>
      </trkpt>
      <trkpt lat="49.01064" lon="0.78576">
        <ele>152</ele>
        <time>2019-08-15T09:13:51.694Z</time>
      </trkpt>
      <trkpt lat="49.01064" lon="0.78576">
        <ele>152</ele>
        <time>2019-08-15T09:13:52.700Z</time>
      </trkpt>
      <trkpt lat="49.01071" lon="0.78581">
        <ele>152</ele>
        <time>2019-08-15T09:13:53.706Z</time>
      </trkpt>
      <trkpt lat="49.01074" lon="0.78586">
        <ele>152</ele>
        <time>2019-08-15T09:13:54.695Z</time>
      </trkpt>
      <trkpt lat="49.01074" lon="0.78586">
        <ele>152</ele>
        <time>2019-08-15T09:13:55.690Z</time>
      </trkpt>
      <trkpt lat="49.01079" lon="0.78596">
        <ele>151</ele>
        <time>2019-08-15T09:13:56.707Z</time>
      </trkpt>
      <trkpt lat="49.01079" lon="0.78596">
        <ele>151</ele>
        <time>2019-08-15T09:13:57.692Z</time>
      </trkpt>
      <trkpt lat="49.01083" lon="0.78609">
        <ele>151</ele>
        <time>2019-08-15T09:13:58.693Z</time>
      </trkpt>
      <trkpt lat="49.01083" lon="0.78609">
        <ele>151</ele>
        <time>2019-08-15T09:13:59.691Z</time>
      </trkpt>
      <trkpt lat="49.01087" lon="0.78622">
        <ele>150</ele>
        <time>2019-08-15T09:14:00.695Z</time>
      </trkpt>
      <trkpt lat="49.01087" lon="0.78622">
        <ele>150</ele>
        <time>2019-08-15T09:14:01.691Z</time>
      </trkpt>
      <trkpt lat="49.01093" lon="0.78634">
        <ele>150</ele>
        <time>2019-08-15T09:14:02.716Z</time>
      </trkpt>
      <trkpt lat="49.01097" lon="0.7864">
        <ele>149</ele>
        <time>2019-08-15T09:14:03.701Z</time>
      </trkpt>
      <trkpt lat="49.01101" lon="0.78647">
        <ele>149</ele>
        <time>2019-08-15T09:14:04.702Z</time>
      </trkpt>
      <trkpt lat="49.01101" lon="0.78647">
        <ele>149</ele>
        <time>2019-08-15T09:14:05.694Z</time>
      </trkpt>
      <trkpt lat="49.01109" lon="0.78658">
        <ele>149</ele>
        <time>2019-08-15T09:14:06.696Z</time>
      </trkpt>
      <trkpt lat="49.01109" lon="0.78658">
        <ele>149</ele>
        <time>2019-08-15T09:14:07.692Z</time>
      </trkpt>
      <trkpt lat="49.01117" lon="0.78662">
        <ele>149</ele>
        <time>2019-08-15T09:14:08.696Z</time>
      </trkpt>
      <trkpt lat="49.01117" lon="0.78662">
        <ele>149</ele>
        <time>2019-08-15T09:14:09.690Z</time>
      </trkpt>
      <trkpt lat="49.01128" lon="0.78662">
        <ele>148</ele>
        <time>2019-08-15T09:14:10.702Z</time>
      </trkpt>
      <trkpt lat="49.01133" lon="0.78661">
        <ele>148</ele>
        <time>2019-08-15T09:14:11.710Z</time>
      </trkpt>
      <trkpt lat="49.01133" lon="0.78661">
        <ele>148</ele>
        <time>2019-08-15T09:14:12.695Z</time>
      </trkpt>
      <trkpt lat="49.01142" lon="0.78656">
        <ele>148</ele>
        <time>2019-08-15T09:14:13.697Z</time>
      </trkpt>
      <trkpt lat="49.01142" lon="0.78656">
        <ele>148</ele>
        <time>2019-08-15T09:14:14.690Z</time>
      </trkpt>
      <trkpt lat="49.01152" lon="0.78649">
        <ele>149</ele>
        <time>2019-08-15T09:14:15.715Z</time>
      </trkpt>
      <trkpt lat="49.01157" lon="0.78647">
        <ele>149</ele>
        <time>2019-08-15T09:14:16.704Z</time>
      </trkpt>
      <trkpt lat="49.01157" lon="0.78647">
        <ele>149</ele>
        <time>2019-08-15T09:14:17.691Z</time>
      </trkpt>
      <trkpt lat="49.01167" lon="0.78643">
        <ele>149</ele>
        <time>2019-08-15T09:14:18.696Z</time>
      </trkpt>
      <trkpt lat="49.01167" lon="0.78643">
        <ele>149</ele>
        <time>2019-08-15T09:14:19.690Z</time>
      </trkpt>
      <trkpt lat="49.01177" lon="0.78638">
        <ele>149</ele>
        <time>2019-08-15T09:14:20.695Z</time>
      </trkpt>
      <trkpt lat="49.01182" lon="0.78636">
        <ele>149</ele>
        <time>2019-08-15T09:14:21.697Z</time>
      </trkpt>
      <trkpt lat="49.01186" lon="0.78633">
        <ele>149</ele>
        <time>2019-08-15T09:14:22.697Z</time>
      </trkpt>
      <trkpt lat="49.01186" lon="0.78633">
        <ele>149</ele>
        <time>2019-08-15T09:14:23.691Z</time>
      </trkpt>
      <trkpt lat="49.01196" lon="0.78628">
        <ele>149</ele>
        <time>2019-08-15T09:14:24.696Z</time>
      </trkpt>
      <trkpt lat="49.01196" lon="0.78628">
        <ele>149</ele>
        <time>2019-08-15T09:14:25.690Z</time>
      </trkpt>
      <trkpt lat="49.01206" lon="0.78622">
        <ele>150</ele>
        <time>2019-08-15T09:14:26.696Z</time>
      </trkpt>
      <trkpt lat="49.01206" lon="0.78622">
        <ele>150</ele>
        <time>2019-08-15T09:14:27.692Z</time>
      </trkpt>
      <trkpt lat="49.01216" lon="0.78617">
        <ele>150</ele>
        <time>2019-08-15T09:14:28.702Z</time>
      </trkpt>
      <trkpt lat="49.0122" lon="0.78615">
        <ele>150</ele>
        <time>2019-08-15T09:14:29.695Z</time>
      </trkpt>
      <trkpt lat="49.01225" lon="0.78613">
        <ele>150</ele>
        <time>2019-08-15T09:14:30.702Z</time>
      </trkpt>
      <trkpt lat="49.01225" lon="0.78613">
        <ele>150</ele>
        <time>2019-08-15T09:14:31.690Z</time>
      </trkpt>
      <trkpt lat="49.01234" lon="0.78609">
        <ele>150</ele>
        <time>2019-08-15T09:14:32.715Z</time>
      </trkpt>
      <trkpt lat="49.01237" lon="0.78608">
        <ele>150</ele>
        <time>2019-08-15T09:14:33.702Z</time>
      </trkpt>
      <trkpt lat="49.01237" lon="0.78608">
        <ele>150</ele>
        <time>2019-08-15T09:14:34.691Z</time>
      </trkpt>
      <trkpt lat="49.01243" lon="0.78604">
        <ele>150</ele>
        <time>2019-08-15T09:14:35.716Z</time>
      </trkpt>
      <trkpt lat="49.01245" lon="0.78603">
        <ele>150</ele>
        <time>2019-08-15T09:14:36.703Z</time>
      </trkpt>
      <trkpt lat="49.01245" lon="0.78603">
        <ele>150</ele>
        <time>2019-08-15T09:14:37.690Z</time>
      </trkpt>
      <trkpt lat="49.01246" lon="0.78602">
        <ele>150</ele>
        <time>2019-08-15T09:14:38.695Z</time>
      </trkpt>
      <trkpt lat="49.01246" lon="0.78602">
        <ele>150</ele>
        <time>2019-08-15T09:14:39.689Z</time>
      </trkpt>
      <trkpt lat="49.01247" lon="0.78602">
        <ele>150</ele>
        <time>2019-08-15T09:14:40.702Z</time>
      </trkpt>
    </trkseg>
  </trk>
</gpx>